<?xml version="1.0" encoding="UTF-8" standalone="no" ?>
<gpx xmlns="http://www.topografix.com/GPX/1/1" xmlns:xsi="http://www.w3.org/2001/XMLSchema-instance" xsi:schemaLocation="http://www.topografix.com/GPX/1/1 http://www.topografix.com/GPX/1/1/gpx.xsd" version="1.1" creator="VisuGPX - https://www.visugpx.com">
  <metadata>
    <name>Lachens modif'</name>
    <desc><![CDATA[Petite modification de la fin randonnée du lachens. Après le dernier ravito, sortie du ruisseau, une variante qui fait terminer à St Maxime par la DH. ]]></desc>
  </metadata>
  <trk>
    <name><![CDATA[Mons Cyclisme]]></name>
    <extensions>
      <line xmlns="http://www.topografix.com/GPX/gpx_style/0/2">
        <color>0000FF</color>
        <width>4</width>
      </line>
    </extensions>
    <trkseg>
      <trkpt lat="43.74783" lon="6.65515">
        <ele>1615.1999511719</ele>
        <time>2019-05-30T07:04:24.000Z</time>
      </trkpt>
      <trkpt lat="43.74783" lon="6.65515">
        <ele>1615.1999511719</ele>
        <time>2019-05-30T07:04:24.000Z</time>
      </trkpt>
      <trkpt lat="43.74783" lon="6.65515">
        <ele>1615.1999511719</ele>
        <time>2019-05-30T07:04:31.000Z</time>
      </trkpt>
      <trkpt lat="43.74783" lon="6.65516">
        <ele>1615</ele>
        <time>2019-05-30T07:04:38.000Z</time>
      </trkpt>
      <trkpt lat="43.74785" lon="6.65516">
        <ele>1614.5999755859</ele>
        <time>2019-05-30T07:04:49.000Z</time>
      </trkpt>
      <trkpt lat="43.74786" lon="6.65516">
        <ele>1614.5999755859</ele>
        <time>2019-05-30T07:04:50.000Z</time>
      </trkpt>
      <trkpt lat="43.74796" lon="6.65523">
        <ele>1614.1999511719</ele>
        <time>2019-05-30T07:04:55.000Z</time>
      </trkpt>
      <trkpt lat="43.74798" lon="6.65525">
        <ele>1614</ele>
        <time>2019-05-30T07:04:56.000Z</time>
      </trkpt>
      <trkpt lat="43.74803" lon="6.65532">
        <ele>1613.8000488281</ele>
        <time>2019-05-30T07:04:59.000Z</time>
      </trkpt>
      <trkpt lat="43.74805" lon="6.65539">
        <ele>1614</ele>
        <time>2019-05-30T07:05:02.000Z</time>
      </trkpt>
      <trkpt lat="43.74807" lon="6.65552">
        <ele>1615.1999511719</ele>
        <time>2019-05-30T07:05:07.000Z</time>
      </trkpt>
      <trkpt lat="43.74806" lon="6.65557">
        <ele>1615.5999755859</ele>
        <time>2019-05-30T07:05:09.000Z</time>
      </trkpt>
      <trkpt lat="43.74804" lon="6.65565">
        <ele>1616.1999511719</ele>
        <time>2019-05-30T07:05:12.000Z</time>
      </trkpt>
      <trkpt lat="43.748" lon="6.65571">
        <ele>1617</ele>
        <time>2019-05-30T07:05:15.000Z</time>
      </trkpt>
      <trkpt lat="43.74798" lon="6.65573">
        <ele>1617</ele>
        <time>2019-05-30T07:05:16.000Z</time>
      </trkpt>
      <trkpt lat="43.74796" lon="6.65574">
        <ele>1617.4000244141</ele>
        <time>2019-05-30T07:05:17.000Z</time>
      </trkpt>
      <trkpt lat="43.74787" lon="6.6558">
        <ele>1618.4000244141</ele>
        <time>2019-05-30T07:05:23.000Z</time>
      </trkpt>
      <trkpt lat="43.74785" lon="6.65582">
        <ele>1618.8000488281</ele>
        <time>2019-05-30T07:05:24.000Z</time>
      </trkpt>
      <trkpt lat="43.7478" lon="6.65587">
        <ele>1620</ele>
        <time>2019-05-30T07:05:27.000Z</time>
      </trkpt>
      <trkpt lat="43.74773" lon="6.65592">
        <ele>1620.1999511719</ele>
        <time>2019-05-30T07:05:30.000Z</time>
      </trkpt>
      <trkpt lat="43.74766" lon="6.65596">
        <ele>1619.4000244141</ele>
        <time>2019-05-30T07:05:36.000Z</time>
      </trkpt>
      <trkpt lat="43.7476" lon="6.65602">
        <ele>1619.5999755859</ele>
        <time>2019-05-30T07:05:41.000Z</time>
      </trkpt>
      <trkpt lat="43.74752" lon="6.65607">
        <ele>1619.1999511719</ele>
        <time>2019-05-30T07:05:47.000Z</time>
      </trkpt>
      <trkpt lat="43.7475" lon="6.65609">
        <ele>1619</ele>
        <time>2019-05-30T07:05:49.000Z</time>
      </trkpt>
      <trkpt lat="43.74749" lon="6.65613">
        <ele>1619</ele>
        <time>2019-05-30T07:05:51.000Z</time>
      </trkpt>
      <trkpt lat="43.7475" lon="6.65617">
        <ele>1619.1999511719</ele>
        <time>2019-05-30T07:05:53.000Z</time>
      </trkpt>
      <trkpt lat="43.74756" lon="6.65625">
        <ele>1619.5999755859</ele>
        <time>2019-05-30T07:05:59.000Z</time>
      </trkpt>
      <trkpt lat="43.74756" lon="6.65627">
        <ele>1619.4000244141</ele>
        <time>2019-05-30T07:06:00.000Z</time>
      </trkpt>
      <trkpt lat="43.74754" lon="6.6563">
        <ele>1619.4000244141</ele>
        <time>2019-05-30T07:06:03.000Z</time>
      </trkpt>
      <trkpt lat="43.74753" lon="6.65631">
        <ele>1619.4000244141</ele>
        <time>2019-05-30T07:06:04.000Z</time>
      </trkpt>
      <trkpt lat="43.74752" lon="6.6563">
        <ele>1619.5999755859</ele>
        <time>2019-05-30T07:06:05.000Z</time>
      </trkpt>
      <trkpt lat="43.74748" lon="6.65626">
        <ele>1619.5999755859</ele>
        <time>2019-05-30T07:06:09.000Z</time>
      </trkpt>
      <trkpt lat="43.74748" lon="6.65619">
        <ele>1619.1999511719</ele>
        <time>2019-05-30T07:06:14.000Z</time>
      </trkpt>
      <trkpt lat="43.74753" lon="6.65615">
        <ele>1619.5999755859</ele>
        <time>2019-05-30T07:06:18.000Z</time>
      </trkpt>
      <trkpt lat="43.74756" lon="6.65616">
        <ele>1619.5999755859</ele>
        <time>2019-05-30T07:06:20.000Z</time>
      </trkpt>
      <trkpt lat="43.74761" lon="6.65622">
        <ele>1619.4000244141</ele>
        <time>2019-05-30T07:06:27.000Z</time>
      </trkpt>
      <trkpt lat="43.74761" lon="6.65624">
        <ele>1619.4000244141</ele>
        <time>2019-05-30T07:06:28.000Z</time>
      </trkpt>
      <trkpt lat="43.74758" lon="6.65625">
        <ele>1619.5999755859</ele>
        <time>2019-05-30T07:06:31.000Z</time>
      </trkpt>
      <trkpt lat="43.74753" lon="6.65619">
        <ele>1619.5999755859</ele>
        <time>2019-05-30T07:06:37.000Z</time>
      </trkpt>
      <trkpt lat="43.74755" lon="6.65615">
        <ele>1619.4000244141</ele>
        <time>2019-05-30T07:06:40.000Z</time>
      </trkpt>
      <trkpt lat="43.74758" lon="6.65612">
        <ele>1619.4000244141</ele>
        <time>2019-05-30T07:06:43.000Z</time>
      </trkpt>
      <trkpt lat="43.74761" lon="6.65615">
        <ele>1619.4000244141</ele>
        <time>2019-05-30T07:06:47.000Z</time>
      </trkpt>
      <trkpt lat="43.74762" lon="6.65616">
        <ele>1619.4000244141</ele>
        <time>2019-05-30T07:06:48.000Z</time>
      </trkpt>
      <trkpt lat="43.74765" lon="6.65619">
        <ele>1619.4000244141</ele>
        <time>2019-05-30T07:06:52.000Z</time>
      </trkpt>
      <trkpt lat="43.74763" lon="6.65623">
        <ele>1619.4000244141</ele>
        <time>2019-05-30T07:06:55.000Z</time>
      </trkpt>
      <trkpt lat="43.74761" lon="6.65623">
        <ele>1619.5999755859</ele>
        <time>2019-05-30T07:06:57.000Z</time>
      </trkpt>
      <trkpt lat="43.74758" lon="6.6562">
        <ele>1619.5999755859</ele>
        <time>2019-05-30T07:07:00.000Z</time>
      </trkpt>
      <trkpt lat="43.74758" lon="6.65618">
        <ele>1619.5999755859</ele>
        <time>2019-05-30T07:07:01.000Z</time>
      </trkpt>
      <trkpt lat="43.74757" lon="6.65611">
        <ele>1619.1999511719</ele>
        <time>2019-05-30T07:07:06.000Z</time>
      </trkpt>
      <trkpt lat="43.74752" lon="6.65613">
        <ele>1619</ele>
        <time>2019-05-30T07:07:11.000Z</time>
      </trkpt>
      <trkpt lat="43.74748" lon="6.6562">
        <ele>1619.4000244141</ele>
        <time>2019-05-30T07:07:14.000Z</time>
      </trkpt>
      <trkpt lat="43.74743" lon="6.65626">
        <ele>1619.5999755859</ele>
        <time>2019-05-30T07:07:17.000Z</time>
      </trkpt>
      <trkpt lat="43.74731" lon="6.65638">
        <ele>1619.5999755859</ele>
        <time>2019-05-30T07:07:23.000Z</time>
      </trkpt>
      <trkpt lat="43.74729" lon="6.65642">
        <ele>1619.4000244141</ele>
        <time>2019-05-30T07:07:24.000Z</time>
      </trkpt>
      <trkpt lat="43.74725" lon="6.65647">
        <ele>1619.1999511719</ele>
        <time>2019-05-30T07:07:26.000Z</time>
      </trkpt>
      <trkpt lat="43.74706" lon="6.6566">
        <ele>1618</ele>
        <time>2019-05-30T07:07:31.000Z</time>
      </trkpt>
      <trkpt lat="43.74702" lon="6.65663">
        <ele>1617.4000244141</ele>
        <time>2019-05-30T07:07:32.000Z</time>
      </trkpt>
      <trkpt lat="43.74687" lon="6.65667">
        <ele>1616</ele>
        <time>2019-05-30T07:07:35.000Z</time>
      </trkpt>
      <trkpt lat="43.74683" lon="6.65668">
        <ele>1615.8000488281</ele>
        <time>2019-05-30T07:07:36.000Z</time>
      </trkpt>
      <trkpt lat="43.7466" lon="6.65672">
        <ele>1617.1999511719</ele>
        <time>2019-05-30T07:07:42.000Z</time>
      </trkpt>
      <trkpt lat="43.74642" lon="6.65676">
        <ele>1618.4000244141</ele>
        <time>2019-05-30T07:07:48.000Z</time>
      </trkpt>
      <trkpt lat="43.74637" lon="6.65678">
        <ele>1619.1999511719</ele>
        <time>2019-05-30T07:07:50.000Z</time>
      </trkpt>
      <trkpt lat="43.74634" lon="6.65679">
        <ele>1619.4000244141</ele>
        <time>2019-05-30T07:07:51.000Z</time>
      </trkpt>
      <trkpt lat="43.74622" lon="6.65682">
        <ele>1620.5999755859</ele>
        <time>2019-05-30T07:07:55.000Z</time>
      </trkpt>
      <trkpt lat="43.74616" lon="6.65684">
        <ele>1620.8000488281</ele>
        <time>2019-05-30T07:07:57.000Z</time>
      </trkpt>
      <trkpt lat="43.74603" lon="6.65687">
        <ele>1621.5999755859</ele>
        <time>2019-05-30T07:08:02.000Z</time>
      </trkpt>
      <trkpt lat="43.74599" lon="6.65687">
        <ele>1622.1999511719</ele>
        <time>2019-05-30T07:08:04.000Z</time>
      </trkpt>
      <trkpt lat="43.74591" lon="6.65688">
        <ele>1622.5999755859</ele>
        <time>2019-05-30T07:08:07.000Z</time>
      </trkpt>
      <trkpt lat="43.74577" lon="6.6569">
        <ele>1623.8000488281</ele>
        <time>2019-05-30T07:08:14.000Z</time>
      </trkpt>
      <trkpt lat="43.74575" lon="6.65691">
        <ele>1624</ele>
        <time>2019-05-30T07:08:15.000Z</time>
      </trkpt>
      <trkpt lat="43.74567" lon="6.65691">
        <ele>1625</ele>
        <time>2019-05-30T07:08:19.000Z</time>
      </trkpt>
      <trkpt lat="43.74556" lon="6.65693">
        <ele>1625.8000488281</ele>
        <time>2019-05-30T07:08:24.000Z</time>
      </trkpt>
      <trkpt lat="43.74548" lon="6.65695">
        <ele>1626</ele>
        <time>2019-05-30T07:08:27.000Z</time>
      </trkpt>
      <trkpt lat="43.7454" lon="6.65696">
        <ele>1626.5999755859</ele>
        <time>2019-05-30T07:08:31.000Z</time>
      </trkpt>
      <trkpt lat="43.7453" lon="6.65698">
        <ele>1627</ele>
        <time>2019-05-30T07:08:35.000Z</time>
      </trkpt>
      <trkpt lat="43.74522" lon="6.65699">
        <ele>1627.5999755859</ele>
        <time>2019-05-30T07:08:39.000Z</time>
      </trkpt>
      <trkpt lat="43.74514" lon="6.65696">
        <ele>1628</ele>
        <time>2019-05-30T07:08:43.000Z</time>
      </trkpt>
      <trkpt lat="43.74509" lon="6.65696">
        <ele>1628.1999511719</ele>
        <time>2019-05-30T07:08:45.000Z</time>
      </trkpt>
      <trkpt lat="43.74503" lon="6.65697">
        <ele>1629.1999511719</ele>
        <time>2019-05-30T07:08:48.000Z</time>
      </trkpt>
      <trkpt lat="43.74496" lon="6.65697">
        <ele>1630</ele>
        <time>2019-05-30T07:08:52.000Z</time>
      </trkpt>
      <trkpt lat="43.74493" lon="6.65698">
        <ele>1630.1999511719</ele>
        <time>2019-05-30T07:08:53.000Z</time>
      </trkpt>
      <trkpt lat="43.74476" lon="6.65696">
        <ele>1629</ele>
        <time>2019-05-30T07:08:58.000Z</time>
      </trkpt>
      <trkpt lat="43.74467" lon="6.65693">
        <ele>1628.5999755859</ele>
        <time>2019-05-30T07:09:00.000Z</time>
      </trkpt>
      <trkpt lat="43.74453" lon="6.65683">
        <ele>1628</ele>
        <time>2019-05-30T07:09:03.000Z</time>
      </trkpt>
      <trkpt lat="43.74449" lon="6.65678">
        <ele>1627.8000488281</ele>
        <time>2019-05-30T07:09:04.000Z</time>
      </trkpt>
      <trkpt lat="43.74444" lon="6.65674">
        <ele>1627.4000244141</ele>
        <time>2019-05-30T07:09:05.000Z</time>
      </trkpt>
      <trkpt lat="43.74436" lon="6.65662">
        <ele>1626.4000244141</ele>
        <time>2019-05-30T07:09:07.000Z</time>
      </trkpt>
      <trkpt lat="43.74432" lon="6.65655">
        <ele>1626</ele>
        <time>2019-05-30T07:09:08.000Z</time>
      </trkpt>
      <trkpt lat="43.74423" lon="6.6564">
        <ele>1625.4000244141</ele>
        <time>2019-05-30T07:09:10.000Z</time>
      </trkpt>
      <trkpt lat="43.74413" lon="6.65625">
        <ele>1624</ele>
        <time>2019-05-30T07:09:12.000Z</time>
      </trkpt>
      <trkpt lat="43.74408" lon="6.65617">
        <ele>1622.8000488281</ele>
        <time>2019-05-30T07:09:13.000Z</time>
      </trkpt>
      <trkpt lat="43.74403" lon="6.65608">
        <ele>1621.8000488281</ele>
        <time>2019-05-30T07:09:14.000Z</time>
      </trkpt>
      <trkpt lat="43.74398" lon="6.65599">
        <ele>1620.5999755859</ele>
        <time>2019-05-30T07:09:15.000Z</time>
      </trkpt>
      <trkpt lat="43.74389" lon="6.65581">
        <ele>1619</ele>
        <time>2019-05-30T07:09:17.000Z</time>
      </trkpt>
      <trkpt lat="43.74385" lon="6.65569">
        <ele>1617.8000488281</ele>
        <time>2019-05-30T07:09:18.000Z</time>
      </trkpt>
      <trkpt lat="43.74381" lon="6.65558">
        <ele>1617.1999511719</ele>
        <time>2019-05-30T07:09:19.000Z</time>
      </trkpt>
      <trkpt lat="43.74378" lon="6.65547">
        <ele>1616.4000244141</ele>
        <time>2019-05-30T07:09:20.000Z</time>
      </trkpt>
      <trkpt lat="43.74366" lon="6.65515">
        <ele>1614.5999755859</ele>
        <time>2019-05-30T07:09:23.000Z</time>
      </trkpt>
      <trkpt lat="43.74361" lon="6.65502">
        <ele>1613.5999755859</ele>
        <time>2019-05-30T07:09:24.000Z</time>
      </trkpt>
      <trkpt lat="43.74357" lon="6.6549">
        <ele>1612.4000244141</ele>
        <time>2019-05-30T07:09:25.000Z</time>
      </trkpt>
      <trkpt lat="43.74354" lon="6.65477">
        <ele>1611.4000244141</ele>
        <time>2019-05-30T07:09:26.000Z</time>
      </trkpt>
      <trkpt lat="43.74351" lon="6.65465">
        <ele>1610.4000244141</ele>
        <time>2019-05-30T07:09:27.000Z</time>
      </trkpt>
      <trkpt lat="43.74349" lon="6.65451">
        <ele>1609.1999511719</ele>
        <time>2019-05-30T07:09:28.000Z</time>
      </trkpt>
      <trkpt lat="43.74348" lon="6.65439">
        <ele>1607.8000488281</ele>
        <time>2019-05-30T07:09:29.000Z</time>
      </trkpt>
      <trkpt lat="43.74345" lon="6.65413">
        <ele>1606</ele>
        <time>2019-05-30T07:09:31.000Z</time>
      </trkpt>
      <trkpt lat="43.74342" lon="6.6539">
        <ele>1604.8000488281</ele>
        <time>2019-05-30T07:09:33.000Z</time>
      </trkpt>
      <trkpt lat="43.74339" lon="6.65368">
        <ele>1604.8000488281</ele>
        <time>2019-05-30T07:09:35.000Z</time>
      </trkpt>
      <trkpt lat="43.74335" lon="6.65341">
        <ele>1604.5999755859</ele>
        <time>2019-05-30T07:09:38.000Z</time>
      </trkpt>
      <trkpt lat="43.74332" lon="6.65336">
        <ele>1604.8000488281</ele>
        <time>2019-05-30T07:09:39.000Z</time>
      </trkpt>
      <trkpt lat="43.74323" lon="6.65337">
        <ele>1604.5999755859</ele>
        <time>2019-05-30T07:09:42.000Z</time>
      </trkpt>
      <trkpt lat="43.74322" lon="6.65358">
        <ele>1604</ele>
        <time>2019-05-30T07:09:45.000Z</time>
      </trkpt>
      <trkpt lat="43.74323" lon="6.65367">
        <ele>1603.5999755859</ele>
        <time>2019-05-30T07:09:46.000Z</time>
      </trkpt>
      <trkpt lat="43.74324" lon="6.65387">
        <ele>1601.8000488281</ele>
        <time>2019-05-30T07:09:48.000Z</time>
      </trkpt>
      <trkpt lat="43.74324" lon="6.65398">
        <ele>1600.4000244141</ele>
        <time>2019-05-30T07:09:49.000Z</time>
      </trkpt>
      <trkpt lat="43.74322" lon="6.65423">
        <ele>1599</ele>
        <time>2019-05-30T07:09:51.000Z</time>
      </trkpt>
      <trkpt lat="43.74322" lon="6.65445">
        <ele>1597.5999755859</ele>
        <time>2019-05-30T07:09:53.000Z</time>
      </trkpt>
      <trkpt lat="43.74322" lon="6.65455">
        <ele>1596.8000488281</ele>
        <time>2019-05-30T07:09:54.000Z</time>
      </trkpt>
      <trkpt lat="43.74322" lon="6.65462">
        <ele>1596</ele>
        <time>2019-05-30T07:09:55.000Z</time>
      </trkpt>
      <trkpt lat="43.74322" lon="6.65467">
        <ele>1595</ele>
        <time>2019-05-30T07:09:56.000Z</time>
      </trkpt>
      <trkpt lat="43.74322" lon="6.65471">
        <ele>1594.5999755859</ele>
        <time>2019-05-30T07:09:57.000Z</time>
      </trkpt>
      <trkpt lat="43.74322" lon="6.65474">
        <ele>1593.8000488281</ele>
        <time>2019-05-30T07:09:58.000Z</time>
      </trkpt>
      <trkpt lat="43.74322" lon="6.65477">
        <ele>1592.5999755859</ele>
        <time>2019-05-30T07:10:00.000Z</time>
      </trkpt>
      <trkpt lat="43.74322" lon="6.65477">
        <ele>1592.5999755859</ele>
        <time>2019-05-30T07:10:01.000Z</time>
      </trkpt>
      <trkpt lat="43.74323" lon="6.65477">
        <ele>1591.5999755859</ele>
        <time>2019-05-30T07:10:05.000Z</time>
      </trkpt>
      <trkpt lat="43.74322" lon="6.65477">
        <ele>1591.4000244141</ele>
        <time>2019-05-30T07:10:07.000Z</time>
      </trkpt>
      <trkpt lat="43.74322" lon="6.65478">
        <ele>1591.8000488281</ele>
        <time>2019-05-30T07:10:15.000Z</time>
      </trkpt>
      <trkpt lat="43.74322" lon="6.65479">
        <ele>1591.5999755859</ele>
        <time>2019-05-30T07:10:22.000Z</time>
      </trkpt>
      <trkpt lat="43.74322" lon="6.6548">
        <ele>1591.1999511719</ele>
        <time>2019-05-30T07:10:38.000Z</time>
      </trkpt>
      <trkpt lat="43.74323" lon="6.65481">
        <ele>1591</ele>
        <time>2019-05-30T07:10:51.000Z</time>
      </trkpt>
      <trkpt lat="43.74323" lon="6.65481">
        <ele>1591.1999511719</ele>
        <time>2019-05-30T07:11:12.000Z</time>
      </trkpt>
      <trkpt lat="43.74323" lon="6.65481">
        <ele>1591.5999755859</ele>
        <time>2019-05-30T07:11:22.000Z</time>
      </trkpt>
      <trkpt lat="43.74323" lon="6.65482">
        <ele>1591.1999511719</ele>
        <time>2019-05-30T07:11:31.000Z</time>
      </trkpt>
      <trkpt lat="43.74323" lon="6.65493">
        <ele>1591.1999511719</ele>
        <time>2019-05-30T07:11:35.000Z</time>
      </trkpt>
      <trkpt lat="43.74323" lon="6.65517">
        <ele>1590.4000244141</ele>
        <time>2019-05-30T07:11:38.000Z</time>
      </trkpt>
      <trkpt lat="43.74323" lon="6.65537">
        <ele>1589</ele>
        <time>2019-05-30T07:11:40.000Z</time>
      </trkpt>
      <trkpt lat="43.74323" lon="6.6556">
        <ele>1588.1999511719</ele>
        <time>2019-05-30T07:11:42.000Z</time>
      </trkpt>
      <trkpt lat="43.74324" lon="6.65572">
        <ele>1587.5999755859</ele>
        <time>2019-05-30T07:11:43.000Z</time>
      </trkpt>
      <trkpt lat="43.74326" lon="6.65596">
        <ele>1586</ele>
        <time>2019-05-30T07:11:45.000Z</time>
      </trkpt>
      <trkpt lat="43.74328" lon="6.65608">
        <ele>1584.1999511719</ele>
        <time>2019-05-30T07:11:46.000Z</time>
      </trkpt>
      <trkpt lat="43.74331" lon="6.65618">
        <ele>1582</ele>
        <time>2019-05-30T07:11:47.000Z</time>
      </trkpt>
      <trkpt lat="43.74334" lon="6.65631">
        <ele>1580.1999511719</ele>
        <time>2019-05-30T07:11:48.000Z</time>
      </trkpt>
      <trkpt lat="43.74337" lon="6.65644">
        <ele>1578.4000244141</ele>
        <time>2019-05-30T07:11:49.000Z</time>
      </trkpt>
      <trkpt lat="43.74343" lon="6.65672">
        <ele>1577.1999511719</ele>
        <time>2019-05-30T07:11:51.000Z</time>
      </trkpt>
      <trkpt lat="43.74346" lon="6.65686">
        <ele>1576</ele>
        <time>2019-05-30T07:11:52.000Z</time>
      </trkpt>
      <trkpt lat="43.74353" lon="6.65716">
        <ele>1574.5999755859</ele>
        <time>2019-05-30T07:11:54.000Z</time>
      </trkpt>
      <trkpt lat="43.74356" lon="6.65732">
        <ele>1573.1999511719</ele>
        <time>2019-05-30T07:11:55.000Z</time>
      </trkpt>
      <trkpt lat="43.74362" lon="6.65763">
        <ele>1571.5999755859</ele>
        <time>2019-05-30T07:11:57.000Z</time>
      </trkpt>
      <trkpt lat="43.74364" lon="6.6578">
        <ele>1570.4000244141</ele>
        <time>2019-05-30T07:11:58.000Z</time>
      </trkpt>
      <trkpt lat="43.74365" lon="6.65795">
        <ele>1571</ele>
        <time>2019-05-30T07:11:59.000Z</time>
      </trkpt>
      <trkpt lat="43.74364" lon="6.65845">
        <ele>1569.4000244141</ele>
        <time>2019-05-30T07:12:02.000Z</time>
      </trkpt>
      <trkpt lat="43.74362" lon="6.65862">
        <ele>1568.5999755859</ele>
        <time>2019-05-30T07:12:03.000Z</time>
      </trkpt>
      <trkpt lat="43.74357" lon="6.65895">
        <ele>1565.5999755859</ele>
        <time>2019-05-30T07:12:05.000Z</time>
      </trkpt>
      <trkpt lat="43.74354" lon="6.65912">
        <ele>1564.1999511719</ele>
        <time>2019-05-30T07:12:06.000Z</time>
      </trkpt>
      <trkpt lat="43.74352" lon="6.65927">
        <ele>1562.8000488281</ele>
        <time>2019-05-30T07:12:07.000Z</time>
      </trkpt>
      <trkpt lat="43.74349" lon="6.65944">
        <ele>1561.8000488281</ele>
        <time>2019-05-30T07:12:08.000Z</time>
      </trkpt>
      <trkpt lat="43.74348" lon="6.65977">
        <ele>1559.8000488281</ele>
        <time>2019-05-30T07:12:10.000Z</time>
      </trkpt>
      <trkpt lat="43.74347" lon="6.65992">
        <ele>1558.5999755859</ele>
        <time>2019-05-30T07:12:11.000Z</time>
      </trkpt>
      <trkpt lat="43.74347" lon="6.6601">
        <ele>1557.4000244141</ele>
        <time>2019-05-30T07:12:12.000Z</time>
      </trkpt>
      <trkpt lat="43.74347" lon="6.66028">
        <ele>1556.1999511719</ele>
        <time>2019-05-30T07:12:13.000Z</time>
      </trkpt>
      <trkpt lat="43.74347" lon="6.66046">
        <ele>1555.1999511719</ele>
        <time>2019-05-30T07:12:14.000Z</time>
      </trkpt>
      <trkpt lat="43.74347" lon="6.66064">
        <ele>1553.8000488281</ele>
        <time>2019-05-30T07:12:15.000Z</time>
      </trkpt>
      <trkpt lat="43.74347" lon="6.6608">
        <ele>1552.4000244141</ele>
        <time>2019-05-30T07:12:16.000Z</time>
      </trkpt>
      <trkpt lat="43.74348" lon="6.66095">
        <ele>1551.4000244141</ele>
        <time>2019-05-30T07:12:17.000Z</time>
      </trkpt>
      <trkpt lat="43.74351" lon="6.66112">
        <ele>1550.1999511719</ele>
        <time>2019-05-30T07:12:18.000Z</time>
      </trkpt>
      <trkpt lat="43.74358" lon="6.66143">
        <ele>1548.8000488281</ele>
        <time>2019-05-30T07:12:20.000Z</time>
      </trkpt>
      <trkpt lat="43.74363" lon="6.66158">
        <ele>1547.4000244141</ele>
        <time>2019-05-30T07:12:21.000Z</time>
      </trkpt>
      <trkpt lat="43.74367" lon="6.66172">
        <ele>1544.5999755859</ele>
        <time>2019-05-30T07:12:22.000Z</time>
      </trkpt>
      <trkpt lat="43.74372" lon="6.66187">
        <ele>1543.1999511719</ele>
        <time>2019-05-30T07:12:23.000Z</time>
      </trkpt>
      <trkpt lat="43.74377" lon="6.66203">
        <ele>1542.1999511719</ele>
        <time>2019-05-30T07:12:24.000Z</time>
      </trkpt>
      <trkpt lat="43.74381" lon="6.66219">
        <ele>1541.1999511719</ele>
        <time>2019-05-30T07:12:25.000Z</time>
      </trkpt>
      <trkpt lat="43.74388" lon="6.66251">
        <ele>1539</ele>
        <time>2019-05-30T07:12:27.000Z</time>
      </trkpt>
      <trkpt lat="43.74392" lon="6.6627">
        <ele>1537.4000244141</ele>
        <time>2019-05-30T07:12:28.000Z</time>
      </trkpt>
      <trkpt lat="43.74396" lon="6.66287">
        <ele>1535.8000488281</ele>
        <time>2019-05-30T07:12:29.000Z</time>
      </trkpt>
      <trkpt lat="43.744" lon="6.66306">
        <ele>1534.4000244141</ele>
        <time>2019-05-30T07:12:30.000Z</time>
      </trkpt>
      <trkpt lat="43.74405" lon="6.66324">
        <ele>1533</ele>
        <time>2019-05-30T07:12:31.000Z</time>
      </trkpt>
      <trkpt lat="43.74409" lon="6.66341">
        <ele>1531.8000488281</ele>
        <time>2019-05-30T07:12:32.000Z</time>
      </trkpt>
      <trkpt lat="43.74415" lon="6.66361">
        <ele>1530</ele>
        <time>2019-05-30T07:12:33.000Z</time>
      </trkpt>
      <trkpt lat="43.7442" lon="6.66379">
        <ele>1528.4000244141</ele>
        <time>2019-05-30T07:12:34.000Z</time>
      </trkpt>
      <trkpt lat="43.74425" lon="6.66396">
        <ele>1527.1999511719</ele>
        <time>2019-05-30T07:12:35.000Z</time>
      </trkpt>
      <trkpt lat="43.74431" lon="6.66414">
        <ele>1525.4000244141</ele>
        <time>2019-05-30T07:12:36.000Z</time>
      </trkpt>
      <trkpt lat="43.74435" lon="6.66429">
        <ele>1523.5999755859</ele>
        <time>2019-05-30T07:12:37.000Z</time>
      </trkpt>
      <trkpt lat="43.74441" lon="6.66444">
        <ele>1523</ele>
        <time>2019-05-30T07:12:38.000Z</time>
      </trkpt>
      <trkpt lat="43.74445" lon="6.66459">
        <ele>1520</ele>
        <time>2019-05-30T07:12:39.000Z</time>
      </trkpt>
      <trkpt lat="43.7445" lon="6.66474">
        <ele>1518</ele>
        <time>2019-05-30T07:12:40.000Z</time>
      </trkpt>
      <trkpt lat="43.74454" lon="6.66487">
        <ele>1515.8000488281</ele>
        <time>2019-05-30T07:12:41.000Z</time>
      </trkpt>
      <trkpt lat="43.7446" lon="6.66502">
        <ele>1514.5999755859</ele>
        <time>2019-05-30T07:12:42.000Z</time>
      </trkpt>
      <trkpt lat="43.74466" lon="6.66518">
        <ele>1513.4000244141</ele>
        <time>2019-05-30T07:12:43.000Z</time>
      </trkpt>
      <trkpt lat="43.74472" lon="6.66532">
        <ele>1512.4000244141</ele>
        <time>2019-05-30T07:12:44.000Z</time>
      </trkpt>
      <trkpt lat="43.74478" lon="6.66546">
        <ele>1509.8000488281</ele>
        <time>2019-05-30T07:12:45.000Z</time>
      </trkpt>
      <trkpt lat="43.74484" lon="6.6656">
        <ele>1508</ele>
        <time>2019-05-30T07:12:46.000Z</time>
      </trkpt>
      <trkpt lat="43.7449" lon="6.66571">
        <ele>1506</ele>
        <time>2019-05-30T07:12:47.000Z</time>
      </trkpt>
      <trkpt lat="43.74497" lon="6.66586">
        <ele>1504.4000244141</ele>
        <time>2019-05-30T07:12:48.000Z</time>
      </trkpt>
      <trkpt lat="43.74509" lon="6.6661">
        <ele>1502.4000244141</ele>
        <time>2019-05-30T07:12:50.000Z</time>
      </trkpt>
      <trkpt lat="43.7452" lon="6.66634">
        <ele>1501</ele>
        <time>2019-05-30T07:12:52.000Z</time>
      </trkpt>
      <trkpt lat="43.7453" lon="6.66658">
        <ele>1499.4000244141</ele>
        <time>2019-05-30T07:12:54.000Z</time>
      </trkpt>
      <trkpt lat="43.74534" lon="6.66669">
        <ele>1499</ele>
        <time>2019-05-30T07:12:55.000Z</time>
      </trkpt>
      <trkpt lat="43.74536" lon="6.6668">
        <ele>1498.5999755859</ele>
        <time>2019-05-30T07:12:56.000Z</time>
      </trkpt>
      <trkpt lat="43.74536" lon="6.66701">
        <ele>1498.5999755859</ele>
        <time>2019-05-30T07:12:58.000Z</time>
      </trkpt>
      <trkpt lat="43.74533" lon="6.6671">
        <ele>1498.4000244141</ele>
        <time>2019-05-30T07:12:59.000Z</time>
      </trkpt>
      <trkpt lat="43.74527" lon="6.66718">
        <ele>1498.1999511719</ele>
        <time>2019-05-30T07:13:00.000Z</time>
      </trkpt>
      <trkpt lat="43.74513" lon="6.66726">
        <ele>1496.4000244141</ele>
        <time>2019-05-30T07:13:02.000Z</time>
      </trkpt>
      <trkpt lat="43.74505" lon="6.66728">
        <ele>1495.5999755859</ele>
        <time>2019-05-30T07:13:03.000Z</time>
      </trkpt>
      <trkpt lat="43.74496" lon="6.66729">
        <ele>1494.4000244141</ele>
        <time>2019-05-30T07:13:04.000Z</time>
      </trkpt>
      <trkpt lat="43.74488" lon="6.6673">
        <ele>1493.1999511719</ele>
        <time>2019-05-30T07:13:05.000Z</time>
      </trkpt>
      <trkpt lat="43.74479" lon="6.66731">
        <ele>1492</ele>
        <time>2019-05-30T07:13:06.000Z</time>
      </trkpt>
      <trkpt lat="43.74471" lon="6.6673">
        <ele>1490.8000488281</ele>
        <time>2019-05-30T07:13:07.000Z</time>
      </trkpt>
      <trkpt lat="43.74462" lon="6.6673">
        <ele>1489.8000488281</ele>
        <time>2019-05-30T07:13:08.000Z</time>
      </trkpt>
      <trkpt lat="43.74454" lon="6.6673">
        <ele>1488.8000488281</ele>
        <time>2019-05-30T07:13:09.000Z</time>
      </trkpt>
      <trkpt lat="43.74441" lon="6.66738">
        <ele>1487.1999511719</ele>
        <time>2019-05-30T07:13:11.000Z</time>
      </trkpt>
      <trkpt lat="43.7443" lon="6.66765">
        <ele>1485.8000488281</ele>
        <time>2019-05-30T07:13:14.000Z</time>
      </trkpt>
      <trkpt lat="43.74426" lon="6.66787">
        <ele>1483.8000488281</ele>
        <time>2019-05-30T07:13:16.000Z</time>
      </trkpt>
      <trkpt lat="43.74425" lon="6.66798">
        <ele>1482.8000488281</ele>
        <time>2019-05-30T07:13:17.000Z</time>
      </trkpt>
      <trkpt lat="43.74424" lon="6.66811">
        <ele>1481.8000488281</ele>
        <time>2019-05-30T07:13:18.000Z</time>
      </trkpt>
      <trkpt lat="43.74424" lon="6.66823">
        <ele>1480.5999755859</ele>
        <time>2019-05-30T07:13:19.000Z</time>
      </trkpt>
      <trkpt lat="43.74425" lon="6.66835">
        <ele>1479.1999511719</ele>
        <time>2019-05-30T07:13:20.000Z</time>
      </trkpt>
      <trkpt lat="43.74426" lon="6.66846">
        <ele>1478</ele>
        <time>2019-05-30T07:13:21.000Z</time>
      </trkpt>
      <trkpt lat="43.74428" lon="6.66857">
        <ele>1477.1999511719</ele>
        <time>2019-05-30T07:13:22.000Z</time>
      </trkpt>
      <trkpt lat="43.7443" lon="6.66869">
        <ele>1476.4000244141</ele>
        <time>2019-05-30T07:13:23.000Z</time>
      </trkpt>
      <trkpt lat="43.74436" lon="6.66894">
        <ele>1474.8000488281</ele>
        <time>2019-05-30T07:13:25.000Z</time>
      </trkpt>
      <trkpt lat="43.74442" lon="6.66917">
        <ele>1473.4000244141</ele>
        <time>2019-05-30T07:13:27.000Z</time>
      </trkpt>
      <trkpt lat="43.74447" lon="6.6693">
        <ele>1472.4000244141</ele>
        <time>2019-05-30T07:13:28.000Z</time>
      </trkpt>
      <trkpt lat="43.74458" lon="6.6695">
        <ele>1471</ele>
        <time>2019-05-30T07:13:30.000Z</time>
      </trkpt>
      <trkpt lat="43.7447" lon="6.66969">
        <ele>1469.5999755859</ele>
        <time>2019-05-30T07:13:32.000Z</time>
      </trkpt>
      <trkpt lat="43.74483" lon="6.66987">
        <ele>1468.1999511719</ele>
        <time>2019-05-30T07:13:34.000Z</time>
      </trkpt>
      <trkpt lat="43.74492" lon="6.67">
        <ele>1466.1999511719</ele>
        <time>2019-05-30T07:13:36.000Z</time>
      </trkpt>
      <trkpt lat="43.74494" lon="6.67005">
        <ele>1465.5999755859</ele>
        <time>2019-05-30T07:13:37.000Z</time>
      </trkpt>
      <trkpt lat="43.74493" lon="6.67011">
        <ele>1464.8000488281</ele>
        <time>2019-05-30T07:13:38.000Z</time>
      </trkpt>
      <trkpt lat="43.74484" lon="6.67016">
        <ele>1464</ele>
        <time>2019-05-30T07:13:40.000Z</time>
      </trkpt>
      <trkpt lat="43.74478" lon="6.67015">
        <ele>1463.5999755859</ele>
        <time>2019-05-30T07:13:41.000Z</time>
      </trkpt>
      <trkpt lat="43.74466" lon="6.67008">
        <ele>1462</ele>
        <time>2019-05-30T07:13:43.000Z</time>
      </trkpt>
      <trkpt lat="43.7446" lon="6.67003">
        <ele>1461</ele>
        <time>2019-05-30T07:13:44.000Z</time>
      </trkpt>
      <trkpt lat="43.74454" lon="6.66996">
        <ele>1459.4000244141</ele>
        <time>2019-05-30T07:13:45.000Z</time>
      </trkpt>
      <trkpt lat="43.74448" lon="6.6699">
        <ele>1458.5999755859</ele>
        <time>2019-05-30T07:13:46.000Z</time>
      </trkpt>
      <trkpt lat="43.74442" lon="6.66985">
        <ele>1458</ele>
        <time>2019-05-30T07:13:47.000Z</time>
      </trkpt>
      <trkpt lat="43.74435" lon="6.6698">
        <ele>1457.8000488281</ele>
        <time>2019-05-30T07:13:48.000Z</time>
      </trkpt>
      <trkpt lat="43.74419" lon="6.66974">
        <ele>1457</ele>
        <time>2019-05-30T07:13:51.000Z</time>
      </trkpt>
      <trkpt lat="43.74414" lon="6.66977">
        <ele>1455.5999755859</ele>
        <time>2019-05-30T07:13:53.000Z</time>
      </trkpt>
      <trkpt lat="43.74415" lon="6.6698">
        <ele>1455.1999511719</ele>
        <time>2019-05-30T07:13:54.000Z</time>
      </trkpt>
      <trkpt lat="43.74417" lon="6.66982">
        <ele>1454.1999511719</ele>
        <time>2019-05-30T07:13:55.000Z</time>
      </trkpt>
      <trkpt lat="43.74421" lon="6.66985">
        <ele>1453.8000488281</ele>
        <time>2019-05-30T07:13:56.000Z</time>
      </trkpt>
      <trkpt lat="43.74425" lon="6.6699">
        <ele>1453.4000244141</ele>
        <time>2019-05-30T07:13:57.000Z</time>
      </trkpt>
      <trkpt lat="43.74428" lon="6.66996">
        <ele>1453.1999511719</ele>
        <time>2019-05-30T07:13:58.000Z</time>
      </trkpt>
      <trkpt lat="43.7443" lon="6.67011">
        <ele>1452.1999511719</ele>
        <time>2019-05-30T07:14:00.000Z</time>
      </trkpt>
      <trkpt lat="43.74429" lon="6.67019">
        <ele>1451.8000488281</ele>
        <time>2019-05-30T07:14:01.000Z</time>
      </trkpt>
      <trkpt lat="43.74424" lon="6.67044">
        <ele>1450.5999755859</ele>
        <time>2019-05-30T07:14:04.000Z</time>
      </trkpt>
      <trkpt lat="43.74418" lon="6.67067">
        <ele>1449.5999755859</ele>
        <time>2019-05-30T07:14:07.000Z</time>
      </trkpt>
      <trkpt lat="43.7442" lon="6.67075">
        <ele>1449</ele>
        <time>2019-05-30T07:14:08.000Z</time>
      </trkpt>
      <trkpt lat="43.74428" lon="6.67086">
        <ele>1448.4000244141</ele>
        <time>2019-05-30T07:14:10.000Z</time>
      </trkpt>
      <trkpt lat="43.74432" lon="6.67091">
        <ele>1448.1999511719</ele>
        <time>2019-05-30T07:14:11.000Z</time>
      </trkpt>
      <trkpt lat="43.74437" lon="6.67098">
        <ele>1447.8000488281</ele>
        <time>2019-05-30T07:14:12.000Z</time>
      </trkpt>
      <trkpt lat="43.74443" lon="6.67115">
        <ele>1446.4000244141</ele>
        <time>2019-05-30T07:14:14.000Z</time>
      </trkpt>
      <trkpt lat="43.74446" lon="6.6713">
        <ele>1445.1999511719</ele>
        <time>2019-05-30T07:14:16.000Z</time>
      </trkpt>
      <trkpt lat="43.74447" lon="6.67135">
        <ele>1445</ele>
        <time>2019-05-30T07:14:17.000Z</time>
      </trkpt>
      <trkpt lat="43.74454" lon="6.67153">
        <ele>1445.1999511719</ele>
        <time>2019-05-30T07:14:20.000Z</time>
      </trkpt>
      <trkpt lat="43.74459" lon="6.67165">
        <ele>1446</ele>
        <time>2019-05-30T07:14:22.000Z</time>
      </trkpt>
      <trkpt lat="43.74461" lon="6.67171">
        <ele>1446.5999755859</ele>
        <time>2019-05-30T07:14:23.000Z</time>
      </trkpt>
      <trkpt lat="43.74462" lon="6.67178">
        <ele>1446.8000488281</ele>
        <time>2019-05-30T07:14:24.000Z</time>
      </trkpt>
      <trkpt lat="43.74462" lon="6.67191">
        <ele>1447.1999511719</ele>
        <time>2019-05-30T07:14:26.000Z</time>
      </trkpt>
      <trkpt lat="43.74455" lon="6.67217">
        <ele>1446.1999511719</ele>
        <time>2019-05-30T07:14:30.000Z</time>
      </trkpt>
      <trkpt lat="43.74451" lon="6.67231">
        <ele>1446</ele>
        <time>2019-05-30T07:14:32.000Z</time>
      </trkpt>
      <trkpt lat="43.74453" lon="6.67242">
        <ele>1445.4000244141</ele>
        <time>2019-05-30T07:14:34.000Z</time>
      </trkpt>
      <trkpt lat="43.74462" lon="6.67244">
        <ele>1444.4000244141</ele>
        <time>2019-05-30T07:14:36.000Z</time>
      </trkpt>
      <trkpt lat="43.74479" lon="6.67233">
        <ele>1443</ele>
        <time>2019-05-30T07:14:39.000Z</time>
      </trkpt>
      <trkpt lat="43.74485" lon="6.67227">
        <ele>1442</ele>
        <time>2019-05-30T07:14:40.000Z</time>
      </trkpt>
      <trkpt lat="43.74491" lon="6.67224">
        <ele>1443</ele>
        <time>2019-05-30T07:14:41.000Z</time>
      </trkpt>
      <trkpt lat="43.74506" lon="6.67221">
        <ele>1442.1999511719</ele>
        <time>2019-05-30T07:14:43.000Z</time>
      </trkpt>
      <trkpt lat="43.74514" lon="6.67221">
        <ele>1441.8000488281</ele>
        <time>2019-05-30T07:14:44.000Z</time>
      </trkpt>
      <trkpt lat="43.74522" lon="6.67221">
        <ele>1441.4000244141</ele>
        <time>2019-05-30T07:14:45.000Z</time>
      </trkpt>
      <trkpt lat="43.74543" lon="6.67219">
        <ele>1441</ele>
        <time>2019-05-30T07:14:48.000Z</time>
      </trkpt>
      <trkpt lat="43.74549" lon="6.67221">
        <ele>1440.8000488281</ele>
        <time>2019-05-30T07:14:49.000Z</time>
      </trkpt>
      <trkpt lat="43.74552" lon="6.67226">
        <ele>1440.5999755859</ele>
        <time>2019-05-30T07:14:50.000Z</time>
      </trkpt>
      <trkpt lat="43.74551" lon="6.67239">
        <ele>1439.8000488281</ele>
        <time>2019-05-30T07:14:52.000Z</time>
      </trkpt>
      <trkpt lat="43.74548" lon="6.67245">
        <ele>1439.4000244141</ele>
        <time>2019-05-30T07:14:53.000Z</time>
      </trkpt>
      <trkpt lat="43.74537" lon="6.67254">
        <ele>1438.5999755859</ele>
        <time>2019-05-30T07:14:55.000Z</time>
      </trkpt>
      <trkpt lat="43.74531" lon="6.67259">
        <ele>1438.4000244141</ele>
        <time>2019-05-30T07:14:56.000Z</time>
      </trkpt>
      <trkpt lat="43.74525" lon="6.67264">
        <ele>1438.1999511719</ele>
        <time>2019-05-30T07:14:57.000Z</time>
      </trkpt>
      <trkpt lat="43.74511" lon="6.67277">
        <ele>1437.4000244141</ele>
        <time>2019-05-30T07:14:59.000Z</time>
      </trkpt>
      <trkpt lat="43.74503" lon="6.67284">
        <ele>1436.5999755859</ele>
        <time>2019-05-30T07:15:00.000Z</time>
      </trkpt>
      <trkpt lat="43.74491" lon="6.67298">
        <ele>1435</ele>
        <time>2019-05-30T07:15:02.000Z</time>
      </trkpt>
      <trkpt lat="43.74487" lon="6.67307">
        <ele>1433.8000488281</ele>
        <time>2019-05-30T07:15:03.000Z</time>
      </trkpt>
      <trkpt lat="43.7448" lon="6.67329">
        <ele>1432.5999755859</ele>
        <time>2019-05-30T07:15:05.000Z</time>
      </trkpt>
      <trkpt lat="43.74475" lon="6.67352">
        <ele>1431.8000488281</ele>
        <time>2019-05-30T07:15:07.000Z</time>
      </trkpt>
      <trkpt lat="43.74473" lon="6.67366">
        <ele>1431.4000244141</ele>
        <time>2019-05-30T07:15:08.000Z</time>
      </trkpt>
      <trkpt lat="43.74473" lon="6.67379">
        <ele>1430.1999511719</ele>
        <time>2019-05-30T07:15:09.000Z</time>
      </trkpt>
      <trkpt lat="43.74471" lon="6.67405">
        <ele>1429.4000244141</ele>
        <time>2019-05-30T07:15:11.000Z</time>
      </trkpt>
      <trkpt lat="43.74471" lon="6.67418">
        <ele>1428.4000244141</ele>
        <time>2019-05-30T07:15:12.000Z</time>
      </trkpt>
      <trkpt lat="43.74472" lon="6.67431">
        <ele>1427</ele>
        <time>2019-05-30T07:15:13.000Z</time>
      </trkpt>
      <trkpt lat="43.74472" lon="6.67453">
        <ele>1424.8000488281</ele>
        <time>2019-05-30T07:15:15.000Z</time>
      </trkpt>
      <trkpt lat="43.74469" lon="6.67461">
        <ele>1423.5999755859</ele>
        <time>2019-05-30T07:15:16.000Z</time>
      </trkpt>
      <trkpt lat="43.74467" lon="6.67469">
        <ele>1422.5999755859</ele>
        <time>2019-05-30T07:15:17.000Z</time>
      </trkpt>
      <trkpt lat="43.74461" lon="6.67479">
        <ele>1421.8000488281</ele>
        <time>2019-05-30T07:15:18.000Z</time>
      </trkpt>
      <trkpt lat="43.74456" lon="6.67487">
        <ele>1421</ele>
        <time>2019-05-30T07:15:19.000Z</time>
      </trkpt>
      <trkpt lat="43.7445" lon="6.67496">
        <ele>1419.8000488281</ele>
        <time>2019-05-30T07:15:20.000Z</time>
      </trkpt>
      <trkpt lat="43.74441" lon="6.67515">
        <ele>1418</ele>
        <time>2019-05-30T07:15:22.000Z</time>
      </trkpt>
      <trkpt lat="43.74433" lon="6.6754">
        <ele>1416.5999755859</ele>
        <time>2019-05-30T07:15:24.000Z</time>
      </trkpt>
      <trkpt lat="43.74425" lon="6.67559">
        <ele>1415</ele>
        <time>2019-05-30T07:15:26.000Z</time>
      </trkpt>
      <trkpt lat="43.74421" lon="6.67569">
        <ele>1414.4000244141</ele>
        <time>2019-05-30T07:15:27.000Z</time>
      </trkpt>
      <trkpt lat="43.74417" lon="6.67576">
        <ele>1413.5999755859</ele>
        <time>2019-05-30T07:15:28.000Z</time>
      </trkpt>
      <trkpt lat="43.74406" lon="6.67593">
        <ele>1411.5999755859</ele>
        <time>2019-05-30T07:15:30.000Z</time>
      </trkpt>
      <trkpt lat="43.744" lon="6.67602">
        <ele>1409.8000488281</ele>
        <time>2019-05-30T07:15:31.000Z</time>
      </trkpt>
      <trkpt lat="43.74394" lon="6.67612">
        <ele>1408.5999755859</ele>
        <time>2019-05-30T07:15:32.000Z</time>
      </trkpt>
      <trkpt lat="43.74389" lon="6.67623">
        <ele>1407.5999755859</ele>
        <time>2019-05-30T07:15:33.000Z</time>
      </trkpt>
      <trkpt lat="43.74379" lon="6.67646">
        <ele>1405.8000488281</ele>
        <time>2019-05-30T07:15:35.000Z</time>
      </trkpt>
      <trkpt lat="43.74373" lon="6.67658">
        <ele>1404.8000488281</ele>
        <time>2019-05-30T07:15:36.000Z</time>
      </trkpt>
      <trkpt lat="43.74362" lon="6.67683">
        <ele>1401.8000488281</ele>
        <time>2019-05-30T07:15:38.000Z</time>
      </trkpt>
      <trkpt lat="43.74356" lon="6.67696">
        <ele>1401.1999511719</ele>
        <time>2019-05-30T07:15:39.000Z</time>
      </trkpt>
      <trkpt lat="43.7435" lon="6.67709">
        <ele>1400</ele>
        <time>2019-05-30T07:15:40.000Z</time>
      </trkpt>
      <trkpt lat="43.74344" lon="6.67721">
        <ele>1398.4000244141</ele>
        <time>2019-05-30T07:15:41.000Z</time>
      </trkpt>
      <trkpt lat="43.74338" lon="6.67733">
        <ele>1397.4000244141</ele>
        <time>2019-05-30T07:15:42.000Z</time>
      </trkpt>
      <trkpt lat="43.74331" lon="6.67746">
        <ele>1396</ele>
        <time>2019-05-30T07:15:43.000Z</time>
      </trkpt>
      <trkpt lat="43.74325" lon="6.6776">
        <ele>1394.1999511719</ele>
        <time>2019-05-30T07:15:44.000Z</time>
      </trkpt>
      <trkpt lat="43.74319" lon="6.67772">
        <ele>1392.8000488281</ele>
        <time>2019-05-30T07:15:45.000Z</time>
      </trkpt>
      <trkpt lat="43.74313" lon="6.67784">
        <ele>1390.8000488281</ele>
        <time>2019-05-30T07:15:46.000Z</time>
      </trkpt>
      <trkpt lat="43.74307" lon="6.67795">
        <ele>1388.8000488281</ele>
        <time>2019-05-30T07:15:47.000Z</time>
      </trkpt>
      <trkpt lat="43.74299" lon="6.67809">
        <ele>1387</ele>
        <time>2019-05-30T07:15:48.000Z</time>
      </trkpt>
      <trkpt lat="43.74293" lon="6.67821">
        <ele>1385.5999755859</ele>
        <time>2019-05-30T07:15:49.000Z</time>
      </trkpt>
      <trkpt lat="43.74287" lon="6.67834">
        <ele>1384.1999511719</ele>
        <time>2019-05-30T07:15:50.000Z</time>
      </trkpt>
      <trkpt lat="43.7428" lon="6.67846">
        <ele>1382.5999755859</ele>
        <time>2019-05-30T07:15:51.000Z</time>
      </trkpt>
      <trkpt lat="43.74274" lon="6.67856">
        <ele>1381.1999511719</ele>
        <time>2019-05-30T07:15:52.000Z</time>
      </trkpt>
      <trkpt lat="43.74267" lon="6.67866">
        <ele>1380.1999511719</ele>
        <time>2019-05-30T07:15:53.000Z</time>
      </trkpt>
      <trkpt lat="43.74259" lon="6.67877">
        <ele>1379</ele>
        <time>2019-05-30T07:15:54.000Z</time>
      </trkpt>
      <trkpt lat="43.7425" lon="6.67886">
        <ele>1377.1999511719</ele>
        <time>2019-05-30T07:15:55.000Z</time>
      </trkpt>
      <trkpt lat="43.74242" lon="6.67895">
        <ele>1375.1999511719</ele>
        <time>2019-05-30T07:15:56.000Z</time>
      </trkpt>
      <trkpt lat="43.74234" lon="6.67904">
        <ele>1374</ele>
        <time>2019-05-30T07:15:57.000Z</time>
      </trkpt>
      <trkpt lat="43.74226" lon="6.67915">
        <ele>1372</ele>
        <time>2019-05-30T07:15:58.000Z</time>
      </trkpt>
      <trkpt lat="43.7422" lon="6.67926">
        <ele>1370.8000488281</ele>
        <time>2019-05-30T07:15:59.000Z</time>
      </trkpt>
      <trkpt lat="43.74208" lon="6.67948">
        <ele>1368.8000488281</ele>
        <time>2019-05-30T07:16:01.000Z</time>
      </trkpt>
      <trkpt lat="43.74199" lon="6.67971">
        <ele>1367.5999755859</ele>
        <time>2019-05-30T07:16:03.000Z</time>
      </trkpt>
      <trkpt lat="43.74194" lon="6.67982">
        <ele>1366</ele>
        <time>2019-05-30T07:16:04.000Z</time>
      </trkpt>
      <trkpt lat="43.74189" lon="6.67993">
        <ele>1364.8000488281</ele>
        <time>2019-05-30T07:16:05.000Z</time>
      </trkpt>
      <trkpt lat="43.74183" lon="6.68005">
        <ele>1363.8000488281</ele>
        <time>2019-05-30T07:16:06.000Z</time>
      </trkpt>
      <trkpt lat="43.74178" lon="6.68014">
        <ele>1362</ele>
        <time>2019-05-30T07:16:07.000Z</time>
      </trkpt>
      <trkpt lat="43.74173" lon="6.68022">
        <ele>1360.4000244141</ele>
        <time>2019-05-30T07:16:08.000Z</time>
      </trkpt>
      <trkpt lat="43.74161" lon="6.68027">
        <ele>1358.1999511719</ele>
        <time>2019-05-30T07:16:10.000Z</time>
      </trkpt>
      <trkpt lat="43.74155" lon="6.68027">
        <ele>1357.4000244141</ele>
        <time>2019-05-30T07:16:11.000Z</time>
      </trkpt>
      <trkpt lat="43.74148" lon="6.68027">
        <ele>1356.4000244141</ele>
        <time>2019-05-30T07:16:12.000Z</time>
      </trkpt>
      <trkpt lat="43.74141" lon="6.68027">
        <ele>1355.5999755859</ele>
        <time>2019-05-30T07:16:13.000Z</time>
      </trkpt>
      <trkpt lat="43.74136" lon="6.6803">
        <ele>1354.8000488281</ele>
        <time>2019-05-30T07:16:14.000Z</time>
      </trkpt>
      <trkpt lat="43.74131" lon="6.68035">
        <ele>1354</ele>
        <time>2019-05-30T07:16:15.000Z</time>
      </trkpt>
      <trkpt lat="43.74127" lon="6.68043">
        <ele>1353.8000488281</ele>
        <time>2019-05-30T07:16:16.000Z</time>
      </trkpt>
      <trkpt lat="43.74123" lon="6.6806">
        <ele>1352.5999755859</ele>
        <time>2019-05-30T07:16:18.000Z</time>
      </trkpt>
      <trkpt lat="43.74123" lon="6.68069">
        <ele>1351.4000244141</ele>
        <time>2019-05-30T07:16:19.000Z</time>
      </trkpt>
      <trkpt lat="43.74124" lon="6.68081">
        <ele>1350</ele>
        <time>2019-05-30T07:16:21.000Z</time>
      </trkpt>
      <trkpt lat="43.74128" lon="6.68086">
        <ele>1348.8000488281</ele>
        <time>2019-05-30T07:16:23.000Z</time>
      </trkpt>
      <trkpt lat="43.74131" lon="6.68084">
        <ele>1348</ele>
        <time>2019-05-30T07:16:24.000Z</time>
      </trkpt>
      <trkpt lat="43.74133" lon="6.68079">
        <ele>1347.1999511719</ele>
        <time>2019-05-30T07:16:25.000Z</time>
      </trkpt>
      <trkpt lat="43.74137" lon="6.6807">
        <ele>1345.5999755859</ele>
        <time>2019-05-30T07:16:27.000Z</time>
      </trkpt>
      <trkpt lat="43.74143" lon="6.68067">
        <ele>1344.5999755859</ele>
        <time>2019-05-30T07:16:29.000Z</time>
      </trkpt>
      <trkpt lat="43.74148" lon="6.68068">
        <ele>1344.1999511719</ele>
        <time>2019-05-30T07:16:30.000Z</time>
      </trkpt>
      <trkpt lat="43.74156" lon="6.68075">
        <ele>1343.1999511719</ele>
        <time>2019-05-30T07:16:32.000Z</time>
      </trkpt>
      <trkpt lat="43.74161" lon="6.68078">
        <ele>1342.8000488281</ele>
        <time>2019-05-30T07:16:33.000Z</time>
      </trkpt>
      <trkpt lat="43.74166" lon="6.68078">
        <ele>1342</ele>
        <time>2019-05-30T07:16:34.000Z</time>
      </trkpt>
      <trkpt lat="43.74175" lon="6.6807">
        <ele>1340.4000244141</ele>
        <time>2019-05-30T07:16:36.000Z</time>
      </trkpt>
      <trkpt lat="43.74181" lon="6.68061">
        <ele>1339</ele>
        <time>2019-05-30T07:16:38.000Z</time>
      </trkpt>
      <trkpt lat="43.74187" lon="6.68056">
        <ele>1338.4000244141</ele>
        <time>2019-05-30T07:16:39.000Z</time>
      </trkpt>
      <trkpt lat="43.74193" lon="6.68054">
        <ele>1337.8000488281</ele>
        <time>2019-05-30T07:16:40.000Z</time>
      </trkpt>
      <trkpt lat="43.74206" lon="6.68052">
        <ele>1337.1999511719</ele>
        <time>2019-05-30T07:16:42.000Z</time>
      </trkpt>
      <trkpt lat="43.74215" lon="6.68052">
        <ele>1336.8000488281</ele>
        <time>2019-05-30T07:16:43.000Z</time>
      </trkpt>
      <trkpt lat="43.7423" lon="6.68052">
        <ele>1335.4000244141</ele>
        <time>2019-05-30T07:16:45.000Z</time>
      </trkpt>
      <trkpt lat="43.74239" lon="6.68049">
        <ele>1334</ele>
        <time>2019-05-30T07:16:46.000Z</time>
      </trkpt>
      <trkpt lat="43.74255" lon="6.68039">
        <ele>1331.8000488281</ele>
        <time>2019-05-30T07:16:48.000Z</time>
      </trkpt>
      <trkpt lat="43.74263" lon="6.68031">
        <ele>1330.1999511719</ele>
        <time>2019-05-30T07:16:49.000Z</time>
      </trkpt>
      <trkpt lat="43.74269" lon="6.68025">
        <ele>1328.5999755859</ele>
        <time>2019-05-30T07:16:50.000Z</time>
      </trkpt>
      <trkpt lat="43.74277" lon="6.68018">
        <ele>1327.4000244141</ele>
        <time>2019-05-30T07:16:51.000Z</time>
      </trkpt>
      <trkpt lat="43.74284" lon="6.68012">
        <ele>1326.1999511719</ele>
        <time>2019-05-30T07:16:52.000Z</time>
      </trkpt>
      <trkpt lat="43.74293" lon="6.68006">
        <ele>1325.8000488281</ele>
        <time>2019-05-30T07:16:53.000Z</time>
      </trkpt>
      <trkpt lat="43.74303" lon="6.68002">
        <ele>1324</ele>
        <time>2019-05-30T07:16:54.000Z</time>
      </trkpt>
      <trkpt lat="43.74322" lon="6.67994">
        <ele>1321.8000488281</ele>
        <time>2019-05-30T07:16:56.000Z</time>
      </trkpt>
      <trkpt lat="43.74331" lon="6.67991">
        <ele>1320.1999511719</ele>
        <time>2019-05-30T07:16:57.000Z</time>
      </trkpt>
      <trkpt lat="43.74341" lon="6.67987">
        <ele>1318.5999755859</ele>
        <time>2019-05-30T07:16:58.000Z</time>
      </trkpt>
      <trkpt lat="43.74349" lon="6.67984">
        <ele>1317.5999755859</ele>
        <time>2019-05-30T07:16:59.000Z</time>
      </trkpt>
      <trkpt lat="43.74357" lon="6.67981">
        <ele>1315.8000488281</ele>
        <time>2019-05-30T07:17:00.000Z</time>
      </trkpt>
      <trkpt lat="43.74371" lon="6.67976">
        <ele>1314.4000244141</ele>
        <time>2019-05-30T07:17:02.000Z</time>
      </trkpt>
      <trkpt lat="43.74377" lon="6.67973">
        <ele>1313.5999755859</ele>
        <time>2019-05-30T07:17:03.000Z</time>
      </trkpt>
      <trkpt lat="43.74385" lon="6.6797">
        <ele>1313</ele>
        <time>2019-05-30T07:17:04.000Z</time>
      </trkpt>
      <trkpt lat="43.74396" lon="6.67963">
        <ele>1311</ele>
        <time>2019-05-30T07:17:06.000Z</time>
      </trkpt>
      <trkpt lat="43.74401" lon="6.67959">
        <ele>1309.8000488281</ele>
        <time>2019-05-30T07:17:07.000Z</time>
      </trkpt>
      <trkpt lat="43.74406" lon="6.67955">
        <ele>1309.1999511719</ele>
        <time>2019-05-30T07:17:08.000Z</time>
      </trkpt>
      <trkpt lat="43.74411" lon="6.67954">
        <ele>1308.4000244141</ele>
        <time>2019-05-30T07:17:09.000Z</time>
      </trkpt>
      <trkpt lat="43.7442" lon="6.6796">
        <ele>1308.4000244141</ele>
        <time>2019-05-30T07:17:11.000Z</time>
      </trkpt>
      <trkpt lat="43.74427" lon="6.6798">
        <ele>1307.1999511719</ele>
        <time>2019-05-30T07:17:14.000Z</time>
      </trkpt>
      <trkpt lat="43.74429" lon="6.67987">
        <ele>1306.8000488281</ele>
        <time>2019-05-30T07:17:15.000Z</time>
      </trkpt>
      <trkpt lat="43.74432" lon="6.67993">
        <ele>1305.8000488281</ele>
        <time>2019-05-30T07:17:16.000Z</time>
      </trkpt>
      <trkpt lat="43.7444" lon="6.68005">
        <ele>1304.8000488281</ele>
        <time>2019-05-30T07:17:18.000Z</time>
      </trkpt>
      <trkpt lat="43.74444" lon="6.68011">
        <ele>1304.5999755859</ele>
        <time>2019-05-30T07:17:19.000Z</time>
      </trkpt>
      <trkpt lat="43.74457" lon="6.68033">
        <ele>1304.4000244141</ele>
        <time>2019-05-30T07:17:23.000Z</time>
      </trkpt>
      <trkpt lat="43.74461" lon="6.68037">
        <ele>1304.1999511719</ele>
        <time>2019-05-30T07:17:24.000Z</time>
      </trkpt>
      <trkpt lat="43.74471" lon="6.68037">
        <ele>1303.5999755859</ele>
        <time>2019-05-30T07:17:26.000Z</time>
      </trkpt>
      <trkpt lat="43.74476" lon="6.68035">
        <ele>1303.1999511719</ele>
        <time>2019-05-30T07:17:27.000Z</time>
      </trkpt>
      <trkpt lat="43.74499" lon="6.68016">
        <ele>1302</ele>
        <time>2019-05-30T07:17:31.000Z</time>
      </trkpt>
      <trkpt lat="43.74506" lon="6.68013">
        <ele>1301.5999755859</ele>
        <time>2019-05-30T07:17:32.000Z</time>
      </trkpt>
      <trkpt lat="43.74519" lon="6.6801">
        <ele>1300.5999755859</ele>
        <time>2019-05-30T07:17:34.000Z</time>
      </trkpt>
      <trkpt lat="43.74531" lon="6.68006">
        <ele>1299.8000488281</ele>
        <time>2019-05-30T07:17:36.000Z</time>
      </trkpt>
      <trkpt lat="43.74547" lon="6.67999">
        <ele>1300</ele>
        <time>2019-05-30T07:17:39.000Z</time>
      </trkpt>
      <trkpt lat="43.74562" lon="6.68005">
        <ele>1300.5999755859</ele>
        <time>2019-05-30T07:17:42.000Z</time>
      </trkpt>
      <trkpt lat="43.74572" lon="6.68015">
        <ele>1300.8000488281</ele>
        <time>2019-05-30T07:17:44.000Z</time>
      </trkpt>
      <trkpt lat="43.74577" lon="6.68019">
        <ele>1300.5999755859</ele>
        <time>2019-05-30T07:17:45.000Z</time>
      </trkpt>
      <trkpt lat="43.74588" lon="6.68024">
        <ele>1300.4000244141</ele>
        <time>2019-05-30T07:17:47.000Z</time>
      </trkpt>
      <trkpt lat="43.74625" lon="6.68039">
        <ele>1301.1999511719</ele>
        <time>2019-05-30T07:17:54.000Z</time>
      </trkpt>
      <trkpt lat="43.74639" lon="6.68045">
        <ele>1301.8000488281</ele>
        <time>2019-05-30T07:17:57.000Z</time>
      </trkpt>
      <trkpt lat="43.74647" lon="6.68052">
        <ele>1301.8000488281</ele>
        <time>2019-05-30T07:17:59.000Z</time>
      </trkpt>
      <trkpt lat="43.74654" lon="6.68058">
        <ele>1301.1999511719</ele>
        <time>2019-05-30T07:18:01.000Z</time>
      </trkpt>
      <trkpt lat="43.74663" lon="6.68063">
        <ele>1300.5999755859</ele>
        <time>2019-05-30T07:18:03.000Z</time>
      </trkpt>
      <trkpt lat="43.74672" lon="6.68069">
        <ele>1300.4000244141</ele>
        <time>2019-05-30T07:18:05.000Z</time>
      </trkpt>
      <trkpt lat="43.74679" lon="6.68074">
        <ele>1300</ele>
        <time>2019-05-30T07:18:07.000Z</time>
      </trkpt>
      <trkpt lat="43.74683" lon="6.68087">
        <ele>1300</ele>
        <time>2019-05-30T07:18:10.000Z</time>
      </trkpt>
      <trkpt lat="43.74676" lon="6.68092">
        <ele>1300</ele>
        <time>2019-05-30T07:18:13.000Z</time>
      </trkpt>
      <trkpt lat="43.74664" lon="6.68094">
        <ele>1299.4000244141</ele>
        <time>2019-05-30T07:18:16.000Z</time>
      </trkpt>
      <trkpt lat="43.74661" lon="6.68093">
        <ele>1299</ele>
        <time>2019-05-30T07:18:17.000Z</time>
      </trkpt>
      <trkpt lat="43.74659" lon="6.68092">
        <ele>1298.1999511719</ele>
        <time>2019-05-30T07:18:18.000Z</time>
      </trkpt>
      <trkpt lat="43.74655" lon="6.68091">
        <ele>1296.5999755859</ele>
        <time>2019-05-30T07:18:20.000Z</time>
      </trkpt>
      <trkpt lat="43.74649" lon="6.68094">
        <ele>1295.4000244141</ele>
        <time>2019-05-30T07:18:22.000Z</time>
      </trkpt>
      <trkpt lat="43.74645" lon="6.68094">
        <ele>1294.1999511719</ele>
        <time>2019-05-30T07:18:24.000Z</time>
      </trkpt>
      <trkpt lat="43.74641" lon="6.68093">
        <ele>1293.1999511719</ele>
        <time>2019-05-30T07:18:26.000Z</time>
      </trkpt>
      <trkpt lat="43.74635" lon="6.68092">
        <ele>1292.1999511719</ele>
        <time>2019-05-30T07:18:28.000Z</time>
      </trkpt>
      <trkpt lat="43.74633" lon="6.68092">
        <ele>1291.5999755859</ele>
        <time>2019-05-30T07:18:29.000Z</time>
      </trkpt>
      <trkpt lat="43.74629" lon="6.68093">
        <ele>1290.5999755859</ele>
        <time>2019-05-30T07:18:31.000Z</time>
      </trkpt>
      <trkpt lat="43.74627" lon="6.68094">
        <ele>1290.4000244141</ele>
        <time>2019-05-30T07:18:32.000Z</time>
      </trkpt>
      <trkpt lat="43.74624" lon="6.68098">
        <ele>1289.4000244141</ele>
        <time>2019-05-30T07:18:34.000Z</time>
      </trkpt>
      <trkpt lat="43.74619" lon="6.68098">
        <ele>1288.1999511719</ele>
        <time>2019-05-30T07:18:36.000Z</time>
      </trkpt>
      <trkpt lat="43.74616" lon="6.68095">
        <ele>1286.4000244141</ele>
        <time>2019-05-30T07:18:38.000Z</time>
      </trkpt>
      <trkpt lat="43.74612" lon="6.68095">
        <ele>1285.5999755859</ele>
        <time>2019-05-30T07:18:40.000Z</time>
      </trkpt>
      <trkpt lat="43.74611" lon="6.68096">
        <ele>1285</ele>
        <time>2019-05-30T07:18:41.000Z</time>
      </trkpt>
      <trkpt lat="43.74609" lon="6.68096">
        <ele>1284.5999755859</ele>
        <time>2019-05-30T07:18:42.000Z</time>
      </trkpt>
      <trkpt lat="43.74606" lon="6.68097">
        <ele>1283.8000488281</ele>
        <time>2019-05-30T07:18:44.000Z</time>
      </trkpt>
      <trkpt lat="43.74604" lon="6.68098">
        <ele>1283.5999755859</ele>
        <time>2019-05-30T07:18:45.000Z</time>
      </trkpt>
      <trkpt lat="43.74601" lon="6.68099">
        <ele>1282.5999755859</ele>
        <time>2019-05-30T07:18:48.000Z</time>
      </trkpt>
      <trkpt lat="43.74599" lon="6.681">
        <ele>1281.4000244141</ele>
        <time>2019-05-30T07:18:50.000Z</time>
      </trkpt>
      <trkpt lat="43.74594" lon="6.68101">
        <ele>1280.8000488281</ele>
        <time>2019-05-30T07:18:53.000Z</time>
      </trkpt>
      <trkpt lat="43.74593" lon="6.68101">
        <ele>1280.1999511719</ele>
        <time>2019-05-30T07:18:54.000Z</time>
      </trkpt>
      <trkpt lat="43.74589" lon="6.68103">
        <ele>1279.4000244141</ele>
        <time>2019-05-30T07:18:56.000Z</time>
      </trkpt>
      <trkpt lat="43.74587" lon="6.68103">
        <ele>1279</ele>
        <time>2019-05-30T07:18:57.000Z</time>
      </trkpt>
      <trkpt lat="43.74583" lon="6.68105">
        <ele>1277.5999755859</ele>
        <time>2019-05-30T07:19:00.000Z</time>
      </trkpt>
      <trkpt lat="43.74582" lon="6.68105">
        <ele>1277.1999511719</ele>
        <time>2019-05-30T07:19:01.000Z</time>
      </trkpt>
      <trkpt lat="43.74581" lon="6.68105">
        <ele>1276.8000488281</ele>
        <time>2019-05-30T07:19:02.000Z</time>
      </trkpt>
      <trkpt lat="43.7458" lon="6.68106">
        <ele>1276.5999755859</ele>
        <time>2019-05-30T07:19:03.000Z</time>
      </trkpt>
      <trkpt lat="43.74577" lon="6.68108">
        <ele>1275.5999755859</ele>
        <time>2019-05-30T07:19:06.000Z</time>
      </trkpt>
      <trkpt lat="43.74575" lon="6.68109">
        <ele>1275.4000244141</ele>
        <time>2019-05-30T07:19:07.000Z</time>
      </trkpt>
      <trkpt lat="43.7457" lon="6.68111">
        <ele>1274</ele>
        <time>2019-05-30T07:19:10.000Z</time>
      </trkpt>
      <trkpt lat="43.74569" lon="6.68112">
        <ele>1273.8000488281</ele>
        <time>2019-05-30T07:19:11.000Z</time>
      </trkpt>
      <trkpt lat="43.74566" lon="6.68113">
        <ele>1272.8000488281</ele>
        <time>2019-05-30T07:19:13.000Z</time>
      </trkpt>
      <trkpt lat="43.74564" lon="6.68114">
        <ele>1271.8000488281</ele>
        <time>2019-05-30T07:19:16.000Z</time>
      </trkpt>
      <trkpt lat="43.74563" lon="6.68114">
        <ele>1271.4000244141</ele>
        <time>2019-05-30T07:19:17.000Z</time>
      </trkpt>
      <trkpt lat="43.74561" lon="6.68115">
        <ele>1270.8000488281</ele>
        <time>2019-05-30T07:19:20.000Z</time>
      </trkpt>
      <trkpt lat="43.74561" lon="6.68115">
        <ele>1270.4000244141</ele>
        <time>2019-05-30T07:19:21.000Z</time>
      </trkpt>
      <trkpt lat="43.74557" lon="6.68116">
        <ele>1270</ele>
        <time>2019-05-30T07:19:29.000Z</time>
      </trkpt>
      <trkpt lat="43.74552" lon="6.68117">
        <ele>1269.4000244141</ele>
        <time>2019-05-30T07:19:32.000Z</time>
      </trkpt>
      <trkpt lat="43.74552" lon="6.68117">
        <ele>1269</ele>
        <time>2019-05-30T07:19:33.000Z</time>
      </trkpt>
      <trkpt lat="43.74552" lon="6.68117">
        <ele>1268.1999511719</ele>
        <time>2019-05-30T07:19:35.000Z</time>
      </trkpt>
      <trkpt lat="43.74551" lon="6.68117">
        <ele>1267.1999511719</ele>
        <time>2019-05-30T07:19:41.000Z</time>
      </trkpt>
      <trkpt lat="43.7455" lon="6.68116">
        <ele>1267.8000488281</ele>
        <time>2019-05-30T07:19:49.000Z</time>
      </trkpt>
      <trkpt lat="43.74548" lon="6.68115">
        <ele>1267.8000488281</ele>
        <time>2019-05-30T07:20:05.000Z</time>
      </trkpt>
      <trkpt lat="43.74547" lon="6.68114">
        <ele>1267.8000488281</ele>
        <time>2019-05-30T07:20:18.000Z</time>
      </trkpt>
      <trkpt lat="43.74546" lon="6.68114">
        <ele>1267.8000488281</ele>
        <time>2019-05-30T07:20:28.000Z</time>
      </trkpt>
      <trkpt lat="43.74545" lon="6.68114">
        <ele>1267.5999755859</ele>
        <time>2019-05-30T07:20:49.000Z</time>
      </trkpt>
      <trkpt lat="43.74546" lon="6.68114">
        <ele>1267.4000244141</ele>
        <time>2019-05-30T07:20:56.000Z</time>
      </trkpt>
      <trkpt lat="43.74545" lon="6.68115">
        <ele>1267.1999511719</ele>
        <time>2019-05-30T07:21:04.000Z</time>
      </trkpt>
      <trkpt lat="43.74543" lon="6.68117">
        <ele>1267</ele>
        <time>2019-05-30T07:21:12.000Z</time>
      </trkpt>
      <trkpt lat="43.74539" lon="6.68118">
        <ele>1267</ele>
        <time>2019-05-30T07:21:14.000Z</time>
      </trkpt>
      <trkpt lat="43.74534" lon="6.68123">
        <ele>1266.1999511719</ele>
        <time>2019-05-30T07:21:17.000Z</time>
      </trkpt>
      <trkpt lat="43.74532" lon="6.68125">
        <ele>1265.5999755859</ele>
        <time>2019-05-30T07:21:18.000Z</time>
      </trkpt>
      <trkpt lat="43.74528" lon="6.68128">
        <ele>1265.1999511719</ele>
        <time>2019-05-30T07:21:19.000Z</time>
      </trkpt>
      <trkpt lat="43.74526" lon="6.68133">
        <ele>1264.8000488281</ele>
        <time>2019-05-30T07:21:20.000Z</time>
      </trkpt>
      <trkpt lat="43.74524" lon="6.68136">
        <ele>1264.1999511719</ele>
        <time>2019-05-30T07:21:21.000Z</time>
      </trkpt>
      <trkpt lat="43.74522" lon="6.68139">
        <ele>1263.4000244141</ele>
        <time>2019-05-30T07:21:22.000Z</time>
      </trkpt>
      <trkpt lat="43.74518" lon="6.68142">
        <ele>1261.8000488281</ele>
        <time>2019-05-30T07:21:24.000Z</time>
      </trkpt>
      <trkpt lat="43.74516" lon="6.68144">
        <ele>1261</ele>
        <time>2019-05-30T07:21:25.000Z</time>
      </trkpt>
      <trkpt lat="43.74515" lon="6.68145">
        <ele>1260.1999511719</ele>
        <time>2019-05-30T07:21:26.000Z</time>
      </trkpt>
      <trkpt lat="43.7451" lon="6.6815">
        <ele>1259.4000244141</ele>
        <time>2019-05-30T07:21:29.000Z</time>
      </trkpt>
      <trkpt lat="43.74508" lon="6.68151">
        <ele>1259</ele>
        <time>2019-05-30T07:21:30.000Z</time>
      </trkpt>
      <trkpt lat="43.74507" lon="6.68153">
        <ele>1257.5999755859</ele>
        <time>2019-05-30T07:21:33.000Z</time>
      </trkpt>
      <trkpt lat="43.74507" lon="6.68154">
        <ele>1256.5999755859</ele>
        <time>2019-05-30T07:21:36.000Z</time>
      </trkpt>
      <trkpt lat="43.74504" lon="6.68158">
        <ele>1256.4000244141</ele>
        <time>2019-05-30T07:21:43.000Z</time>
      </trkpt>
      <trkpt lat="43.745" lon="6.68162">
        <ele>1255.5999755859</ele>
        <time>2019-05-30T07:21:48.000Z</time>
      </trkpt>
      <trkpt lat="43.745" lon="6.68162">
        <ele>1255</ele>
        <time>2019-05-30T07:21:50.000Z</time>
      </trkpt>
      <trkpt lat="43.745" lon="6.68162">
        <ele>1254.5999755859</ele>
        <time>2019-05-30T07:21:51.000Z</time>
      </trkpt>
      <trkpt lat="43.74498" lon="6.68166">
        <ele>1253.8000488281</ele>
        <time>2019-05-30T07:21:58.000Z</time>
      </trkpt>
      <trkpt lat="43.74496" lon="6.68169">
        <ele>1253.5999755859</ele>
        <time>2019-05-30T07:22:02.000Z</time>
      </trkpt>
      <trkpt lat="43.74495" lon="6.6817">
        <ele>1252.8000488281</ele>
        <time>2019-05-30T07:22:05.000Z</time>
      </trkpt>
      <trkpt lat="43.74495" lon="6.6817">
        <ele>1252.5999755859</ele>
        <time>2019-05-30T07:22:08.000Z</time>
      </trkpt>
      <trkpt lat="43.74494" lon="6.68172">
        <ele>1252.1999511719</ele>
        <time>2019-05-30T07:22:19.000Z</time>
      </trkpt>
      <trkpt lat="43.74492" lon="6.68174">
        <ele>1252.1999511719</ele>
        <time>2019-05-30T07:22:23.000Z</time>
      </trkpt>
      <trkpt lat="43.7449" lon="6.68175">
        <ele>1251.4000244141</ele>
        <time>2019-05-30T07:22:27.000Z</time>
      </trkpt>
      <trkpt lat="43.7449" lon="6.68176">
        <ele>1251</ele>
        <time>2019-05-30T07:22:29.000Z</time>
      </trkpt>
      <trkpt lat="43.74488" lon="6.68179">
        <ele>1250.5999755859</ele>
        <time>2019-05-30T07:22:35.000Z</time>
      </trkpt>
      <trkpt lat="43.74488" lon="6.68179">
        <ele>1250.4000244141</ele>
        <time>2019-05-30T07:22:36.000Z</time>
      </trkpt>
      <trkpt lat="43.74486" lon="6.68181">
        <ele>1250</ele>
        <time>2019-05-30T07:22:43.000Z</time>
      </trkpt>
      <trkpt lat="43.74484" lon="6.68184">
        <ele>1249.1999511719</ele>
        <time>2019-05-30T07:22:49.000Z</time>
      </trkpt>
      <trkpt lat="43.74482" lon="6.68187">
        <ele>1248.1999511719</ele>
        <time>2019-05-30T07:22:55.000Z</time>
      </trkpt>
      <trkpt lat="43.74482" lon="6.68188">
        <ele>1248.1999511719</ele>
        <time>2019-05-30T07:22:56.000Z</time>
      </trkpt>
      <trkpt lat="43.74479" lon="6.6819">
        <ele>1247.5999755859</ele>
        <time>2019-05-30T07:23:03.000Z</time>
      </trkpt>
      <trkpt lat="43.74478" lon="6.68191">
        <ele>1247</ele>
        <time>2019-05-30T07:23:06.000Z</time>
      </trkpt>
      <trkpt lat="43.74477" lon="6.68192">
        <ele>1246.8000488281</ele>
        <time>2019-05-30T07:23:10.000Z</time>
      </trkpt>
      <trkpt lat="43.74476" lon="6.68193">
        <ele>1246</ele>
        <time>2019-05-30T07:23:16.000Z</time>
      </trkpt>
      <trkpt lat="43.74476" lon="6.68193">
        <ele>1245.8000488281</ele>
        <time>2019-05-30T07:23:17.000Z</time>
      </trkpt>
      <trkpt lat="43.74475" lon="6.68194">
        <ele>1245</ele>
        <time>2019-05-30T07:23:24.000Z</time>
      </trkpt>
      <trkpt lat="43.74475" lon="6.68194">
        <ele>1244.8000488281</ele>
        <time>2019-05-30T07:23:25.000Z</time>
      </trkpt>
      <trkpt lat="43.74473" lon="6.68195">
        <ele>1244.1999511719</ele>
        <time>2019-05-30T07:23:30.000Z</time>
      </trkpt>
      <trkpt lat="43.74473" lon="6.68195">
        <ele>1244</ele>
        <time>2019-05-30T07:23:32.000Z</time>
      </trkpt>
      <trkpt lat="43.7447" lon="6.68198">
        <ele>1243.1999511719</ele>
        <time>2019-05-30T07:23:37.000Z</time>
      </trkpt>
      <trkpt lat="43.74468" lon="6.68199">
        <ele>1243</ele>
        <time>2019-05-30T07:23:39.000Z</time>
      </trkpt>
      <trkpt lat="43.74466" lon="6.682">
        <ele>1243</ele>
        <time>2019-05-30T07:23:41.000Z</time>
      </trkpt>
      <trkpt lat="43.74465" lon="6.68202">
        <ele>1242.1999511719</ele>
        <time>2019-05-30T07:23:44.000Z</time>
      </trkpt>
      <trkpt lat="43.74463" lon="6.68203">
        <ele>1241.5999755859</ele>
        <time>2019-05-30T07:23:46.000Z</time>
      </trkpt>
      <trkpt lat="43.74462" lon="6.68204">
        <ele>1240.5999755859</ele>
        <time>2019-05-30T07:23:50.000Z</time>
      </trkpt>
      <trkpt lat="43.74459" lon="6.68207">
        <ele>1240.1999511719</ele>
        <time>2019-05-30T07:23:55.000Z</time>
      </trkpt>
      <trkpt lat="43.74456" lon="6.68212">
        <ele>1239.8000488281</ele>
        <time>2019-05-30T07:23:58.000Z</time>
      </trkpt>
      <trkpt lat="43.74455" lon="6.68213">
        <ele>1239.5999755859</ele>
        <time>2019-05-30T07:23:59.000Z</time>
      </trkpt>
      <trkpt lat="43.74453" lon="6.68215">
        <ele>1239.1999511719</ele>
        <time>2019-05-30T07:24:00.000Z</time>
      </trkpt>
      <trkpt lat="43.74448" lon="6.68225">
        <ele>1238.1999511719</ele>
        <time>2019-05-30T07:24:03.000Z</time>
      </trkpt>
      <trkpt lat="43.7444" lon="6.68237">
        <ele>1237</ele>
        <time>2019-05-30T07:24:06.000Z</time>
      </trkpt>
      <trkpt lat="43.74427" lon="6.68249">
        <ele>1235.5999755859</ele>
        <time>2019-05-30T07:24:10.000Z</time>
      </trkpt>
      <trkpt lat="43.74416" lon="6.68256">
        <ele>1234.4000244141</ele>
        <time>2019-05-30T07:24:13.000Z</time>
      </trkpt>
      <trkpt lat="43.74409" lon="6.6826">
        <ele>1233</ele>
        <time>2019-05-30T07:24:15.000Z</time>
      </trkpt>
      <trkpt lat="43.74403" lon="6.68265">
        <ele>1231.8000488281</ele>
        <time>2019-05-30T07:24:17.000Z</time>
      </trkpt>
      <trkpt lat="43.74398" lon="6.68271">
        <ele>1229.8000488281</ele>
        <time>2019-05-30T07:24:19.000Z</time>
      </trkpt>
      <trkpt lat="43.74393" lon="6.68277">
        <ele>1228.5999755859</ele>
        <time>2019-05-30T07:24:21.000Z</time>
      </trkpt>
      <trkpt lat="43.74388" lon="6.68284">
        <ele>1227.1999511719</ele>
        <time>2019-05-30T07:24:23.000Z</time>
      </trkpt>
      <trkpt lat="43.74384" lon="6.68287">
        <ele>1227.1999511719</ele>
        <time>2019-05-30T07:24:24.000Z</time>
      </trkpt>
      <trkpt lat="43.7438" lon="6.68292">
        <ele>1226.4000244141</ele>
        <time>2019-05-30T07:24:27.000Z</time>
      </trkpt>
      <trkpt lat="43.74377" lon="6.68294">
        <ele>1226.1999511719</ele>
        <time>2019-05-30T07:24:29.000Z</time>
      </trkpt>
      <trkpt lat="43.74373" lon="6.68299">
        <ele>1225.4000244141</ele>
        <time>2019-05-30T07:24:31.000Z</time>
      </trkpt>
      <trkpt lat="43.74371" lon="6.68302">
        <ele>1224.8000488281</ele>
        <time>2019-05-30T07:24:32.000Z</time>
      </trkpt>
      <trkpt lat="43.74367" lon="6.68307">
        <ele>1223.8000488281</ele>
        <time>2019-05-30T07:24:34.000Z</time>
      </trkpt>
      <trkpt lat="43.7436" lon="6.68317">
        <ele>1222.5999755859</ele>
        <time>2019-05-30T07:24:37.000Z</time>
      </trkpt>
      <trkpt lat="43.74355" lon="6.68326">
        <ele>1221</ele>
        <time>2019-05-30T07:24:40.000Z</time>
      </trkpt>
      <trkpt lat="43.74354" lon="6.68328">
        <ele>1220.4000244141</ele>
        <time>2019-05-30T07:24:41.000Z</time>
      </trkpt>
      <trkpt lat="43.74352" lon="6.68329">
        <ele>1219.8000488281</ele>
        <time>2019-05-30T07:24:42.000Z</time>
      </trkpt>
      <trkpt lat="43.7435" lon="6.68334">
        <ele>1218.8000488281</ele>
        <time>2019-05-30T07:24:46.000Z</time>
      </trkpt>
      <trkpt lat="43.74349" lon="6.68337">
        <ele>1218.1999511719</ele>
        <time>2019-05-30T07:24:49.000Z</time>
      </trkpt>
      <trkpt lat="43.74349" lon="6.68337">
        <ele>1218</ele>
        <time>2019-05-30T07:24:51.000Z</time>
      </trkpt>
      <trkpt lat="43.74348" lon="6.6834">
        <ele>1217.8000488281</ele>
        <time>2019-05-30T07:24:56.000Z</time>
      </trkpt>
      <trkpt lat="43.74347" lon="6.68341">
        <ele>1217.5999755859</ele>
        <time>2019-05-30T07:24:58.000Z</time>
      </trkpt>
      <trkpt lat="43.74345" lon="6.68344">
        <ele>1217.5999755859</ele>
        <time>2019-05-30T07:25:00.000Z</time>
      </trkpt>
      <trkpt lat="43.7434" lon="6.68352">
        <ele>1217</ele>
        <time>2019-05-30T07:25:04.000Z</time>
      </trkpt>
      <trkpt lat="43.74337" lon="6.68357">
        <ele>1216.5999755859</ele>
        <time>2019-05-30T07:25:07.000Z</time>
      </trkpt>
      <trkpt lat="43.74336" lon="6.68359">
        <ele>1216.4000244141</ele>
        <time>2019-05-30T07:25:08.000Z</time>
      </trkpt>
      <trkpt lat="43.74334" lon="6.68362">
        <ele>1215.4000244141</ele>
        <time>2019-05-30T07:25:12.000Z</time>
      </trkpt>
      <trkpt lat="43.74333" lon="6.68364">
        <ele>1215.1999511719</ele>
        <time>2019-05-30T07:25:14.000Z</time>
      </trkpt>
      <trkpt lat="43.74334" lon="6.68364">
        <ele>1214.5999755859</ele>
        <time>2019-05-30T07:25:18.000Z</time>
      </trkpt>
      <trkpt lat="43.74334" lon="6.68366">
        <ele>1214.5999755859</ele>
        <time>2019-05-30T07:25:19.000Z</time>
      </trkpt>
      <trkpt lat="43.74328" lon="6.68375">
        <ele>1214.4000244141</ele>
        <time>2019-05-30T07:25:23.000Z</time>
      </trkpt>
      <trkpt lat="43.74325" lon="6.68379">
        <ele>1213.8000488281</ele>
        <time>2019-05-30T07:25:26.000Z</time>
      </trkpt>
      <trkpt lat="43.74323" lon="6.68381">
        <ele>1213.1999511719</ele>
        <time>2019-05-30T07:25:29.000Z</time>
      </trkpt>
      <trkpt lat="43.7432" lon="6.68386">
        <ele>1212.4000244141</ele>
        <time>2019-05-30T07:25:32.000Z</time>
      </trkpt>
      <trkpt lat="43.74318" lon="6.68388">
        <ele>1212.1999511719</ele>
        <time>2019-05-30T07:25:33.000Z</time>
      </trkpt>
      <trkpt lat="43.74314" lon="6.68394">
        <ele>1211.1999511719</ele>
        <time>2019-05-30T07:25:37.000Z</time>
      </trkpt>
      <trkpt lat="43.7431" lon="6.68396">
        <ele>1210.8000488281</ele>
        <time>2019-05-30T07:25:38.000Z</time>
      </trkpt>
      <trkpt lat="43.74305" lon="6.68402">
        <ele>1210</ele>
        <time>2019-05-30T07:25:41.000Z</time>
      </trkpt>
      <trkpt lat="43.74302" lon="6.68411">
        <ele>1209.5999755859</ele>
        <time>2019-05-30T07:25:43.000Z</time>
      </trkpt>
      <trkpt lat="43.74301" lon="6.68414">
        <ele>1208.8000488281</ele>
        <time>2019-05-30T07:25:44.000Z</time>
      </trkpt>
      <trkpt lat="43.743" lon="6.68417">
        <ele>1208.1999511719</ele>
        <time>2019-05-30T07:25:45.000Z</time>
      </trkpt>
      <trkpt lat="43.74299" lon="6.68421">
        <ele>1207.1999511719</ele>
        <time>2019-05-30T07:25:47.000Z</time>
      </trkpt>
      <trkpt lat="43.74299" lon="6.68423">
        <ele>1206.5999755859</ele>
        <time>2019-05-30T07:25:48.000Z</time>
      </trkpt>
      <trkpt lat="43.74299" lon="6.68427">
        <ele>1206.1999511719</ele>
        <time>2019-05-30T07:25:49.000Z</time>
      </trkpt>
      <trkpt lat="43.74297" lon="6.68435">
        <ele>1205.1999511719</ele>
        <time>2019-05-30T07:25:51.000Z</time>
      </trkpt>
      <trkpt lat="43.74295" lon="6.6844">
        <ele>1204.5999755859</ele>
        <time>2019-05-30T07:25:53.000Z</time>
      </trkpt>
      <trkpt lat="43.74293" lon="6.68445">
        <ele>1204.1999511719</ele>
        <time>2019-05-30T07:25:54.000Z</time>
      </trkpt>
      <trkpt lat="43.74288" lon="6.68455">
        <ele>1203.4000244141</ele>
        <time>2019-05-30T07:25:56.000Z</time>
      </trkpt>
      <trkpt lat="43.74286" lon="6.68458">
        <ele>1202.8000488281</ele>
        <time>2019-05-30T07:25:57.000Z</time>
      </trkpt>
      <trkpt lat="43.74281" lon="6.68467">
        <ele>1201.4000244141</ele>
        <time>2019-05-30T07:25:59.000Z</time>
      </trkpt>
      <trkpt lat="43.7428" lon="6.68472">
        <ele>1201</ele>
        <time>2019-05-30T07:26:00.000Z</time>
      </trkpt>
      <trkpt lat="43.74274" lon="6.68484">
        <ele>1200.1999511719</ele>
        <time>2019-05-30T07:26:02.000Z</time>
      </trkpt>
      <trkpt lat="43.74267" lon="6.68499">
        <ele>1199.5999755859</ele>
        <time>2019-05-30T07:26:05.000Z</time>
      </trkpt>
      <trkpt lat="43.74263" lon="6.68506">
        <ele>1199</ele>
        <time>2019-05-30T07:26:06.000Z</time>
      </trkpt>
      <trkpt lat="43.74258" lon="6.68513">
        <ele>1197.8000488281</ele>
        <time>2019-05-30T07:26:08.000Z</time>
      </trkpt>
      <trkpt lat="43.74257" lon="6.68514">
        <ele>1197.5999755859</ele>
        <time>2019-05-30T07:26:09.000Z</time>
      </trkpt>
      <trkpt lat="43.74257" lon="6.68516">
        <ele>1198.1999511719</ele>
        <time>2019-05-30T07:26:18.000Z</time>
      </trkpt>
      <trkpt lat="43.74257" lon="6.68516">
        <ele>1198.1999511719</ele>
        <time>2019-05-30T07:26:19.000Z</time>
      </trkpt>
      <trkpt lat="43.74257" lon="6.68516">
        <ele>1198.1999511719</ele>
        <time>2019-05-30T07:26:21.000Z</time>
      </trkpt>
      <trkpt lat="43.74257" lon="6.68517">
        <ele>1198</ele>
        <time>2019-05-30T07:26:25.000Z</time>
      </trkpt>
      <trkpt lat="43.74254" lon="6.68522">
        <ele>1198</ele>
        <time>2019-05-30T07:26:35.000Z</time>
      </trkpt>
      <trkpt lat="43.74249" lon="6.68529">
        <ele>1197.1999511719</ele>
        <time>2019-05-30T07:26:39.000Z</time>
      </trkpt>
      <trkpt lat="43.74248" lon="6.68531">
        <ele>1196.8000488281</ele>
        <time>2019-05-30T07:26:41.000Z</time>
      </trkpt>
      <trkpt lat="43.74248" lon="6.68532">
        <ele>1196.5999755859</ele>
        <time>2019-05-30T07:26:43.000Z</time>
      </trkpt>
      <trkpt lat="43.74247" lon="6.68533">
        <ele>1196.5999755859</ele>
        <time>2019-05-30T07:26:44.000Z</time>
      </trkpt>
      <trkpt lat="43.74245" lon="6.68538">
        <ele>1195.5999755859</ele>
        <time>2019-05-30T07:26:50.000Z</time>
      </trkpt>
      <trkpt lat="43.74241" lon="6.68543">
        <ele>1194.4000244141</ele>
        <time>2019-05-30T07:26:55.000Z</time>
      </trkpt>
      <trkpt lat="43.74239" lon="6.68546">
        <ele>1193.8000488281</ele>
        <time>2019-05-30T07:27:00.000Z</time>
      </trkpt>
      <trkpt lat="43.74236" lon="6.68551">
        <ele>1193.4000244141</ele>
        <time>2019-05-30T07:27:02.000Z</time>
      </trkpt>
      <trkpt lat="43.74232" lon="6.68556">
        <ele>1193</ele>
        <time>2019-05-30T07:27:05.000Z</time>
      </trkpt>
      <trkpt lat="43.74225" lon="6.68564">
        <ele>1192</ele>
        <time>2019-05-30T07:27:09.000Z</time>
      </trkpt>
      <trkpt lat="43.74218" lon="6.68565">
        <ele>1191</ele>
        <time>2019-05-30T07:27:11.000Z</time>
      </trkpt>
      <trkpt lat="43.7421" lon="6.68566">
        <ele>1190.1999511719</ele>
        <time>2019-05-30T07:27:13.000Z</time>
      </trkpt>
      <trkpt lat="43.74207" lon="6.68565">
        <ele>1189.8000488281</ele>
        <time>2019-05-30T07:27:14.000Z</time>
      </trkpt>
      <trkpt lat="43.742" lon="6.68566">
        <ele>1189.1999511719</ele>
        <time>2019-05-30T07:27:17.000Z</time>
      </trkpt>
      <trkpt lat="43.74189" lon="6.68569">
        <ele>1189.8000488281</ele>
        <time>2019-05-30T07:27:22.000Z</time>
      </trkpt>
      <trkpt lat="43.74181" lon="6.68569">
        <ele>1189.5999755859</ele>
        <time>2019-05-30T07:27:27.000Z</time>
      </trkpt>
      <trkpt lat="43.74174" lon="6.68566">
        <ele>1188.8000488281</ele>
        <time>2019-05-30T07:27:31.000Z</time>
      </trkpt>
      <trkpt lat="43.74173" lon="6.68565">
        <ele>1188.1999511719</ele>
        <time>2019-05-30T07:27:32.000Z</time>
      </trkpt>
      <trkpt lat="43.74169" lon="6.68561">
        <ele>1187.4000244141</ele>
        <time>2019-05-30T07:27:34.000Z</time>
      </trkpt>
      <trkpt lat="43.7416" lon="6.68557">
        <ele>1186.1999511719</ele>
        <time>2019-05-30T07:27:37.000Z</time>
      </trkpt>
      <trkpt lat="43.7415" lon="6.68552">
        <ele>1185</ele>
        <time>2019-05-30T07:27:40.000Z</time>
      </trkpt>
      <trkpt lat="43.74142" lon="6.6855">
        <ele>1184.4000244141</ele>
        <time>2019-05-30T07:27:42.000Z</time>
      </trkpt>
      <trkpt lat="43.74137" lon="6.68549">
        <ele>1183.8000488281</ele>
        <time>2019-05-30T07:27:44.000Z</time>
      </trkpt>
      <trkpt lat="43.74135" lon="6.68549">
        <ele>1183.8000488281</ele>
        <time>2019-05-30T07:27:45.000Z</time>
      </trkpt>
      <trkpt lat="43.74131" lon="6.6855">
        <ele>1182.8000488281</ele>
        <time>2019-05-30T07:27:48.000Z</time>
      </trkpt>
      <trkpt lat="43.74131" lon="6.6855">
        <ele>1181.8000488281</ele>
        <time>2019-05-30T07:27:50.000Z</time>
      </trkpt>
      <trkpt lat="43.74131" lon="6.6855">
        <ele>1181.5999755859</ele>
        <time>2019-05-30T07:27:51.000Z</time>
      </trkpt>
      <trkpt lat="43.74128" lon="6.68549">
        <ele>1181.4000244141</ele>
        <time>2019-05-30T07:28:03.000Z</time>
      </trkpt>
      <trkpt lat="43.74118" lon="6.6855">
        <ele>1180.5999755859</ele>
        <time>2019-05-30T07:28:07.000Z</time>
      </trkpt>
      <trkpt lat="43.74114" lon="6.6855">
        <ele>1180.4000244141</ele>
        <time>2019-05-30T07:28:08.000Z</time>
      </trkpt>
      <trkpt lat="43.74107" lon="6.6855">
        <ele>1179</ele>
        <time>2019-05-30T07:28:11.000Z</time>
      </trkpt>
      <trkpt lat="43.741" lon="6.68551">
        <ele>1177.8000488281</ele>
        <time>2019-05-30T07:28:13.000Z</time>
      </trkpt>
      <trkpt lat="43.74097" lon="6.68549">
        <ele>1177.1999511719</ele>
        <time>2019-05-30T07:28:14.000Z</time>
      </trkpt>
      <trkpt lat="43.74093" lon="6.68549">
        <ele>1176.1999511719</ele>
        <time>2019-05-30T07:28:15.000Z</time>
      </trkpt>
      <trkpt lat="43.74081" lon="6.68546">
        <ele>1174.5999755859</ele>
        <time>2019-05-30T07:28:17.000Z</time>
      </trkpt>
      <trkpt lat="43.74076" lon="6.68547">
        <ele>1173.5999755859</ele>
        <time>2019-05-30T07:28:18.000Z</time>
      </trkpt>
      <trkpt lat="43.74068" lon="6.68547">
        <ele>1172.4000244141</ele>
        <time>2019-05-30T07:28:20.000Z</time>
      </trkpt>
      <trkpt lat="43.74065" lon="6.68549">
        <ele>1171.4000244141</ele>
        <time>2019-05-30T07:28:21.000Z</time>
      </trkpt>
      <trkpt lat="43.7406" lon="6.68549">
        <ele>1170.5999755859</ele>
        <time>2019-05-30T07:28:22.000Z</time>
      </trkpt>
      <trkpt lat="43.74056" lon="6.6855">
        <ele>1169.4000244141</ele>
        <time>2019-05-30T07:28:23.000Z</time>
      </trkpt>
      <trkpt lat="43.7405" lon="6.68556">
        <ele>1168.4000244141</ele>
        <time>2019-05-30T07:28:24.000Z</time>
      </trkpt>
      <trkpt lat="43.74045" lon="6.68563">
        <ele>1167</ele>
        <time>2019-05-30T07:28:25.000Z</time>
      </trkpt>
      <trkpt lat="43.7404" lon="6.68569">
        <ele>1165.5999755859</ele>
        <time>2019-05-30T07:28:26.000Z</time>
      </trkpt>
      <trkpt lat="43.74036" lon="6.68573">
        <ele>1164.5999755859</ele>
        <time>2019-05-30T07:28:27.000Z</time>
      </trkpt>
      <trkpt lat="43.74033" lon="6.68578">
        <ele>1163.5999755859</ele>
        <time>2019-05-30T07:28:28.000Z</time>
      </trkpt>
      <trkpt lat="43.7403" lon="6.68582">
        <ele>1162.4000244141</ele>
        <time>2019-05-30T07:28:29.000Z</time>
      </trkpt>
      <trkpt lat="43.74025" lon="6.68596">
        <ele>1160.8000488281</ele>
        <time>2019-05-30T07:28:31.000Z</time>
      </trkpt>
      <trkpt lat="43.74023" lon="6.686">
        <ele>1161</ele>
        <time>2019-05-30T07:28:32.000Z</time>
      </trkpt>
      <trkpt lat="43.74016" lon="6.68612">
        <ele>1160.1999511719</ele>
        <time>2019-05-30T07:28:34.000Z</time>
      </trkpt>
      <trkpt lat="43.74012" lon="6.68617">
        <ele>1159.8000488281</ele>
        <time>2019-05-30T07:28:35.000Z</time>
      </trkpt>
      <trkpt lat="43.74005" lon="6.68628">
        <ele>1157.4000244141</ele>
        <time>2019-05-30T07:28:37.000Z</time>
      </trkpt>
      <trkpt lat="43.74002" lon="6.68632">
        <ele>1156.4000244141</ele>
        <time>2019-05-30T07:28:38.000Z</time>
      </trkpt>
      <trkpt lat="43.73998" lon="6.68636">
        <ele>1154.8000488281</ele>
        <time>2019-05-30T07:28:39.000Z</time>
      </trkpt>
      <trkpt lat="43.73993" lon="6.68641">
        <ele>1153.5999755859</ele>
        <time>2019-05-30T07:28:40.000Z</time>
      </trkpt>
      <trkpt lat="43.73988" lon="6.68647">
        <ele>1152.5999755859</ele>
        <time>2019-05-30T07:28:41.000Z</time>
      </trkpt>
      <trkpt lat="43.73984" lon="6.68653">
        <ele>1150.8000488281</ele>
        <time>2019-05-30T07:28:42.000Z</time>
      </trkpt>
      <trkpt lat="43.73979" lon="6.68659">
        <ele>1150</ele>
        <time>2019-05-30T07:28:43.000Z</time>
      </trkpt>
      <trkpt lat="43.73975" lon="6.68664">
        <ele>1149.4000244141</ele>
        <time>2019-05-30T07:28:44.000Z</time>
      </trkpt>
      <trkpt lat="43.73972" lon="6.68667">
        <ele>1147.8000488281</ele>
        <time>2019-05-30T07:28:45.000Z</time>
      </trkpt>
      <trkpt lat="43.73964" lon="6.68674">
        <ele>1146.5999755859</ele>
        <time>2019-05-30T07:28:47.000Z</time>
      </trkpt>
      <trkpt lat="43.7396" lon="6.68678">
        <ele>1145.4000244141</ele>
        <time>2019-05-30T07:28:48.000Z</time>
      </trkpt>
      <trkpt lat="43.73953" lon="6.68684">
        <ele>1144</ele>
        <time>2019-05-30T07:28:50.000Z</time>
      </trkpt>
      <trkpt lat="43.73946" lon="6.68689">
        <ele>1142.4000244141</ele>
        <time>2019-05-30T07:28:52.000Z</time>
      </trkpt>
      <trkpt lat="43.73943" lon="6.68694">
        <ele>1142</ele>
        <time>2019-05-30T07:28:53.000Z</time>
      </trkpt>
      <trkpt lat="43.7394" lon="6.68699">
        <ele>1141.4000244141</ele>
        <time>2019-05-30T07:28:54.000Z</time>
      </trkpt>
      <trkpt lat="43.73934" lon="6.68711">
        <ele>1139.8000488281</ele>
        <time>2019-05-30T07:28:56.000Z</time>
      </trkpt>
      <trkpt lat="43.73927" lon="6.68722">
        <ele>1138.1999511719</ele>
        <time>2019-05-30T07:28:58.000Z</time>
      </trkpt>
      <trkpt lat="43.73923" lon="6.68727">
        <ele>1136.8000488281</ele>
        <time>2019-05-30T07:28:59.000Z</time>
      </trkpt>
      <trkpt lat="43.7392" lon="6.68732">
        <ele>1135</ele>
        <time>2019-05-30T07:29:00.000Z</time>
      </trkpt>
      <trkpt lat="43.73916" lon="6.68737">
        <ele>1132.8000488281</ele>
        <time>2019-05-30T07:29:01.000Z</time>
      </trkpt>
      <trkpt lat="43.73913" lon="6.68741">
        <ele>1131.4000244141</ele>
        <time>2019-05-30T07:29:02.000Z</time>
      </trkpt>
      <trkpt lat="43.73909" lon="6.68747">
        <ele>1130.4000244141</ele>
        <time>2019-05-30T07:29:03.000Z</time>
      </trkpt>
      <trkpt lat="43.73905" lon="6.68752">
        <ele>1128.5999755859</ele>
        <time>2019-05-30T07:29:04.000Z</time>
      </trkpt>
      <trkpt lat="43.73897" lon="6.68765">
        <ele>1127.4000244141</ele>
        <time>2019-05-30T07:29:06.000Z</time>
      </trkpt>
      <trkpt lat="43.73893" lon="6.68772">
        <ele>1125.8000488281</ele>
        <time>2019-05-30T07:29:07.000Z</time>
      </trkpt>
      <trkpt lat="43.7389" lon="6.6878">
        <ele>1123.8000488281</ele>
        <time>2019-05-30T07:29:08.000Z</time>
      </trkpt>
      <trkpt lat="43.73887" lon="6.6879">
        <ele>1122.4000244141</ele>
        <time>2019-05-30T07:29:09.000Z</time>
      </trkpt>
      <trkpt lat="43.73884" lon="6.68799">
        <ele>1121.1999511719</ele>
        <time>2019-05-30T07:29:10.000Z</time>
      </trkpt>
      <trkpt lat="43.73882" lon="6.68807">
        <ele>1119.8000488281</ele>
        <time>2019-05-30T07:29:11.000Z</time>
      </trkpt>
      <trkpt lat="43.73881" lon="6.68814">
        <ele>1118.8000488281</ele>
        <time>2019-05-30T07:29:12.000Z</time>
      </trkpt>
      <trkpt lat="43.73879" lon="6.6882">
        <ele>1118.1999511719</ele>
        <time>2019-05-30T07:29:13.000Z</time>
      </trkpt>
      <trkpt lat="43.73874" lon="6.68828">
        <ele>1116.8000488281</ele>
        <time>2019-05-30T07:29:15.000Z</time>
      </trkpt>
      <trkpt lat="43.73872" lon="6.68833">
        <ele>1115.4000244141</ele>
        <time>2019-05-30T07:29:17.000Z</time>
      </trkpt>
      <trkpt lat="43.73868" lon="6.68839">
        <ele>1113.5999755859</ele>
        <time>2019-05-30T07:29:19.000Z</time>
      </trkpt>
      <trkpt lat="43.73866" lon="6.68844">
        <ele>1112.1999511719</ele>
        <time>2019-05-30T07:29:22.000Z</time>
      </trkpt>
      <trkpt lat="43.73865" lon="6.68845">
        <ele>1111.1999511719</ele>
        <time>2019-05-30T07:29:23.000Z</time>
      </trkpt>
      <trkpt lat="43.73864" lon="6.68845">
        <ele>1110</ele>
        <time>2019-05-30T07:29:25.000Z</time>
      </trkpt>
      <trkpt lat="43.73858" lon="6.68847">
        <ele>1109.4000244141</ele>
        <time>2019-05-30T07:29:29.000Z</time>
      </trkpt>
      <trkpt lat="43.73855" lon="6.68849">
        <ele>1108.4000244141</ele>
        <time>2019-05-30T07:29:31.000Z</time>
      </trkpt>
      <trkpt lat="43.73847" lon="6.68853">
        <ele>1107.1999511719</ele>
        <time>2019-05-30T07:29:34.000Z</time>
      </trkpt>
      <trkpt lat="43.73841" lon="6.68856">
        <ele>1105.8000488281</ele>
        <time>2019-05-30T07:29:36.000Z</time>
      </trkpt>
      <trkpt lat="43.7384" lon="6.68857">
        <ele>1104.5999755859</ele>
        <time>2019-05-30T07:29:37.000Z</time>
      </trkpt>
      <trkpt lat="43.73839" lon="6.68859">
        <ele>1103.4000244141</ele>
        <time>2019-05-30T07:29:38.000Z</time>
      </trkpt>
      <trkpt lat="43.73839" lon="6.68861">
        <ele>1102.1999511719</ele>
        <time>2019-05-30T07:29:39.000Z</time>
      </trkpt>
      <trkpt lat="43.73838" lon="6.68868">
        <ele>1100</ele>
        <time>2019-05-30T07:29:41.000Z</time>
      </trkpt>
      <trkpt lat="43.73837" lon="6.68874">
        <ele>1099.1999511719</ele>
        <time>2019-05-30T07:29:43.000Z</time>
      </trkpt>
      <trkpt lat="43.73836" lon="6.68877">
        <ele>1098.5999755859</ele>
        <time>2019-05-30T07:29:44.000Z</time>
      </trkpt>
      <trkpt lat="43.73835" lon="6.68882">
        <ele>1097.1999511719</ele>
        <time>2019-05-30T07:29:46.000Z</time>
      </trkpt>
      <trkpt lat="43.73835" lon="6.68885">
        <ele>1096.4000244141</ele>
        <time>2019-05-30T07:29:47.000Z</time>
      </trkpt>
      <trkpt lat="43.73835" lon="6.6889">
        <ele>1095.5999755859</ele>
        <time>2019-05-30T07:29:48.000Z</time>
      </trkpt>
      <trkpt lat="43.73835" lon="6.68894">
        <ele>1094</ele>
        <time>2019-05-30T07:29:50.000Z</time>
      </trkpt>
      <trkpt lat="43.73834" lon="6.68895">
        <ele>1093.1999511719</ele>
        <time>2019-05-30T07:29:51.000Z</time>
      </trkpt>
      <trkpt lat="43.73832" lon="6.68896">
        <ele>1092.8000488281</ele>
        <time>2019-05-30T07:29:52.000Z</time>
      </trkpt>
      <trkpt lat="43.73823" lon="6.68897">
        <ele>1091.5999755859</ele>
        <time>2019-05-30T07:29:55.000Z</time>
      </trkpt>
      <trkpt lat="43.73817" lon="6.68898">
        <ele>1090.4000244141</ele>
        <time>2019-05-30T07:29:57.000Z</time>
      </trkpt>
      <trkpt lat="43.73806" lon="6.68899">
        <ele>1089.8000488281</ele>
        <time>2019-05-30T07:30:01.000Z</time>
      </trkpt>
      <trkpt lat="43.73785" lon="6.68908">
        <ele>1090.4000244141</ele>
        <time>2019-05-30T07:30:09.000Z</time>
      </trkpt>
      <trkpt lat="43.73784" lon="6.68909">
        <ele>1090.5999755859</ele>
        <time>2019-05-30T07:30:12.000Z</time>
      </trkpt>
      <trkpt lat="43.7378" lon="6.6891">
        <ele>1091</ele>
        <time>2019-05-30T07:30:20.000Z</time>
      </trkpt>
      <trkpt lat="43.7378" lon="6.6891">
        <ele>1090.8000488281</ele>
        <time>2019-05-30T07:30:25.000Z</time>
      </trkpt>
      <trkpt lat="43.73781" lon="6.68912">
        <ele>1090.8000488281</ele>
        <time>2019-05-30T07:30:33.000Z</time>
      </trkpt>
      <trkpt lat="43.73781" lon="6.68911">
        <ele>1091</ele>
        <time>2019-05-30T07:30:40.000Z</time>
      </trkpt>
      <trkpt lat="43.73782" lon="6.68911">
        <ele>1090.5999755859</ele>
        <time>2019-05-30T07:30:47.000Z</time>
      </trkpt>
      <trkpt lat="43.73783" lon="6.6891">
        <ele>1090.1999511719</ele>
        <time>2019-05-30T07:30:51.000Z</time>
      </trkpt>
      <trkpt lat="43.73782" lon="6.6891">
        <ele>1090</ele>
        <time>2019-05-30T07:30:58.000Z</time>
      </trkpt>
      <trkpt lat="43.73782" lon="6.6891">
        <ele>1090.5999755859</ele>
        <time>2019-05-30T07:31:06.000Z</time>
      </trkpt>
      <trkpt lat="43.73782" lon="6.68911">
        <ele>1090.4000244141</ele>
        <time>2019-05-30T07:31:19.000Z</time>
      </trkpt>
      <trkpt lat="43.73781" lon="6.68908">
        <ele>1090.5999755859</ele>
        <time>2019-05-30T07:31:26.000Z</time>
      </trkpt>
      <trkpt lat="43.7378" lon="6.68909">
        <ele>1090.8000488281</ele>
        <time>2019-05-30T07:31:33.000Z</time>
      </trkpt>
      <trkpt lat="43.7378" lon="6.6891">
        <ele>1090.4000244141</ele>
        <time>2019-05-30T07:31:40.000Z</time>
      </trkpt>
      <trkpt lat="43.73781" lon="6.68912">
        <ele>1090.1999511719</ele>
        <time>2019-05-30T07:31:44.000Z</time>
      </trkpt>
      <trkpt lat="43.73781" lon="6.68912">
        <ele>1090.4000244141</ele>
        <time>2019-05-30T07:31:46.000Z</time>
      </trkpt>
      <trkpt lat="43.7378" lon="6.68912">
        <ele>1090</ele>
        <time>2019-05-30T07:31:50.000Z</time>
      </trkpt>
      <trkpt lat="43.73781" lon="6.68911">
        <ele>1090.4000244141</ele>
        <time>2019-05-30T07:32:00.000Z</time>
      </trkpt>
      <trkpt lat="43.73781" lon="6.6891">
        <ele>1090.4000244141</ele>
        <time>2019-05-30T07:32:08.000Z</time>
      </trkpt>
      <trkpt lat="43.73782" lon="6.68911">
        <ele>1090.4000244141</ele>
        <time>2019-05-30T07:32:13.000Z</time>
      </trkpt>
      <trkpt lat="43.73783" lon="6.68912">
        <ele>1090.1999511719</ele>
        <time>2019-05-30T07:32:19.000Z</time>
      </trkpt>
      <trkpt lat="43.73782" lon="6.68912">
        <ele>1089.8000488281</ele>
        <time>2019-05-30T07:32:25.000Z</time>
      </trkpt>
      <trkpt lat="43.73782" lon="6.68911">
        <ele>1090.1999511719</ele>
        <time>2019-05-30T07:32:32.000Z</time>
      </trkpt>
      <trkpt lat="43.73781" lon="6.68911">
        <ele>1090.4000244141</ele>
        <time>2019-05-30T07:32:43.000Z</time>
      </trkpt>
      <trkpt lat="43.73782" lon="6.6891">
        <ele>1090</ele>
        <time>2019-05-30T07:32:51.000Z</time>
      </trkpt>
      <trkpt lat="43.73783" lon="6.68909">
        <ele>1090.5999755859</ele>
        <time>2019-05-30T07:32:57.000Z</time>
      </trkpt>
      <trkpt lat="43.73783" lon="6.68908">
        <ele>1090.4000244141</ele>
        <time>2019-05-30T07:33:01.000Z</time>
      </trkpt>
      <trkpt lat="43.73783" lon="6.68909">
        <ele>1090.1999511719</ele>
        <time>2019-05-30T07:33:07.000Z</time>
      </trkpt>
      <trkpt lat="43.73782" lon="6.68909">
        <ele>1090.1999511719</ele>
        <time>2019-05-30T07:33:13.000Z</time>
      </trkpt>
      <trkpt lat="43.73782" lon="6.68909">
        <ele>1090.8000488281</ele>
        <time>2019-05-30T07:33:21.000Z</time>
      </trkpt>
      <trkpt lat="43.73781" lon="6.68906">
        <ele>1090.5999755859</ele>
        <time>2019-05-30T07:33:30.000Z</time>
      </trkpt>
      <trkpt lat="43.73781" lon="6.68905">
        <ele>1090.5999755859</ele>
        <time>2019-05-30T07:33:32.000Z</time>
      </trkpt>
      <trkpt lat="43.7378" lon="6.68901">
        <ele>1090.5999755859</ele>
        <time>2019-05-30T07:33:35.000Z</time>
      </trkpt>
      <trkpt lat="43.73779" lon="6.68899">
        <ele>1090.5999755859</ele>
        <time>2019-05-30T07:33:36.000Z</time>
      </trkpt>
      <trkpt lat="43.73774" lon="6.68891">
        <ele>1090.5999755859</ele>
        <time>2019-05-30T07:33:39.000Z</time>
      </trkpt>
      <trkpt lat="43.73768" lon="6.68877">
        <ele>1091.4000244141</ele>
        <time>2019-05-30T07:33:43.000Z</time>
      </trkpt>
      <trkpt lat="43.73762" lon="6.68861">
        <ele>1091.5999755859</ele>
        <time>2019-05-30T07:33:47.000Z</time>
      </trkpt>
      <trkpt lat="43.73754" lon="6.68844">
        <ele>1092.4000244141</ele>
        <time>2019-05-30T07:33:51.000Z</time>
      </trkpt>
      <trkpt lat="43.73748" lon="6.6883">
        <ele>1092.5999755859</ele>
        <time>2019-05-30T07:33:54.000Z</time>
      </trkpt>
      <trkpt lat="43.73742" lon="6.68813">
        <ele>1093.4000244141</ele>
        <time>2019-05-30T07:33:58.000Z</time>
      </trkpt>
      <trkpt lat="43.73737" lon="6.68801">
        <ele>1093.8000488281</ele>
        <time>2019-05-30T07:34:01.000Z</time>
      </trkpt>
      <trkpt lat="43.7373" lon="6.68785">
        <ele>1094.8000488281</ele>
        <time>2019-05-30T07:34:05.000Z</time>
      </trkpt>
      <trkpt lat="43.73728" lon="6.68781">
        <ele>1095</ele>
        <time>2019-05-30T07:34:06.000Z</time>
      </trkpt>
      <trkpt lat="43.7372" lon="6.68762">
        <ele>1096</ele>
        <time>2019-05-30T07:34:11.000Z</time>
      </trkpt>
      <trkpt lat="43.73719" lon="6.68759">
        <ele>1096.1999511719</ele>
        <time>2019-05-30T07:34:12.000Z</time>
      </trkpt>
      <trkpt lat="43.73713" lon="6.68748">
        <ele>1097</ele>
        <time>2019-05-30T07:34:15.000Z</time>
      </trkpt>
      <trkpt lat="43.73705" lon="6.68735">
        <ele>1097.5999755859</ele>
        <time>2019-05-30T07:34:19.000Z</time>
      </trkpt>
      <trkpt lat="43.737" lon="6.68731">
        <ele>1098</ele>
        <time>2019-05-30T07:34:21.000Z</time>
      </trkpt>
      <trkpt lat="43.73687" lon="6.68725">
        <ele>1098.5999755859</ele>
        <time>2019-05-30T07:34:25.000Z</time>
      </trkpt>
      <trkpt lat="43.7368" lon="6.6872">
        <ele>1098.5999755859</ele>
        <time>2019-05-30T07:34:27.000Z</time>
      </trkpt>
      <trkpt lat="43.73673" lon="6.68709">
        <ele>1098.4000244141</ele>
        <time>2019-05-30T07:34:29.000Z</time>
      </trkpt>
      <trkpt lat="43.7366" lon="6.68685">
        <ele>1097</ele>
        <time>2019-05-30T07:34:33.000Z</time>
      </trkpt>
      <trkpt lat="43.73656" lon="6.68682">
        <ele>1096.8000488281</ele>
        <time>2019-05-30T07:34:34.000Z</time>
      </trkpt>
      <trkpt lat="43.73636" lon="6.68676">
        <ele>1096.1999511719</ele>
        <time>2019-05-30T07:34:38.000Z</time>
      </trkpt>
      <trkpt lat="43.73631" lon="6.68677">
        <ele>1096.4000244141</ele>
        <time>2019-05-30T07:34:39.000Z</time>
      </trkpt>
      <trkpt lat="43.73617" lon="6.68675">
        <ele>1096.4000244141</ele>
        <time>2019-05-30T07:34:42.000Z</time>
      </trkpt>
      <trkpt lat="43.73608" lon="6.6867">
        <ele>1097</ele>
        <time>2019-05-30T07:34:44.000Z</time>
      </trkpt>
      <trkpt lat="43.736" lon="6.68656">
        <ele>1098</ele>
        <time>2019-05-30T07:34:48.000Z</time>
      </trkpt>
      <trkpt lat="43.73598" lon="6.68653">
        <ele>1098.5999755859</ele>
        <time>2019-05-30T07:34:49.000Z</time>
      </trkpt>
      <trkpt lat="43.73593" lon="6.68641">
        <ele>1099.5999755859</ele>
        <time>2019-05-30T07:34:52.000Z</time>
      </trkpt>
      <trkpt lat="43.73586" lon="6.68628">
        <ele>1099.8000488281</ele>
        <time>2019-05-30T07:34:55.000Z</time>
      </trkpt>
      <trkpt lat="43.73578" lon="6.68614">
        <ele>1100.8000488281</ele>
        <time>2019-05-30T07:34:58.000Z</time>
      </trkpt>
      <trkpt lat="43.73562" lon="6.68583">
        <ele>1101.5999755859</ele>
        <time>2019-05-30T07:35:04.000Z</time>
      </trkpt>
      <trkpt lat="43.73544" lon="6.68543">
        <ele>1100.5999755859</ele>
        <time>2019-05-30T07:35:10.000Z</time>
      </trkpt>
      <trkpt lat="43.7353" lon="6.68514">
        <ele>1099.5999755859</ele>
        <time>2019-05-30T07:35:14.000Z</time>
      </trkpt>
      <trkpt lat="43.73519" lon="6.68493">
        <ele>1098.5999755859</ele>
        <time>2019-05-30T07:35:17.000Z</time>
      </trkpt>
      <trkpt lat="43.73514" lon="6.68485">
        <ele>1098.4000244141</ele>
        <time>2019-05-30T07:35:18.000Z</time>
      </trkpt>
      <trkpt lat="43.73499" lon="6.68468">
        <ele>1097</ele>
        <time>2019-05-30T07:35:21.000Z</time>
      </trkpt>
      <trkpt lat="43.73494" lon="6.68464">
        <ele>1096.8000488281</ele>
        <time>2019-05-30T07:35:22.000Z</time>
      </trkpt>
      <trkpt lat="43.73468" lon="6.68457">
        <ele>1096.4000244141</ele>
        <time>2019-05-30T07:35:26.000Z</time>
      </trkpt>
      <trkpt lat="43.73444" lon="6.68469">
        <ele>1096.4000244141</ele>
        <time>2019-05-30T07:35:30.000Z</time>
      </trkpt>
      <trkpt lat="43.73439" lon="6.68474">
        <ele>1095.8000488281</ele>
        <time>2019-05-30T07:35:31.000Z</time>
      </trkpt>
      <trkpt lat="43.73429" lon="6.68485">
        <ele>1094.8000488281</ele>
        <time>2019-05-30T07:35:33.000Z</time>
      </trkpt>
      <trkpt lat="43.73424" lon="6.68491">
        <ele>1094.5999755859</ele>
        <time>2019-05-30T07:35:34.000Z</time>
      </trkpt>
      <trkpt lat="43.73419" lon="6.68497">
        <ele>1094.4000244141</ele>
        <time>2019-05-30T07:35:35.000Z</time>
      </trkpt>
      <trkpt lat="43.73413" lon="6.68503">
        <ele>1094.5999755859</ele>
        <time>2019-05-30T07:35:36.000Z</time>
      </trkpt>
      <trkpt lat="43.73392" lon="6.68526">
        <ele>1094</ele>
        <time>2019-05-30T07:35:40.000Z</time>
      </trkpt>
      <trkpt lat="43.73382" lon="6.68537">
        <ele>1093.5999755859</ele>
        <time>2019-05-30T07:35:42.000Z</time>
      </trkpt>
      <trkpt lat="43.73362" lon="6.68559">
        <ele>1092.5999755859</ele>
        <time>2019-05-30T07:35:46.000Z</time>
      </trkpt>
      <trkpt lat="43.73358" lon="6.68563">
        <ele>1092.8000488281</ele>
        <time>2019-05-30T07:35:47.000Z</time>
      </trkpt>
      <trkpt lat="43.73345" lon="6.68579">
        <ele>1093.8000488281</ele>
        <time>2019-05-30T07:35:50.000Z</time>
      </trkpt>
      <trkpt lat="43.73329" lon="6.68596">
        <ele>1094.8000488281</ele>
        <time>2019-05-30T07:35:54.000Z</time>
      </trkpt>
      <trkpt lat="43.73312" lon="6.68615">
        <ele>1095.5999755859</ele>
        <time>2019-05-30T07:35:59.000Z</time>
      </trkpt>
      <trkpt lat="43.73304" lon="6.68621">
        <ele>1096.1999511719</ele>
        <time>2019-05-30T07:36:01.000Z</time>
      </trkpt>
      <trkpt lat="43.73292" lon="6.68636">
        <ele>1097</ele>
        <time>2019-05-30T07:36:05.000Z</time>
      </trkpt>
      <trkpt lat="43.73288" lon="6.6864">
        <ele>1097</ele>
        <time>2019-05-30T07:36:06.000Z</time>
      </trkpt>
      <trkpt lat="43.73285" lon="6.68643">
        <ele>1097.1999511719</ele>
        <time>2019-05-30T07:36:07.000Z</time>
      </trkpt>
      <trkpt lat="43.73281" lon="6.68648">
        <ele>1097.1999511719</ele>
        <time>2019-05-30T07:36:08.000Z</time>
      </trkpt>
      <trkpt lat="43.73266" lon="6.68668">
        <ele>1098</ele>
        <time>2019-05-30T07:36:13.000Z</time>
      </trkpt>
      <trkpt lat="43.73259" lon="6.68672">
        <ele>1098.4000244141</ele>
        <time>2019-05-30T07:36:15.000Z</time>
      </trkpt>
      <trkpt lat="43.73252" lon="6.68672">
        <ele>1098.4000244141</ele>
        <time>2019-05-30T07:36:17.000Z</time>
      </trkpt>
      <trkpt lat="43.73225" lon="6.68666">
        <ele>1099</ele>
        <time>2019-05-30T07:36:23.000Z</time>
      </trkpt>
      <trkpt lat="43.73213" lon="6.68662">
        <ele>1098.4000244141</ele>
        <time>2019-05-30T07:36:25.000Z</time>
      </trkpt>
      <trkpt lat="43.73202" lon="6.68653">
        <ele>1097.4000244141</ele>
        <time>2019-05-30T07:36:27.000Z</time>
      </trkpt>
      <trkpt lat="43.73191" lon="6.68642">
        <ele>1096</ele>
        <time>2019-05-30T07:36:29.000Z</time>
      </trkpt>
      <trkpt lat="43.73184" lon="6.68636">
        <ele>1095</ele>
        <time>2019-05-30T07:36:30.000Z</time>
      </trkpt>
      <trkpt lat="43.73173" lon="6.68623">
        <ele>1094</ele>
        <time>2019-05-30T07:36:32.000Z</time>
      </trkpt>
      <trkpt lat="43.73167" lon="6.68616">
        <ele>1093.5999755859</ele>
        <time>2019-05-30T07:36:33.000Z</time>
      </trkpt>
      <trkpt lat="43.73149" lon="6.68597">
        <ele>1092.8000488281</ele>
        <time>2019-05-30T07:36:36.000Z</time>
      </trkpt>
      <trkpt lat="43.73143" lon="6.68593">
        <ele>1092.1999511719</ele>
        <time>2019-05-30T07:36:37.000Z</time>
      </trkpt>
      <trkpt lat="43.73136" lon="6.68589">
        <ele>1092.1999511719</ele>
        <time>2019-05-30T07:36:38.000Z</time>
      </trkpt>
      <trkpt lat="43.731" lon="6.68571">
        <ele>1092.5999755859</ele>
        <time>2019-05-30T07:36:44.000Z</time>
      </trkpt>
      <trkpt lat="43.73094" lon="6.68568">
        <ele>1092.5999755859</ele>
        <time>2019-05-30T07:36:45.000Z</time>
      </trkpt>
      <trkpt lat="43.73081" lon="6.68556">
        <ele>1093.4000244141</ele>
        <time>2019-05-30T07:36:48.000Z</time>
      </trkpt>
      <trkpt lat="43.73063" lon="6.68549">
        <ele>1093.4000244141</ele>
        <time>2019-05-30T07:36:52.000Z</time>
      </trkpt>
      <trkpt lat="43.73049" lon="6.68541">
        <ele>1093.8000488281</ele>
        <time>2019-05-30T07:36:55.000Z</time>
      </trkpt>
      <trkpt lat="43.73045" lon="6.68537">
        <ele>1093.8000488281</ele>
        <time>2019-05-30T07:36:56.000Z</time>
      </trkpt>
      <trkpt lat="43.73038" lon="6.68529">
        <ele>1093.8000488281</ele>
        <time>2019-05-30T07:36:58.000Z</time>
      </trkpt>
      <trkpt lat="43.73033" lon="6.6852">
        <ele>1094.1999511719</ele>
        <time>2019-05-30T07:37:00.000Z</time>
      </trkpt>
      <trkpt lat="43.73027" lon="6.68512">
        <ele>1095</ele>
        <time>2019-05-30T07:37:02.000Z</time>
      </trkpt>
      <trkpt lat="43.73023" lon="6.68507">
        <ele>1094.8000488281</ele>
        <time>2019-05-30T07:37:03.000Z</time>
      </trkpt>
      <trkpt lat="43.73019" lon="6.68502">
        <ele>1095</ele>
        <time>2019-05-30T07:37:04.000Z</time>
      </trkpt>
      <trkpt lat="43.73002" lon="6.68484">
        <ele>1094</ele>
        <time>2019-05-30T07:37:07.000Z</time>
      </trkpt>
      <trkpt lat="43.72995" lon="6.68477">
        <ele>1093.5999755859</ele>
        <time>2019-05-30T07:37:08.000Z</time>
      </trkpt>
      <trkpt lat="43.72981" lon="6.68468">
        <ele>1092</ele>
        <time>2019-05-30T07:37:10.000Z</time>
      </trkpt>
      <trkpt lat="43.72974" lon="6.68466">
        <ele>1091.1999511719</ele>
        <time>2019-05-30T07:37:11.000Z</time>
      </trkpt>
      <trkpt lat="43.72968" lon="6.68465">
        <ele>1090.5999755859</ele>
        <time>2019-05-30T07:37:12.000Z</time>
      </trkpt>
      <trkpt lat="43.7296" lon="6.68465">
        <ele>1090</ele>
        <time>2019-05-30T07:37:13.000Z</time>
      </trkpt>
      <trkpt lat="43.72954" lon="6.68464">
        <ele>1089.8000488281</ele>
        <time>2019-05-30T07:37:14.000Z</time>
      </trkpt>
      <trkpt lat="43.7292" lon="6.68455">
        <ele>1091.1999511719</ele>
        <time>2019-05-30T07:37:20.000Z</time>
      </trkpt>
      <trkpt lat="43.72888" lon="6.68447">
        <ele>1090.1999511719</ele>
        <time>2019-05-30T07:37:25.000Z</time>
      </trkpt>
      <trkpt lat="43.72882" lon="6.68443">
        <ele>1089.5999755859</ele>
        <time>2019-05-30T07:37:26.000Z</time>
      </trkpt>
      <trkpt lat="43.72864" lon="6.68429">
        <ele>1088.4000244141</ele>
        <time>2019-05-30T07:37:29.000Z</time>
      </trkpt>
      <trkpt lat="43.72858" lon="6.68423">
        <ele>1088.8000488281</ele>
        <time>2019-05-30T07:37:30.000Z</time>
      </trkpt>
      <trkpt lat="43.72852" lon="6.6842">
        <ele>1088.5999755859</ele>
        <time>2019-05-30T07:37:31.000Z</time>
      </trkpt>
      <trkpt lat="43.72836" lon="6.68416">
        <ele>1088.8000488281</ele>
        <time>2019-05-30T07:37:33.000Z</time>
      </trkpt>
      <trkpt lat="43.72812" lon="6.68417">
        <ele>1086.5999755859</ele>
        <time>2019-05-30T07:37:36.000Z</time>
      </trkpt>
      <trkpt lat="43.72805" lon="6.6842">
        <ele>1085.1999511719</ele>
        <time>2019-05-30T07:37:37.000Z</time>
      </trkpt>
      <trkpt lat="43.72796" lon="6.68422">
        <ele>1084</ele>
        <time>2019-05-30T07:37:38.000Z</time>
      </trkpt>
      <trkpt lat="43.7278" lon="6.68426">
        <ele>1083.1999511719</ele>
        <time>2019-05-30T07:37:40.000Z</time>
      </trkpt>
      <trkpt lat="43.72773" lon="6.68426">
        <ele>1082.4000244141</ele>
        <time>2019-05-30T07:37:41.000Z</time>
      </trkpt>
      <trkpt lat="43.72757" lon="6.68423">
        <ele>1081.5999755859</ele>
        <time>2019-05-30T07:37:43.000Z</time>
      </trkpt>
      <trkpt lat="43.72749" lon="6.6842">
        <ele>1081</ele>
        <time>2019-05-30T07:37:44.000Z</time>
      </trkpt>
      <trkpt lat="43.72711" lon="6.68404">
        <ele>1080</ele>
        <time>2019-05-30T07:37:49.000Z</time>
      </trkpt>
      <trkpt lat="43.72704" lon="6.684">
        <ele>1079.5999755859</ele>
        <time>2019-05-30T07:37:50.000Z</time>
      </trkpt>
      <trkpt lat="43.72689" lon="6.68394">
        <ele>1079</ele>
        <time>2019-05-30T07:37:52.000Z</time>
      </trkpt>
      <trkpt lat="43.72665" lon="6.68387">
        <ele>1078.1999511719</ele>
        <time>2019-05-30T07:37:55.000Z</time>
      </trkpt>
      <trkpt lat="43.72657" lon="6.68385">
        <ele>1077.8000488281</ele>
        <time>2019-05-30T07:37:56.000Z</time>
      </trkpt>
      <trkpt lat="43.72633" lon="6.68377">
        <ele>1076.5999755859</ele>
        <time>2019-05-30T07:37:59.000Z</time>
      </trkpt>
      <trkpt lat="43.72617" lon="6.68377">
        <ele>1076</ele>
        <time>2019-05-30T07:38:01.000Z</time>
      </trkpt>
      <trkpt lat="43.7261" lon="6.68376">
        <ele>1075.8000488281</ele>
        <time>2019-05-30T07:38:02.000Z</time>
      </trkpt>
      <trkpt lat="43.72595" lon="6.68374">
        <ele>1075.1999511719</ele>
        <time>2019-05-30T07:38:04.000Z</time>
      </trkpt>
      <trkpt lat="43.72581" lon="6.68372">
        <ele>1075.1999511719</ele>
        <time>2019-05-30T07:38:06.000Z</time>
      </trkpt>
      <trkpt lat="43.72559" lon="6.68368">
        <ele>1074.1999511719</ele>
        <time>2019-05-30T07:38:09.000Z</time>
      </trkpt>
      <trkpt lat="43.72546" lon="6.68367">
        <ele>1073.5999755859</ele>
        <time>2019-05-30T07:38:12.000Z</time>
      </trkpt>
      <trkpt lat="43.7254" lon="6.6837">
        <ele>1073</ele>
        <time>2019-05-30T07:38:15.000Z</time>
      </trkpt>
      <trkpt lat="43.72537" lon="6.68373">
        <ele>1073</ele>
        <time>2019-05-30T07:38:16.000Z</time>
      </trkpt>
      <trkpt lat="43.72529" lon="6.6839">
        <ele>1071.5999755859</ele>
        <time>2019-05-30T07:38:19.000Z</time>
      </trkpt>
      <trkpt lat="43.72528" lon="6.68395">
        <ele>1071</ele>
        <time>2019-05-30T07:38:20.000Z</time>
      </trkpt>
      <trkpt lat="43.72528" lon="6.68399">
        <ele>1070.1999511719</ele>
        <time>2019-05-30T07:38:21.000Z</time>
      </trkpt>
      <trkpt lat="43.72531" lon="6.68405">
        <ele>1069.1999511719</ele>
        <time>2019-05-30T07:38:23.000Z</time>
      </trkpt>
      <trkpt lat="43.7254" lon="6.68408">
        <ele>1068.5999755859</ele>
        <time>2019-05-30T07:38:25.000Z</time>
      </trkpt>
      <trkpt lat="43.72545" lon="6.68411">
        <ele>1068.1999511719</ele>
        <time>2019-05-30T07:38:26.000Z</time>
      </trkpt>
      <trkpt lat="43.72557" lon="6.68417">
        <ele>1067.8000488281</ele>
        <time>2019-05-30T07:38:28.000Z</time>
      </trkpt>
      <trkpt lat="43.72571" lon="6.68423">
        <ele>1066.5999755859</ele>
        <time>2019-05-30T07:38:30.000Z</time>
      </trkpt>
      <trkpt lat="43.72581" lon="6.68436">
        <ele>1065.1999511719</ele>
        <time>2019-05-30T07:38:32.000Z</time>
      </trkpt>
      <trkpt lat="43.72585" lon="6.68446">
        <ele>1064.4000244141</ele>
        <time>2019-05-30T07:38:33.000Z</time>
      </trkpt>
      <trkpt lat="43.72589" lon="6.68456">
        <ele>1063.8000488281</ele>
        <time>2019-05-30T07:38:34.000Z</time>
      </trkpt>
      <trkpt lat="43.72593" lon="6.68465">
        <ele>1062.5999755859</ele>
        <time>2019-05-30T07:38:35.000Z</time>
      </trkpt>
      <trkpt lat="43.72596" lon="6.68476">
        <ele>1061.5999755859</ele>
        <time>2019-05-30T07:38:36.000Z</time>
      </trkpt>
      <trkpt lat="43.726" lon="6.68485">
        <ele>1060.1999511719</ele>
        <time>2019-05-30T07:38:37.000Z</time>
      </trkpt>
      <trkpt lat="43.72605" lon="6.68495">
        <ele>1059.4000244141</ele>
        <time>2019-05-30T07:38:38.000Z</time>
      </trkpt>
      <trkpt lat="43.7261" lon="6.68503">
        <ele>1058.5999755859</ele>
        <time>2019-05-30T07:38:39.000Z</time>
      </trkpt>
      <trkpt lat="43.72628" lon="6.68515">
        <ele>1058.1999511719</ele>
        <time>2019-05-30T07:38:42.000Z</time>
      </trkpt>
      <trkpt lat="43.72639" lon="6.68522">
        <ele>1058.1999511719</ele>
        <time>2019-05-30T07:38:44.000Z</time>
      </trkpt>
      <trkpt lat="43.72644" lon="6.68532">
        <ele>1059.1999511719</ele>
        <time>2019-05-30T07:38:46.000Z</time>
      </trkpt>
      <trkpt lat="43.72648" lon="6.68545">
        <ele>1060</ele>
        <time>2019-05-30T07:38:48.000Z</time>
      </trkpt>
      <trkpt lat="43.72649" lon="6.68553">
        <ele>1060.4000244141</ele>
        <time>2019-05-30T07:38:49.000Z</time>
      </trkpt>
      <trkpt lat="43.72649" lon="6.68562">
        <ele>1060.4000244141</ele>
        <time>2019-05-30T07:38:50.000Z</time>
      </trkpt>
      <trkpt lat="43.7264" lon="6.68593">
        <ele>1059.4000244141</ele>
        <time>2019-05-30T07:38:54.000Z</time>
      </trkpt>
      <trkpt lat="43.72637" lon="6.686">
        <ele>1059.1999511719</ele>
        <time>2019-05-30T07:38:55.000Z</time>
      </trkpt>
      <trkpt lat="43.72634" lon="6.68606">
        <ele>1059</ele>
        <time>2019-05-30T07:38:56.000Z</time>
      </trkpt>
      <trkpt lat="43.72621" lon="6.68631">
        <ele>1059.5999755859</ele>
        <time>2019-05-30T07:39:00.000Z</time>
      </trkpt>
      <trkpt lat="43.72617" lon="6.68636">
        <ele>1060</ele>
        <time>2019-05-30T07:39:01.000Z</time>
      </trkpt>
      <trkpt lat="43.72613" lon="6.68641">
        <ele>1060.1999511719</ele>
        <time>2019-05-30T07:39:02.000Z</time>
      </trkpt>
      <trkpt lat="43.726" lon="6.68659">
        <ele>1060.4000244141</ele>
        <time>2019-05-30T07:39:05.000Z</time>
      </trkpt>
      <trkpt lat="43.72594" lon="6.68673">
        <ele>1059.8000488281</ele>
        <time>2019-05-30T07:39:07.000Z</time>
      </trkpt>
      <trkpt lat="43.72586" lon="6.68686">
        <ele>1059.4000244141</ele>
        <time>2019-05-30T07:39:09.000Z</time>
      </trkpt>
      <trkpt lat="43.72578" lon="6.68699">
        <ele>1059.1999511719</ele>
        <time>2019-05-30T07:39:11.000Z</time>
      </trkpt>
      <trkpt lat="43.72575" lon="6.68705">
        <ele>1059.4000244141</ele>
        <time>2019-05-30T07:39:12.000Z</time>
      </trkpt>
      <trkpt lat="43.72548" lon="6.68753">
        <ele>1059.4000244141</ele>
        <time>2019-05-30T07:39:19.000Z</time>
      </trkpt>
      <trkpt lat="43.72544" lon="6.68761">
        <ele>1059.1999511719</ele>
        <time>2019-05-30T07:39:20.000Z</time>
      </trkpt>
      <trkpt lat="43.72519" lon="6.68801">
        <ele>1058</ele>
        <time>2019-05-30T07:39:26.000Z</time>
      </trkpt>
      <trkpt lat="43.72515" lon="6.68807">
        <ele>1057.8000488281</ele>
        <time>2019-05-30T07:39:27.000Z</time>
      </trkpt>
      <trkpt lat="43.72487" lon="6.68851">
        <ele>1057.4000244141</ele>
        <time>2019-05-30T07:39:33.000Z</time>
      </trkpt>
      <trkpt lat="43.72481" lon="6.68858">
        <ele>1057</ele>
        <time>2019-05-30T07:39:34.000Z</time>
      </trkpt>
      <trkpt lat="43.72466" lon="6.68878">
        <ele>1056</ele>
        <time>2019-05-30T07:39:37.000Z</time>
      </trkpt>
      <trkpt lat="43.72451" lon="6.68902">
        <ele>1055</ele>
        <time>2019-05-30T07:39:40.000Z</time>
      </trkpt>
      <trkpt lat="43.72448" lon="6.68911">
        <ele>1054.5999755859</ele>
        <time>2019-05-30T07:39:41.000Z</time>
      </trkpt>
      <trkpt lat="43.72444" lon="6.6892">
        <ele>1054.4000244141</ele>
        <time>2019-05-30T07:39:42.000Z</time>
      </trkpt>
      <trkpt lat="43.72434" lon="6.68935">
        <ele>1053.8000488281</ele>
        <time>2019-05-30T07:39:44.000Z</time>
      </trkpt>
      <trkpt lat="43.72418" lon="6.68955">
        <ele>1053.4000244141</ele>
        <time>2019-05-30T07:39:47.000Z</time>
      </trkpt>
      <trkpt lat="43.72408" lon="6.68972">
        <ele>1052.8000488281</ele>
        <time>2019-05-30T07:39:49.000Z</time>
      </trkpt>
      <trkpt lat="43.72403" lon="6.68979">
        <ele>1052.4000244141</ele>
        <time>2019-05-30T07:39:50.000Z</time>
      </trkpt>
      <trkpt lat="43.7238" lon="6.69004">
        <ele>1052.4000244141</ele>
        <time>2019-05-30T07:39:54.000Z</time>
      </trkpt>
      <trkpt lat="43.72371" lon="6.69018">
        <ele>1052.4000244141</ele>
        <time>2019-05-30T07:39:56.000Z</time>
      </trkpt>
      <trkpt lat="43.72364" lon="6.69034">
        <ele>1052</ele>
        <time>2019-05-30T07:39:58.000Z</time>
      </trkpt>
      <trkpt lat="43.7236" lon="6.69042">
        <ele>1051.5999755859</ele>
        <time>2019-05-30T07:39:59.000Z</time>
      </trkpt>
      <trkpt lat="43.72354" lon="6.69051">
        <ele>1051.4000244141</ele>
        <time>2019-05-30T07:40:00.000Z</time>
      </trkpt>
      <trkpt lat="43.72345" lon="6.69067">
        <ele>1050.5999755859</ele>
        <time>2019-05-30T07:40:02.000Z</time>
      </trkpt>
      <trkpt lat="43.72341" lon="6.69076">
        <ele>1050.1999511719</ele>
        <time>2019-05-30T07:40:03.000Z</time>
      </trkpt>
      <trkpt lat="43.72332" lon="6.69091">
        <ele>1049.8000488281</ele>
        <time>2019-05-30T07:40:05.000Z</time>
      </trkpt>
      <trkpt lat="43.7232" lon="6.691">
        <ele>1049.5999755859</ele>
        <time>2019-05-30T07:40:07.000Z</time>
      </trkpt>
      <trkpt lat="43.72306" lon="6.69108">
        <ele>1049.5999755859</ele>
        <time>2019-05-30T07:40:09.000Z</time>
      </trkpt>
      <trkpt lat="43.72293" lon="6.69116">
        <ele>1049.4000244141</ele>
        <time>2019-05-30T07:40:11.000Z</time>
      </trkpt>
      <trkpt lat="43.72275" lon="6.6912">
        <ele>1049</ele>
        <time>2019-05-30T07:40:13.000Z</time>
      </trkpt>
      <trkpt lat="43.72266" lon="6.6912">
        <ele>1048.4000244141</ele>
        <time>2019-05-30T07:40:14.000Z</time>
      </trkpt>
      <trkpt lat="43.72256" lon="6.6912">
        <ele>1047.8000488281</ele>
        <time>2019-05-30T07:40:15.000Z</time>
      </trkpt>
      <trkpt lat="43.72239" lon="6.69118">
        <ele>1045.4000244141</ele>
        <time>2019-05-30T07:40:17.000Z</time>
      </trkpt>
      <trkpt lat="43.7223" lon="6.69112">
        <ele>1044</ele>
        <time>2019-05-30T07:40:18.000Z</time>
      </trkpt>
      <trkpt lat="43.72218" lon="6.69094">
        <ele>1042.1999511719</ele>
        <time>2019-05-30T07:40:20.000Z</time>
      </trkpt>
      <trkpt lat="43.72212" lon="6.69084">
        <ele>1040.8000488281</ele>
        <time>2019-05-30T07:40:21.000Z</time>
      </trkpt>
      <trkpt lat="43.722" lon="6.69067">
        <ele>1039.4000244141</ele>
        <time>2019-05-30T07:40:23.000Z</time>
      </trkpt>
      <trkpt lat="43.72184" lon="6.69055">
        <ele>1037.5999755859</ele>
        <time>2019-05-30T07:40:25.000Z</time>
      </trkpt>
      <trkpt lat="43.72169" lon="6.6905">
        <ele>1036</ele>
        <time>2019-05-30T07:40:27.000Z</time>
      </trkpt>
      <trkpt lat="43.72159" lon="6.69043">
        <ele>1034.8000488281</ele>
        <time>2019-05-30T07:40:29.000Z</time>
      </trkpt>
      <trkpt lat="43.72154" lon="6.69039">
        <ele>1035.8000488281</ele>
        <time>2019-05-30T07:40:31.000Z</time>
      </trkpt>
      <trkpt lat="43.72152" lon="6.69038">
        <ele>1036.4000244141</ele>
        <time>2019-05-30T07:40:32.000Z</time>
      </trkpt>
      <trkpt lat="43.72147" lon="6.69038">
        <ele>1037.1999511719</ele>
        <time>2019-05-30T07:40:34.000Z</time>
      </trkpt>
      <trkpt lat="43.72139" lon="6.69037">
        <ele>1037</ele>
        <time>2019-05-30T07:40:36.000Z</time>
      </trkpt>
      <trkpt lat="43.72135" lon="6.69037">
        <ele>1036.8000488281</ele>
        <time>2019-05-30T07:40:37.000Z</time>
      </trkpt>
      <trkpt lat="43.72119" lon="6.69034">
        <ele>1036.4000244141</ele>
        <time>2019-05-30T07:40:40.000Z</time>
      </trkpt>
      <trkpt lat="43.72106" lon="6.6902">
        <ele>1036</ele>
        <time>2019-05-30T07:40:43.000Z</time>
      </trkpt>
      <trkpt lat="43.72102" lon="6.69014">
        <ele>1036</ele>
        <time>2019-05-30T07:40:44.000Z</time>
      </trkpt>
      <trkpt lat="43.72098" lon="6.69007">
        <ele>1036.1999511719</ele>
        <time>2019-05-30T07:40:45.000Z</time>
      </trkpt>
      <trkpt lat="43.7209" lon="6.68981">
        <ele>1036.4000244141</ele>
        <time>2019-05-30T07:40:48.000Z</time>
      </trkpt>
      <trkpt lat="43.72081" lon="6.6895">
        <ele>1035.4000244141</ele>
        <time>2019-05-30T07:40:51.000Z</time>
      </trkpt>
      <trkpt lat="43.72077" lon="6.68942">
        <ele>1034.5999755859</ele>
        <time>2019-05-30T07:40:52.000Z</time>
      </trkpt>
      <trkpt lat="43.72067" lon="6.68929">
        <ele>1032.8000488281</ele>
        <time>2019-05-30T07:40:54.000Z</time>
      </trkpt>
      <trkpt lat="43.72061" lon="6.68921">
        <ele>1032.4000244141</ele>
        <time>2019-05-30T07:40:55.000Z</time>
      </trkpt>
      <trkpt lat="43.7203" lon="6.68889">
        <ele>1032.4000244141</ele>
        <time>2019-05-30T07:41:00.000Z</time>
      </trkpt>
      <trkpt lat="43.72022" lon="6.68883">
        <ele>1031.8000488281</ele>
        <time>2019-05-30T07:41:01.000Z</time>
      </trkpt>
      <trkpt lat="43.72005" lon="6.68869">
        <ele>1030.4000244141</ele>
        <time>2019-05-30T07:41:03.000Z</time>
      </trkpt>
      <trkpt lat="43.71997" lon="6.68862">
        <ele>1029.1999511719</ele>
        <time>2019-05-30T07:41:04.000Z</time>
      </trkpt>
      <trkpt lat="43.71989" lon="6.68854">
        <ele>1028</ele>
        <time>2019-05-30T07:41:05.000Z</time>
      </trkpt>
      <trkpt lat="43.71974" lon="6.68839">
        <ele>1026</ele>
        <time>2019-05-30T07:41:07.000Z</time>
      </trkpt>
      <trkpt lat="43.71966" lon="6.68832">
        <ele>1024.5999755859</ele>
        <time>2019-05-30T07:41:08.000Z</time>
      </trkpt>
      <trkpt lat="43.71949" lon="6.68821">
        <ele>1023.4000244141</ele>
        <time>2019-05-30T07:41:10.000Z</time>
      </trkpt>
      <trkpt lat="43.71928" lon="6.68803">
        <ele>1023.5999755859</ele>
        <time>2019-05-30T07:41:13.000Z</time>
      </trkpt>
      <trkpt lat="43.71885" lon="6.68774">
        <ele>1023.799987793</ele>
        <time>2019-05-30T07:41:19.000Z</time>
      </trkpt>
      <trkpt lat="43.71855" lon="6.68758">
        <ele>1022.200012207</ele>
        <time>2019-05-30T07:41:23.000Z</time>
      </trkpt>
      <trkpt lat="43.71841" lon="6.68746">
        <ele>1022.200012207</ele>
        <time>2019-05-30T07:41:25.000Z</time>
      </trkpt>
      <trkpt lat="43.71835" lon="6.6874">
        <ele>1022.200012207</ele>
        <time>2019-05-30T07:41:26.000Z</time>
      </trkpt>
      <trkpt lat="43.71823" lon="6.68733">
        <ele>1022</ele>
        <time>2019-05-30T07:41:28.000Z</time>
      </trkpt>
      <trkpt lat="43.71818" lon="6.68737">
        <ele>1021.4000244141</ele>
        <time>2019-05-30T07:41:29.000Z</time>
      </trkpt>
      <trkpt lat="43.71812" lon="6.68743">
        <ele>1021</ele>
        <time>2019-05-30T07:41:30.000Z</time>
      </trkpt>
      <trkpt lat="43.71799" lon="6.68749">
        <ele>1020.5999755859</ele>
        <time>2019-05-30T07:41:32.000Z</time>
      </trkpt>
      <trkpt lat="43.71778" lon="6.68742">
        <ele>1020</ele>
        <time>2019-05-30T07:41:35.000Z</time>
      </trkpt>
      <trkpt lat="43.71752" lon="6.68738">
        <ele>1019</ele>
        <time>2019-05-30T07:41:39.000Z</time>
      </trkpt>
      <trkpt lat="43.71746" lon="6.68736">
        <ele>1018.799987793</ele>
        <time>2019-05-30T07:41:40.000Z</time>
      </trkpt>
      <trkpt lat="43.71733" lon="6.68728">
        <ele>1018.799987793</ele>
        <time>2019-05-30T07:41:42.000Z</time>
      </trkpt>
      <trkpt lat="43.71725" lon="6.68724">
        <ele>1018.799987793</ele>
        <time>2019-05-30T07:41:43.000Z</time>
      </trkpt>
      <trkpt lat="43.71718" lon="6.6872">
        <ele>1018.799987793</ele>
        <time>2019-05-30T07:41:44.000Z</time>
      </trkpt>
      <trkpt lat="43.71704" lon="6.68719">
        <ele>1018.200012207</ele>
        <time>2019-05-30T07:41:46.000Z</time>
      </trkpt>
      <trkpt lat="43.71698" lon="6.6872">
        <ele>1017.799987793</ele>
        <time>2019-05-30T07:41:47.000Z</time>
      </trkpt>
      <trkpt lat="43.71686" lon="6.68728">
        <ele>1017</ele>
        <time>2019-05-30T07:41:49.000Z</time>
      </trkpt>
      <trkpt lat="43.71677" lon="6.6874">
        <ele>1016.799987793</ele>
        <time>2019-05-30T07:41:51.000Z</time>
      </trkpt>
      <trkpt lat="43.71665" lon="6.68759">
        <ele>1017.5999755859</ele>
        <time>2019-05-30T07:41:54.000Z</time>
      </trkpt>
      <trkpt lat="43.71663" lon="6.68767">
        <ele>1017.799987793</ele>
        <time>2019-05-30T07:41:55.000Z</time>
      </trkpt>
      <trkpt lat="43.71658" lon="6.68779">
        <ele>1018</ele>
        <time>2019-05-30T07:41:57.000Z</time>
      </trkpt>
      <trkpt lat="43.71655" lon="6.68787">
        <ele>1018.200012207</ele>
        <time>2019-05-30T07:41:58.000Z</time>
      </trkpt>
      <trkpt lat="43.71641" lon="6.68811">
        <ele>1019</ele>
        <time>2019-05-30T07:42:02.000Z</time>
      </trkpt>
      <trkpt lat="43.71638" lon="6.68818">
        <ele>1019</ele>
        <time>2019-05-30T07:42:03.000Z</time>
      </trkpt>
      <trkpt lat="43.71636" lon="6.68824">
        <ele>1019</ele>
        <time>2019-05-30T07:42:04.000Z</time>
      </trkpt>
      <trkpt lat="43.71625" lon="6.68851">
        <ele>1019.799987793</ele>
        <time>2019-05-30T07:42:08.000Z</time>
      </trkpt>
      <trkpt lat="43.71622" lon="6.68866">
        <ele>1019.4000244141</ele>
        <time>2019-05-30T07:42:10.000Z</time>
      </trkpt>
      <trkpt lat="43.7162" lon="6.68874">
        <ele>1019</ele>
        <time>2019-05-30T07:42:11.000Z</time>
      </trkpt>
      <trkpt lat="43.71622" lon="6.689">
        <ele>1018.5999755859</ele>
        <time>2019-05-30T07:42:14.000Z</time>
      </trkpt>
      <trkpt lat="43.71623" lon="6.68916">
        <ele>1018.5999755859</ele>
        <time>2019-05-30T07:42:16.000Z</time>
      </trkpt>
      <trkpt lat="43.71621" lon="6.68923">
        <ele>1018.5999755859</ele>
        <time>2019-05-30T07:42:17.000Z</time>
      </trkpt>
      <trkpt lat="43.71619" lon="6.68933">
        <ele>1018.5999755859</ele>
        <time>2019-05-30T07:42:18.000Z</time>
      </trkpt>
      <trkpt lat="43.71605" lon="6.6898">
        <ele>1018.5999755859</ele>
        <time>2019-05-30T07:42:24.000Z</time>
      </trkpt>
      <trkpt lat="43.71602" lon="6.68988">
        <ele>1018.5999755859</ele>
        <time>2019-05-30T07:42:25.000Z</time>
      </trkpt>
      <trkpt lat="43.71594" lon="6.69029">
        <ele>1018.5999755859</ele>
        <time>2019-05-30T07:42:30.000Z</time>
      </trkpt>
      <trkpt lat="43.71585" lon="6.69074">
        <ele>1019.200012207</ele>
        <time>2019-05-30T07:42:36.000Z</time>
      </trkpt>
      <trkpt lat="43.71583" lon="6.6908">
        <ele>1019.200012207</ele>
        <time>2019-05-30T07:42:37.000Z</time>
      </trkpt>
      <trkpt lat="43.71576" lon="6.69106">
        <ele>1019.5999755859</ele>
        <time>2019-05-30T07:42:41.000Z</time>
      </trkpt>
      <trkpt lat="43.71572" lon="6.69121">
        <ele>1020</ele>
        <time>2019-05-30T07:42:43.000Z</time>
      </trkpt>
      <trkpt lat="43.7157" lon="6.69127">
        <ele>1020</ele>
        <time>2019-05-30T07:42:44.000Z</time>
      </trkpt>
      <trkpt lat="43.71567" lon="6.69139">
        <ele>1020</ele>
        <time>2019-05-30T07:42:46.000Z</time>
      </trkpt>
      <trkpt lat="43.71556" lon="6.69167">
        <ele>1020</ele>
        <time>2019-05-30T07:42:50.000Z</time>
      </trkpt>
      <trkpt lat="43.71551" lon="6.69173">
        <ele>1019.799987793</ele>
        <time>2019-05-30T07:42:51.000Z</time>
      </trkpt>
      <trkpt lat="43.71542" lon="6.69181">
        <ele>1019.4000244141</ele>
        <time>2019-05-30T07:42:53.000Z</time>
      </trkpt>
      <trkpt lat="43.71533" lon="6.69188">
        <ele>1019</ele>
        <time>2019-05-30T07:42:55.000Z</time>
      </trkpt>
      <trkpt lat="43.71525" lon="6.69195">
        <ele>1019.200012207</ele>
        <time>2019-05-30T07:42:57.000Z</time>
      </trkpt>
      <trkpt lat="43.71519" lon="6.69206">
        <ele>1019.5999755859</ele>
        <time>2019-05-30T07:42:59.000Z</time>
      </trkpt>
      <trkpt lat="43.71503" lon="6.69237">
        <ele>1020</ele>
        <time>2019-05-30T07:43:04.000Z</time>
      </trkpt>
      <trkpt lat="43.71493" lon="6.69254">
        <ele>1020.200012207</ele>
        <time>2019-05-30T07:43:07.000Z</time>
      </trkpt>
      <trkpt lat="43.71485" lon="6.69266">
        <ele>1020.200012207</ele>
        <time>2019-05-30T07:43:09.000Z</time>
      </trkpt>
      <trkpt lat="43.71475" lon="6.69274">
        <ele>1019.200012207</ele>
        <time>2019-05-30T07:43:11.000Z</time>
      </trkpt>
      <trkpt lat="43.71465" lon="6.69283">
        <ele>1018.799987793</ele>
        <time>2019-05-30T07:43:13.000Z</time>
      </trkpt>
      <trkpt lat="43.71446" lon="6.69299">
        <ele>1017.799987793</ele>
        <time>2019-05-30T07:43:17.000Z</time>
      </trkpt>
      <trkpt lat="43.7144" lon="6.69305">
        <ele>1017.5999755859</ele>
        <time>2019-05-30T07:43:18.000Z</time>
      </trkpt>
      <trkpt lat="43.7143" lon="6.69315">
        <ele>1017.200012207</ele>
        <time>2019-05-30T07:43:20.000Z</time>
      </trkpt>
      <trkpt lat="43.71424" lon="6.69318">
        <ele>1017</ele>
        <time>2019-05-30T07:43:21.000Z</time>
      </trkpt>
      <trkpt lat="43.71412" lon="6.6932">
        <ele>1016.5999755859</ele>
        <time>2019-05-30T07:43:23.000Z</time>
      </trkpt>
      <trkpt lat="43.71391" lon="6.6932">
        <ele>1016</ele>
        <time>2019-05-30T07:43:26.000Z</time>
      </trkpt>
      <trkpt lat="43.71369" lon="6.6932">
        <ele>1015.200012207</ele>
        <time>2019-05-30T07:43:29.000Z</time>
      </trkpt>
      <trkpt lat="43.7136" lon="6.69321">
        <ele>1014.4000244141</ele>
        <time>2019-05-30T07:43:30.000Z</time>
      </trkpt>
      <trkpt lat="43.71354" lon="6.69324">
        <ele>1013.5999755859</ele>
        <time>2019-05-30T07:43:31.000Z</time>
      </trkpt>
      <trkpt lat="43.71351" lon="6.69327">
        <ele>1011.5999755859</ele>
        <time>2019-05-30T07:43:32.000Z</time>
      </trkpt>
      <trkpt lat="43.71348" lon="6.6933">
        <ele>1010.799987793</ele>
        <time>2019-05-30T07:43:33.000Z</time>
      </trkpt>
      <trkpt lat="43.71346" lon="6.69333">
        <ele>1010</ele>
        <time>2019-05-30T07:43:34.000Z</time>
      </trkpt>
      <trkpt lat="43.71335" lon="6.69348">
        <ele>1010.4000244141</ele>
        <time>2019-05-30T07:43:38.000Z</time>
      </trkpt>
      <trkpt lat="43.71322" lon="6.69376">
        <ele>1010.799987793</ele>
        <time>2019-05-30T07:43:44.000Z</time>
      </trkpt>
      <trkpt lat="43.71321" lon="6.69381">
        <ele>1011.200012207</ele>
        <time>2019-05-30T07:43:45.000Z</time>
      </trkpt>
      <trkpt lat="43.71312" lon="6.69407">
        <ele>1012.200012207</ele>
        <time>2019-05-30T07:43:50.000Z</time>
      </trkpt>
      <trkpt lat="43.71306" lon="6.69432">
        <ele>1013.200012207</ele>
        <time>2019-05-30T07:43:54.000Z</time>
      </trkpt>
      <trkpt lat="43.713" lon="6.6945">
        <ele>1013.4000244141</ele>
        <time>2019-05-30T07:43:57.000Z</time>
      </trkpt>
      <trkpt lat="43.71297" lon="6.69455">
        <ele>1013.799987793</ele>
        <time>2019-05-30T07:43:58.000Z</time>
      </trkpt>
      <trkpt lat="43.71285" lon="6.69467">
        <ele>1014</ele>
        <time>2019-05-30T07:44:01.000Z</time>
      </trkpt>
      <trkpt lat="43.71276" lon="6.69475">
        <ele>1014.200012207</ele>
        <time>2019-05-30T07:44:03.000Z</time>
      </trkpt>
      <trkpt lat="43.71262" lon="6.69495">
        <ele>1013.5999755859</ele>
        <time>2019-05-30T07:44:07.000Z</time>
      </trkpt>
      <trkpt lat="43.71258" lon="6.69501">
        <ele>1013.4000244141</ele>
        <time>2019-05-30T07:44:08.000Z</time>
      </trkpt>
      <trkpt lat="43.71256" lon="6.69507">
        <ele>1013.4000244141</ele>
        <time>2019-05-30T07:44:09.000Z</time>
      </trkpt>
      <trkpt lat="43.7125" lon="6.69526">
        <ele>1013.4000244141</ele>
        <time>2019-05-30T07:44:12.000Z</time>
      </trkpt>
      <trkpt lat="43.71241" lon="6.69557">
        <ele>1013.200012207</ele>
        <time>2019-05-30T07:44:16.000Z</time>
      </trkpt>
      <trkpt lat="43.71237" lon="6.69573">
        <ele>1012.5999755859</ele>
        <time>2019-05-30T07:44:18.000Z</time>
      </trkpt>
      <trkpt lat="43.71223" lon="6.69581">
        <ele>1011.799987793</ele>
        <time>2019-05-30T07:44:21.000Z</time>
      </trkpt>
      <trkpt lat="43.71205" lon="6.69577">
        <ele>1011.4000244141</ele>
        <time>2019-05-30T07:44:24.000Z</time>
      </trkpt>
      <trkpt lat="43.71193" lon="6.69575">
        <ele>1011.200012207</ele>
        <time>2019-05-30T07:44:26.000Z</time>
      </trkpt>
      <trkpt lat="43.71187" lon="6.69575">
        <ele>1011</ele>
        <time>2019-05-30T07:44:27.000Z</time>
      </trkpt>
      <trkpt lat="43.7118" lon="6.69576">
        <ele>1010.5999755859</ele>
        <time>2019-05-30T07:44:28.000Z</time>
      </trkpt>
      <trkpt lat="43.71168" lon="6.69579">
        <ele>1010.200012207</ele>
        <time>2019-05-30T07:44:30.000Z</time>
      </trkpt>
      <trkpt lat="43.71117" lon="6.69579">
        <ele>1009.5999755859</ele>
        <time>2019-05-30T07:44:38.000Z</time>
      </trkpt>
      <trkpt lat="43.71104" lon="6.69575">
        <ele>1009.4000244141</ele>
        <time>2019-05-30T07:44:40.000Z</time>
      </trkpt>
      <trkpt lat="43.71098" lon="6.69572">
        <ele>1009</ele>
        <time>2019-05-30T07:44:41.000Z</time>
      </trkpt>
      <trkpt lat="43.71084" lon="6.69565">
        <ele>1008.4000244141</ele>
        <time>2019-05-30T07:44:43.000Z</time>
      </trkpt>
      <trkpt lat="43.71078" lon="6.69561">
        <ele>1008</ele>
        <time>2019-05-30T07:44:44.000Z</time>
      </trkpt>
      <trkpt lat="43.71042" lon="6.69542">
        <ele>1007.5999755859</ele>
        <time>2019-05-30T07:44:50.000Z</time>
      </trkpt>
      <trkpt lat="43.71035" lon="6.69541">
        <ele>1007.5999755859</ele>
        <time>2019-05-30T07:44:51.000Z</time>
      </trkpt>
      <trkpt lat="43.71017" lon="6.69543">
        <ele>1006.799987793</ele>
        <time>2019-05-30T07:44:54.000Z</time>
      </trkpt>
      <trkpt lat="43.71012" lon="6.69554">
        <ele>1006.4000244141</ele>
        <time>2019-05-30T07:44:56.000Z</time>
      </trkpt>
      <trkpt lat="43.71008" lon="6.69577">
        <ele>1006</ele>
        <time>2019-05-30T07:44:59.000Z</time>
      </trkpt>
      <trkpt lat="43.71005" lon="6.69585">
        <ele>1005.799987793</ele>
        <time>2019-05-30T07:45:00.000Z</time>
      </trkpt>
      <trkpt lat="43.70996" lon="6.69596">
        <ele>1005</ele>
        <time>2019-05-30T07:45:02.000Z</time>
      </trkpt>
      <trkpt lat="43.70991" lon="6.69601">
        <ele>1004.799987793</ele>
        <time>2019-05-30T07:45:03.000Z</time>
      </trkpt>
      <trkpt lat="43.70985" lon="6.69606">
        <ele>1004.5999755859</ele>
        <time>2019-05-30T07:45:04.000Z</time>
      </trkpt>
      <trkpt lat="43.70981" lon="6.69611">
        <ele>1004.5999755859</ele>
        <time>2019-05-30T07:45:05.000Z</time>
      </trkpt>
      <trkpt lat="43.70974" lon="6.69625">
        <ele>1004.5999755859</ele>
        <time>2019-05-30T07:45:07.000Z</time>
      </trkpt>
      <trkpt lat="43.70959" lon="6.69682">
        <ele>1004.200012207</ele>
        <time>2019-05-30T07:45:14.000Z</time>
      </trkpt>
      <trkpt lat="43.70958" lon="6.6969">
        <ele>1003.4000244141</ele>
        <time>2019-05-30T07:45:15.000Z</time>
      </trkpt>
      <trkpt lat="43.70954" lon="6.69718">
        <ele>1002.5999755859</ele>
        <time>2019-05-30T07:45:18.000Z</time>
      </trkpt>
      <trkpt lat="43.70953" lon="6.69727">
        <ele>1003</ele>
        <time>2019-05-30T07:45:19.000Z</time>
      </trkpt>
      <trkpt lat="43.7095" lon="6.69771">
        <ele>1002.799987793</ele>
        <time>2019-05-30T07:45:24.000Z</time>
      </trkpt>
      <trkpt lat="43.70949" lon="6.6978">
        <ele>1002.799987793</ele>
        <time>2019-05-30T07:45:25.000Z</time>
      </trkpt>
      <trkpt lat="43.70942" lon="6.69818">
        <ele>1002.799987793</ele>
        <time>2019-05-30T07:45:30.000Z</time>
      </trkpt>
      <trkpt lat="43.70948" lon="6.69841">
        <ele>1003</ele>
        <time>2019-05-30T07:45:34.000Z</time>
      </trkpt>
      <trkpt lat="43.70949" lon="6.69847">
        <ele>1002.799987793</ele>
        <time>2019-05-30T07:45:35.000Z</time>
      </trkpt>
      <trkpt lat="43.70952" lon="6.6987">
        <ele>1004</ele>
        <time>2019-05-30T07:45:40.000Z</time>
      </trkpt>
      <trkpt lat="43.70955" lon="6.69892">
        <ele>1004.4000244141</ele>
        <time>2019-05-30T07:45:45.000Z</time>
      </trkpt>
      <trkpt lat="43.70956" lon="6.69897">
        <ele>1004.5999755859</ele>
        <time>2019-05-30T07:45:46.000Z</time>
      </trkpt>
      <trkpt lat="43.70958" lon="6.69915">
        <ele>1004.5999755859</ele>
        <time>2019-05-30T07:45:50.000Z</time>
      </trkpt>
      <trkpt lat="43.70956" lon="6.69939">
        <ele>1005.4000244141</ele>
        <time>2019-05-30T07:45:55.000Z</time>
      </trkpt>
      <trkpt lat="43.70956" lon="6.69944">
        <ele>1005.5999755859</ele>
        <time>2019-05-30T07:45:56.000Z</time>
      </trkpt>
      <trkpt lat="43.70956" lon="6.69961">
        <ele>1005.4000244141</ele>
        <time>2019-05-30T07:46:00.000Z</time>
      </trkpt>
      <trkpt lat="43.70964" lon="6.69978">
        <ele>1005</ele>
        <time>2019-05-30T07:46:05.000Z</time>
      </trkpt>
      <trkpt lat="43.70978" lon="6.69997">
        <ele>1004.4000244141</ele>
        <time>2019-05-30T07:46:10.000Z</time>
      </trkpt>
      <trkpt lat="43.70981" lon="6.7">
        <ele>1004.4000244141</ele>
        <time>2019-05-30T07:46:11.000Z</time>
      </trkpt>
      <trkpt lat="43.70989" lon="6.70017">
        <ele>1003.4000244141</ele>
        <time>2019-05-30T07:46:15.000Z</time>
      </trkpt>
      <trkpt lat="43.70994" lon="6.70025">
        <ele>1003</ele>
        <time>2019-05-30T07:46:17.000Z</time>
      </trkpt>
      <trkpt lat="43.70997" lon="6.70037">
        <ele>1002.5999755859</ele>
        <time>2019-05-30T07:46:19.000Z</time>
      </trkpt>
      <trkpt lat="43.71" lon="6.70052">
        <ele>1001.799987793</ele>
        <time>2019-05-30T07:46:21.000Z</time>
      </trkpt>
      <trkpt lat="43.71005" lon="6.70065">
        <ele>1001</ele>
        <time>2019-05-30T07:46:23.000Z</time>
      </trkpt>
      <trkpt lat="43.71007" lon="6.70073">
        <ele>1000.200012207</ele>
        <time>2019-05-30T07:46:24.000Z</time>
      </trkpt>
      <trkpt lat="43.71007" lon="6.7008">
        <ele>999.40002441406</ele>
        <time>2019-05-30T07:46:25.000Z</time>
      </trkpt>
      <trkpt lat="43.71008" lon="6.70088">
        <ele>998.20001220703</ele>
        <time>2019-05-30T07:46:26.000Z</time>
      </trkpt>
      <trkpt lat="43.71009" lon="6.70095">
        <ele>997.59997558594</ele>
        <time>2019-05-30T07:46:27.000Z</time>
      </trkpt>
      <trkpt lat="43.71009" lon="6.70102">
        <ele>997.20001220703</ele>
        <time>2019-05-30T07:46:28.000Z</time>
      </trkpt>
      <trkpt lat="43.71011" lon="6.70115">
        <ele>995.40002441406</ele>
        <time>2019-05-30T07:46:30.000Z</time>
      </trkpt>
      <trkpt lat="43.71013" lon="6.70122">
        <ele>994.40002441406</ele>
        <time>2019-05-30T07:46:31.000Z</time>
      </trkpt>
      <trkpt lat="43.71015" lon="6.70128">
        <ele>993.40002441406</ele>
        <time>2019-05-30T07:46:32.000Z</time>
      </trkpt>
      <trkpt lat="43.71017" lon="6.70134">
        <ele>992</ele>
        <time>2019-05-30T07:46:33.000Z</time>
      </trkpt>
      <trkpt lat="43.71019" lon="6.70144">
        <ele>990.59997558594</ele>
        <time>2019-05-30T07:46:35.000Z</time>
      </trkpt>
      <trkpt lat="43.71021" lon="6.7015">
        <ele>989.79998779297</ele>
        <time>2019-05-30T07:46:36.000Z</time>
      </trkpt>
      <trkpt lat="43.71023" lon="6.70157">
        <ele>989.40002441406</ele>
        <time>2019-05-30T07:46:37.000Z</time>
      </trkpt>
      <trkpt lat="43.7103" lon="6.70169">
        <ele>988</ele>
        <time>2019-05-30T07:46:39.000Z</time>
      </trkpt>
      <trkpt lat="43.71033" lon="6.70174">
        <ele>986.59997558594</ele>
        <time>2019-05-30T07:46:40.000Z</time>
      </trkpt>
      <trkpt lat="43.71042" lon="6.70186">
        <ele>985.20001220703</ele>
        <time>2019-05-30T07:46:42.000Z</time>
      </trkpt>
      <trkpt lat="43.71047" lon="6.70192">
        <ele>985</ele>
        <time>2019-05-30T07:46:43.000Z</time>
      </trkpt>
      <trkpt lat="43.71053" lon="6.70197">
        <ele>984.59997558594</ele>
        <time>2019-05-30T07:46:44.000Z</time>
      </trkpt>
      <trkpt lat="43.71059" lon="6.70203">
        <ele>983.40002441406</ele>
        <time>2019-05-30T07:46:45.000Z</time>
      </trkpt>
      <trkpt lat="43.71072" lon="6.70212">
        <ele>982.20001220703</ele>
        <time>2019-05-30T07:46:47.000Z</time>
      </trkpt>
      <trkpt lat="43.71079" lon="6.70218">
        <ele>979.79998779297</ele>
        <time>2019-05-30T07:46:48.000Z</time>
      </trkpt>
      <trkpt lat="43.71084" lon="6.70223">
        <ele>978.40002441406</ele>
        <time>2019-05-30T07:46:49.000Z</time>
      </trkpt>
      <trkpt lat="43.71089" lon="6.70228">
        <ele>977</ele>
        <time>2019-05-30T07:46:50.000Z</time>
      </trkpt>
      <trkpt lat="43.71093" lon="6.70234">
        <ele>975.40002441406</ele>
        <time>2019-05-30T07:46:51.000Z</time>
      </trkpt>
      <trkpt lat="43.71097" lon="6.70238">
        <ele>974.40002441406</ele>
        <time>2019-05-30T07:46:52.000Z</time>
      </trkpt>
      <trkpt lat="43.71108" lon="6.70247">
        <ele>972.79998779297</ele>
        <time>2019-05-30T07:46:54.000Z</time>
      </trkpt>
      <trkpt lat="43.71115" lon="6.70252">
        <ele>971.40002441406</ele>
        <time>2019-05-30T07:46:56.000Z</time>
      </trkpt>
      <trkpt lat="43.71117" lon="6.70254">
        <ele>970.59997558594</ele>
        <time>2019-05-30T07:46:57.000Z</time>
      </trkpt>
      <trkpt lat="43.71121" lon="6.70258">
        <ele>970.20001220703</ele>
        <time>2019-05-30T07:46:59.000Z</time>
      </trkpt>
      <trkpt lat="43.71128" lon="6.70262">
        <ele>969.20001220703</ele>
        <time>2019-05-30T07:47:01.000Z</time>
      </trkpt>
      <trkpt lat="43.71132" lon="6.70264">
        <ele>968.79998779297</ele>
        <time>2019-05-30T07:47:02.000Z</time>
      </trkpt>
      <trkpt lat="43.71138" lon="6.70267">
        <ele>968.20001220703</ele>
        <time>2019-05-30T07:47:03.000Z</time>
      </trkpt>
      <trkpt lat="43.71149" lon="6.70271">
        <ele>967.20001220703</ele>
        <time>2019-05-30T07:47:05.000Z</time>
      </trkpt>
      <trkpt lat="43.71161" lon="6.70277">
        <ele>965.59997558594</ele>
        <time>2019-05-30T07:47:07.000Z</time>
      </trkpt>
      <trkpt lat="43.71172" lon="6.70283">
        <ele>964</ele>
        <time>2019-05-30T07:47:09.000Z</time>
      </trkpt>
      <trkpt lat="43.71177" lon="6.70285">
        <ele>962.40002441406</ele>
        <time>2019-05-30T07:47:11.000Z</time>
      </trkpt>
      <trkpt lat="43.71178" lon="6.70285">
        <ele>961.20001220703</ele>
        <time>2019-05-30T07:47:13.000Z</time>
      </trkpt>
      <trkpt lat="43.71178" lon="6.70285">
        <ele>961</ele>
        <time>2019-05-30T07:47:16.000Z</time>
      </trkpt>
      <trkpt lat="43.71177" lon="6.70284">
        <ele>960.40002441406</ele>
        <time>2019-05-30T07:47:29.000Z</time>
      </trkpt>
      <trkpt lat="43.71177" lon="6.70284">
        <ele>961</ele>
        <time>2019-05-30T07:47:38.000Z</time>
      </trkpt>
      <trkpt lat="43.71177" lon="6.70284">
        <ele>961.40002441406</ele>
        <time>2019-05-30T07:47:48.000Z</time>
      </trkpt>
      <trkpt lat="43.71178" lon="6.70283">
        <ele>961.20001220703</ele>
        <time>2019-05-30T07:47:56.000Z</time>
      </trkpt>
      <trkpt lat="43.71178" lon="6.70283">
        <ele>961.20001220703</ele>
        <time>2019-05-30T07:48:06.000Z</time>
      </trkpt>
      <trkpt lat="43.71178" lon="6.70283">
        <ele>961.79998779297</ele>
        <time>2019-05-30T07:48:19.000Z</time>
      </trkpt>
      <trkpt lat="43.71178" lon="6.70283">
        <ele>961.59997558594</ele>
        <time>2019-05-30T07:48:40.000Z</time>
      </trkpt>
      <trkpt lat="43.71179" lon="6.70283">
        <ele>961.59997558594</ele>
        <time>2019-05-30T07:48:50.000Z</time>
      </trkpt>
      <trkpt lat="43.7118" lon="6.70282">
        <ele>961.79998779297</ele>
        <time>2019-05-30T07:49:04.000Z</time>
      </trkpt>
      <trkpt lat="43.71181" lon="6.70281">
        <ele>961.59997558594</ele>
        <time>2019-05-30T07:49:15.000Z</time>
      </trkpt>
      <trkpt lat="43.71182" lon="6.7028">
        <ele>961.40002441406</ele>
        <time>2019-05-30T07:49:24.000Z</time>
      </trkpt>
      <trkpt lat="43.71181" lon="6.70281">
        <ele>961.40002441406</ele>
        <time>2019-05-30T07:49:34.000Z</time>
      </trkpt>
      <trkpt lat="43.7118" lon="6.70281">
        <ele>961.40002441406</ele>
        <time>2019-05-30T07:49:50.000Z</time>
      </trkpt>
      <trkpt lat="43.71186" lon="6.70284">
        <ele>961.20001220703</ele>
        <time>2019-05-30T07:49:56.000Z</time>
      </trkpt>
      <trkpt lat="43.71202" lon="6.70291">
        <ele>960.20001220703</ele>
        <time>2019-05-30T07:50:01.000Z</time>
      </trkpt>
      <trkpt lat="43.7121" lon="6.70293">
        <ele>959</ele>
        <time>2019-05-30T07:50:03.000Z</time>
      </trkpt>
      <trkpt lat="43.71217" lon="6.70295">
        <ele>957.59997558594</ele>
        <time>2019-05-30T07:50:05.000Z</time>
      </trkpt>
      <trkpt lat="43.71221" lon="6.70297">
        <ele>957</ele>
        <time>2019-05-30T07:50:06.000Z</time>
      </trkpt>
      <trkpt lat="43.71225" lon="6.70298">
        <ele>956.40002441406</ele>
        <time>2019-05-30T07:50:07.000Z</time>
      </trkpt>
      <trkpt lat="43.71233" lon="6.70301">
        <ele>955.40002441406</ele>
        <time>2019-05-30T07:50:09.000Z</time>
      </trkpt>
      <trkpt lat="43.71238" lon="6.70302">
        <ele>954.79998779297</ele>
        <time>2019-05-30T07:50:10.000Z</time>
      </trkpt>
      <trkpt lat="43.71242" lon="6.70303">
        <ele>954</ele>
        <time>2019-05-30T07:50:11.000Z</time>
      </trkpt>
      <trkpt lat="43.71246" lon="6.70304">
        <ele>953.40002441406</ele>
        <time>2019-05-30T07:50:12.000Z</time>
      </trkpt>
      <trkpt lat="43.7125" lon="6.70305">
        <ele>952.59997558594</ele>
        <time>2019-05-30T07:50:13.000Z</time>
      </trkpt>
      <trkpt lat="43.71258" lon="6.70307">
        <ele>951</ele>
        <time>2019-05-30T07:50:15.000Z</time>
      </trkpt>
      <trkpt lat="43.71261" lon="6.70308">
        <ele>949.79998779297</ele>
        <time>2019-05-30T07:50:16.000Z</time>
      </trkpt>
      <trkpt lat="43.71269" lon="6.7031">
        <ele>948.79998779297</ele>
        <time>2019-05-30T07:50:18.000Z</time>
      </trkpt>
      <trkpt lat="43.71274" lon="6.7031">
        <ele>948.20001220703</ele>
        <time>2019-05-30T07:50:19.000Z</time>
      </trkpt>
      <trkpt lat="43.71279" lon="6.7031">
        <ele>947.20001220703</ele>
        <time>2019-05-30T07:50:20.000Z</time>
      </trkpt>
      <trkpt lat="43.71284" lon="6.70309">
        <ele>947</ele>
        <time>2019-05-30T07:50:21.000Z</time>
      </trkpt>
      <trkpt lat="43.71293" lon="6.70307">
        <ele>945.79998779297</ele>
        <time>2019-05-30T07:50:23.000Z</time>
      </trkpt>
      <trkpt lat="43.71303" lon="6.70305">
        <ele>944.40002441406</ele>
        <time>2019-05-30T07:50:25.000Z</time>
      </trkpt>
      <trkpt lat="43.7131" lon="6.70303">
        <ele>943</ele>
        <time>2019-05-30T07:50:27.000Z</time>
      </trkpt>
      <trkpt lat="43.71335" lon="6.70297">
        <ele>941.79998779297</ele>
        <time>2019-05-30T07:50:32.000Z</time>
      </trkpt>
      <trkpt lat="43.71345" lon="6.70293">
        <ele>940.40002441406</ele>
        <time>2019-05-30T07:50:35.000Z</time>
      </trkpt>
      <trkpt lat="43.71347" lon="6.70292">
        <ele>939.79998779297</ele>
        <time>2019-05-30T07:50:36.000Z</time>
      </trkpt>
      <trkpt lat="43.71349" lon="6.70292">
        <ele>938.59997558594</ele>
        <time>2019-05-30T07:50:38.000Z</time>
      </trkpt>
      <trkpt lat="43.71351" lon="6.70293">
        <ele>938.20001220703</ele>
        <time>2019-05-30T07:50:39.000Z</time>
      </trkpt>
      <trkpt lat="43.7135" lon="6.70295">
        <ele>938</ele>
        <time>2019-05-30T07:50:40.000Z</time>
      </trkpt>
      <trkpt lat="43.71349" lon="6.70298">
        <ele>937.59997558594</ele>
        <time>2019-05-30T07:50:41.000Z</time>
      </trkpt>
      <trkpt lat="43.71343" lon="6.70306">
        <ele>937.20001220703</ele>
        <time>2019-05-30T07:50:43.000Z</time>
      </trkpt>
      <trkpt lat="43.71337" lon="6.70314">
        <ele>936.20001220703</ele>
        <time>2019-05-30T07:50:45.000Z</time>
      </trkpt>
      <trkpt lat="43.71332" lon="6.70321">
        <ele>935.40002441406</ele>
        <time>2019-05-30T07:50:47.000Z</time>
      </trkpt>
      <trkpt lat="43.71328" lon="6.70326">
        <ele>934.59997558594</ele>
        <time>2019-05-30T07:50:48.000Z</time>
      </trkpt>
      <trkpt lat="43.7132" lon="6.70331">
        <ele>933.20001220703</ele>
        <time>2019-05-30T07:50:50.000Z</time>
      </trkpt>
      <trkpt lat="43.71315" lon="6.70334">
        <ele>932.20001220703</ele>
        <time>2019-05-30T07:50:52.000Z</time>
      </trkpt>
      <trkpt lat="43.71315" lon="6.70335">
        <ele>931.20001220703</ele>
        <time>2019-05-30T07:50:55.000Z</time>
      </trkpt>
      <trkpt lat="43.71315" lon="6.70335">
        <ele>931</ele>
        <time>2019-05-30T07:50:56.000Z</time>
      </trkpt>
      <trkpt lat="43.71312" lon="6.70339">
        <ele>930.40002441406</ele>
        <time>2019-05-30T07:51:02.000Z</time>
      </trkpt>
      <trkpt lat="43.71311" lon="6.7034">
        <ele>930</ele>
        <time>2019-05-30T07:51:07.000Z</time>
      </trkpt>
      <trkpt lat="43.71307" lon="6.70341">
        <ele>930</ele>
        <time>2019-05-30T07:51:12.000Z</time>
      </trkpt>
      <trkpt lat="43.713" lon="6.70346">
        <ele>929.79998779297</ele>
        <time>2019-05-30T07:51:19.000Z</time>
      </trkpt>
      <trkpt lat="43.71299" lon="6.70349">
        <ele>929.59997558594</ele>
        <time>2019-05-30T07:51:21.000Z</time>
      </trkpt>
      <trkpt lat="43.71301" lon="6.7035">
        <ele>929</ele>
        <time>2019-05-30T07:51:23.000Z</time>
      </trkpt>
      <trkpt lat="43.71303" lon="6.7035">
        <ele>928.79998779297</ele>
        <time>2019-05-30T07:51:24.000Z</time>
      </trkpt>
      <trkpt lat="43.71313" lon="6.70352">
        <ele>928</ele>
        <time>2019-05-30T07:51:27.000Z</time>
      </trkpt>
      <trkpt lat="43.71319" lon="6.70351">
        <ele>927.40002441406</ele>
        <time>2019-05-30T07:51:28.000Z</time>
      </trkpt>
      <trkpt lat="43.71328" lon="6.70347">
        <ele>926.40002441406</ele>
        <time>2019-05-30T07:51:30.000Z</time>
      </trkpt>
      <trkpt lat="43.71331" lon="6.70346">
        <ele>925</ele>
        <time>2019-05-30T07:51:33.000Z</time>
      </trkpt>
      <trkpt lat="43.71332" lon="6.70346">
        <ele>924</ele>
        <time>2019-05-30T07:51:34.000Z</time>
      </trkpt>
      <trkpt lat="43.71333" lon="6.70346">
        <ele>922.79998779297</ele>
        <time>2019-05-30T07:51:36.000Z</time>
      </trkpt>
      <trkpt lat="43.71335" lon="6.70348">
        <ele>922.40002441406</ele>
        <time>2019-05-30T07:51:38.000Z</time>
      </trkpt>
      <trkpt lat="43.7133" lon="6.70354">
        <ele>921.79998779297</ele>
        <time>2019-05-30T07:51:42.000Z</time>
      </trkpt>
      <trkpt lat="43.71328" lon="6.70359">
        <ele>921.59997558594</ele>
        <time>2019-05-30T07:51:43.000Z</time>
      </trkpt>
      <trkpt lat="43.71325" lon="6.7037">
        <ele>920.59997558594</ele>
        <time>2019-05-30T07:51:45.000Z</time>
      </trkpt>
      <trkpt lat="43.71322" lon="6.70375">
        <ele>919.79998779297</ele>
        <time>2019-05-30T07:51:46.000Z</time>
      </trkpt>
      <trkpt lat="43.71319" lon="6.7038">
        <ele>918.79998779297</ele>
        <time>2019-05-30T07:51:47.000Z</time>
      </trkpt>
      <trkpt lat="43.71315" lon="6.70383">
        <ele>917.20001220703</ele>
        <time>2019-05-30T07:51:48.000Z</time>
      </trkpt>
      <trkpt lat="43.71314" lon="6.70388">
        <ele>916</ele>
        <time>2019-05-30T07:51:49.000Z</time>
      </trkpt>
      <trkpt lat="43.7131" lon="6.70393">
        <ele>914.40002441406</ele>
        <time>2019-05-30T07:51:50.000Z</time>
      </trkpt>
      <trkpt lat="43.71309" lon="6.70395">
        <ele>913.79998779297</ele>
        <time>2019-05-30T07:51:51.000Z</time>
      </trkpt>
      <trkpt lat="43.71307" lon="6.70395">
        <ele>912.79998779297</ele>
        <time>2019-05-30T07:51:52.000Z</time>
      </trkpt>
      <trkpt lat="43.71304" lon="6.70399">
        <ele>910.59997558594</ele>
        <time>2019-05-30T07:51:54.000Z</time>
      </trkpt>
      <trkpt lat="43.71296" lon="6.70399">
        <ele>908.59997558594</ele>
        <time>2019-05-30T07:51:56.000Z</time>
      </trkpt>
      <trkpt lat="43.71291" lon="6.704">
        <ele>907.40002441406</ele>
        <time>2019-05-30T07:51:57.000Z</time>
      </trkpt>
      <trkpt lat="43.71287" lon="6.70399">
        <ele>906.20001220703</ele>
        <time>2019-05-30T07:51:58.000Z</time>
      </trkpt>
      <trkpt lat="43.71281" lon="6.704">
        <ele>904.59997558594</ele>
        <time>2019-05-30T07:52:00.000Z</time>
      </trkpt>
      <trkpt lat="43.71278" lon="6.70401">
        <ele>904</ele>
        <time>2019-05-30T07:52:01.000Z</time>
      </trkpt>
      <trkpt lat="43.71275" lon="6.70403">
        <ele>903</ele>
        <time>2019-05-30T07:52:02.000Z</time>
      </trkpt>
      <trkpt lat="43.71273" lon="6.70407">
        <ele>902.59997558594</ele>
        <time>2019-05-30T07:52:03.000Z</time>
      </trkpt>
      <trkpt lat="43.71271" lon="6.70414">
        <ele>901.59997558594</ele>
        <time>2019-05-30T07:52:04.000Z</time>
      </trkpt>
      <trkpt lat="43.71268" lon="6.70417">
        <ele>900.40002441406</ele>
        <time>2019-05-30T07:52:05.000Z</time>
      </trkpt>
      <trkpt lat="43.71265" lon="6.70418">
        <ele>899</ele>
        <time>2019-05-30T07:52:06.000Z</time>
      </trkpt>
      <trkpt lat="43.71263" lon="6.70421">
        <ele>897.59997558594</ele>
        <time>2019-05-30T07:52:07.000Z</time>
      </trkpt>
      <trkpt lat="43.71255" lon="6.70432">
        <ele>895.79998779297</ele>
        <time>2019-05-30T07:52:09.000Z</time>
      </trkpt>
      <trkpt lat="43.71252" lon="6.70435">
        <ele>894.79998779297</ele>
        <time>2019-05-30T07:52:10.000Z</time>
      </trkpt>
      <trkpt lat="43.7125" lon="6.70438">
        <ele>894.20001220703</ele>
        <time>2019-05-30T07:52:11.000Z</time>
      </trkpt>
      <trkpt lat="43.71245" lon="6.70443">
        <ele>892.40002441406</ele>
        <time>2019-05-30T07:52:13.000Z</time>
      </trkpt>
      <trkpt lat="43.71242" lon="6.70445">
        <ele>891.20001220703</ele>
        <time>2019-05-30T07:52:14.000Z</time>
      </trkpt>
      <trkpt lat="43.71239" lon="6.70447">
        <ele>890.40002441406</ele>
        <time>2019-05-30T07:52:15.000Z</time>
      </trkpt>
      <trkpt lat="43.71236" lon="6.70449">
        <ele>890</ele>
        <time>2019-05-30T07:52:16.000Z</time>
      </trkpt>
      <trkpt lat="43.7123" lon="6.70454">
        <ele>888.79998779297</ele>
        <time>2019-05-30T07:52:18.000Z</time>
      </trkpt>
      <trkpt lat="43.71225" lon="6.70459">
        <ele>887.20001220703</ele>
        <time>2019-05-30T07:52:20.000Z</time>
      </trkpt>
      <trkpt lat="43.71214" lon="6.70465">
        <ele>885.59997558594</ele>
        <time>2019-05-30T07:52:23.000Z</time>
      </trkpt>
      <trkpt lat="43.71209" lon="6.70469">
        <ele>884.40002441406</ele>
        <time>2019-05-30T07:52:24.000Z</time>
      </trkpt>
      <trkpt lat="43.71201" lon="6.7047">
        <ele>883.59997558594</ele>
        <time>2019-05-30T07:52:26.000Z</time>
      </trkpt>
      <trkpt lat="43.71198" lon="6.70469">
        <ele>882.40002441406</ele>
        <time>2019-05-30T07:52:27.000Z</time>
      </trkpt>
      <trkpt lat="43.71194" lon="6.70468">
        <ele>881.40002441406</ele>
        <time>2019-05-30T07:52:28.000Z</time>
      </trkpt>
      <trkpt lat="43.7119" lon="6.70473">
        <ele>879.20001220703</ele>
        <time>2019-05-30T07:52:30.000Z</time>
      </trkpt>
      <trkpt lat="43.71191" lon="6.70476">
        <ele>877.79998779297</ele>
        <time>2019-05-30T07:52:31.000Z</time>
      </trkpt>
      <trkpt lat="43.7119" lon="6.70485">
        <ele>876.20001220703</ele>
        <time>2019-05-30T07:52:33.000Z</time>
      </trkpt>
      <trkpt lat="43.71181" lon="6.70482">
        <ele>874.79998779297</ele>
        <time>2019-05-30T07:52:36.000Z</time>
      </trkpt>
      <trkpt lat="43.7117" lon="6.70481">
        <ele>873.40002441406</ele>
        <time>2019-05-30T07:52:39.000Z</time>
      </trkpt>
      <trkpt lat="43.71166" lon="6.70481">
        <ele>872.79998779297</ele>
        <time>2019-05-30T07:52:40.000Z</time>
      </trkpt>
      <trkpt lat="43.71163" lon="6.70482">
        <ele>872.40002441406</ele>
        <time>2019-05-30T07:52:41.000Z</time>
      </trkpt>
      <trkpt lat="43.71157" lon="6.70483">
        <ele>871.20001220703</ele>
        <time>2019-05-30T07:52:43.000Z</time>
      </trkpt>
      <trkpt lat="43.7115" lon="6.70484">
        <ele>869.59997558594</ele>
        <time>2019-05-30T07:52:45.000Z</time>
      </trkpt>
      <trkpt lat="43.71143" lon="6.70483">
        <ele>868</ele>
        <time>2019-05-30T07:52:47.000Z</time>
      </trkpt>
      <trkpt lat="43.71138" lon="6.70482">
        <ele>866.59997558594</ele>
        <time>2019-05-30T07:52:48.000Z</time>
      </trkpt>
      <trkpt lat="43.71137" lon="6.7048">
        <ele>865.79998779297</ele>
        <time>2019-05-30T07:52:49.000Z</time>
      </trkpt>
      <trkpt lat="43.71136" lon="6.70483">
        <ele>865.20001220703</ele>
        <time>2019-05-30T07:52:50.000Z</time>
      </trkpt>
      <trkpt lat="43.71136" lon="6.70489">
        <ele>864.59997558594</ele>
        <time>2019-05-30T07:52:51.000Z</time>
      </trkpt>
      <trkpt lat="43.71137" lon="6.70493">
        <ele>864</ele>
        <time>2019-05-30T07:52:52.000Z</time>
      </trkpt>
      <trkpt lat="43.71144" lon="6.70504">
        <ele>862.40002441406</ele>
        <time>2019-05-30T07:52:55.000Z</time>
      </trkpt>
      <trkpt lat="43.71146" lon="6.70508">
        <ele>861.40002441406</ele>
        <time>2019-05-30T07:52:56.000Z</time>
      </trkpt>
      <trkpt lat="43.71149" lon="6.70511">
        <ele>861.20001220703</ele>
        <time>2019-05-30T07:52:57.000Z</time>
      </trkpt>
      <trkpt lat="43.71152" lon="6.70521">
        <ele>859.79998779297</ele>
        <time>2019-05-30T07:52:59.000Z</time>
      </trkpt>
      <trkpt lat="43.7115" lon="6.70523">
        <ele>859.20001220703</ele>
        <time>2019-05-30T07:53:00.000Z</time>
      </trkpt>
      <trkpt lat="43.71147" lon="6.70524">
        <ele>858.59997558594</ele>
        <time>2019-05-30T07:53:01.000Z</time>
      </trkpt>
      <trkpt lat="43.71137" lon="6.70522">
        <ele>857.59997558594</ele>
        <time>2019-05-30T07:53:03.000Z</time>
      </trkpt>
      <trkpt lat="43.7113" lon="6.70521">
        <ele>856.79998779297</ele>
        <time>2019-05-30T07:53:04.000Z</time>
      </trkpt>
      <trkpt lat="43.71123" lon="6.70521">
        <ele>856.40002441406</ele>
        <time>2019-05-30T07:53:05.000Z</time>
      </trkpt>
      <trkpt lat="43.71115" lon="6.7052">
        <ele>855.59997558594</ele>
        <time>2019-05-30T07:53:06.000Z</time>
      </trkpt>
      <trkpt lat="43.71108" lon="6.7052">
        <ele>854.40002441406</ele>
        <time>2019-05-30T07:53:07.000Z</time>
      </trkpt>
      <trkpt lat="43.71099" lon="6.70517">
        <ele>853.40002441406</ele>
        <time>2019-05-30T07:53:08.000Z</time>
      </trkpt>
      <trkpt lat="43.71091" lon="6.70515">
        <ele>852</ele>
        <time>2019-05-30T07:53:09.000Z</time>
      </trkpt>
      <trkpt lat="43.71082" lon="6.70512">
        <ele>850.59997558594</ele>
        <time>2019-05-30T07:53:10.000Z</time>
      </trkpt>
      <trkpt lat="43.71073" lon="6.70511">
        <ele>849.40002441406</ele>
        <time>2019-05-30T07:53:11.000Z</time>
      </trkpt>
      <trkpt lat="43.71059" lon="6.70513">
        <ele>847.79998779297</ele>
        <time>2019-05-30T07:53:13.000Z</time>
      </trkpt>
      <trkpt lat="43.71051" lon="6.70519">
        <ele>846.59997558594</ele>
        <time>2019-05-30T07:53:15.000Z</time>
      </trkpt>
      <trkpt lat="43.71047" lon="6.7052">
        <ele>846.20001220703</ele>
        <time>2019-05-30T07:53:16.000Z</time>
      </trkpt>
      <trkpt lat="43.71046" lon="6.70521">
        <ele>846.20001220703</ele>
        <time>2019-05-30T07:53:17.000Z</time>
      </trkpt>
      <trkpt lat="43.7104" lon="6.70522">
        <ele>846</ele>
        <time>2019-05-30T07:53:19.000Z</time>
      </trkpt>
      <trkpt lat="43.71024" lon="6.70521">
        <ele>846.79998779297</ele>
        <time>2019-05-30T07:53:23.000Z</time>
      </trkpt>
      <trkpt lat="43.71004" lon="6.70524">
        <ele>846.79998779297</ele>
        <time>2019-05-30T07:53:27.000Z</time>
      </trkpt>
      <trkpt lat="43.70992" lon="6.70528">
        <ele>846.59997558594</ele>
        <time>2019-05-30T07:53:29.000Z</time>
      </trkpt>
      <trkpt lat="43.70979" lon="6.7053">
        <ele>846</ele>
        <time>2019-05-30T07:53:31.000Z</time>
      </trkpt>
      <trkpt lat="43.70972" lon="6.70532">
        <ele>845.40002441406</ele>
        <time>2019-05-30T07:53:32.000Z</time>
      </trkpt>
      <trkpt lat="43.70958" lon="6.70536">
        <ele>844.40002441406</ele>
        <time>2019-05-30T07:53:34.000Z</time>
      </trkpt>
      <trkpt lat="43.70914" lon="6.70555">
        <ele>844.20001220703</ele>
        <time>2019-05-30T07:53:41.000Z</time>
      </trkpt>
      <trkpt lat="43.70887" lon="6.70578">
        <ele>845.20001220703</ele>
        <time>2019-05-30T07:53:46.000Z</time>
      </trkpt>
      <trkpt lat="43.70883" lon="6.70582">
        <ele>845.20001220703</ele>
        <time>2019-05-30T07:53:47.000Z</time>
      </trkpt>
      <trkpt lat="43.70851" lon="6.7061">
        <ele>845</ele>
        <time>2019-05-30T07:53:53.000Z</time>
      </trkpt>
      <trkpt lat="43.70823" lon="6.70628">
        <ele>845.20001220703</ele>
        <time>2019-05-30T07:53:58.000Z</time>
      </trkpt>
      <trkpt lat="43.70818" lon="6.70631">
        <ele>845.40002441406</ele>
        <time>2019-05-30T07:53:59.000Z</time>
      </trkpt>
      <trkpt lat="43.7078" lon="6.70654">
        <ele>846.20001220703</ele>
        <time>2019-05-30T07:54:06.000Z</time>
      </trkpt>
      <trkpt lat="43.70754" lon="6.70661">
        <ele>846.40002441406</ele>
        <time>2019-05-30T07:54:11.000Z</time>
      </trkpt>
      <trkpt lat="43.70743" lon="6.70663">
        <ele>846.40002441406</ele>
        <time>2019-05-30T07:54:13.000Z</time>
      </trkpt>
      <trkpt lat="43.70722" lon="6.70668">
        <ele>847</ele>
        <time>2019-05-30T07:54:17.000Z</time>
      </trkpt>
      <trkpt lat="43.70716" lon="6.70671">
        <ele>847.20001220703</ele>
        <time>2019-05-30T07:54:18.000Z</time>
      </trkpt>
      <trkpt lat="43.70694" lon="6.7068">
        <ele>847.20001220703</ele>
        <time>2019-05-30T07:54:22.000Z</time>
      </trkpt>
      <trkpt lat="43.70674" lon="6.70684">
        <ele>846.79998779297</ele>
        <time>2019-05-30T07:54:25.000Z</time>
      </trkpt>
      <trkpt lat="43.70662" lon="6.70682">
        <ele>846.40002441406</ele>
        <time>2019-05-30T07:54:27.000Z</time>
      </trkpt>
      <trkpt lat="43.70655" lon="6.7068">
        <ele>846.20001220703</ele>
        <time>2019-05-30T07:54:28.000Z</time>
      </trkpt>
      <trkpt lat="43.70626" lon="6.70669">
        <ele>846.59997558594</ele>
        <time>2019-05-30T07:54:33.000Z</time>
      </trkpt>
      <trkpt lat="43.70571" lon="6.70648">
        <ele>847.20001220703</ele>
        <time>2019-05-30T07:54:43.000Z</time>
      </trkpt>
      <trkpt lat="43.70557" lon="6.70641">
        <ele>847.59997558594</ele>
        <time>2019-05-30T07:54:46.000Z</time>
      </trkpt>
      <trkpt lat="43.70554" lon="6.7064">
        <ele>847.79998779297</ele>
        <time>2019-05-30T07:54:47.000Z</time>
      </trkpt>
      <trkpt lat="43.7055" lon="6.7064">
        <ele>848</ele>
        <time>2019-05-30T07:54:48.000Z</time>
      </trkpt>
      <trkpt lat="43.70546" lon="6.70638">
        <ele>848.79998779297</ele>
        <time>2019-05-30T07:54:51.000Z</time>
      </trkpt>
      <trkpt lat="43.70545" lon="6.70637">
        <ele>849.20001220703</ele>
        <time>2019-05-30T07:54:53.000Z</time>
      </trkpt>
      <trkpt lat="43.70543" lon="6.70637">
        <ele>849.79998779297</ele>
        <time>2019-05-30T07:54:55.000Z</time>
      </trkpt>
      <trkpt lat="43.70543" lon="6.70637">
        <ele>850.20001220703</ele>
        <time>2019-05-30T07:54:56.000Z</time>
      </trkpt>
      <trkpt lat="43.70541" lon="6.70635">
        <ele>851</ele>
        <time>2019-05-30T07:54:58.000Z</time>
      </trkpt>
      <trkpt lat="43.7054" lon="6.70634">
        <ele>851.20001220703</ele>
        <time>2019-05-30T07:54:59.000Z</time>
      </trkpt>
      <trkpt lat="43.70539" lon="6.70634">
        <ele>851.59997558594</ele>
        <time>2019-05-30T07:55:01.000Z</time>
      </trkpt>
      <trkpt lat="43.70538" lon="6.70634">
        <ele>852</ele>
        <time>2019-05-30T07:55:06.000Z</time>
      </trkpt>
      <trkpt lat="43.70535" lon="6.70633">
        <ele>852.20001220703</ele>
        <time>2019-05-30T07:55:08.000Z</time>
      </trkpt>
      <trkpt lat="43.7053" lon="6.70631">
        <ele>853</ele>
        <time>2019-05-30T07:55:14.000Z</time>
      </trkpt>
      <trkpt lat="43.70529" lon="6.7063">
        <ele>853</ele>
        <time>2019-05-30T07:55:15.000Z</time>
      </trkpt>
      <trkpt lat="43.70526" lon="6.7063">
        <ele>854</ele>
        <time>2019-05-30T07:55:20.000Z</time>
      </trkpt>
      <trkpt lat="43.70525" lon="6.70629">
        <ele>854.20001220703</ele>
        <time>2019-05-30T07:55:22.000Z</time>
      </trkpt>
      <trkpt lat="43.70523" lon="6.70628">
        <ele>855</ele>
        <time>2019-05-30T07:55:27.000Z</time>
      </trkpt>
      <trkpt lat="43.7052" lon="6.70627">
        <ele>855.20001220703</ele>
        <time>2019-05-30T07:55:31.000Z</time>
      </trkpt>
      <trkpt lat="43.70519" lon="6.70626">
        <ele>855.40002441406</ele>
        <time>2019-05-30T07:55:32.000Z</time>
      </trkpt>
      <trkpt lat="43.70518" lon="6.70626">
        <ele>855.59997558594</ele>
        <time>2019-05-30T07:55:33.000Z</time>
      </trkpt>
      <trkpt lat="43.70516" lon="6.70626">
        <ele>855.59997558594</ele>
        <time>2019-05-30T07:55:34.000Z</time>
      </trkpt>
      <trkpt lat="43.70512" lon="6.70627">
        <ele>856.40002441406</ele>
        <time>2019-05-30T07:55:38.000Z</time>
      </trkpt>
      <trkpt lat="43.7051" lon="6.70627">
        <ele>856.59997558594</ele>
        <time>2019-05-30T07:55:39.000Z</time>
      </trkpt>
      <trkpt lat="43.70507" lon="6.70627">
        <ele>857.40002441406</ele>
        <time>2019-05-30T07:55:43.000Z</time>
      </trkpt>
      <trkpt lat="43.70505" lon="6.70626">
        <ele>857.79998779297</ele>
        <time>2019-05-30T07:55:45.000Z</time>
      </trkpt>
      <trkpt lat="43.70501" lon="6.70624">
        <ele>858.59997558594</ele>
        <time>2019-05-30T07:55:50.000Z</time>
      </trkpt>
      <trkpt lat="43.70499" lon="6.70624">
        <ele>859</ele>
        <time>2019-05-30T07:55:52.000Z</time>
      </trkpt>
      <trkpt lat="43.70494" lon="6.70623">
        <ele>859.79998779297</ele>
        <time>2019-05-30T07:55:56.000Z</time>
      </trkpt>
      <trkpt lat="43.70494" lon="6.70623">
        <ele>859.79998779297</ele>
        <time>2019-05-30T07:55:57.000Z</time>
      </trkpt>
      <trkpt lat="43.70487" lon="6.70622">
        <ele>860.79998779297</ele>
        <time>2019-05-30T07:56:03.000Z</time>
      </trkpt>
      <trkpt lat="43.70486" lon="6.70621">
        <ele>861</ele>
        <time>2019-05-30T07:56:04.000Z</time>
      </trkpt>
      <trkpt lat="43.7048" lon="6.70619">
        <ele>862</ele>
        <time>2019-05-30T07:56:10.000Z</time>
      </trkpt>
      <trkpt lat="43.70479" lon="6.70619">
        <ele>862.20001220703</ele>
        <time>2019-05-30T07:56:11.000Z</time>
      </trkpt>
      <trkpt lat="43.70478" lon="6.70618">
        <ele>862.40002441406</ele>
        <time>2019-05-30T07:56:12.000Z</time>
      </trkpt>
      <trkpt lat="43.70475" lon="6.70616">
        <ele>863</ele>
        <time>2019-05-30T07:56:15.000Z</time>
      </trkpt>
      <trkpt lat="43.70473" lon="6.70615">
        <ele>863.40002441406</ele>
        <time>2019-05-30T07:56:17.000Z</time>
      </trkpt>
      <trkpt lat="43.7047" lon="6.70613">
        <ele>864.20001220703</ele>
        <time>2019-05-30T07:56:22.000Z</time>
      </trkpt>
      <trkpt lat="43.70467" lon="6.70609">
        <ele>864.40002441406</ele>
        <time>2019-05-30T07:56:25.000Z</time>
      </trkpt>
      <trkpt lat="43.70462" lon="6.70603">
        <ele>865.20001220703</ele>
        <time>2019-05-30T07:56:32.000Z</time>
      </trkpt>
      <trkpt lat="43.70461" lon="6.70602">
        <ele>865.20001220703</ele>
        <time>2019-05-30T07:56:33.000Z</time>
      </trkpt>
      <trkpt lat="43.70456" lon="6.70596">
        <ele>865.79998779297</ele>
        <time>2019-05-30T07:56:39.000Z</time>
      </trkpt>
      <trkpt lat="43.70456" lon="6.70595">
        <ele>866.40002441406</ele>
        <time>2019-05-30T07:56:43.000Z</time>
      </trkpt>
      <trkpt lat="43.70455" lon="6.70594">
        <ele>866.40002441406</ele>
        <time>2019-05-30T07:56:47.000Z</time>
      </trkpt>
      <trkpt lat="43.70454" lon="6.70593">
        <ele>866.40002441406</ele>
        <time>2019-05-30T07:57:06.000Z</time>
      </trkpt>
      <trkpt lat="43.70451" lon="6.70591">
        <ele>866.59997558594</ele>
        <time>2019-05-30T07:57:14.000Z</time>
      </trkpt>
      <trkpt lat="43.70444" lon="6.70586">
        <ele>867.20001220703</ele>
        <time>2019-05-30T07:57:21.000Z</time>
      </trkpt>
      <trkpt lat="43.70443" lon="6.70586">
        <ele>867.40002441406</ele>
        <time>2019-05-30T07:57:22.000Z</time>
      </trkpt>
      <trkpt lat="43.70439" lon="6.70584">
        <ele>868</ele>
        <time>2019-05-30T07:57:27.000Z</time>
      </trkpt>
      <trkpt lat="43.70433" lon="6.70583">
        <ele>868.40002441406</ele>
        <time>2019-05-30T07:57:34.000Z</time>
      </trkpt>
      <trkpt lat="43.70428" lon="6.7058">
        <ele>868.79998779297</ele>
        <time>2019-05-30T07:57:39.000Z</time>
      </trkpt>
      <trkpt lat="43.7042" lon="6.70576">
        <ele>869.20001220703</ele>
        <time>2019-05-30T07:57:45.000Z</time>
      </trkpt>
      <trkpt lat="43.70418" lon="6.70575">
        <ele>869.59997558594</ele>
        <time>2019-05-30T07:57:49.000Z</time>
      </trkpt>
      <trkpt lat="43.70417" lon="6.70575">
        <ele>870</ele>
        <time>2019-05-30T07:57:52.000Z</time>
      </trkpt>
      <trkpt lat="43.70415" lon="6.70574">
        <ele>870.20001220703</ele>
        <time>2019-05-30T07:57:58.000Z</time>
      </trkpt>
      <trkpt lat="43.70411" lon="6.70573">
        <ele>870.59997558594</ele>
        <time>2019-05-30T07:58:03.000Z</time>
      </trkpt>
      <trkpt lat="43.70409" lon="6.70571">
        <ele>870.79998779297</ele>
        <time>2019-05-30T07:58:06.000Z</time>
      </trkpt>
      <trkpt lat="43.70409" lon="6.7057">
        <ele>871.40002441406</ele>
        <time>2019-05-30T07:58:12.000Z</time>
      </trkpt>
      <trkpt lat="43.70406" lon="6.70568">
        <ele>871.40002441406</ele>
        <time>2019-05-30T07:58:18.000Z</time>
      </trkpt>
      <trkpt lat="43.70401" lon="6.70567">
        <ele>871.59997558594</ele>
        <time>2019-05-30T07:58:22.000Z</time>
      </trkpt>
      <trkpt lat="43.70397" lon="6.70565">
        <ele>872</ele>
        <time>2019-05-30T07:58:25.000Z</time>
      </trkpt>
      <trkpt lat="43.7039" lon="6.70562">
        <ele>872.79998779297</ele>
        <time>2019-05-30T07:58:31.000Z</time>
      </trkpt>
      <trkpt lat="43.70389" lon="6.70562">
        <ele>873</ele>
        <time>2019-05-30T07:58:32.000Z</time>
      </trkpt>
      <trkpt lat="43.70381" lon="6.70558">
        <ele>873.79998779297</ele>
        <time>2019-05-30T07:58:38.000Z</time>
      </trkpt>
      <trkpt lat="43.7038" lon="6.70558">
        <ele>874</ele>
        <time>2019-05-30T07:58:39.000Z</time>
      </trkpt>
      <trkpt lat="43.70374" lon="6.7056">
        <ele>874.79998779297</ele>
        <time>2019-05-30T07:58:45.000Z</time>
      </trkpt>
      <trkpt lat="43.70373" lon="6.70561">
        <ele>875</ele>
        <time>2019-05-30T07:58:47.000Z</time>
      </trkpt>
      <trkpt lat="43.7037" lon="6.70564">
        <ele>875.79998779297</ele>
        <time>2019-05-30T07:58:53.000Z</time>
      </trkpt>
      <trkpt lat="43.7037" lon="6.70564">
        <ele>876</ele>
        <time>2019-05-30T07:58:54.000Z</time>
      </trkpt>
      <trkpt lat="43.70369" lon="6.70566">
        <ele>876.59997558594</ele>
        <time>2019-05-30T07:58:59.000Z</time>
      </trkpt>
      <trkpt lat="43.70368" lon="6.70568">
        <ele>877.20001220703</ele>
        <time>2019-05-30T07:59:02.000Z</time>
      </trkpt>
      <trkpt lat="43.70367" lon="6.7057">
        <ele>877.79998779297</ele>
        <time>2019-05-30T07:59:06.000Z</time>
      </trkpt>
      <trkpt lat="43.70365" lon="6.70572">
        <ele>878.20001220703</ele>
        <time>2019-05-30T07:59:11.000Z</time>
      </trkpt>
      <trkpt lat="43.70365" lon="6.70573">
        <ele>878.59997558594</ele>
        <time>2019-05-30T07:59:13.000Z</time>
      </trkpt>
      <trkpt lat="43.70364" lon="6.70577">
        <ele>879.20001220703</ele>
        <time>2019-05-30T07:59:18.000Z</time>
      </trkpt>
      <trkpt lat="43.70363" lon="6.70578">
        <ele>879.59997558594</ele>
        <time>2019-05-30T07:59:20.000Z</time>
      </trkpt>
      <trkpt lat="43.7036" lon="6.7058">
        <ele>880.40002441406</ele>
        <time>2019-05-30T07:59:25.000Z</time>
      </trkpt>
      <trkpt lat="43.7036" lon="6.70581">
        <ele>880.59997558594</ele>
        <time>2019-05-30T07:59:26.000Z</time>
      </trkpt>
      <trkpt lat="43.70357" lon="6.70586">
        <ele>881.59997558594</ele>
        <time>2019-05-30T07:59:33.000Z</time>
      </trkpt>
      <trkpt lat="43.70357" lon="6.70585">
        <ele>881.59997558594</ele>
        <time>2019-05-30T07:59:34.000Z</time>
      </trkpt>
      <trkpt lat="43.70355" lon="6.70589">
        <ele>882</ele>
        <time>2019-05-30T07:59:39.000Z</time>
      </trkpt>
      <trkpt lat="43.70353" lon="6.70593">
        <ele>882.59997558594</ele>
        <time>2019-05-30T07:59:43.000Z</time>
      </trkpt>
      <trkpt lat="43.70352" lon="6.70594">
        <ele>883</ele>
        <time>2019-05-30T07:59:45.000Z</time>
      </trkpt>
      <trkpt lat="43.7035" lon="6.70596">
        <ele>883.59997558594</ele>
        <time>2019-05-30T07:59:49.000Z</time>
      </trkpt>
      <trkpt lat="43.7035" lon="6.70599">
        <ele>883.79998779297</ele>
        <time>2019-05-30T07:59:52.000Z</time>
      </trkpt>
      <trkpt lat="43.70348" lon="6.70602">
        <ele>884.59997558594</ele>
        <time>2019-05-30T07:59:57.000Z</time>
      </trkpt>
      <trkpt lat="43.70347" lon="6.70603">
        <ele>884.79998779297</ele>
        <time>2019-05-30T07:59:59.000Z</time>
      </trkpt>
      <trkpt lat="43.70345" lon="6.70609">
        <ele>885.40002441406</ele>
        <time>2019-05-30T08:00:06.000Z</time>
      </trkpt>
      <trkpt lat="43.70344" lon="6.7061">
        <ele>885.79998779297</ele>
        <time>2019-05-30T08:00:08.000Z</time>
      </trkpt>
      <trkpt lat="43.70343" lon="6.70614">
        <ele>886.40002441406</ele>
        <time>2019-05-30T08:00:15.000Z</time>
      </trkpt>
      <trkpt lat="43.70341" lon="6.70619">
        <ele>886.79998779297</ele>
        <time>2019-05-30T08:00:19.000Z</time>
      </trkpt>
      <trkpt lat="43.70341" lon="6.70621">
        <ele>887.20001220703</ele>
        <time>2019-05-30T08:00:22.000Z</time>
      </trkpt>
      <trkpt lat="43.70338" lon="6.70625">
        <ele>888</ele>
        <time>2019-05-30T08:00:26.000Z</time>
      </trkpt>
      <trkpt lat="43.70336" lon="6.70628">
        <ele>888.40002441406</ele>
        <time>2019-05-30T08:00:29.000Z</time>
      </trkpt>
      <trkpt lat="43.70334" lon="6.70631">
        <ele>889</ele>
        <time>2019-05-30T08:00:32.000Z</time>
      </trkpt>
      <trkpt lat="43.70332" lon="6.70637">
        <ele>889.79998779297</ele>
        <time>2019-05-30T08:00:37.000Z</time>
      </trkpt>
      <trkpt lat="43.70331" lon="6.7064">
        <ele>890.20001220703</ele>
        <time>2019-05-30T08:00:39.000Z</time>
      </trkpt>
      <trkpt lat="43.70327" lon="6.70645">
        <ele>891</ele>
        <time>2019-05-30T08:00:44.000Z</time>
      </trkpt>
      <trkpt lat="43.70327" lon="6.70646">
        <ele>891.20001220703</ele>
        <time>2019-05-30T08:00:45.000Z</time>
      </trkpt>
      <trkpt lat="43.70323" lon="6.7065">
        <ele>892.20001220703</ele>
        <time>2019-05-30T08:00:50.000Z</time>
      </trkpt>
      <trkpt lat="43.70322" lon="6.70651">
        <ele>892.20001220703</ele>
        <time>2019-05-30T08:00:51.000Z</time>
      </trkpt>
      <trkpt lat="43.70318" lon="6.70658">
        <ele>893.40002441406</ele>
        <time>2019-05-30T08:00:58.000Z</time>
      </trkpt>
      <trkpt lat="43.70315" lon="6.70662">
        <ele>894.59997558594</ele>
        <time>2019-05-30T08:01:05.000Z</time>
      </trkpt>
      <trkpt lat="43.70314" lon="6.70663">
        <ele>894.59997558594</ele>
        <time>2019-05-30T08:01:06.000Z</time>
      </trkpt>
      <trkpt lat="43.70308" lon="6.70667">
        <ele>895.40002441406</ele>
        <time>2019-05-30T08:01:13.000Z</time>
      </trkpt>
      <trkpt lat="43.70307" lon="6.70667">
        <ele>895.59997558594</ele>
        <time>2019-05-30T08:01:14.000Z</time>
      </trkpt>
      <trkpt lat="43.70304" lon="6.70668">
        <ele>896.59997558594</ele>
        <time>2019-05-30T08:01:19.000Z</time>
      </trkpt>
      <trkpt lat="43.70303" lon="6.70668">
        <ele>896.79998779297</ele>
        <time>2019-05-30T08:01:20.000Z</time>
      </trkpt>
      <trkpt lat="43.703" lon="6.70669">
        <ele>897.40002441406</ele>
        <time>2019-05-30T08:01:24.000Z</time>
      </trkpt>
      <trkpt lat="43.70299" lon="6.7067">
        <ele>897.59997558594</ele>
        <time>2019-05-30T08:01:26.000Z</time>
      </trkpt>
      <trkpt lat="43.70298" lon="6.70669">
        <ele>897.79998779297</ele>
        <time>2019-05-30T08:01:27.000Z</time>
      </trkpt>
      <trkpt lat="43.70294" lon="6.7067">
        <ele>898.79998779297</ele>
        <time>2019-05-30T08:01:32.000Z</time>
      </trkpt>
      <trkpt lat="43.70293" lon="6.7067">
        <ele>898.79998779297</ele>
        <time>2019-05-30T08:01:34.000Z</time>
      </trkpt>
      <trkpt lat="43.70289" lon="6.70669">
        <ele>899.59997558594</ele>
        <time>2019-05-30T08:01:40.000Z</time>
      </trkpt>
      <trkpt lat="43.70288" lon="6.7067">
        <ele>899.79998779297</ele>
        <time>2019-05-30T08:01:42.000Z</time>
      </trkpt>
      <trkpt lat="43.70285" lon="6.70671">
        <ele>900.79998779297</ele>
        <time>2019-05-30T08:01:48.000Z</time>
      </trkpt>
      <trkpt lat="43.70283" lon="6.7067">
        <ele>901.59997558594</ele>
        <time>2019-05-30T08:01:56.000Z</time>
      </trkpt>
      <trkpt lat="43.70279" lon="6.70669">
        <ele>901.59997558594</ele>
        <time>2019-05-30T08:02:06.000Z</time>
      </trkpt>
      <trkpt lat="43.70277" lon="6.70667">
        <ele>901.79998779297</ele>
        <time>2019-05-30T08:02:09.000Z</time>
      </trkpt>
      <trkpt lat="43.70276" lon="6.70666">
        <ele>902.40002441406</ele>
        <time>2019-05-30T08:02:13.000Z</time>
      </trkpt>
      <trkpt lat="43.70273" lon="6.70663">
        <ele>903</ele>
        <time>2019-05-30T08:02:17.000Z</time>
      </trkpt>
      <trkpt lat="43.70272" lon="6.70662">
        <ele>903</ele>
        <time>2019-05-30T08:02:18.000Z</time>
      </trkpt>
      <trkpt lat="43.70266" lon="6.70658">
        <ele>904</ele>
        <time>2019-05-30T08:02:25.000Z</time>
      </trkpt>
      <trkpt lat="43.70259" lon="6.70654">
        <ele>905</ele>
        <time>2019-05-30T08:02:32.000Z</time>
      </trkpt>
      <trkpt lat="43.70251" lon="6.70653">
        <ele>906</ele>
        <time>2019-05-30T08:02:39.000Z</time>
      </trkpt>
      <trkpt lat="43.70247" lon="6.70654">
        <ele>906</ele>
        <time>2019-05-30T08:02:43.000Z</time>
      </trkpt>
      <trkpt lat="43.70244" lon="6.70653">
        <ele>906.40002441406</ele>
        <time>2019-05-30T08:02:46.000Z</time>
      </trkpt>
      <trkpt lat="43.70236" lon="6.70654">
        <ele>907.20001220703</ele>
        <time>2019-05-30T08:02:54.000Z</time>
      </trkpt>
      <trkpt lat="43.70232" lon="6.70655">
        <ele>907.79998779297</ele>
        <time>2019-05-30T08:03:00.000Z</time>
      </trkpt>
      <trkpt lat="43.70226" lon="6.70655">
        <ele>908</ele>
        <time>2019-05-30T08:03:07.000Z</time>
      </trkpt>
      <trkpt lat="43.7022" lon="6.7066">
        <ele>907.59997558594</ele>
        <time>2019-05-30T08:03:11.000Z</time>
      </trkpt>
      <trkpt lat="43.70211" lon="6.70674">
        <ele>907.59997558594</ele>
        <time>2019-05-30T08:03:16.000Z</time>
      </trkpt>
      <trkpt lat="43.70205" lon="6.70689">
        <ele>907.40002441406</ele>
        <time>2019-05-30T08:03:20.000Z</time>
      </trkpt>
      <trkpt lat="43.70196" lon="6.70707">
        <ele>907.20001220703</ele>
        <time>2019-05-30T08:03:26.000Z</time>
      </trkpt>
      <trkpt lat="43.70191" lon="6.70722">
        <ele>906.59997558594</ele>
        <time>2019-05-30T08:03:30.000Z</time>
      </trkpt>
      <trkpt lat="43.70184" lon="6.70735">
        <ele>906</ele>
        <time>2019-05-30T08:03:34.000Z</time>
      </trkpt>
      <trkpt lat="43.70183" lon="6.70736">
        <ele>905.79998779297</ele>
        <time>2019-05-30T08:03:35.000Z</time>
      </trkpt>
      <trkpt lat="43.70177" lon="6.70755">
        <ele>905.79998779297</ele>
        <time>2019-05-30T08:03:40.000Z</time>
      </trkpt>
      <trkpt lat="43.70169" lon="6.70765">
        <ele>905.79998779297</ele>
        <time>2019-05-30T08:03:45.000Z</time>
      </trkpt>
      <trkpt lat="43.7016" lon="6.70778">
        <ele>905.40002441406</ele>
        <time>2019-05-30T08:03:50.000Z</time>
      </trkpt>
      <trkpt lat="43.70155" lon="6.70786">
        <ele>905</ele>
        <time>2019-05-30T08:03:53.000Z</time>
      </trkpt>
      <trkpt lat="43.70152" lon="6.70792">
        <ele>904.59997558594</ele>
        <time>2019-05-30T08:03:55.000Z</time>
      </trkpt>
      <trkpt lat="43.7014" lon="6.708">
        <ele>904.20001220703</ele>
        <time>2019-05-30T08:04:00.000Z</time>
      </trkpt>
      <trkpt lat="43.7012" lon="6.70815">
        <ele>904</ele>
        <time>2019-05-30T08:04:08.000Z</time>
      </trkpt>
      <trkpt lat="43.70115" lon="6.7082">
        <ele>903.79998779297</ele>
        <time>2019-05-30T08:04:11.000Z</time>
      </trkpt>
      <trkpt lat="43.70113" lon="6.70822">
        <ele>904</ele>
        <time>2019-05-30T08:04:13.000Z</time>
      </trkpt>
      <trkpt lat="43.70106" lon="6.7083">
        <ele>904.20001220703</ele>
        <time>2019-05-30T08:04:18.000Z</time>
      </trkpt>
      <trkpt lat="43.70094" lon="6.70843">
        <ele>904.59997558594</ele>
        <time>2019-05-30T08:04:25.000Z</time>
      </trkpt>
      <trkpt lat="43.70086" lon="6.7085">
        <ele>904.59997558594</ele>
        <time>2019-05-30T08:04:30.000Z</time>
      </trkpt>
      <trkpt lat="43.70077" lon="6.70863">
        <ele>904.59997558594</ele>
        <time>2019-05-30T08:04:36.000Z</time>
      </trkpt>
      <trkpt lat="43.70066" lon="6.70877">
        <ele>905</ele>
        <time>2019-05-30T08:04:42.000Z</time>
      </trkpt>
      <trkpt lat="43.70054" lon="6.70891">
        <ele>905.40002441406</ele>
        <time>2019-05-30T08:04:48.000Z</time>
      </trkpt>
      <trkpt lat="43.70049" lon="6.70894">
        <ele>906</ele>
        <time>2019-05-30T08:04:51.000Z</time>
      </trkpt>
      <trkpt lat="43.70044" lon="6.70896">
        <ele>906.59997558594</ele>
        <time>2019-05-30T08:04:55.000Z</time>
      </trkpt>
      <trkpt lat="43.70038" lon="6.709">
        <ele>907.20001220703</ele>
        <time>2019-05-30T08:04:59.000Z</time>
      </trkpt>
      <trkpt lat="43.70038" lon="6.709">
        <ele>907.40002441406</ele>
        <time>2019-05-30T08:05:01.000Z</time>
      </trkpt>
      <trkpt lat="43.70034" lon="6.70903">
        <ele>908</ele>
        <time>2019-05-30T08:05:10.000Z</time>
      </trkpt>
      <trkpt lat="43.70028" lon="6.70907">
        <ele>908.20001220703</ele>
        <time>2019-05-30T08:05:14.000Z</time>
      </trkpt>
      <trkpt lat="43.70025" lon="6.70909">
        <ele>908.20001220703</ele>
        <time>2019-05-30T08:05:16.000Z</time>
      </trkpt>
      <trkpt lat="43.70016" lon="6.70915">
        <ele>909.20001220703</ele>
        <time>2019-05-30T08:05:21.000Z</time>
      </trkpt>
      <trkpt lat="43.70013" lon="6.70918">
        <ele>909.59997558594</ele>
        <time>2019-05-30T08:05:23.000Z</time>
      </trkpt>
      <trkpt lat="43.70004" lon="6.70925">
        <ele>910.40002441406</ele>
        <time>2019-05-30T08:05:29.000Z</time>
      </trkpt>
      <trkpt lat="43.7" lon="6.70928">
        <ele>910.40002441406</ele>
        <time>2019-05-30T08:05:31.000Z</time>
      </trkpt>
      <trkpt lat="43.69991" lon="6.70933">
        <ele>910.79998779297</ele>
        <time>2019-05-30T08:05:37.000Z</time>
      </trkpt>
      <trkpt lat="43.69982" lon="6.70941">
        <ele>911.40002441406</ele>
        <time>2019-05-30T08:05:44.000Z</time>
      </trkpt>
      <trkpt lat="43.69972" lon="6.70951">
        <ele>912</ele>
        <time>2019-05-30T08:05:51.000Z</time>
      </trkpt>
      <trkpt lat="43.69965" lon="6.7096">
        <ele>912.40002441406</ele>
        <time>2019-05-30T08:05:56.000Z</time>
      </trkpt>
      <trkpt lat="43.69962" lon="6.70964">
        <ele>912.59997558594</ele>
        <time>2019-05-30T08:05:59.000Z</time>
      </trkpt>
      <trkpt lat="43.69956" lon="6.70973">
        <ele>913.40002441406</ele>
        <time>2019-05-30T08:06:04.000Z</time>
      </trkpt>
      <trkpt lat="43.69953" lon="6.70976">
        <ele>913.59997558594</ele>
        <time>2019-05-30T08:06:06.000Z</time>
      </trkpt>
      <trkpt lat="43.69945" lon="6.70989">
        <ele>914</ele>
        <time>2019-05-30T08:06:13.000Z</time>
      </trkpt>
      <trkpt lat="43.69936" lon="6.70998">
        <ele>914.40002441406</ele>
        <time>2019-05-30T08:06:18.000Z</time>
      </trkpt>
      <trkpt lat="43.69934" lon="6.71">
        <ele>914.40002441406</ele>
        <time>2019-05-30T08:06:19.000Z</time>
      </trkpt>
      <trkpt lat="43.69926" lon="6.71013">
        <ele>914.59997558594</ele>
        <time>2019-05-30T08:06:25.000Z</time>
      </trkpt>
      <trkpt lat="43.69918" lon="6.71026">
        <ele>915.20001220703</ele>
        <time>2019-05-30T08:06:32.000Z</time>
      </trkpt>
      <trkpt lat="43.69904" lon="6.71042">
        <ele>915.20001220703</ele>
        <time>2019-05-30T08:06:39.000Z</time>
      </trkpt>
      <trkpt lat="43.69894" lon="6.71057">
        <ele>915.59997558594</ele>
        <time>2019-05-30T08:06:44.000Z</time>
      </trkpt>
      <trkpt lat="43.69891" lon="6.71063">
        <ele>915.40002441406</ele>
        <time>2019-05-30T08:06:46.000Z</time>
      </trkpt>
      <trkpt lat="43.69878" lon="6.71084">
        <ele>915.79998779297</ele>
        <time>2019-05-30T08:06:52.000Z</time>
      </trkpt>
      <trkpt lat="43.69874" lon="6.71088">
        <ele>915.79998779297</ele>
        <time>2019-05-30T08:06:53.000Z</time>
      </trkpt>
      <trkpt lat="43.69865" lon="6.71095">
        <ele>914.40002441406</ele>
        <time>2019-05-30T08:06:55.000Z</time>
      </trkpt>
      <trkpt lat="43.6986" lon="6.71097">
        <ele>913.79998779297</ele>
        <time>2019-05-30T08:06:56.000Z</time>
      </trkpt>
      <trkpt lat="43.69855" lon="6.71097">
        <ele>913</ele>
        <time>2019-05-30T08:06:57.000Z</time>
      </trkpt>
      <trkpt lat="43.69836" lon="6.71091">
        <ele>913.20001220703</ele>
        <time>2019-05-30T08:07:00.000Z</time>
      </trkpt>
      <trkpt lat="43.6981" lon="6.71084">
        <ele>911.59997558594</ele>
        <time>2019-05-30T08:07:04.000Z</time>
      </trkpt>
      <trkpt lat="43.69796" lon="6.71082">
        <ele>910.20001220703</ele>
        <time>2019-05-30T08:07:06.000Z</time>
      </trkpt>
      <trkpt lat="43.6979" lon="6.71082">
        <ele>909.59997558594</ele>
        <time>2019-05-30T08:07:07.000Z</time>
      </trkpt>
      <trkpt lat="43.69775" lon="6.71082">
        <ele>909</ele>
        <time>2019-05-30T08:07:09.000Z</time>
      </trkpt>
      <trkpt lat="43.69768" lon="6.71081">
        <ele>907.59997558594</ele>
        <time>2019-05-30T08:07:10.000Z</time>
      </trkpt>
      <trkpt lat="43.69747" lon="6.71082">
        <ele>906.40002441406</ele>
        <time>2019-05-30T08:07:13.000Z</time>
      </trkpt>
      <trkpt lat="43.6974" lon="6.71082">
        <ele>905.59997558594</ele>
        <time>2019-05-30T08:07:14.000Z</time>
      </trkpt>
      <trkpt lat="43.69712" lon="6.71083">
        <ele>905</ele>
        <time>2019-05-30T08:07:18.000Z</time>
      </trkpt>
      <trkpt lat="43.69701" lon="6.71087">
        <ele>904.40002441406</ele>
        <time>2019-05-30T08:07:20.000Z</time>
      </trkpt>
      <trkpt lat="43.69691" lon="6.71092">
        <ele>903.40002441406</ele>
        <time>2019-05-30T08:07:21.000Z</time>
      </trkpt>
      <trkpt lat="43.69678" lon="6.71096">
        <ele>901.40002441406</ele>
        <time>2019-05-30T08:07:23.000Z</time>
      </trkpt>
      <trkpt lat="43.69665" lon="6.711">
        <ele>900</ele>
        <time>2019-05-30T08:07:25.000Z</time>
      </trkpt>
      <trkpt lat="43.69619" lon="6.71121">
        <ele>898.59997558594</ele>
        <time>2019-05-30T08:07:32.000Z</time>
      </trkpt>
      <trkpt lat="43.69604" lon="6.71124">
        <ele>897.59997558594</ele>
        <time>2019-05-30T08:07:34.000Z</time>
      </trkpt>
      <trkpt lat="43.69598" lon="6.71122">
        <ele>897.20001220703</ele>
        <time>2019-05-30T08:07:35.000Z</time>
      </trkpt>
      <trkpt lat="43.69591" lon="6.71118">
        <ele>896.79998779297</ele>
        <time>2019-05-30T08:07:36.000Z</time>
      </trkpt>
      <trkpt lat="43.69579" lon="6.71113">
        <ele>896.40002441406</ele>
        <time>2019-05-30T08:07:38.000Z</time>
      </trkpt>
      <trkpt lat="43.69566" lon="6.71111">
        <ele>896</ele>
        <time>2019-05-30T08:07:40.000Z</time>
      </trkpt>
      <trkpt lat="43.69561" lon="6.7111">
        <ele>896.20001220703</ele>
        <time>2019-05-30T08:07:41.000Z</time>
      </trkpt>
      <trkpt lat="43.69549" lon="6.71109">
        <ele>897.40002441406</ele>
        <time>2019-05-30T08:07:43.000Z</time>
      </trkpt>
      <trkpt lat="43.69531" lon="6.71107">
        <ele>898.59997558594</ele>
        <time>2019-05-30T08:07:46.000Z</time>
      </trkpt>
      <trkpt lat="43.69526" lon="6.71105">
        <ele>898.59997558594</ele>
        <time>2019-05-30T08:07:47.000Z</time>
      </trkpt>
      <trkpt lat="43.69496" lon="6.71092">
        <ele>898.20001220703</ele>
        <time>2019-05-30T08:07:52.000Z</time>
      </trkpt>
      <trkpt lat="43.69483" lon="6.71086">
        <ele>897.79998779297</ele>
        <time>2019-05-30T08:07:54.000Z</time>
      </trkpt>
      <trkpt lat="43.69463" lon="6.71094">
        <ele>897.79998779297</ele>
        <time>2019-05-30T08:07:57.000Z</time>
      </trkpt>
      <trkpt lat="43.69457" lon="6.71105">
        <ele>897.20001220703</ele>
        <time>2019-05-30T08:07:59.000Z</time>
      </trkpt>
      <trkpt lat="43.69456" lon="6.71112">
        <ele>896.59997558594</ele>
        <time>2019-05-30T08:08:00.000Z</time>
      </trkpt>
      <trkpt lat="43.69451" lon="6.7112">
        <ele>895.59997558594</ele>
        <time>2019-05-30T08:08:02.000Z</time>
      </trkpt>
      <trkpt lat="43.69448" lon="6.71122">
        <ele>895.20001220703</ele>
        <time>2019-05-30T08:08:03.000Z</time>
      </trkpt>
      <trkpt lat="43.69441" lon="6.71113">
        <ele>894.79998779297</ele>
        <time>2019-05-30T08:08:06.000Z</time>
      </trkpt>
      <trkpt lat="43.69437" lon="6.71107">
        <ele>894</ele>
        <time>2019-05-30T08:08:07.000Z</time>
      </trkpt>
      <trkpt lat="43.69427" lon="6.71092">
        <ele>892.40002441406</ele>
        <time>2019-05-30T08:08:10.000Z</time>
      </trkpt>
      <trkpt lat="43.69425" lon="6.71087">
        <ele>891.79998779297</ele>
        <time>2019-05-30T08:08:11.000Z</time>
      </trkpt>
      <trkpt lat="43.69423" lon="6.71081">
        <ele>891</ele>
        <time>2019-05-30T08:08:12.000Z</time>
      </trkpt>
      <trkpt lat="43.69421" lon="6.71067">
        <ele>890.20001220703</ele>
        <time>2019-05-30T08:08:15.000Z</time>
      </trkpt>
      <trkpt lat="43.69419" lon="6.71066">
        <ele>889.40002441406</ele>
        <time>2019-05-30T08:08:16.000Z</time>
      </trkpt>
      <trkpt lat="43.69416" lon="6.71068">
        <ele>889</ele>
        <time>2019-05-30T08:08:18.000Z</time>
      </trkpt>
      <trkpt lat="43.69413" lon="6.71072">
        <ele>888.20001220703</ele>
        <time>2019-05-30T08:08:19.000Z</time>
      </trkpt>
      <trkpt lat="43.69407" lon="6.71077">
        <ele>886.79998779297</ele>
        <time>2019-05-30T08:08:22.000Z</time>
      </trkpt>
      <trkpt lat="43.694" lon="6.71081">
        <ele>885.59997558594</ele>
        <time>2019-05-30T08:08:24.000Z</time>
      </trkpt>
      <trkpt lat="43.69397" lon="6.71087">
        <ele>884.40002441406</ele>
        <time>2019-05-30T08:08:26.000Z</time>
      </trkpt>
      <trkpt lat="43.69393" lon="6.7109">
        <ele>883.40002441406</ele>
        <time>2019-05-30T08:08:28.000Z</time>
      </trkpt>
      <trkpt lat="43.69389" lon="6.71094">
        <ele>881.40002441406</ele>
        <time>2019-05-30T08:08:30.000Z</time>
      </trkpt>
      <trkpt lat="43.69387" lon="6.71097">
        <ele>880.20001220703</ele>
        <time>2019-05-30T08:08:31.000Z</time>
      </trkpt>
      <trkpt lat="43.69384" lon="6.71098">
        <ele>879.59997558594</ele>
        <time>2019-05-30T08:08:32.000Z</time>
      </trkpt>
      <trkpt lat="43.69381" lon="6.711">
        <ele>878.79998779297</ele>
        <time>2019-05-30T08:08:33.000Z</time>
      </trkpt>
      <trkpt lat="43.69378" lon="6.71104">
        <ele>877.20001220703</ele>
        <time>2019-05-30T08:08:35.000Z</time>
      </trkpt>
      <trkpt lat="43.69374" lon="6.7111">
        <ele>875.59997558594</ele>
        <time>2019-05-30T08:08:37.000Z</time>
      </trkpt>
      <trkpt lat="43.69371" lon="6.71115">
        <ele>875</ele>
        <time>2019-05-30T08:08:38.000Z</time>
      </trkpt>
      <trkpt lat="43.69368" lon="6.7112">
        <ele>874.59997558594</ele>
        <time>2019-05-30T08:08:39.000Z</time>
      </trkpt>
      <trkpt lat="43.69365" lon="6.71126">
        <ele>873.59997558594</ele>
        <time>2019-05-30T08:08:40.000Z</time>
      </trkpt>
      <trkpt lat="43.69362" lon="6.71132">
        <ele>873.20001220703</ele>
        <time>2019-05-30T08:08:41.000Z</time>
      </trkpt>
      <trkpt lat="43.69356" lon="6.71144">
        <ele>871.40002441406</ele>
        <time>2019-05-30T08:08:43.000Z</time>
      </trkpt>
      <trkpt lat="43.69357" lon="6.71148">
        <ele>870.40002441406</ele>
        <time>2019-05-30T08:08:44.000Z</time>
      </trkpt>
      <trkpt lat="43.69368" lon="6.71164">
        <ele>870</ele>
        <time>2019-05-30T08:08:47.000Z</time>
      </trkpt>
      <trkpt lat="43.69374" lon="6.71171">
        <ele>868.79998779297</ele>
        <time>2019-05-30T08:08:48.000Z</time>
      </trkpt>
      <trkpt lat="43.69381" lon="6.71175">
        <ele>868.59997558594</ele>
        <time>2019-05-30T08:08:49.000Z</time>
      </trkpt>
      <trkpt lat="43.69396" lon="6.71182">
        <ele>867.20001220703</ele>
        <time>2019-05-30T08:08:51.000Z</time>
      </trkpt>
      <trkpt lat="43.694" lon="6.71185">
        <ele>866.40002441406</ele>
        <time>2019-05-30T08:08:52.000Z</time>
      </trkpt>
      <trkpt lat="43.69405" lon="6.71191">
        <ele>865.59997558594</ele>
        <time>2019-05-30T08:08:53.000Z</time>
      </trkpt>
      <trkpt lat="43.69407" lon="6.71196">
        <ele>864.59997558594</ele>
        <time>2019-05-30T08:08:54.000Z</time>
      </trkpt>
      <trkpt lat="43.69407" lon="6.71199">
        <ele>863.79998779297</ele>
        <time>2019-05-30T08:08:55.000Z</time>
      </trkpt>
      <trkpt lat="43.69406" lon="6.71205">
        <ele>862.20001220703</ele>
        <time>2019-05-30T08:08:57.000Z</time>
      </trkpt>
      <trkpt lat="43.69406" lon="6.71208">
        <ele>861.20001220703</ele>
        <time>2019-05-30T08:08:58.000Z</time>
      </trkpt>
      <trkpt lat="43.69406" lon="6.71215">
        <ele>859.59997558594</ele>
        <time>2019-05-30T08:09:00.000Z</time>
      </trkpt>
      <trkpt lat="43.69406" lon="6.71222">
        <ele>859</ele>
        <time>2019-05-30T08:09:01.000Z</time>
      </trkpt>
      <trkpt lat="43.69406" lon="6.71228">
        <ele>858.40002441406</ele>
        <time>2019-05-30T08:09:02.000Z</time>
      </trkpt>
      <trkpt lat="43.69405" lon="6.71239">
        <ele>856.59997558594</ele>
        <time>2019-05-30T08:09:04.000Z</time>
      </trkpt>
      <trkpt lat="43.69404" lon="6.71243">
        <ele>855.59997558594</ele>
        <time>2019-05-30T08:09:05.000Z</time>
      </trkpt>
      <trkpt lat="43.69404" lon="6.71248">
        <ele>854.40002441406</ele>
        <time>2019-05-30T08:09:06.000Z</time>
      </trkpt>
      <trkpt lat="43.69404" lon="6.71254">
        <ele>852.59997558594</ele>
        <time>2019-05-30T08:09:08.000Z</time>
      </trkpt>
      <trkpt lat="43.69403" lon="6.71257">
        <ele>852</ele>
        <time>2019-05-30T08:09:09.000Z</time>
      </trkpt>
      <trkpt lat="43.69401" lon="6.71258">
        <ele>851.59997558594</ele>
        <time>2019-05-30T08:09:10.000Z</time>
      </trkpt>
      <trkpt lat="43.69395" lon="6.7126">
        <ele>850</ele>
        <time>2019-05-30T08:09:12.000Z</time>
      </trkpt>
      <trkpt lat="43.69392" lon="6.7126">
        <ele>849</ele>
        <time>2019-05-30T08:09:13.000Z</time>
      </trkpt>
      <trkpt lat="43.69389" lon="6.71261">
        <ele>848</ele>
        <time>2019-05-30T08:09:14.000Z</time>
      </trkpt>
      <trkpt lat="43.69385" lon="6.71262">
        <ele>846.79998779297</ele>
        <time>2019-05-30T08:09:15.000Z</time>
      </trkpt>
      <trkpt lat="43.69381" lon="6.71264">
        <ele>845.40002441406</ele>
        <time>2019-05-30T08:09:16.000Z</time>
      </trkpt>
      <trkpt lat="43.69378" lon="6.71267">
        <ele>845</ele>
        <time>2019-05-30T08:09:17.000Z</time>
      </trkpt>
      <trkpt lat="43.69375" lon="6.71273">
        <ele>844</ele>
        <time>2019-05-30T08:09:18.000Z</time>
      </trkpt>
      <trkpt lat="43.69372" lon="6.71281">
        <ele>841.79998779297</ele>
        <time>2019-05-30T08:09:20.000Z</time>
      </trkpt>
      <trkpt lat="43.69368" lon="6.71292">
        <ele>840.59997558594</ele>
        <time>2019-05-30T08:09:23.000Z</time>
      </trkpt>
      <trkpt lat="43.69364" lon="6.71302">
        <ele>839.40002441406</ele>
        <time>2019-05-30T08:09:25.000Z</time>
      </trkpt>
      <trkpt lat="43.69363" lon="6.71308">
        <ele>838.59997558594</ele>
        <time>2019-05-30T08:09:26.000Z</time>
      </trkpt>
      <trkpt lat="43.69362" lon="6.71313">
        <ele>838</ele>
        <time>2019-05-30T08:09:27.000Z</time>
      </trkpt>
      <trkpt lat="43.69359" lon="6.71324">
        <ele>836.79998779297</ele>
        <time>2019-05-30T08:09:29.000Z</time>
      </trkpt>
      <trkpt lat="43.69357" lon="6.7133">
        <ele>836.20001220703</ele>
        <time>2019-05-30T08:09:30.000Z</time>
      </trkpt>
      <trkpt lat="43.69355" lon="6.71336">
        <ele>835.59997558594</ele>
        <time>2019-05-30T08:09:31.000Z</time>
      </trkpt>
      <trkpt lat="43.69353" lon="6.71349">
        <ele>834.20001220703</ele>
        <time>2019-05-30T08:09:33.000Z</time>
      </trkpt>
      <trkpt lat="43.69354" lon="6.71355">
        <ele>833.59997558594</ele>
        <time>2019-05-30T08:09:34.000Z</time>
      </trkpt>
      <trkpt lat="43.69355" lon="6.7136">
        <ele>833</ele>
        <time>2019-05-30T08:09:35.000Z</time>
      </trkpt>
      <trkpt lat="43.69359" lon="6.7137">
        <ele>831.40002441406</ele>
        <time>2019-05-30T08:09:37.000Z</time>
      </trkpt>
      <trkpt lat="43.69362" lon="6.71377">
        <ele>831.20001220703</ele>
        <time>2019-05-30T08:09:38.000Z</time>
      </trkpt>
      <trkpt lat="43.69365" lon="6.71382">
        <ele>830.59997558594</ele>
        <time>2019-05-30T08:09:39.000Z</time>
      </trkpt>
      <trkpt lat="43.69368" lon="6.71387">
        <ele>830.20001220703</ele>
        <time>2019-05-30T08:09:40.000Z</time>
      </trkpt>
      <trkpt lat="43.69375" lon="6.71396">
        <ele>829.79998779297</ele>
        <time>2019-05-30T08:09:42.000Z</time>
      </trkpt>
      <trkpt lat="43.69379" lon="6.71402">
        <ele>829.20001220703</ele>
        <time>2019-05-30T08:09:43.000Z</time>
      </trkpt>
      <trkpt lat="43.69384" lon="6.71406">
        <ele>828.20001220703</ele>
        <time>2019-05-30T08:09:44.000Z</time>
      </trkpt>
      <trkpt lat="43.69389" lon="6.71411">
        <ele>827.59997558594</ele>
        <time>2019-05-30T08:09:45.000Z</time>
      </trkpt>
      <trkpt lat="43.69394" lon="6.71416">
        <ele>827</ele>
        <time>2019-05-30T08:09:46.000Z</time>
      </trkpt>
      <trkpt lat="43.69398" lon="6.71421">
        <ele>826</ele>
        <time>2019-05-30T08:09:47.000Z</time>
      </trkpt>
      <trkpt lat="43.69401" lon="6.71426">
        <ele>825.20001220703</ele>
        <time>2019-05-30T08:09:48.000Z</time>
      </trkpt>
      <trkpt lat="43.69402" lon="6.71432">
        <ele>824.59997558594</ele>
        <time>2019-05-30T08:09:49.000Z</time>
      </trkpt>
      <trkpt lat="43.69401" lon="6.71438">
        <ele>823.79998779297</ele>
        <time>2019-05-30T08:09:50.000Z</time>
      </trkpt>
      <trkpt lat="43.69399" lon="6.71443">
        <ele>823.20001220703</ele>
        <time>2019-05-30T08:09:51.000Z</time>
      </trkpt>
      <trkpt lat="43.69393" lon="6.71453">
        <ele>822.40002441406</ele>
        <time>2019-05-30T08:09:53.000Z</time>
      </trkpt>
      <trkpt lat="43.69388" lon="6.7146">
        <ele>822.20001220703</ele>
        <time>2019-05-30T08:09:54.000Z</time>
      </trkpt>
      <trkpt lat="43.69382" lon="6.71467">
        <ele>821.79998779297</ele>
        <time>2019-05-30T08:09:55.000Z</time>
      </trkpt>
      <trkpt lat="43.69377" lon="6.71474">
        <ele>821</ele>
        <time>2019-05-30T08:09:56.000Z</time>
      </trkpt>
      <trkpt lat="43.69371" lon="6.7148">
        <ele>820.20001220703</ele>
        <time>2019-05-30T08:09:57.000Z</time>
      </trkpt>
      <trkpt lat="43.69363" lon="6.71483">
        <ele>819.40002441406</ele>
        <time>2019-05-30T08:09:58.000Z</time>
      </trkpt>
      <trkpt lat="43.69356" lon="6.71485">
        <ele>818.20001220703</ele>
        <time>2019-05-30T08:09:59.000Z</time>
      </trkpt>
      <trkpt lat="43.6935" lon="6.71485">
        <ele>817.20001220703</ele>
        <time>2019-05-30T08:10:00.000Z</time>
      </trkpt>
      <trkpt lat="43.69344" lon="6.71484">
        <ele>816.59997558594</ele>
        <time>2019-05-30T08:10:01.000Z</time>
      </trkpt>
      <trkpt lat="43.6933" lon="6.71478">
        <ele>815.40002441406</ele>
        <time>2019-05-30T08:10:03.000Z</time>
      </trkpt>
      <trkpt lat="43.69323" lon="6.71475">
        <ele>815.20001220703</ele>
        <time>2019-05-30T08:10:04.000Z</time>
      </trkpt>
      <trkpt lat="43.69304" lon="6.71467">
        <ele>814.20001220703</ele>
        <time>2019-05-30T08:10:07.000Z</time>
      </trkpt>
      <trkpt lat="43.69283" lon="6.71459">
        <ele>813</ele>
        <time>2019-05-30T08:10:10.000Z</time>
      </trkpt>
      <trkpt lat="43.69251" lon="6.71451">
        <ele>812.79998779297</ele>
        <time>2019-05-30T08:10:15.000Z</time>
      </trkpt>
      <trkpt lat="43.6924" lon="6.71451">
        <ele>813</ele>
        <time>2019-05-30T08:10:18.000Z</time>
      </trkpt>
      <trkpt lat="43.69234" lon="6.71462">
        <ele>814.20001220703</ele>
        <time>2019-05-30T08:10:22.000Z</time>
      </trkpt>
      <trkpt lat="43.69226" lon="6.71482">
        <ele>814.59997558594</ele>
        <time>2019-05-30T08:10:27.000Z</time>
      </trkpt>
      <trkpt lat="43.6922" lon="6.71479">
        <ele>814.40002441406</ele>
        <time>2019-05-30T08:10:29.000Z</time>
      </trkpt>
      <trkpt lat="43.69214" lon="6.71474">
        <ele>814.59997558594</ele>
        <time>2019-05-30T08:10:32.000Z</time>
      </trkpt>
      <trkpt lat="43.69212" lon="6.71473">
        <ele>814.79998779297</ele>
        <time>2019-05-30T08:10:33.000Z</time>
      </trkpt>
      <trkpt lat="43.69208" lon="6.71473">
        <ele>815.59997558594</ele>
        <time>2019-05-30T08:10:35.000Z</time>
      </trkpt>
      <trkpt lat="43.692" lon="6.71474">
        <ele>816.59997558594</ele>
        <time>2019-05-30T08:10:39.000Z</time>
      </trkpt>
      <trkpt lat="43.69189" lon="6.71473">
        <ele>816.79998779297</ele>
        <time>2019-05-30T08:10:42.000Z</time>
      </trkpt>
      <trkpt lat="43.69184" lon="6.71474">
        <ele>816.79998779297</ele>
        <time>2019-05-30T08:10:43.000Z</time>
      </trkpt>
      <trkpt lat="43.69168" lon="6.71467">
        <ele>815.40002441406</ele>
        <time>2019-05-30T08:10:46.000Z</time>
      </trkpt>
      <trkpt lat="43.69164" lon="6.71463">
        <ele>815.20001220703</ele>
        <time>2019-05-30T08:10:47.000Z</time>
      </trkpt>
      <trkpt lat="43.69157" lon="6.71457">
        <ele>814.40002441406</ele>
        <time>2019-05-30T08:10:49.000Z</time>
      </trkpt>
      <trkpt lat="43.69153" lon="6.71454">
        <ele>814.20001220703</ele>
        <time>2019-05-30T08:10:50.000Z</time>
      </trkpt>
      <trkpt lat="43.6915" lon="6.71449">
        <ele>814.20001220703</ele>
        <time>2019-05-30T08:10:51.000Z</time>
      </trkpt>
      <trkpt lat="43.69147" lon="6.71441">
        <ele>814.59997558594</ele>
        <time>2019-05-30T08:10:53.000Z</time>
      </trkpt>
      <trkpt lat="43.69146" lon="6.71433">
        <ele>815.40002441406</ele>
        <time>2019-05-30T08:10:55.000Z</time>
      </trkpt>
      <trkpt lat="43.69144" lon="6.71428">
        <ele>816.40002441406</ele>
        <time>2019-05-30T08:10:57.000Z</time>
      </trkpt>
      <trkpt lat="43.69142" lon="6.71427">
        <ele>817</ele>
        <time>2019-05-30T08:10:58.000Z</time>
      </trkpt>
      <trkpt lat="43.69133" lon="6.71421">
        <ele>817.59997558594</ele>
        <time>2019-05-30T08:11:00.000Z</time>
      </trkpt>
      <trkpt lat="43.69124" lon="6.71414">
        <ele>817.79998779297</ele>
        <time>2019-05-30T08:11:02.000Z</time>
      </trkpt>
      <trkpt lat="43.69117" lon="6.71408">
        <ele>817.79998779297</ele>
        <time>2019-05-30T08:11:04.000Z</time>
      </trkpt>
      <trkpt lat="43.69114" lon="6.71406">
        <ele>818</ele>
        <time>2019-05-30T08:11:05.000Z</time>
      </trkpt>
      <trkpt lat="43.691" lon="6.71397">
        <ele>818</ele>
        <time>2019-05-30T08:11:08.000Z</time>
      </trkpt>
      <trkpt lat="43.69096" lon="6.71394">
        <ele>818</ele>
        <time>2019-05-30T08:11:09.000Z</time>
      </trkpt>
      <trkpt lat="43.6909" lon="6.71393">
        <ele>818</ele>
        <time>2019-05-30T08:11:10.000Z</time>
      </trkpt>
      <trkpt lat="43.69079" lon="6.71387">
        <ele>817.79998779297</ele>
        <time>2019-05-30T08:11:12.000Z</time>
      </trkpt>
      <trkpt lat="43.69075" lon="6.71384">
        <ele>817.40002441406</ele>
        <time>2019-05-30T08:11:13.000Z</time>
      </trkpt>
      <trkpt lat="43.69066" lon="6.7138">
        <ele>816.79998779297</ele>
        <time>2019-05-30T08:11:15.000Z</time>
      </trkpt>
      <trkpt lat="43.69062" lon="6.71378">
        <ele>816.59997558594</ele>
        <time>2019-05-30T08:11:16.000Z</time>
      </trkpt>
      <trkpt lat="43.69051" lon="6.71373">
        <ele>817.20001220703</ele>
        <time>2019-05-30T08:11:19.000Z</time>
      </trkpt>
      <trkpt lat="43.69046" lon="6.71372">
        <ele>817.40002441406</ele>
        <time>2019-05-30T08:11:20.000Z</time>
      </trkpt>
      <trkpt lat="43.69028" lon="6.71372">
        <ele>818</ele>
        <time>2019-05-30T08:11:24.000Z</time>
      </trkpt>
      <trkpt lat="43.69023" lon="6.71372">
        <ele>818.20001220703</ele>
        <time>2019-05-30T08:11:25.000Z</time>
      </trkpt>
      <trkpt lat="43.69019" lon="6.71371">
        <ele>818.20001220703</ele>
        <time>2019-05-30T08:11:26.000Z</time>
      </trkpt>
      <trkpt lat="43.68995" lon="6.71364">
        <ele>818.79998779297</ele>
        <time>2019-05-30T08:11:31.000Z</time>
      </trkpt>
      <trkpt lat="43.68968" lon="6.71347">
        <ele>818.59997558594</ele>
        <time>2019-05-30T08:11:37.000Z</time>
      </trkpt>
      <trkpt lat="43.68947" lon="6.71329">
        <ele>818.40002441406</ele>
        <time>2019-05-30T08:11:42.000Z</time>
      </trkpt>
      <trkpt lat="43.68944" lon="6.71324">
        <ele>818.20001220703</ele>
        <time>2019-05-30T08:11:43.000Z</time>
      </trkpt>
      <trkpt lat="43.68932" lon="6.71293">
        <ele>817.40002441406</ele>
        <time>2019-05-30T08:11:48.000Z</time>
      </trkpt>
      <trkpt lat="43.68931" lon="6.71287">
        <ele>817.40002441406</ele>
        <time>2019-05-30T08:11:49.000Z</time>
      </trkpt>
      <trkpt lat="43.68929" lon="6.71278">
        <ele>817.20001220703</ele>
        <time>2019-05-30T08:11:52.000Z</time>
      </trkpt>
      <trkpt lat="43.68927" lon="6.71278">
        <ele>817.59997558594</ele>
        <time>2019-05-30T08:11:56.000Z</time>
      </trkpt>
      <trkpt lat="43.68927" lon="6.71277">
        <ele>817.79998779297</ele>
        <time>2019-05-30T08:11:58.000Z</time>
      </trkpt>
      <trkpt lat="43.68926" lon="6.71277">
        <ele>817.79998779297</ele>
        <time>2019-05-30T08:12:00.000Z</time>
      </trkpt>
      <trkpt lat="43.68925" lon="6.71276">
        <ele>817.79998779297</ele>
        <time>2019-05-30T08:12:01.000Z</time>
      </trkpt>
      <trkpt lat="43.68923" lon="6.71272">
        <ele>817.40002441406</ele>
        <time>2019-05-30T08:12:05.000Z</time>
      </trkpt>
      <trkpt lat="43.68923" lon="6.71271">
        <ele>817.59997558594</ele>
        <time>2019-05-30T08:12:12.000Z</time>
      </trkpt>
      <trkpt lat="43.68925" lon="6.71269">
        <ele>817.40002441406</ele>
        <time>2019-05-30T08:12:17.000Z</time>
      </trkpt>
      <trkpt lat="43.68925" lon="6.71269">
        <ele>817.40002441406</ele>
        <time>2019-05-30T08:12:22.000Z</time>
      </trkpt>
      <trkpt lat="43.68925" lon="6.71269">
        <ele>817.20001220703</ele>
        <time>2019-05-30T08:12:29.000Z</time>
      </trkpt>
      <trkpt lat="43.68925" lon="6.71269">
        <ele>817</ele>
        <time>2019-05-30T08:12:32.000Z</time>
      </trkpt>
      <trkpt lat="43.68925" lon="6.71269">
        <ele>817</ele>
        <time>2019-05-30T08:12:33.000Z</time>
      </trkpt>
      <trkpt lat="43.68925" lon="6.7127">
        <ele>817.20001220703</ele>
        <time>2019-05-30T08:12:37.000Z</time>
      </trkpt>
      <trkpt lat="43.68924" lon="6.71271">
        <ele>817.40002441406</ele>
        <time>2019-05-30T08:12:46.000Z</time>
      </trkpt>
      <trkpt lat="43.68924" lon="6.71272">
        <ele>817.40002441406</ele>
        <time>2019-05-30T08:12:53.000Z</time>
      </trkpt>
      <trkpt lat="43.68924" lon="6.71274">
        <ele>817.59997558594</ele>
        <time>2019-05-30T08:13:07.000Z</time>
      </trkpt>
      <trkpt lat="43.68924" lon="6.71277">
        <ele>817.40002441406</ele>
        <time>2019-05-30T08:13:17.000Z</time>
      </trkpt>
      <trkpt lat="43.68922" lon="6.71277">
        <ele>817.20001220703</ele>
        <time>2019-05-30T08:13:22.000Z</time>
      </trkpt>
      <trkpt lat="43.68921" lon="6.71277">
        <ele>817.20001220703</ele>
        <time>2019-05-30T08:13:29.000Z</time>
      </trkpt>
      <trkpt lat="43.68922" lon="6.7128">
        <ele>817</ele>
        <time>2019-05-30T08:13:36.000Z</time>
      </trkpt>
      <trkpt lat="43.68925" lon="6.71281">
        <ele>817.20001220703</ele>
        <time>2019-05-30T08:13:44.000Z</time>
      </trkpt>
      <trkpt lat="43.68926" lon="6.7128">
        <ele>817.20001220703</ele>
        <time>2019-05-30T08:13:58.000Z</time>
      </trkpt>
      <trkpt lat="43.68927" lon="6.71279">
        <ele>817.20001220703</ele>
        <time>2019-05-30T08:14:12.000Z</time>
      </trkpt>
      <trkpt lat="43.68928" lon="6.71279">
        <ele>817</ele>
        <time>2019-05-30T08:14:23.000Z</time>
      </trkpt>
      <trkpt lat="43.68928" lon="6.71279">
        <ele>817</ele>
        <time>2019-05-30T08:14:32.000Z</time>
      </trkpt>
      <trkpt lat="43.68928" lon="6.71279">
        <ele>816.79998779297</ele>
        <time>2019-05-30T08:14:38.000Z</time>
      </trkpt>
      <trkpt lat="43.68928" lon="6.71279">
        <ele>816.40002441406</ele>
        <time>2019-05-30T08:14:49.000Z</time>
      </trkpt>
      <trkpt lat="43.68928" lon="6.71279">
        <ele>816.40002441406</ele>
        <time>2019-05-30T08:15:01.000Z</time>
      </trkpt>
      <trkpt lat="43.68928" lon="6.71278">
        <ele>816.20001220703</ele>
        <time>2019-05-30T08:15:12.000Z</time>
      </trkpt>
      <trkpt lat="43.68927" lon="6.71278">
        <ele>816.20001220703</ele>
        <time>2019-05-30T08:15:26.000Z</time>
      </trkpt>
      <trkpt lat="43.68925" lon="6.71275">
        <ele>816.59997558594</ele>
        <time>2019-05-30T08:15:29.000Z</time>
      </trkpt>
      <trkpt lat="43.68925" lon="6.71274">
        <ele>816.40002441406</ele>
        <time>2019-05-30T08:15:31.000Z</time>
      </trkpt>
      <trkpt lat="43.68926" lon="6.71274">
        <ele>816.40002441406</ele>
        <time>2019-05-30T08:15:32.000Z</time>
      </trkpt>
      <trkpt lat="43.68928" lon="6.71279">
        <ele>816.20001220703</ele>
        <time>2019-05-30T08:15:35.000Z</time>
      </trkpt>
      <trkpt lat="43.68929" lon="6.7128">
        <ele>816.20001220703</ele>
        <time>2019-05-30T08:15:40.000Z</time>
      </trkpt>
      <trkpt lat="43.68929" lon="6.71281">
        <ele>816</ele>
        <time>2019-05-30T08:15:43.000Z</time>
      </trkpt>
      <trkpt lat="43.68929" lon="6.71281">
        <ele>816</ele>
        <time>2019-05-30T08:15:49.000Z</time>
      </trkpt>
      <trkpt lat="43.68929" lon="6.7128">
        <ele>816.20001220703</ele>
        <time>2019-05-30T08:15:57.000Z</time>
      </trkpt>
      <trkpt lat="43.68931" lon="6.7128">
        <ele>816.40002441406</ele>
        <time>2019-05-30T08:16:04.000Z</time>
      </trkpt>
      <trkpt lat="43.68932" lon="6.7128">
        <ele>816.40002441406</ele>
        <time>2019-05-30T08:16:05.000Z</time>
      </trkpt>
      <trkpt lat="43.68935" lon="6.71285">
        <ele>816.40002441406</ele>
        <time>2019-05-30T08:16:08.000Z</time>
      </trkpt>
      <trkpt lat="43.68937" lon="6.71288">
        <ele>816.40002441406</ele>
        <time>2019-05-30T08:16:10.000Z</time>
      </trkpt>
      <trkpt lat="43.68938" lon="6.71288">
        <ele>816.40002441406</ele>
        <time>2019-05-30T08:16:11.000Z</time>
      </trkpt>
      <trkpt lat="43.6894" lon="6.71287">
        <ele>816.20001220703</ele>
        <time>2019-05-30T08:16:13.000Z</time>
      </trkpt>
      <trkpt lat="43.68942" lon="6.71283">
        <ele>816</ele>
        <time>2019-05-30T08:16:17.000Z</time>
      </trkpt>
      <trkpt lat="43.68946" lon="6.71281">
        <ele>816.20001220703</ele>
        <time>2019-05-30T08:16:21.000Z</time>
      </trkpt>
      <trkpt lat="43.68948" lon="6.71282">
        <ele>816.20001220703</ele>
        <time>2019-05-30T08:16:22.000Z</time>
      </trkpt>
      <trkpt lat="43.68965" lon="6.71292">
        <ele>816.20001220703</ele>
        <time>2019-05-30T08:16:28.000Z</time>
      </trkpt>
      <trkpt lat="43.6898" lon="6.71298">
        <ele>816.20001220703</ele>
        <time>2019-05-30T08:16:33.000Z</time>
      </trkpt>
      <trkpt lat="43.68989" lon="6.71303">
        <ele>816.40002441406</ele>
        <time>2019-05-30T08:16:37.000Z</time>
      </trkpt>
      <trkpt lat="43.68992" lon="6.71308">
        <ele>817</ele>
        <time>2019-05-30T08:16:40.000Z</time>
      </trkpt>
      <trkpt lat="43.68995" lon="6.71308">
        <ele>817</ele>
        <time>2019-05-30T08:16:42.000Z</time>
      </trkpt>
      <trkpt lat="43.68993" lon="6.71302">
        <ele>816.59997558594</ele>
        <time>2019-05-30T08:16:46.000Z</time>
      </trkpt>
      <trkpt lat="43.68992" lon="6.71305">
        <ele>816.59997558594</ele>
        <time>2019-05-30T08:16:50.000Z</time>
      </trkpt>
      <trkpt lat="43.68996" lon="6.71303">
        <ele>816.59997558594</ele>
        <time>2019-05-30T08:16:54.000Z</time>
      </trkpt>
      <trkpt lat="43.69" lon="6.71304">
        <ele>816.79998779297</ele>
        <time>2019-05-30T08:16:58.000Z</time>
      </trkpt>
      <trkpt lat="43.69003" lon="6.713">
        <ele>816.59997558594</ele>
        <time>2019-05-30T08:17:03.000Z</time>
      </trkpt>
      <trkpt lat="43.69004" lon="6.71299">
        <ele>816.79998779297</ele>
        <time>2019-05-30T08:17:04.000Z</time>
      </trkpt>
      <trkpt lat="43.69007" lon="6.71299">
        <ele>816.59997558594</ele>
        <time>2019-05-30T08:17:07.000Z</time>
      </trkpt>
      <trkpt lat="43.6901" lon="6.71299">
        <ele>816.59997558594</ele>
        <time>2019-05-30T08:17:13.000Z</time>
      </trkpt>
      <trkpt lat="43.69011" lon="6.713">
        <ele>816.79998779297</ele>
        <time>2019-05-30T08:17:40.000Z</time>
      </trkpt>
      <trkpt lat="43.69013" lon="6.71302">
        <ele>816.59997558594</ele>
        <time>2019-05-30T08:17:44.000Z</time>
      </trkpt>
      <trkpt lat="43.69016" lon="6.71304">
        <ele>816.59997558594</ele>
        <time>2019-05-30T08:17:46.000Z</time>
      </trkpt>
      <trkpt lat="43.69032" lon="6.71312">
        <ele>816.40002441406</ele>
        <time>2019-05-30T08:17:51.000Z</time>
      </trkpt>
      <trkpt lat="43.69054" lon="6.71321">
        <ele>817.20001220703</ele>
        <time>2019-05-30T08:17:58.000Z</time>
      </trkpt>
      <trkpt lat="43.69071" lon="6.7133">
        <ele>817</ele>
        <time>2019-05-30T08:18:03.000Z</time>
      </trkpt>
      <trkpt lat="43.69082" lon="6.71332">
        <ele>816.59997558594</ele>
        <time>2019-05-30T08:18:07.000Z</time>
      </trkpt>
      <trkpt lat="43.69084" lon="6.7133">
        <ele>816.59997558594</ele>
        <time>2019-05-30T08:18:08.000Z</time>
      </trkpt>
      <trkpt lat="43.69096" lon="6.71333">
        <ele>816.20001220703</ele>
        <time>2019-05-30T08:18:11.000Z</time>
      </trkpt>
      <trkpt lat="43.69111" lon="6.7134">
        <ele>816</ele>
        <time>2019-05-30T08:18:14.000Z</time>
      </trkpt>
      <trkpt lat="43.69126" lon="6.71347">
        <ele>815.79998779297</ele>
        <time>2019-05-30T08:18:17.000Z</time>
      </trkpt>
      <trkpt lat="43.69167" lon="6.71372">
        <ele>815.20001220703</ele>
        <time>2019-05-30T08:18:25.000Z</time>
      </trkpt>
      <trkpt lat="43.6918" lon="6.71384">
        <ele>815</ele>
        <time>2019-05-30T08:18:28.000Z</time>
      </trkpt>
      <trkpt lat="43.69197" lon="6.714">
        <ele>814.59997558594</ele>
        <time>2019-05-30T08:18:32.000Z</time>
      </trkpt>
      <trkpt lat="43.69223" lon="6.71427">
        <ele>814.20001220703</ele>
        <time>2019-05-30T08:18:38.000Z</time>
      </trkpt>
      <trkpt lat="43.69231" lon="6.71434">
        <ele>814</ele>
        <time>2019-05-30T08:18:40.000Z</time>
      </trkpt>
      <trkpt lat="43.69238" lon="6.71436">
        <ele>813.79998779297</ele>
        <time>2019-05-30T08:18:42.000Z</time>
      </trkpt>
      <trkpt lat="43.69246" lon="6.7143">
        <ele>813.79998779297</ele>
        <time>2019-05-30T08:18:44.000Z</time>
      </trkpt>
      <trkpt lat="43.69251" lon="6.7141">
        <ele>813.20001220703</ele>
        <time>2019-05-30T08:18:47.000Z</time>
      </trkpt>
      <trkpt lat="43.69255" lon="6.71393">
        <ele>812.59997558594</ele>
        <time>2019-05-30T08:18:49.000Z</time>
      </trkpt>
      <trkpt lat="43.69258" lon="6.71375">
        <ele>812</ele>
        <time>2019-05-30T08:18:51.000Z</time>
      </trkpt>
      <trkpt lat="43.69258" lon="6.71366">
        <ele>811.79998779297</ele>
        <time>2019-05-30T08:18:52.000Z</time>
      </trkpt>
      <trkpt lat="43.69254" lon="6.71357">
        <ele>811.40002441406</ele>
        <time>2019-05-30T08:18:53.000Z</time>
      </trkpt>
      <trkpt lat="43.6925" lon="6.71349">
        <ele>810.79998779297</ele>
        <time>2019-05-30T08:18:54.000Z</time>
      </trkpt>
      <trkpt lat="43.69244" lon="6.71342">
        <ele>810.40002441406</ele>
        <time>2019-05-30T08:18:55.000Z</time>
      </trkpt>
      <trkpt lat="43.69232" lon="6.71328">
        <ele>809.40002441406</ele>
        <time>2019-05-30T08:18:57.000Z</time>
      </trkpt>
      <trkpt lat="43.69226" lon="6.71321">
        <ele>808.59997558594</ele>
        <time>2019-05-30T08:18:58.000Z</time>
      </trkpt>
      <trkpt lat="43.6922" lon="6.71315">
        <ele>808.20001220703</ele>
        <time>2019-05-30T08:18:59.000Z</time>
      </trkpt>
      <trkpt lat="43.69208" lon="6.713">
        <ele>806.79998779297</ele>
        <time>2019-05-30T08:19:01.000Z</time>
      </trkpt>
      <trkpt lat="43.69195" lon="6.71287">
        <ele>805.79998779297</ele>
        <time>2019-05-30T08:19:03.000Z</time>
      </trkpt>
      <trkpt lat="43.69189" lon="6.71279">
        <ele>805.20001220703</ele>
        <time>2019-05-30T08:19:04.000Z</time>
      </trkpt>
      <trkpt lat="43.69177" lon="6.71265">
        <ele>804.40002441406</ele>
        <time>2019-05-30T08:19:06.000Z</time>
      </trkpt>
      <trkpt lat="43.69152" lon="6.71237">
        <ele>804</ele>
        <time>2019-05-30T08:19:10.000Z</time>
      </trkpt>
      <trkpt lat="43.69126" lon="6.71208">
        <ele>803.20001220703</ele>
        <time>2019-05-30T08:19:14.000Z</time>
      </trkpt>
      <trkpt lat="43.691" lon="6.71176">
        <ele>802.59997558594</ele>
        <time>2019-05-30T08:19:18.000Z</time>
      </trkpt>
      <trkpt lat="43.69088" lon="6.71162">
        <ele>802.20001220703</ele>
        <time>2019-05-30T08:19:20.000Z</time>
      </trkpt>
      <trkpt lat="43.69053" lon="6.7112">
        <ele>802.79998779297</ele>
        <time>2019-05-30T08:19:26.000Z</time>
      </trkpt>
      <trkpt lat="43.69016" lon="6.71073">
        <ele>802.79998779297</ele>
        <time>2019-05-30T08:19:33.000Z</time>
      </trkpt>
      <trkpt lat="43.68977" lon="6.71028">
        <ele>803.20001220703</ele>
        <time>2019-05-30T08:19:40.000Z</time>
      </trkpt>
      <trkpt lat="43.68955" lon="6.71003">
        <ele>803.40002441406</ele>
        <time>2019-05-30T08:19:44.000Z</time>
      </trkpt>
      <trkpt lat="43.68925" lon="6.70967">
        <ele>804.59997558594</ele>
        <time>2019-05-30T08:19:50.000Z</time>
      </trkpt>
      <trkpt lat="43.68915" lon="6.70957">
        <ele>805.79998779297</ele>
        <time>2019-05-30T08:19:52.000Z</time>
      </trkpt>
      <trkpt lat="43.689" lon="6.70939">
        <ele>807</ele>
        <time>2019-05-30T08:19:55.000Z</time>
      </trkpt>
      <trkpt lat="43.68885" lon="6.70925">
        <ele>808</ele>
        <time>2019-05-30T08:19:58.000Z</time>
      </trkpt>
      <trkpt lat="43.68881" lon="6.70921">
        <ele>808.40002441406</ele>
        <time>2019-05-30T08:19:59.000Z</time>
      </trkpt>
      <trkpt lat="43.68848" lon="6.709">
        <ele>809</ele>
        <time>2019-05-30T08:20:05.000Z</time>
      </trkpt>
      <trkpt lat="43.68842" lon="6.70895">
        <ele>809.20001220703</ele>
        <time>2019-05-30T08:20:06.000Z</time>
      </trkpt>
      <trkpt lat="43.68826" lon="6.70876">
        <ele>809.40002441406</ele>
        <time>2019-05-30T08:20:10.000Z</time>
      </trkpt>
      <trkpt lat="43.68812" lon="6.70856">
        <ele>810.20001220703</ele>
        <time>2019-05-30T08:20:14.000Z</time>
      </trkpt>
      <trkpt lat="43.68802" lon="6.70844">
        <ele>810.79998779297</ele>
        <time>2019-05-30T08:20:17.000Z</time>
      </trkpt>
      <trkpt lat="43.68795" lon="6.70835">
        <ele>811.20001220703</ele>
        <time>2019-05-30T08:20:19.000Z</time>
      </trkpt>
      <trkpt lat="43.6878" lon="6.70814">
        <ele>812.59997558594</ele>
        <time>2019-05-30T08:20:24.000Z</time>
      </trkpt>
      <trkpt lat="43.68773" lon="6.70805">
        <ele>813</ele>
        <time>2019-05-30T08:20:26.000Z</time>
      </trkpt>
      <trkpt lat="43.68767" lon="6.70796">
        <ele>813.40002441406</ele>
        <time>2019-05-30T08:20:28.000Z</time>
      </trkpt>
      <trkpt lat="43.6876" lon="6.7079">
        <ele>813.59997558594</ele>
        <time>2019-05-30T08:20:30.000Z</time>
      </trkpt>
      <trkpt lat="43.68756" lon="6.70787">
        <ele>813.59997558594</ele>
        <time>2019-05-30T08:20:31.000Z</time>
      </trkpt>
      <trkpt lat="43.68753" lon="6.70784">
        <ele>813.59997558594</ele>
        <time>2019-05-30T08:20:32.000Z</time>
      </trkpt>
      <trkpt lat="43.6875" lon="6.70775">
        <ele>813.79998779297</ele>
        <time>2019-05-30T08:20:34.000Z</time>
      </trkpt>
      <trkpt lat="43.68751" lon="6.70771">
        <ele>813.79998779297</ele>
        <time>2019-05-30T08:20:35.000Z</time>
      </trkpt>
      <trkpt lat="43.68755" lon="6.70755">
        <ele>813.79998779297</ele>
        <time>2019-05-30T08:20:40.000Z</time>
      </trkpt>
      <trkpt lat="43.68754" lon="6.70749">
        <ele>815</ele>
        <time>2019-05-30T08:20:43.000Z</time>
      </trkpt>
      <trkpt lat="43.68753" lon="6.70746">
        <ele>815.59997558594</ele>
        <time>2019-05-30T08:20:45.000Z</time>
      </trkpt>
      <trkpt lat="43.68752" lon="6.70744">
        <ele>816</ele>
        <time>2019-05-30T08:20:46.000Z</time>
      </trkpt>
      <trkpt lat="43.68748" lon="6.70734">
        <ele>817</ele>
        <time>2019-05-30T08:20:52.000Z</time>
      </trkpt>
      <trkpt lat="43.68747" lon="6.70731">
        <ele>817.20001220703</ele>
        <time>2019-05-30T08:20:53.000Z</time>
      </trkpt>
      <trkpt lat="43.68741" lon="6.70722">
        <ele>818</ele>
        <time>2019-05-30T08:20:58.000Z</time>
      </trkpt>
      <trkpt lat="43.6874" lon="6.7072">
        <ele>818.20001220703</ele>
        <time>2019-05-30T08:20:59.000Z</time>
      </trkpt>
      <trkpt lat="43.68735" lon="6.70714">
        <ele>818.59997558594</ele>
        <time>2019-05-30T08:21:02.000Z</time>
      </trkpt>
      <trkpt lat="43.68731" lon="6.70709">
        <ele>818.59997558594</ele>
        <time>2019-05-30T08:21:04.000Z</time>
      </trkpt>
      <trkpt lat="43.68729" lon="6.70707">
        <ele>818.79998779297</ele>
        <time>2019-05-30T08:21:05.000Z</time>
      </trkpt>
      <trkpt lat="43.68722" lon="6.70699">
        <ele>818.79998779297</ele>
        <time>2019-05-30T08:21:08.000Z</time>
      </trkpt>
      <trkpt lat="43.68717" lon="6.70693">
        <ele>819</ele>
        <time>2019-05-30T08:21:10.000Z</time>
      </trkpt>
      <trkpt lat="43.68712" lon="6.70685">
        <ele>819.20001220703</ele>
        <time>2019-05-30T08:21:13.000Z</time>
      </trkpt>
      <trkpt lat="43.68711" lon="6.70683">
        <ele>819.40002441406</ele>
        <time>2019-05-30T08:21:14.000Z</time>
      </trkpt>
      <trkpt lat="43.68703" lon="6.70669">
        <ele>819.79998779297</ele>
        <time>2019-05-30T08:21:18.000Z</time>
      </trkpt>
      <trkpt lat="43.68699" lon="6.7066">
        <ele>820.20001220703</ele>
        <time>2019-05-30T08:21:20.000Z</time>
      </trkpt>
      <trkpt lat="43.68694" lon="6.70643">
        <ele>820.59997558594</ele>
        <time>2019-05-30T08:21:24.000Z</time>
      </trkpt>
      <trkpt lat="43.68693" lon="6.70633">
        <ele>821.40002441406</ele>
        <time>2019-05-30T08:21:27.000Z</time>
      </trkpt>
      <trkpt lat="43.6869" lon="6.70625">
        <ele>822</ele>
        <time>2019-05-30T08:21:30.000Z</time>
      </trkpt>
      <trkpt lat="43.68686" lon="6.70614">
        <ele>822.40002441406</ele>
        <time>2019-05-30T08:21:34.000Z</time>
      </trkpt>
      <trkpt lat="43.68684" lon="6.7061">
        <ele>823</ele>
        <time>2019-05-30T08:21:36.000Z</time>
      </trkpt>
      <trkpt lat="43.68679" lon="6.70599">
        <ele>823.59997558594</ele>
        <time>2019-05-30T08:21:40.000Z</time>
      </trkpt>
      <trkpt lat="43.68679" lon="6.70596">
        <ele>823.79998779297</ele>
        <time>2019-05-30T08:21:41.000Z</time>
      </trkpt>
      <trkpt lat="43.68678" lon="6.70584">
        <ele>824.59997558594</ele>
        <time>2019-05-30T08:21:45.000Z</time>
      </trkpt>
      <trkpt lat="43.68679" lon="6.70579">
        <ele>824.59997558594</ele>
        <time>2019-05-30T08:21:47.000Z</time>
      </trkpt>
      <trkpt lat="43.68679" lon="6.70559">
        <ele>825.20001220703</ele>
        <time>2019-05-30T08:21:53.000Z</time>
      </trkpt>
      <trkpt lat="43.68681" lon="6.70536">
        <ele>825.59997558594</ele>
        <time>2019-05-30T08:21:59.000Z</time>
      </trkpt>
      <trkpt lat="43.68682" lon="6.70531">
        <ele>826</ele>
        <time>2019-05-30T08:22:00.000Z</time>
      </trkpt>
      <trkpt lat="43.68682" lon="6.70502">
        <ele>826.20001220703</ele>
        <time>2019-05-30T08:22:06.000Z</time>
      </trkpt>
      <trkpt lat="43.68683" lon="6.70487">
        <ele>826.79998779297</ele>
        <time>2019-05-30T08:22:09.000Z</time>
      </trkpt>
      <trkpt lat="43.68683" lon="6.7046">
        <ele>826.79998779297</ele>
        <time>2019-05-30T08:22:14.000Z</time>
      </trkpt>
      <trkpt lat="43.68685" lon="6.7043">
        <ele>827</ele>
        <time>2019-05-30T08:22:20.000Z</time>
      </trkpt>
      <trkpt lat="43.68686" lon="6.70399">
        <ele>827.40002441406</ele>
        <time>2019-05-30T08:22:26.000Z</time>
      </trkpt>
      <trkpt lat="43.68689" lon="6.70367">
        <ele>827.20001220703</ele>
        <time>2019-05-30T08:22:32.000Z</time>
      </trkpt>
      <trkpt lat="43.68692" lon="6.70346">
        <ele>826.79998779297</ele>
        <time>2019-05-30T08:22:36.000Z</time>
      </trkpt>
      <trkpt lat="43.68693" lon="6.70335">
        <ele>827</ele>
        <time>2019-05-30T08:22:38.000Z</time>
      </trkpt>
      <trkpt lat="43.68693" lon="6.70329">
        <ele>827</ele>
        <time>2019-05-30T08:22:39.000Z</time>
      </trkpt>
      <trkpt lat="43.68693" lon="6.70317">
        <ele>826.79998779297</ele>
        <time>2019-05-30T08:22:41.000Z</time>
      </trkpt>
      <trkpt lat="43.68692" lon="6.70297">
        <ele>826.40002441406</ele>
        <time>2019-05-30T08:22:44.000Z</time>
      </trkpt>
      <trkpt lat="43.68693" lon="6.70274">
        <ele>825.59997558594</ele>
        <time>2019-05-30T08:22:47.000Z</time>
      </trkpt>
      <trkpt lat="43.68694" lon="6.70255">
        <ele>824.40002441406</ele>
        <time>2019-05-30T08:22:49.000Z</time>
      </trkpt>
      <trkpt lat="43.68695" lon="6.70219">
        <ele>823.20001220703</ele>
        <time>2019-05-30T08:22:53.000Z</time>
      </trkpt>
      <trkpt lat="43.68695" lon="6.70189">
        <ele>820.79998779297</ele>
        <time>2019-05-30T08:22:56.000Z</time>
      </trkpt>
      <trkpt lat="43.68696" lon="6.70142">
        <ele>819.79998779297</ele>
        <time>2019-05-30T08:23:01.000Z</time>
      </trkpt>
      <trkpt lat="43.68697" lon="6.70133">
        <ele>820</ele>
        <time>2019-05-30T08:23:02.000Z</time>
      </trkpt>
      <trkpt lat="43.68699" lon="6.70082">
        <ele>819.40002441406</ele>
        <time>2019-05-30T08:23:08.000Z</time>
      </trkpt>
      <trkpt lat="43.68699" lon="6.70028">
        <ele>819.20001220703</ele>
        <time>2019-05-30T08:23:15.000Z</time>
      </trkpt>
      <trkpt lat="43.687" lon="6.69987">
        <ele>820</ele>
        <time>2019-05-30T08:23:21.000Z</time>
      </trkpt>
      <trkpt lat="43.687" lon="6.69933">
        <ele>820</ele>
        <time>2019-05-30T08:23:29.000Z</time>
      </trkpt>
      <trkpt lat="43.68701" lon="6.69905">
        <ele>818.79998779297</ele>
        <time>2019-05-30T08:23:33.000Z</time>
      </trkpt>
      <trkpt lat="43.68702" lon="6.69876">
        <ele>818.59997558594</ele>
        <time>2019-05-30T08:23:37.000Z</time>
      </trkpt>
      <trkpt lat="43.68703" lon="6.69848">
        <ele>819.79998779297</ele>
        <time>2019-05-30T08:23:41.000Z</time>
      </trkpt>
      <trkpt lat="43.68703" lon="6.69841">
        <ele>819.79998779297</ele>
        <time>2019-05-30T08:23:42.000Z</time>
      </trkpt>
      <trkpt lat="43.68703" lon="6.69829">
        <ele>819.79998779297</ele>
        <time>2019-05-30T08:23:44.000Z</time>
      </trkpt>
      <trkpt lat="43.68704" lon="6.69793">
        <ele>820.79998779297</ele>
        <time>2019-05-30T08:23:50.000Z</time>
      </trkpt>
      <trkpt lat="43.68704" lon="6.69787">
        <ele>821</ele>
        <time>2019-05-30T08:23:51.000Z</time>
      </trkpt>
      <trkpt lat="43.68704" lon="6.69755">
        <ele>821.20001220703</ele>
        <time>2019-05-30T08:23:57.000Z</time>
      </trkpt>
      <trkpt lat="43.68705" lon="6.69729">
        <ele>822</ele>
        <time>2019-05-30T08:24:02.000Z</time>
      </trkpt>
      <trkpt lat="43.68704" lon="6.69724">
        <ele>822.40002441406</ele>
        <time>2019-05-30T08:24:03.000Z</time>
      </trkpt>
      <trkpt lat="43.68705" lon="6.697">
        <ele>823.20001220703</ele>
        <time>2019-05-30T08:24:08.000Z</time>
      </trkpt>
      <trkpt lat="43.68705" lon="6.69695">
        <ele>823</ele>
        <time>2019-05-30T08:24:09.000Z</time>
      </trkpt>
      <trkpt lat="43.68707" lon="6.69674">
        <ele>822.20001220703</ele>
        <time>2019-05-30T08:24:13.000Z</time>
      </trkpt>
      <trkpt lat="43.68707" lon="6.69668">
        <ele>821.79998779297</ele>
        <time>2019-05-30T08:24:14.000Z</time>
      </trkpt>
      <trkpt lat="43.68708" lon="6.69662">
        <ele>821.79998779297</ele>
        <time>2019-05-30T08:24:15.000Z</time>
      </trkpt>
      <trkpt lat="43.68709" lon="6.69652">
        <ele>821.59997558594</ele>
        <time>2019-05-30T08:24:17.000Z</time>
      </trkpt>
      <trkpt lat="43.68712" lon="6.69629">
        <ele>820.79998779297</ele>
        <time>2019-05-30T08:24:20.000Z</time>
      </trkpt>
      <trkpt lat="43.68713" lon="6.69621">
        <ele>820</ele>
        <time>2019-05-30T08:24:21.000Z</time>
      </trkpt>
      <trkpt lat="43.68716" lon="6.69607">
        <ele>818.20001220703</ele>
        <time>2019-05-30T08:24:23.000Z</time>
      </trkpt>
      <trkpt lat="43.68718" lon="6.696">
        <ele>817.79998779297</ele>
        <time>2019-05-30T08:24:24.000Z</time>
      </trkpt>
      <trkpt lat="43.68719" lon="6.69593">
        <ele>817</ele>
        <time>2019-05-30T08:24:25.000Z</time>
      </trkpt>
      <trkpt lat="43.68723" lon="6.6958">
        <ele>815.79998779297</ele>
        <time>2019-05-30T08:24:27.000Z</time>
      </trkpt>
      <trkpt lat="43.68726" lon="6.69575">
        <ele>816.20001220703</ele>
        <time>2019-05-30T08:24:28.000Z</time>
      </trkpt>
      <trkpt lat="43.68734" lon="6.69571">
        <ele>815.40002441406</ele>
        <time>2019-05-30T08:24:30.000Z</time>
      </trkpt>
      <trkpt lat="43.68739" lon="6.6957">
        <ele>814.59997558594</ele>
        <time>2019-05-30T08:24:31.000Z</time>
      </trkpt>
      <trkpt lat="43.68749" lon="6.69572">
        <ele>813.40002441406</ele>
        <time>2019-05-30T08:24:33.000Z</time>
      </trkpt>
      <trkpt lat="43.68753" lon="6.69575">
        <ele>812.59997558594</ele>
        <time>2019-05-30T08:24:34.000Z</time>
      </trkpt>
      <trkpt lat="43.68757" lon="6.69578">
        <ele>812</ele>
        <time>2019-05-30T08:24:35.000Z</time>
      </trkpt>
      <trkpt lat="43.68761" lon="6.69582">
        <ele>811.40002441406</ele>
        <time>2019-05-30T08:24:36.000Z</time>
      </trkpt>
      <trkpt lat="43.68764" lon="6.69585">
        <ele>810.59997558594</ele>
        <time>2019-05-30T08:24:37.000Z</time>
      </trkpt>
      <trkpt lat="43.6877" lon="6.69589">
        <ele>809.20001220703</ele>
        <time>2019-05-30T08:24:39.000Z</time>
      </trkpt>
      <trkpt lat="43.68775" lon="6.69579">
        <ele>807.79998779297</ele>
        <time>2019-05-30T08:24:42.000Z</time>
      </trkpt>
      <trkpt lat="43.68776" lon="6.69573">
        <ele>807</ele>
        <time>2019-05-30T08:24:43.000Z</time>
      </trkpt>
      <trkpt lat="43.68776" lon="6.69566">
        <ele>806.59997558594</ele>
        <time>2019-05-30T08:24:44.000Z</time>
      </trkpt>
      <trkpt lat="43.68775" lon="6.69554">
        <ele>805.40002441406</ele>
        <time>2019-05-30T08:24:46.000Z</time>
      </trkpt>
      <trkpt lat="43.68773" lon="6.69542">
        <ele>804</ele>
        <time>2019-05-30T08:24:48.000Z</time>
      </trkpt>
      <trkpt lat="43.68772" lon="6.69535">
        <ele>803.20001220703</ele>
        <time>2019-05-30T08:24:49.000Z</time>
      </trkpt>
      <trkpt lat="43.68772" lon="6.6953">
        <ele>802.40002441406</ele>
        <time>2019-05-30T08:24:50.000Z</time>
      </trkpt>
      <trkpt lat="43.6877" lon="6.69516">
        <ele>801.40002441406</ele>
        <time>2019-05-30T08:24:52.000Z</time>
      </trkpt>
      <trkpt lat="43.68768" lon="6.69503">
        <ele>800</ele>
        <time>2019-05-30T08:24:54.000Z</time>
      </trkpt>
      <trkpt lat="43.68767" lon="6.6949">
        <ele>799</ele>
        <time>2019-05-30T08:24:56.000Z</time>
      </trkpt>
      <trkpt lat="43.68767" lon="6.69484">
        <ele>798.20001220703</ele>
        <time>2019-05-30T08:24:57.000Z</time>
      </trkpt>
      <trkpt lat="43.68766" lon="6.69477">
        <ele>797.59997558594</ele>
        <time>2019-05-30T08:24:58.000Z</time>
      </trkpt>
      <trkpt lat="43.68763" lon="6.69467">
        <ele>797</ele>
        <time>2019-05-30T08:25:00.000Z</time>
      </trkpt>
      <trkpt lat="43.68762" lon="6.69462">
        <ele>796.40002441406</ele>
        <time>2019-05-30T08:25:01.000Z</time>
      </trkpt>
      <trkpt lat="43.68761" lon="6.69456">
        <ele>796</ele>
        <time>2019-05-30T08:25:02.000Z</time>
      </trkpt>
      <trkpt lat="43.68761" lon="6.69442">
        <ele>795</ele>
        <time>2019-05-30T08:25:04.000Z</time>
      </trkpt>
      <trkpt lat="43.6876" lon="6.69435">
        <ele>794.59997558594</ele>
        <time>2019-05-30T08:25:05.000Z</time>
      </trkpt>
      <trkpt lat="43.6876" lon="6.69427">
        <ele>794.20001220703</ele>
        <time>2019-05-30T08:25:06.000Z</time>
      </trkpt>
      <trkpt lat="43.68759" lon="6.69413">
        <ele>793.59997558594</ele>
        <time>2019-05-30T08:25:08.000Z</time>
      </trkpt>
      <trkpt lat="43.68757" lon="6.69391">
        <ele>791.79998779297</ele>
        <time>2019-05-30T08:25:11.000Z</time>
      </trkpt>
      <trkpt lat="43.68756" lon="6.69378">
        <ele>790.59997558594</ele>
        <time>2019-05-30T08:25:13.000Z</time>
      </trkpt>
      <trkpt lat="43.68753" lon="6.69367">
        <ele>789.40002441406</ele>
        <time>2019-05-30T08:25:15.000Z</time>
      </trkpt>
      <trkpt lat="43.68751" lon="6.69362">
        <ele>788.20001220703</ele>
        <time>2019-05-30T08:25:16.000Z</time>
      </trkpt>
      <trkpt lat="43.68748" lon="6.69345">
        <ele>786.59997558594</ele>
        <time>2019-05-30T08:25:19.000Z</time>
      </trkpt>
      <trkpt lat="43.68746" lon="6.6934">
        <ele>786</ele>
        <time>2019-05-30T08:25:20.000Z</time>
      </trkpt>
      <trkpt lat="43.68745" lon="6.69335">
        <ele>785.20001220703</ele>
        <time>2019-05-30T08:25:21.000Z</time>
      </trkpt>
      <trkpt lat="43.68742" lon="6.69332">
        <ele>784</ele>
        <time>2019-05-30T08:25:22.000Z</time>
      </trkpt>
      <trkpt lat="43.68736" lon="6.69325">
        <ele>781.79998779297</ele>
        <time>2019-05-30T08:25:24.000Z</time>
      </trkpt>
      <trkpt lat="43.68733" lon="6.69316">
        <ele>780.20001220703</ele>
        <time>2019-05-30T08:25:26.000Z</time>
      </trkpt>
      <trkpt lat="43.68734" lon="6.69313">
        <ele>779.40002441406</ele>
        <time>2019-05-30T08:25:27.000Z</time>
      </trkpt>
      <trkpt lat="43.68735" lon="6.69311">
        <ele>778.59997558594</ele>
        <time>2019-05-30T08:25:28.000Z</time>
      </trkpt>
      <trkpt lat="43.68741" lon="6.69305">
        <ele>777.40002441406</ele>
        <time>2019-05-30T08:25:30.000Z</time>
      </trkpt>
      <trkpt lat="43.68745" lon="6.69304">
        <ele>776.79998779297</ele>
        <time>2019-05-30T08:25:31.000Z</time>
      </trkpt>
      <trkpt lat="43.68748" lon="6.69305">
        <ele>775.59997558594</ele>
        <time>2019-05-30T08:25:32.000Z</time>
      </trkpt>
      <trkpt lat="43.68757" lon="6.69308">
        <ele>774</ele>
        <time>2019-05-30T08:25:34.000Z</time>
      </trkpt>
      <trkpt lat="43.68761" lon="6.69307">
        <ele>773.20001220703</ele>
        <time>2019-05-30T08:25:35.000Z</time>
      </trkpt>
      <trkpt lat="43.68765" lon="6.69308">
        <ele>771.59997558594</ele>
        <time>2019-05-30T08:25:36.000Z</time>
      </trkpt>
      <trkpt lat="43.68772" lon="6.69309">
        <ele>770</ele>
        <time>2019-05-30T08:25:38.000Z</time>
      </trkpt>
      <trkpt lat="43.68775" lon="6.69309">
        <ele>769.59997558594</ele>
        <time>2019-05-30T08:25:39.000Z</time>
      </trkpt>
      <trkpt lat="43.68776" lon="6.69308">
        <ele>769.20001220703</ele>
        <time>2019-05-30T08:25:40.000Z</time>
      </trkpt>
      <trkpt lat="43.68776" lon="6.69304">
        <ele>768.40002441406</ele>
        <time>2019-05-30T08:25:41.000Z</time>
      </trkpt>
      <trkpt lat="43.68775" lon="6.693">
        <ele>767.40002441406</ele>
        <time>2019-05-30T08:25:42.000Z</time>
      </trkpt>
      <trkpt lat="43.68772" lon="6.69295">
        <ele>766.40002441406</ele>
        <time>2019-05-30T08:25:43.000Z</time>
      </trkpt>
      <trkpt lat="43.68769" lon="6.69283">
        <ele>765.20001220703</ele>
        <time>2019-05-30T08:25:45.000Z</time>
      </trkpt>
      <trkpt lat="43.68767" lon="6.69277">
        <ele>764.40002441406</ele>
        <time>2019-05-30T08:25:46.000Z</time>
      </trkpt>
      <trkpt lat="43.68763" lon="6.69266">
        <ele>764</ele>
        <time>2019-05-30T08:25:48.000Z</time>
      </trkpt>
      <trkpt lat="43.6876" lon="6.69257">
        <ele>762.79998779297</ele>
        <time>2019-05-30T08:25:50.000Z</time>
      </trkpt>
      <trkpt lat="43.68765" lon="6.69253">
        <ele>762</ele>
        <time>2019-05-30T08:25:52.000Z</time>
      </trkpt>
      <trkpt lat="43.68769" lon="6.69253">
        <ele>761.40002441406</ele>
        <time>2019-05-30T08:25:53.000Z</time>
      </trkpt>
      <trkpt lat="43.68779" lon="6.69256">
        <ele>759.59997558594</ele>
        <time>2019-05-30T08:25:55.000Z</time>
      </trkpt>
      <trkpt lat="43.68783" lon="6.69258">
        <ele>758.59997558594</ele>
        <time>2019-05-30T08:25:56.000Z</time>
      </trkpt>
      <trkpt lat="43.6879" lon="6.69263">
        <ele>757.40002441406</ele>
        <time>2019-05-30T08:25:58.000Z</time>
      </trkpt>
      <trkpt lat="43.68793" lon="6.69264">
        <ele>756.20001220703</ele>
        <time>2019-05-30T08:25:59.000Z</time>
      </trkpt>
      <trkpt lat="43.68796" lon="6.69262">
        <ele>755.20001220703</ele>
        <time>2019-05-30T08:26:00.000Z</time>
      </trkpt>
      <trkpt lat="43.68796" lon="6.69258">
        <ele>754.40002441406</ele>
        <time>2019-05-30T08:26:01.000Z</time>
      </trkpt>
      <trkpt lat="43.68795" lon="6.69245">
        <ele>752.79998779297</ele>
        <time>2019-05-30T08:26:03.000Z</time>
      </trkpt>
      <trkpt lat="43.68793" lon="6.69239">
        <ele>752.20001220703</ele>
        <time>2019-05-30T08:26:04.000Z</time>
      </trkpt>
      <trkpt lat="43.68791" lon="6.69235">
        <ele>751.40002441406</ele>
        <time>2019-05-30T08:26:05.000Z</time>
      </trkpt>
      <trkpt lat="43.68785" lon="6.69227">
        <ele>749.40002441406</ele>
        <time>2019-05-30T08:26:07.000Z</time>
      </trkpt>
      <trkpt lat="43.6878" lon="6.69221">
        <ele>748</ele>
        <time>2019-05-30T08:26:09.000Z</time>
      </trkpt>
      <trkpt lat="43.68781" lon="6.69215">
        <ele>745.79998779297</ele>
        <time>2019-05-30T08:26:11.000Z</time>
      </trkpt>
      <trkpt lat="43.68787" lon="6.69214">
        <ele>744.40002441406</ele>
        <time>2019-05-30T08:26:13.000Z</time>
      </trkpt>
      <trkpt lat="43.6879" lon="6.69213">
        <ele>744.20001220703</ele>
        <time>2019-05-30T08:26:14.000Z</time>
      </trkpt>
      <trkpt lat="43.68794" lon="6.69214">
        <ele>743.40002441406</ele>
        <time>2019-05-30T08:26:15.000Z</time>
      </trkpt>
      <trkpt lat="43.688" lon="6.69217">
        <ele>741</ele>
        <time>2019-05-30T08:26:17.000Z</time>
      </trkpt>
      <trkpt lat="43.68803" lon="6.69219">
        <ele>740.59997558594</ele>
        <time>2019-05-30T08:26:18.000Z</time>
      </trkpt>
      <trkpt lat="43.68806" lon="6.69221">
        <ele>739.79998779297</ele>
        <time>2019-05-30T08:26:19.000Z</time>
      </trkpt>
      <trkpt lat="43.6881" lon="6.69224">
        <ele>739</ele>
        <time>2019-05-30T08:26:20.000Z</time>
      </trkpt>
      <trkpt lat="43.68814" lon="6.69227">
        <ele>737.59997558594</ele>
        <time>2019-05-30T08:26:21.000Z</time>
      </trkpt>
      <trkpt lat="43.68816" lon="6.69226">
        <ele>737</ele>
        <time>2019-05-30T08:26:22.000Z</time>
      </trkpt>
      <trkpt lat="43.68817" lon="6.69221">
        <ele>736</ele>
        <time>2019-05-30T08:26:24.000Z</time>
      </trkpt>
      <trkpt lat="43.68815" lon="6.69218">
        <ele>735.20001220703</ele>
        <time>2019-05-30T08:26:25.000Z</time>
      </trkpt>
      <trkpt lat="43.68811" lon="6.69213">
        <ele>735</ele>
        <time>2019-05-30T08:26:27.000Z</time>
      </trkpt>
      <trkpt lat="43.68808" lon="6.69207">
        <ele>733.79998779297</ele>
        <time>2019-05-30T08:26:29.000Z</time>
      </trkpt>
      <trkpt lat="43.68807" lon="6.69198">
        <ele>732.40002441406</ele>
        <time>2019-05-30T08:26:32.000Z</time>
      </trkpt>
      <trkpt lat="43.6881" lon="6.69197">
        <ele>731.59997558594</ele>
        <time>2019-05-30T08:26:33.000Z</time>
      </trkpt>
      <trkpt lat="43.68813" lon="6.69197">
        <ele>731.20001220703</ele>
        <time>2019-05-30T08:26:34.000Z</time>
      </trkpt>
      <trkpt lat="43.68818" lon="6.692">
        <ele>730.20001220703</ele>
        <time>2019-05-30T08:26:36.000Z</time>
      </trkpt>
      <trkpt lat="43.68822" lon="6.69202">
        <ele>729.79998779297</ele>
        <time>2019-05-30T08:26:37.000Z</time>
      </trkpt>
      <trkpt lat="43.68827" lon="6.69201">
        <ele>728.40002441406</ele>
        <time>2019-05-30T08:26:39.000Z</time>
      </trkpt>
      <trkpt lat="43.68827" lon="6.69199">
        <ele>727.79998779297</ele>
        <time>2019-05-30T08:26:40.000Z</time>
      </trkpt>
      <trkpt lat="43.68823" lon="6.69195">
        <ele>727</ele>
        <time>2019-05-30T08:26:42.000Z</time>
      </trkpt>
      <trkpt lat="43.6882" lon="6.69192">
        <ele>726.59997558594</ele>
        <time>2019-05-30T08:26:43.000Z</time>
      </trkpt>
      <trkpt lat="43.68813" lon="6.69187">
        <ele>725.79998779297</ele>
        <time>2019-05-30T08:26:45.000Z</time>
      </trkpt>
      <trkpt lat="43.68811" lon="6.69182">
        <ele>725.20001220703</ele>
        <time>2019-05-30T08:26:46.000Z</time>
      </trkpt>
      <trkpt lat="43.6881" lon="6.69178">
        <ele>724.79998779297</ele>
        <time>2019-05-30T08:26:47.000Z</time>
      </trkpt>
      <trkpt lat="43.68806" lon="6.69172">
        <ele>724.40002441406</ele>
        <time>2019-05-30T08:26:49.000Z</time>
      </trkpt>
      <trkpt lat="43.68804" lon="6.6917">
        <ele>724.40002441406</ele>
        <time>2019-05-30T08:26:50.000Z</time>
      </trkpt>
      <trkpt lat="43.68802" lon="6.69165">
        <ele>724.79998779297</ele>
        <time>2019-05-30T08:26:53.000Z</time>
      </trkpt>
      <trkpt lat="43.68802" lon="6.69165">
        <ele>725</ele>
        <time>2019-05-30T08:26:54.000Z</time>
      </trkpt>
      <trkpt lat="43.68803" lon="6.69163">
        <ele>725.79998779297</ele>
        <time>2019-05-30T08:26:58.000Z</time>
      </trkpt>
      <trkpt lat="43.68805" lon="6.69163">
        <ele>726</ele>
        <time>2019-05-30T08:27:00.000Z</time>
      </trkpt>
      <trkpt lat="43.68809" lon="6.69164">
        <ele>726.79998779297</ele>
        <time>2019-05-30T08:27:07.000Z</time>
      </trkpt>
      <trkpt lat="43.68811" lon="6.69164">
        <ele>727</ele>
        <time>2019-05-30T08:27:08.000Z</time>
      </trkpt>
      <trkpt lat="43.68818" lon="6.69164">
        <ele>728</ele>
        <time>2019-05-30T08:27:14.000Z</time>
      </trkpt>
      <trkpt lat="43.68824" lon="6.69164">
        <ele>729.20001220703</ele>
        <time>2019-05-30T08:27:19.000Z</time>
      </trkpt>
      <trkpt lat="43.68828" lon="6.69163">
        <ele>729.79998779297</ele>
        <time>2019-05-30T08:27:22.000Z</time>
      </trkpt>
      <trkpt lat="43.68831" lon="6.69161">
        <ele>730.20001220703</ele>
        <time>2019-05-30T08:27:24.000Z</time>
      </trkpt>
      <trkpt lat="43.68835" lon="6.69157">
        <ele>731.20001220703</ele>
        <time>2019-05-30T08:27:28.000Z</time>
      </trkpt>
      <trkpt lat="43.68835" lon="6.69156">
        <ele>731.59997558594</ele>
        <time>2019-05-30T08:27:29.000Z</time>
      </trkpt>
      <trkpt lat="43.68837" lon="6.69154">
        <ele>732.20001220703</ele>
        <time>2019-05-30T08:27:32.000Z</time>
      </trkpt>
      <trkpt lat="43.68841" lon="6.6915">
        <ele>733.20001220703</ele>
        <time>2019-05-30T08:27:37.000Z</time>
      </trkpt>
      <trkpt lat="43.68842" lon="6.69149">
        <ele>733.40002441406</ele>
        <time>2019-05-30T08:27:38.000Z</time>
      </trkpt>
      <trkpt lat="43.68846" lon="6.69146">
        <ele>734</ele>
        <time>2019-05-30T08:27:42.000Z</time>
      </trkpt>
      <trkpt lat="43.68848" lon="6.69144">
        <ele>734.59997558594</ele>
        <time>2019-05-30T08:27:45.000Z</time>
      </trkpt>
      <trkpt lat="43.68852" lon="6.6914">
        <ele>735.79998779297</ele>
        <time>2019-05-30T08:27:50.000Z</time>
      </trkpt>
      <trkpt lat="43.68858" lon="6.69135">
        <ele>736.79998779297</ele>
        <time>2019-05-30T08:27:57.000Z</time>
      </trkpt>
      <trkpt lat="43.68858" lon="6.69134">
        <ele>737.20001220703</ele>
        <time>2019-05-30T08:27:58.000Z</time>
      </trkpt>
      <trkpt lat="43.68861" lon="6.69131">
        <ele>738</ele>
        <time>2019-05-30T08:28:03.000Z</time>
      </trkpt>
      <trkpt lat="43.68862" lon="6.69128">
        <ele>738.20001220703</ele>
        <time>2019-05-30T08:28:06.000Z</time>
      </trkpt>
      <trkpt lat="43.68864" lon="6.69124">
        <ele>739</ele>
        <time>2019-05-30T08:28:11.000Z</time>
      </trkpt>
      <trkpt lat="43.68865" lon="6.6912">
        <ele>739.40002441406</ele>
        <time>2019-05-30T08:28:15.000Z</time>
      </trkpt>
      <trkpt lat="43.68866" lon="6.69116">
        <ele>740</ele>
        <time>2019-05-30T08:28:19.000Z</time>
      </trkpt>
      <trkpt lat="43.68866" lon="6.69114">
        <ele>740.59997558594</ele>
        <time>2019-05-30T08:28:22.000Z</time>
      </trkpt>
      <trkpt lat="43.68867" lon="6.69108">
        <ele>741.20001220703</ele>
        <time>2019-05-30T08:28:28.000Z</time>
      </trkpt>
      <trkpt lat="43.68866" lon="6.69107">
        <ele>741.40002441406</ele>
        <time>2019-05-30T08:28:29.000Z</time>
      </trkpt>
      <trkpt lat="43.68867" lon="6.69101">
        <ele>742.20001220703</ele>
        <time>2019-05-30T08:28:35.000Z</time>
      </trkpt>
      <trkpt lat="43.68867" lon="6.691">
        <ele>742.40002441406</ele>
        <time>2019-05-30T08:28:36.000Z</time>
      </trkpt>
      <trkpt lat="43.68868" lon="6.69093">
        <ele>743.20001220703</ele>
        <time>2019-05-30T08:28:43.000Z</time>
      </trkpt>
      <trkpt lat="43.68868" lon="6.69092">
        <ele>743.40002441406</ele>
        <time>2019-05-30T08:28:44.000Z</time>
      </trkpt>
      <trkpt lat="43.68868" lon="6.69086">
        <ele>744.40002441406</ele>
        <time>2019-05-30T08:28:49.000Z</time>
      </trkpt>
      <trkpt lat="43.68867" lon="6.69084">
        <ele>744.59997558594</ele>
        <time>2019-05-30T08:28:51.000Z</time>
      </trkpt>
      <trkpt lat="43.68867" lon="6.69083">
        <ele>745</ele>
        <time>2019-05-30T08:28:52.000Z</time>
      </trkpt>
      <trkpt lat="43.68867" lon="6.6908">
        <ele>745.40002441406</ele>
        <time>2019-05-30T08:28:55.000Z</time>
      </trkpt>
      <trkpt lat="43.68867" lon="6.69077">
        <ele>745.79998779297</ele>
        <time>2019-05-30T08:28:58.000Z</time>
      </trkpt>
      <trkpt lat="43.68866" lon="6.69072">
        <ele>746.59997558594</ele>
        <time>2019-05-30T08:29:04.000Z</time>
      </trkpt>
      <trkpt lat="43.68865" lon="6.6907">
        <ele>746.79998779297</ele>
        <time>2019-05-30T08:29:06.000Z</time>
      </trkpt>
      <trkpt lat="43.68863" lon="6.69064">
        <ele>747.59997558594</ele>
        <time>2019-05-30T08:29:13.000Z</time>
      </trkpt>
      <trkpt lat="43.6886" lon="6.69057">
        <ele>748.79998779297</ele>
        <time>2019-05-30T08:29:19.000Z</time>
      </trkpt>
      <trkpt lat="43.68859" lon="6.69055">
        <ele>749.40002441406</ele>
        <time>2019-05-30T08:29:22.000Z</time>
      </trkpt>
      <trkpt lat="43.68858" lon="6.69052">
        <ele>750</ele>
        <time>2019-05-30T08:29:27.000Z</time>
      </trkpt>
      <trkpt lat="43.68856" lon="6.6905">
        <ele>750.20001220703</ele>
        <time>2019-05-30T08:29:30.000Z</time>
      </trkpt>
      <trkpt lat="43.68854" lon="6.69047">
        <ele>751</ele>
        <time>2019-05-30T08:29:35.000Z</time>
      </trkpt>
      <trkpt lat="43.68852" lon="6.69044">
        <ele>751.40002441406</ele>
        <time>2019-05-30T08:29:39.000Z</time>
      </trkpt>
      <trkpt lat="43.68849" lon="6.69041">
        <ele>752</ele>
        <time>2019-05-30T08:29:44.000Z</time>
      </trkpt>
      <trkpt lat="43.68847" lon="6.69038">
        <ele>752.20001220703</ele>
        <time>2019-05-30T08:29:47.000Z</time>
      </trkpt>
      <trkpt lat="43.68843" lon="6.69035">
        <ele>753</ele>
        <time>2019-05-30T08:29:53.000Z</time>
      </trkpt>
      <trkpt lat="43.68843" lon="6.69035">
        <ele>753.20001220703</ele>
        <time>2019-05-30T08:29:54.000Z</time>
      </trkpt>
      <trkpt lat="43.68842" lon="6.69033">
        <ele>753.59997558594</ele>
        <time>2019-05-30T08:29:57.000Z</time>
      </trkpt>
      <trkpt lat="43.68838" lon="6.69031">
        <ele>754.20001220703</ele>
        <time>2019-05-30T08:30:01.000Z</time>
      </trkpt>
      <trkpt lat="43.68835" lon="6.69031">
        <ele>754.79998779297</ele>
        <time>2019-05-30T08:30:05.000Z</time>
      </trkpt>
      <trkpt lat="43.68834" lon="6.69031">
        <ele>755</ele>
        <time>2019-05-30T08:30:06.000Z</time>
      </trkpt>
      <trkpt lat="43.68833" lon="6.69033">
        <ele>755.20001220703</ele>
        <time>2019-05-30T08:30:09.000Z</time>
      </trkpt>
      <trkpt lat="43.68833" lon="6.69033">
        <ele>755.40002441406</ele>
        <time>2019-05-30T08:30:10.000Z</time>
      </trkpt>
      <trkpt lat="43.68822" lon="6.69041">
        <ele>756</ele>
        <time>2019-05-30T08:30:17.000Z</time>
      </trkpt>
      <trkpt lat="43.68819" lon="6.69044">
        <ele>756.40002441406</ele>
        <time>2019-05-30T08:30:19.000Z</time>
      </trkpt>
      <trkpt lat="43.6881" lon="6.69048">
        <ele>757.59997558594</ele>
        <time>2019-05-30T08:30:24.000Z</time>
      </trkpt>
      <trkpt lat="43.68799" lon="6.69053">
        <ele>759</ele>
        <time>2019-05-30T08:30:29.000Z</time>
      </trkpt>
      <trkpt lat="43.68795" lon="6.69054">
        <ele>759.59997558594</ele>
        <time>2019-05-30T08:30:31.000Z</time>
      </trkpt>
      <trkpt lat="43.68791" lon="6.69053">
        <ele>760.20001220703</ele>
        <time>2019-05-30T08:30:33.000Z</time>
      </trkpt>
      <trkpt lat="43.68785" lon="6.69049">
        <ele>761.20001220703</ele>
        <time>2019-05-30T08:30:37.000Z</time>
      </trkpt>
      <trkpt lat="43.68784" lon="6.69047">
        <ele>761.59997558594</ele>
        <time>2019-05-30T08:30:38.000Z</time>
      </trkpt>
      <trkpt lat="43.68784" lon="6.6904">
        <ele>762.20001220703</ele>
        <time>2019-05-30T08:30:41.000Z</time>
      </trkpt>
      <trkpt lat="43.68784" lon="6.69038">
        <ele>762.40002441406</ele>
        <time>2019-05-30T08:30:42.000Z</time>
      </trkpt>
      <trkpt lat="43.68782" lon="6.69028">
        <ele>763.59997558594</ele>
        <time>2019-05-30T08:30:47.000Z</time>
      </trkpt>
      <trkpt lat="43.68782" lon="6.69026">
        <ele>763.79998779297</ele>
        <time>2019-05-30T08:30:48.000Z</time>
      </trkpt>
      <trkpt lat="43.68782" lon="6.69023">
        <ele>764.59997558594</ele>
        <time>2019-05-30T08:30:50.000Z</time>
      </trkpt>
      <trkpt lat="43.6878" lon="6.69017">
        <ele>765.40002441406</ele>
        <time>2019-05-30T08:30:53.000Z</time>
      </trkpt>
      <trkpt lat="43.6878" lon="6.69015">
        <ele>765.59997558594</ele>
        <time>2019-05-30T08:30:54.000Z</time>
      </trkpt>
      <trkpt lat="43.68775" lon="6.69003">
        <ele>766.59997558594</ele>
        <time>2019-05-30T08:30:59.000Z</time>
      </trkpt>
      <trkpt lat="43.68775" lon="6.69001">
        <ele>766.79998779297</ele>
        <time>2019-05-30T08:31:00.000Z</time>
      </trkpt>
      <trkpt lat="43.68774" lon="6.69">
        <ele>767</ele>
        <time>2019-05-30T08:31:01.000Z</time>
      </trkpt>
      <trkpt lat="43.6877" lon="6.68993">
        <ele>768</ele>
        <time>2019-05-30T08:31:05.000Z</time>
      </trkpt>
      <trkpt lat="43.68767" lon="6.68985">
        <ele>769.20001220703</ele>
        <time>2019-05-30T08:31:10.000Z</time>
      </trkpt>
      <trkpt lat="43.68765" lon="6.6898">
        <ele>769.59997558594</ele>
        <time>2019-05-30T08:31:13.000Z</time>
      </trkpt>
      <trkpt lat="43.68763" lon="6.68972">
        <ele>770.20001220703</ele>
        <time>2019-05-30T08:31:18.000Z</time>
      </trkpt>
      <trkpt lat="43.68762" lon="6.68971">
        <ele>770.40002441406</ele>
        <time>2019-05-30T08:31:19.000Z</time>
      </trkpt>
      <trkpt lat="43.68761" lon="6.68964">
        <ele>771.40002441406</ele>
        <time>2019-05-30T08:31:23.000Z</time>
      </trkpt>
      <trkpt lat="43.6876" lon="6.68961">
        <ele>771.79998779297</ele>
        <time>2019-05-30T08:31:25.000Z</time>
      </trkpt>
      <trkpt lat="43.68758" lon="6.68955">
        <ele>772.40002441406</ele>
        <time>2019-05-30T08:31:28.000Z</time>
      </trkpt>
      <trkpt lat="43.68755" lon="6.68949">
        <ele>773</ele>
        <time>2019-05-30T08:31:32.000Z</time>
      </trkpt>
      <trkpt lat="43.68751" lon="6.68943">
        <ele>773.59997558594</ele>
        <time>2019-05-30T08:31:36.000Z</time>
      </trkpt>
      <trkpt lat="43.68749" lon="6.68938">
        <ele>773.79998779297</ele>
        <time>2019-05-30T08:31:39.000Z</time>
      </trkpt>
      <trkpt lat="43.68747" lon="6.68933">
        <ele>774.59997558594</ele>
        <time>2019-05-30T08:31:42.000Z</time>
      </trkpt>
      <trkpt lat="43.68744" lon="6.68928">
        <ele>775.20001220703</ele>
        <time>2019-05-30T08:31:45.000Z</time>
      </trkpt>
      <trkpt lat="43.68742" lon="6.68923">
        <ele>775.79998779297</ele>
        <time>2019-05-30T08:31:48.000Z</time>
      </trkpt>
      <trkpt lat="43.68739" lon="6.6892">
        <ele>776.20001220703</ele>
        <time>2019-05-30T08:31:50.000Z</time>
      </trkpt>
      <trkpt lat="43.68737" lon="6.68915">
        <ele>776.79998779297</ele>
        <time>2019-05-30T08:31:53.000Z</time>
      </trkpt>
      <trkpt lat="43.68736" lon="6.68913">
        <ele>777</ele>
        <time>2019-05-30T08:31:54.000Z</time>
      </trkpt>
      <trkpt lat="43.68735" lon="6.6891">
        <ele>777.40002441406</ele>
        <time>2019-05-30T08:31:56.000Z</time>
      </trkpt>
      <trkpt lat="43.68733" lon="6.68905">
        <ele>778.20001220703</ele>
        <time>2019-05-30T08:31:59.000Z</time>
      </trkpt>
      <trkpt lat="43.6873" lon="6.689">
        <ele>778.79998779297</ele>
        <time>2019-05-30T08:32:02.000Z</time>
      </trkpt>
      <trkpt lat="43.68728" lon="6.68894">
        <ele>779.20001220703</ele>
        <time>2019-05-30T08:32:05.000Z</time>
      </trkpt>
      <trkpt lat="43.68724" lon="6.68884">
        <ele>780.40002441406</ele>
        <time>2019-05-30T08:32:10.000Z</time>
      </trkpt>
      <trkpt lat="43.68723" lon="6.68881">
        <ele>780.40002441406</ele>
        <time>2019-05-30T08:32:11.000Z</time>
      </trkpt>
      <trkpt lat="43.68718" lon="6.68868">
        <ele>781.40002441406</ele>
        <time>2019-05-30T08:32:17.000Z</time>
      </trkpt>
      <trkpt lat="43.68713" lon="6.68859">
        <ele>782.59997558594</ele>
        <time>2019-05-30T08:32:21.000Z</time>
      </trkpt>
      <trkpt lat="43.68709" lon="6.68852">
        <ele>782.40002441406</ele>
        <time>2019-05-30T08:32:24.000Z</time>
      </trkpt>
      <trkpt lat="43.68699" lon="6.68832">
        <ele>783.40002441406</ele>
        <time>2019-05-30T08:32:31.000Z</time>
      </trkpt>
      <trkpt lat="43.68695" lon="6.68825">
        <ele>783.59997558594</ele>
        <time>2019-05-30T08:32:33.000Z</time>
      </trkpt>
      <trkpt lat="43.68686" lon="6.6881">
        <ele>784.40002441406</ele>
        <time>2019-05-30T08:32:38.000Z</time>
      </trkpt>
      <trkpt lat="43.68683" lon="6.68804">
        <ele>785</ele>
        <time>2019-05-30T08:32:40.000Z</time>
      </trkpt>
      <trkpt lat="43.68674" lon="6.68788">
        <ele>786</ele>
        <time>2019-05-30T08:32:46.000Z</time>
      </trkpt>
      <trkpt lat="43.68659" lon="6.68767">
        <ele>787.40002441406</ele>
        <time>2019-05-30T08:32:54.000Z</time>
      </trkpt>
      <trkpt lat="43.6865" lon="6.68756">
        <ele>788.40002441406</ele>
        <time>2019-05-30T08:32:59.000Z</time>
      </trkpt>
      <trkpt lat="43.68643" lon="6.68747">
        <ele>789.40002441406</ele>
        <time>2019-05-30T08:33:03.000Z</time>
      </trkpt>
      <trkpt lat="43.68641" lon="6.68745">
        <ele>789.59997558594</ele>
        <time>2019-05-30T08:33:04.000Z</time>
      </trkpt>
      <trkpt lat="43.68629" lon="6.6873">
        <ele>791</ele>
        <time>2019-05-30T08:33:11.000Z</time>
      </trkpt>
      <trkpt lat="43.68627" lon="6.68727">
        <ele>791.40002441406</ele>
        <time>2019-05-30T08:33:12.000Z</time>
      </trkpt>
      <trkpt lat="43.68621" lon="6.6872">
        <ele>792</ele>
        <time>2019-05-30T08:33:15.000Z</time>
      </trkpt>
      <trkpt lat="43.68612" lon="6.68708">
        <ele>793</ele>
        <time>2019-05-30T08:33:20.000Z</time>
      </trkpt>
      <trkpt lat="43.6861" lon="6.68706">
        <ele>793.20001220703</ele>
        <time>2019-05-30T08:33:21.000Z</time>
      </trkpt>
      <trkpt lat="43.68601" lon="6.68694">
        <ele>794.40002441406</ele>
        <time>2019-05-30T08:33:26.000Z</time>
      </trkpt>
      <trkpt lat="43.68597" lon="6.68689">
        <ele>795</ele>
        <time>2019-05-30T08:33:28.000Z</time>
      </trkpt>
      <trkpt lat="43.68589" lon="6.68679">
        <ele>795.79998779297</ele>
        <time>2019-05-30T08:33:32.000Z</time>
      </trkpt>
      <trkpt lat="43.68577" lon="6.68664">
        <ele>796.59997558594</ele>
        <time>2019-05-30T08:33:38.000Z</time>
      </trkpt>
      <trkpt lat="43.68573" lon="6.68659">
        <ele>796.79998779297</ele>
        <time>2019-05-30T08:33:40.000Z</time>
      </trkpt>
      <trkpt lat="43.6856" lon="6.68643">
        <ele>797</ele>
        <time>2019-05-30T08:33:46.000Z</time>
      </trkpt>
      <trkpt lat="43.68552" lon="6.68635">
        <ele>797.79998779297</ele>
        <time>2019-05-30T08:33:49.000Z</time>
      </trkpt>
      <trkpt lat="43.68536" lon="6.68617">
        <ele>797.79998779297</ele>
        <time>2019-05-30T08:33:55.000Z</time>
      </trkpt>
      <trkpt lat="43.68507" lon="6.68577">
        <ele>797.79998779297</ele>
        <time>2019-05-30T08:34:04.000Z</time>
      </trkpt>
      <trkpt lat="43.68476" lon="6.68536">
        <ele>797.40002441406</ele>
        <time>2019-05-30T08:34:12.000Z</time>
      </trkpt>
      <trkpt lat="43.68468" lon="6.68524">
        <ele>797.40002441406</ele>
        <time>2019-05-30T08:34:14.000Z</time>
      </trkpt>
      <trkpt lat="43.68457" lon="6.68504">
        <ele>796.79998779297</ele>
        <time>2019-05-30T08:34:17.000Z</time>
      </trkpt>
      <trkpt lat="43.68452" lon="6.68499">
        <ele>796.79998779297</ele>
        <time>2019-05-30T08:34:18.000Z</time>
      </trkpt>
      <trkpt lat="43.68431" lon="6.68471">
        <ele>796.59997558594</ele>
        <time>2019-05-30T08:34:23.000Z</time>
      </trkpt>
      <trkpt lat="43.68413" lon="6.68452">
        <ele>796.79998779297</ele>
        <time>2019-05-30T08:34:27.000Z</time>
      </trkpt>
      <trkpt lat="43.6841" lon="6.68447">
        <ele>796.59997558594</ele>
        <time>2019-05-30T08:34:28.000Z</time>
      </trkpt>
      <trkpt lat="43.68386" lon="6.68412">
        <ele>796.59997558594</ele>
        <time>2019-05-30T08:34:34.000Z</time>
      </trkpt>
      <trkpt lat="43.68382" lon="6.68407">
        <ele>796.59997558594</ele>
        <time>2019-05-30T08:34:35.000Z</time>
      </trkpt>
      <trkpt lat="43.68351" lon="6.68368">
        <ele>796.40002441406</ele>
        <time>2019-05-30T08:34:42.000Z</time>
      </trkpt>
      <trkpt lat="43.68326" lon="6.68331">
        <ele>795.79998779297</ele>
        <time>2019-05-30T08:34:48.000Z</time>
      </trkpt>
      <trkpt lat="43.68316" lon="6.68318">
        <ele>795.59997558594</ele>
        <time>2019-05-30T08:34:50.000Z</time>
      </trkpt>
      <trkpt lat="43.68302" lon="6.68296">
        <ele>794.59997558594</ele>
        <time>2019-05-30T08:34:53.000Z</time>
      </trkpt>
      <trkpt lat="43.68288" lon="6.68275">
        <ele>793.40002441406</ele>
        <time>2019-05-30T08:34:56.000Z</time>
      </trkpt>
      <trkpt lat="43.68256" lon="6.6822">
        <ele>793.59997558594</ele>
        <time>2019-05-30T08:35:03.000Z</time>
      </trkpt>
      <trkpt lat="43.68222" lon="6.6816">
        <ele>792.40002441406</ele>
        <time>2019-05-30T08:35:10.000Z</time>
      </trkpt>
      <trkpt lat="43.68217" lon="6.68151">
        <ele>792.20001220703</ele>
        <time>2019-05-30T08:35:11.000Z</time>
      </trkpt>
      <trkpt lat="43.68206" lon="6.68131">
        <ele>791.20001220703</ele>
        <time>2019-05-30T08:35:13.000Z</time>
      </trkpt>
      <trkpt lat="43.68196" lon="6.68112">
        <ele>790</ele>
        <time>2019-05-30T08:35:15.000Z</time>
      </trkpt>
      <trkpt lat="43.68185" lon="6.68092">
        <ele>788.40002441406</ele>
        <time>2019-05-30T08:35:17.000Z</time>
      </trkpt>
      <trkpt lat="43.68179" lon="6.68082">
        <ele>787.20001220703</ele>
        <time>2019-05-30T08:35:18.000Z</time>
      </trkpt>
      <trkpt lat="43.68168" lon="6.68061">
        <ele>785.59997558594</ele>
        <time>2019-05-30T08:35:20.000Z</time>
      </trkpt>
      <trkpt lat="43.68158" lon="6.68041">
        <ele>784.20001220703</ele>
        <time>2019-05-30T08:35:22.000Z</time>
      </trkpt>
      <trkpt lat="43.68147" lon="6.6802">
        <ele>783</ele>
        <time>2019-05-30T08:35:24.000Z</time>
      </trkpt>
      <trkpt lat="43.68141" lon="6.6801">
        <ele>783</ele>
        <time>2019-05-30T08:35:25.000Z</time>
      </trkpt>
      <trkpt lat="43.68125" lon="6.6798">
        <ele>781.79998779297</ele>
        <time>2019-05-30T08:35:28.000Z</time>
      </trkpt>
      <trkpt lat="43.68109" lon="6.6795">
        <ele>779.79998779297</ele>
        <time>2019-05-30T08:35:31.000Z</time>
      </trkpt>
      <trkpt lat="43.68097" lon="6.67929">
        <ele>778.40002441406</ele>
        <time>2019-05-30T08:35:33.000Z</time>
      </trkpt>
      <trkpt lat="43.68086" lon="6.67909">
        <ele>777</ele>
        <time>2019-05-30T08:35:35.000Z</time>
      </trkpt>
      <trkpt lat="43.68063" lon="6.67869">
        <ele>776</ele>
        <time>2019-05-30T08:35:39.000Z</time>
      </trkpt>
      <trkpt lat="43.68055" lon="6.6785">
        <ele>775.79998779297</ele>
        <time>2019-05-30T08:35:41.000Z</time>
      </trkpt>
      <trkpt lat="43.68045" lon="6.6783">
        <ele>775.40002441406</ele>
        <time>2019-05-30T08:35:43.000Z</time>
      </trkpt>
      <trkpt lat="43.68041" lon="6.67819">
        <ele>774.79998779297</ele>
        <time>2019-05-30T08:35:44.000Z</time>
      </trkpt>
      <trkpt lat="43.68034" lon="6.67799">
        <ele>773.59997558594</ele>
        <time>2019-05-30T08:35:46.000Z</time>
      </trkpt>
      <trkpt lat="43.68027" lon="6.67778">
        <ele>771.79998779297</ele>
        <time>2019-05-30T08:35:48.000Z</time>
      </trkpt>
      <trkpt lat="43.6802" lon="6.67764">
        <ele>770.40002441406</ele>
        <time>2019-05-30T08:35:50.000Z</time>
      </trkpt>
      <trkpt lat="43.68017" lon="6.6776">
        <ele>769.40002441406</ele>
        <time>2019-05-30T08:35:51.000Z</time>
      </trkpt>
      <trkpt lat="43.68008" lon="6.67759">
        <ele>768</ele>
        <time>2019-05-30T08:35:53.000Z</time>
      </trkpt>
      <trkpt lat="43.68003" lon="6.67759">
        <ele>767.40002441406</ele>
        <time>2019-05-30T08:35:54.000Z</time>
      </trkpt>
      <trkpt lat="43.67996" lon="6.6776">
        <ele>766.40002441406</ele>
        <time>2019-05-30T08:35:55.000Z</time>
      </trkpt>
      <trkpt lat="43.67989" lon="6.67762">
        <ele>765.40002441406</ele>
        <time>2019-05-30T08:35:56.000Z</time>
      </trkpt>
      <trkpt lat="43.6798" lon="6.67762">
        <ele>764.20001220703</ele>
        <time>2019-05-30T08:35:57.000Z</time>
      </trkpt>
      <trkpt lat="43.67972" lon="6.67763">
        <ele>762.79998779297</ele>
        <time>2019-05-30T08:35:58.000Z</time>
      </trkpt>
      <trkpt lat="43.67962" lon="6.67764">
        <ele>761.79998779297</ele>
        <time>2019-05-30T08:35:59.000Z</time>
      </trkpt>
      <trkpt lat="43.67952" lon="6.67767">
        <ele>760.20001220703</ele>
        <time>2019-05-30T08:36:00.000Z</time>
      </trkpt>
      <trkpt lat="43.67944" lon="6.67771">
        <ele>759.20001220703</ele>
        <time>2019-05-30T08:36:01.000Z</time>
      </trkpt>
      <trkpt lat="43.67935" lon="6.67776">
        <ele>758</ele>
        <time>2019-05-30T08:36:02.000Z</time>
      </trkpt>
      <trkpt lat="43.67917" lon="6.67785">
        <ele>756.59997558594</ele>
        <time>2019-05-30T08:36:04.000Z</time>
      </trkpt>
      <trkpt lat="43.67901" lon="6.67798">
        <ele>755.79998779297</ele>
        <time>2019-05-30T08:36:06.000Z</time>
      </trkpt>
      <trkpt lat="43.67883" lon="6.67813">
        <ele>755.40002441406</ele>
        <time>2019-05-30T08:36:08.000Z</time>
      </trkpt>
      <trkpt lat="43.67874" lon="6.67819">
        <ele>754.40002441406</ele>
        <time>2019-05-30T08:36:09.000Z</time>
      </trkpt>
      <trkpt lat="43.67848" lon="6.67839">
        <ele>752.20001220703</ele>
        <time>2019-05-30T08:36:12.000Z</time>
      </trkpt>
      <trkpt lat="43.67831" lon="6.67851">
        <ele>750.79998779297</ele>
        <time>2019-05-30T08:36:14.000Z</time>
      </trkpt>
      <trkpt lat="43.67793" lon="6.67875">
        <ele>750.20001220703</ele>
        <time>2019-05-30T08:36:18.000Z</time>
      </trkpt>
      <trkpt lat="43.67774" lon="6.67884">
        <ele>749.79998779297</ele>
        <time>2019-05-30T08:36:20.000Z</time>
      </trkpt>
      <trkpt lat="43.67756" lon="6.67893">
        <ele>748.59997558594</ele>
        <time>2019-05-30T08:36:22.000Z</time>
      </trkpt>
      <trkpt lat="43.67747" lon="6.67898">
        <ele>748.20001220703</ele>
        <time>2019-05-30T08:36:23.000Z</time>
      </trkpt>
      <trkpt lat="43.67741" lon="6.67906">
        <ele>747.59997558594</ele>
        <time>2019-05-30T08:36:24.000Z</time>
      </trkpt>
      <trkpt lat="43.6773" lon="6.67923">
        <ele>746.59997558594</ele>
        <time>2019-05-30T08:36:26.000Z</time>
      </trkpt>
      <trkpt lat="43.67718" lon="6.67937">
        <ele>746.79998779297</ele>
        <time>2019-05-30T08:36:28.000Z</time>
      </trkpt>
      <trkpt lat="43.67703" lon="6.67949">
        <ele>746.79998779297</ele>
        <time>2019-05-30T08:36:30.000Z</time>
      </trkpt>
      <trkpt lat="43.67689" lon="6.67958">
        <ele>746.40002441406</ele>
        <time>2019-05-30T08:36:32.000Z</time>
      </trkpt>
      <trkpt lat="43.67673" lon="6.67962">
        <ele>746</ele>
        <time>2019-05-30T08:36:34.000Z</time>
      </trkpt>
      <trkpt lat="43.67649" lon="6.67959">
        <ele>745</ele>
        <time>2019-05-30T08:36:37.000Z</time>
      </trkpt>
      <trkpt lat="43.6764" lon="6.67959">
        <ele>744.79998779297</ele>
        <time>2019-05-30T08:36:38.000Z</time>
      </trkpt>
      <trkpt lat="43.67616" lon="6.67957">
        <ele>744</ele>
        <time>2019-05-30T08:36:41.000Z</time>
      </trkpt>
      <trkpt lat="43.67599" lon="6.67956">
        <ele>743.20001220703</ele>
        <time>2019-05-30T08:36:43.000Z</time>
      </trkpt>
      <trkpt lat="43.67591" lon="6.67957">
        <ele>743</ele>
        <time>2019-05-30T08:36:44.000Z</time>
      </trkpt>
      <trkpt lat="43.67568" lon="6.67962">
        <ele>742.40002441406</ele>
        <time>2019-05-30T08:36:47.000Z</time>
      </trkpt>
      <trkpt lat="43.67562" lon="6.67964">
        <ele>742.40002441406</ele>
        <time>2019-05-30T08:36:48.000Z</time>
      </trkpt>
      <trkpt lat="43.67556" lon="6.67965">
        <ele>742.59997558594</ele>
        <time>2019-05-30T08:36:49.000Z</time>
      </trkpt>
      <trkpt lat="43.67551" lon="6.67968">
        <ele>742.79998779297</ele>
        <time>2019-05-30T08:36:50.000Z</time>
      </trkpt>
      <trkpt lat="43.67547" lon="6.67969">
        <ele>743</ele>
        <time>2019-05-30T08:36:51.000Z</time>
      </trkpt>
      <trkpt lat="43.67534" lon="6.67974">
        <ele>744.20001220703</ele>
        <time>2019-05-30T08:36:54.000Z</time>
      </trkpt>
      <trkpt lat="43.6753" lon="6.67976">
        <ele>744.40002441406</ele>
        <time>2019-05-30T08:36:55.000Z</time>
      </trkpt>
      <trkpt lat="43.67519" lon="6.67979">
        <ele>745.20001220703</ele>
        <time>2019-05-30T08:36:58.000Z</time>
      </trkpt>
      <trkpt lat="43.67507" lon="6.6798">
        <ele>746.40002441406</ele>
        <time>2019-05-30T08:37:01.000Z</time>
      </trkpt>
      <trkpt lat="43.67494" lon="6.67981">
        <ele>747.59997558594</ele>
        <time>2019-05-30T08:37:04.000Z</time>
      </trkpt>
      <trkpt lat="43.67483" lon="6.6798">
        <ele>748</ele>
        <time>2019-05-30T08:37:07.000Z</time>
      </trkpt>
      <trkpt lat="43.67474" lon="6.67981">
        <ele>748.59997558594</ele>
        <time>2019-05-30T08:37:10.000Z</time>
      </trkpt>
      <trkpt lat="43.67465" lon="6.67982">
        <ele>749.79998779297</ele>
        <time>2019-05-30T08:37:14.000Z</time>
      </trkpt>
      <trkpt lat="43.67454" lon="6.67985">
        <ele>750.79998779297</ele>
        <time>2019-05-30T08:37:19.000Z</time>
      </trkpt>
      <trkpt lat="43.67441" lon="6.67992">
        <ele>751.79998779297</ele>
        <time>2019-05-30T08:37:25.000Z</time>
      </trkpt>
      <trkpt lat="43.6744" lon="6.67994">
        <ele>752</ele>
        <time>2019-05-30T08:37:26.000Z</time>
      </trkpt>
      <trkpt lat="43.67438" lon="6.67996">
        <ele>752.20001220703</ele>
        <time>2019-05-30T08:37:27.000Z</time>
      </trkpt>
      <trkpt lat="43.67426" lon="6.68006">
        <ele>753.20001220703</ele>
        <time>2019-05-30T08:37:34.000Z</time>
      </trkpt>
      <trkpt lat="43.6742" lon="6.68008">
        <ele>753.79998779297</ele>
        <time>2019-05-30T08:37:37.000Z</time>
      </trkpt>
      <trkpt lat="43.67414" lon="6.68007">
        <ele>754.20001220703</ele>
        <time>2019-05-30T08:37:40.000Z</time>
      </trkpt>
      <trkpt lat="43.67398" lon="6.68007">
        <ele>754.79998779297</ele>
        <time>2019-05-30T08:37:46.000Z</time>
      </trkpt>
      <trkpt lat="43.67391" lon="6.68008">
        <ele>755.40002441406</ele>
        <time>2019-05-30T08:37:49.000Z</time>
      </trkpt>
      <trkpt lat="43.67385" lon="6.68009">
        <ele>755.79998779297</ele>
        <time>2019-05-30T08:37:52.000Z</time>
      </trkpt>
      <trkpt lat="43.67381" lon="6.68009">
        <ele>756.40002441406</ele>
        <time>2019-05-30T08:37:54.000Z</time>
      </trkpt>
      <trkpt lat="43.67374" lon="6.68009">
        <ele>757.20001220703</ele>
        <time>2019-05-30T08:37:58.000Z</time>
      </trkpt>
      <trkpt lat="43.67366" lon="6.68009">
        <ele>757.59997558594</ele>
        <time>2019-05-30T08:38:02.000Z</time>
      </trkpt>
      <trkpt lat="43.67362" lon="6.6801">
        <ele>757.79998779297</ele>
        <time>2019-05-30T08:38:04.000Z</time>
      </trkpt>
      <trkpt lat="43.67356" lon="6.68011">
        <ele>758.59997558594</ele>
        <time>2019-05-30T08:38:08.000Z</time>
      </trkpt>
      <trkpt lat="43.67352" lon="6.68013">
        <ele>758.79998779297</ele>
        <time>2019-05-30T08:38:10.000Z</time>
      </trkpt>
      <trkpt lat="43.6734" lon="6.68016">
        <ele>759.59997558594</ele>
        <time>2019-05-30T08:38:15.000Z</time>
      </trkpt>
      <trkpt lat="43.67338" lon="6.68016">
        <ele>760</ele>
        <time>2019-05-30T08:38:16.000Z</time>
      </trkpt>
      <trkpt lat="43.67327" lon="6.68017">
        <ele>760.59997558594</ele>
        <time>2019-05-30T08:38:21.000Z</time>
      </trkpt>
      <trkpt lat="43.6732" lon="6.6802">
        <ele>761.40002441406</ele>
        <time>2019-05-30T08:38:25.000Z</time>
      </trkpt>
      <trkpt lat="43.67318" lon="6.68021">
        <ele>761.79998779297</ele>
        <time>2019-05-30T08:38:26.000Z</time>
      </trkpt>
      <trkpt lat="43.67309" lon="6.68025">
        <ele>762.79998779297</ele>
        <time>2019-05-30T08:38:31.000Z</time>
      </trkpt>
      <trkpt lat="43.67308" lon="6.68026">
        <ele>763</ele>
        <time>2019-05-30T08:38:32.000Z</time>
      </trkpt>
      <trkpt lat="43.67301" lon="6.68026">
        <ele>764</ele>
        <time>2019-05-30T08:38:36.000Z</time>
      </trkpt>
      <trkpt lat="43.67296" lon="6.68025">
        <ele>764.40002441406</ele>
        <time>2019-05-30T08:38:39.000Z</time>
      </trkpt>
      <trkpt lat="43.67292" lon="6.68025">
        <ele>765</ele>
        <time>2019-05-30T08:38:42.000Z</time>
      </trkpt>
      <trkpt lat="43.67288" lon="6.68025">
        <ele>765.79998779297</ele>
        <time>2019-05-30T08:38:45.000Z</time>
      </trkpt>
      <trkpt lat="43.67285" lon="6.68026">
        <ele>766.20001220703</ele>
        <time>2019-05-30T08:38:47.000Z</time>
      </trkpt>
      <trkpt lat="43.67283" lon="6.68027">
        <ele>766.20001220703</ele>
        <time>2019-05-30T08:38:48.000Z</time>
      </trkpt>
      <trkpt lat="43.67279" lon="6.68028">
        <ele>766.79998779297</ele>
        <time>2019-05-30T08:38:51.000Z</time>
      </trkpt>
      <trkpt lat="43.67277" lon="6.68028">
        <ele>767.40002441406</ele>
        <time>2019-05-30T08:38:53.000Z</time>
      </trkpt>
      <trkpt lat="43.67271" lon="6.68031">
        <ele>768.20001220703</ele>
        <time>2019-05-30T08:38:57.000Z</time>
      </trkpt>
      <trkpt lat="43.67269" lon="6.68032">
        <ele>768.40002441406</ele>
        <time>2019-05-30T08:38:58.000Z</time>
      </trkpt>
      <trkpt lat="43.67262" lon="6.68038">
        <ele>769.40002441406</ele>
        <time>2019-05-30T08:39:04.000Z</time>
      </trkpt>
      <trkpt lat="43.67253" lon="6.68042">
        <ele>770.59997558594</ele>
        <time>2019-05-30T08:39:11.000Z</time>
      </trkpt>
      <trkpt lat="43.67244" lon="6.68047">
        <ele>771.79998779297</ele>
        <time>2019-05-30T08:39:18.000Z</time>
      </trkpt>
      <trkpt lat="43.67243" lon="6.68046">
        <ele>772</ele>
        <time>2019-05-30T08:39:19.000Z</time>
      </trkpt>
      <trkpt lat="43.67239" lon="6.68045">
        <ele>773</ele>
        <time>2019-05-30T08:39:22.000Z</time>
      </trkpt>
      <trkpt lat="43.67232" lon="6.68041">
        <ele>773.59997558594</ele>
        <time>2019-05-30T08:39:27.000Z</time>
      </trkpt>
      <trkpt lat="43.67228" lon="6.68039">
        <ele>774</ele>
        <time>2019-05-30T08:39:30.000Z</time>
      </trkpt>
      <trkpt lat="43.67221" lon="6.68037">
        <ele>774.79998779297</ele>
        <time>2019-05-30T08:39:35.000Z</time>
      </trkpt>
      <trkpt lat="43.6722" lon="6.68037">
        <ele>775</ele>
        <time>2019-05-30T08:39:36.000Z</time>
      </trkpt>
      <trkpt lat="43.67213" lon="6.6804">
        <ele>776</ele>
        <time>2019-05-30T08:39:42.000Z</time>
      </trkpt>
      <trkpt lat="43.67212" lon="6.68041">
        <ele>776</ele>
        <time>2019-05-30T08:39:43.000Z</time>
      </trkpt>
      <trkpt lat="43.67207" lon="6.68047">
        <ele>777.20001220703</ele>
        <time>2019-05-30T08:39:48.000Z</time>
      </trkpt>
      <trkpt lat="43.67204" lon="6.6805">
        <ele>777.40002441406</ele>
        <time>2019-05-30T08:39:51.000Z</time>
      </trkpt>
      <trkpt lat="43.67199" lon="6.68056">
        <ele>778.20001220703</ele>
        <time>2019-05-30T08:39:56.000Z</time>
      </trkpt>
      <trkpt lat="43.67191" lon="6.68064">
        <ele>779.20001220703</ele>
        <time>2019-05-30T08:40:03.000Z</time>
      </trkpt>
      <trkpt lat="43.67189" lon="6.68065">
        <ele>779.40002441406</ele>
        <time>2019-05-30T08:40:04.000Z</time>
      </trkpt>
      <trkpt lat="43.6718" lon="6.68065">
        <ele>780.20001220703</ele>
        <time>2019-05-30T08:40:10.000Z</time>
      </trkpt>
      <trkpt lat="43.67169" lon="6.68064">
        <ele>781.40002441406</ele>
        <time>2019-05-30T08:40:18.000Z</time>
      </trkpt>
      <trkpt lat="43.67157" lon="6.68061">
        <ele>782.40002441406</ele>
        <time>2019-05-30T08:40:26.000Z</time>
      </trkpt>
      <trkpt lat="43.67143" lon="6.68057">
        <ele>783.40002441406</ele>
        <time>2019-05-30T08:40:32.000Z</time>
      </trkpt>
      <trkpt lat="43.67123" lon="6.68059">
        <ele>784.59997558594</ele>
        <time>2019-05-30T08:40:39.000Z</time>
      </trkpt>
      <trkpt lat="43.67108" lon="6.68062">
        <ele>785</ele>
        <time>2019-05-30T08:40:44.000Z</time>
      </trkpt>
      <trkpt lat="43.67092" lon="6.68066">
        <ele>785.79998779297</ele>
        <time>2019-05-30T08:40:49.000Z</time>
      </trkpt>
      <trkpt lat="43.67089" lon="6.68066">
        <ele>786</ele>
        <time>2019-05-30T08:40:50.000Z</time>
      </trkpt>
      <trkpt lat="43.67069" lon="6.68064">
        <ele>786.20001220703</ele>
        <time>2019-05-30T08:40:56.000Z</time>
      </trkpt>
      <trkpt lat="43.6705" lon="6.68054">
        <ele>785.59997558594</ele>
        <time>2019-05-30T08:41:01.000Z</time>
      </trkpt>
      <trkpt lat="43.67046" lon="6.68052">
        <ele>785.79998779297</ele>
        <time>2019-05-30T08:41:02.000Z</time>
      </trkpt>
      <trkpt lat="43.67031" lon="6.68047">
        <ele>784.79998779297</ele>
        <time>2019-05-30T08:41:06.000Z</time>
      </trkpt>
      <trkpt lat="43.67024" lon="6.68042">
        <ele>784</ele>
        <time>2019-05-30T08:41:08.000Z</time>
      </trkpt>
      <trkpt lat="43.67015" lon="6.68038">
        <ele>783.59997558594</ele>
        <time>2019-05-30T08:41:10.000Z</time>
      </trkpt>
      <trkpt lat="43.67" lon="6.6803">
        <ele>783.20001220703</ele>
        <time>2019-05-30T08:41:13.000Z</time>
      </trkpt>
      <trkpt lat="43.66986" lon="6.68021">
        <ele>782.79998779297</ele>
        <time>2019-05-30T08:41:16.000Z</time>
      </trkpt>
      <trkpt lat="43.6698" lon="6.68019">
        <ele>782.59997558594</ele>
        <time>2019-05-30T08:41:17.000Z</time>
      </trkpt>
      <trkpt lat="43.66975" lon="6.68016">
        <ele>782.20001220703</ele>
        <time>2019-05-30T08:41:18.000Z</time>
      </trkpt>
      <trkpt lat="43.6697" lon="6.68013">
        <ele>782</ele>
        <time>2019-05-30T08:41:19.000Z</time>
      </trkpt>
      <trkpt lat="43.66955" lon="6.68003">
        <ele>781.40002441406</ele>
        <time>2019-05-30T08:41:22.000Z</time>
      </trkpt>
      <trkpt lat="43.6695" lon="6.67999">
        <ele>781</ele>
        <time>2019-05-30T08:41:23.000Z</time>
      </trkpt>
      <trkpt lat="43.66937" lon="6.67992">
        <ele>780.20001220703</ele>
        <time>2019-05-30T08:41:25.000Z</time>
      </trkpt>
      <trkpt lat="43.66924" lon="6.67986">
        <ele>779</ele>
        <time>2019-05-30T08:41:27.000Z</time>
      </trkpt>
      <trkpt lat="43.6691" lon="6.67978">
        <ele>777.40002441406</ele>
        <time>2019-05-30T08:41:29.000Z</time>
      </trkpt>
      <trkpt lat="43.66897" lon="6.67972">
        <ele>775.79998779297</ele>
        <time>2019-05-30T08:41:31.000Z</time>
      </trkpt>
      <trkpt lat="43.66889" lon="6.67963">
        <ele>774.20001220703</ele>
        <time>2019-05-30T08:41:33.000Z</time>
      </trkpt>
      <trkpt lat="43.66884" lon="6.67952">
        <ele>773</ele>
        <time>2019-05-30T08:41:35.000Z</time>
      </trkpt>
      <trkpt lat="43.66882" lon="6.67946">
        <ele>773</ele>
        <time>2019-05-30T08:41:36.000Z</time>
      </trkpt>
      <trkpt lat="43.66881" lon="6.67938">
        <ele>772.40002441406</ele>
        <time>2019-05-30T08:41:37.000Z</time>
      </trkpt>
      <trkpt lat="43.6688" lon="6.6793">
        <ele>771.40002441406</ele>
        <time>2019-05-30T08:41:38.000Z</time>
      </trkpt>
      <trkpt lat="43.66874" lon="6.67903">
        <ele>770</ele>
        <time>2019-05-30T08:41:42.000Z</time>
      </trkpt>
      <trkpt lat="43.66868" lon="6.67898">
        <ele>768.79998779297</ele>
        <time>2019-05-30T08:41:44.000Z</time>
      </trkpt>
      <trkpt lat="43.66865" lon="6.67899">
        <ele>768</ele>
        <time>2019-05-30T08:41:45.000Z</time>
      </trkpt>
      <trkpt lat="43.66857" lon="6.67907">
        <ele>767.79998779297</ele>
        <time>2019-05-30T08:41:47.000Z</time>
      </trkpt>
      <trkpt lat="43.66849" lon="6.67915">
        <ele>766.40002441406</ele>
        <time>2019-05-30T08:41:49.000Z</time>
      </trkpt>
      <trkpt lat="43.66843" lon="6.67925">
        <ele>765.20001220703</ele>
        <time>2019-05-30T08:41:51.000Z</time>
      </trkpt>
      <trkpt lat="43.66839" lon="6.67929">
        <ele>764.20001220703</ele>
        <time>2019-05-30T08:41:52.000Z</time>
      </trkpt>
      <trkpt lat="43.66832" lon="6.67937">
        <ele>763.20001220703</ele>
        <time>2019-05-30T08:41:54.000Z</time>
      </trkpt>
      <trkpt lat="43.66828" lon="6.67939">
        <ele>762.40002441406</ele>
        <time>2019-05-30T08:41:56.000Z</time>
      </trkpt>
      <trkpt lat="43.66825" lon="6.67936">
        <ele>761.79998779297</ele>
        <time>2019-05-30T08:41:58.000Z</time>
      </trkpt>
      <trkpt lat="43.66823" lon="6.67923">
        <ele>760.59997558594</ele>
        <time>2019-05-30T08:42:01.000Z</time>
      </trkpt>
      <trkpt lat="43.66821" lon="6.67916">
        <ele>760</ele>
        <time>2019-05-30T08:42:02.000Z</time>
      </trkpt>
      <trkpt lat="43.66816" lon="6.679">
        <ele>759.40002441406</ele>
        <time>2019-05-30T08:42:04.000Z</time>
      </trkpt>
      <trkpt lat="43.66811" lon="6.67884">
        <ele>758</ele>
        <time>2019-05-30T08:42:06.000Z</time>
      </trkpt>
      <trkpt lat="43.66806" lon="6.67866">
        <ele>756.40002441406</ele>
        <time>2019-05-30T08:42:08.000Z</time>
      </trkpt>
      <trkpt lat="43.66802" lon="6.67849">
        <ele>755.59997558594</ele>
        <time>2019-05-30T08:42:10.000Z</time>
      </trkpt>
      <trkpt lat="43.66798" lon="6.67832">
        <ele>755.20001220703</ele>
        <time>2019-05-30T08:42:12.000Z</time>
      </trkpt>
      <trkpt lat="43.66793" lon="6.67807">
        <ele>754</ele>
        <time>2019-05-30T08:42:15.000Z</time>
      </trkpt>
      <trkpt lat="43.66782" lon="6.67791">
        <ele>752.40002441406</ele>
        <time>2019-05-30T08:42:18.000Z</time>
      </trkpt>
      <trkpt lat="43.6678" lon="6.67772">
        <ele>751.40002441406</ele>
        <time>2019-05-30T08:42:21.000Z</time>
      </trkpt>
      <trkpt lat="43.66776" lon="6.67766">
        <ele>750.40002441406</ele>
        <time>2019-05-30T08:42:22.000Z</time>
      </trkpt>
      <trkpt lat="43.66772" lon="6.6776">
        <ele>749.79998779297</ele>
        <time>2019-05-30T08:42:23.000Z</time>
      </trkpt>
      <trkpt lat="43.66768" lon="6.67753">
        <ele>749.40002441406</ele>
        <time>2019-05-30T08:42:24.000Z</time>
      </trkpt>
      <trkpt lat="43.6676" lon="6.67738">
        <ele>748.79998779297</ele>
        <time>2019-05-30T08:42:26.000Z</time>
      </trkpt>
      <trkpt lat="43.66755" lon="6.6772">
        <ele>748</ele>
        <time>2019-05-30T08:42:28.000Z</time>
      </trkpt>
      <trkpt lat="43.66753" lon="6.67711">
        <ele>747.79998779297</ele>
        <time>2019-05-30T08:42:29.000Z</time>
      </trkpt>
      <trkpt lat="43.66749" lon="6.67694">
        <ele>747.20001220703</ele>
        <time>2019-05-30T08:42:31.000Z</time>
      </trkpt>
      <trkpt lat="43.66742" lon="6.67681">
        <ele>746.79998779297</ele>
        <time>2019-05-30T08:42:33.000Z</time>
      </trkpt>
      <trkpt lat="43.66728" lon="6.6767">
        <ele>747.20001220703</ele>
        <time>2019-05-30T08:42:36.000Z</time>
      </trkpt>
      <trkpt lat="43.66716" lon="6.67648">
        <ele>747.20001220703</ele>
        <time>2019-05-30T08:42:39.000Z</time>
      </trkpt>
      <trkpt lat="43.66713" lon="6.67641">
        <ele>746.59997558594</ele>
        <time>2019-05-30T08:42:40.000Z</time>
      </trkpt>
      <trkpt lat="43.6671" lon="6.67634">
        <ele>746.40002441406</ele>
        <time>2019-05-30T08:42:41.000Z</time>
      </trkpt>
      <trkpt lat="43.66702" lon="6.67621">
        <ele>745.40002441406</ele>
        <time>2019-05-30T08:42:43.000Z</time>
      </trkpt>
      <trkpt lat="43.66699" lon="6.67613">
        <ele>745.40002441406</ele>
        <time>2019-05-30T08:42:44.000Z</time>
      </trkpt>
      <trkpt lat="43.6669" lon="6.67593">
        <ele>745</ele>
        <time>2019-05-30T08:42:47.000Z</time>
      </trkpt>
      <trkpt lat="43.66685" lon="6.67581">
        <ele>745.20001220703</ele>
        <time>2019-05-30T08:42:49.000Z</time>
      </trkpt>
      <trkpt lat="43.66682" lon="6.67567">
        <ele>745</ele>
        <time>2019-05-30T08:42:51.000Z</time>
      </trkpt>
      <trkpt lat="43.6668" lon="6.67561">
        <ele>745</ele>
        <time>2019-05-30T08:42:52.000Z</time>
      </trkpt>
      <trkpt lat="43.66675" lon="6.67543">
        <ele>745.59997558594</ele>
        <time>2019-05-30T08:42:55.000Z</time>
      </trkpt>
      <trkpt lat="43.66668" lon="6.6752">
        <ele>746.59997558594</ele>
        <time>2019-05-30T08:43:00.000Z</time>
      </trkpt>
      <trkpt lat="43.66661" lon="6.675">
        <ele>747.59997558594</ele>
        <time>2019-05-30T08:43:05.000Z</time>
      </trkpt>
      <trkpt lat="43.6666" lon="6.67495">
        <ele>747.59997558594</ele>
        <time>2019-05-30T08:43:06.000Z</time>
      </trkpt>
      <trkpt lat="43.66656" lon="6.67485">
        <ele>748</ele>
        <time>2019-05-30T08:43:09.000Z</time>
      </trkpt>
      <trkpt lat="43.66648" lon="6.67469">
        <ele>748.59997558594</ele>
        <time>2019-05-30T08:43:14.000Z</time>
      </trkpt>
      <trkpt lat="43.66646" lon="6.67466">
        <ele>749</ele>
        <time>2019-05-30T08:43:15.000Z</time>
      </trkpt>
      <trkpt lat="43.66641" lon="6.67457">
        <ele>749.79998779297</ele>
        <time>2019-05-30T08:43:19.000Z</time>
      </trkpt>
      <trkpt lat="43.66636" lon="6.67447">
        <ele>750.20001220703</ele>
        <time>2019-05-30T08:43:23.000Z</time>
      </trkpt>
      <trkpt lat="43.66633" lon="6.67438">
        <ele>751</ele>
        <time>2019-05-30T08:43:26.000Z</time>
      </trkpt>
      <trkpt lat="43.66631" lon="6.67435">
        <ele>751.20001220703</ele>
        <time>2019-05-30T08:43:27.000Z</time>
      </trkpt>
      <trkpt lat="43.66621" lon="6.67419">
        <ele>751.59997558594</ele>
        <time>2019-05-30T08:43:31.000Z</time>
      </trkpt>
      <trkpt lat="43.66612" lon="6.67404">
        <ele>751.59997558594</ele>
        <time>2019-05-30T08:43:35.000Z</time>
      </trkpt>
      <trkpt lat="43.66608" lon="6.67396">
        <ele>751.40002441406</ele>
        <time>2019-05-30T08:43:37.000Z</time>
      </trkpt>
      <trkpt lat="43.66605" lon="6.67385">
        <ele>751.59997558594</ele>
        <time>2019-05-30T08:43:39.000Z</time>
      </trkpt>
      <trkpt lat="43.66604" lon="6.67356">
        <ele>751.59997558594</ele>
        <time>2019-05-30T08:43:44.000Z</time>
      </trkpt>
      <trkpt lat="43.66602" lon="6.67343">
        <ele>751.79998779297</ele>
        <time>2019-05-30T08:43:46.000Z</time>
      </trkpt>
      <trkpt lat="43.66601" lon="6.6733">
        <ele>752</ele>
        <time>2019-05-30T08:43:48.000Z</time>
      </trkpt>
      <trkpt lat="43.666" lon="6.67323">
        <ele>751.79998779297</ele>
        <time>2019-05-30T08:43:49.000Z</time>
      </trkpt>
      <trkpt lat="43.66593" lon="6.67283">
        <ele>751.40002441406</ele>
        <time>2019-05-30T08:43:55.000Z</time>
      </trkpt>
      <trkpt lat="43.66592" lon="6.67277">
        <ele>751.59997558594</ele>
        <time>2019-05-30T08:43:56.000Z</time>
      </trkpt>
      <trkpt lat="43.66591" lon="6.67271">
        <ele>751.59997558594</ele>
        <time>2019-05-30T08:43:57.000Z</time>
      </trkpt>
      <trkpt lat="43.66584" lon="6.67253">
        <ele>751.59997558594</ele>
        <time>2019-05-30T08:44:00.000Z</time>
      </trkpt>
      <trkpt lat="43.66572" lon="6.67242">
        <ele>751.20001220703</ele>
        <time>2019-05-30T08:44:02.000Z</time>
      </trkpt>
      <trkpt lat="43.66565" lon="6.67236">
        <ele>750.40002441406</ele>
        <time>2019-05-30T08:44:03.000Z</time>
      </trkpt>
      <trkpt lat="43.66558" lon="6.6723">
        <ele>749.59997558594</ele>
        <time>2019-05-30T08:44:04.000Z</time>
      </trkpt>
      <trkpt lat="43.6655" lon="6.67222">
        <ele>748</ele>
        <time>2019-05-30T08:44:05.000Z</time>
      </trkpt>
      <trkpt lat="43.66543" lon="6.67214">
        <ele>746.59997558594</ele>
        <time>2019-05-30T08:44:06.000Z</time>
      </trkpt>
      <trkpt lat="43.66537" lon="6.67204">
        <ele>745</ele>
        <time>2019-05-30T08:44:07.000Z</time>
      </trkpt>
      <trkpt lat="43.66532" lon="6.67194">
        <ele>743.59997558594</ele>
        <time>2019-05-30T08:44:08.000Z</time>
      </trkpt>
      <trkpt lat="43.66524" lon="6.67176">
        <ele>742.79998779297</ele>
        <time>2019-05-30T08:44:10.000Z</time>
      </trkpt>
      <trkpt lat="43.66521" lon="6.67169">
        <ele>742</ele>
        <time>2019-05-30T08:44:11.000Z</time>
      </trkpt>
      <trkpt lat="43.66513" lon="6.67151">
        <ele>742.79998779297</ele>
        <time>2019-05-30T08:44:14.000Z</time>
      </trkpt>
      <trkpt lat="43.6651" lon="6.67147">
        <ele>743.20001220703</ele>
        <time>2019-05-30T08:44:15.000Z</time>
      </trkpt>
      <trkpt lat="43.66505" lon="6.67139">
        <ele>744.59997558594</ele>
        <time>2019-05-30T08:44:17.000Z</time>
      </trkpt>
      <trkpt lat="43.66501" lon="6.67131">
        <ele>744.79998779297</ele>
        <time>2019-05-30T08:44:19.000Z</time>
      </trkpt>
      <trkpt lat="43.66484" lon="6.67089">
        <ele>745.40002441406</ele>
        <time>2019-05-30T08:44:27.000Z</time>
      </trkpt>
      <trkpt lat="43.66478" lon="6.67067">
        <ele>745.20001220703</ele>
        <time>2019-05-30T08:44:30.000Z</time>
      </trkpt>
      <trkpt lat="43.66472" lon="6.67043">
        <ele>744.59997558594</ele>
        <time>2019-05-30T08:44:33.000Z</time>
      </trkpt>
      <trkpt lat="43.66467" lon="6.67025">
        <ele>744.40002441406</ele>
        <time>2019-05-30T08:44:35.000Z</time>
      </trkpt>
      <trkpt lat="43.66463" lon="6.67005">
        <ele>743.79998779297</ele>
        <time>2019-05-30T08:44:37.000Z</time>
      </trkpt>
      <trkpt lat="43.66461" lon="6.66995">
        <ele>743.20001220703</ele>
        <time>2019-05-30T08:44:38.000Z</time>
      </trkpt>
      <trkpt lat="43.66457" lon="6.66977">
        <ele>741.40002441406</ele>
        <time>2019-05-30T08:44:40.000Z</time>
      </trkpt>
      <trkpt lat="43.6645" lon="6.66959">
        <ele>740</ele>
        <time>2019-05-30T08:44:42.000Z</time>
      </trkpt>
      <trkpt lat="43.66432" lon="6.66933">
        <ele>739.59997558594</ele>
        <time>2019-05-30T08:44:46.000Z</time>
      </trkpt>
      <trkpt lat="43.66416" lon="6.66927">
        <ele>740.20001220703</ele>
        <time>2019-05-30T08:44:49.000Z</time>
      </trkpt>
      <trkpt lat="43.66407" lon="6.66937">
        <ele>740.59997558594</ele>
        <time>2019-05-30T08:44:51.000Z</time>
      </trkpt>
      <trkpt lat="43.66403" lon="6.66944">
        <ele>740.20001220703</ele>
        <time>2019-05-30T08:44:52.000Z</time>
      </trkpt>
      <trkpt lat="43.66398" lon="6.66951">
        <ele>740</ele>
        <time>2019-05-30T08:44:53.000Z</time>
      </trkpt>
      <trkpt lat="43.66385" lon="6.66963">
        <ele>739</ele>
        <time>2019-05-30T08:44:55.000Z</time>
      </trkpt>
      <trkpt lat="43.66378" lon="6.66966">
        <ele>738.20001220703</ele>
        <time>2019-05-30T08:44:56.000Z</time>
      </trkpt>
      <trkpt lat="43.6637" lon="6.66971">
        <ele>737.59997558594</ele>
        <time>2019-05-30T08:44:57.000Z</time>
      </trkpt>
      <trkpt lat="43.66356" lon="6.66984">
        <ele>736</ele>
        <time>2019-05-30T08:44:59.000Z</time>
      </trkpt>
      <trkpt lat="43.66343" lon="6.66998">
        <ele>734.79998779297</ele>
        <time>2019-05-30T08:45:01.000Z</time>
      </trkpt>
      <trkpt lat="43.66336" lon="6.67005">
        <ele>734.20001220703</ele>
        <time>2019-05-30T08:45:02.000Z</time>
      </trkpt>
      <trkpt lat="43.66329" lon="6.6701">
        <ele>733.79998779297</ele>
        <time>2019-05-30T08:45:03.000Z</time>
      </trkpt>
      <trkpt lat="43.66312" lon="6.67025">
        <ele>732.79998779297</ele>
        <time>2019-05-30T08:45:06.000Z</time>
      </trkpt>
      <trkpt lat="43.66306" lon="6.67025">
        <ele>732.40002441406</ele>
        <time>2019-05-30T08:45:07.000Z</time>
      </trkpt>
      <trkpt lat="43.66296" lon="6.67017">
        <ele>732.40002441406</ele>
        <time>2019-05-30T08:45:09.000Z</time>
      </trkpt>
      <trkpt lat="43.6628" lon="6.66991">
        <ele>732.79998779297</ele>
        <time>2019-05-30T08:45:13.000Z</time>
      </trkpt>
      <trkpt lat="43.66256" lon="6.6698">
        <ele>731.79998779297</ele>
        <time>2019-05-30T08:45:17.000Z</time>
      </trkpt>
      <trkpt lat="43.6625" lon="6.66978">
        <ele>731.79998779297</ele>
        <time>2019-05-30T08:45:18.000Z</time>
      </trkpt>
      <trkpt lat="43.66229" lon="6.6697">
        <ele>731.40002441406</ele>
        <time>2019-05-30T08:45:22.000Z</time>
      </trkpt>
      <trkpt lat="43.66225" lon="6.66967">
        <ele>731.20001220703</ele>
        <time>2019-05-30T08:45:23.000Z</time>
      </trkpt>
      <trkpt lat="43.66217" lon="6.66962">
        <ele>730.79998779297</ele>
        <time>2019-05-30T08:45:25.000Z</time>
      </trkpt>
      <trkpt lat="43.66211" lon="6.6696">
        <ele>729.59997558594</ele>
        <time>2019-05-30T08:45:27.000Z</time>
      </trkpt>
      <trkpt lat="43.66208" lon="6.66959">
        <ele>729.59997558594</ele>
        <time>2019-05-30T08:45:28.000Z</time>
      </trkpt>
      <trkpt lat="43.66191" lon="6.66952">
        <ele>729.20001220703</ele>
        <time>2019-05-30T08:45:33.000Z</time>
      </trkpt>
      <trkpt lat="43.66185" lon="6.6695">
        <ele>728.20001220703</ele>
        <time>2019-05-30T08:45:35.000Z</time>
      </trkpt>
      <trkpt lat="43.6617" lon="6.66951">
        <ele>727.40002441406</ele>
        <time>2019-05-30T08:45:39.000Z</time>
      </trkpt>
      <trkpt lat="43.66152" lon="6.66953">
        <ele>727.59997558594</ele>
        <time>2019-05-30T08:45:43.000Z</time>
      </trkpt>
      <trkpt lat="43.66149" lon="6.66952">
        <ele>727.59997558594</ele>
        <time>2019-05-30T08:45:44.000Z</time>
      </trkpt>
      <trkpt lat="43.66141" lon="6.6694">
        <ele>726.79998779297</ele>
        <time>2019-05-30T08:45:47.000Z</time>
      </trkpt>
      <trkpt lat="43.66138" lon="6.66935">
        <ele>726.20001220703</ele>
        <time>2019-05-30T08:45:48.000Z</time>
      </trkpt>
      <trkpt lat="43.66134" lon="6.66932">
        <ele>725.59997558594</ele>
        <time>2019-05-30T08:45:49.000Z</time>
      </trkpt>
      <trkpt lat="43.66126" lon="6.66927">
        <ele>725.40002441406</ele>
        <time>2019-05-30T08:45:51.000Z</time>
      </trkpt>
      <trkpt lat="43.66123" lon="6.66922">
        <ele>725.40002441406</ele>
        <time>2019-05-30T08:45:52.000Z</time>
      </trkpt>
      <trkpt lat="43.66119" lon="6.66913">
        <ele>725.40002441406</ele>
        <time>2019-05-30T08:45:54.000Z</time>
      </trkpt>
      <trkpt lat="43.66113" lon="6.66896">
        <ele>725.59997558594</ele>
        <time>2019-05-30T08:45:57.000Z</time>
      </trkpt>
      <trkpt lat="43.66109" lon="6.66877">
        <ele>725.59997558594</ele>
        <time>2019-05-30T08:46:00.000Z</time>
      </trkpt>
      <trkpt lat="43.66106" lon="6.66846">
        <ele>725.59997558594</ele>
        <time>2019-05-30T08:46:05.000Z</time>
      </trkpt>
      <trkpt lat="43.66106" lon="6.6684">
        <ele>725.79998779297</ele>
        <time>2019-05-30T08:46:06.000Z</time>
      </trkpt>
      <trkpt lat="43.66103" lon="6.66814">
        <ele>726.20001220703</ele>
        <time>2019-05-30T08:46:10.000Z</time>
      </trkpt>
      <trkpt lat="43.66102" lon="6.66809">
        <ele>726.20001220703</ele>
        <time>2019-05-30T08:46:11.000Z</time>
      </trkpt>
      <trkpt lat="43.661" lon="6.66793">
        <ele>726</ele>
        <time>2019-05-30T08:46:14.000Z</time>
      </trkpt>
      <trkpt lat="43.66088" lon="6.66786">
        <ele>725.79998779297</ele>
        <time>2019-05-30T08:46:17.000Z</time>
      </trkpt>
      <trkpt lat="43.66084" lon="6.66786">
        <ele>725.40002441406</ele>
        <time>2019-05-30T08:46:18.000Z</time>
      </trkpt>
      <trkpt lat="43.66075" lon="6.66787">
        <ele>725.20001220703</ele>
        <time>2019-05-30T08:46:20.000Z</time>
      </trkpt>
      <trkpt lat="43.66068" lon="6.66792">
        <ele>725</ele>
        <time>2019-05-30T08:46:22.000Z</time>
      </trkpt>
      <trkpt lat="43.66061" lon="6.66796">
        <ele>724.20001220703</ele>
        <time>2019-05-30T08:46:24.000Z</time>
      </trkpt>
      <trkpt lat="43.66057" lon="6.66794">
        <ele>724.20001220703</ele>
        <time>2019-05-30T08:46:25.000Z</time>
      </trkpt>
      <trkpt lat="43.66047" lon="6.66787">
        <ele>723.20001220703</ele>
        <time>2019-05-30T08:46:28.000Z</time>
      </trkpt>
      <trkpt lat="43.66042" lon="6.66791">
        <ele>723</ele>
        <time>2019-05-30T08:46:30.000Z</time>
      </trkpt>
      <trkpt lat="43.66039" lon="6.66792">
        <ele>722.59997558594</ele>
        <time>2019-05-30T08:46:31.000Z</time>
      </trkpt>
      <trkpt lat="43.66029" lon="6.66786">
        <ele>722</ele>
        <time>2019-05-30T08:46:34.000Z</time>
      </trkpt>
      <trkpt lat="43.6603" lon="6.66773">
        <ele>721.20001220703</ele>
        <time>2019-05-30T08:46:37.000Z</time>
      </trkpt>
      <trkpt lat="43.66031" lon="6.66769">
        <ele>720.79998779297</ele>
        <time>2019-05-30T08:46:38.000Z</time>
      </trkpt>
      <trkpt lat="43.66037" lon="6.66753">
        <ele>720.79998779297</ele>
        <time>2019-05-30T08:46:42.000Z</time>
      </trkpt>
      <trkpt lat="43.66039" lon="6.66745">
        <ele>721</ele>
        <time>2019-05-30T08:46:44.000Z</time>
      </trkpt>
      <trkpt lat="43.6604" lon="6.66741">
        <ele>721</ele>
        <time>2019-05-30T08:46:45.000Z</time>
      </trkpt>
      <trkpt lat="43.6604" lon="6.66731">
        <ele>720.79998779297</ele>
        <time>2019-05-30T08:46:47.000Z</time>
      </trkpt>
      <trkpt lat="43.66039" lon="6.66719">
        <ele>721</ele>
        <time>2019-05-30T08:46:49.000Z</time>
      </trkpt>
      <trkpt lat="43.66037" lon="6.667">
        <ele>721.40002441406</ele>
        <time>2019-05-30T08:46:52.000Z</time>
      </trkpt>
      <trkpt lat="43.66024" lon="6.66648">
        <ele>721</ele>
        <time>2019-05-30T08:47:00.000Z</time>
      </trkpt>
      <trkpt lat="43.66003" lon="6.66598">
        <ele>721</ele>
        <time>2019-05-30T08:47:08.000Z</time>
      </trkpt>
      <trkpt lat="43.65995" lon="6.66587">
        <ele>720.79998779297</ele>
        <time>2019-05-30T08:47:10.000Z</time>
      </trkpt>
      <trkpt lat="43.65984" lon="6.6657">
        <ele>720</ele>
        <time>2019-05-30T08:47:13.000Z</time>
      </trkpt>
      <trkpt lat="43.65981" lon="6.66565">
        <ele>719.79998779297</ele>
        <time>2019-05-30T08:47:14.000Z</time>
      </trkpt>
      <trkpt lat="43.65968" lon="6.66557">
        <ele>719.79998779297</ele>
        <time>2019-05-30T08:47:17.000Z</time>
      </trkpt>
      <trkpt lat="43.65954" lon="6.6656">
        <ele>719.79998779297</ele>
        <time>2019-05-30T08:47:20.000Z</time>
      </trkpt>
      <trkpt lat="43.65949" lon="6.66559">
        <ele>719.59997558594</ele>
        <time>2019-05-30T08:47:21.000Z</time>
      </trkpt>
      <trkpt lat="43.65946" lon="6.66554">
        <ele>719</ele>
        <time>2019-05-30T08:47:22.000Z</time>
      </trkpt>
      <trkpt lat="43.65943" lon="6.66549">
        <ele>718.79998779297</ele>
        <time>2019-05-30T08:47:23.000Z</time>
      </trkpt>
      <trkpt lat="43.65923" lon="6.66519">
        <ele>718.59997558594</ele>
        <time>2019-05-30T08:47:30.000Z</time>
      </trkpt>
      <trkpt lat="43.65898" lon="6.66487">
        <ele>718.40002441406</ele>
        <time>2019-05-30T08:47:38.000Z</time>
      </trkpt>
      <trkpt lat="43.65889" lon="6.66474">
        <ele>718.20001220703</ele>
        <time>2019-05-30T08:47:41.000Z</time>
      </trkpt>
      <trkpt lat="43.65883" lon="6.66462">
        <ele>718.40002441406</ele>
        <time>2019-05-30T08:47:43.000Z</time>
      </trkpt>
      <trkpt lat="43.65872" lon="6.66438">
        <ele>717.59997558594</ele>
        <time>2019-05-30T08:47:47.000Z</time>
      </trkpt>
      <trkpt lat="43.65869" lon="6.66432">
        <ele>717.40002441406</ele>
        <time>2019-05-30T08:47:48.000Z</time>
      </trkpt>
      <trkpt lat="43.65861" lon="6.66423">
        <ele>717.20001220703</ele>
        <time>2019-05-30T08:47:50.000Z</time>
      </trkpt>
      <trkpt lat="43.6585" lon="6.66422">
        <ele>717</ele>
        <time>2019-05-30T08:47:52.000Z</time>
      </trkpt>
      <trkpt lat="43.65845" lon="6.66424">
        <ele>716.79998779297</ele>
        <time>2019-05-30T08:47:53.000Z</time>
      </trkpt>
      <trkpt lat="43.6584" lon="6.66427">
        <ele>716.40002441406</ele>
        <time>2019-05-30T08:47:54.000Z</time>
      </trkpt>
      <trkpt lat="43.65821" lon="6.66446">
        <ele>715.79998779297</ele>
        <time>2019-05-30T08:47:58.000Z</time>
      </trkpt>
      <trkpt lat="43.65812" lon="6.66456">
        <ele>715.79998779297</ele>
        <time>2019-05-30T08:48:00.000Z</time>
      </trkpt>
      <trkpt lat="43.65797" lon="6.6648">
        <ele>715.59997558594</ele>
        <time>2019-05-30T08:48:04.000Z</time>
      </trkpt>
      <trkpt lat="43.65793" lon="6.66486">
        <ele>715.40002441406</ele>
        <time>2019-05-30T08:48:05.000Z</time>
      </trkpt>
      <trkpt lat="43.65769" lon="6.66526">
        <ele>715.40002441406</ele>
        <time>2019-05-30T08:48:12.000Z</time>
      </trkpt>
      <trkpt lat="43.65753" lon="6.66553">
        <ele>716.79998779297</ele>
        <time>2019-05-30T08:48:17.000Z</time>
      </trkpt>
      <trkpt lat="43.65735" lon="6.66581">
        <ele>716.40002441406</ele>
        <time>2019-05-30T08:48:22.000Z</time>
      </trkpt>
      <trkpt lat="43.65732" lon="6.66587">
        <ele>716.20001220703</ele>
        <time>2019-05-30T08:48:23.000Z</time>
      </trkpt>
      <trkpt lat="43.65723" lon="6.66604">
        <ele>716</ele>
        <time>2019-05-30T08:48:26.000Z</time>
      </trkpt>
      <trkpt lat="43.65719" lon="6.66605">
        <ele>716.59997558594</ele>
        <time>2019-05-30T08:48:27.000Z</time>
      </trkpt>
      <trkpt lat="43.65704" lon="6.66598">
        <ele>717.40002441406</ele>
        <time>2019-05-30T08:48:30.000Z</time>
      </trkpt>
      <trkpt lat="43.65675" lon="6.6657">
        <ele>716</ele>
        <time>2019-05-30T08:48:36.000Z</time>
      </trkpt>
      <trkpt lat="43.65669" lon="6.66566">
        <ele>715.59997558594</ele>
        <time>2019-05-30T08:48:37.000Z</time>
      </trkpt>
      <trkpt lat="43.65651" lon="6.66555">
        <ele>714.59997558594</ele>
        <time>2019-05-30T08:48:40.000Z</time>
      </trkpt>
      <trkpt lat="43.65635" lon="6.66543">
        <ele>714.20001220703</ele>
        <time>2019-05-30T08:48:43.000Z</time>
      </trkpt>
      <trkpt lat="43.65625" lon="6.66536">
        <ele>713.59997558594</ele>
        <time>2019-05-30T08:48:45.000Z</time>
      </trkpt>
      <trkpt lat="43.65615" lon="6.66532">
        <ele>713.40002441406</ele>
        <time>2019-05-30T08:48:47.000Z</time>
      </trkpt>
      <trkpt lat="43.65604" lon="6.66531">
        <ele>713.20001220703</ele>
        <time>2019-05-30T08:48:49.000Z</time>
      </trkpt>
      <trkpt lat="43.65584" lon="6.66529">
        <ele>714.40002441406</ele>
        <time>2019-05-30T08:48:53.000Z</time>
      </trkpt>
      <trkpt lat="43.65579" lon="6.66528">
        <ele>714.59997558594</ele>
        <time>2019-05-30T08:48:54.000Z</time>
      </trkpt>
      <trkpt lat="43.65566" lon="6.66521">
        <ele>714</ele>
        <time>2019-05-30T08:48:57.000Z</time>
      </trkpt>
      <trkpt lat="43.65561" lon="6.66519">
        <ele>713.59997558594</ele>
        <time>2019-05-30T08:48:58.000Z</time>
      </trkpt>
      <trkpt lat="43.65535" lon="6.66504">
        <ele>712.59997558594</ele>
        <time>2019-05-30T08:49:03.000Z</time>
      </trkpt>
      <trkpt lat="43.65529" lon="6.665">
        <ele>712.59997558594</ele>
        <time>2019-05-30T08:49:04.000Z</time>
      </trkpt>
      <trkpt lat="43.65507" lon="6.66489">
        <ele>712.40002441406</ele>
        <time>2019-05-30T08:49:08.000Z</time>
      </trkpt>
      <trkpt lat="43.65502" lon="6.66486">
        <ele>712.20001220703</ele>
        <time>2019-05-30T08:49:09.000Z</time>
      </trkpt>
      <trkpt lat="43.65486" lon="6.66474">
        <ele>711.59997558594</ele>
        <time>2019-05-30T08:49:12.000Z</time>
      </trkpt>
      <trkpt lat="43.65481" lon="6.6647">
        <ele>711.20001220703</ele>
        <time>2019-05-30T08:49:13.000Z</time>
      </trkpt>
      <trkpt lat="43.65475" lon="6.66465">
        <ele>710.79998779297</ele>
        <time>2019-05-30T08:49:14.000Z</time>
      </trkpt>
      <trkpt lat="43.65464" lon="6.66459">
        <ele>710.20001220703</ele>
        <time>2019-05-30T08:49:16.000Z</time>
      </trkpt>
      <trkpt lat="43.65459" lon="6.66455">
        <ele>709.79998779297</ele>
        <time>2019-05-30T08:49:17.000Z</time>
      </trkpt>
      <trkpt lat="43.6545" lon="6.66445">
        <ele>709.79998779297</ele>
        <time>2019-05-30T08:49:19.000Z</time>
      </trkpt>
      <trkpt lat="43.65434" lon="6.66425">
        <ele>709</ele>
        <time>2019-05-30T08:49:24.000Z</time>
      </trkpt>
      <trkpt lat="43.65431" lon="6.66419">
        <ele>709.20001220703</ele>
        <time>2019-05-30T08:49:28.000Z</time>
      </trkpt>
      <trkpt lat="43.65424" lon="6.66413">
        <ele>709</ele>
        <time>2019-05-30T08:49:32.000Z</time>
      </trkpt>
      <trkpt lat="43.65421" lon="6.6641">
        <ele>709</ele>
        <time>2019-05-30T08:49:33.000Z</time>
      </trkpt>
      <trkpt lat="43.65413" lon="6.66393">
        <ele>709</ele>
        <time>2019-05-30T08:49:36.000Z</time>
      </trkpt>
      <trkpt lat="43.65408" lon="6.66365">
        <ele>708.40002441406</ele>
        <time>2019-05-30T08:49:40.000Z</time>
      </trkpt>
      <trkpt lat="43.65409" lon="6.66358">
        <ele>708.40002441406</ele>
        <time>2019-05-30T08:49:41.000Z</time>
      </trkpt>
      <trkpt lat="43.65413" lon="6.66321">
        <ele>708</ele>
        <time>2019-05-30T08:49:45.000Z</time>
      </trkpt>
      <trkpt lat="43.65415" lon="6.663">
        <ele>706.79998779297</ele>
        <time>2019-05-30T08:49:47.000Z</time>
      </trkpt>
      <trkpt lat="43.65416" lon="6.66277">
        <ele>705.40002441406</ele>
        <time>2019-05-30T08:49:49.000Z</time>
      </trkpt>
      <trkpt lat="43.65415" lon="6.66266">
        <ele>704.59997558594</ele>
        <time>2019-05-30T08:49:50.000Z</time>
      </trkpt>
      <trkpt lat="43.65413" lon="6.66254">
        <ele>703.79998779297</ele>
        <time>2019-05-30T08:49:51.000Z</time>
      </trkpt>
      <trkpt lat="43.65407" lon="6.66231">
        <ele>702.40002441406</ele>
        <time>2019-05-30T08:49:53.000Z</time>
      </trkpt>
      <trkpt lat="43.65404" lon="6.66219">
        <ele>702</ele>
        <time>2019-05-30T08:49:54.000Z</time>
      </trkpt>
      <trkpt lat="43.65391" lon="6.66173">
        <ele>701.20001220703</ele>
        <time>2019-05-30T08:49:58.000Z</time>
      </trkpt>
      <trkpt lat="43.65381" lon="6.66136">
        <ele>699.79998779297</ele>
        <time>2019-05-30T08:50:01.000Z</time>
      </trkpt>
      <trkpt lat="43.65378" lon="6.66113">
        <ele>698.79998779297</ele>
        <time>2019-05-30T08:50:03.000Z</time>
      </trkpt>
      <trkpt lat="43.6538" lon="6.661">
        <ele>698.20001220703</ele>
        <time>2019-05-30T08:50:04.000Z</time>
      </trkpt>
      <trkpt lat="43.65388" lon="6.66078">
        <ele>697.20001220703</ele>
        <time>2019-05-30T08:50:06.000Z</time>
      </trkpt>
      <trkpt lat="43.65401" lon="6.66044">
        <ele>696</ele>
        <time>2019-05-30T08:50:09.000Z</time>
      </trkpt>
      <trkpt lat="43.6541" lon="6.66022">
        <ele>695</ele>
        <time>2019-05-30T08:50:11.000Z</time>
      </trkpt>
      <trkpt lat="43.65419" lon="6.65999">
        <ele>694</ele>
        <time>2019-05-30T08:50:13.000Z</time>
      </trkpt>
      <trkpt lat="43.65427" lon="6.65981">
        <ele>692.79998779297</ele>
        <time>2019-05-30T08:50:15.000Z</time>
      </trkpt>
      <trkpt lat="43.65437" lon="6.65955">
        <ele>691.40002441406</ele>
        <time>2019-05-30T08:50:18.000Z</time>
      </trkpt>
      <trkpt lat="43.65443" lon="6.65939">
        <ele>691.20001220703</ele>
        <time>2019-05-30T08:50:20.000Z</time>
      </trkpt>
      <trkpt lat="43.65444" lon="6.65932">
        <ele>691</ele>
        <time>2019-05-30T08:50:21.000Z</time>
      </trkpt>
      <trkpt lat="43.65436" lon="6.6592">
        <ele>690.59997558594</ele>
        <time>2019-05-30T08:50:23.000Z</time>
      </trkpt>
      <trkpt lat="43.6543" lon="6.6592">
        <ele>690.20001220703</ele>
        <time>2019-05-30T08:50:24.000Z</time>
      </trkpt>
      <trkpt lat="43.65425" lon="6.65923">
        <ele>689.79998779297</ele>
        <time>2019-05-30T08:50:25.000Z</time>
      </trkpt>
      <trkpt lat="43.65414" lon="6.65937">
        <ele>689</ele>
        <time>2019-05-30T08:50:27.000Z</time>
      </trkpt>
      <trkpt lat="43.65402" lon="6.65953">
        <ele>688</ele>
        <time>2019-05-30T08:50:29.000Z</time>
      </trkpt>
      <trkpt lat="43.65396" lon="6.6596">
        <ele>687.59997558594</ele>
        <time>2019-05-30T08:50:30.000Z</time>
      </trkpt>
      <trkpt lat="43.65383" lon="6.65972">
        <ele>686.40002441406</ele>
        <time>2019-05-30T08:50:32.000Z</time>
      </trkpt>
      <trkpt lat="43.65376" lon="6.65976">
        <ele>685.79998779297</ele>
        <time>2019-05-30T08:50:33.000Z</time>
      </trkpt>
      <trkpt lat="43.65358" lon="6.65977">
        <ele>685.20001220703</ele>
        <time>2019-05-30T08:50:35.000Z</time>
      </trkpt>
      <trkpt lat="43.6535" lon="6.65976">
        <ele>684.79998779297</ele>
        <time>2019-05-30T08:50:36.000Z</time>
      </trkpt>
      <trkpt lat="43.65332" lon="6.65972">
        <ele>684</ele>
        <time>2019-05-30T08:50:38.000Z</time>
      </trkpt>
      <trkpt lat="43.65315" lon="6.65969">
        <ele>682.79998779297</ele>
        <time>2019-05-30T08:50:40.000Z</time>
      </trkpt>
      <trkpt lat="43.65307" lon="6.65969">
        <ele>682.20001220703</ele>
        <time>2019-05-30T08:50:41.000Z</time>
      </trkpt>
      <trkpt lat="43.65298" lon="6.65973">
        <ele>681.79998779297</ele>
        <time>2019-05-30T08:50:42.000Z</time>
      </trkpt>
      <trkpt lat="43.65278" lon="6.65996">
        <ele>680.40002441406</ele>
        <time>2019-05-30T08:50:45.000Z</time>
      </trkpt>
      <trkpt lat="43.65244" lon="6.66039">
        <ele>679.40002441406</ele>
        <time>2019-05-30T08:50:50.000Z</time>
      </trkpt>
      <trkpt lat="43.65238" lon="6.66047">
        <ele>678.79998779297</ele>
        <time>2019-05-30T08:50:51.000Z</time>
      </trkpt>
      <trkpt lat="43.65224" lon="6.66065">
        <ele>677.20001220703</ele>
        <time>2019-05-30T08:50:53.000Z</time>
      </trkpt>
      <trkpt lat="43.65218" lon="6.66075">
        <ele>676.20001220703</ele>
        <time>2019-05-30T08:50:54.000Z</time>
      </trkpt>
      <trkpt lat="43.65205" lon="6.66092">
        <ele>675</ele>
        <time>2019-05-30T08:50:56.000Z</time>
      </trkpt>
      <trkpt lat="43.65184" lon="6.66113">
        <ele>673.40002441406</ele>
        <time>2019-05-30T08:50:59.000Z</time>
      </trkpt>
      <trkpt lat="43.65176" lon="6.66116">
        <ele>672.79998779297</ele>
        <time>2019-05-30T08:51:00.000Z</time>
      </trkpt>
      <trkpt lat="43.65169" lon="6.66114">
        <ele>672.40002441406</ele>
        <time>2019-05-30T08:51:01.000Z</time>
      </trkpt>
      <trkpt lat="43.65162" lon="6.66108">
        <ele>671.79998779297</ele>
        <time>2019-05-30T08:51:02.000Z</time>
      </trkpt>
      <trkpt lat="43.65151" lon="6.6609">
        <ele>671.59997558594</ele>
        <time>2019-05-30T08:51:04.000Z</time>
      </trkpt>
      <trkpt lat="43.65145" lon="6.66081">
        <ele>671.20001220703</ele>
        <time>2019-05-30T08:51:05.000Z</time>
      </trkpt>
      <trkpt lat="43.65127" lon="6.66054">
        <ele>670.20001220703</ele>
        <time>2019-05-30T08:51:08.000Z</time>
      </trkpt>
      <trkpt lat="43.65121" lon="6.66048">
        <ele>669.59997558594</ele>
        <time>2019-05-30T08:51:09.000Z</time>
      </trkpt>
      <trkpt lat="43.65113" lon="6.66042">
        <ele>669.20001220703</ele>
        <time>2019-05-30T08:51:10.000Z</time>
      </trkpt>
      <trkpt lat="43.65096" lon="6.66035">
        <ele>668.20001220703</ele>
        <time>2019-05-30T08:51:12.000Z</time>
      </trkpt>
      <trkpt lat="43.65077" lon="6.66032">
        <ele>667.20001220703</ele>
        <time>2019-05-30T08:51:14.000Z</time>
      </trkpt>
      <trkpt lat="43.65069" lon="6.66032">
        <ele>666.79998779297</ele>
        <time>2019-05-30T08:51:15.000Z</time>
      </trkpt>
      <trkpt lat="43.65049" lon="6.66034">
        <ele>666</ele>
        <time>2019-05-30T08:51:17.000Z</time>
      </trkpt>
      <trkpt lat="43.6504" lon="6.66033">
        <ele>665.59997558594</ele>
        <time>2019-05-30T08:51:18.000Z</time>
      </trkpt>
      <trkpt lat="43.6503" lon="6.66032">
        <ele>665</ele>
        <time>2019-05-30T08:51:19.000Z</time>
      </trkpt>
      <trkpt lat="43.65004" lon="6.66025">
        <ele>663.59997558594</ele>
        <time>2019-05-30T08:51:22.000Z</time>
      </trkpt>
      <trkpt lat="43.64993" lon="6.66022">
        <ele>663</ele>
        <time>2019-05-30T08:51:23.000Z</time>
      </trkpt>
      <trkpt lat="43.64983" lon="6.6602">
        <ele>662.40002441406</ele>
        <time>2019-05-30T08:51:24.000Z</time>
      </trkpt>
      <trkpt lat="43.64935" lon="6.66005">
        <ele>661.20001220703</ele>
        <time>2019-05-30T08:51:29.000Z</time>
      </trkpt>
      <trkpt lat="43.64917" lon="6.65999">
        <ele>659</ele>
        <time>2019-05-30T08:51:31.000Z</time>
      </trkpt>
      <trkpt lat="43.64907" lon="6.65995">
        <ele>657</ele>
        <time>2019-05-30T08:51:32.000Z</time>
      </trkpt>
      <trkpt lat="43.64888" lon="6.65991">
        <ele>656</ele>
        <time>2019-05-30T08:51:34.000Z</time>
      </trkpt>
      <trkpt lat="43.64879" lon="6.6599">
        <ele>656</ele>
        <time>2019-05-30T08:51:35.000Z</time>
      </trkpt>
      <trkpt lat="43.6485" lon="6.65995">
        <ele>654.59997558594</ele>
        <time>2019-05-30T08:51:38.000Z</time>
      </trkpt>
      <trkpt lat="43.64842" lon="6.65997">
        <ele>653.79998779297</ele>
        <time>2019-05-30T08:51:39.000Z</time>
      </trkpt>
      <trkpt lat="43.64831" lon="6.65999">
        <ele>653</ele>
        <time>2019-05-30T08:51:40.000Z</time>
      </trkpt>
      <trkpt lat="43.64812" lon="6.66003">
        <ele>651.59997558594</ele>
        <time>2019-05-30T08:51:42.000Z</time>
      </trkpt>
      <trkpt lat="43.64792" lon="6.66005">
        <ele>650.40002441406</ele>
        <time>2019-05-30T08:51:44.000Z</time>
      </trkpt>
      <trkpt lat="43.64772" lon="6.66007">
        <ele>648.59997558594</ele>
        <time>2019-05-30T08:51:46.000Z</time>
      </trkpt>
      <trkpt lat="43.6475" lon="6.66007">
        <ele>647.20001220703</ele>
        <time>2019-05-30T08:51:48.000Z</time>
      </trkpt>
      <trkpt lat="43.64729" lon="6.66003">
        <ele>645.79998779297</ele>
        <time>2019-05-30T08:51:50.000Z</time>
      </trkpt>
      <trkpt lat="43.6472" lon="6.66001">
        <ele>645.20001220703</ele>
        <time>2019-05-30T08:51:51.000Z</time>
      </trkpt>
      <trkpt lat="43.64708" lon="6.65998">
        <ele>644.20001220703</ele>
        <time>2019-05-30T08:51:52.000Z</time>
      </trkpt>
      <trkpt lat="43.64687" lon="6.65996">
        <ele>642.79998779297</ele>
        <time>2019-05-30T08:51:54.000Z</time>
      </trkpt>
      <trkpt lat="43.64677" lon="6.65996">
        <ele>641.59997558594</ele>
        <time>2019-05-30T08:51:55.000Z</time>
      </trkpt>
      <trkpt lat="43.6466" lon="6.65994">
        <ele>640.40002441406</ele>
        <time>2019-05-30T08:51:57.000Z</time>
      </trkpt>
      <trkpt lat="43.64653" lon="6.65989">
        <ele>639.59997558594</ele>
        <time>2019-05-30T08:51:58.000Z</time>
      </trkpt>
      <trkpt lat="43.64649" lon="6.6598">
        <ele>639</ele>
        <time>2019-05-30T08:51:59.000Z</time>
      </trkpt>
      <trkpt lat="43.64648" lon="6.65969">
        <ele>638.79998779297</ele>
        <time>2019-05-30T08:52:00.000Z</time>
      </trkpt>
      <trkpt lat="43.64648" lon="6.65958">
        <ele>638.59997558594</ele>
        <time>2019-05-30T08:52:01.000Z</time>
      </trkpt>
      <trkpt lat="43.64648" lon="6.65921">
        <ele>639.79998779297</ele>
        <time>2019-05-30T08:52:04.000Z</time>
      </trkpt>
      <trkpt lat="43.64652" lon="6.65894">
        <ele>639.40002441406</ele>
        <time>2019-05-30T08:52:06.000Z</time>
      </trkpt>
      <trkpt lat="43.64661" lon="6.65869">
        <ele>637.59997558594</ele>
        <time>2019-05-30T08:52:08.000Z</time>
      </trkpt>
      <trkpt lat="43.64666" lon="6.65859">
        <ele>636.59997558594</ele>
        <time>2019-05-30T08:52:09.000Z</time>
      </trkpt>
      <trkpt lat="43.64671" lon="6.65848">
        <ele>635</ele>
        <time>2019-05-30T08:52:10.000Z</time>
      </trkpt>
      <trkpt lat="43.64675" lon="6.65837">
        <ele>633.79998779297</ele>
        <time>2019-05-30T08:52:11.000Z</time>
      </trkpt>
      <trkpt lat="43.6468" lon="6.65826">
        <ele>632.79998779297</ele>
        <time>2019-05-30T08:52:12.000Z</time>
      </trkpt>
      <trkpt lat="43.64683" lon="6.65815">
        <ele>631.20001220703</ele>
        <time>2019-05-30T08:52:13.000Z</time>
      </trkpt>
      <trkpt lat="43.6468" lon="6.65794">
        <ele>630</ele>
        <time>2019-05-30T08:52:15.000Z</time>
      </trkpt>
      <trkpt lat="43.64666" lon="6.65779">
        <ele>628.40002441406</ele>
        <time>2019-05-30T08:52:17.000Z</time>
      </trkpt>
      <trkpt lat="43.64649" lon="6.65771">
        <ele>627.59997558594</ele>
        <time>2019-05-30T08:52:19.000Z</time>
      </trkpt>
      <trkpt lat="43.64639" lon="6.65767">
        <ele>626.79998779297</ele>
        <time>2019-05-30T08:52:20.000Z</time>
      </trkpt>
      <trkpt lat="43.64631" lon="6.65764">
        <ele>626.40002441406</ele>
        <time>2019-05-30T08:52:21.000Z</time>
      </trkpt>
      <trkpt lat="43.6461" lon="6.65754">
        <ele>624.79998779297</ele>
        <time>2019-05-30T08:52:23.000Z</time>
      </trkpt>
      <trkpt lat="43.64601" lon="6.65746">
        <ele>623.79998779297</ele>
        <time>2019-05-30T08:52:24.000Z</time>
      </trkpt>
      <trkpt lat="43.64594" lon="6.65737">
        <ele>622.79998779297</ele>
        <time>2019-05-30T08:52:25.000Z</time>
      </trkpt>
      <trkpt lat="43.64589" lon="6.65726">
        <ele>621.79998779297</ele>
        <time>2019-05-30T08:52:26.000Z</time>
      </trkpt>
      <trkpt lat="43.64586" lon="6.65713">
        <ele>621</ele>
        <time>2019-05-30T08:52:27.000Z</time>
      </trkpt>
      <trkpt lat="43.64585" lon="6.65697">
        <ele>620.40002441406</ele>
        <time>2019-05-30T08:52:28.000Z</time>
      </trkpt>
      <trkpt lat="43.64586" lon="6.65683">
        <ele>620</ele>
        <time>2019-05-30T08:52:29.000Z</time>
      </trkpt>
      <trkpt lat="43.64586" lon="6.65668">
        <ele>619.79998779297</ele>
        <time>2019-05-30T08:52:30.000Z</time>
      </trkpt>
      <trkpt lat="43.64585" lon="6.65654">
        <ele>619.20001220703</ele>
        <time>2019-05-30T08:52:31.000Z</time>
      </trkpt>
      <trkpt lat="43.64578" lon="6.65626">
        <ele>617.79998779297</ele>
        <time>2019-05-30T08:52:33.000Z</time>
      </trkpt>
      <trkpt lat="43.64567" lon="6.65599">
        <ele>616.20001220703</ele>
        <time>2019-05-30T08:52:35.000Z</time>
      </trkpt>
      <trkpt lat="43.6456" lon="6.65588">
        <ele>615.20001220703</ele>
        <time>2019-05-30T08:52:36.000Z</time>
      </trkpt>
      <trkpt lat="43.64551" lon="6.65578">
        <ele>614.40002441406</ele>
        <time>2019-05-30T08:52:37.000Z</time>
      </trkpt>
      <trkpt lat="43.64542" lon="6.65571">
        <ele>613.40002441406</ele>
        <time>2019-05-30T08:52:38.000Z</time>
      </trkpt>
      <trkpt lat="43.64534" lon="6.65563">
        <ele>612.40002441406</ele>
        <time>2019-05-30T08:52:39.000Z</time>
      </trkpt>
      <trkpt lat="43.64512" lon="6.65529">
        <ele>611.20001220703</ele>
        <time>2019-05-30T08:52:42.000Z</time>
      </trkpt>
      <trkpt lat="43.64493" lon="6.65492">
        <ele>609.40002441406</ele>
        <time>2019-05-30T08:52:45.000Z</time>
      </trkpt>
      <trkpt lat="43.64487" lon="6.6548">
        <ele>608.40002441406</ele>
        <time>2019-05-30T08:52:46.000Z</time>
      </trkpt>
      <trkpt lat="43.64481" lon="6.65466">
        <ele>607.20001220703</ele>
        <time>2019-05-30T08:52:47.000Z</time>
      </trkpt>
      <trkpt lat="43.64476" lon="6.65453">
        <ele>606</ele>
        <time>2019-05-30T08:52:48.000Z</time>
      </trkpt>
      <trkpt lat="43.64468" lon="6.65427">
        <ele>604.40002441406</ele>
        <time>2019-05-30T08:52:50.000Z</time>
      </trkpt>
      <trkpt lat="43.6446" lon="6.654">
        <ele>603.20001220703</ele>
        <time>2019-05-30T08:52:52.000Z</time>
      </trkpt>
      <trkpt lat="43.64455" lon="6.65373">
        <ele>602</ele>
        <time>2019-05-30T08:52:54.000Z</time>
      </trkpt>
      <trkpt lat="43.64458" lon="6.65334">
        <ele>600.79998779297</ele>
        <time>2019-05-30T08:52:57.000Z</time>
      </trkpt>
      <trkpt lat="43.64472" lon="6.65311">
        <ele>599.79998779297</ele>
        <time>2019-05-30T08:52:59.000Z</time>
      </trkpt>
      <trkpt lat="43.64486" lon="6.65291">
        <ele>598.20001220703</ele>
        <time>2019-05-30T08:53:01.000Z</time>
      </trkpt>
      <trkpt lat="43.64502" lon="6.65269">
        <ele>597</ele>
        <time>2019-05-30T08:53:03.000Z</time>
      </trkpt>
      <trkpt lat="43.64517" lon="6.65251">
        <ele>595.40002441406</ele>
        <time>2019-05-30T08:53:05.000Z</time>
      </trkpt>
      <trkpt lat="43.64524" lon="6.65242">
        <ele>594.79998779297</ele>
        <time>2019-05-30T08:53:06.000Z</time>
      </trkpt>
      <trkpt lat="43.6453" lon="6.65236">
        <ele>593.79998779297</ele>
        <time>2019-05-30T08:53:07.000Z</time>
      </trkpt>
      <trkpt lat="43.64538" lon="6.65223">
        <ele>592.59997558594</ele>
        <time>2019-05-30T08:53:09.000Z</time>
      </trkpt>
      <trkpt lat="43.64551" lon="6.65221">
        <ele>592</ele>
        <time>2019-05-30T08:53:12.000Z</time>
      </trkpt>
      <trkpt lat="43.64558" lon="6.65226">
        <ele>591.79998779297</ele>
        <time>2019-05-30T08:53:14.000Z</time>
      </trkpt>
      <trkpt lat="43.64561" lon="6.65228">
        <ele>591.79998779297</ele>
        <time>2019-05-30T08:53:15.000Z</time>
      </trkpt>
      <trkpt lat="43.64565" lon="6.65229">
        <ele>591.79998779297</ele>
        <time>2019-05-30T08:53:16.000Z</time>
      </trkpt>
      <trkpt lat="43.64586" lon="6.65224">
        <ele>591.59997558594</ele>
        <time>2019-05-30T08:53:20.000Z</time>
      </trkpt>
      <trkpt lat="43.64591" lon="6.65223">
        <ele>591.59997558594</ele>
        <time>2019-05-30T08:53:21.000Z</time>
      </trkpt>
      <trkpt lat="43.64602" lon="6.65217">
        <ele>591.40002441406</ele>
        <time>2019-05-30T08:53:23.000Z</time>
      </trkpt>
      <trkpt lat="43.6461" lon="6.65209">
        <ele>591.20001220703</ele>
        <time>2019-05-30T08:53:25.000Z</time>
      </trkpt>
      <trkpt lat="43.64629" lon="6.65192">
        <ele>592.59997558594</ele>
        <time>2019-05-30T08:53:30.000Z</time>
      </trkpt>
      <trkpt lat="43.64637" lon="6.65185">
        <ele>593.20001220703</ele>
        <time>2019-05-30T08:53:32.000Z</time>
      </trkpt>
      <trkpt lat="43.64643" lon="6.65176">
        <ele>593.40002441406</ele>
        <time>2019-05-30T08:53:34.000Z</time>
      </trkpt>
      <trkpt lat="43.64646" lon="6.65166">
        <ele>593.79998779297</ele>
        <time>2019-05-30T08:53:36.000Z</time>
      </trkpt>
      <trkpt lat="43.64648" lon="6.65161">
        <ele>594</ele>
        <time>2019-05-30T08:53:37.000Z</time>
      </trkpt>
      <trkpt lat="43.64655" lon="6.65147">
        <ele>595</ele>
        <time>2019-05-30T08:53:40.000Z</time>
      </trkpt>
      <trkpt lat="43.64661" lon="6.65139">
        <ele>595.79998779297</ele>
        <time>2019-05-30T08:53:42.000Z</time>
      </trkpt>
      <trkpt lat="43.64664" lon="6.65134">
        <ele>596.20001220703</ele>
        <time>2019-05-30T08:53:43.000Z</time>
      </trkpt>
      <trkpt lat="43.64682" lon="6.65104">
        <ele>596.40002441406</ele>
        <time>2019-05-30T08:53:49.000Z</time>
      </trkpt>
      <trkpt lat="43.64701" lon="6.65075">
        <ele>596.79998779297</ele>
        <time>2019-05-30T08:53:55.000Z</time>
      </trkpt>
      <trkpt lat="43.64706" lon="6.65065">
        <ele>597</ele>
        <time>2019-05-30T08:53:57.000Z</time>
      </trkpt>
      <trkpt lat="43.64712" lon="6.65057">
        <ele>597.40002441406</ele>
        <time>2019-05-30T08:53:59.000Z</time>
      </trkpt>
      <trkpt lat="43.64716" lon="6.65053">
        <ele>597.59997558594</ele>
        <time>2019-05-30T08:54:00.000Z</time>
      </trkpt>
      <trkpt lat="43.64729" lon="6.65035">
        <ele>598.40002441406</ele>
        <time>2019-05-30T08:54:05.000Z</time>
      </trkpt>
      <trkpt lat="43.64737" lon="6.65026">
        <ele>599.59997558594</ele>
        <time>2019-05-30T08:54:08.000Z</time>
      </trkpt>
      <trkpt lat="43.64748" lon="6.65018">
        <ele>600.59997558594</ele>
        <time>2019-05-30T08:54:12.000Z</time>
      </trkpt>
      <trkpt lat="43.64771" lon="6.65">
        <ele>601</ele>
        <time>2019-05-30T08:54:18.000Z</time>
      </trkpt>
      <trkpt lat="43.64791" lon="6.64985">
        <ele>600.79998779297</ele>
        <time>2019-05-30T08:54:23.000Z</time>
      </trkpt>
      <trkpt lat="43.64794" lon="6.6498">
        <ele>601</ele>
        <time>2019-05-30T08:54:24.000Z</time>
      </trkpt>
      <trkpt lat="43.6481" lon="6.6495">
        <ele>601</ele>
        <time>2019-05-30T08:54:30.000Z</time>
      </trkpt>
      <trkpt lat="43.64816" lon="6.6494">
        <ele>601</ele>
        <time>2019-05-30T08:54:32.000Z</time>
      </trkpt>
      <trkpt lat="43.64824" lon="6.64925">
        <ele>601.40002441406</ele>
        <time>2019-05-30T08:54:35.000Z</time>
      </trkpt>
      <trkpt lat="43.64826" lon="6.64918">
        <ele>601.40002441406</ele>
        <time>2019-05-30T08:54:36.000Z</time>
      </trkpt>
      <trkpt lat="43.64827" lon="6.64895">
        <ele>600.40002441406</ele>
        <time>2019-05-30T08:54:39.000Z</time>
      </trkpt>
      <trkpt lat="43.64836" lon="6.64873">
        <ele>599.40002441406</ele>
        <time>2019-05-30T08:54:42.000Z</time>
      </trkpt>
      <trkpt lat="43.64839" lon="6.64867">
        <ele>599.20001220703</ele>
        <time>2019-05-30T08:54:43.000Z</time>
      </trkpt>
      <trkpt lat="43.64861" lon="6.6483">
        <ele>599</ele>
        <time>2019-05-30T08:54:49.000Z</time>
      </trkpt>
      <trkpt lat="43.64865" lon="6.64823">
        <ele>599</ele>
        <time>2019-05-30T08:54:50.000Z</time>
      </trkpt>
      <trkpt lat="43.64879" lon="6.64787">
        <ele>598.79998779297</ele>
        <time>2019-05-30T08:54:55.000Z</time>
      </trkpt>
      <trkpt lat="43.64883" lon="6.6478">
        <ele>598.59997558594</ele>
        <time>2019-05-30T08:54:56.000Z</time>
      </trkpt>
      <trkpt lat="43.64894" lon="6.64768">
        <ele>598.20001220703</ele>
        <time>2019-05-30T08:54:58.000Z</time>
      </trkpt>
      <trkpt lat="43.64899" lon="6.64763">
        <ele>597.79998779297</ele>
        <time>2019-05-30T08:54:59.000Z</time>
      </trkpt>
      <trkpt lat="43.64904" lon="6.64757">
        <ele>597.40002441406</ele>
        <time>2019-05-30T08:55:00.000Z</time>
      </trkpt>
      <trkpt lat="43.64909" lon="6.64752">
        <ele>597</ele>
        <time>2019-05-30T08:55:01.000Z</time>
      </trkpt>
      <trkpt lat="43.6492" lon="6.64743">
        <ele>596.59997558594</ele>
        <time>2019-05-30T08:55:03.000Z</time>
      </trkpt>
      <trkpt lat="43.64931" lon="6.64735">
        <ele>596.40002441406</ele>
        <time>2019-05-30T08:55:05.000Z</time>
      </trkpt>
      <trkpt lat="43.64945" lon="6.6472">
        <ele>596.20001220703</ele>
        <time>2019-05-30T08:55:08.000Z</time>
      </trkpt>
      <trkpt lat="43.64949" lon="6.64705">
        <ele>596.20001220703</ele>
        <time>2019-05-30T08:55:10.000Z</time>
      </trkpt>
      <trkpt lat="43.64945" lon="6.64683">
        <ele>596.20001220703</ele>
        <time>2019-05-30T08:55:13.000Z</time>
      </trkpt>
      <trkpt lat="43.64942" lon="6.64675">
        <ele>595.59997558594</ele>
        <time>2019-05-30T08:55:14.000Z</time>
      </trkpt>
      <trkpt lat="43.64937" lon="6.6466">
        <ele>595.20001220703</ele>
        <time>2019-05-30T08:55:16.000Z</time>
      </trkpt>
      <trkpt lat="43.64932" lon="6.64645">
        <ele>595</ele>
        <time>2019-05-30T08:55:18.000Z</time>
      </trkpt>
      <trkpt lat="43.64916" lon="6.64615">
        <ele>596.59997558594</ele>
        <time>2019-05-30T08:55:23.000Z</time>
      </trkpt>
      <trkpt lat="43.64913" lon="6.6461">
        <ele>597</ele>
        <time>2019-05-30T08:55:24.000Z</time>
      </trkpt>
      <trkpt lat="43.64899" lon="6.6459">
        <ele>597.79998779297</ele>
        <time>2019-05-30T08:55:28.000Z</time>
      </trkpt>
      <trkpt lat="43.64891" lon="6.64579">
        <ele>598</ele>
        <time>2019-05-30T08:55:30.000Z</time>
      </trkpt>
      <trkpt lat="43.64889" lon="6.64573">
        <ele>598</ele>
        <time>2019-05-30T08:55:31.000Z</time>
      </trkpt>
      <trkpt lat="43.64888" lon="6.64544">
        <ele>598</ele>
        <time>2019-05-30T08:55:35.000Z</time>
      </trkpt>
      <trkpt lat="43.64888" lon="6.64531">
        <ele>598</ele>
        <time>2019-05-30T08:55:37.000Z</time>
      </trkpt>
      <trkpt lat="43.64886" lon="6.64514">
        <ele>598.79998779297</ele>
        <time>2019-05-30T08:55:40.000Z</time>
      </trkpt>
      <trkpt lat="43.64885" lon="6.64509">
        <ele>599.20001220703</ele>
        <time>2019-05-30T08:55:41.000Z</time>
      </trkpt>
      <trkpt lat="43.64883" lon="6.64504">
        <ele>599.79998779297</ele>
        <time>2019-05-30T08:55:42.000Z</time>
      </trkpt>
      <trkpt lat="43.64879" lon="6.64494">
        <ele>600.40002441406</ele>
        <time>2019-05-30T08:55:44.000Z</time>
      </trkpt>
      <trkpt lat="43.64877" lon="6.64489">
        <ele>600.59997558594</ele>
        <time>2019-05-30T08:55:45.000Z</time>
      </trkpt>
      <trkpt lat="43.64875" lon="6.64483">
        <ele>600.59997558594</ele>
        <time>2019-05-30T08:55:46.000Z</time>
      </trkpt>
      <trkpt lat="43.64875" lon="6.64464">
        <ele>600.59997558594</ele>
        <time>2019-05-30T08:55:49.000Z</time>
      </trkpt>
      <trkpt lat="43.64875" lon="6.64458">
        <ele>600.59997558594</ele>
        <time>2019-05-30T08:55:50.000Z</time>
      </trkpt>
      <trkpt lat="43.64878" lon="6.64445">
        <ele>600.59997558594</ele>
        <time>2019-05-30T08:55:52.000Z</time>
      </trkpt>
      <trkpt lat="43.64876" lon="6.64426">
        <ele>600.40002441406</ele>
        <time>2019-05-30T08:55:55.000Z</time>
      </trkpt>
      <trkpt lat="43.64864" lon="6.64423">
        <ele>599.20001220703</ele>
        <time>2019-05-30T08:55:58.000Z</time>
      </trkpt>
      <trkpt lat="43.6486" lon="6.64424">
        <ele>599</ele>
        <time>2019-05-30T08:55:59.000Z</time>
      </trkpt>
      <trkpt lat="43.64845" lon="6.6443">
        <ele>598.79998779297</ele>
        <time>2019-05-30T08:56:02.000Z</time>
      </trkpt>
      <trkpt lat="43.64841" lon="6.64433">
        <ele>599</ele>
        <time>2019-05-30T08:56:03.000Z</time>
      </trkpt>
      <trkpt lat="43.64825" lon="6.64434">
        <ele>598.79998779297</ele>
        <time>2019-05-30T08:56:06.000Z</time>
      </trkpt>
      <trkpt lat="43.64815" lon="6.64426">
        <ele>598.79998779297</ele>
        <time>2019-05-30T08:56:08.000Z</time>
      </trkpt>
      <trkpt lat="43.648" lon="6.64415">
        <ele>598.79998779297</ele>
        <time>2019-05-30T08:56:11.000Z</time>
      </trkpt>
      <trkpt lat="43.64784" lon="6.64415">
        <ele>598.40002441406</ele>
        <time>2019-05-30T08:56:14.000Z</time>
      </trkpt>
      <trkpt lat="43.64779" lon="6.64417">
        <ele>598.20001220703</ele>
        <time>2019-05-30T08:56:15.000Z</time>
      </trkpt>
      <trkpt lat="43.64746" lon="6.64426">
        <ele>597.59997558594</ele>
        <time>2019-05-30T08:56:20.000Z</time>
      </trkpt>
      <trkpt lat="43.64732" lon="6.6443">
        <ele>597.20001220703</ele>
        <time>2019-05-30T08:56:22.000Z</time>
      </trkpt>
      <trkpt lat="43.64713" lon="6.64438">
        <ele>596.40002441406</ele>
        <time>2019-05-30T08:56:25.000Z</time>
      </trkpt>
      <trkpt lat="43.64708" lon="6.64441">
        <ele>596.40002441406</ele>
        <time>2019-05-30T08:56:26.000Z</time>
      </trkpt>
      <trkpt lat="43.64703" lon="6.64445">
        <ele>596.40002441406</ele>
        <time>2019-05-30T08:56:27.000Z</time>
      </trkpt>
      <trkpt lat="43.64691" lon="6.64463">
        <ele>597.20001220703</ele>
        <time>2019-05-30T08:56:30.000Z</time>
      </trkpt>
      <trkpt lat="43.64688" lon="6.64468">
        <ele>597.40002441406</ele>
        <time>2019-05-30T08:56:31.000Z</time>
      </trkpt>
      <trkpt lat="43.64685" lon="6.64473">
        <ele>597.79998779297</ele>
        <time>2019-05-30T08:56:32.000Z</time>
      </trkpt>
      <trkpt lat="43.64679" lon="6.64478">
        <ele>598</ele>
        <time>2019-05-30T08:56:34.000Z</time>
      </trkpt>
      <trkpt lat="43.64675" lon="6.64479">
        <ele>598.40002441406</ele>
        <time>2019-05-30T08:56:35.000Z</time>
      </trkpt>
      <trkpt lat="43.64664" lon="6.64478">
        <ele>599.79998779297</ele>
        <time>2019-05-30T08:56:38.000Z</time>
      </trkpt>
      <trkpt lat="43.64661" lon="6.64477">
        <ele>600.40002441406</ele>
        <time>2019-05-30T08:56:39.000Z</time>
      </trkpt>
      <trkpt lat="43.64658" lon="6.64476">
        <ele>600.79998779297</ele>
        <time>2019-05-30T08:56:40.000Z</time>
      </trkpt>
      <trkpt lat="43.64637" lon="6.64467">
        <ele>601.59997558594</ele>
        <time>2019-05-30T08:56:45.000Z</time>
      </trkpt>
      <trkpt lat="43.64628" lon="6.64463">
        <ele>602</ele>
        <time>2019-05-30T08:56:47.000Z</time>
      </trkpt>
      <trkpt lat="43.64609" lon="6.64453">
        <ele>602</ele>
        <time>2019-05-30T08:56:51.000Z</time>
      </trkpt>
      <trkpt lat="43.646" lon="6.64445">
        <ele>602.40002441406</ele>
        <time>2019-05-30T08:56:53.000Z</time>
      </trkpt>
      <trkpt lat="43.64596" lon="6.64441">
        <ele>602.20001220703</ele>
        <time>2019-05-30T08:56:54.000Z</time>
      </trkpt>
      <trkpt lat="43.64582" lon="6.64421">
        <ele>601.59997558594</ele>
        <time>2019-05-30T08:56:58.000Z</time>
      </trkpt>
      <trkpt lat="43.64572" lon="6.64407">
        <ele>602.40002441406</ele>
        <time>2019-05-30T08:57:02.000Z</time>
      </trkpt>
      <trkpt lat="43.6457" lon="6.64405">
        <ele>602.79998779297</ele>
        <time>2019-05-30T08:57:03.000Z</time>
      </trkpt>
      <trkpt lat="43.64567" lon="6.64402">
        <ele>603</ele>
        <time>2019-05-30T08:57:04.000Z</time>
      </trkpt>
      <trkpt lat="43.64557" lon="6.64394">
        <ele>604.20001220703</ele>
        <time>2019-05-30T08:57:08.000Z</time>
      </trkpt>
      <trkpt lat="43.64554" lon="6.64392">
        <ele>604.40002441406</ele>
        <time>2019-05-30T08:57:09.000Z</time>
      </trkpt>
      <trkpt lat="43.64545" lon="6.64385">
        <ele>605.20001220703</ele>
        <time>2019-05-30T08:57:13.000Z</time>
      </trkpt>
      <trkpt lat="43.64535" lon="6.64376">
        <ele>605.79998779297</ele>
        <time>2019-05-30T08:57:17.000Z</time>
      </trkpt>
      <trkpt lat="43.64528" lon="6.64367">
        <ele>606.20001220703</ele>
        <time>2019-05-30T08:57:20.000Z</time>
      </trkpt>
      <trkpt lat="43.64521" lon="6.64357">
        <ele>607.40002441406</ele>
        <time>2019-05-30T08:57:23.000Z</time>
      </trkpt>
      <trkpt lat="43.64514" lon="6.64349">
        <ele>608.59997558594</ele>
        <time>2019-05-30T08:57:26.000Z</time>
      </trkpt>
      <trkpt lat="43.64508" lon="6.64342">
        <ele>609.40002441406</ele>
        <time>2019-05-30T08:57:29.000Z</time>
      </trkpt>
      <trkpt lat="43.64505" lon="6.64339">
        <ele>609.79998779297</ele>
        <time>2019-05-30T08:57:30.000Z</time>
      </trkpt>
      <trkpt lat="43.64495" lon="6.64322">
        <ele>610.40002441406</ele>
        <time>2019-05-30T08:57:35.000Z</time>
      </trkpt>
      <trkpt lat="43.64489" lon="6.64312">
        <ele>610.79998779297</ele>
        <time>2019-05-30T08:57:38.000Z</time>
      </trkpt>
      <trkpt lat="43.64483" lon="6.643">
        <ele>611.59997558594</ele>
        <time>2019-05-30T08:57:42.000Z</time>
      </trkpt>
      <trkpt lat="43.64481" lon="6.64297">
        <ele>611.79998779297</ele>
        <time>2019-05-30T08:57:43.000Z</time>
      </trkpt>
      <trkpt lat="43.64474" lon="6.64289">
        <ele>613</ele>
        <time>2019-05-30T08:57:47.000Z</time>
      </trkpt>
      <trkpt lat="43.64466" lon="6.64281">
        <ele>614</ele>
        <time>2019-05-30T08:57:51.000Z</time>
      </trkpt>
      <trkpt lat="43.64457" lon="6.6427">
        <ele>615</ele>
        <time>2019-05-30T08:57:56.000Z</time>
      </trkpt>
      <trkpt lat="43.64453" lon="6.64264">
        <ele>615.59997558594</ele>
        <time>2019-05-30T08:57:58.000Z</time>
      </trkpt>
      <trkpt lat="43.64447" lon="6.64248">
        <ele>616.20001220703</ele>
        <time>2019-05-30T08:58:03.000Z</time>
      </trkpt>
      <trkpt lat="43.64447" lon="6.64244">
        <ele>616.20001220703</ele>
        <time>2019-05-30T08:58:04.000Z</time>
      </trkpt>
      <trkpt lat="43.64446" lon="6.64217">
        <ele>617</ele>
        <time>2019-05-30T08:58:11.000Z</time>
      </trkpt>
      <trkpt lat="43.64446" lon="6.64206">
        <ele>617.20001220703</ele>
        <time>2019-05-30T08:58:14.000Z</time>
      </trkpt>
      <trkpt lat="43.64447" lon="6.6419">
        <ele>618.40002441406</ele>
        <time>2019-05-30T08:58:18.000Z</time>
      </trkpt>
      <trkpt lat="43.64445" lon="6.64162">
        <ele>619.40002441406</ele>
        <time>2019-05-30T08:58:25.000Z</time>
      </trkpt>
      <trkpt lat="43.64445" lon="6.64154">
        <ele>620</ele>
        <time>2019-05-30T08:58:27.000Z</time>
      </trkpt>
      <trkpt lat="43.64444" lon="6.64142">
        <ele>620.40002441406</ele>
        <time>2019-05-30T08:58:30.000Z</time>
      </trkpt>
      <trkpt lat="43.64438" lon="6.64125">
        <ele>621.59997558594</ele>
        <time>2019-05-30T08:58:35.000Z</time>
      </trkpt>
      <trkpt lat="43.64429" lon="6.64109">
        <ele>622.59997558594</ele>
        <time>2019-05-30T08:58:40.000Z</time>
      </trkpt>
      <trkpt lat="43.64425" lon="6.64099">
        <ele>623</ele>
        <time>2019-05-30T08:58:43.000Z</time>
      </trkpt>
      <trkpt lat="43.64421" lon="6.64089">
        <ele>623.59997558594</ele>
        <time>2019-05-30T08:58:47.000Z</time>
      </trkpt>
      <trkpt lat="43.64418" lon="6.64086">
        <ele>624.40002441406</ele>
        <time>2019-05-30T08:58:49.000Z</time>
      </trkpt>
      <trkpt lat="43.64415" lon="6.64083">
        <ele>624.79998779297</ele>
        <time>2019-05-30T08:58:51.000Z</time>
      </trkpt>
      <trkpt lat="43.64411" lon="6.64076">
        <ele>625.79998779297</ele>
        <time>2019-05-30T08:58:54.000Z</time>
      </trkpt>
      <trkpt lat="43.6441" lon="6.64073">
        <ele>626</ele>
        <time>2019-05-30T08:58:55.000Z</time>
      </trkpt>
      <trkpt lat="43.64407" lon="6.64058">
        <ele>626.59997558594</ele>
        <time>2019-05-30T08:58:59.000Z</time>
      </trkpt>
      <trkpt lat="43.64404" lon="6.64046">
        <ele>627.20001220703</ele>
        <time>2019-05-30T08:59:02.000Z</time>
      </trkpt>
      <trkpt lat="43.64401" lon="6.64035">
        <ele>627.20001220703</ele>
        <time>2019-05-30T08:59:04.000Z</time>
      </trkpt>
      <trkpt lat="43.64394" lon="6.64015">
        <ele>627.40002441406</ele>
        <time>2019-05-30T08:59:08.000Z</time>
      </trkpt>
      <trkpt lat="43.64388" lon="6.64004">
        <ele>627.59997558594</ele>
        <time>2019-05-30T08:59:10.000Z</time>
      </trkpt>
      <trkpt lat="43.64371" lon="6.63987">
        <ele>627.20001220703</ele>
        <time>2019-05-30T08:59:15.000Z</time>
      </trkpt>
      <trkpt lat="43.64352" lon="6.63972">
        <ele>627.59997558594</ele>
        <time>2019-05-30T08:59:20.000Z</time>
      </trkpt>
      <trkpt lat="43.64344" lon="6.63963">
        <ele>627.40002441406</ele>
        <time>2019-05-30T08:59:22.000Z</time>
      </trkpt>
      <trkpt lat="43.64331" lon="6.63944">
        <ele>626.79998779297</ele>
        <time>2019-05-30T08:59:26.000Z</time>
      </trkpt>
      <trkpt lat="43.64323" lon="6.63927">
        <ele>627.20001220703</ele>
        <time>2019-05-30T08:59:30.000Z</time>
      </trkpt>
      <trkpt lat="43.64316" lon="6.63912">
        <ele>628.20001220703</ele>
        <time>2019-05-30T08:59:33.000Z</time>
      </trkpt>
      <trkpt lat="43.64314" lon="6.63905">
        <ele>628.40002441406</ele>
        <time>2019-05-30T08:59:34.000Z</time>
      </trkpt>
      <trkpt lat="43.64307" lon="6.63877">
        <ele>627.20001220703</ele>
        <time>2019-05-30T08:59:38.000Z</time>
      </trkpt>
      <trkpt lat="43.64305" lon="6.63871">
        <ele>626.79998779297</ele>
        <time>2019-05-30T08:59:39.000Z</time>
      </trkpt>
      <trkpt lat="43.6429" lon="6.63843">
        <ele>627</ele>
        <time>2019-05-30T08:59:44.000Z</time>
      </trkpt>
      <trkpt lat="43.64283" lon="6.63829">
        <ele>628.20001220703</ele>
        <time>2019-05-30T08:59:47.000Z</time>
      </trkpt>
      <trkpt lat="43.64274" lon="6.63815">
        <ele>629.40002441406</ele>
        <time>2019-05-30T08:59:51.000Z</time>
      </trkpt>
      <trkpt lat="43.64266" lon="6.638">
        <ele>630.59997558594</ele>
        <time>2019-05-30T08:59:55.000Z</time>
      </trkpt>
      <trkpt lat="43.6426" lon="6.63789">
        <ele>631.20001220703</ele>
        <time>2019-05-30T08:59:58.000Z</time>
      </trkpt>
      <trkpt lat="43.64249" lon="6.63772">
        <ele>631.40002441406</ele>
        <time>2019-05-30T09:00:02.000Z</time>
      </trkpt>
      <trkpt lat="43.64247" lon="6.63767">
        <ele>631.40002441406</ele>
        <time>2019-05-30T09:00:03.000Z</time>
      </trkpt>
      <trkpt lat="43.64244" lon="6.6376">
        <ele>631.20001220703</ele>
        <time>2019-05-30T09:00:04.000Z</time>
      </trkpt>
      <trkpt lat="43.64238" lon="6.6374">
        <ele>630.59997558594</ele>
        <time>2019-05-30T09:00:07.000Z</time>
      </trkpt>
      <trkpt lat="43.64224" lon="6.63701">
        <ele>630.79998779297</ele>
        <time>2019-05-30T09:00:13.000Z</time>
      </trkpt>
      <trkpt lat="43.64211" lon="6.6366">
        <ele>630</ele>
        <time>2019-05-30T09:00:18.000Z</time>
      </trkpt>
      <trkpt lat="43.64209" lon="6.63652">
        <ele>629.59997558594</ele>
        <time>2019-05-30T09:00:19.000Z</time>
      </trkpt>
      <trkpt lat="43.64206" lon="6.63644">
        <ele>629.20001220703</ele>
        <time>2019-05-30T09:00:20.000Z</time>
      </trkpt>
      <trkpt lat="43.64203" lon="6.63637">
        <ele>628.59997558594</ele>
        <time>2019-05-30T09:00:21.000Z</time>
      </trkpt>
      <trkpt lat="43.64197" lon="6.6362">
        <ele>628</ele>
        <time>2019-05-30T09:00:23.000Z</time>
      </trkpt>
      <trkpt lat="43.64192" lon="6.63587">
        <ele>627.79998779297</ele>
        <time>2019-05-30T09:00:27.000Z</time>
      </trkpt>
      <trkpt lat="43.64191" lon="6.63578">
        <ele>627.79998779297</ele>
        <time>2019-05-30T09:00:28.000Z</time>
      </trkpt>
      <trkpt lat="43.64181" lon="6.6354">
        <ele>628</ele>
        <time>2019-05-30T09:00:33.000Z</time>
      </trkpt>
      <trkpt lat="43.64168" lon="6.63498">
        <ele>628.59997558594</ele>
        <time>2019-05-30T09:00:39.000Z</time>
      </trkpt>
      <trkpt lat="43.64164" lon="6.63481">
        <ele>628.59997558594</ele>
        <time>2019-05-30T09:00:41.000Z</time>
      </trkpt>
      <trkpt lat="43.64159" lon="6.63456">
        <ele>628.20001220703</ele>
        <time>2019-05-30T09:00:44.000Z</time>
      </trkpt>
      <trkpt lat="43.64142" lon="6.6343">
        <ele>627.79998779297</ele>
        <time>2019-05-30T09:00:48.000Z</time>
      </trkpt>
      <trkpt lat="43.64129" lon="6.63419">
        <ele>627</ele>
        <time>2019-05-30T09:00:50.000Z</time>
      </trkpt>
      <trkpt lat="43.64117" lon="6.63407">
        <ele>625.79998779297</ele>
        <time>2019-05-30T09:00:52.000Z</time>
      </trkpt>
      <trkpt lat="43.64112" lon="6.634">
        <ele>625.40002441406</ele>
        <time>2019-05-30T09:00:53.000Z</time>
      </trkpt>
      <trkpt lat="43.64103" lon="6.63378">
        <ele>624.79998779297</ele>
        <time>2019-05-30T09:00:56.000Z</time>
      </trkpt>
      <trkpt lat="43.64099" lon="6.63375">
        <ele>624.59997558594</ele>
        <time>2019-05-30T09:00:57.000Z</time>
      </trkpt>
      <trkpt lat="43.6409" lon="6.63376">
        <ele>624.59997558594</ele>
        <time>2019-05-30T09:00:59.000Z</time>
      </trkpt>
      <trkpt lat="43.64075" lon="6.63387">
        <ele>624.20001220703</ele>
        <time>2019-05-30T09:01:02.000Z</time>
      </trkpt>
      <trkpt lat="43.64063" lon="6.63406">
        <ele>623.59997558594</ele>
        <time>2019-05-30T09:01:05.000Z</time>
      </trkpt>
      <trkpt lat="43.64059" lon="6.63414">
        <ele>623.40002441406</ele>
        <time>2019-05-30T09:01:06.000Z</time>
      </trkpt>
      <trkpt lat="43.64055" lon="6.63421">
        <ele>622.79998779297</ele>
        <time>2019-05-30T09:01:07.000Z</time>
      </trkpt>
      <trkpt lat="43.64051" lon="6.63426">
        <ele>622.59997558594</ele>
        <time>2019-05-30T09:01:08.000Z</time>
      </trkpt>
      <trkpt lat="43.64046" lon="6.63428">
        <ele>622.59997558594</ele>
        <time>2019-05-30T09:01:09.000Z</time>
      </trkpt>
      <trkpt lat="43.64031" lon="6.63427">
        <ele>623</ele>
        <time>2019-05-30T09:01:12.000Z</time>
      </trkpt>
      <trkpt lat="43.64025" lon="6.63427">
        <ele>623.40002441406</ele>
        <time>2019-05-30T09:01:13.000Z</time>
      </trkpt>
      <trkpt lat="43.64019" lon="6.63428">
        <ele>623.59997558594</ele>
        <time>2019-05-30T09:01:14.000Z</time>
      </trkpt>
      <trkpt lat="43.64009" lon="6.63436">
        <ele>623.20001220703</ele>
        <time>2019-05-30T09:01:16.000Z</time>
      </trkpt>
      <trkpt lat="43.64001" lon="6.63444">
        <ele>622.59997558594</ele>
        <time>2019-05-30T09:01:18.000Z</time>
      </trkpt>
      <trkpt lat="43.63997" lon="6.63446">
        <ele>622.40002441406</ele>
        <time>2019-05-30T09:01:19.000Z</time>
      </trkpt>
      <trkpt lat="43.6399" lon="6.63447">
        <ele>623</ele>
        <time>2019-05-30T09:01:21.000Z</time>
      </trkpt>
      <trkpt lat="43.63987" lon="6.63446">
        <ele>623.79998779297</ele>
        <time>2019-05-30T09:01:22.000Z</time>
      </trkpt>
      <trkpt lat="43.63984" lon="6.63444">
        <ele>624.40002441406</ele>
        <time>2019-05-30T09:01:23.000Z</time>
      </trkpt>
      <trkpt lat="43.63981" lon="6.63442">
        <ele>624.79998779297</ele>
        <time>2019-05-30T09:01:24.000Z</time>
      </trkpt>
      <trkpt lat="43.63967" lon="6.63437">
        <ele>626</ele>
        <time>2019-05-30T09:01:28.000Z</time>
      </trkpt>
      <trkpt lat="43.63964" lon="6.63435">
        <ele>626.20001220703</ele>
        <time>2019-05-30T09:01:29.000Z</time>
      </trkpt>
      <trkpt lat="43.63949" lon="6.63431">
        <ele>627.20001220703</ele>
        <time>2019-05-30T09:01:33.000Z</time>
      </trkpt>
      <trkpt lat="43.63939" lon="6.63428">
        <ele>627.40002441406</ele>
        <time>2019-05-30T09:01:35.000Z</time>
      </trkpt>
      <trkpt lat="43.63909" lon="6.63418">
        <ele>626</ele>
        <time>2019-05-30T09:01:40.000Z</time>
      </trkpt>
      <trkpt lat="43.63886" lon="6.63414">
        <ele>625.40002441406</ele>
        <time>2019-05-30T09:01:44.000Z</time>
      </trkpt>
      <trkpt lat="43.63865" lon="6.63414">
        <ele>624.79998779297</ele>
        <time>2019-05-30T09:01:47.000Z</time>
      </trkpt>
      <trkpt lat="43.63847" lon="6.63414">
        <ele>623.40002441406</ele>
        <time>2019-05-30T09:01:50.000Z</time>
      </trkpt>
      <trkpt lat="43.63834" lon="6.63415">
        <ele>623.20001220703</ele>
        <time>2019-05-30T09:01:52.000Z</time>
      </trkpt>
      <trkpt lat="43.63822" lon="6.63419">
        <ele>623</ele>
        <time>2019-05-30T09:01:54.000Z</time>
      </trkpt>
      <trkpt lat="43.6381" lon="6.63428">
        <ele>622.40002441406</ele>
        <time>2019-05-30T09:01:56.000Z</time>
      </trkpt>
      <trkpt lat="43.63797" lon="6.63451">
        <ele>621.20001220703</ele>
        <time>2019-05-30T09:01:59.000Z</time>
      </trkpt>
      <trkpt lat="43.63787" lon="6.63475">
        <ele>620.40002441406</ele>
        <time>2019-05-30T09:02:02.000Z</time>
      </trkpt>
      <trkpt lat="43.63777" lon="6.63485">
        <ele>620.20001220703</ele>
        <time>2019-05-30T09:02:04.000Z</time>
      </trkpt>
      <trkpt lat="43.63766" lon="6.63488">
        <ele>620.40002441406</ele>
        <time>2019-05-30T09:02:06.000Z</time>
      </trkpt>
      <trkpt lat="43.63754" lon="6.63489">
        <ele>620.59997558594</ele>
        <time>2019-05-30T09:02:08.000Z</time>
      </trkpt>
      <trkpt lat="43.63749" lon="6.6349">
        <ele>620.59997558594</ele>
        <time>2019-05-30T09:02:09.000Z</time>
      </trkpt>
      <trkpt lat="43.63731" lon="6.63492">
        <ele>620.79998779297</ele>
        <time>2019-05-30T09:02:12.000Z</time>
      </trkpt>
      <trkpt lat="43.63725" lon="6.63492">
        <ele>620.79998779297</ele>
        <time>2019-05-30T09:02:13.000Z</time>
      </trkpt>
      <trkpt lat="43.63712" lon="6.63481">
        <ele>620.59997558594</ele>
        <time>2019-05-30T09:02:16.000Z</time>
      </trkpt>
      <trkpt lat="43.63707" lon="6.63468">
        <ele>620.59997558594</ele>
        <time>2019-05-30T09:02:18.000Z</time>
      </trkpt>
      <trkpt lat="43.63701" lon="6.63448">
        <ele>621.20001220703</ele>
        <time>2019-05-30T09:02:21.000Z</time>
      </trkpt>
      <trkpt lat="43.6369" lon="6.63416">
        <ele>620.20001220703</ele>
        <time>2019-05-30T09:02:25.000Z</time>
      </trkpt>
      <trkpt lat="43.63683" lon="6.63399">
        <ele>619</ele>
        <time>2019-05-30T09:02:27.000Z</time>
      </trkpt>
      <trkpt lat="43.6368" lon="6.63393">
        <ele>618.40002441406</ele>
        <time>2019-05-30T09:02:28.000Z</time>
      </trkpt>
      <trkpt lat="43.63675" lon="6.6339">
        <ele>618.20001220703</ele>
        <time>2019-05-30T09:02:29.000Z</time>
      </trkpt>
      <trkpt lat="43.63671" lon="6.63391">
        <ele>618</ele>
        <time>2019-05-30T09:02:30.000Z</time>
      </trkpt>
      <trkpt lat="43.63666" lon="6.63395">
        <ele>617.59997558594</ele>
        <time>2019-05-30T09:02:31.000Z</time>
      </trkpt>
      <trkpt lat="43.63654" lon="6.63402">
        <ele>616.40002441406</ele>
        <time>2019-05-30T09:02:33.000Z</time>
      </trkpt>
      <trkpt lat="43.63647" lon="6.63403">
        <ele>615.59997558594</ele>
        <time>2019-05-30T09:02:34.000Z</time>
      </trkpt>
      <trkpt lat="43.6364" lon="6.634">
        <ele>614.59997558594</ele>
        <time>2019-05-30T09:02:35.000Z</time>
      </trkpt>
      <trkpt lat="43.63626" lon="6.63392">
        <ele>613.20001220703</ele>
        <time>2019-05-30T09:02:37.000Z</time>
      </trkpt>
      <trkpt lat="43.63615" lon="6.63382">
        <ele>612.20001220703</ele>
        <time>2019-05-30T09:02:39.000Z</time>
      </trkpt>
      <trkpt lat="43.63608" lon="6.63369">
        <ele>611.40002441406</ele>
        <time>2019-05-30T09:02:41.000Z</time>
      </trkpt>
      <trkpt lat="43.63606" lon="6.63363">
        <ele>611.20001220703</ele>
        <time>2019-05-30T09:02:42.000Z</time>
      </trkpt>
      <trkpt lat="43.63604" lon="6.63357">
        <ele>611.20001220703</ele>
        <time>2019-05-30T09:02:43.000Z</time>
      </trkpt>
      <trkpt lat="43.63601" lon="6.63348">
        <ele>612.40002441406</ele>
        <time>2019-05-30T09:02:45.000Z</time>
      </trkpt>
      <trkpt lat="43.63598" lon="6.63338">
        <ele>613.79998779297</ele>
        <time>2019-05-30T09:02:47.000Z</time>
      </trkpt>
      <trkpt lat="43.63595" lon="6.63324">
        <ele>615</ele>
        <time>2019-05-30T09:02:50.000Z</time>
      </trkpt>
      <trkpt lat="43.63591" lon="6.63316">
        <ele>615.59997558594</ele>
        <time>2019-05-30T09:02:52.000Z</time>
      </trkpt>
      <trkpt lat="43.6359" lon="6.63312">
        <ele>616.20001220703</ele>
        <time>2019-05-30T09:02:53.000Z</time>
      </trkpt>
      <trkpt lat="43.63587" lon="6.633">
        <ele>617.40002441406</ele>
        <time>2019-05-30T09:02:56.000Z</time>
      </trkpt>
      <trkpt lat="43.63585" lon="6.63297">
        <ele>617.59997558594</ele>
        <time>2019-05-30T09:02:57.000Z</time>
      </trkpt>
      <trkpt lat="43.63584" lon="6.63294">
        <ele>617.79998779297</ele>
        <time>2019-05-30T09:02:58.000Z</time>
      </trkpt>
      <trkpt lat="43.63582" lon="6.63287">
        <ele>618.20001220703</ele>
        <time>2019-05-30T09:03:00.000Z</time>
      </trkpt>
      <trkpt lat="43.63581" lon="6.63283">
        <ele>618.40002441406</ele>
        <time>2019-05-30T09:03:01.000Z</time>
      </trkpt>
      <trkpt lat="43.63578" lon="6.63277">
        <ele>619</ele>
        <time>2019-05-30T09:03:03.000Z</time>
      </trkpt>
      <trkpt lat="43.63577" lon="6.63273">
        <ele>619.40002441406</ele>
        <time>2019-05-30T09:03:04.000Z</time>
      </trkpt>
      <trkpt lat="43.63576" lon="6.63271">
        <ele>619.59997558594</ele>
        <time>2019-05-30T09:03:05.000Z</time>
      </trkpt>
      <trkpt lat="43.63575" lon="6.63266">
        <ele>620.40002441406</ele>
        <time>2019-05-30T09:03:07.000Z</time>
      </trkpt>
      <trkpt lat="43.63574" lon="6.63263">
        <ele>620.79998779297</ele>
        <time>2019-05-30T09:03:08.000Z</time>
      </trkpt>
      <trkpt lat="43.63572" lon="6.6326">
        <ele>621.59997558594</ele>
        <time>2019-05-30T09:03:10.000Z</time>
      </trkpt>
      <trkpt lat="43.63571" lon="6.63258">
        <ele>622.20001220703</ele>
        <time>2019-05-30T09:03:11.000Z</time>
      </trkpt>
      <trkpt lat="43.63569" lon="6.63254">
        <ele>622.79998779297</ele>
        <time>2019-05-30T09:03:13.000Z</time>
      </trkpt>
      <trkpt lat="43.63568" lon="6.63252">
        <ele>623.20001220703</ele>
        <time>2019-05-30T09:03:14.000Z</time>
      </trkpt>
      <trkpt lat="43.63562" lon="6.63244">
        <ele>624.20001220703</ele>
        <time>2019-05-30T09:03:18.000Z</time>
      </trkpt>
      <trkpt lat="43.63556" lon="6.63239">
        <ele>625</ele>
        <time>2019-05-30T09:03:21.000Z</time>
      </trkpt>
      <trkpt lat="43.63555" lon="6.63237">
        <ele>625.40002441406</ele>
        <time>2019-05-30T09:03:22.000Z</time>
      </trkpt>
      <trkpt lat="43.63544" lon="6.63227">
        <ele>626.40002441406</ele>
        <time>2019-05-30T09:03:28.000Z</time>
      </trkpt>
      <trkpt lat="43.63538" lon="6.6322">
        <ele>627.40002441406</ele>
        <time>2019-05-30T09:03:32.000Z</time>
      </trkpt>
      <trkpt lat="43.63534" lon="6.63215">
        <ele>628.20001220703</ele>
        <time>2019-05-30T09:03:35.000Z</time>
      </trkpt>
      <trkpt lat="43.63533" lon="6.63213">
        <ele>628.59997558594</ele>
        <time>2019-05-30T09:03:36.000Z</time>
      </trkpt>
      <trkpt lat="43.6353" lon="6.63202">
        <ele>629.79998779297</ele>
        <time>2019-05-30T09:03:41.000Z</time>
      </trkpt>
      <trkpt lat="43.6353" lon="6.632">
        <ele>630</ele>
        <time>2019-05-30T09:03:42.000Z</time>
      </trkpt>
      <trkpt lat="43.63528" lon="6.63194">
        <ele>630.79998779297</ele>
        <time>2019-05-30T09:03:45.000Z</time>
      </trkpt>
      <trkpt lat="43.63524" lon="6.63187">
        <ele>632</ele>
        <time>2019-05-30T09:03:49.000Z</time>
      </trkpt>
      <trkpt lat="43.63523" lon="6.63185">
        <ele>632</ele>
        <time>2019-05-30T09:03:50.000Z</time>
      </trkpt>
      <trkpt lat="43.63512" lon="6.63165">
        <ele>632.40002441406</ele>
        <time>2019-05-30T09:03:56.000Z</time>
      </trkpt>
      <trkpt lat="43.63494" lon="6.63138">
        <ele>631.40002441406</ele>
        <time>2019-05-30T09:04:01.000Z</time>
      </trkpt>
      <trkpt lat="43.63489" lon="6.63133">
        <ele>630.79998779297</ele>
        <time>2019-05-30T09:04:02.000Z</time>
      </trkpt>
      <trkpt lat="43.63471" lon="6.63121">
        <ele>629.79998779297</ele>
        <time>2019-05-30T09:04:05.000Z</time>
      </trkpt>
      <trkpt lat="43.63464" lon="6.63119">
        <ele>629.40002441406</ele>
        <time>2019-05-30T09:04:06.000Z</time>
      </trkpt>
      <trkpt lat="43.63448" lon="6.63121">
        <ele>628.40002441406</ele>
        <time>2019-05-30T09:04:08.000Z</time>
      </trkpt>
      <trkpt lat="43.63428" lon="6.63126">
        <ele>626.79998779297</ele>
        <time>2019-05-30T09:04:11.000Z</time>
      </trkpt>
      <trkpt lat="43.63417" lon="6.63129">
        <ele>626.59997558594</ele>
        <time>2019-05-30T09:04:13.000Z</time>
      </trkpt>
      <trkpt lat="43.63397" lon="6.63133">
        <ele>628.20001220703</ele>
        <time>2019-05-30T09:04:17.000Z</time>
      </trkpt>
      <trkpt lat="43.63393" lon="6.63135">
        <ele>628.59997558594</ele>
        <time>2019-05-30T09:04:18.000Z</time>
      </trkpt>
      <trkpt lat="43.63357" lon="6.63145">
        <ele>629.20001220703</ele>
        <time>2019-05-30T09:04:26.000Z</time>
      </trkpt>
      <trkpt lat="43.63348" lon="6.63145">
        <ele>629.59997558594</ele>
        <time>2019-05-30T09:04:28.000Z</time>
      </trkpt>
      <trkpt lat="43.63326" lon="6.63149">
        <ele>629.40002441406</ele>
        <time>2019-05-30T09:04:32.000Z</time>
      </trkpt>
      <trkpt lat="43.63321" lon="6.63151">
        <ele>629.20001220703</ele>
        <time>2019-05-30T09:04:33.000Z</time>
      </trkpt>
      <trkpt lat="43.63305" lon="6.63161">
        <ele>628.59997558594</ele>
        <time>2019-05-30T09:04:36.000Z</time>
      </trkpt>
      <trkpt lat="43.633" lon="6.63163">
        <ele>628.40002441406</ele>
        <time>2019-05-30T09:04:37.000Z</time>
      </trkpt>
      <trkpt lat="43.63282" lon="6.63165">
        <ele>627.59997558594</ele>
        <time>2019-05-30T09:04:40.000Z</time>
      </trkpt>
      <trkpt lat="43.63277" lon="6.63164">
        <ele>627.40002441406</ele>
        <time>2019-05-30T09:04:41.000Z</time>
      </trkpt>
      <trkpt lat="43.63241" lon="6.63164">
        <ele>627.59997558594</ele>
        <time>2019-05-30T09:04:48.000Z</time>
      </trkpt>
      <trkpt lat="43.63232" lon="6.63164">
        <ele>628</ele>
        <time>2019-05-30T09:04:50.000Z</time>
      </trkpt>
      <trkpt lat="43.63224" lon="6.63164">
        <ele>628.40002441406</ele>
        <time>2019-05-30T09:04:52.000Z</time>
      </trkpt>
      <trkpt lat="43.63216" lon="6.63163">
        <ele>628.79998779297</ele>
        <time>2019-05-30T09:04:54.000Z</time>
      </trkpt>
      <trkpt lat="43.63205" lon="6.63157">
        <ele>629.59997558594</ele>
        <time>2019-05-30T09:04:57.000Z</time>
      </trkpt>
      <trkpt lat="43.63202" lon="6.63154">
        <ele>629.59997558594</ele>
        <time>2019-05-30T09:04:58.000Z</time>
      </trkpt>
      <trkpt lat="43.63193" lon="6.63144">
        <ele>630.59997558594</ele>
        <time>2019-05-30T09:05:01.000Z</time>
      </trkpt>
      <trkpt lat="43.63187" lon="6.63136">
        <ele>631</ele>
        <time>2019-05-30T09:05:03.000Z</time>
      </trkpt>
      <trkpt lat="43.63184" lon="6.63116">
        <ele>630.79998779297</ele>
        <time>2019-05-30T09:05:06.000Z</time>
      </trkpt>
      <trkpt lat="43.6319" lon="6.63087">
        <ele>629.59997558594</ele>
        <time>2019-05-30T09:05:09.000Z</time>
      </trkpt>
      <trkpt lat="43.63193" lon="6.6308">
        <ele>629</ele>
        <time>2019-05-30T09:05:10.000Z</time>
      </trkpt>
      <trkpt lat="43.63197" lon="6.63069">
        <ele>628.40002441406</ele>
        <time>2019-05-30T09:05:11.000Z</time>
      </trkpt>
      <trkpt lat="43.63201" lon="6.6306">
        <ele>627.59997558594</ele>
        <time>2019-05-30T09:05:12.000Z</time>
      </trkpt>
      <trkpt lat="43.63204" lon="6.6305">
        <ele>627</ele>
        <time>2019-05-30T09:05:13.000Z</time>
      </trkpt>
      <trkpt lat="43.63206" lon="6.6304">
        <ele>626.59997558594</ele>
        <time>2019-05-30T09:05:14.000Z</time>
      </trkpt>
      <trkpt lat="43.63209" lon="6.63017">
        <ele>625.40002441406</ele>
        <time>2019-05-30T09:05:16.000Z</time>
      </trkpt>
      <trkpt lat="43.63209" lon="6.62993">
        <ele>623.59997558594</ele>
        <time>2019-05-30T09:05:18.000Z</time>
      </trkpt>
      <trkpt lat="43.63207" lon="6.6297">
        <ele>622.20001220703</ele>
        <time>2019-05-30T09:05:20.000Z</time>
      </trkpt>
      <trkpt lat="43.63205" lon="6.62947">
        <ele>621.59997558594</ele>
        <time>2019-05-30T09:05:22.000Z</time>
      </trkpt>
      <trkpt lat="43.63202" lon="6.62936">
        <ele>621.59997558594</ele>
        <time>2019-05-30T09:05:23.000Z</time>
      </trkpt>
      <trkpt lat="43.63198" lon="6.62914">
        <ele>621.20001220703</ele>
        <time>2019-05-30T09:05:25.000Z</time>
      </trkpt>
      <trkpt lat="43.63197" lon="6.62904">
        <ele>620.79998779297</ele>
        <time>2019-05-30T09:05:26.000Z</time>
      </trkpt>
      <trkpt lat="43.63197" lon="6.62894">
        <ele>620.59997558594</ele>
        <time>2019-05-30T09:05:27.000Z</time>
      </trkpt>
      <trkpt lat="43.63198" lon="6.62874">
        <ele>620.20001220703</ele>
        <time>2019-05-30T09:05:29.000Z</time>
      </trkpt>
      <trkpt lat="43.63198" lon="6.62865">
        <ele>620.40002441406</ele>
        <time>2019-05-30T09:05:30.000Z</time>
      </trkpt>
      <trkpt lat="43.63197" lon="6.62858">
        <ele>620.59997558594</ele>
        <time>2019-05-30T09:05:31.000Z</time>
      </trkpt>
      <trkpt lat="43.63188" lon="6.62838">
        <ele>621.40002441406</ele>
        <time>2019-05-30T09:05:34.000Z</time>
      </trkpt>
      <trkpt lat="43.63184" lon="6.62831">
        <ele>621.59997558594</ele>
        <time>2019-05-30T09:05:35.000Z</time>
      </trkpt>
      <trkpt lat="43.6318" lon="6.62825">
        <ele>622</ele>
        <time>2019-05-30T09:05:36.000Z</time>
      </trkpt>
      <trkpt lat="43.63174" lon="6.62813">
        <ele>622.40002441406</ele>
        <time>2019-05-30T09:05:38.000Z</time>
      </trkpt>
      <trkpt lat="43.63167" lon="6.62801">
        <ele>623</ele>
        <time>2019-05-30T09:05:40.000Z</time>
      </trkpt>
      <trkpt lat="43.63158" lon="6.62782">
        <ele>623.59997558594</ele>
        <time>2019-05-30T09:05:43.000Z</time>
      </trkpt>
      <trkpt lat="43.63155" lon="6.62766">
        <ele>623.40002441406</ele>
        <time>2019-05-30T09:05:45.000Z</time>
      </trkpt>
      <trkpt lat="43.63151" lon="6.62743">
        <ele>622.79998779297</ele>
        <time>2019-05-30T09:05:48.000Z</time>
      </trkpt>
      <trkpt lat="43.6315" lon="6.62736">
        <ele>622.59997558594</ele>
        <time>2019-05-30T09:05:49.000Z</time>
      </trkpt>
      <trkpt lat="43.63149" lon="6.62708">
        <ele>623.59997558594</ele>
        <time>2019-05-30T09:05:53.000Z</time>
      </trkpt>
      <trkpt lat="43.63144" lon="6.62682">
        <ele>623.40002441406</ele>
        <time>2019-05-30T09:05:56.000Z</time>
      </trkpt>
      <trkpt lat="43.63142" lon="6.62656">
        <ele>621.79998779297</ele>
        <time>2019-05-30T09:05:59.000Z</time>
      </trkpt>
      <trkpt lat="43.63143" lon="6.62645">
        <ele>621.40002441406</ele>
        <time>2019-05-30T09:06:00.000Z</time>
      </trkpt>
      <trkpt lat="43.63144" lon="6.62638">
        <ele>620.20001220703</ele>
        <time>2019-05-30T09:06:01.000Z</time>
      </trkpt>
      <trkpt lat="43.63147" lon="6.62629">
        <ele>619</ele>
        <time>2019-05-30T09:06:02.000Z</time>
      </trkpt>
      <trkpt lat="43.63153" lon="6.62615">
        <ele>617.79998779297</ele>
        <time>2019-05-30T09:06:04.000Z</time>
      </trkpt>
      <trkpt lat="43.63156" lon="6.62608">
        <ele>617.40002441406</ele>
        <time>2019-05-30T09:06:05.000Z</time>
      </trkpt>
      <trkpt lat="43.63163" lon="6.62596">
        <ele>617.59997558594</ele>
        <time>2019-05-30T09:06:07.000Z</time>
      </trkpt>
      <trkpt lat="43.63172" lon="6.62585">
        <ele>617.20001220703</ele>
        <time>2019-05-30T09:06:09.000Z</time>
      </trkpt>
      <trkpt lat="43.63173" lon="6.62579">
        <ele>617</ele>
        <time>2019-05-30T09:06:11.000Z</time>
      </trkpt>
      <trkpt lat="43.63172" lon="6.62577">
        <ele>616.40002441406</ele>
        <time>2019-05-30T09:06:12.000Z</time>
      </trkpt>
      <trkpt lat="43.63166" lon="6.62578">
        <ele>616</ele>
        <time>2019-05-30T09:06:14.000Z</time>
      </trkpt>
      <trkpt lat="43.63163" lon="6.62579">
        <ele>615.20001220703</ele>
        <time>2019-05-30T09:06:15.000Z</time>
      </trkpt>
      <trkpt lat="43.6316" lon="6.62584">
        <ele>614.59997558594</ele>
        <time>2019-05-30T09:06:16.000Z</time>
      </trkpt>
      <trkpt lat="43.63156" lon="6.62589">
        <ele>614.20001220703</ele>
        <time>2019-05-30T09:06:17.000Z</time>
      </trkpt>
      <trkpt lat="43.63151" lon="6.62593">
        <ele>614</ele>
        <time>2019-05-30T09:06:18.000Z</time>
      </trkpt>
      <trkpt lat="43.63136" lon="6.62602">
        <ele>613</ele>
        <time>2019-05-30T09:06:21.000Z</time>
      </trkpt>
      <trkpt lat="43.63127" lon="6.62607">
        <ele>611.59997558594</ele>
        <time>2019-05-30T09:06:23.000Z</time>
      </trkpt>
      <trkpt lat="43.63119" lon="6.62617">
        <ele>611</ele>
        <time>2019-05-30T09:06:25.000Z</time>
      </trkpt>
      <trkpt lat="43.63116" lon="6.62623">
        <ele>610.59997558594</ele>
        <time>2019-05-30T09:06:26.000Z</time>
      </trkpt>
      <trkpt lat="43.63113" lon="6.62639">
        <ele>609.59997558594</ele>
        <time>2019-05-30T09:06:28.000Z</time>
      </trkpt>
      <trkpt lat="43.63112" lon="6.62647">
        <ele>608.59997558594</ele>
        <time>2019-05-30T09:06:29.000Z</time>
      </trkpt>
      <trkpt lat="43.63107" lon="6.6266">
        <ele>607.40002441406</ele>
        <time>2019-05-30T09:06:31.000Z</time>
      </trkpt>
      <trkpt lat="43.63105" lon="6.62667">
        <ele>606.59997558594</ele>
        <time>2019-05-30T09:06:32.000Z</time>
      </trkpt>
      <trkpt lat="43.63103" lon="6.62674">
        <ele>606</ele>
        <time>2019-05-30T09:06:33.000Z</time>
      </trkpt>
      <trkpt lat="43.63101" lon="6.62682">
        <ele>605.59997558594</ele>
        <time>2019-05-30T09:06:34.000Z</time>
      </trkpt>
      <trkpt lat="43.63099" lon="6.62689">
        <ele>604.40002441406</ele>
        <time>2019-05-30T09:06:35.000Z</time>
      </trkpt>
      <trkpt lat="43.63097" lon="6.62695">
        <ele>603</ele>
        <time>2019-05-30T09:06:36.000Z</time>
      </trkpt>
      <trkpt lat="43.63095" lon="6.62701">
        <ele>602</ele>
        <time>2019-05-30T09:06:37.000Z</time>
      </trkpt>
      <trkpt lat="43.6309" lon="6.62704">
        <ele>600</ele>
        <time>2019-05-30T09:06:39.000Z</time>
      </trkpt>
      <trkpt lat="43.63088" lon="6.62692">
        <ele>599</ele>
        <time>2019-05-30T09:06:41.000Z</time>
      </trkpt>
      <trkpt lat="43.63088" lon="6.62687">
        <ele>598.40002441406</ele>
        <time>2019-05-30T09:06:42.000Z</time>
      </trkpt>
      <trkpt lat="43.63089" lon="6.62681">
        <ele>597.79998779297</ele>
        <time>2019-05-30T09:06:43.000Z</time>
      </trkpt>
      <trkpt lat="43.6309" lon="6.6267">
        <ele>597.20001220703</ele>
        <time>2019-05-30T09:06:45.000Z</time>
      </trkpt>
      <trkpt lat="43.63089" lon="6.62664">
        <ele>596.20001220703</ele>
        <time>2019-05-30T09:06:46.000Z</time>
      </trkpt>
      <trkpt lat="43.63085" lon="6.6265">
        <ele>595.20001220703</ele>
        <time>2019-05-30T09:06:48.000Z</time>
      </trkpt>
      <trkpt lat="43.63082" lon="6.62643">
        <ele>594.59997558594</ele>
        <time>2019-05-30T09:06:49.000Z</time>
      </trkpt>
      <trkpt lat="43.63078" lon="6.62622">
        <ele>594</ele>
        <time>2019-05-30T09:06:52.000Z</time>
      </trkpt>
      <trkpt lat="43.63079" lon="6.62616">
        <ele>594</ele>
        <time>2019-05-30T09:06:53.000Z</time>
      </trkpt>
      <trkpt lat="43.6308" lon="6.6261">
        <ele>594</ele>
        <time>2019-05-30T09:06:54.000Z</time>
      </trkpt>
      <trkpt lat="43.63082" lon="6.62592">
        <ele>594</ele>
        <time>2019-05-30T09:06:57.000Z</time>
      </trkpt>
      <trkpt lat="43.63077" lon="6.62593">
        <ele>593</ele>
        <time>2019-05-30T09:07:00.000Z</time>
      </trkpt>
      <trkpt lat="43.63068" lon="6.62617">
        <ele>592</ele>
        <time>2019-05-30T09:07:04.000Z</time>
      </trkpt>
      <trkpt lat="43.63067" lon="6.62626">
        <ele>591.20001220703</ele>
        <time>2019-05-30T09:07:05.000Z</time>
      </trkpt>
      <trkpt lat="43.63065" lon="6.62636">
        <ele>590.20001220703</ele>
        <time>2019-05-30T09:07:06.000Z</time>
      </trkpt>
      <trkpt lat="43.63063" lon="6.62654">
        <ele>588.20001220703</ele>
        <time>2019-05-30T09:07:08.000Z</time>
      </trkpt>
      <trkpt lat="43.63062" lon="6.6266">
        <ele>586.79998779297</ele>
        <time>2019-05-30T09:07:09.000Z</time>
      </trkpt>
      <trkpt lat="43.63061" lon="6.62664">
        <ele>586.40002441406</ele>
        <time>2019-05-30T09:07:10.000Z</time>
      </trkpt>
      <trkpt lat="43.63058" lon="6.62664">
        <ele>586.20001220703</ele>
        <time>2019-05-30T09:07:11.000Z</time>
      </trkpt>
      <trkpt lat="43.63055" lon="6.6266">
        <ele>585.40002441406</ele>
        <time>2019-05-30T09:07:12.000Z</time>
      </trkpt>
      <trkpt lat="43.63054" lon="6.62654">
        <ele>585</ele>
        <time>2019-05-30T09:07:13.000Z</time>
      </trkpt>
      <trkpt lat="43.63051" lon="6.62639">
        <ele>583.79998779297</ele>
        <time>2019-05-30T09:07:15.000Z</time>
      </trkpt>
      <trkpt lat="43.63051" lon="6.62631">
        <ele>583.40002441406</ele>
        <time>2019-05-30T09:07:16.000Z</time>
      </trkpt>
      <trkpt lat="43.6305" lon="6.62622">
        <ele>582.59997558594</ele>
        <time>2019-05-30T09:07:17.000Z</time>
      </trkpt>
      <trkpt lat="43.63049" lon="6.62594">
        <ele>581</ele>
        <time>2019-05-30T09:07:20.000Z</time>
      </trkpt>
      <trkpt lat="43.63049" lon="6.62585">
        <ele>580.59997558594</ele>
        <time>2019-05-30T09:07:21.000Z</time>
      </trkpt>
      <trkpt lat="43.6305" lon="6.62574">
        <ele>580</ele>
        <time>2019-05-30T09:07:22.000Z</time>
      </trkpt>
      <trkpt lat="43.63051" lon="6.62565">
        <ele>579.40002441406</ele>
        <time>2019-05-30T09:07:23.000Z</time>
      </trkpt>
      <trkpt lat="43.6306" lon="6.62552">
        <ele>578.79998779297</ele>
        <time>2019-05-30T09:07:25.000Z</time>
      </trkpt>
      <trkpt lat="43.63071" lon="6.6254">
        <ele>577.59997558594</ele>
        <time>2019-05-30T09:07:27.000Z</time>
      </trkpt>
      <trkpt lat="43.63075" lon="6.62531">
        <ele>576.59997558594</ele>
        <time>2019-05-30T09:07:28.000Z</time>
      </trkpt>
      <trkpt lat="43.63079" lon="6.62523">
        <ele>575</ele>
        <time>2019-05-30T09:07:29.000Z</time>
      </trkpt>
      <trkpt lat="43.63086" lon="6.62506">
        <ele>573</ele>
        <time>2019-05-30T09:07:31.000Z</time>
      </trkpt>
      <trkpt lat="43.63088" lon="6.62498">
        <ele>572.40002441406</ele>
        <time>2019-05-30T09:07:32.000Z</time>
      </trkpt>
      <trkpt lat="43.63089" lon="6.62491">
        <ele>571.79998779297</ele>
        <time>2019-05-30T09:07:33.000Z</time>
      </trkpt>
      <trkpt lat="43.63092" lon="6.62472">
        <ele>572.79998779297</ele>
        <time>2019-05-30T09:07:36.000Z</time>
      </trkpt>
      <trkpt lat="43.63094" lon="6.62465">
        <ele>572.79998779297</ele>
        <time>2019-05-30T09:07:37.000Z</time>
      </trkpt>
      <trkpt lat="43.63098" lon="6.62447">
        <ele>571</ele>
        <time>2019-05-30T09:07:40.000Z</time>
      </trkpt>
      <trkpt lat="43.63099" lon="6.62442">
        <ele>569.79998779297</ele>
        <time>2019-05-30T09:07:41.000Z</time>
      </trkpt>
      <trkpt lat="43.63095" lon="6.62437">
        <ele>568.59997558594</ele>
        <time>2019-05-30T09:07:43.000Z</time>
      </trkpt>
      <trkpt lat="43.63088" lon="6.62436">
        <ele>567.59997558594</ele>
        <time>2019-05-30T09:07:45.000Z</time>
      </trkpt>
      <trkpt lat="43.63085" lon="6.62435">
        <ele>567.40002441406</ele>
        <time>2019-05-30T09:07:46.000Z</time>
      </trkpt>
      <trkpt lat="43.63066" lon="6.62432">
        <ele>567.79998779297</ele>
        <time>2019-05-30T09:07:51.000Z</time>
      </trkpt>
      <trkpt lat="43.6305" lon="6.62424">
        <ele>568.20001220703</ele>
        <time>2019-05-30T09:07:55.000Z</time>
      </trkpt>
      <trkpt lat="43.63047" lon="6.6242">
        <ele>568.20001220703</ele>
        <time>2019-05-30T09:07:56.000Z</time>
      </trkpt>
      <trkpt lat="43.63027" lon="6.62401">
        <ele>567.79998779297</ele>
        <time>2019-05-30T09:08:00.000Z</time>
      </trkpt>
      <trkpt lat="43.63011" lon="6.62385">
        <ele>565.40002441406</ele>
        <time>2019-05-30T09:08:03.000Z</time>
      </trkpt>
      <trkpt lat="43.63006" lon="6.62381">
        <ele>564.20001220703</ele>
        <time>2019-05-30T09:08:04.000Z</time>
      </trkpt>
      <trkpt lat="43.62999" lon="6.62381">
        <ele>562.79998779297</ele>
        <time>2019-05-30T09:08:05.000Z</time>
      </trkpt>
      <trkpt lat="43.62987" lon="6.62381">
        <ele>561.20001220703</ele>
        <time>2019-05-30T09:08:07.000Z</time>
      </trkpt>
      <trkpt lat="43.62981" lon="6.62378">
        <ele>560</ele>
        <time>2019-05-30T09:08:08.000Z</time>
      </trkpt>
      <trkpt lat="43.62974" lon="6.62367">
        <ele>558.59997558594</ele>
        <time>2019-05-30T09:08:10.000Z</time>
      </trkpt>
      <trkpt lat="43.62972" lon="6.62354">
        <ele>556.79998779297</ele>
        <time>2019-05-30T09:08:12.000Z</time>
      </trkpt>
      <trkpt lat="43.62973" lon="6.62348">
        <ele>556.79998779297</ele>
        <time>2019-05-30T09:08:13.000Z</time>
      </trkpt>
      <trkpt lat="43.62971" lon="6.6233">
        <ele>557</ele>
        <time>2019-05-30T09:08:16.000Z</time>
      </trkpt>
      <trkpt lat="43.62964" lon="6.62307">
        <ele>556.40002441406</ele>
        <time>2019-05-30T09:08:19.000Z</time>
      </trkpt>
      <trkpt lat="43.62962" lon="6.62299">
        <ele>556</ele>
        <time>2019-05-30T09:08:20.000Z</time>
      </trkpt>
      <trkpt lat="43.6296" lon="6.62291">
        <ele>555.59997558594</ele>
        <time>2019-05-30T09:08:21.000Z</time>
      </trkpt>
      <trkpt lat="43.62956" lon="6.62282">
        <ele>555.20001220703</ele>
        <time>2019-05-30T09:08:22.000Z</time>
      </trkpt>
      <trkpt lat="43.62945" lon="6.62268">
        <ele>554.59997558594</ele>
        <time>2019-05-30T09:08:24.000Z</time>
      </trkpt>
      <trkpt lat="43.62939" lon="6.62262">
        <ele>554</ele>
        <time>2019-05-30T09:08:25.000Z</time>
      </trkpt>
      <trkpt lat="43.62927" lon="6.62248">
        <ele>552.79998779297</ele>
        <time>2019-05-30T09:08:27.000Z</time>
      </trkpt>
      <trkpt lat="43.62917" lon="6.6224">
        <ele>551.40002441406</ele>
        <time>2019-05-30T09:08:29.000Z</time>
      </trkpt>
      <trkpt lat="43.62912" lon="6.62247">
        <ele>550.20001220703</ele>
        <time>2019-05-30T09:08:31.000Z</time>
      </trkpt>
      <trkpt lat="43.62915" lon="6.62261">
        <ele>549.20001220703</ele>
        <time>2019-05-30T09:08:33.000Z</time>
      </trkpt>
      <trkpt lat="43.62916" lon="6.62271">
        <ele>548.79998779297</ele>
        <time>2019-05-30T09:08:34.000Z</time>
      </trkpt>
      <trkpt lat="43.62917" lon="6.62289">
        <ele>547.79998779297</ele>
        <time>2019-05-30T09:08:36.000Z</time>
      </trkpt>
      <trkpt lat="43.62918" lon="6.6231">
        <ele>546.79998779297</ele>
        <time>2019-05-30T09:08:38.000Z</time>
      </trkpt>
      <trkpt lat="43.62919" lon="6.6233">
        <ele>546.40002441406</ele>
        <time>2019-05-30T09:08:40.000Z</time>
      </trkpt>
      <trkpt lat="43.6292" lon="6.62364">
        <ele>545.79998779297</ele>
        <time>2019-05-30T09:08:43.000Z</time>
      </trkpt>
      <trkpt lat="43.62921" lon="6.62375">
        <ele>545.20001220703</ele>
        <time>2019-05-30T09:08:44.000Z</time>
      </trkpt>
      <trkpt lat="43.62923" lon="6.62386">
        <ele>544.40002441406</ele>
        <time>2019-05-30T09:08:45.000Z</time>
      </trkpt>
      <trkpt lat="43.62926" lon="6.62397">
        <ele>543.79998779297</ele>
        <time>2019-05-30T09:08:46.000Z</time>
      </trkpt>
      <trkpt lat="43.6293" lon="6.62409">
        <ele>543.40002441406</ele>
        <time>2019-05-30T09:08:47.000Z</time>
      </trkpt>
      <trkpt lat="43.62937" lon="6.6243">
        <ele>542.20001220703</ele>
        <time>2019-05-30T09:08:49.000Z</time>
      </trkpt>
      <trkpt lat="43.62947" lon="6.62452">
        <ele>541</ele>
        <time>2019-05-30T09:08:51.000Z</time>
      </trkpt>
      <trkpt lat="43.62954" lon="6.62461">
        <ele>540.20001220703</ele>
        <time>2019-05-30T09:08:52.000Z</time>
      </trkpt>
      <trkpt lat="43.62962" lon="6.62468">
        <ele>539.59997558594</ele>
        <time>2019-05-30T09:08:53.000Z</time>
      </trkpt>
      <trkpt lat="43.62976" lon="6.62483">
        <ele>538.59997558594</ele>
        <time>2019-05-30T09:08:55.000Z</time>
      </trkpt>
      <trkpt lat="43.62982" lon="6.62502">
        <ele>537.40002441406</ele>
        <time>2019-05-30T09:08:57.000Z</time>
      </trkpt>
      <trkpt lat="43.62976" lon="6.62525">
        <ele>536.40002441406</ele>
        <time>2019-05-30T09:08:59.000Z</time>
      </trkpt>
      <trkpt lat="43.6297" lon="6.62534">
        <ele>536.20001220703</ele>
        <time>2019-05-30T09:09:00.000Z</time>
      </trkpt>
      <trkpt lat="43.62965" lon="6.62542">
        <ele>535.79998779297</ele>
        <time>2019-05-30T09:09:01.000Z</time>
      </trkpt>
      <trkpt lat="43.62953" lon="6.62559">
        <ele>534.79998779297</ele>
        <time>2019-05-30T09:09:03.000Z</time>
      </trkpt>
      <trkpt lat="43.62947" lon="6.62568">
        <ele>534.59997558594</ele>
        <time>2019-05-30T09:09:04.000Z</time>
      </trkpt>
      <trkpt lat="43.62942" lon="6.62578">
        <ele>534.20001220703</ele>
        <time>2019-05-30T09:09:05.000Z</time>
      </trkpt>
      <trkpt lat="43.62938" lon="6.62587">
        <ele>533.59997558594</ele>
        <time>2019-05-30T09:09:06.000Z</time>
      </trkpt>
      <trkpt lat="43.6293" lon="6.62609">
        <ele>532.40002441406</ele>
        <time>2019-05-30T09:09:08.000Z</time>
      </trkpt>
      <trkpt lat="43.6292" lon="6.62642">
        <ele>531.20001220703</ele>
        <time>2019-05-30T09:09:11.000Z</time>
      </trkpt>
      <trkpt lat="43.62909" lon="6.62678">
        <ele>530.20001220703</ele>
        <time>2019-05-30T09:09:14.000Z</time>
      </trkpt>
      <trkpt lat="43.62905" lon="6.62689">
        <ele>529.79998779297</ele>
        <time>2019-05-30T09:09:15.000Z</time>
      </trkpt>
      <trkpt lat="43.62897" lon="6.62714">
        <ele>528.79998779297</ele>
        <time>2019-05-30T09:09:17.000Z</time>
      </trkpt>
      <trkpt lat="43.6289" lon="6.62738">
        <ele>527.59997558594</ele>
        <time>2019-05-30T09:09:19.000Z</time>
      </trkpt>
      <trkpt lat="43.62885" lon="6.62761">
        <ele>526.40002441406</ele>
        <time>2019-05-30T09:09:21.000Z</time>
      </trkpt>
      <trkpt lat="43.62884" lon="6.62789">
        <ele>525.20001220703</ele>
        <time>2019-05-30T09:09:23.000Z</time>
      </trkpt>
      <trkpt lat="43.62882" lon="6.62817">
        <ele>524.59997558594</ele>
        <time>2019-05-30T09:09:25.000Z</time>
      </trkpt>
      <trkpt lat="43.62879" lon="6.6283">
        <ele>524.20001220703</ele>
        <time>2019-05-30T09:09:26.000Z</time>
      </trkpt>
      <trkpt lat="43.62869" lon="6.62856">
        <ele>523.20001220703</ele>
        <time>2019-05-30T09:09:28.000Z</time>
      </trkpt>
      <trkpt lat="43.62863" lon="6.62867">
        <ele>522.40002441406</ele>
        <time>2019-05-30T09:09:29.000Z</time>
      </trkpt>
      <trkpt lat="43.62852" lon="6.62891">
        <ele>521.20001220703</ele>
        <time>2019-05-30T09:09:31.000Z</time>
      </trkpt>
      <trkpt lat="43.62847" lon="6.62904">
        <ele>520.79998779297</ele>
        <time>2019-05-30T09:09:32.000Z</time>
      </trkpt>
      <trkpt lat="43.62844" lon="6.62917">
        <ele>520.40002441406</ele>
        <time>2019-05-30T09:09:33.000Z</time>
      </trkpt>
      <trkpt lat="43.62837" lon="6.62945">
        <ele>520.20001220703</ele>
        <time>2019-05-30T09:09:35.000Z</time>
      </trkpt>
      <trkpt lat="43.62831" lon="6.62974">
        <ele>519.59997558594</ele>
        <time>2019-05-30T09:09:37.000Z</time>
      </trkpt>
      <trkpt lat="43.62828" lon="6.62988">
        <ele>519</ele>
        <time>2019-05-30T09:09:38.000Z</time>
      </trkpt>
      <trkpt lat="43.62821" lon="6.63017">
        <ele>517.79998779297</ele>
        <time>2019-05-30T09:09:40.000Z</time>
      </trkpt>
      <trkpt lat="43.62816" lon="6.6303">
        <ele>517.20001220703</ele>
        <time>2019-05-30T09:09:41.000Z</time>
      </trkpt>
      <trkpt lat="43.6281" lon="6.63043">
        <ele>516.40002441406</ele>
        <time>2019-05-30T09:09:42.000Z</time>
      </trkpt>
      <trkpt lat="43.62795" lon="6.63067">
        <ele>515.20001220703</ele>
        <time>2019-05-30T09:09:44.000Z</time>
      </trkpt>
      <trkpt lat="43.62781" lon="6.63089">
        <ele>514.20001220703</ele>
        <time>2019-05-30T09:09:46.000Z</time>
      </trkpt>
      <trkpt lat="43.62769" lon="6.63116">
        <ele>512.59997558594</ele>
        <time>2019-05-30T09:09:48.000Z</time>
      </trkpt>
      <trkpt lat="43.62759" lon="6.63143">
        <ele>511.20001220703</ele>
        <time>2019-05-30T09:09:50.000Z</time>
      </trkpt>
      <trkpt lat="43.6275" lon="6.63171">
        <ele>509.79998779297</ele>
        <time>2019-05-30T09:09:52.000Z</time>
      </trkpt>
      <trkpt lat="43.6274" lon="6.63202">
        <ele>508.39999389648</ele>
        <time>2019-05-30T09:09:54.000Z</time>
      </trkpt>
      <trkpt lat="43.6273" lon="6.6323">
        <ele>507</ele>
        <time>2019-05-30T09:09:56.000Z</time>
      </trkpt>
      <trkpt lat="43.62721" lon="6.63258">
        <ele>506</ele>
        <time>2019-05-30T09:09:58.000Z</time>
      </trkpt>
      <trkpt lat="43.62715" lon="6.63274">
        <ele>505.60000610352</ele>
        <time>2019-05-30T09:09:59.000Z</time>
      </trkpt>
      <trkpt lat="43.62701" lon="6.63317">
        <ele>503.60000610352</ele>
        <time>2019-05-30T09:10:02.000Z</time>
      </trkpt>
      <trkpt lat="43.62694" lon="6.63347">
        <ele>502.60000610352</ele>
        <time>2019-05-30T09:10:04.000Z</time>
      </trkpt>
      <trkpt lat="43.62692" lon="6.63363">
        <ele>502.20001220703</ele>
        <time>2019-05-30T09:10:05.000Z</time>
      </trkpt>
      <trkpt lat="43.62693" lon="6.63394">
        <ele>501.20001220703</ele>
        <time>2019-05-30T09:10:07.000Z</time>
      </trkpt>
      <trkpt lat="43.62695" lon="6.63409">
        <ele>500.60000610352</ele>
        <time>2019-05-30T09:10:08.000Z</time>
      </trkpt>
      <trkpt lat="43.62697" lon="6.63423">
        <ele>500</ele>
        <time>2019-05-30T09:10:09.000Z</time>
      </trkpt>
      <trkpt lat="43.62699" lon="6.63439">
        <ele>499.39999389648</ele>
        <time>2019-05-30T09:10:10.000Z</time>
      </trkpt>
      <trkpt lat="43.627" lon="6.63454">
        <ele>498.79998779297</ele>
        <time>2019-05-30T09:10:11.000Z</time>
      </trkpt>
      <trkpt lat="43.62699" lon="6.63471">
        <ele>498.20001220703</ele>
        <time>2019-05-30T09:10:12.000Z</time>
      </trkpt>
      <trkpt lat="43.62696" lon="6.63501">
        <ele>496.79998779297</ele>
        <time>2019-05-30T09:10:14.000Z</time>
      </trkpt>
      <trkpt lat="43.62694" lon="6.63515">
        <ele>496.39999389648</ele>
        <time>2019-05-30T09:10:15.000Z</time>
      </trkpt>
      <trkpt lat="43.62692" lon="6.63531">
        <ele>495.20001220703</ele>
        <time>2019-05-30T09:10:16.000Z</time>
      </trkpt>
      <trkpt lat="43.62687" lon="6.63563">
        <ele>494.20001220703</ele>
        <time>2019-05-30T09:10:18.000Z</time>
      </trkpt>
      <trkpt lat="43.62679" lon="6.6361">
        <ele>493.20001220703</ele>
        <time>2019-05-30T09:10:21.000Z</time>
      </trkpt>
      <trkpt lat="43.62673" lon="6.63656">
        <ele>491.79998779297</ele>
        <time>2019-05-30T09:10:24.000Z</time>
      </trkpt>
      <trkpt lat="43.62668" lon="6.63686">
        <ele>490.20001220703</ele>
        <time>2019-05-30T09:10:26.000Z</time>
      </trkpt>
      <trkpt lat="43.62662" lon="6.63718">
        <ele>489</ele>
        <time>2019-05-30T09:10:28.000Z</time>
      </trkpt>
      <trkpt lat="43.62656" lon="6.63731">
        <ele>488.39999389648</ele>
        <time>2019-05-30T09:10:29.000Z</time>
      </trkpt>
      <trkpt lat="43.6264" lon="6.63753">
        <ele>487.60000610352</ele>
        <time>2019-05-30T09:10:31.000Z</time>
      </trkpt>
      <trkpt lat="43.62607" lon="6.63767">
        <ele>486</ele>
        <time>2019-05-30T09:10:34.000Z</time>
      </trkpt>
      <trkpt lat="43.62585" lon="6.63763">
        <ele>484.60000610352</ele>
        <time>2019-05-30T09:10:36.000Z</time>
      </trkpt>
      <trkpt lat="43.62573" lon="6.63762">
        <ele>483.79998779297</ele>
        <time>2019-05-30T09:10:37.000Z</time>
      </trkpt>
      <trkpt lat="43.62562" lon="6.63762">
        <ele>483.39999389648</ele>
        <time>2019-05-30T09:10:38.000Z</time>
      </trkpt>
      <trkpt lat="43.62553" lon="6.63767">
        <ele>482.60000610352</ele>
        <time>2019-05-30T09:10:39.000Z</time>
      </trkpt>
      <trkpt lat="43.62546" lon="6.6377">
        <ele>481.79998779297</ele>
        <time>2019-05-30T09:10:40.000Z</time>
      </trkpt>
      <trkpt lat="43.62537" lon="6.63784">
        <ele>480.60000610352</ele>
        <time>2019-05-30T09:10:42.000Z</time>
      </trkpt>
      <trkpt lat="43.62532" lon="6.63797">
        <ele>480.20001220703</ele>
        <time>2019-05-30T09:10:44.000Z</time>
      </trkpt>
      <trkpt lat="43.62526" lon="6.63814">
        <ele>482.20001220703</ele>
        <time>2019-05-30T09:10:47.000Z</time>
      </trkpt>
      <trkpt lat="43.62524" lon="6.63819">
        <ele>482.79998779297</ele>
        <time>2019-05-30T09:10:48.000Z</time>
      </trkpt>
      <trkpt lat="43.62523" lon="6.63825">
        <ele>483.39999389648</ele>
        <time>2019-05-30T09:10:49.000Z</time>
      </trkpt>
      <trkpt lat="43.62522" lon="6.63831">
        <ele>483.79998779297</ele>
        <time>2019-05-30T09:10:50.000Z</time>
      </trkpt>
      <trkpt lat="43.62522" lon="6.63836">
        <ele>484.20001220703</ele>
        <time>2019-05-30T09:10:51.000Z</time>
      </trkpt>
      <trkpt lat="43.62521" lon="6.63848">
        <ele>484.79998779297</ele>
        <time>2019-05-30T09:10:53.000Z</time>
      </trkpt>
      <trkpt lat="43.62521" lon="6.63853">
        <ele>485.20001220703</ele>
        <time>2019-05-30T09:10:54.000Z</time>
      </trkpt>
      <trkpt lat="43.62521" lon="6.63862">
        <ele>486</ele>
        <time>2019-05-30T09:10:56.000Z</time>
      </trkpt>
      <trkpt lat="43.62516" lon="6.63883">
        <ele>487.20001220703</ele>
        <time>2019-05-30T09:11:00.000Z</time>
      </trkpt>
      <trkpt lat="43.62512" lon="6.63894">
        <ele>487.20001220703</ele>
        <time>2019-05-30T09:11:02.000Z</time>
      </trkpt>
      <trkpt lat="43.62498" lon="6.63908">
        <ele>487.79998779297</ele>
        <time>2019-05-30T09:11:06.000Z</time>
      </trkpt>
      <trkpt lat="43.62491" lon="6.63913">
        <ele>488.39999389648</ele>
        <time>2019-05-30T09:11:08.000Z</time>
      </trkpt>
      <trkpt lat="43.62483" lon="6.63917">
        <ele>488.79998779297</ele>
        <time>2019-05-30T09:11:10.000Z</time>
      </trkpt>
      <trkpt lat="43.62479" lon="6.63919">
        <ele>488.79998779297</ele>
        <time>2019-05-30T09:11:11.000Z</time>
      </trkpt>
      <trkpt lat="43.62466" lon="6.63921">
        <ele>489.60000610352</ele>
        <time>2019-05-30T09:11:14.000Z</time>
      </trkpt>
      <trkpt lat="43.6246" lon="6.63922">
        <ele>489.60000610352</ele>
        <time>2019-05-30T09:11:15.000Z</time>
      </trkpt>
      <trkpt lat="43.62455" lon="6.63922">
        <ele>489.60000610352</ele>
        <time>2019-05-30T09:11:16.000Z</time>
      </trkpt>
      <trkpt lat="43.62438" lon="6.63916">
        <ele>489.20001220703</ele>
        <time>2019-05-30T09:11:19.000Z</time>
      </trkpt>
      <trkpt lat="43.62415" lon="6.63905">
        <ele>488.39999389648</ele>
        <time>2019-05-30T09:11:23.000Z</time>
      </trkpt>
      <trkpt lat="43.62395" lon="6.63897">
        <ele>488</ele>
        <time>2019-05-30T09:11:26.000Z</time>
      </trkpt>
      <trkpt lat="43.62379" lon="6.63891">
        <ele>487.20001220703</ele>
        <time>2019-05-30T09:11:28.000Z</time>
      </trkpt>
      <trkpt lat="43.62363" lon="6.63886">
        <ele>486</ele>
        <time>2019-05-30T09:11:30.000Z</time>
      </trkpt>
      <trkpt lat="43.62355" lon="6.63884">
        <ele>484.79998779297</ele>
        <time>2019-05-30T09:11:31.000Z</time>
      </trkpt>
      <trkpt lat="43.62337" lon="6.6388">
        <ele>483.39999389648</ele>
        <time>2019-05-30T09:11:33.000Z</time>
      </trkpt>
      <trkpt lat="43.62319" lon="6.63875">
        <ele>482</ele>
        <time>2019-05-30T09:11:35.000Z</time>
      </trkpt>
      <trkpt lat="43.62291" lon="6.63871">
        <ele>480</ele>
        <time>2019-05-30T09:11:38.000Z</time>
      </trkpt>
      <trkpt lat="43.62283" lon="6.63872">
        <ele>479</ele>
        <time>2019-05-30T09:11:39.000Z</time>
      </trkpt>
      <trkpt lat="43.62275" lon="6.63878">
        <ele>478</ele>
        <time>2019-05-30T09:11:40.000Z</time>
      </trkpt>
      <trkpt lat="43.62268" lon="6.63883">
        <ele>476.79998779297</ele>
        <time>2019-05-30T09:11:41.000Z</time>
      </trkpt>
      <trkpt lat="43.6226" lon="6.6389">
        <ele>475.79998779297</ele>
        <time>2019-05-30T09:11:42.000Z</time>
      </trkpt>
      <trkpt lat="43.62252" lon="6.63896">
        <ele>475</ele>
        <time>2019-05-30T09:11:43.000Z</time>
      </trkpt>
      <trkpt lat="43.62243" lon="6.63898">
        <ele>474</ele>
        <time>2019-05-30T09:11:44.000Z</time>
      </trkpt>
      <trkpt lat="43.62225" lon="6.63899">
        <ele>472.20001220703</ele>
        <time>2019-05-30T09:11:46.000Z</time>
      </trkpt>
      <trkpt lat="43.62216" lon="6.63898">
        <ele>471</ele>
        <time>2019-05-30T09:11:47.000Z</time>
      </trkpt>
      <trkpt lat="43.62207" lon="6.63897">
        <ele>470</ele>
        <time>2019-05-30T09:11:48.000Z</time>
      </trkpt>
      <trkpt lat="43.6219" lon="6.63894">
        <ele>468.60000610352</ele>
        <time>2019-05-30T09:11:50.000Z</time>
      </trkpt>
      <trkpt lat="43.62173" lon="6.63893">
        <ele>467.79998779297</ele>
        <time>2019-05-30T09:11:52.000Z</time>
      </trkpt>
      <trkpt lat="43.62164" lon="6.63894">
        <ele>467.60000610352</ele>
        <time>2019-05-30T09:11:53.000Z</time>
      </trkpt>
      <trkpt lat="43.62136" lon="6.63894">
        <ele>466.39999389648</ele>
        <time>2019-05-30T09:11:56.000Z</time>
      </trkpt>
      <trkpt lat="43.62126" lon="6.63894">
        <ele>466</ele>
        <time>2019-05-30T09:11:57.000Z</time>
      </trkpt>
      <trkpt lat="43.62115" lon="6.63892">
        <ele>465.39999389648</ele>
        <time>2019-05-30T09:11:58.000Z</time>
      </trkpt>
      <trkpt lat="43.62094" lon="6.63889">
        <ele>464</ele>
        <time>2019-05-30T09:12:00.000Z</time>
      </trkpt>
      <trkpt lat="43.62083" lon="6.63889">
        <ele>463.39999389648</ele>
        <time>2019-05-30T09:12:01.000Z</time>
      </trkpt>
      <trkpt lat="43.62072" lon="6.6389">
        <ele>462.39999389648</ele>
        <time>2019-05-30T09:12:02.000Z</time>
      </trkpt>
      <trkpt lat="43.62051" lon="6.63897">
        <ele>460.39999389648</ele>
        <time>2019-05-30T09:12:04.000Z</time>
      </trkpt>
      <trkpt lat="43.6204" lon="6.63902">
        <ele>459.20001220703</ele>
        <time>2019-05-30T09:12:05.000Z</time>
      </trkpt>
      <trkpt lat="43.6203" lon="6.63906">
        <ele>457</ele>
        <time>2019-05-30T09:12:06.000Z</time>
      </trkpt>
      <trkpt lat="43.62018" lon="6.6391">
        <ele>455.60000610352</ele>
        <time>2019-05-30T09:12:07.000Z</time>
      </trkpt>
      <trkpt lat="43.62008" lon="6.63911">
        <ele>453.79998779297</ele>
        <time>2019-05-30T09:12:08.000Z</time>
      </trkpt>
      <trkpt lat="43.61998" lon="6.63911">
        <ele>452.60000610352</ele>
        <time>2019-05-30T09:12:09.000Z</time>
      </trkpt>
      <trkpt lat="43.61975" lon="6.63906">
        <ele>451</ele>
        <time>2019-05-30T09:12:11.000Z</time>
      </trkpt>
      <trkpt lat="43.61953" lon="6.639">
        <ele>449.60000610352</ele>
        <time>2019-05-30T09:12:13.000Z</time>
      </trkpt>
      <trkpt lat="43.61943" lon="6.63896">
        <ele>448.60000610352</ele>
        <time>2019-05-30T09:12:14.000Z</time>
      </trkpt>
      <trkpt lat="43.61927" lon="6.63884">
        <ele>448.60000610352</ele>
        <time>2019-05-30T09:12:16.000Z</time>
      </trkpt>
      <trkpt lat="43.61919" lon="6.63877">
        <ele>446.79998779297</ele>
        <time>2019-05-30T09:12:17.000Z</time>
      </trkpt>
      <trkpt lat="43.61912" lon="6.63869">
        <ele>445</ele>
        <time>2019-05-30T09:12:18.000Z</time>
      </trkpt>
      <trkpt lat="43.61906" lon="6.63863">
        <ele>443.39999389648</ele>
        <time>2019-05-30T09:12:19.000Z</time>
      </trkpt>
      <trkpt lat="43.61901" lon="6.63858">
        <ele>441.79998779297</ele>
        <time>2019-05-30T09:12:20.000Z</time>
      </trkpt>
      <trkpt lat="43.61896" lon="6.63855">
        <ele>440.79998779297</ele>
        <time>2019-05-30T09:12:21.000Z</time>
      </trkpt>
      <trkpt lat="43.61886" lon="6.63858">
        <ele>438.60000610352</ele>
        <time>2019-05-30T09:12:23.000Z</time>
      </trkpt>
      <trkpt lat="43.61883" lon="6.63862">
        <ele>437.39999389648</ele>
        <time>2019-05-30T09:12:24.000Z</time>
      </trkpt>
      <trkpt lat="43.61881" lon="6.63868">
        <ele>436.39999389648</ele>
        <time>2019-05-30T09:12:25.000Z</time>
      </trkpt>
      <trkpt lat="43.61878" lon="6.63875">
        <ele>435</ele>
        <time>2019-05-30T09:12:26.000Z</time>
      </trkpt>
      <trkpt lat="43.61875" lon="6.63882">
        <ele>434.20001220703</ele>
        <time>2019-05-30T09:12:27.000Z</time>
      </trkpt>
      <trkpt lat="43.6187" lon="6.63889">
        <ele>434</ele>
        <time>2019-05-30T09:12:28.000Z</time>
      </trkpt>
      <trkpt lat="43.61864" lon="6.63897">
        <ele>434.20001220703</ele>
        <time>2019-05-30T09:12:29.000Z</time>
      </trkpt>
      <trkpt lat="43.61842" lon="6.63913">
        <ele>433.60000610352</ele>
        <time>2019-05-30T09:12:32.000Z</time>
      </trkpt>
      <trkpt lat="43.61826" lon="6.63924">
        <ele>432.60000610352</ele>
        <time>2019-05-30T09:12:34.000Z</time>
      </trkpt>
      <trkpt lat="43.61818" lon="6.63932">
        <ele>432.20001220703</ele>
        <time>2019-05-30T09:12:35.000Z</time>
      </trkpt>
      <trkpt lat="43.61812" lon="6.63942">
        <ele>431.39999389648</ele>
        <time>2019-05-30T09:12:36.000Z</time>
      </trkpt>
      <trkpt lat="43.618" lon="6.63963">
        <ele>429.79998779297</ele>
        <time>2019-05-30T09:12:38.000Z</time>
      </trkpt>
      <trkpt lat="43.61793" lon="6.63972">
        <ele>429</ele>
        <time>2019-05-30T09:12:39.000Z</time>
      </trkpt>
      <trkpt lat="43.61784" lon="6.6398">
        <ele>427.39999389648</ele>
        <time>2019-05-30T09:12:40.000Z</time>
      </trkpt>
      <trkpt lat="43.61776" lon="6.63988">
        <ele>426.20001220703</ele>
        <time>2019-05-30T09:12:41.000Z</time>
      </trkpt>
      <trkpt lat="43.61768" lon="6.63997">
        <ele>424.79998779297</ele>
        <time>2019-05-30T09:12:42.000Z</time>
      </trkpt>
      <trkpt lat="43.61759" lon="6.64006">
        <ele>424.20001220703</ele>
        <time>2019-05-30T09:12:43.000Z</time>
      </trkpt>
      <trkpt lat="43.61751" lon="6.64014">
        <ele>423</ele>
        <time>2019-05-30T09:12:44.000Z</time>
      </trkpt>
      <trkpt lat="43.61734" lon="6.64031">
        <ele>421</ele>
        <time>2019-05-30T09:12:46.000Z</time>
      </trkpt>
      <trkpt lat="43.61725" lon="6.64041">
        <ele>419.79998779297</ele>
        <time>2019-05-30T09:12:47.000Z</time>
      </trkpt>
      <trkpt lat="43.61716" lon="6.6405">
        <ele>418.20001220703</ele>
        <time>2019-05-30T09:12:48.000Z</time>
      </trkpt>
      <trkpt lat="43.61709" lon="6.6406">
        <ele>417</ele>
        <time>2019-05-30T09:12:49.000Z</time>
      </trkpt>
      <trkpt lat="43.61694" lon="6.64078">
        <ele>415.79998779297</ele>
        <time>2019-05-30T09:12:51.000Z</time>
      </trkpt>
      <trkpt lat="43.61679" lon="6.64097">
        <ele>414.20001220703</ele>
        <time>2019-05-30T09:12:53.000Z</time>
      </trkpt>
      <trkpt lat="43.61666" lon="6.64115">
        <ele>414.20001220703</ele>
        <time>2019-05-30T09:12:55.000Z</time>
      </trkpt>
      <trkpt lat="43.61644" lon="6.64146">
        <ele>414</ele>
        <time>2019-05-30T09:12:59.000Z</time>
      </trkpt>
      <trkpt lat="43.61629" lon="6.64167">
        <ele>415</ele>
        <time>2019-05-30T09:13:02.000Z</time>
      </trkpt>
      <trkpt lat="43.61622" lon="6.64171">
        <ele>415.60000610352</ele>
        <time>2019-05-30T09:13:03.000Z</time>
      </trkpt>
      <trkpt lat="43.61593" lon="6.64178">
        <ele>415</ele>
        <time>2019-05-30T09:13:07.000Z</time>
      </trkpt>
      <trkpt lat="43.61586" lon="6.6418">
        <ele>414.79998779297</ele>
        <time>2019-05-30T09:13:08.000Z</time>
      </trkpt>
      <trkpt lat="43.61578" lon="6.64183">
        <ele>414.39999389648</ele>
        <time>2019-05-30T09:13:09.000Z</time>
      </trkpt>
      <trkpt lat="43.61572" lon="6.64188">
        <ele>413.79998779297</ele>
        <time>2019-05-30T09:13:10.000Z</time>
      </trkpt>
      <trkpt lat="43.61561" lon="6.64204">
        <ele>412.79998779297</ele>
        <time>2019-05-30T09:13:12.000Z</time>
      </trkpt>
      <trkpt lat="43.61557" lon="6.64213">
        <ele>412.20001220703</ele>
        <time>2019-05-30T09:13:13.000Z</time>
      </trkpt>
      <trkpt lat="43.61555" lon="6.64224">
        <ele>411.39999389648</ele>
        <time>2019-05-30T09:13:14.000Z</time>
      </trkpt>
      <trkpt lat="43.61553" lon="6.64233">
        <ele>410.60000610352</ele>
        <time>2019-05-30T09:13:15.000Z</time>
      </trkpt>
      <trkpt lat="43.61551" lon="6.64239">
        <ele>409.79998779297</ele>
        <time>2019-05-30T09:13:16.000Z</time>
      </trkpt>
      <trkpt lat="43.61542" lon="6.64244">
        <ele>408.20001220703</ele>
        <time>2019-05-30T09:13:18.000Z</time>
      </trkpt>
      <trkpt lat="43.61534" lon="6.64237">
        <ele>406.79998779297</ele>
        <time>2019-05-30T09:13:20.000Z</time>
      </trkpt>
      <trkpt lat="43.6153" lon="6.64231">
        <ele>406.20001220703</ele>
        <time>2019-05-30T09:13:21.000Z</time>
      </trkpt>
      <trkpt lat="43.61526" lon="6.64224">
        <ele>405.60000610352</ele>
        <time>2019-05-30T09:13:22.000Z</time>
      </trkpt>
      <trkpt lat="43.61522" lon="6.64216">
        <ele>405</ele>
        <time>2019-05-30T09:13:23.000Z</time>
      </trkpt>
      <trkpt lat="43.61518" lon="6.64208">
        <ele>404.39999389648</ele>
        <time>2019-05-30T09:13:24.000Z</time>
      </trkpt>
      <trkpt lat="43.61515" lon="6.64199">
        <ele>404</ele>
        <time>2019-05-30T09:13:25.000Z</time>
      </trkpt>
      <trkpt lat="43.61513" lon="6.64189">
        <ele>403.20001220703</ele>
        <time>2019-05-30T09:13:26.000Z</time>
      </trkpt>
      <trkpt lat="43.61509" lon="6.64169">
        <ele>402.39999389648</ele>
        <time>2019-05-30T09:13:28.000Z</time>
      </trkpt>
      <trkpt lat="43.61507" lon="6.64159">
        <ele>402.20001220703</ele>
        <time>2019-05-30T09:13:29.000Z</time>
      </trkpt>
      <trkpt lat="43.61507" lon="6.64147">
        <ele>401.79998779297</ele>
        <time>2019-05-30T09:13:30.000Z</time>
      </trkpt>
      <trkpt lat="43.61505" lon="6.64128">
        <ele>401.39999389648</ele>
        <time>2019-05-30T09:13:32.000Z</time>
      </trkpt>
      <trkpt lat="43.61503" lon="6.6412">
        <ele>400.79998779297</ele>
        <time>2019-05-30T09:13:33.000Z</time>
      </trkpt>
      <trkpt lat="43.61495" lon="6.64115">
        <ele>399.20001220703</ele>
        <time>2019-05-30T09:13:35.000Z</time>
      </trkpt>
      <trkpt lat="43.61485" lon="6.64119">
        <ele>397</ele>
        <time>2019-05-30T09:13:37.000Z</time>
      </trkpt>
      <trkpt lat="43.61478" lon="6.64121">
        <ele>396.39999389648</ele>
        <time>2019-05-30T09:13:38.000Z</time>
      </trkpt>
      <trkpt lat="43.6147" lon="6.64123">
        <ele>395.39999389648</ele>
        <time>2019-05-30T09:13:39.000Z</time>
      </trkpt>
      <trkpt lat="43.61463" lon="6.64123">
        <ele>394.20001220703</ele>
        <time>2019-05-30T09:13:40.000Z</time>
      </trkpt>
      <trkpt lat="43.61455" lon="6.64123">
        <ele>392.79998779297</ele>
        <time>2019-05-30T09:13:41.000Z</time>
      </trkpt>
      <trkpt lat="43.61446" lon="6.64124">
        <ele>393.20001220703</ele>
        <time>2019-05-30T09:13:42.000Z</time>
      </trkpt>
      <trkpt lat="43.61421" lon="6.64127">
        <ele>391.79998779297</ele>
        <time>2019-05-30T09:13:45.000Z</time>
      </trkpt>
      <trkpt lat="43.61411" lon="6.64129">
        <ele>391.60000610352</ele>
        <time>2019-05-30T09:13:46.000Z</time>
      </trkpt>
      <trkpt lat="43.61402" lon="6.64133">
        <ele>391.39999389648</ele>
        <time>2019-05-30T09:13:47.000Z</time>
      </trkpt>
      <trkpt lat="43.61393" lon="6.64137">
        <ele>390.79998779297</ele>
        <time>2019-05-30T09:13:48.000Z</time>
      </trkpt>
      <trkpt lat="43.61376" lon="6.6415">
        <ele>390.20001220703</ele>
        <time>2019-05-30T09:13:50.000Z</time>
      </trkpt>
      <trkpt lat="43.61371" lon="6.64155">
        <ele>389.60000610352</ele>
        <time>2019-05-30T09:13:51.000Z</time>
      </trkpt>
      <trkpt lat="43.61363" lon="6.64173">
        <ele>388.20001220703</ele>
        <time>2019-05-30T09:13:53.000Z</time>
      </trkpt>
      <trkpt lat="43.61355" lon="6.64185">
        <ele>387</ele>
        <time>2019-05-30T09:13:55.000Z</time>
      </trkpt>
      <trkpt lat="43.61351" lon="6.64186">
        <ele>386.20001220703</ele>
        <time>2019-05-30T09:13:56.000Z</time>
      </trkpt>
      <trkpt lat="43.61347" lon="6.64185">
        <ele>385.60000610352</ele>
        <time>2019-05-30T09:13:57.000Z</time>
      </trkpt>
      <trkpt lat="43.61342" lon="6.64182">
        <ele>385.39999389648</ele>
        <time>2019-05-30T09:13:58.000Z</time>
      </trkpt>
      <trkpt lat="43.61331" lon="6.64177">
        <ele>384.60000610352</ele>
        <time>2019-05-30T09:14:00.000Z</time>
      </trkpt>
      <trkpt lat="43.61314" lon="6.64167">
        <ele>383.20001220703</ele>
        <time>2019-05-30T09:14:03.000Z</time>
      </trkpt>
      <trkpt lat="43.61301" lon="6.64154">
        <ele>382.20001220703</ele>
        <time>2019-05-30T09:14:05.000Z</time>
      </trkpt>
      <trkpt lat="43.61282" lon="6.64131">
        <ele>380.39999389648</ele>
        <time>2019-05-30T09:14:08.000Z</time>
      </trkpt>
      <trkpt lat="43.61267" lon="6.64114">
        <ele>378.39999389648</ele>
        <time>2019-05-30T09:14:10.000Z</time>
      </trkpt>
      <trkpt lat="43.6126" lon="6.64107">
        <ele>376.39999389648</ele>
        <time>2019-05-30T09:14:11.000Z</time>
      </trkpt>
      <trkpt lat="43.6125" lon="6.641">
        <ele>374.60000610352</ele>
        <time>2019-05-30T09:14:12.000Z</time>
      </trkpt>
      <trkpt lat="43.61241" lon="6.64095">
        <ele>372.39999389648</ele>
        <time>2019-05-30T09:14:13.000Z</time>
      </trkpt>
      <trkpt lat="43.61232" lon="6.64089">
        <ele>371.20001220703</ele>
        <time>2019-05-30T09:14:14.000Z</time>
      </trkpt>
      <trkpt lat="43.61223" lon="6.64084">
        <ele>369.79998779297</ele>
        <time>2019-05-30T09:14:15.000Z</time>
      </trkpt>
      <trkpt lat="43.61214" lon="6.64078">
        <ele>368.39999389648</ele>
        <time>2019-05-30T09:14:16.000Z</time>
      </trkpt>
      <trkpt lat="43.61195" lon="6.64066">
        <ele>366.39999389648</ele>
        <time>2019-05-30T09:14:18.000Z</time>
      </trkpt>
      <trkpt lat="43.61187" lon="6.64061">
        <ele>365</ele>
        <time>2019-05-30T09:14:19.000Z</time>
      </trkpt>
      <trkpt lat="43.6118" lon="6.64059">
        <ele>363.39999389648</ele>
        <time>2019-05-30T09:14:20.000Z</time>
      </trkpt>
      <trkpt lat="43.61169" lon="6.64062">
        <ele>361.79998779297</ele>
        <time>2019-05-30T09:14:22.000Z</time>
      </trkpt>
      <trkpt lat="43.61164" lon="6.64065">
        <ele>362</ele>
        <time>2019-05-30T09:14:23.000Z</time>
      </trkpt>
      <trkpt lat="43.61159" lon="6.64068">
        <ele>362.79998779297</ele>
        <time>2019-05-30T09:14:24.000Z</time>
      </trkpt>
      <trkpt lat="43.61147" lon="6.64078">
        <ele>364</ele>
        <time>2019-05-30T09:14:27.000Z</time>
      </trkpt>
      <trkpt lat="43.61143" lon="6.64081">
        <ele>364.20001220703</ele>
        <time>2019-05-30T09:14:28.000Z</time>
      </trkpt>
      <trkpt lat="43.61139" lon="6.64083">
        <ele>364.39999389648</ele>
        <time>2019-05-30T09:14:29.000Z</time>
      </trkpt>
      <trkpt lat="43.61132" lon="6.64085">
        <ele>365</ele>
        <time>2019-05-30T09:14:31.000Z</time>
      </trkpt>
      <trkpt lat="43.61127" lon="6.64086">
        <ele>365.39999389648</ele>
        <time>2019-05-30T09:14:32.000Z</time>
      </trkpt>
      <trkpt lat="43.61116" lon="6.64086">
        <ele>366</ele>
        <time>2019-05-30T09:14:35.000Z</time>
      </trkpt>
      <trkpt lat="43.61101" lon="6.64092">
        <ele>366.79998779297</ele>
        <time>2019-05-30T09:14:39.000Z</time>
      </trkpt>
      <trkpt lat="43.61098" lon="6.64096">
        <ele>366.79998779297</ele>
        <time>2019-05-30T09:14:40.000Z</time>
      </trkpt>
      <trkpt lat="43.6107" lon="6.64133">
        <ele>365.60000610352</ele>
        <time>2019-05-30T09:14:48.000Z</time>
      </trkpt>
      <trkpt lat="43.61043" lon="6.64163">
        <ele>367</ele>
        <time>2019-05-30T09:14:56.000Z</time>
      </trkpt>
      <trkpt lat="43.6104" lon="6.64168">
        <ele>367.20001220703</ele>
        <time>2019-05-30T09:14:57.000Z</time>
      </trkpt>
      <trkpt lat="43.61019" lon="6.64201">
        <ele>367.39999389648</ele>
        <time>2019-05-30T09:15:04.000Z</time>
      </trkpt>
      <trkpt lat="43.60996" lon="6.64218">
        <ele>368</ele>
        <time>2019-05-30T09:15:10.000Z</time>
      </trkpt>
      <trkpt lat="43.60993" lon="6.64219">
        <ele>368.20001220703</ele>
        <time>2019-05-30T09:15:11.000Z</time>
      </trkpt>
      <trkpt lat="43.60974" lon="6.64226">
        <ele>369.20001220703</ele>
        <time>2019-05-30T09:15:16.000Z</time>
      </trkpt>
      <trkpt lat="43.60971" lon="6.64227">
        <ele>369.39999389648</ele>
        <time>2019-05-30T09:15:17.000Z</time>
      </trkpt>
      <trkpt lat="43.60943" lon="6.64233">
        <ele>370.20001220703</ele>
        <time>2019-05-30T09:15:24.000Z</time>
      </trkpt>
      <trkpt lat="43.60938" lon="6.64234">
        <ele>370.20001220703</ele>
        <time>2019-05-30T09:15:25.000Z</time>
      </trkpt>
      <trkpt lat="43.60924" lon="6.64238">
        <ele>370</ele>
        <time>2019-05-30T09:15:28.000Z</time>
      </trkpt>
      <trkpt lat="43.6091" lon="6.64246">
        <ele>369.60000610352</ele>
        <time>2019-05-30T09:15:31.000Z</time>
      </trkpt>
      <trkpt lat="43.60905" lon="6.6425">
        <ele>369.39999389648</ele>
        <time>2019-05-30T09:15:32.000Z</time>
      </trkpt>
      <trkpt lat="43.609" lon="6.64256">
        <ele>369</ele>
        <time>2019-05-30T09:15:33.000Z</time>
      </trkpt>
      <trkpt lat="43.60895" lon="6.64262">
        <ele>368.79998779297</ele>
        <time>2019-05-30T09:15:34.000Z</time>
      </trkpt>
      <trkpt lat="43.60878" lon="6.6428">
        <ele>367.79998779297</ele>
        <time>2019-05-30T09:15:37.000Z</time>
      </trkpt>
      <trkpt lat="43.60858" lon="6.64297">
        <ele>366.20001220703</ele>
        <time>2019-05-30T09:15:40.000Z</time>
      </trkpt>
      <trkpt lat="43.60843" lon="6.64305">
        <ele>365.20001220703</ele>
        <time>2019-05-30T09:15:42.000Z</time>
      </trkpt>
      <trkpt lat="43.60828" lon="6.64313">
        <ele>364.39999389648</ele>
        <time>2019-05-30T09:15:44.000Z</time>
      </trkpt>
      <trkpt lat="43.60821" lon="6.64319">
        <ele>363.79998779297</ele>
        <time>2019-05-30T09:15:45.000Z</time>
      </trkpt>
      <trkpt lat="43.60815" lon="6.64326">
        <ele>363.39999389648</ele>
        <time>2019-05-30T09:15:46.000Z</time>
      </trkpt>
      <trkpt lat="43.60809" lon="6.64334">
        <ele>362.60000610352</ele>
        <time>2019-05-30T09:15:47.000Z</time>
      </trkpt>
      <trkpt lat="43.60803" lon="6.64343">
        <ele>361.79998779297</ele>
        <time>2019-05-30T09:15:48.000Z</time>
      </trkpt>
      <trkpt lat="43.60797" lon="6.64353">
        <ele>361</ele>
        <time>2019-05-30T09:15:49.000Z</time>
      </trkpt>
      <trkpt lat="43.60785" lon="6.64371">
        <ele>359.39999389648</ele>
        <time>2019-05-30T09:15:51.000Z</time>
      </trkpt>
      <trkpt lat="43.60775" lon="6.64387">
        <ele>357</ele>
        <time>2019-05-30T09:15:53.000Z</time>
      </trkpt>
      <trkpt lat="43.60772" lon="6.64393">
        <ele>356</ele>
        <time>2019-05-30T09:15:54.000Z</time>
      </trkpt>
      <trkpt lat="43.6077" lon="6.64398">
        <ele>355</ele>
        <time>2019-05-30T09:15:55.000Z</time>
      </trkpt>
      <trkpt lat="43.60769" lon="6.64403">
        <ele>354.20001220703</ele>
        <time>2019-05-30T09:15:56.000Z</time>
      </trkpt>
      <trkpt lat="43.60769" lon="6.64408">
        <ele>353.60000610352</ele>
        <time>2019-05-30T09:15:57.000Z</time>
      </trkpt>
      <trkpt lat="43.60775" lon="6.64415">
        <ele>353.39999389648</ele>
        <time>2019-05-30T09:15:59.000Z</time>
      </trkpt>
      <trkpt lat="43.60782" lon="6.64424">
        <ele>352.60000610352</ele>
        <time>2019-05-30T09:16:01.000Z</time>
      </trkpt>
      <trkpt lat="43.60786" lon="6.6443">
        <ele>352.39999389648</ele>
        <time>2019-05-30T09:16:02.000Z</time>
      </trkpt>
      <trkpt lat="43.60789" lon="6.64436">
        <ele>351.79998779297</ele>
        <time>2019-05-30T09:16:03.000Z</time>
      </trkpt>
      <trkpt lat="43.60796" lon="6.64449">
        <ele>351.20001220703</ele>
        <time>2019-05-30T09:16:05.000Z</time>
      </trkpt>
      <trkpt lat="43.60798" lon="6.64455">
        <ele>351.20001220703</ele>
        <time>2019-05-30T09:16:06.000Z</time>
      </trkpt>
      <trkpt lat="43.60801" lon="6.64461">
        <ele>350.79998779297</ele>
        <time>2019-05-30T09:16:07.000Z</time>
      </trkpt>
      <trkpt lat="43.60804" lon="6.6448">
        <ele>350.79998779297</ele>
        <time>2019-05-30T09:16:10.000Z</time>
      </trkpt>
      <trkpt lat="43.60804" lon="6.64486">
        <ele>350.79998779297</ele>
        <time>2019-05-30T09:16:11.000Z</time>
      </trkpt>
      <trkpt lat="43.60806" lon="6.64494">
        <ele>351.20001220703</ele>
        <time>2019-05-30T09:16:12.000Z</time>
      </trkpt>
      <trkpt lat="43.60809" lon="6.64507">
        <ele>351.79998779297</ele>
        <time>2019-05-30T09:16:14.000Z</time>
      </trkpt>
      <trkpt lat="43.60814" lon="6.64518">
        <ele>352.39999389648</ele>
        <time>2019-05-30T09:16:16.000Z</time>
      </trkpt>
      <trkpt lat="43.60825" lon="6.64542">
        <ele>352.79998779297</ele>
        <time>2019-05-30T09:16:20.000Z</time>
      </trkpt>
      <trkpt lat="43.60829" lon="6.64554">
        <ele>353.20001220703</ele>
        <time>2019-05-30T09:16:22.000Z</time>
      </trkpt>
      <trkpt lat="43.60833" lon="6.64563">
        <ele>353.20001220703</ele>
        <time>2019-05-30T09:16:24.000Z</time>
      </trkpt>
      <trkpt lat="43.60832" lon="6.64568">
        <ele>353.39999389648</ele>
        <time>2019-05-30T09:16:25.000Z</time>
      </trkpt>
      <trkpt lat="43.60824" lon="6.64588">
        <ele>353</ele>
        <time>2019-05-30T09:16:29.000Z</time>
      </trkpt>
      <trkpt lat="43.6082" lon="6.64593">
        <ele>352.20001220703</ele>
        <time>2019-05-30T09:16:30.000Z</time>
      </trkpt>
      <trkpt lat="43.60807" lon="6.64604">
        <ele>351.60000610352</ele>
        <time>2019-05-30T09:16:33.000Z</time>
      </trkpt>
      <trkpt lat="43.60786" lon="6.64619">
        <ele>351.60000610352</ele>
        <time>2019-05-30T09:16:37.000Z</time>
      </trkpt>
      <trkpt lat="43.6078" lon="6.64621">
        <ele>351.39999389648</ele>
        <time>2019-05-30T09:16:38.000Z</time>
      </trkpt>
      <trkpt lat="43.60767" lon="6.64623">
        <ele>350</ele>
        <time>2019-05-30T09:16:40.000Z</time>
      </trkpt>
      <trkpt lat="43.60754" lon="6.64622">
        <ele>348.60000610352</ele>
        <time>2019-05-30T09:16:42.000Z</time>
      </trkpt>
      <trkpt lat="43.60748" lon="6.64622">
        <ele>347.79998779297</ele>
        <time>2019-05-30T09:16:43.000Z</time>
      </trkpt>
      <trkpt lat="43.60741" lon="6.64624">
        <ele>347.39999389648</ele>
        <time>2019-05-30T09:16:44.000Z</time>
      </trkpt>
      <trkpt lat="43.60735" lon="6.64627">
        <ele>347</ele>
        <time>2019-05-30T09:16:45.000Z</time>
      </trkpt>
      <trkpt lat="43.60729" lon="6.64629">
        <ele>347.20001220703</ele>
        <time>2019-05-30T09:16:46.000Z</time>
      </trkpt>
      <trkpt lat="43.60716" lon="6.64628">
        <ele>346.39999389648</ele>
        <time>2019-05-30T09:16:48.000Z</time>
      </trkpt>
      <trkpt lat="43.60703" lon="6.64623">
        <ele>345.60000610352</ele>
        <time>2019-05-30T09:16:50.000Z</time>
      </trkpt>
      <trkpt lat="43.60691" lon="6.64619">
        <ele>344.20001220703</ele>
        <time>2019-05-30T09:16:52.000Z</time>
      </trkpt>
      <trkpt lat="43.60678" lon="6.64615">
        <ele>343</ele>
        <time>2019-05-30T09:16:54.000Z</time>
      </trkpt>
      <trkpt lat="43.60658" lon="6.64611">
        <ele>342.60000610352</ele>
        <time>2019-05-30T09:16:57.000Z</time>
      </trkpt>
      <trkpt lat="43.60652" lon="6.64612">
        <ele>342.39999389648</ele>
        <time>2019-05-30T09:16:58.000Z</time>
      </trkpt>
      <trkpt lat="43.6064" lon="6.64614">
        <ele>341.79998779297</ele>
        <time>2019-05-30T09:17:00.000Z</time>
      </trkpt>
      <trkpt lat="43.60624" lon="6.64617">
        <ele>342.20001220703</ele>
        <time>2019-05-30T09:17:03.000Z</time>
      </trkpt>
      <trkpt lat="43.60619" lon="6.6462">
        <ele>342.60000610352</ele>
        <time>2019-05-30T09:17:04.000Z</time>
      </trkpt>
      <trkpt lat="43.60614" lon="6.6464">
        <ele>342.79998779297</ele>
        <time>2019-05-30T09:17:07.000Z</time>
      </trkpt>
      <trkpt lat="43.60609" lon="6.64665">
        <ele>342.39999389648</ele>
        <time>2019-05-30T09:17:10.000Z</time>
      </trkpt>
      <trkpt lat="43.60606" lon="6.64672">
        <ele>342</ele>
        <time>2019-05-30T09:17:11.000Z</time>
      </trkpt>
      <trkpt lat="43.60595" lon="6.64681">
        <ele>341</ele>
        <time>2019-05-30T09:17:13.000Z</time>
      </trkpt>
      <trkpt lat="43.60589" lon="6.64683">
        <ele>340.60000610352</ele>
        <time>2019-05-30T09:17:14.000Z</time>
      </trkpt>
      <trkpt lat="43.60583" lon="6.64684">
        <ele>340.20001220703</ele>
        <time>2019-05-30T09:17:15.000Z</time>
      </trkpt>
      <trkpt lat="43.60572" lon="6.64689">
        <ele>339.79998779297</ele>
        <time>2019-05-30T09:17:17.000Z</time>
      </trkpt>
      <trkpt lat="43.60567" lon="6.64692">
        <ele>339.20001220703</ele>
        <time>2019-05-30T09:17:18.000Z</time>
      </trkpt>
      <trkpt lat="43.60557" lon="6.64697">
        <ele>338.39999389648</ele>
        <time>2019-05-30T09:17:20.000Z</time>
      </trkpt>
      <trkpt lat="43.60553" lon="6.64699">
        <ele>338</ele>
        <time>2019-05-30T09:17:21.000Z</time>
      </trkpt>
      <trkpt lat="43.60526" lon="6.64705">
        <ele>337.60000610352</ele>
        <time>2019-05-30T09:17:26.000Z</time>
      </trkpt>
      <trkpt lat="43.6051" lon="6.64708">
        <ele>336.39999389648</ele>
        <time>2019-05-30T09:17:29.000Z</time>
      </trkpt>
      <trkpt lat="43.60506" lon="6.64707">
        <ele>336.20001220703</ele>
        <time>2019-05-30T09:17:30.000Z</time>
      </trkpt>
      <trkpt lat="43.60496" lon="6.64709">
        <ele>335.60000610352</ele>
        <time>2019-05-30T09:17:32.000Z</time>
      </trkpt>
      <trkpt lat="43.60491" lon="6.64709">
        <ele>335.79998779297</ele>
        <time>2019-05-30T09:17:33.000Z</time>
      </trkpt>
      <trkpt lat="43.60486" lon="6.64708">
        <ele>335.79998779297</ele>
        <time>2019-05-30T09:17:34.000Z</time>
      </trkpt>
      <trkpt lat="43.60475" lon="6.64707">
        <ele>335.39999389648</ele>
        <time>2019-05-30T09:17:36.000Z</time>
      </trkpt>
      <trkpt lat="43.60466" lon="6.64706">
        <ele>334.20001220703</ele>
        <time>2019-05-30T09:17:38.000Z</time>
      </trkpt>
      <trkpt lat="43.60453" lon="6.64702">
        <ele>333.60000610352</ele>
        <time>2019-05-30T09:17:41.000Z</time>
      </trkpt>
      <trkpt lat="43.60448" lon="6.64701">
        <ele>333.79998779297</ele>
        <time>2019-05-30T09:17:42.000Z</time>
      </trkpt>
      <trkpt lat="43.60444" lon="6.64703">
        <ele>333.60000610352</ele>
        <time>2019-05-30T09:17:43.000Z</time>
      </trkpt>
      <trkpt lat="43.60441" lon="6.64707">
        <ele>333.20001220703</ele>
        <time>2019-05-30T09:17:44.000Z</time>
      </trkpt>
      <trkpt lat="43.6044" lon="6.64712">
        <ele>333</ele>
        <time>2019-05-30T09:17:45.000Z</time>
      </trkpt>
      <trkpt lat="43.60437" lon="6.64722">
        <ele>332.39999389648</ele>
        <time>2019-05-30T09:17:47.000Z</time>
      </trkpt>
      <trkpt lat="43.60436" lon="6.64728">
        <ele>332</ele>
        <time>2019-05-30T09:17:48.000Z</time>
      </trkpt>
      <trkpt lat="43.60434" lon="6.64733">
        <ele>331.79998779297</ele>
        <time>2019-05-30T09:17:49.000Z</time>
      </trkpt>
      <trkpt lat="43.60431" lon="6.64745">
        <ele>331.60000610352</ele>
        <time>2019-05-30T09:17:51.000Z</time>
      </trkpt>
      <trkpt lat="43.60425" lon="6.64764">
        <ele>331.39999389648</ele>
        <time>2019-05-30T09:17:54.000Z</time>
      </trkpt>
      <trkpt lat="43.60422" lon="6.64777">
        <ele>331.60000610352</ele>
        <time>2019-05-30T09:17:56.000Z</time>
      </trkpt>
      <trkpt lat="43.6042" lon="6.64789">
        <ele>332</ele>
        <time>2019-05-30T09:17:58.000Z</time>
      </trkpt>
      <trkpt lat="43.60417" lon="6.64803">
        <ele>332.39999389648</ele>
        <time>2019-05-30T09:18:00.000Z</time>
      </trkpt>
      <trkpt lat="43.60415" lon="6.6481">
        <ele>332.20001220703</ele>
        <time>2019-05-30T09:18:01.000Z</time>
      </trkpt>
      <trkpt lat="43.60406" lon="6.64828">
        <ele>332</ele>
        <time>2019-05-30T09:18:04.000Z</time>
      </trkpt>
      <trkpt lat="43.604" lon="6.64848">
        <ele>332</ele>
        <time>2019-05-30T09:18:08.000Z</time>
      </trkpt>
      <trkpt lat="43.60394" lon="6.64857">
        <ele>333.20001220703</ele>
        <time>2019-05-30T09:18:11.000Z</time>
      </trkpt>
      <trkpt lat="43.60383" lon="6.6487">
        <ele>333.60000610352</ele>
        <time>2019-05-30T09:18:15.000Z</time>
      </trkpt>
      <trkpt lat="43.60374" lon="6.64884">
        <ele>334.20001220703</ele>
        <time>2019-05-30T09:18:19.000Z</time>
      </trkpt>
      <trkpt lat="43.6037" lon="6.6489">
        <ele>335</ele>
        <time>2019-05-30T09:18:21.000Z</time>
      </trkpt>
      <trkpt lat="43.60368" lon="6.64893">
        <ele>335.20001220703</ele>
        <time>2019-05-30T09:18:22.000Z</time>
      </trkpt>
      <trkpt lat="43.60363" lon="6.64904">
        <ele>336</ele>
        <time>2019-05-30T09:18:26.000Z</time>
      </trkpt>
      <trkpt lat="43.60363" lon="6.64906">
        <ele>336.20001220703</ele>
        <time>2019-05-30T09:18:27.000Z</time>
      </trkpt>
      <trkpt lat="43.60361" lon="6.64916">
        <ele>337.20001220703</ele>
        <time>2019-05-30T09:18:31.000Z</time>
      </trkpt>
      <trkpt lat="43.60361" lon="6.64919">
        <ele>337.60000610352</ele>
        <time>2019-05-30T09:18:32.000Z</time>
      </trkpt>
      <trkpt lat="43.6036" lon="6.64928">
        <ele>338.60000610352</ele>
        <time>2019-05-30T09:18:36.000Z</time>
      </trkpt>
      <trkpt lat="43.6036" lon="6.64932">
        <ele>339.39999389648</ele>
        <time>2019-05-30T09:18:38.000Z</time>
      </trkpt>
      <trkpt lat="43.60359" lon="6.64937">
        <ele>340</ele>
        <time>2019-05-30T09:18:40.000Z</time>
      </trkpt>
      <trkpt lat="43.60356" lon="6.6495">
        <ele>340.79998779297</ele>
        <time>2019-05-30T09:18:45.000Z</time>
      </trkpt>
      <trkpt lat="43.60354" lon="6.64956">
        <ele>341.20001220703</ele>
        <time>2019-05-30T09:18:47.000Z</time>
      </trkpt>
      <trkpt lat="43.60345" lon="6.64975">
        <ele>341.79998779297</ele>
        <time>2019-05-30T09:18:53.000Z</time>
      </trkpt>
      <trkpt lat="43.60335" lon="6.65008">
        <ele>342</ele>
        <time>2019-05-30T09:19:01.000Z</time>
      </trkpt>
      <trkpt lat="43.60333" lon="6.65011">
        <ele>342.39999389648</ele>
        <time>2019-05-30T09:19:02.000Z</time>
      </trkpt>
      <trkpt lat="43.60323" lon="6.65026">
        <ele>343.20001220703</ele>
        <time>2019-05-30T09:19:06.000Z</time>
      </trkpt>
      <trkpt lat="43.60317" lon="6.65036">
        <ele>343.20001220703</ele>
        <time>2019-05-30T09:19:08.000Z</time>
      </trkpt>
      <trkpt lat="43.60309" lon="6.65046">
        <ele>342.39999389648</ele>
        <time>2019-05-30T09:19:10.000Z</time>
      </trkpt>
      <trkpt lat="43.60301" lon="6.6506">
        <ele>341.60000610352</ele>
        <time>2019-05-30T09:19:12.000Z</time>
      </trkpt>
      <trkpt lat="43.60297" lon="6.65067">
        <ele>340.79998779297</ele>
        <time>2019-05-30T09:19:13.000Z</time>
      </trkpt>
      <trkpt lat="43.60288" lon="6.65077">
        <ele>339.60000610352</ele>
        <time>2019-05-30T09:19:15.000Z</time>
      </trkpt>
      <trkpt lat="43.60278" lon="6.65087">
        <ele>337.20001220703</ele>
        <time>2019-05-30T09:19:17.000Z</time>
      </trkpt>
      <trkpt lat="43.60272" lon="6.65092">
        <ele>336.39999389648</ele>
        <time>2019-05-30T09:19:18.000Z</time>
      </trkpt>
      <trkpt lat="43.60267" lon="6.65097">
        <ele>335.60000610352</ele>
        <time>2019-05-30T09:19:19.000Z</time>
      </trkpt>
      <trkpt lat="43.60255" lon="6.65119">
        <ele>334.39999389648</ele>
        <time>2019-05-30T09:19:22.000Z</time>
      </trkpt>
      <trkpt lat="43.6025" lon="6.65139">
        <ele>332.79998779297</ele>
        <time>2019-05-30T09:19:25.000Z</time>
      </trkpt>
      <trkpt lat="43.60256" lon="6.65156">
        <ele>331.79998779297</ele>
        <time>2019-05-30T09:19:28.000Z</time>
      </trkpt>
      <trkpt lat="43.60258" lon="6.6516">
        <ele>331.39999389648</ele>
        <time>2019-05-30T09:19:29.000Z</time>
      </trkpt>
      <trkpt lat="43.60259" lon="6.65163">
        <ele>331.39999389648</ele>
        <time>2019-05-30T09:19:31.000Z</time>
      </trkpt>
      <trkpt lat="43.60262" lon="6.65171">
        <ele>331.39999389648</ele>
        <time>2019-05-30T09:19:38.000Z</time>
      </trkpt>
      <trkpt lat="43.60263" lon="6.65172">
        <ele>331.39999389648</ele>
        <time>2019-05-30T09:19:39.000Z</time>
      </trkpt>
      <trkpt lat="43.60267" lon="6.65173">
        <ele>331.39999389648</ele>
        <time>2019-05-30T09:19:43.000Z</time>
      </trkpt>
      <trkpt lat="43.60268" lon="6.65174">
        <ele>331.20001220703</ele>
        <time>2019-05-30T09:19:46.000Z</time>
      </trkpt>
      <trkpt lat="43.60269" lon="6.65175">
        <ele>331</ele>
        <time>2019-05-30T09:19:47.000Z</time>
      </trkpt>
      <trkpt lat="43.60267" lon="6.65177">
        <ele>330.79998779297</ele>
        <time>2019-05-30T09:19:49.000Z</time>
      </trkpt>
      <trkpt lat="43.60266" lon="6.65176">
        <ele>330.79998779297</ele>
        <time>2019-05-30T09:19:50.000Z</time>
      </trkpt>
      <trkpt lat="43.60261" lon="6.65173">
        <ele>330.79998779297</ele>
        <time>2019-05-30T09:19:57.000Z</time>
      </trkpt>
      <trkpt lat="43.60259" lon="6.65178">
        <ele>330.79998779297</ele>
        <time>2019-05-30T09:20:01.000Z</time>
      </trkpt>
      <trkpt lat="43.60259" lon="6.65179">
        <ele>330.79998779297</ele>
        <time>2019-05-30T09:20:02.000Z</time>
      </trkpt>
      <trkpt lat="43.60259" lon="6.65183">
        <ele>330.39999389648</ele>
        <time>2019-05-30T09:20:04.000Z</time>
      </trkpt>
      <trkpt lat="43.60258" lon="6.65186">
        <ele>330</ele>
        <time>2019-05-30T09:20:06.000Z</time>
      </trkpt>
      <trkpt lat="43.60258" lon="6.65187">
        <ele>330</ele>
        <time>2019-05-30T09:20:07.000Z</time>
      </trkpt>
      <trkpt lat="43.60258" lon="6.65189">
        <ele>329.79998779297</ele>
        <time>2019-05-30T09:20:08.000Z</time>
      </trkpt>
      <trkpt lat="43.60258" lon="6.65193">
        <ele>329.79998779297</ele>
        <time>2019-05-30T09:20:13.000Z</time>
      </trkpt>
      <trkpt lat="43.60257" lon="6.65193">
        <ele>330</ele>
        <time>2019-05-30T09:20:21.000Z</time>
      </trkpt>
      <trkpt lat="43.60258" lon="6.65193">
        <ele>330</ele>
        <time>2019-05-30T09:20:28.000Z</time>
      </trkpt>
      <trkpt lat="43.60257" lon="6.65191">
        <ele>330</ele>
        <time>2019-05-30T09:20:37.000Z</time>
      </trkpt>
      <trkpt lat="43.60257" lon="6.6519">
        <ele>330.20001220703</ele>
        <time>2019-05-30T09:20:47.000Z</time>
      </trkpt>
      <trkpt lat="43.60257" lon="6.65189">
        <ele>330</ele>
        <time>2019-05-30T09:20:56.000Z</time>
      </trkpt>
      <trkpt lat="43.60258" lon="6.65189">
        <ele>330.20001220703</ele>
        <time>2019-05-30T09:21:02.000Z</time>
      </trkpt>
      <trkpt lat="43.60258" lon="6.6519">
        <ele>330</ele>
        <time>2019-05-30T09:21:09.000Z</time>
      </trkpt>
      <trkpt lat="43.60258" lon="6.65191">
        <ele>329.79998779297</ele>
        <time>2019-05-30T09:21:16.000Z</time>
      </trkpt>
      <trkpt lat="43.60258" lon="6.65189">
        <ele>330</ele>
        <time>2019-05-30T09:21:23.000Z</time>
      </trkpt>
      <trkpt lat="43.60258" lon="6.65189">
        <ele>330.20001220703</ele>
        <time>2019-05-30T09:21:33.000Z</time>
      </trkpt>
      <trkpt lat="43.60259" lon="6.6519">
        <ele>330</ele>
        <time>2019-05-30T09:21:43.000Z</time>
      </trkpt>
      <trkpt lat="43.6026" lon="6.6519">
        <ele>330</ele>
        <time>2019-05-30T09:21:58.000Z</time>
      </trkpt>
      <trkpt lat="43.6026" lon="6.65189">
        <ele>330</ele>
        <time>2019-05-30T09:22:10.000Z</time>
      </trkpt>
      <trkpt lat="43.6026" lon="6.65188">
        <ele>329.79998779297</ele>
        <time>2019-05-30T09:22:25.000Z</time>
      </trkpt>
      <trkpt lat="43.60259" lon="6.65187">
        <ele>330</ele>
        <time>2019-05-30T09:22:38.000Z</time>
      </trkpt>
      <trkpt lat="43.60259" lon="6.65188">
        <ele>329.60000610352</ele>
        <time>2019-05-30T09:22:47.000Z</time>
      </trkpt>
      <trkpt lat="43.6026" lon="6.65189">
        <ele>329.60000610352</ele>
        <time>2019-05-30T09:22:56.000Z</time>
      </trkpt>
      <trkpt lat="43.60259" lon="6.6519">
        <ele>329.39999389648</ele>
        <time>2019-05-30T09:23:02.000Z</time>
      </trkpt>
      <trkpt lat="43.60259" lon="6.6519">
        <ele>329.20001220703</ele>
        <time>2019-05-30T09:23:04.000Z</time>
      </trkpt>
      <trkpt lat="43.60258" lon="6.65189">
        <ele>329.39999389648</ele>
        <time>2019-05-30T09:23:13.000Z</time>
      </trkpt>
      <trkpt lat="43.60258" lon="6.6519">
        <ele>329.39999389648</ele>
        <time>2019-05-30T09:23:20.000Z</time>
      </trkpt>
      <trkpt lat="43.60257" lon="6.65189">
        <ele>329.20001220703</ele>
        <time>2019-05-30T09:23:33.000Z</time>
      </trkpt>
      <trkpt lat="43.60256" lon="6.65188">
        <ele>329.20001220703</ele>
        <time>2019-05-30T09:23:47.000Z</time>
      </trkpt>
      <trkpt lat="43.60255" lon="6.65188">
        <ele>329.39999389648</ele>
        <time>2019-05-30T09:24:03.000Z</time>
      </trkpt>
      <trkpt lat="43.60255" lon="6.65189">
        <ele>329</ele>
        <time>2019-05-30T09:24:21.000Z</time>
      </trkpt>
      <trkpt lat="43.60255" lon="6.65189">
        <ele>329</ele>
        <time>2019-05-30T09:24:33.000Z</time>
      </trkpt>
      <trkpt lat="43.60254" lon="6.65189">
        <ele>329</ele>
        <time>2019-05-30T09:24:44.000Z</time>
      </trkpt>
      <trkpt lat="43.60254" lon="6.65189">
        <ele>329</ele>
        <time>2019-05-30T09:24:52.000Z</time>
      </trkpt>
      <trkpt lat="43.60253" lon="6.65189">
        <ele>329</ele>
        <time>2019-05-30T09:25:06.000Z</time>
      </trkpt>
      <trkpt lat="43.60253" lon="6.65189">
        <ele>328.79998779297</ele>
        <time>2019-05-30T09:25:18.000Z</time>
      </trkpt>
      <trkpt lat="43.60253" lon="6.65189">
        <ele>328.79998779297</ele>
        <time>2019-05-30T09:25:31.000Z</time>
      </trkpt>
      <trkpt lat="43.60253" lon="6.65188">
        <ele>328.39999389648</ele>
        <time>2019-05-30T09:25:45.000Z</time>
      </trkpt>
      <trkpt lat="43.60253" lon="6.65188">
        <ele>328.20001220703</ele>
        <time>2019-05-30T09:25:46.000Z</time>
      </trkpt>
      <trkpt lat="43.60251" lon="6.65186">
        <ele>328.20001220703</ele>
        <time>2019-05-30T09:25:51.000Z</time>
      </trkpt>
      <trkpt lat="43.60249" lon="6.65186">
        <ele>328.39999389648</ele>
        <time>2019-05-30T09:25:56.000Z</time>
      </trkpt>
      <trkpt lat="43.60249" lon="6.65185">
        <ele>328.39999389648</ele>
        <time>2019-05-30T09:26:04.000Z</time>
      </trkpt>
      <trkpt lat="43.60248" lon="6.65185">
        <ele>328.60000610352</ele>
        <time>2019-05-30T09:26:16.000Z</time>
      </trkpt>
      <trkpt lat="43.60247" lon="6.65185">
        <ele>328.60000610352</ele>
        <time>2019-05-30T09:26:31.000Z</time>
      </trkpt>
      <trkpt lat="43.60247" lon="6.65187">
        <ele>328.60000610352</ele>
        <time>2019-05-30T09:26:40.000Z</time>
      </trkpt>
      <trkpt lat="43.60246" lon="6.65189">
        <ele>328.60000610352</ele>
        <time>2019-05-30T09:26:42.000Z</time>
      </trkpt>
      <trkpt lat="43.60244" lon="6.6519">
        <ele>328.39999389648</ele>
        <time>2019-05-30T09:26:46.000Z</time>
      </trkpt>
      <trkpt lat="43.60243" lon="6.65191">
        <ele>328.39999389648</ele>
        <time>2019-05-30T09:26:54.000Z</time>
      </trkpt>
      <trkpt lat="43.60243" lon="6.6519">
        <ele>328</ele>
        <time>2019-05-30T09:27:01.000Z</time>
      </trkpt>
      <trkpt lat="43.60244" lon="6.6519">
        <ele>328</ele>
        <time>2019-05-30T09:27:10.000Z</time>
      </trkpt>
      <trkpt lat="43.60245" lon="6.65191">
        <ele>328.39999389648</ele>
        <time>2019-05-30T09:27:18.000Z</time>
      </trkpt>
      <trkpt lat="43.60245" lon="6.65191">
        <ele>328</ele>
        <time>2019-05-30T09:27:29.000Z</time>
      </trkpt>
      <trkpt lat="43.60244" lon="6.65191">
        <ele>328.20001220703</ele>
        <time>2019-05-30T09:27:37.000Z</time>
      </trkpt>
      <trkpt lat="43.60245" lon="6.65191">
        <ele>327.60000610352</ele>
        <time>2019-05-30T09:27:48.000Z</time>
      </trkpt>
      <trkpt lat="43.60246" lon="6.65191">
        <ele>328</ele>
        <time>2019-05-30T09:28:01.000Z</time>
      </trkpt>
      <trkpt lat="43.60246" lon="6.65191">
        <ele>328</ele>
        <time>2019-05-30T09:28:15.000Z</time>
      </trkpt>
      <trkpt lat="43.60246" lon="6.65192">
        <ele>328</ele>
        <time>2019-05-30T09:28:31.000Z</time>
      </trkpt>
      <trkpt lat="43.60247" lon="6.65192">
        <ele>327.60000610352</ele>
        <time>2019-05-30T09:28:44.000Z</time>
      </trkpt>
      <trkpt lat="43.60247" lon="6.65192">
        <ele>327.20001220703</ele>
        <time>2019-05-30T09:28:47.000Z</time>
      </trkpt>
      <trkpt lat="43.60247" lon="6.65193">
        <ele>327.20001220703</ele>
        <time>2019-05-30T09:28:54.000Z</time>
      </trkpt>
      <trkpt lat="43.60247" lon="6.65193">
        <ele>327.60000610352</ele>
        <time>2019-05-30T09:29:06.000Z</time>
      </trkpt>
      <trkpt lat="43.60247" lon="6.65194">
        <ele>327.20001220703</ele>
        <time>2019-05-30T09:29:16.000Z</time>
      </trkpt>
      <trkpt lat="43.6025" lon="6.65195">
        <ele>327.60000610352</ele>
        <time>2019-05-30T09:29:22.000Z</time>
      </trkpt>
      <trkpt lat="43.60252" lon="6.65193">
        <ele>327.60000610352</ele>
        <time>2019-05-30T09:29:28.000Z</time>
      </trkpt>
      <trkpt lat="43.60254" lon="6.65194">
        <ele>327.79998779297</ele>
        <time>2019-05-30T09:29:34.000Z</time>
      </trkpt>
      <trkpt lat="43.60254" lon="6.65192">
        <ele>327.39999389648</ele>
        <time>2019-05-30T09:29:42.000Z</time>
      </trkpt>
      <trkpt lat="43.60255" lon="6.65191">
        <ele>327.60000610352</ele>
        <time>2019-05-30T09:29:47.000Z</time>
      </trkpt>
      <trkpt lat="43.60256" lon="6.65188">
        <ele>327.39999389648</ele>
        <time>2019-05-30T09:29:53.000Z</time>
      </trkpt>
      <trkpt lat="43.60255" lon="6.65185">
        <ele>327.60000610352</ele>
        <time>2019-05-30T09:30:00.000Z</time>
      </trkpt>
      <trkpt lat="43.60257" lon="6.65182">
        <ele>327.39999389648</ele>
        <time>2019-05-30T09:30:06.000Z</time>
      </trkpt>
      <trkpt lat="43.60256" lon="6.65177">
        <ele>327.39999389648</ele>
        <time>2019-05-30T09:30:11.000Z</time>
      </trkpt>
      <trkpt lat="43.60256" lon="6.65176">
        <ele>327.39999389648</ele>
        <time>2019-05-30T09:30:13.000Z</time>
      </trkpt>
      <trkpt lat="43.60256" lon="6.65175">
        <ele>327.39999389648</ele>
        <time>2019-05-30T09:30:14.000Z</time>
      </trkpt>
      <trkpt lat="43.60258" lon="6.65168">
        <ele>327.79998779297</ele>
        <time>2019-05-30T09:30:19.000Z</time>
      </trkpt>
      <trkpt lat="43.60265" lon="6.65165">
        <ele>328.20001220703</ele>
        <time>2019-05-30T09:30:25.000Z</time>
      </trkpt>
      <trkpt lat="43.60266" lon="6.65165">
        <ele>328.20001220703</ele>
        <time>2019-05-30T09:30:26.000Z</time>
      </trkpt>
      <trkpt lat="43.60269" lon="6.65162">
        <ele>328.39999389648</ele>
        <time>2019-05-30T09:30:29.000Z</time>
      </trkpt>
      <trkpt lat="43.60271" lon="6.65156">
        <ele>328.20001220703</ele>
        <time>2019-05-30T09:30:33.000Z</time>
      </trkpt>
      <trkpt lat="43.60273" lon="6.65151">
        <ele>328.60000610352</ele>
        <time>2019-05-30T09:30:39.000Z</time>
      </trkpt>
      <trkpt lat="43.60273" lon="6.65149">
        <ele>328.60000610352</ele>
        <time>2019-05-30T09:31:05.000Z</time>
      </trkpt>
      <trkpt lat="43.60273" lon="6.6515">
        <ele>328.60000610352</ele>
        <time>2019-05-30T09:31:06.000Z</time>
      </trkpt>
      <trkpt lat="43.60271" lon="6.65155">
        <ele>328.79998779297</ele>
        <time>2019-05-30T09:31:11.000Z</time>
      </trkpt>
      <trkpt lat="43.60269" lon="6.65161">
        <ele>328.79998779297</ele>
        <time>2019-05-30T09:31:15.000Z</time>
      </trkpt>
      <trkpt lat="43.60266" lon="6.65166">
        <ele>328.79998779297</ele>
        <time>2019-05-30T09:31:19.000Z</time>
      </trkpt>
      <trkpt lat="43.60264" lon="6.6517">
        <ele>329</ele>
        <time>2019-05-30T09:31:25.000Z</time>
      </trkpt>
      <trkpt lat="43.60263" lon="6.65169">
        <ele>328.79998779297</ele>
        <time>2019-05-30T09:31:26.000Z</time>
      </trkpt>
      <trkpt lat="43.60261" lon="6.65167">
        <ele>328.60000610352</ele>
        <time>2019-05-30T09:31:30.000Z</time>
      </trkpt>
      <trkpt lat="43.60257" lon="6.65172">
        <ele>328.60000610352</ele>
        <time>2019-05-30T09:31:36.000Z</time>
      </trkpt>
      <trkpt lat="43.60258" lon="6.65176">
        <ele>328.20001220703</ele>
        <time>2019-05-30T09:31:39.000Z</time>
      </trkpt>
      <trkpt lat="43.60257" lon="6.65178">
        <ele>328</ele>
        <time>2019-05-30T09:31:41.000Z</time>
      </trkpt>
      <trkpt lat="43.60255" lon="6.6518">
        <ele>328</ele>
        <time>2019-05-30T09:31:43.000Z</time>
      </trkpt>
      <trkpt lat="43.60254" lon="6.65181">
        <ele>327.79998779297</ele>
        <time>2019-05-30T09:31:47.000Z</time>
      </trkpt>
      <trkpt lat="43.60254" lon="6.65181">
        <ele>327.79998779297</ele>
        <time>2019-05-30T09:31:52.000Z</time>
      </trkpt>
      <trkpt lat="43.60254" lon="6.6518">
        <ele>328</ele>
        <time>2019-05-30T09:32:01.000Z</time>
      </trkpt>
      <trkpt lat="43.60253" lon="6.65179">
        <ele>327.39999389648</ele>
        <time>2019-05-30T09:32:12.000Z</time>
      </trkpt>
      <trkpt lat="43.60253" lon="6.65181">
        <ele>327.79998779297</ele>
        <time>2019-05-30T09:32:20.000Z</time>
      </trkpt>
      <trkpt lat="43.60252" lon="6.65186">
        <ele>327.60000610352</ele>
        <time>2019-05-30T09:32:25.000Z</time>
      </trkpt>
      <trkpt lat="43.60252" lon="6.65187">
        <ele>327.60000610352</ele>
        <time>2019-05-30T09:32:31.000Z</time>
      </trkpt>
      <trkpt lat="43.60252" lon="6.65184">
        <ele>327.79998779297</ele>
        <time>2019-05-30T09:32:36.000Z</time>
      </trkpt>
      <trkpt lat="43.60252" lon="6.65182">
        <ele>327.79998779297</ele>
        <time>2019-05-30T09:32:38.000Z</time>
      </trkpt>
      <trkpt lat="43.60251" lon="6.65181">
        <ele>327.79998779297</ele>
        <time>2019-05-30T09:32:41.000Z</time>
      </trkpt>
      <trkpt lat="43.6025" lon="6.65181">
        <ele>328</ele>
        <time>2019-05-30T09:32:52.000Z</time>
      </trkpt>
      <trkpt lat="43.6025" lon="6.65181">
        <ele>327.79998779297</ele>
        <time>2019-05-30T09:32:57.000Z</time>
      </trkpt>
      <trkpt lat="43.6025" lon="6.65181">
        <ele>327.79998779297</ele>
        <time>2019-05-30T09:33:07.000Z</time>
      </trkpt>
      <trkpt lat="43.6025" lon="6.65182">
        <ele>328</ele>
        <time>2019-05-30T09:33:16.000Z</time>
      </trkpt>
      <trkpt lat="43.6025" lon="6.65184">
        <ele>328</ele>
        <time>2019-05-30T09:33:23.000Z</time>
      </trkpt>
      <trkpt lat="43.60248" lon="6.65187">
        <ele>327.79998779297</ele>
        <time>2019-05-30T09:33:31.000Z</time>
      </trkpt>
      <trkpt lat="43.60245" lon="6.65187">
        <ele>327.79998779297</ele>
        <time>2019-05-30T09:33:37.000Z</time>
      </trkpt>
      <trkpt lat="43.60243" lon="6.65188">
        <ele>327.20001220703</ele>
        <time>2019-05-30T09:33:43.000Z</time>
      </trkpt>
      <trkpt lat="43.60243" lon="6.65189">
        <ele>327.20001220703</ele>
        <time>2019-05-30T09:33:44.000Z</time>
      </trkpt>
      <trkpt lat="43.60242" lon="6.65191">
        <ele>327.60000610352</ele>
        <time>2019-05-30T09:33:51.000Z</time>
      </trkpt>
      <trkpt lat="43.60242" lon="6.65192">
        <ele>327.79998779297</ele>
        <time>2019-05-30T09:34:01.000Z</time>
      </trkpt>
      <trkpt lat="43.60242" lon="6.65192">
        <ele>327.39999389648</ele>
        <time>2019-05-30T09:34:14.000Z</time>
      </trkpt>
      <trkpt lat="43.60241" lon="6.65193">
        <ele>327.39999389648</ele>
        <time>2019-05-30T09:34:25.000Z</time>
      </trkpt>
      <trkpt lat="43.60241" lon="6.65194">
        <ele>327.39999389648</ele>
        <time>2019-05-30T09:34:40.000Z</time>
      </trkpt>
      <trkpt lat="43.6024" lon="6.65195">
        <ele>327.39999389648</ele>
        <time>2019-05-30T09:34:48.000Z</time>
      </trkpt>
      <trkpt lat="43.60238" lon="6.65197">
        <ele>327.20001220703</ele>
        <time>2019-05-30T09:34:58.000Z</time>
      </trkpt>
      <trkpt lat="43.60229" lon="6.65204">
        <ele>327</ele>
        <time>2019-05-30T09:35:02.000Z</time>
      </trkpt>
      <trkpt lat="43.60211" lon="6.65202">
        <ele>326.20001220703</ele>
        <time>2019-05-30T09:35:07.000Z</time>
      </trkpt>
      <trkpt lat="43.60192" lon="6.65201">
        <ele>325.60000610352</ele>
        <time>2019-05-30T09:35:11.000Z</time>
      </trkpt>
      <trkpt lat="43.60181" lon="6.65204">
        <ele>325</ele>
        <time>2019-05-30T09:35:13.000Z</time>
      </trkpt>
      <trkpt lat="43.60155" lon="6.65214">
        <ele>323.60000610352</ele>
        <time>2019-05-30T09:35:17.000Z</time>
      </trkpt>
      <trkpt lat="43.60148" lon="6.65217">
        <ele>323</ele>
        <time>2019-05-30T09:35:18.000Z</time>
      </trkpt>
      <trkpt lat="43.60141" lon="6.6522">
        <ele>322.39999389648</ele>
        <time>2019-05-30T09:35:19.000Z</time>
      </trkpt>
      <trkpt lat="43.60126" lon="6.65226">
        <ele>321.39999389648</ele>
        <time>2019-05-30T09:35:21.000Z</time>
      </trkpt>
      <trkpt lat="43.60113" lon="6.6523">
        <ele>320.20001220703</ele>
        <time>2019-05-30T09:35:23.000Z</time>
      </trkpt>
      <trkpt lat="43.60106" lon="6.65232">
        <ele>319.60000610352</ele>
        <time>2019-05-30T09:35:24.000Z</time>
      </trkpt>
      <trkpt lat="43.60101" lon="6.65232">
        <ele>319.20001220703</ele>
        <time>2019-05-30T09:35:25.000Z</time>
      </trkpt>
      <trkpt lat="43.60094" lon="6.65234">
        <ele>318.39999389648</ele>
        <time>2019-05-30T09:35:27.000Z</time>
      </trkpt>
      <trkpt lat="43.6009" lon="6.65238">
        <ele>318</ele>
        <time>2019-05-30T09:35:29.000Z</time>
      </trkpt>
      <trkpt lat="43.60088" lon="6.65243">
        <ele>317.79998779297</ele>
        <time>2019-05-30T09:35:31.000Z</time>
      </trkpt>
      <trkpt lat="43.60081" lon="6.6525">
        <ele>318.20001220703</ele>
        <time>2019-05-30T09:35:36.000Z</time>
      </trkpt>
      <trkpt lat="43.6007" lon="6.6526">
        <ele>318.39999389648</ele>
        <time>2019-05-30T09:35:39.000Z</time>
      </trkpt>
      <trkpt lat="43.60054" lon="6.6528">
        <ele>316.79998779297</ele>
        <time>2019-05-30T09:35:42.000Z</time>
      </trkpt>
      <trkpt lat="43.60048" lon="6.65288">
        <ele>316</ele>
        <time>2019-05-30T09:35:43.000Z</time>
      </trkpt>
      <trkpt lat="43.60042" lon="6.65294">
        <ele>315.20001220703</ele>
        <time>2019-05-30T09:35:44.000Z</time>
      </trkpt>
      <trkpt lat="43.60028" lon="6.65304">
        <ele>313.39999389648</ele>
        <time>2019-05-30T09:35:46.000Z</time>
      </trkpt>
      <trkpt lat="43.60019" lon="6.65309">
        <ele>312.79998779297</ele>
        <time>2019-05-30T09:35:47.000Z</time>
      </trkpt>
      <trkpt lat="43.60011" lon="6.65314">
        <ele>312</ele>
        <time>2019-05-30T09:35:48.000Z</time>
      </trkpt>
      <trkpt lat="43.59993" lon="6.65325">
        <ele>310.39999389648</ele>
        <time>2019-05-30T09:35:50.000Z</time>
      </trkpt>
      <trkpt lat="43.59985" lon="6.6533">
        <ele>309.20001220703</ele>
        <time>2019-05-30T09:35:51.000Z</time>
      </trkpt>
      <trkpt lat="43.59977" lon="6.65334">
        <ele>307.79998779297</ele>
        <time>2019-05-30T09:35:52.000Z</time>
      </trkpt>
      <trkpt lat="43.59959" lon="6.65344">
        <ele>306.20001220703</ele>
        <time>2019-05-30T09:35:54.000Z</time>
      </trkpt>
      <trkpt lat="43.59943" lon="6.65356">
        <ele>305.60000610352</ele>
        <time>2019-05-30T09:35:56.000Z</time>
      </trkpt>
      <trkpt lat="43.59937" lon="6.65364">
        <ele>305.20001220703</ele>
        <time>2019-05-30T09:35:57.000Z</time>
      </trkpt>
      <trkpt lat="43.59931" lon="6.65371">
        <ele>304.79998779297</ele>
        <time>2019-05-30T09:35:58.000Z</time>
      </trkpt>
      <trkpt lat="43.59919" lon="6.65386">
        <ele>303.20001220703</ele>
        <time>2019-05-30T09:36:00.000Z</time>
      </trkpt>
      <trkpt lat="43.59909" lon="6.65397">
        <ele>303.20001220703</ele>
        <time>2019-05-30T09:36:02.000Z</time>
      </trkpt>
      <trkpt lat="43.59894" lon="6.65413">
        <ele>305</ele>
        <time>2019-05-30T09:36:05.000Z</time>
      </trkpt>
      <trkpt lat="43.59886" lon="6.65422">
        <ele>305.60000610352</ele>
        <time>2019-05-30T09:36:07.000Z</time>
      </trkpt>
      <trkpt lat="43.59878" lon="6.65432">
        <ele>306.20001220703</ele>
        <time>2019-05-30T09:36:09.000Z</time>
      </trkpt>
      <trkpt lat="43.59857" lon="6.65456">
        <ele>307.39999389648</ele>
        <time>2019-05-30T09:36:14.000Z</time>
      </trkpt>
      <trkpt lat="43.59833" lon="6.65479">
        <ele>307.60000610352</ele>
        <time>2019-05-30T09:36:20.000Z</time>
      </trkpt>
      <trkpt lat="43.59814" lon="6.65498">
        <ele>307.39999389648</ele>
        <time>2019-05-30T09:36:25.000Z</time>
      </trkpt>
      <trkpt lat="43.59798" lon="6.65512">
        <ele>306.20001220703</ele>
        <time>2019-05-30T09:36:28.000Z</time>
      </trkpt>
      <trkpt lat="43.59787" lon="6.65521">
        <ele>306.20001220703</ele>
        <time>2019-05-30T09:36:30.000Z</time>
      </trkpt>
      <trkpt lat="43.59753" lon="6.65542">
        <ele>306</ele>
        <time>2019-05-30T09:36:36.000Z</time>
      </trkpt>
      <trkpt lat="43.59742" lon="6.6555">
        <ele>305.79998779297</ele>
        <time>2019-05-30T09:36:38.000Z</time>
      </trkpt>
      <trkpt lat="43.59738" lon="6.65558">
        <ele>306</ele>
        <time>2019-05-30T09:36:39.000Z</time>
      </trkpt>
      <trkpt lat="43.59728" lon="6.65584">
        <ele>305</ele>
        <time>2019-05-30T09:36:42.000Z</time>
      </trkpt>
      <trkpt lat="43.59725" lon="6.65593">
        <ele>304.39999389648</ele>
        <time>2019-05-30T09:36:43.000Z</time>
      </trkpt>
      <trkpt lat="43.59723" lon="6.65602">
        <ele>303</ele>
        <time>2019-05-30T09:36:44.000Z</time>
      </trkpt>
      <trkpt lat="43.59721" lon="6.65611">
        <ele>301.60000610352</ele>
        <time>2019-05-30T09:36:45.000Z</time>
      </trkpt>
      <trkpt lat="43.59717" lon="6.65619">
        <ele>302.60000610352</ele>
        <time>2019-05-30T09:36:46.000Z</time>
      </trkpt>
      <trkpt lat="43.59713" lon="6.65625">
        <ele>302.20001220703</ele>
        <time>2019-05-30T09:36:47.000Z</time>
      </trkpt>
      <trkpt lat="43.59697" lon="6.65654">
        <ele>300.60000610352</ele>
        <time>2019-05-30T09:36:51.000Z</time>
      </trkpt>
      <trkpt lat="43.59695" lon="6.65661">
        <ele>300.20001220703</ele>
        <time>2019-05-30T09:36:52.000Z</time>
      </trkpt>
      <trkpt lat="43.5969" lon="6.65678">
        <ele>299.20001220703</ele>
        <time>2019-05-30T09:36:54.000Z</time>
      </trkpt>
      <trkpt lat="43.59687" lon="6.65686">
        <ele>299.20001220703</ele>
        <time>2019-05-30T09:36:55.000Z</time>
      </trkpt>
      <trkpt lat="43.59666" lon="6.65743">
        <ele>299.60000610352</ele>
        <time>2019-05-30T09:37:03.000Z</time>
      </trkpt>
      <trkpt lat="43.59649" lon="6.65794">
        <ele>298.79998779297</ele>
        <time>2019-05-30T09:37:11.000Z</time>
      </trkpt>
      <trkpt lat="43.59641" lon="6.65827">
        <ele>298.20001220703</ele>
        <time>2019-05-30T09:37:17.000Z</time>
      </trkpt>
      <trkpt lat="43.59638" lon="6.65849">
        <ele>298.20001220703</ele>
        <time>2019-05-30T09:37:21.000Z</time>
      </trkpt>
      <trkpt lat="43.59638" lon="6.65855">
        <ele>298.39999389648</ele>
        <time>2019-05-30T09:37:22.000Z</time>
      </trkpt>
      <trkpt lat="43.59638" lon="6.65861">
        <ele>298.39999389648</ele>
        <time>2019-05-30T09:37:23.000Z</time>
      </trkpt>
      <trkpt lat="43.5964" lon="6.65878">
        <ele>298.60000610352</ele>
        <time>2019-05-30T09:37:26.000Z</time>
      </trkpt>
      <trkpt lat="43.59645" lon="6.6589">
        <ele>298.60000610352</ele>
        <time>2019-05-30T09:37:28.000Z</time>
      </trkpt>
      <trkpt lat="43.59651" lon="6.65902">
        <ele>298.79998779297</ele>
        <time>2019-05-30T09:37:30.000Z</time>
      </trkpt>
      <trkpt lat="43.59654" lon="6.65909">
        <ele>298.79998779297</ele>
        <time>2019-05-30T09:37:31.000Z</time>
      </trkpt>
      <trkpt lat="43.59655" lon="6.65923">
        <ele>298.60000610352</ele>
        <time>2019-05-30T09:37:33.000Z</time>
      </trkpt>
      <trkpt lat="43.59647" lon="6.65937">
        <ele>298.20001220703</ele>
        <time>2019-05-30T09:37:36.000Z</time>
      </trkpt>
      <trkpt lat="43.59644" lon="6.65939">
        <ele>298.39999389648</ele>
        <time>2019-05-30T09:37:37.000Z</time>
      </trkpt>
      <trkpt lat="43.59637" lon="6.65946">
        <ele>299.60000610352</ele>
        <time>2019-05-30T09:37:40.000Z</time>
      </trkpt>
      <trkpt lat="43.59634" lon="6.65948">
        <ele>300.20001220703</ele>
        <time>2019-05-30T09:37:41.000Z</time>
      </trkpt>
      <trkpt lat="43.59633" lon="6.6595">
        <ele>300.79998779297</ele>
        <time>2019-05-30T09:37:42.000Z</time>
      </trkpt>
      <trkpt lat="43.59629" lon="6.65954">
        <ele>302</ele>
        <time>2019-05-30T09:37:44.000Z</time>
      </trkpt>
      <trkpt lat="43.59626" lon="6.65958">
        <ele>303</ele>
        <time>2019-05-30T09:37:46.000Z</time>
      </trkpt>
      <trkpt lat="43.59623" lon="6.65963">
        <ele>304</ele>
        <time>2019-05-30T09:37:48.000Z</time>
      </trkpt>
      <trkpt lat="43.59621" lon="6.65965">
        <ele>304.20001220703</ele>
        <time>2019-05-30T09:37:49.000Z</time>
      </trkpt>
      <trkpt lat="43.59611" lon="6.65977">
        <ele>305.20001220703</ele>
        <time>2019-05-30T09:37:54.000Z</time>
      </trkpt>
      <trkpt lat="43.59606" lon="6.65983">
        <ele>305.60000610352</ele>
        <time>2019-05-30T09:37:56.000Z</time>
      </trkpt>
      <trkpt lat="43.59596" lon="6.66001">
        <ele>305.60000610352</ele>
        <time>2019-05-30T09:38:00.000Z</time>
      </trkpt>
      <trkpt lat="43.59594" lon="6.66008">
        <ele>305.39999389648</ele>
        <time>2019-05-30T09:38:01.000Z</time>
      </trkpt>
      <trkpt lat="43.59593" lon="6.66041">
        <ele>304.20001220703</ele>
        <time>2019-05-30T09:38:05.000Z</time>
      </trkpt>
      <trkpt lat="43.59592" lon="6.66051">
        <ele>304.20001220703</ele>
        <time>2019-05-30T09:38:06.000Z</time>
      </trkpt>
      <trkpt lat="43.59588" lon="6.66066">
        <ele>302.79998779297</ele>
        <time>2019-05-30T09:38:08.000Z</time>
      </trkpt>
      <trkpt lat="43.59582" lon="6.66073">
        <ele>301.60000610352</ele>
        <time>2019-05-30T09:38:10.000Z</time>
      </trkpt>
      <trkpt lat="43.59579" lon="6.66075">
        <ele>301</ele>
        <time>2019-05-30T09:38:11.000Z</time>
      </trkpt>
      <trkpt lat="43.59571" lon="6.66078">
        <ele>302.20001220703</ele>
        <time>2019-05-30T09:38:15.000Z</time>
      </trkpt>
      <trkpt lat="43.59569" lon="6.66079">
        <ele>302.79998779297</ele>
        <time>2019-05-30T09:38:16.000Z</time>
      </trkpt>
      <trkpt lat="43.59565" lon="6.66081">
        <ele>303.60000610352</ele>
        <time>2019-05-30T09:38:18.000Z</time>
      </trkpt>
      <trkpt lat="43.59563" lon="6.66081">
        <ele>304</ele>
        <time>2019-05-30T09:38:19.000Z</time>
      </trkpt>
      <trkpt lat="43.59555" lon="6.66085">
        <ele>305.20001220703</ele>
        <time>2019-05-30T09:38:23.000Z</time>
      </trkpt>
      <trkpt lat="43.5955" lon="6.66087">
        <ele>306.20001220703</ele>
        <time>2019-05-30T09:38:26.000Z</time>
      </trkpt>
      <trkpt lat="43.59549" lon="6.66088">
        <ele>306.39999389648</ele>
        <time>2019-05-30T09:38:27.000Z</time>
      </trkpt>
      <trkpt lat="43.5954" lon="6.66093">
        <ele>307.79998779297</ele>
        <time>2019-05-30T09:38:32.000Z</time>
      </trkpt>
      <trkpt lat="43.59533" lon="6.66097">
        <ele>308.79998779297</ele>
        <time>2019-05-30T09:38:36.000Z</time>
      </trkpt>
      <trkpt lat="43.59526" lon="6.66101">
        <ele>310</ele>
        <time>2019-05-30T09:38:40.000Z</time>
      </trkpt>
      <trkpt lat="43.59523" lon="6.66103">
        <ele>310.39999389648</ele>
        <time>2019-05-30T09:38:42.000Z</time>
      </trkpt>
      <trkpt lat="43.59519" lon="6.66108">
        <ele>311</ele>
        <time>2019-05-30T09:38:45.000Z</time>
      </trkpt>
      <trkpt lat="43.59517" lon="6.66113">
        <ele>311.20001220703</ele>
        <time>2019-05-30T09:38:47.000Z</time>
      </trkpt>
      <trkpt lat="43.59516" lon="6.66126">
        <ele>312.20001220703</ele>
        <time>2019-05-30T09:38:52.000Z</time>
      </trkpt>
      <trkpt lat="43.59523" lon="6.6614">
        <ele>313</ele>
        <time>2019-05-30T09:38:57.000Z</time>
      </trkpt>
      <trkpt lat="43.59543" lon="6.66157">
        <ele>312.39999389648</ele>
        <time>2019-05-30T09:39:03.000Z</time>
      </trkpt>
      <trkpt lat="43.5957" lon="6.66181">
        <ele>311.60000610352</ele>
        <time>2019-05-30T09:39:10.000Z</time>
      </trkpt>
      <trkpt lat="43.59591" lon="6.66196">
        <ele>311.60000610352</ele>
        <time>2019-05-30T09:39:15.000Z</time>
      </trkpt>
      <trkpt lat="43.59594" lon="6.662">
        <ele>311.60000610352</ele>
        <time>2019-05-30T09:39:16.000Z</time>
      </trkpt>
      <trkpt lat="43.59598" lon="6.66223">
        <ele>312</ele>
        <time>2019-05-30T09:39:20.000Z</time>
      </trkpt>
      <trkpt lat="43.59599" lon="6.66242">
        <ele>312.39999389648</ele>
        <time>2019-05-30T09:39:23.000Z</time>
      </trkpt>
      <trkpt lat="43.59601" lon="6.66263">
        <ele>312.39999389648</ele>
        <time>2019-05-30T09:39:26.000Z</time>
      </trkpt>
      <trkpt lat="43.59602" lon="6.66291">
        <ele>312.20001220703</ele>
        <time>2019-05-30T09:39:30.000Z</time>
      </trkpt>
      <trkpt lat="43.59599" lon="6.66306">
        <ele>312.20001220703</ele>
        <time>2019-05-30T09:39:32.000Z</time>
      </trkpt>
      <trkpt lat="43.59592" lon="6.66327">
        <ele>312</ele>
        <time>2019-05-30T09:39:35.000Z</time>
      </trkpt>
      <trkpt lat="43.59586" lon="6.6634">
        <ele>311.60000610352</ele>
        <time>2019-05-30T09:39:37.000Z</time>
      </trkpt>
      <trkpt lat="43.59577" lon="6.66363">
        <ele>311.20001220703</ele>
        <time>2019-05-30T09:39:40.000Z</time>
      </trkpt>
      <trkpt lat="43.59569" lon="6.6639">
        <ele>310.39999389648</ele>
        <time>2019-05-30T09:39:43.000Z</time>
      </trkpt>
      <trkpt lat="43.59566" lon="6.66398">
        <ele>310</ele>
        <time>2019-05-30T09:39:44.000Z</time>
      </trkpt>
      <trkpt lat="43.59557" lon="6.66426">
        <ele>308.60000610352</ele>
        <time>2019-05-30T09:39:47.000Z</time>
      </trkpt>
      <trkpt lat="43.59556" lon="6.66437">
        <ele>308.20001220703</ele>
        <time>2019-05-30T09:39:48.000Z</time>
      </trkpt>
      <trkpt lat="43.59554" lon="6.66448">
        <ele>307.60000610352</ele>
        <time>2019-05-30T09:39:49.000Z</time>
      </trkpt>
      <trkpt lat="43.59552" lon="6.6647">
        <ele>306</ele>
        <time>2019-05-30T09:39:51.000Z</time>
      </trkpt>
      <trkpt lat="43.59551" lon="6.66495">
        <ele>304.60000610352</ele>
        <time>2019-05-30T09:39:53.000Z</time>
      </trkpt>
      <trkpt lat="43.5955" lon="6.66507">
        <ele>304</ele>
        <time>2019-05-30T09:39:54.000Z</time>
      </trkpt>
      <trkpt lat="43.59549" lon="6.6652">
        <ele>303.20001220703</ele>
        <time>2019-05-30T09:39:55.000Z</time>
      </trkpt>
      <trkpt lat="43.59546" lon="6.66546">
        <ele>302</ele>
        <time>2019-05-30T09:39:57.000Z</time>
      </trkpt>
      <trkpt lat="43.59544" lon="6.66575">
        <ele>300.60000610352</ele>
        <time>2019-05-30T09:39:59.000Z</time>
      </trkpt>
      <trkpt lat="43.59541" lon="6.66589">
        <ele>299.60000610352</ele>
        <time>2019-05-30T09:40:00.000Z</time>
      </trkpt>
      <trkpt lat="43.59539" lon="6.66602">
        <ele>297.60000610352</ele>
        <time>2019-05-30T09:40:01.000Z</time>
      </trkpt>
      <trkpt lat="43.59537" lon="6.66611">
        <ele>296.39999389648</ele>
        <time>2019-05-30T09:40:02.000Z</time>
      </trkpt>
      <trkpt lat="43.59535" lon="6.66619">
        <ele>295.79998779297</ele>
        <time>2019-05-30T09:40:03.000Z</time>
      </trkpt>
      <trkpt lat="43.59533" lon="6.6663">
        <ele>296.79998779297</ele>
        <time>2019-05-30T09:40:05.000Z</time>
      </trkpt>
      <trkpt lat="43.59532" lon="6.66634">
        <ele>298.20001220703</ele>
        <time>2019-05-30T09:40:06.000Z</time>
      </trkpt>
      <trkpt lat="43.59531" lon="6.66636">
        <ele>299.79998779297</ele>
        <time>2019-05-30T09:40:07.000Z</time>
      </trkpt>
      <trkpt lat="43.59529" lon="6.66639">
        <ele>301</ele>
        <time>2019-05-30T09:40:08.000Z</time>
      </trkpt>
      <trkpt lat="43.59527" lon="6.66643">
        <ele>302.60000610352</ele>
        <time>2019-05-30T09:40:10.000Z</time>
      </trkpt>
      <trkpt lat="43.59523" lon="6.66649">
        <ele>304</ele>
        <time>2019-05-30T09:40:13.000Z</time>
      </trkpt>
      <trkpt lat="43.59518" lon="6.66656">
        <ele>305.20001220703</ele>
        <time>2019-05-30T09:40:16.000Z</time>
      </trkpt>
      <trkpt lat="43.59515" lon="6.6666">
        <ele>305.60000610352</ele>
        <time>2019-05-30T09:40:18.000Z</time>
      </trkpt>
      <trkpt lat="43.59512" lon="6.66665">
        <ele>306.20001220703</ele>
        <time>2019-05-30T09:40:20.000Z</time>
      </trkpt>
      <trkpt lat="43.59508" lon="6.66671">
        <ele>307.20001220703</ele>
        <time>2019-05-30T09:40:23.000Z</time>
      </trkpt>
      <trkpt lat="43.59503" lon="6.6668">
        <ele>308.60000610352</ele>
        <time>2019-05-30T09:40:27.000Z</time>
      </trkpt>
      <trkpt lat="43.59498" lon="6.6669">
        <ele>309.79998779297</ele>
        <time>2019-05-30T09:40:31.000Z</time>
      </trkpt>
      <trkpt lat="43.59496" lon="6.66698">
        <ele>310.60000610352</ele>
        <time>2019-05-30T09:40:34.000Z</time>
      </trkpt>
      <trkpt lat="43.59495" lon="6.66703">
        <ele>310.79998779297</ele>
        <time>2019-05-30T09:40:36.000Z</time>
      </trkpt>
      <trkpt lat="43.59491" lon="6.66711">
        <ele>312</ele>
        <time>2019-05-30T09:40:40.000Z</time>
      </trkpt>
      <trkpt lat="43.59488" lon="6.66719">
        <ele>313</ele>
        <time>2019-05-30T09:40:44.000Z</time>
      </trkpt>
      <trkpt lat="43.59486" lon="6.66723">
        <ele>313.60000610352</ele>
        <time>2019-05-30T09:40:46.000Z</time>
      </trkpt>
      <trkpt lat="43.59485" lon="6.66727">
        <ele>314.39999389648</ele>
        <time>2019-05-30T09:40:48.000Z</time>
      </trkpt>
      <trkpt lat="43.59482" lon="6.66734">
        <ele>315.39999389648</ele>
        <time>2019-05-30T09:40:52.000Z</time>
      </trkpt>
      <trkpt lat="43.59481" lon="6.66738">
        <ele>315.79998779297</ele>
        <time>2019-05-30T09:40:54.000Z</time>
      </trkpt>
      <trkpt lat="43.59479" lon="6.66742">
        <ele>316.39999389648</ele>
        <time>2019-05-30T09:40:56.000Z</time>
      </trkpt>
      <trkpt lat="43.59475" lon="6.66752">
        <ele>317.60000610352</ele>
        <time>2019-05-30T09:41:01.000Z</time>
      </trkpt>
      <trkpt lat="43.59471" lon="6.66764">
        <ele>318.79998779297</ele>
        <time>2019-05-30T09:41:06.000Z</time>
      </trkpt>
      <trkpt lat="43.59466" lon="6.66777">
        <ele>320</ele>
        <time>2019-05-30T09:41:11.000Z</time>
      </trkpt>
      <trkpt lat="43.59465" lon="6.66783">
        <ele>320.60000610352</ele>
        <time>2019-05-30T09:41:13.000Z</time>
      </trkpt>
      <trkpt lat="43.59464" lon="6.66789">
        <ele>321.20001220703</ele>
        <time>2019-05-30T09:41:15.000Z</time>
      </trkpt>
      <trkpt lat="43.5946" lon="6.66808">
        <ele>322</ele>
        <time>2019-05-30T09:41:21.000Z</time>
      </trkpt>
      <trkpt lat="43.59459" lon="6.6681">
        <ele>322.20001220703</ele>
        <time>2019-05-30T09:41:22.000Z</time>
      </trkpt>
      <trkpt lat="43.59458" lon="6.66826">
        <ele>322.79998779297</ele>
        <time>2019-05-30T09:41:27.000Z</time>
      </trkpt>
      <trkpt lat="43.59456" lon="6.66835">
        <ele>323.39999389648</ele>
        <time>2019-05-30T09:41:30.000Z</time>
      </trkpt>
      <trkpt lat="43.59455" lon="6.6685">
        <ele>324.20001220703</ele>
        <time>2019-05-30T09:41:35.000Z</time>
      </trkpt>
      <trkpt lat="43.59454" lon="6.66852">
        <ele>324.60000610352</ele>
        <time>2019-05-30T09:41:36.000Z</time>
      </trkpt>
      <trkpt lat="43.59453" lon="6.66862">
        <ele>325.39999389648</ele>
        <time>2019-05-30T09:41:40.000Z</time>
      </trkpt>
      <trkpt lat="43.59453" lon="6.66864">
        <ele>325.60000610352</ele>
        <time>2019-05-30T09:41:41.000Z</time>
      </trkpt>
      <trkpt lat="43.59452" lon="6.66879">
        <ele>326.79998779297</ele>
        <time>2019-05-30T09:41:47.000Z</time>
      </trkpt>
      <trkpt lat="43.59451" lon="6.66885">
        <ele>327.39999389648</ele>
        <time>2019-05-30T09:41:49.000Z</time>
      </trkpt>
      <trkpt lat="43.59451" lon="6.66892">
        <ele>327.79998779297</ele>
        <time>2019-05-30T09:41:52.000Z</time>
      </trkpt>
      <trkpt lat="43.5945" lon="6.66911">
        <ele>329</ele>
        <time>2019-05-30T09:41:58.000Z</time>
      </trkpt>
      <trkpt lat="43.59452" lon="6.66929">
        <ele>330.20001220703</ele>
        <time>2019-05-30T09:42:04.000Z</time>
      </trkpt>
      <trkpt lat="43.59452" lon="6.66932">
        <ele>330.39999389648</ele>
        <time>2019-05-30T09:42:05.000Z</time>
      </trkpt>
      <trkpt lat="43.59448" lon="6.66947">
        <ele>330.79998779297</ele>
        <time>2019-05-30T09:42:10.000Z</time>
      </trkpt>
      <trkpt lat="43.59447" lon="6.66949">
        <ele>331.20001220703</ele>
        <time>2019-05-30T09:42:11.000Z</time>
      </trkpt>
      <trkpt lat="43.59438" lon="6.66949">
        <ele>331.60000610352</ele>
        <time>2019-05-30T09:42:14.000Z</time>
      </trkpt>
      <trkpt lat="43.59433" lon="6.66948">
        <ele>331.79998779297</ele>
        <time>2019-05-30T09:42:16.000Z</time>
      </trkpt>
      <trkpt lat="43.59419" lon="6.66947">
        <ele>332.20001220703</ele>
        <time>2019-05-30T09:42:20.000Z</time>
      </trkpt>
      <trkpt lat="43.59407" lon="6.66946">
        <ele>332.39999389648</ele>
        <time>2019-05-30T09:42:23.000Z</time>
      </trkpt>
      <trkpt lat="43.59398" lon="6.66946">
        <ele>332.20001220703</ele>
        <time>2019-05-30T09:42:25.000Z</time>
      </trkpt>
      <trkpt lat="43.59377" lon="6.66946">
        <ele>332.20001220703</ele>
        <time>2019-05-30T09:42:30.000Z</time>
      </trkpt>
      <trkpt lat="43.5934" lon="6.66946">
        <ele>331.39999389648</ele>
        <time>2019-05-30T09:42:37.000Z</time>
      </trkpt>
      <trkpt lat="43.59298" lon="6.66947">
        <ele>331.20001220703</ele>
        <time>2019-05-30T09:42:45.000Z</time>
      </trkpt>
      <trkpt lat="43.59281" lon="6.66952">
        <ele>330.39999389648</ele>
        <time>2019-05-30T09:42:48.000Z</time>
      </trkpt>
      <trkpt lat="43.59271" lon="6.66958">
        <ele>330</ele>
        <time>2019-05-30T09:42:50.000Z</time>
      </trkpt>
      <trkpt lat="43.59254" lon="6.66951">
        <ele>329.79998779297</ele>
        <time>2019-05-30T09:42:53.000Z</time>
      </trkpt>
      <trkpt lat="43.59248" lon="6.66946">
        <ele>329.60000610352</ele>
        <time>2019-05-30T09:42:54.000Z</time>
      </trkpt>
      <trkpt lat="43.59234" lon="6.66936">
        <ele>328.60000610352</ele>
        <time>2019-05-30T09:42:56.000Z</time>
      </trkpt>
      <trkpt lat="43.59219" lon="6.66927">
        <ele>327.39999389648</ele>
        <time>2019-05-30T09:42:58.000Z</time>
      </trkpt>
      <trkpt lat="43.59203" lon="6.66918">
        <ele>326</ele>
        <time>2019-05-30T09:43:00.000Z</time>
      </trkpt>
      <trkpt lat="43.59188" lon="6.66908">
        <ele>324.60000610352</ele>
        <time>2019-05-30T09:43:02.000Z</time>
      </trkpt>
      <trkpt lat="43.59174" lon="6.66897">
        <ele>323.60000610352</ele>
        <time>2019-05-30T09:43:04.000Z</time>
      </trkpt>
      <trkpt lat="43.59137" lon="6.66862">
        <ele>322.20001220703</ele>
        <time>2019-05-30T09:43:09.000Z</time>
      </trkpt>
      <trkpt lat="43.59129" lon="6.66855">
        <ele>321.39999389648</ele>
        <time>2019-05-30T09:43:10.000Z</time>
      </trkpt>
      <trkpt lat="43.5912" lon="6.66847">
        <ele>320.60000610352</ele>
        <time>2019-05-30T09:43:11.000Z</time>
      </trkpt>
      <trkpt lat="43.59104" lon="6.6683">
        <ele>318.79998779297</ele>
        <time>2019-05-30T09:43:13.000Z</time>
      </trkpt>
      <trkpt lat="43.59095" lon="6.66821">
        <ele>317.60000610352</ele>
        <time>2019-05-30T09:43:14.000Z</time>
      </trkpt>
      <trkpt lat="43.59078" lon="6.66804">
        <ele>316</ele>
        <time>2019-05-30T09:43:16.000Z</time>
      </trkpt>
      <trkpt lat="43.5907" lon="6.66796">
        <ele>314.60000610352</ele>
        <time>2019-05-30T09:43:17.000Z</time>
      </trkpt>
      <trkpt lat="43.59053" lon="6.66779">
        <ele>313.20001220703</ele>
        <time>2019-05-30T09:43:19.000Z</time>
      </trkpt>
      <trkpt lat="43.59036" lon="6.66761">
        <ele>311.39999389648</ele>
        <time>2019-05-30T09:43:21.000Z</time>
      </trkpt>
      <trkpt lat="43.5902" lon="6.66744">
        <ele>309.39999389648</ele>
        <time>2019-05-30T09:43:23.000Z</time>
      </trkpt>
      <trkpt lat="43.59004" lon="6.66726">
        <ele>308</ele>
        <time>2019-05-30T09:43:25.000Z</time>
      </trkpt>
      <trkpt lat="43.58981" lon="6.66701">
        <ele>307</ele>
        <time>2019-05-30T09:43:28.000Z</time>
      </trkpt>
      <trkpt lat="43.58965" lon="6.66685">
        <ele>306.39999389648</ele>
        <time>2019-05-30T09:43:30.000Z</time>
      </trkpt>
      <trkpt lat="43.58951" lon="6.66672">
        <ele>306</ele>
        <time>2019-05-30T09:43:32.000Z</time>
      </trkpt>
      <trkpt lat="43.58923" lon="6.66646">
        <ele>306.20001220703</ele>
        <time>2019-05-30T09:43:36.000Z</time>
      </trkpt>
      <trkpt lat="43.58909" lon="6.66636">
        <ele>306.20001220703</ele>
        <time>2019-05-30T09:43:38.000Z</time>
      </trkpt>
      <trkpt lat="43.58895" lon="6.66632">
        <ele>306.39999389648</ele>
        <time>2019-05-30T09:43:40.000Z</time>
      </trkpt>
      <trkpt lat="43.58883" lon="6.66629">
        <ele>306.60000610352</ele>
        <time>2019-05-30T09:43:42.000Z</time>
      </trkpt>
      <trkpt lat="43.58872" lon="6.66625">
        <ele>307</ele>
        <time>2019-05-30T09:43:44.000Z</time>
      </trkpt>
      <trkpt lat="43.58867" lon="6.66624">
        <ele>307.20001220703</ele>
        <time>2019-05-30T09:43:45.000Z</time>
      </trkpt>
      <trkpt lat="43.58849" lon="6.66621">
        <ele>308</ele>
        <time>2019-05-30T09:43:48.000Z</time>
      </trkpt>
      <trkpt lat="43.58844" lon="6.6662">
        <ele>308.20001220703</ele>
        <time>2019-05-30T09:43:49.000Z</time>
      </trkpt>
      <trkpt lat="43.58815" lon="6.66615">
        <ele>309</ele>
        <time>2019-05-30T09:43:54.000Z</time>
      </trkpt>
      <trkpt lat="43.5881" lon="6.66615">
        <ele>309.20001220703</ele>
        <time>2019-05-30T09:43:55.000Z</time>
      </trkpt>
      <trkpt lat="43.58794" lon="6.66613">
        <ele>310</ele>
        <time>2019-05-30T09:43:58.000Z</time>
      </trkpt>
      <trkpt lat="43.58783" lon="6.66611">
        <ele>310.39999389648</ele>
        <time>2019-05-30T09:44:00.000Z</time>
      </trkpt>
      <trkpt lat="43.58768" lon="6.66609">
        <ele>310.79998779297</ele>
        <time>2019-05-30T09:44:03.000Z</time>
      </trkpt>
      <trkpt lat="43.58747" lon="6.66608">
        <ele>311.39999389648</ele>
        <time>2019-05-30T09:44:07.000Z</time>
      </trkpt>
      <trkpt lat="43.58731" lon="6.66608">
        <ele>311.79998779297</ele>
        <time>2019-05-30T09:44:10.000Z</time>
      </trkpt>
      <trkpt lat="43.58726" lon="6.66607">
        <ele>312</ele>
        <time>2019-05-30T09:44:11.000Z</time>
      </trkpt>
      <trkpt lat="43.58711" lon="6.66605">
        <ele>312</ele>
        <time>2019-05-30T09:44:14.000Z</time>
      </trkpt>
      <trkpt lat="43.58699" lon="6.66604">
        <ele>311.79998779297</ele>
        <time>2019-05-30T09:44:16.000Z</time>
      </trkpt>
      <trkpt lat="43.58671" lon="6.66605">
        <ele>312</ele>
        <time>2019-05-30T09:44:21.000Z</time>
      </trkpt>
      <trkpt lat="43.58642" lon="6.66606">
        <ele>312.20001220703</ele>
        <time>2019-05-30T09:44:26.000Z</time>
      </trkpt>
      <trkpt lat="43.58632" lon="6.66608">
        <ele>312.39999389648</ele>
        <time>2019-05-30T09:44:28.000Z</time>
      </trkpt>
      <trkpt lat="43.58626" lon="6.6661">
        <ele>312.60000610352</ele>
        <time>2019-05-30T09:44:29.000Z</time>
      </trkpt>
      <trkpt lat="43.58615" lon="6.66614">
        <ele>313</ele>
        <time>2019-05-30T09:44:31.000Z</time>
      </trkpt>
      <trkpt lat="43.58609" lon="6.66617">
        <ele>313</ele>
        <time>2019-05-30T09:44:32.000Z</time>
      </trkpt>
      <trkpt lat="43.58592" lon="6.66628">
        <ele>312.60000610352</ele>
        <time>2019-05-30T09:44:35.000Z</time>
      </trkpt>
      <trkpt lat="43.58586" lon="6.6663">
        <ele>312.39999389648</ele>
        <time>2019-05-30T09:44:36.000Z</time>
      </trkpt>
      <trkpt lat="43.58566" lon="6.6663">
        <ele>311.79998779297</ele>
        <time>2019-05-30T09:44:39.000Z</time>
      </trkpt>
      <trkpt lat="43.58561" lon="6.66629">
        <ele>311.39999389648</ele>
        <time>2019-05-30T09:44:40.000Z</time>
      </trkpt>
      <trkpt lat="43.58555" lon="6.66628">
        <ele>311</ele>
        <time>2019-05-30T09:44:41.000Z</time>
      </trkpt>
      <trkpt lat="43.58545" lon="6.66629">
        <ele>310.20001220703</ele>
        <time>2019-05-30T09:44:43.000Z</time>
      </trkpt>
      <trkpt lat="43.58534" lon="6.66628">
        <ele>309.20001220703</ele>
        <time>2019-05-30T09:44:45.000Z</time>
      </trkpt>
      <trkpt lat="43.58529" lon="6.66627">
        <ele>308.60000610352</ele>
        <time>2019-05-30T09:44:46.000Z</time>
      </trkpt>
      <trkpt lat="43.58511" lon="6.66622">
        <ele>306.60000610352</ele>
        <time>2019-05-30T09:44:49.000Z</time>
      </trkpt>
      <trkpt lat="43.58506" lon="6.66621">
        <ele>305.39999389648</ele>
        <time>2019-05-30T09:44:50.000Z</time>
      </trkpt>
      <trkpt lat="43.585" lon="6.66618">
        <ele>304</ele>
        <time>2019-05-30T09:44:51.000Z</time>
      </trkpt>
      <trkpt lat="43.58494" lon="6.66615">
        <ele>302.79998779297</ele>
        <time>2019-05-30T09:44:52.000Z</time>
      </trkpt>
      <trkpt lat="43.58486" lon="6.66611">
        <ele>301.79998779297</ele>
        <time>2019-05-30T09:44:53.000Z</time>
      </trkpt>
      <trkpt lat="43.58472" lon="6.66604">
        <ele>300.79998779297</ele>
        <time>2019-05-30T09:44:55.000Z</time>
      </trkpt>
      <trkpt lat="43.58465" lon="6.66601">
        <ele>300.60000610352</ele>
        <time>2019-05-30T09:44:56.000Z</time>
      </trkpt>
      <trkpt lat="43.58457" lon="6.66599">
        <ele>300</ele>
        <time>2019-05-30T09:44:57.000Z</time>
      </trkpt>
      <trkpt lat="43.5845" lon="6.666">
        <ele>299.39999389648</ele>
        <time>2019-05-30T09:44:58.000Z</time>
      </trkpt>
      <trkpt lat="43.58436" lon="6.66604">
        <ele>298.39999389648</ele>
        <time>2019-05-30T09:45:00.000Z</time>
      </trkpt>
      <trkpt lat="43.58429" lon="6.66606">
        <ele>298.20001220703</ele>
        <time>2019-05-30T09:45:01.000Z</time>
      </trkpt>
      <trkpt lat="43.584" lon="6.66614">
        <ele>297</ele>
        <time>2019-05-30T09:45:05.000Z</time>
      </trkpt>
      <trkpt lat="43.58387" lon="6.66617">
        <ele>296.20001220703</ele>
        <time>2019-05-30T09:45:07.000Z</time>
      </trkpt>
      <trkpt lat="43.58373" lon="6.66621">
        <ele>295.60000610352</ele>
        <time>2019-05-30T09:45:09.000Z</time>
      </trkpt>
      <trkpt lat="43.58353" lon="6.66626">
        <ele>295</ele>
        <time>2019-05-30T09:45:12.000Z</time>
      </trkpt>
      <trkpt lat="43.5834" lon="6.66632">
        <ele>294.60000610352</ele>
        <time>2019-05-30T09:45:14.000Z</time>
      </trkpt>
      <trkpt lat="43.58334" lon="6.66634">
        <ele>294.39999389648</ele>
        <time>2019-05-30T09:45:15.000Z</time>
      </trkpt>
      <trkpt lat="43.58327" lon="6.66636">
        <ele>294</ele>
        <time>2019-05-30T09:45:17.000Z</time>
      </trkpt>
      <trkpt lat="43.58325" lon="6.66638">
        <ele>293.39999389648</ele>
        <time>2019-05-30T09:45:19.000Z</time>
      </trkpt>
      <trkpt lat="43.58324" lon="6.66639">
        <ele>293.20001220703</ele>
        <time>2019-05-30T09:45:20.000Z</time>
      </trkpt>
      <trkpt lat="43.58314" lon="6.66637">
        <ele>293.20001220703</ele>
        <time>2019-05-30T09:45:25.000Z</time>
      </trkpt>
      <trkpt lat="43.58312" lon="6.66636">
        <ele>293</ele>
        <time>2019-05-30T09:45:27.000Z</time>
      </trkpt>
      <trkpt lat="43.58307" lon="6.66639">
        <ele>292.79998779297</ele>
        <time>2019-05-30T09:45:30.000Z</time>
      </trkpt>
      <trkpt lat="43.58298" lon="6.66638">
        <ele>292.79998779297</ele>
        <time>2019-05-30T09:45:33.000Z</time>
      </trkpt>
      <trkpt lat="43.58295" lon="6.66638">
        <ele>292.79998779297</ele>
        <time>2019-05-30T09:45:34.000Z</time>
      </trkpt>
      <trkpt lat="43.58279" lon="6.66644">
        <ele>292.20001220703</ele>
        <time>2019-05-30T09:45:38.000Z</time>
      </trkpt>
      <trkpt lat="43.58262" lon="6.66655">
        <ele>291</ele>
        <time>2019-05-30T09:45:41.000Z</time>
      </trkpt>
      <trkpt lat="43.58251" lon="6.66663">
        <ele>290.20001220703</ele>
        <time>2019-05-30T09:45:43.000Z</time>
      </trkpt>
      <trkpt lat="43.58216" lon="6.66688">
        <ele>290.20001220703</ele>
        <time>2019-05-30T09:45:49.000Z</time>
      </trkpt>
      <trkpt lat="43.58198" lon="6.66704">
        <ele>289.79998779297</ele>
        <time>2019-05-30T09:45:52.000Z</time>
      </trkpt>
      <trkpt lat="43.58172" lon="6.66727">
        <ele>289</ele>
        <time>2019-05-30T09:45:56.000Z</time>
      </trkpt>
      <trkpt lat="43.58166" lon="6.66733">
        <ele>288.79998779297</ele>
        <time>2019-05-30T09:45:57.000Z</time>
      </trkpt>
      <trkpt lat="43.58125" lon="6.66772">
        <ele>287.60000610352</ele>
        <time>2019-05-30T09:46:04.000Z</time>
      </trkpt>
      <trkpt lat="43.581" lon="6.66796">
        <ele>286.79998779297</ele>
        <time>2019-05-30T09:46:08.000Z</time>
      </trkpt>
      <trkpt lat="43.58092" lon="6.66799">
        <ele>286.60000610352</ele>
        <time>2019-05-30T09:46:09.000Z</time>
      </trkpt>
      <trkpt lat="43.5807" lon="6.66806">
        <ele>286</ele>
        <time>2019-05-30T09:46:12.000Z</time>
      </trkpt>
      <trkpt lat="43.58062" lon="6.66806">
        <ele>285.60000610352</ele>
        <time>2019-05-30T09:46:13.000Z</time>
      </trkpt>
      <trkpt lat="43.58054" lon="6.66806">
        <ele>285.60000610352</ele>
        <time>2019-05-30T09:46:14.000Z</time>
      </trkpt>
      <trkpt lat="43.58039" lon="6.66805">
        <ele>284.39999389648</ele>
        <time>2019-05-30T09:46:16.000Z</time>
      </trkpt>
      <trkpt lat="43.58032" lon="6.66804">
        <ele>284</ele>
        <time>2019-05-30T09:46:17.000Z</time>
      </trkpt>
      <trkpt lat="43.58018" lon="6.66797">
        <ele>283.79998779297</ele>
        <time>2019-05-30T09:46:19.000Z</time>
      </trkpt>
      <trkpt lat="43.5799" lon="6.66776">
        <ele>283.39999389648</ele>
        <time>2019-05-30T09:46:23.000Z</time>
      </trkpt>
      <trkpt lat="43.57982" lon="6.66773">
        <ele>283</ele>
        <time>2019-05-30T09:46:24.000Z</time>
      </trkpt>
      <trkpt lat="43.57966" lon="6.66766">
        <ele>281.79998779297</ele>
        <time>2019-05-30T09:46:26.000Z</time>
      </trkpt>
      <trkpt lat="43.57942" lon="6.66762">
        <ele>280.60000610352</ele>
        <time>2019-05-30T09:46:29.000Z</time>
      </trkpt>
      <trkpt lat="43.57933" lon="6.66761">
        <ele>280.39999389648</ele>
        <time>2019-05-30T09:46:30.000Z</time>
      </trkpt>
      <trkpt lat="43.57908" lon="6.66761">
        <ele>279.39999389648</ele>
        <time>2019-05-30T09:46:33.000Z</time>
      </trkpt>
      <trkpt lat="43.57881" lon="6.66761">
        <ele>278.20001220703</ele>
        <time>2019-05-30T09:46:36.000Z</time>
      </trkpt>
      <trkpt lat="43.57873" lon="6.66761">
        <ele>277.79998779297</ele>
        <time>2019-05-30T09:46:37.000Z</time>
      </trkpt>
      <trkpt lat="43.57855" lon="6.66761">
        <ele>277</ele>
        <time>2019-05-30T09:46:39.000Z</time>
      </trkpt>
      <trkpt lat="43.57828" lon="6.6676">
        <ele>275.39999389648</ele>
        <time>2019-05-30T09:46:42.000Z</time>
      </trkpt>
      <trkpt lat="43.5781" lon="6.66761">
        <ele>274.79998779297</ele>
        <time>2019-05-30T09:46:44.000Z</time>
      </trkpt>
      <trkpt lat="43.57802" lon="6.66761">
        <ele>274.39999389648</ele>
        <time>2019-05-30T09:46:45.000Z</time>
      </trkpt>
      <trkpt lat="43.5778" lon="6.66761">
        <ele>273.79998779297</ele>
        <time>2019-05-30T09:46:48.000Z</time>
      </trkpt>
      <trkpt lat="43.57773" lon="6.66758">
        <ele>273.60000610352</ele>
        <time>2019-05-30T09:46:49.000Z</time>
      </trkpt>
      <trkpt lat="43.57759" lon="6.66749">
        <ele>273.60000610352</ele>
        <time>2019-05-30T09:46:51.000Z</time>
      </trkpt>
      <trkpt lat="43.57752" lon="6.66746">
        <ele>273.60000610352</ele>
        <time>2019-05-30T09:46:52.000Z</time>
      </trkpt>
      <trkpt lat="43.57744" lon="6.66742">
        <ele>273.39999389648</ele>
        <time>2019-05-30T09:46:53.000Z</time>
      </trkpt>
      <trkpt lat="43.57713" lon="6.6673">
        <ele>272.79998779297</ele>
        <time>2019-05-30T09:46:57.000Z</time>
      </trkpt>
      <trkpt lat="43.57704" lon="6.66728">
        <ele>272.20001220703</ele>
        <time>2019-05-30T09:46:58.000Z</time>
      </trkpt>
      <trkpt lat="43.57686" lon="6.66722">
        <ele>270.79998779297</ele>
        <time>2019-05-30T09:47:00.000Z</time>
      </trkpt>
      <trkpt lat="43.57669" lon="6.66719">
        <ele>269.39999389648</ele>
        <time>2019-05-30T09:47:02.000Z</time>
      </trkpt>
      <trkpt lat="43.5766" lon="6.66718">
        <ele>268.39999389648</ele>
        <time>2019-05-30T09:47:03.000Z</time>
      </trkpt>
      <trkpt lat="43.57653" lon="6.66717">
        <ele>268</ele>
        <time>2019-05-30T09:47:04.000Z</time>
      </trkpt>
      <trkpt lat="43.57628" lon="6.66711">
        <ele>267</ele>
        <time>2019-05-30T09:47:07.000Z</time>
      </trkpt>
      <trkpt lat="43.5762" lon="6.66709">
        <ele>267.20001220703</ele>
        <time>2019-05-30T09:47:08.000Z</time>
      </trkpt>
      <trkpt lat="43.57581" lon="6.66706">
        <ele>267.39999389648</ele>
        <time>2019-05-30T09:47:13.000Z</time>
      </trkpt>
      <trkpt lat="43.57553" lon="6.66698">
        <ele>267.39999389648</ele>
        <time>2019-05-30T09:47:17.000Z</time>
      </trkpt>
      <trkpt lat="43.57546" lon="6.66694">
        <ele>267.60000610352</ele>
        <time>2019-05-30T09:47:18.000Z</time>
      </trkpt>
      <trkpt lat="43.57516" lon="6.66675">
        <ele>268</ele>
        <time>2019-05-30T09:47:23.000Z</time>
      </trkpt>
      <trkpt lat="43.57511" lon="6.66672">
        <ele>268.39999389648</ele>
        <time>2019-05-30T09:47:24.000Z</time>
      </trkpt>
      <trkpt lat="43.57493" lon="6.6666">
        <ele>269.20001220703</ele>
        <time>2019-05-30T09:47:27.000Z</time>
      </trkpt>
      <trkpt lat="43.5748" lon="6.6665">
        <ele>268.39999389648</ele>
        <time>2019-05-30T09:47:29.000Z</time>
      </trkpt>
      <trkpt lat="43.57473" lon="6.66646">
        <ele>268</ele>
        <time>2019-05-30T09:47:30.000Z</time>
      </trkpt>
      <trkpt lat="43.57459" lon="6.66639">
        <ele>266.20001220703</ele>
        <time>2019-05-30T09:47:32.000Z</time>
      </trkpt>
      <trkpt lat="43.57437" lon="6.6663">
        <ele>265</ele>
        <time>2019-05-30T09:47:35.000Z</time>
      </trkpt>
      <trkpt lat="43.57431" lon="6.66626">
        <ele>265</ele>
        <time>2019-05-30T09:47:36.000Z</time>
      </trkpt>
      <trkpt lat="43.57419" lon="6.66615">
        <ele>265</ele>
        <time>2019-05-30T09:47:38.000Z</time>
      </trkpt>
      <trkpt lat="43.57408" lon="6.66605">
        <ele>265.39999389648</ele>
        <time>2019-05-30T09:47:40.000Z</time>
      </trkpt>
      <trkpt lat="43.57386" lon="6.66588">
        <ele>266</ele>
        <time>2019-05-30T09:47:44.000Z</time>
      </trkpt>
      <trkpt lat="43.57382" lon="6.66583">
        <ele>266.20001220703</ele>
        <time>2019-05-30T09:47:45.000Z</time>
      </trkpt>
      <trkpt lat="43.57371" lon="6.66563">
        <ele>267.20001220703</ele>
        <time>2019-05-30T09:47:48.000Z</time>
      </trkpt>
      <trkpt lat="43.57352" lon="6.66541">
        <ele>266.39999389648</ele>
        <time>2019-05-30T09:47:51.000Z</time>
      </trkpt>
      <trkpt lat="43.57338" lon="6.66526">
        <ele>264</ele>
        <time>2019-05-30T09:47:53.000Z</time>
      </trkpt>
      <trkpt lat="43.57331" lon="6.66519">
        <ele>263</ele>
        <time>2019-05-30T09:47:54.000Z</time>
      </trkpt>
      <trkpt lat="43.57324" lon="6.6651">
        <ele>261.60000610352</ele>
        <time>2019-05-30T09:47:55.000Z</time>
      </trkpt>
      <trkpt lat="43.57317" lon="6.66502">
        <ele>260.20001220703</ele>
        <time>2019-05-30T09:47:56.000Z</time>
      </trkpt>
      <trkpt lat="43.57303" lon="6.66487">
        <ele>258.39999389648</ele>
        <time>2019-05-30T09:47:58.000Z</time>
      </trkpt>
      <trkpt lat="43.57295" lon="6.6648">
        <ele>257</ele>
        <time>2019-05-30T09:48:00.000Z</time>
      </trkpt>
      <trkpt lat="43.57293" lon="6.6648">
        <ele>256.39999389648</ele>
        <time>2019-05-30T09:48:01.000Z</time>
      </trkpt>
      <trkpt lat="43.57287" lon="6.6648">
        <ele>255.80000305176</ele>
        <time>2019-05-30T09:48:03.000Z</time>
      </trkpt>
      <trkpt lat="43.57272" lon="6.66481">
        <ele>255.60000610352</ele>
        <time>2019-05-30T09:48:06.000Z</time>
      </trkpt>
      <trkpt lat="43.57267" lon="6.66483">
        <ele>255</ele>
        <time>2019-05-30T09:48:07.000Z</time>
      </trkpt>
      <trkpt lat="43.57261" lon="6.66486">
        <ele>254.19999694824</ele>
        <time>2019-05-30T09:48:08.000Z</time>
      </trkpt>
      <trkpt lat="43.57255" lon="6.66488">
        <ele>253</ele>
        <time>2019-05-30T09:48:09.000Z</time>
      </trkpt>
      <trkpt lat="43.57249" lon="6.66489">
        <ele>252.19999694824</ele>
        <time>2019-05-30T09:48:10.000Z</time>
      </trkpt>
      <trkpt lat="43.57244" lon="6.6649">
        <ele>251.39999389648</ele>
        <time>2019-05-30T09:48:11.000Z</time>
      </trkpt>
      <trkpt lat="43.5724" lon="6.66492">
        <ele>250.80000305176</ele>
        <time>2019-05-30T09:48:12.000Z</time>
      </trkpt>
      <trkpt lat="43.57236" lon="6.66497">
        <ele>250.19999694824</ele>
        <time>2019-05-30T09:48:13.000Z</time>
      </trkpt>
      <trkpt lat="43.57226" lon="6.66508">
        <ele>249.19999694824</ele>
        <time>2019-05-30T09:48:16.000Z</time>
      </trkpt>
      <trkpt lat="43.57228" lon="6.66518">
        <ele>248.60000610352</ele>
        <time>2019-05-30T09:48:18.000Z</time>
      </trkpt>
      <trkpt lat="43.57229" lon="6.66524">
        <ele>248</ele>
        <time>2019-05-30T09:48:19.000Z</time>
      </trkpt>
      <trkpt lat="43.57227" lon="6.66538">
        <ele>246.80000305176</ele>
        <time>2019-05-30T09:48:21.000Z</time>
      </trkpt>
      <trkpt lat="43.57221" lon="6.66551">
        <ele>246.39999389648</ele>
        <time>2019-05-30T09:48:23.000Z</time>
      </trkpt>
      <trkpt lat="43.57218" lon="6.66556">
        <ele>246.39999389648</ele>
        <time>2019-05-30T09:48:24.000Z</time>
      </trkpt>
      <trkpt lat="43.57215" lon="6.6656">
        <ele>246</ele>
        <time>2019-05-30T09:48:25.000Z</time>
      </trkpt>
      <trkpt lat="43.57212" lon="6.66565">
        <ele>245.80000305176</ele>
        <time>2019-05-30T09:48:26.000Z</time>
      </trkpt>
      <trkpt lat="43.57208" lon="6.66569">
        <ele>245.39999389648</ele>
        <time>2019-05-30T09:48:27.000Z</time>
      </trkpt>
      <trkpt lat="43.57205" lon="6.66574">
        <ele>244.80000305176</ele>
        <time>2019-05-30T09:48:28.000Z</time>
      </trkpt>
      <trkpt lat="43.57202" lon="6.6658">
        <ele>244.19999694824</ele>
        <time>2019-05-30T09:48:29.000Z</time>
      </trkpt>
      <trkpt lat="43.57199" lon="6.66592">
        <ele>243.60000610352</ele>
        <time>2019-05-30T09:48:31.000Z</time>
      </trkpt>
      <trkpt lat="43.57196" lon="6.666">
        <ele>243.39999389648</ele>
        <time>2019-05-30T09:48:32.000Z</time>
      </trkpt>
      <trkpt lat="43.57189" lon="6.6661">
        <ele>242.60000610352</ele>
        <time>2019-05-30T09:48:34.000Z</time>
      </trkpt>
      <trkpt lat="43.57185" lon="6.66615">
        <ele>242.39999389648</ele>
        <time>2019-05-30T09:48:35.000Z</time>
      </trkpt>
      <trkpt lat="43.57181" lon="6.66618">
        <ele>242.39999389648</ele>
        <time>2019-05-30T09:48:36.000Z</time>
      </trkpt>
      <trkpt lat="43.5717" lon="6.66627">
        <ele>241.60000610352</ele>
        <time>2019-05-30T09:48:38.000Z</time>
      </trkpt>
      <trkpt lat="43.57164" lon="6.66634">
        <ele>240.19999694824</ele>
        <time>2019-05-30T09:48:39.000Z</time>
      </trkpt>
      <trkpt lat="43.57159" lon="6.66642">
        <ele>238.39999389648</ele>
        <time>2019-05-30T09:48:40.000Z</time>
      </trkpt>
      <trkpt lat="43.57154" lon="6.6665">
        <ele>236.80000305176</ele>
        <time>2019-05-30T09:48:41.000Z</time>
      </trkpt>
      <trkpt lat="43.5715" lon="6.66657">
        <ele>235.39999389648</ele>
        <time>2019-05-30T09:48:42.000Z</time>
      </trkpt>
      <trkpt lat="43.57145" lon="6.66664">
        <ele>233</ele>
        <time>2019-05-30T09:48:43.000Z</time>
      </trkpt>
      <trkpt lat="43.57141" lon="6.66667">
        <ele>231.80000305176</ele>
        <time>2019-05-30T09:48:44.000Z</time>
      </trkpt>
      <trkpt lat="43.57136" lon="6.66667">
        <ele>231.39999389648</ele>
        <time>2019-05-30T09:48:45.000Z</time>
      </trkpt>
      <trkpt lat="43.57131" lon="6.66667">
        <ele>230.19999694824</ele>
        <time>2019-05-30T09:48:46.000Z</time>
      </trkpt>
      <trkpt lat="43.57118" lon="6.66671">
        <ele>229.19999694824</ele>
        <time>2019-05-30T09:48:48.000Z</time>
      </trkpt>
      <trkpt lat="43.57111" lon="6.66674">
        <ele>228.19999694824</ele>
        <time>2019-05-30T09:48:49.000Z</time>
      </trkpt>
      <trkpt lat="43.57105" lon="6.6668">
        <ele>226.80000305176</ele>
        <time>2019-05-30T09:48:50.000Z</time>
      </trkpt>
      <trkpt lat="43.57099" lon="6.66683">
        <ele>225.39999389648</ele>
        <time>2019-05-30T09:48:51.000Z</time>
      </trkpt>
      <trkpt lat="43.57093" lon="6.66683">
        <ele>223.60000610352</ele>
        <time>2019-05-30T09:48:52.000Z</time>
      </trkpt>
      <trkpt lat="43.57088" lon="6.66679">
        <ele>222.39999389648</ele>
        <time>2019-05-30T09:48:53.000Z</time>
      </trkpt>
      <trkpt lat="43.57082" lon="6.66667">
        <ele>220.80000305176</ele>
        <time>2019-05-30T09:48:55.000Z</time>
      </trkpt>
      <trkpt lat="43.5708" lon="6.6666">
        <ele>220.80000305176</ele>
        <time>2019-05-30T09:48:56.000Z</time>
      </trkpt>
      <trkpt lat="43.57077" lon="6.66653">
        <ele>221.19999694824</ele>
        <time>2019-05-30T09:48:57.000Z</time>
      </trkpt>
      <trkpt lat="43.57067" lon="6.66645">
        <ele>221.19999694824</ele>
        <time>2019-05-30T09:48:59.000Z</time>
      </trkpt>
      <trkpt lat="43.57047" lon="6.66628">
        <ele>220.60000610352</ele>
        <time>2019-05-30T09:49:03.000Z</time>
      </trkpt>
      <trkpt lat="43.57043" lon="6.66624">
        <ele>220.39999389648</ele>
        <time>2019-05-30T09:49:04.000Z</time>
      </trkpt>
      <trkpt lat="43.57025" lon="6.66601">
        <ele>220</ele>
        <time>2019-05-30T09:49:08.000Z</time>
      </trkpt>
      <trkpt lat="43.57022" lon="6.66594">
        <ele>219.60000610352</ele>
        <time>2019-05-30T09:49:09.000Z</time>
      </trkpt>
      <trkpt lat="43.57016" lon="6.66585">
        <ele>219.39999389648</ele>
        <time>2019-05-30T09:49:11.000Z</time>
      </trkpt>
      <trkpt lat="43.57011" lon="6.66567">
        <ele>219</ele>
        <time>2019-05-30T09:49:14.000Z</time>
      </trkpt>
      <trkpt lat="43.5701" lon="6.66559">
        <ele>219</ele>
        <time>2019-05-30T09:49:15.000Z</time>
      </trkpt>
      <trkpt lat="43.57008" lon="6.66552">
        <ele>218.80000305176</ele>
        <time>2019-05-30T09:49:16.000Z</time>
      </trkpt>
      <trkpt lat="43.57005" lon="6.66541">
        <ele>218.60000610352</ele>
        <time>2019-05-30T09:49:18.000Z</time>
      </trkpt>
      <trkpt lat="43.57002" lon="6.66523">
        <ele>217.80000305176</ele>
        <time>2019-05-30T09:49:22.000Z</time>
      </trkpt>
      <trkpt lat="43.57003" lon="6.66518">
        <ele>217.80000305176</ele>
        <time>2019-05-30T09:49:23.000Z</time>
      </trkpt>
      <trkpt lat="43.57001" lon="6.66506">
        <ele>218</ele>
        <time>2019-05-30T09:49:25.000Z</time>
      </trkpt>
      <trkpt lat="43.57" lon="6.66499">
        <ele>217.80000305176</ele>
        <time>2019-05-30T09:49:26.000Z</time>
      </trkpt>
      <trkpt lat="43.57" lon="6.66492">
        <ele>217.60000610352</ele>
        <time>2019-05-30T09:49:27.000Z</time>
      </trkpt>
      <trkpt lat="43.57" lon="6.66475">
        <ele>217.19999694824</ele>
        <time>2019-05-30T09:49:29.000Z</time>
      </trkpt>
      <trkpt lat="43.56998" lon="6.6646">
        <ele>216.39999389648</ele>
        <time>2019-05-30T09:49:31.000Z</time>
      </trkpt>
      <trkpt lat="43.56997" lon="6.66442">
        <ele>216</ele>
        <time>2019-05-30T09:49:33.000Z</time>
      </trkpt>
      <trkpt lat="43.56995" lon="6.66423">
        <ele>215.80000305176</ele>
        <time>2019-05-30T09:49:36.000Z</time>
      </trkpt>
      <trkpt lat="43.56992" lon="6.66409">
        <ele>215.80000305176</ele>
        <time>2019-05-30T09:49:38.000Z</time>
      </trkpt>
      <trkpt lat="43.56988" lon="6.66388">
        <ele>215.80000305176</ele>
        <time>2019-05-30T09:49:41.000Z</time>
      </trkpt>
      <trkpt lat="43.5698" lon="6.6636">
        <ele>215.80000305176</ele>
        <time>2019-05-30T09:49:45.000Z</time>
      </trkpt>
      <trkpt lat="43.56978" lon="6.66354">
        <ele>216</ele>
        <time>2019-05-30T09:49:46.000Z</time>
      </trkpt>
      <trkpt lat="43.56976" lon="6.66335">
        <ele>215.80000305176</ele>
        <time>2019-05-30T09:49:50.000Z</time>
      </trkpt>
      <trkpt lat="43.56977" lon="6.66327">
        <ele>217</ele>
        <time>2019-05-30T09:49:55.000Z</time>
      </trkpt>
      <trkpt lat="43.56978" lon="6.66311">
        <ele>217.39999389648</ele>
        <time>2019-05-30T09:50:00.000Z</time>
      </trkpt>
      <trkpt lat="43.56978" lon="6.66307">
        <ele>217.60000610352</ele>
        <time>2019-05-30T09:50:01.000Z</time>
      </trkpt>
      <trkpt lat="43.56977" lon="6.66287">
        <ele>217.80000305176</ele>
        <time>2019-05-30T09:50:05.000Z</time>
      </trkpt>
      <trkpt lat="43.56978" lon="6.66281">
        <ele>217.80000305176</ele>
        <time>2019-05-30T09:50:06.000Z</time>
      </trkpt>
      <trkpt lat="43.56981" lon="6.66269">
        <ele>217.80000305176</ele>
        <time>2019-05-30T09:50:08.000Z</time>
      </trkpt>
      <trkpt lat="43.56984" lon="6.66264">
        <ele>217.80000305176</ele>
        <time>2019-05-30T09:50:09.000Z</time>
      </trkpt>
      <trkpt lat="43.56988" lon="6.66254">
        <ele>217.60000610352</ele>
        <time>2019-05-30T09:50:11.000Z</time>
      </trkpt>
      <trkpt lat="43.56989" lon="6.66242">
        <ele>216.39999389648</ele>
        <time>2019-05-30T09:50:14.000Z</time>
      </trkpt>
      <trkpt lat="43.56991" lon="6.66238">
        <ele>215.19999694824</ele>
        <time>2019-05-30T09:50:16.000Z</time>
      </trkpt>
      <trkpt lat="43.56992" lon="6.66234">
        <ele>214.60000610352</ele>
        <time>2019-05-30T09:50:18.000Z</time>
      </trkpt>
      <trkpt lat="43.56994" lon="6.66228">
        <ele>215.19999694824</ele>
        <time>2019-05-30T09:50:23.000Z</time>
      </trkpt>
      <trkpt lat="43.56996" lon="6.66225">
        <ele>216</ele>
        <time>2019-05-30T09:50:26.000Z</time>
      </trkpt>
      <trkpt lat="43.56997" lon="6.66224">
        <ele>216.39999389648</ele>
        <time>2019-05-30T09:50:27.000Z</time>
      </trkpt>
      <trkpt lat="43.56999" lon="6.66219">
        <ele>216.60000610352</ele>
        <time>2019-05-30T09:50:29.000Z</time>
      </trkpt>
      <trkpt lat="43.57001" lon="6.66207">
        <ele>216.60000610352</ele>
        <time>2019-05-30T09:50:33.000Z</time>
      </trkpt>
      <trkpt lat="43.57" lon="6.66192">
        <ele>217.39999389648</ele>
        <time>2019-05-30T09:50:37.000Z</time>
      </trkpt>
      <trkpt lat="43.56998" lon="6.66184">
        <ele>217.80000305176</ele>
        <time>2019-05-30T09:50:39.000Z</time>
      </trkpt>
      <trkpt lat="43.56991" lon="6.66168">
        <ele>218.80000305176</ele>
        <time>2019-05-30T09:50:44.000Z</time>
      </trkpt>
      <trkpt lat="43.5699" lon="6.66165">
        <ele>219.19999694824</ele>
        <time>2019-05-30T09:50:45.000Z</time>
      </trkpt>
      <trkpt lat="43.56987" lon="6.66155">
        <ele>220</ele>
        <time>2019-05-30T09:50:48.000Z</time>
      </trkpt>
      <trkpt lat="43.56985" lon="6.6615">
        <ele>220.60000610352</ele>
        <time>2019-05-30T09:50:50.000Z</time>
      </trkpt>
      <trkpt lat="43.56985" lon="6.66148">
        <ele>221</ele>
        <time>2019-05-30T09:50:51.000Z</time>
      </trkpt>
      <trkpt lat="43.56985" lon="6.66138">
        <ele>222.19999694824</ele>
        <time>2019-05-30T09:50:55.000Z</time>
      </trkpt>
      <trkpt lat="43.5698" lon="6.66121">
        <ele>222.80000305176</ele>
        <time>2019-05-30T09:51:01.000Z</time>
      </trkpt>
      <trkpt lat="43.56976" lon="6.66116">
        <ele>223.19999694824</ele>
        <time>2019-05-30T09:51:04.000Z</time>
      </trkpt>
      <trkpt lat="43.56972" lon="6.6611">
        <ele>223.80000305176</ele>
        <time>2019-05-30T09:51:08.000Z</time>
      </trkpt>
      <trkpt lat="43.56962" lon="6.66102">
        <ele>224.19999694824</ele>
        <time>2019-05-30T09:51:14.000Z</time>
      </trkpt>
      <trkpt lat="43.5696" lon="6.66101">
        <ele>224.19999694824</ele>
        <time>2019-05-30T09:51:15.000Z</time>
      </trkpt>
      <trkpt lat="43.56947" lon="6.66095">
        <ele>225.19999694824</ele>
        <time>2019-05-30T09:51:22.000Z</time>
      </trkpt>
      <trkpt lat="43.56945" lon="6.66094">
        <ele>225.39999389648</ele>
        <time>2019-05-30T09:51:23.000Z</time>
      </trkpt>
      <trkpt lat="43.56942" lon="6.6609">
        <ele>225.60000610352</ele>
        <time>2019-05-30T09:51:25.000Z</time>
      </trkpt>
      <trkpt lat="43.56941" lon="6.66088">
        <ele>225.80000305176</ele>
        <time>2019-05-30T09:51:26.000Z</time>
      </trkpt>
      <trkpt lat="43.56936" lon="6.66086">
        <ele>226.39999389648</ele>
        <time>2019-05-30T09:51:29.000Z</time>
      </trkpt>
      <trkpt lat="43.56932" lon="6.66086">
        <ele>226.39999389648</ele>
        <time>2019-05-30T09:51:31.000Z</time>
      </trkpt>
      <trkpt lat="43.56917" lon="6.6608">
        <ele>227.39999389648</ele>
        <time>2019-05-30T09:51:38.000Z</time>
      </trkpt>
      <trkpt lat="43.56915" lon="6.6608">
        <ele>227.80000305176</ele>
        <time>2019-05-30T09:51:39.000Z</time>
      </trkpt>
      <trkpt lat="43.56911" lon="6.66079">
        <ele>228.60000610352</ele>
        <time>2019-05-30T09:51:41.000Z</time>
      </trkpt>
      <trkpt lat="43.56903" lon="6.66077">
        <ele>229.60000610352</ele>
        <time>2019-05-30T09:51:45.000Z</time>
      </trkpt>
      <trkpt lat="43.56892" lon="6.66073">
        <ele>230.39999389648</ele>
        <time>2019-05-30T09:51:50.000Z</time>
      </trkpt>
      <trkpt lat="43.56889" lon="6.66063">
        <ele>230.60000610352</ele>
        <time>2019-05-30T09:51:53.000Z</time>
      </trkpt>
      <trkpt lat="43.56889" lon="6.66059">
        <ele>230.80000305176</ele>
        <time>2019-05-30T09:51:54.000Z</time>
      </trkpt>
      <trkpt lat="43.56886" lon="6.66042">
        <ele>230.39999389648</ele>
        <time>2019-05-30T09:51:59.000Z</time>
      </trkpt>
      <trkpt lat="43.56887" lon="6.66032">
        <ele>231.39999389648</ele>
        <time>2019-05-30T09:52:03.000Z</time>
      </trkpt>
      <trkpt lat="43.56886" lon="6.66029">
        <ele>231.60000610352</ele>
        <time>2019-05-30T09:52:04.000Z</time>
      </trkpt>
      <trkpt lat="43.56885" lon="6.66026">
        <ele>231.80000305176</ele>
        <time>2019-05-30T09:52:05.000Z</time>
      </trkpt>
      <trkpt lat="43.5688" lon="6.66019">
        <ele>231.80000305176</ele>
        <time>2019-05-30T09:52:09.000Z</time>
      </trkpt>
      <trkpt lat="43.56876" lon="6.66021">
        <ele>231.39999389648</ele>
        <time>2019-05-30T09:52:13.000Z</time>
      </trkpt>
      <trkpt lat="43.56875" lon="6.66021">
        <ele>231.39999389648</ele>
        <time>2019-05-30T09:52:14.000Z</time>
      </trkpt>
      <trkpt lat="43.56868" lon="6.66025">
        <ele>232</ele>
        <time>2019-05-30T09:52:18.000Z</time>
      </trkpt>
      <trkpt lat="43.56859" lon="6.66026">
        <ele>232.39999389648</ele>
        <time>2019-05-30T09:52:23.000Z</time>
      </trkpt>
      <trkpt lat="43.56853" lon="6.66024">
        <ele>232.80000305176</ele>
        <time>2019-05-30T09:52:26.000Z</time>
      </trkpt>
      <trkpt lat="43.56843" lon="6.66019">
        <ele>233.19999694824</ele>
        <time>2019-05-30T09:52:30.000Z</time>
      </trkpt>
      <trkpt lat="43.56833" lon="6.66011">
        <ele>233.80000305176</ele>
        <time>2019-05-30T09:52:35.000Z</time>
      </trkpt>
      <trkpt lat="43.56824" lon="6.65994">
        <ele>233.19999694824</ele>
        <time>2019-05-30T09:52:40.000Z</time>
      </trkpt>
      <trkpt lat="43.56823" lon="6.65992">
        <ele>232.80000305176</ele>
        <time>2019-05-30T09:52:41.000Z</time>
      </trkpt>
      <trkpt lat="43.56816" lon="6.65987">
        <ele>231.60000610352</ele>
        <time>2019-05-30T09:52:44.000Z</time>
      </trkpt>
      <trkpt lat="43.56811" lon="6.65983">
        <ele>230.39999389648</ele>
        <time>2019-05-30T09:52:47.000Z</time>
      </trkpt>
      <trkpt lat="43.56808" lon="6.65981">
        <ele>230.19999694824</ele>
        <time>2019-05-30T09:52:48.000Z</time>
      </trkpt>
      <trkpt lat="43.56792" lon="6.65965">
        <ele>230.60000610352</ele>
        <time>2019-05-30T09:52:55.000Z</time>
      </trkpt>
      <trkpt lat="43.56779" lon="6.65947">
        <ele>229</ele>
        <time>2019-05-30T09:53:00.000Z</time>
      </trkpt>
      <trkpt lat="43.56777" lon="6.65939">
        <ele>227.60000610352</ele>
        <time>2019-05-30T09:53:02.000Z</time>
      </trkpt>
      <trkpt lat="43.56775" lon="6.65932">
        <ele>226.39999389648</ele>
        <time>2019-05-30T09:53:04.000Z</time>
      </trkpt>
      <trkpt lat="43.56774" lon="6.65929">
        <ele>225.60000610352</ele>
        <time>2019-05-30T09:53:05.000Z</time>
      </trkpt>
      <trkpt lat="43.56773" lon="6.65925">
        <ele>225.19999694824</ele>
        <time>2019-05-30T09:53:06.000Z</time>
      </trkpt>
      <trkpt lat="43.56769" lon="6.6591">
        <ele>225</ele>
        <time>2019-05-30T09:53:09.000Z</time>
      </trkpt>
      <trkpt lat="43.56759" lon="6.65892">
        <ele>223.80000305176</ele>
        <time>2019-05-30T09:53:13.000Z</time>
      </trkpt>
      <trkpt lat="43.56756" lon="6.65888">
        <ele>223.19999694824</ele>
        <time>2019-05-30T09:53:14.000Z</time>
      </trkpt>
      <trkpt lat="43.56754" lon="6.65885">
        <ele>222.39999389648</ele>
        <time>2019-05-30T09:53:15.000Z</time>
      </trkpt>
      <trkpt lat="43.56747" lon="6.65878">
        <ele>221.60000610352</ele>
        <time>2019-05-30T09:53:17.000Z</time>
      </trkpt>
      <trkpt lat="43.5674" lon="6.6587">
        <ele>221.60000610352</ele>
        <time>2019-05-30T09:53:19.000Z</time>
      </trkpt>
      <trkpt lat="43.56737" lon="6.65866">
        <ele>221.39999389648</ele>
        <time>2019-05-30T09:53:20.000Z</time>
      </trkpt>
      <trkpt lat="43.56726" lon="6.65852">
        <ele>221</ele>
        <time>2019-05-30T09:53:23.000Z</time>
      </trkpt>
      <trkpt lat="43.56722" lon="6.65847">
        <ele>220.39999389648</ele>
        <time>2019-05-30T09:53:24.000Z</time>
      </trkpt>
      <trkpt lat="43.56718" lon="6.65842">
        <ele>219.80000305176</ele>
        <time>2019-05-30T09:53:25.000Z</time>
      </trkpt>
      <trkpt lat="43.56714" lon="6.6583">
        <ele>218.60000610352</ele>
        <time>2019-05-30T09:53:27.000Z</time>
      </trkpt>
      <trkpt lat="43.56712" lon="6.65826">
        <ele>218.39999389648</ele>
        <time>2019-05-30T09:53:28.000Z</time>
      </trkpt>
      <trkpt lat="43.56706" lon="6.65816">
        <ele>218.19999694824</ele>
        <time>2019-05-30T09:53:30.000Z</time>
      </trkpt>
      <trkpt lat="43.56703" lon="6.65811">
        <ele>218</ele>
        <time>2019-05-30T09:53:31.000Z</time>
      </trkpt>
      <trkpt lat="43.56697" lon="6.65799">
        <ele>218.19999694824</ele>
        <time>2019-05-30T09:53:33.000Z</time>
      </trkpt>
      <trkpt lat="43.56691" lon="6.6579">
        <ele>217.39999389648</ele>
        <time>2019-05-30T09:53:35.000Z</time>
      </trkpt>
      <trkpt lat="43.56682" lon="6.65784">
        <ele>216.39999389648</ele>
        <time>2019-05-30T09:53:38.000Z</time>
      </trkpt>
      <trkpt lat="43.56672" lon="6.65769">
        <ele>216.80000305176</ele>
        <time>2019-05-30T09:53:43.000Z</time>
      </trkpt>
      <trkpt lat="43.56665" lon="6.65756">
        <ele>217</ele>
        <time>2019-05-30T09:53:47.000Z</time>
      </trkpt>
      <trkpt lat="43.56663" lon="6.65751">
        <ele>217</ele>
        <time>2019-05-30T09:53:49.000Z</time>
      </trkpt>
      <trkpt lat="43.56661" lon="6.65747">
        <ele>217.60000610352</ele>
        <time>2019-05-30T09:53:51.000Z</time>
      </trkpt>
      <trkpt lat="43.56657" lon="6.65738">
        <ele>218.39999389648</ele>
        <time>2019-05-30T09:53:54.000Z</time>
      </trkpt>
      <trkpt lat="43.56654" lon="6.65728">
        <ele>218.39999389648</ele>
        <time>2019-05-30T09:53:56.000Z</time>
      </trkpt>
      <trkpt lat="43.56653" lon="6.65723">
        <ele>218.60000610352</ele>
        <time>2019-05-30T09:53:57.000Z</time>
      </trkpt>
      <trkpt lat="43.56652" lon="6.65713">
        <ele>218.39999389648</ele>
        <time>2019-05-30T09:53:59.000Z</time>
      </trkpt>
      <trkpt lat="43.56646" lon="6.65702">
        <ele>217.19999694824</ele>
        <time>2019-05-30T09:54:03.000Z</time>
      </trkpt>
      <trkpt lat="43.56638" lon="6.65703">
        <ele>216.39999389648</ele>
        <time>2019-05-30T09:54:05.000Z</time>
      </trkpt>
      <trkpt lat="43.56634" lon="6.65705">
        <ele>216</ele>
        <time>2019-05-30T09:54:06.000Z</time>
      </trkpt>
      <trkpt lat="43.56624" lon="6.65712">
        <ele>215</ele>
        <time>2019-05-30T09:54:08.000Z</time>
      </trkpt>
      <trkpt lat="43.56619" lon="6.65715">
        <ele>214.60000610352</ele>
        <time>2019-05-30T09:54:09.000Z</time>
      </trkpt>
      <trkpt lat="43.56609" lon="6.65716">
        <ele>213.80000305176</ele>
        <time>2019-05-30T09:54:11.000Z</time>
      </trkpt>
      <trkpt lat="43.56593" lon="6.65718">
        <ele>212.80000305176</ele>
        <time>2019-05-30T09:54:14.000Z</time>
      </trkpt>
      <trkpt lat="43.56586" lon="6.65721">
        <ele>211.80000305176</ele>
        <time>2019-05-30T09:54:16.000Z</time>
      </trkpt>
      <trkpt lat="43.56582" lon="6.65721">
        <ele>211</ele>
        <time>2019-05-30T09:54:17.000Z</time>
      </trkpt>
      <trkpt lat="43.56578" lon="6.65721">
        <ele>210</ele>
        <time>2019-05-30T09:54:18.000Z</time>
      </trkpt>
      <trkpt lat="43.5657" lon="6.65718">
        <ele>209.60000610352</ele>
        <time>2019-05-30T09:54:20.000Z</time>
      </trkpt>
      <trkpt lat="43.56555" lon="6.65713">
        <ele>209</ele>
        <time>2019-05-30T09:54:23.000Z</time>
      </trkpt>
      <trkpt lat="43.56544" lon="6.6571">
        <ele>208.60000610352</ele>
        <time>2019-05-30T09:54:25.000Z</time>
      </trkpt>
      <trkpt lat="43.5654" lon="6.65708">
        <ele>208.39999389648</ele>
        <time>2019-05-30T09:54:26.000Z</time>
      </trkpt>
      <trkpt lat="43.56523" lon="6.65696">
        <ele>209.19999694824</ele>
        <time>2019-05-30T09:54:30.000Z</time>
      </trkpt>
      <trkpt lat="43.56519" lon="6.65693">
        <ele>209.39999389648</ele>
        <time>2019-05-30T09:54:31.000Z</time>
      </trkpt>
      <trkpt lat="43.56503" lon="6.65678">
        <ele>209.60000610352</ele>
        <time>2019-05-30T09:54:35.000Z</time>
      </trkpt>
      <trkpt lat="43.56468" lon="6.65649">
        <ele>209</ele>
        <time>2019-05-30T09:54:43.000Z</time>
      </trkpt>
      <trkpt lat="43.5646" lon="6.6564">
        <ele>208.80000305176</ele>
        <time>2019-05-30T09:54:45.000Z</time>
      </trkpt>
      <trkpt lat="43.56446" lon="6.65628">
        <ele>208.60000610352</ele>
        <time>2019-05-30T09:54:48.000Z</time>
      </trkpt>
      <trkpt lat="43.56416" lon="6.65611">
        <ele>208.19999694824</ele>
        <time>2019-05-30T09:54:53.000Z</time>
      </trkpt>
      <trkpt lat="43.5641" lon="6.65609">
        <ele>207.60000610352</ele>
        <time>2019-05-30T09:54:54.000Z</time>
      </trkpt>
      <trkpt lat="43.564" lon="6.65607">
        <ele>206.60000610352</ele>
        <time>2019-05-30T09:54:56.000Z</time>
      </trkpt>
      <trkpt lat="43.56395" lon="6.65607">
        <ele>206.60000610352</ele>
        <time>2019-05-30T09:54:57.000Z</time>
      </trkpt>
      <trkpt lat="43.56379" lon="6.65603">
        <ele>208</ele>
        <time>2019-05-30T09:55:01.000Z</time>
      </trkpt>
      <trkpt lat="43.56376" lon="6.65601">
        <ele>208.39999389648</ele>
        <time>2019-05-30T09:55:02.000Z</time>
      </trkpt>
      <trkpt lat="43.56358" lon="6.65596">
        <ele>209</ele>
        <time>2019-05-30T09:55:07.000Z</time>
      </trkpt>
      <trkpt lat="43.56344" lon="6.65593">
        <ele>209.39999389648</ele>
        <time>2019-05-30T09:55:11.000Z</time>
      </trkpt>
      <trkpt lat="43.56325" lon="6.65591">
        <ele>210</ele>
        <time>2019-05-30T09:55:15.000Z</time>
      </trkpt>
      <trkpt lat="43.56315" lon="6.6559">
        <ele>209.60000610352</ele>
        <time>2019-05-30T09:55:17.000Z</time>
      </trkpt>
      <trkpt lat="43.56275" lon="6.65589">
        <ele>209.19999694824</ele>
        <time>2019-05-30T09:55:24.000Z</time>
      </trkpt>
      <trkpt lat="43.56258" lon="6.6559">
        <ele>209</ele>
        <time>2019-05-30T09:55:27.000Z</time>
      </trkpt>
      <trkpt lat="43.56247" lon="6.65588">
        <ele>208.80000305176</ele>
        <time>2019-05-30T09:55:29.000Z</time>
      </trkpt>
      <trkpt lat="43.56224" lon="6.65588">
        <ele>209</ele>
        <time>2019-05-30T09:55:34.000Z</time>
      </trkpt>
      <trkpt lat="43.56215" lon="6.65586">
        <ele>210.19999694824</ele>
        <time>2019-05-30T09:55:37.000Z</time>
      </trkpt>
      <trkpt lat="43.5621" lon="6.65585">
        <ele>211</ele>
        <time>2019-05-30T09:55:39.000Z</time>
      </trkpt>
      <trkpt lat="43.56208" lon="6.65585">
        <ele>211.19999694824</ele>
        <time>2019-05-30T09:55:40.000Z</time>
      </trkpt>
      <trkpt lat="43.56194" lon="6.65585">
        <ele>212.39999389648</ele>
        <time>2019-05-30T09:55:46.000Z</time>
      </trkpt>
      <trkpt lat="43.56183" lon="6.65587">
        <ele>213.60000610352</ele>
        <time>2019-05-30T09:55:51.000Z</time>
      </trkpt>
      <trkpt lat="43.56181" lon="6.65587">
        <ele>213.80000305176</ele>
        <time>2019-05-30T09:55:52.000Z</time>
      </trkpt>
      <trkpt lat="43.56171" lon="6.6559">
        <ele>214.80000305176</ele>
        <time>2019-05-30T09:55:56.000Z</time>
      </trkpt>
      <trkpt lat="43.56165" lon="6.65591">
        <ele>215.19999694824</ele>
        <time>2019-05-30T09:55:59.000Z</time>
      </trkpt>
      <trkpt lat="43.56157" lon="6.65595">
        <ele>216</ele>
        <time>2019-05-30T09:56:03.000Z</time>
      </trkpt>
      <trkpt lat="43.56151" lon="6.65597">
        <ele>217</ele>
        <time>2019-05-30T09:56:06.000Z</time>
      </trkpt>
      <trkpt lat="43.56149" lon="6.65597">
        <ele>217.39999389648</ele>
        <time>2019-05-30T09:56:07.000Z</time>
      </trkpt>
      <trkpt lat="43.56146" lon="6.65595">
        <ele>217.80000305176</ele>
        <time>2019-05-30T09:56:09.000Z</time>
      </trkpt>
      <trkpt lat="43.56146" lon="6.65591">
        <ele>218.39999389648</ele>
        <time>2019-05-30T09:56:11.000Z</time>
      </trkpt>
      <trkpt lat="43.56147" lon="6.65587">
        <ele>218.60000610352</ele>
        <time>2019-05-30T09:56:13.000Z</time>
      </trkpt>
      <trkpt lat="43.5615" lon="6.65583">
        <ele>219.60000610352</ele>
        <time>2019-05-30T09:56:16.000Z</time>
      </trkpt>
      <trkpt lat="43.56151" lon="6.65582">
        <ele>219.80000305176</ele>
        <time>2019-05-30T09:56:17.000Z</time>
      </trkpt>
      <trkpt lat="43.56163" lon="6.65576">
        <ele>220.60000610352</ele>
        <time>2019-05-30T09:56:24.000Z</time>
      </trkpt>
      <trkpt lat="43.56164" lon="6.65575">
        <ele>220.80000305176</ele>
        <time>2019-05-30T09:56:25.000Z</time>
      </trkpt>
      <trkpt lat="43.56175" lon="6.65569">
        <ele>221.60000610352</ele>
        <time>2019-05-30T09:56:31.000Z</time>
      </trkpt>
      <trkpt lat="43.56187" lon="6.65561">
        <ele>222.60000610352</ele>
        <time>2019-05-30T09:56:37.000Z</time>
      </trkpt>
      <trkpt lat="43.56193" lon="6.65559">
        <ele>222.80000305176</ele>
        <time>2019-05-30T09:56:40.000Z</time>
      </trkpt>
      <trkpt lat="43.56197" lon="6.65557">
        <ele>223</ele>
        <time>2019-05-30T09:56:42.000Z</time>
      </trkpt>
      <trkpt lat="43.56205" lon="6.6555">
        <ele>224</ele>
        <time>2019-05-30T09:56:46.000Z</time>
      </trkpt>
      <trkpt lat="43.56211" lon="6.65545">
        <ele>224.39999389648</ele>
        <time>2019-05-30T09:56:49.000Z</time>
      </trkpt>
      <trkpt lat="43.56214" lon="6.65539">
        <ele>225</ele>
        <time>2019-05-30T09:56:51.000Z</time>
      </trkpt>
      <trkpt lat="43.56223" lon="6.65526">
        <ele>225.60000610352</ele>
        <time>2019-05-30T09:56:56.000Z</time>
      </trkpt>
      <trkpt lat="43.56226" lon="6.6552">
        <ele>226</ele>
        <time>2019-05-30T09:56:58.000Z</time>
      </trkpt>
      <trkpt lat="43.56229" lon="6.65503">
        <ele>226.80000305176</ele>
        <time>2019-05-30T09:57:03.000Z</time>
      </trkpt>
      <trkpt lat="43.56228" lon="6.65496">
        <ele>227.19999694824</ele>
        <time>2019-05-30T09:57:05.000Z</time>
      </trkpt>
      <trkpt lat="43.56226" lon="6.65487">
        <ele>227.60000610352</ele>
        <time>2019-05-30T09:57:08.000Z</time>
      </trkpt>
      <trkpt lat="43.5622" lon="6.65476">
        <ele>228.19999694824</ele>
        <time>2019-05-30T09:57:12.000Z</time>
      </trkpt>
      <trkpt lat="43.56217" lon="6.65471">
        <ele>228.60000610352</ele>
        <time>2019-05-30T09:57:14.000Z</time>
      </trkpt>
      <trkpt lat="43.56211" lon="6.6546">
        <ele>229.39999389648</ele>
        <time>2019-05-30T09:57:18.000Z</time>
      </trkpt>
      <trkpt lat="43.56206" lon="6.65449">
        <ele>229.80000305176</ele>
        <time>2019-05-30T09:57:22.000Z</time>
      </trkpt>
      <trkpt lat="43.56201" lon="6.65437">
        <ele>230.60000610352</ele>
        <time>2019-05-30T09:57:26.000Z</time>
      </trkpt>
      <trkpt lat="43.56196" lon="6.65425">
        <ele>231.60000610352</ele>
        <time>2019-05-30T09:57:30.000Z</time>
      </trkpt>
      <trkpt lat="43.56182" lon="6.654">
        <ele>232.80000305176</ele>
        <time>2019-05-30T09:57:39.000Z</time>
      </trkpt>
      <trkpt lat="43.56174" lon="6.6539">
        <ele>233.80000305176</ele>
        <time>2019-05-30T09:57:44.000Z</time>
      </trkpt>
      <trkpt lat="43.5617" lon="6.65386">
        <ele>234.19999694824</ele>
        <time>2019-05-30T09:57:46.000Z</time>
      </trkpt>
      <trkpt lat="43.56158" lon="6.6538">
        <ele>235</ele>
        <time>2019-05-30T09:57:52.000Z</time>
      </trkpt>
      <trkpt lat="43.56156" lon="6.6538">
        <ele>235.19999694824</ele>
        <time>2019-05-30T09:57:53.000Z</time>
      </trkpt>
      <trkpt lat="43.56145" lon="6.65382">
        <ele>236.19999694824</ele>
        <time>2019-05-30T09:57:58.000Z</time>
      </trkpt>
      <trkpt lat="43.5614" lon="6.65384">
        <ele>236.39999389648</ele>
        <time>2019-05-30T09:58:00.000Z</time>
      </trkpt>
      <trkpt lat="43.56127" lon="6.65393">
        <ele>237.19999694824</ele>
        <time>2019-05-30T09:58:07.000Z</time>
      </trkpt>
      <trkpt lat="43.56123" lon="6.65396">
        <ele>237.39999389648</ele>
        <time>2019-05-30T09:58:09.000Z</time>
      </trkpt>
      <trkpt lat="43.56112" lon="6.65402">
        <ele>238.39999389648</ele>
        <time>2019-05-30T09:58:14.000Z</time>
      </trkpt>
      <trkpt lat="43.5611" lon="6.65404">
        <ele>238.60000610352</ele>
        <time>2019-05-30T09:58:15.000Z</time>
      </trkpt>
      <trkpt lat="43.56101" lon="6.65408">
        <ele>239.39999389648</ele>
        <time>2019-05-30T09:58:19.000Z</time>
      </trkpt>
      <trkpt lat="43.56094" lon="6.65412">
        <ele>239.80000305176</ele>
        <time>2019-05-30T09:58:22.000Z</time>
      </trkpt>
      <trkpt lat="43.56083" lon="6.65421">
        <ele>240.60000610352</ele>
        <time>2019-05-30T09:58:27.000Z</time>
      </trkpt>
      <trkpt lat="43.56077" lon="6.65426">
        <ele>241</ele>
        <time>2019-05-30T09:58:30.000Z</time>
      </trkpt>
      <trkpt lat="43.56069" lon="6.65431">
        <ele>241.60000610352</ele>
        <time>2019-05-30T09:58:34.000Z</time>
      </trkpt>
      <trkpt lat="43.56065" lon="6.65438">
        <ele>242</ele>
        <time>2019-05-30T09:58:37.000Z</time>
      </trkpt>
      <trkpt lat="43.56056" lon="6.65449">
        <ele>242.60000610352</ele>
        <time>2019-05-30T09:58:42.000Z</time>
      </trkpt>
      <trkpt lat="43.56054" lon="6.65451">
        <ele>242.80000305176</ele>
        <time>2019-05-30T09:58:43.000Z</time>
      </trkpt>
      <trkpt lat="43.56046" lon="6.65455">
        <ele>243.80000305176</ele>
        <time>2019-05-30T09:58:47.000Z</time>
      </trkpt>
      <trkpt lat="43.56041" lon="6.65456">
        <ele>244</ele>
        <time>2019-05-30T09:58:49.000Z</time>
      </trkpt>
      <trkpt lat="43.56028" lon="6.65451">
        <ele>244.80000305176</ele>
        <time>2019-05-30T09:58:55.000Z</time>
      </trkpt>
      <trkpt lat="43.56026" lon="6.6545">
        <ele>245.19999694824</ele>
        <time>2019-05-30T09:58:56.000Z</time>
      </trkpt>
      <trkpt lat="43.5601" lon="6.6545">
        <ele>245.80000305176</ele>
        <time>2019-05-30T09:59:02.000Z</time>
      </trkpt>
      <trkpt lat="43.56005" lon="6.6545">
        <ele>246.19999694824</ele>
        <time>2019-05-30T09:59:04.000Z</time>
      </trkpt>
      <trkpt lat="43.55995" lon="6.6545">
        <ele>247</ele>
        <time>2019-05-30T09:59:08.000Z</time>
      </trkpt>
      <trkpt lat="43.55988" lon="6.65448">
        <ele>247.39999389648</ele>
        <time>2019-05-30T09:59:11.000Z</time>
      </trkpt>
      <trkpt lat="43.55976" lon="6.65445">
        <ele>248.19999694824</ele>
        <time>2019-05-30T09:59:16.000Z</time>
      </trkpt>
      <trkpt lat="43.55974" lon="6.65444">
        <ele>248.39999389648</ele>
        <time>2019-05-30T09:59:17.000Z</time>
      </trkpt>
      <trkpt lat="43.55961" lon="6.65441">
        <ele>249.19999694824</ele>
        <time>2019-05-30T09:59:23.000Z</time>
      </trkpt>
      <trkpt lat="43.55957" lon="6.65441">
        <ele>249.60000610352</ele>
        <time>2019-05-30T09:59:25.000Z</time>
      </trkpt>
      <trkpt lat="43.55947" lon="6.65439">
        <ele>250.60000610352</ele>
        <time>2019-05-30T09:59:30.000Z</time>
      </trkpt>
      <trkpt lat="43.55942" lon="6.65439">
        <ele>250.80000305176</ele>
        <time>2019-05-30T09:59:32.000Z</time>
      </trkpt>
      <trkpt lat="43.55929" lon="6.65445">
        <ele>251.60000610352</ele>
        <time>2019-05-30T09:59:38.000Z</time>
      </trkpt>
      <trkpt lat="43.55917" lon="6.65451">
        <ele>253</ele>
        <time>2019-05-30T09:59:43.000Z</time>
      </trkpt>
      <trkpt lat="43.55912" lon="6.65454">
        <ele>253.19999694824</ele>
        <time>2019-05-30T09:59:45.000Z</time>
      </trkpt>
      <trkpt lat="43.55903" lon="6.65451">
        <ele>254</ele>
        <time>2019-05-30T09:59:49.000Z</time>
      </trkpt>
      <trkpt lat="43.559" lon="6.65439">
        <ele>254.80000305176</ele>
        <time>2019-05-30T09:59:54.000Z</time>
      </trkpt>
      <trkpt lat="43.559" lon="6.65437">
        <ele>255.19999694824</ele>
        <time>2019-05-30T09:59:55.000Z</time>
      </trkpt>
      <trkpt lat="43.55901" lon="6.65426">
        <ele>255.80000305176</ele>
        <time>2019-05-30T09:59:59.000Z</time>
      </trkpt>
      <trkpt lat="43.55901" lon="6.65419">
        <ele>256.20001220703</ele>
        <time>2019-05-30T10:00:01.000Z</time>
      </trkpt>
      <trkpt lat="43.55901" lon="6.6541">
        <ele>256.20001220703</ele>
        <time>2019-05-30T10:00:04.000Z</time>
      </trkpt>
      <trkpt lat="43.55906" lon="6.65394">
        <ele>257.20001220703</ele>
        <time>2019-05-30T10:00:10.000Z</time>
      </trkpt>
      <trkpt lat="43.55906" lon="6.65391">
        <ele>257.20001220703</ele>
        <time>2019-05-30T10:00:11.000Z</time>
      </trkpt>
      <trkpt lat="43.55909" lon="6.65381">
        <ele>257.39999389648</ele>
        <time>2019-05-30T10:00:14.000Z</time>
      </trkpt>
      <trkpt lat="43.55913" lon="6.65362">
        <ele>258.39999389648</ele>
        <time>2019-05-30T10:00:19.000Z</time>
      </trkpt>
      <trkpt lat="43.55915" lon="6.65355">
        <ele>259</ele>
        <time>2019-05-30T10:00:21.000Z</time>
      </trkpt>
      <trkpt lat="43.55916" lon="6.65348">
        <ele>259.39999389648</ele>
        <time>2019-05-30T10:00:23.000Z</time>
      </trkpt>
      <trkpt lat="43.55916" lon="6.65329">
        <ele>260</ele>
        <time>2019-05-30T10:00:28.000Z</time>
      </trkpt>
      <trkpt lat="43.55914" lon="6.65315">
        <ele>260.79998779297</ele>
        <time>2019-05-30T10:00:32.000Z</time>
      </trkpt>
      <trkpt lat="43.55912" lon="6.65303">
        <ele>261.39999389648</ele>
        <time>2019-05-30T10:00:35.000Z</time>
      </trkpt>
      <trkpt lat="43.5591" lon="6.65296">
        <ele>261.79998779297</ele>
        <time>2019-05-30T10:00:37.000Z</time>
      </trkpt>
      <trkpt lat="43.55906" lon="6.65275">
        <ele>262.20001220703</ele>
        <time>2019-05-30T10:00:43.000Z</time>
      </trkpt>
      <trkpt lat="43.559" lon="6.65253">
        <ele>263.39999389648</ele>
        <time>2019-05-30T10:00:49.000Z</time>
      </trkpt>
      <trkpt lat="43.559" lon="6.65248">
        <ele>263.60000610352</ele>
        <time>2019-05-30T10:00:50.000Z</time>
      </trkpt>
      <trkpt lat="43.559" lon="6.65231">
        <ele>264.60000610352</ele>
        <time>2019-05-30T10:00:55.000Z</time>
      </trkpt>
      <trkpt lat="43.55902" lon="6.65224">
        <ele>265</ele>
        <time>2019-05-30T10:00:57.000Z</time>
      </trkpt>
      <trkpt lat="43.55903" lon="6.65213">
        <ele>265.60000610352</ele>
        <time>2019-05-30T10:01:01.000Z</time>
      </trkpt>
      <trkpt lat="43.55903" lon="6.65209">
        <ele>265.79998779297</ele>
        <time>2019-05-30T10:01:02.000Z</time>
      </trkpt>
      <trkpt lat="43.559" lon="6.65194">
        <ele>266.79998779297</ele>
        <time>2019-05-30T10:01:06.000Z</time>
      </trkpt>
      <trkpt lat="43.559" lon="6.65187">
        <ele>267.20001220703</ele>
        <time>2019-05-30T10:01:08.000Z</time>
      </trkpt>
      <trkpt lat="43.55903" lon="6.65177">
        <ele>267.39999389648</ele>
        <time>2019-05-30T10:01:11.000Z</time>
      </trkpt>
      <trkpt lat="43.55907" lon="6.65172">
        <ele>267.39999389648</ele>
        <time>2019-05-30T10:01:13.000Z</time>
      </trkpt>
      <trkpt lat="43.55911" lon="6.65168">
        <ele>267.79998779297</ele>
        <time>2019-05-30T10:01:15.000Z</time>
      </trkpt>
      <trkpt lat="43.55916" lon="6.65157">
        <ele>268.39999389648</ele>
        <time>2019-05-30T10:01:19.000Z</time>
      </trkpt>
      <trkpt lat="43.55917" lon="6.65144">
        <ele>269</ele>
        <time>2019-05-30T10:01:23.000Z</time>
      </trkpt>
      <trkpt lat="43.55917" lon="6.6513">
        <ele>270</ele>
        <time>2019-05-30T10:01:27.000Z</time>
      </trkpt>
      <trkpt lat="43.5592" lon="6.65119">
        <ele>270.20001220703</ele>
        <time>2019-05-30T10:01:31.000Z</time>
      </trkpt>
      <trkpt lat="43.55922" lon="6.65111">
        <ele>270.79998779297</ele>
        <time>2019-05-30T10:01:34.000Z</time>
      </trkpt>
      <trkpt lat="43.55924" lon="6.65105">
        <ele>271.39999389648</ele>
        <time>2019-05-30T10:01:36.000Z</time>
      </trkpt>
      <trkpt lat="43.55928" lon="6.65101">
        <ele>271.79998779297</ele>
        <time>2019-05-30T10:01:38.000Z</time>
      </trkpt>
      <trkpt lat="43.55931" lon="6.651">
        <ele>271.79998779297</ele>
        <time>2019-05-30T10:01:39.000Z</time>
      </trkpt>
      <trkpt lat="43.55939" lon="6.65108">
        <ele>272.39999389648</ele>
        <time>2019-05-30T10:01:43.000Z</time>
      </trkpt>
      <trkpt lat="43.55941" lon="6.65111">
        <ele>272.60000610352</ele>
        <time>2019-05-30T10:01:44.000Z</time>
      </trkpt>
      <trkpt lat="43.55952" lon="6.65128">
        <ele>273.60000610352</ele>
        <time>2019-05-30T10:01:51.000Z</time>
      </trkpt>
      <trkpt lat="43.55962" lon="6.65142">
        <ele>274.60000610352</ele>
        <time>2019-05-30T10:01:58.000Z</time>
      </trkpt>
      <trkpt lat="43.55964" lon="6.65144">
        <ele>274.79998779297</ele>
        <time>2019-05-30T10:01:59.000Z</time>
      </trkpt>
      <trkpt lat="43.55969" lon="6.6515">
        <ele>275.60000610352</ele>
        <time>2019-05-30T10:02:02.000Z</time>
      </trkpt>
      <trkpt lat="43.55974" lon="6.65154">
        <ele>276.20001220703</ele>
        <time>2019-05-30T10:02:05.000Z</time>
      </trkpt>
      <trkpt lat="43.55982" lon="6.65154">
        <ele>276.79998779297</ele>
        <time>2019-05-30T10:02:09.000Z</time>
      </trkpt>
      <trkpt lat="43.55986" lon="6.65151">
        <ele>277.20001220703</ele>
        <time>2019-05-30T10:02:11.000Z</time>
      </trkpt>
      <trkpt lat="43.55991" lon="6.65143">
        <ele>277.79998779297</ele>
        <time>2019-05-30T10:02:15.000Z</time>
      </trkpt>
      <trkpt lat="43.55995" lon="6.65135">
        <ele>278.20001220703</ele>
        <time>2019-05-30T10:02:18.000Z</time>
      </trkpt>
      <trkpt lat="43.55999" lon="6.65122">
        <ele>278.79998779297</ele>
        <time>2019-05-30T10:02:22.000Z</time>
      </trkpt>
      <trkpt lat="43.56" lon="6.65115">
        <ele>279</ele>
        <time>2019-05-30T10:02:24.000Z</time>
      </trkpt>
      <trkpt lat="43.56004" lon="6.65101">
        <ele>280</ele>
        <time>2019-05-30T10:02:29.000Z</time>
      </trkpt>
      <trkpt lat="43.56005" lon="6.65098">
        <ele>279.79998779297</ele>
        <time>2019-05-30T10:02:30.000Z</time>
      </trkpt>
      <trkpt lat="43.56013" lon="6.65074">
        <ele>281.20001220703</ele>
        <time>2019-05-30T10:02:37.000Z</time>
      </trkpt>
      <trkpt lat="43.56017" lon="6.65056">
        <ele>282.39999389648</ele>
        <time>2019-05-30T10:02:42.000Z</time>
      </trkpt>
      <trkpt lat="43.56017" lon="6.65053">
        <ele>282.39999389648</ele>
        <time>2019-05-30T10:02:43.000Z</time>
      </trkpt>
      <trkpt lat="43.56021" lon="6.65037">
        <ele>283.20001220703</ele>
        <time>2019-05-30T10:02:48.000Z</time>
      </trkpt>
      <trkpt lat="43.56021" lon="6.65034">
        <ele>283.39999389648</ele>
        <time>2019-05-30T10:02:49.000Z</time>
      </trkpt>
      <trkpt lat="43.56025" lon="6.65022">
        <ele>283.79998779297</ele>
        <time>2019-05-30T10:02:53.000Z</time>
      </trkpt>
      <trkpt lat="43.56028" lon="6.65013">
        <ele>284.39999389648</ele>
        <time>2019-05-30T10:02:56.000Z</time>
      </trkpt>
      <trkpt lat="43.56032" lon="6.65004">
        <ele>285.20001220703</ele>
        <time>2019-05-30T10:02:59.000Z</time>
      </trkpt>
      <trkpt lat="43.56035" lon="6.64994">
        <ele>285.39999389648</ele>
        <time>2019-05-30T10:03:02.000Z</time>
      </trkpt>
      <trkpt lat="43.56039" lon="6.64986">
        <ele>286</ele>
        <time>2019-05-30T10:03:05.000Z</time>
      </trkpt>
      <trkpt lat="43.56043" lon="6.64974">
        <ele>286.60000610352</ele>
        <time>2019-05-30T10:03:09.000Z</time>
      </trkpt>
      <trkpt lat="43.56045" lon="6.64964">
        <ele>287.39999389648</ele>
        <time>2019-05-30T10:03:12.000Z</time>
      </trkpt>
      <trkpt lat="43.56048" lon="6.64954">
        <ele>287.60000610352</ele>
        <time>2019-05-30T10:03:15.000Z</time>
      </trkpt>
      <trkpt lat="43.56053" lon="6.64938">
        <ele>288.20001220703</ele>
        <time>2019-05-30T10:03:20.000Z</time>
      </trkpt>
      <trkpt lat="43.56057" lon="6.64928">
        <ele>288.79998779297</ele>
        <time>2019-05-30T10:03:23.000Z</time>
      </trkpt>
      <trkpt lat="43.56061" lon="6.64916">
        <ele>289.20001220703</ele>
        <time>2019-05-30T10:03:27.000Z</time>
      </trkpt>
      <trkpt lat="43.56064" lon="6.64905">
        <ele>290</ele>
        <time>2019-05-30T10:03:30.000Z</time>
      </trkpt>
      <trkpt lat="43.56067" lon="6.64891">
        <ele>290.79998779297</ele>
        <time>2019-05-30T10:03:34.000Z</time>
      </trkpt>
      <trkpt lat="43.56069" lon="6.64888">
        <ele>291</ele>
        <time>2019-05-30T10:03:35.000Z</time>
      </trkpt>
      <trkpt lat="43.56074" lon="6.6487">
        <ele>292.20001220703</ele>
        <time>2019-05-30T10:03:40.000Z</time>
      </trkpt>
      <trkpt lat="43.56077" lon="6.64856">
        <ele>292.60000610352</ele>
        <time>2019-05-30T10:03:44.000Z</time>
      </trkpt>
      <trkpt lat="43.5608" lon="6.64844">
        <ele>293.20001220703</ele>
        <time>2019-05-30T10:03:48.000Z</time>
      </trkpt>
      <trkpt lat="43.56086" lon="6.64827">
        <ele>294.20001220703</ele>
        <time>2019-05-30T10:03:53.000Z</time>
      </trkpt>
      <trkpt lat="43.5609" lon="6.64815">
        <ele>294.60000610352</ele>
        <time>2019-05-30T10:03:56.000Z</time>
      </trkpt>
      <trkpt lat="43.56092" lon="6.64808">
        <ele>294.79998779297</ele>
        <time>2019-05-30T10:03:58.000Z</time>
      </trkpt>
      <trkpt lat="43.56094" lon="6.64801">
        <ele>295.20001220703</ele>
        <time>2019-05-30T10:04:00.000Z</time>
      </trkpt>
      <trkpt lat="43.56095" lon="6.64797">
        <ele>295.39999389648</ele>
        <time>2019-05-30T10:04:01.000Z</time>
      </trkpt>
      <trkpt lat="43.56097" lon="6.64791">
        <ele>295.60000610352</ele>
        <time>2019-05-30T10:04:03.000Z</time>
      </trkpt>
      <trkpt lat="43.56101" lon="6.64781">
        <ele>296.39999389648</ele>
        <time>2019-05-30T10:04:06.000Z</time>
      </trkpt>
      <trkpt lat="43.56103" lon="6.64773">
        <ele>297</ele>
        <time>2019-05-30T10:04:09.000Z</time>
      </trkpt>
      <trkpt lat="43.56105" lon="6.64767">
        <ele>297.39999389648</ele>
        <time>2019-05-30T10:04:11.000Z</time>
      </trkpt>
      <trkpt lat="43.56107" lon="6.64758">
        <ele>297.79998779297</ele>
        <time>2019-05-30T10:04:14.000Z</time>
      </trkpt>
      <trkpt lat="43.56111" lon="6.64743">
        <ele>298.39999389648</ele>
        <time>2019-05-30T10:04:19.000Z</time>
      </trkpt>
      <trkpt lat="43.56112" lon="6.64739">
        <ele>298.39999389648</ele>
        <time>2019-05-30T10:04:20.000Z</time>
      </trkpt>
      <trkpt lat="43.56116" lon="6.64728">
        <ele>299.39999389648</ele>
        <time>2019-05-30T10:04:23.000Z</time>
      </trkpt>
      <trkpt lat="43.56118" lon="6.64725">
        <ele>299.79998779297</ele>
        <time>2019-05-30T10:04:24.000Z</time>
      </trkpt>
      <trkpt lat="43.56125" lon="6.64711">
        <ele>300.60000610352</ele>
        <time>2019-05-30T10:04:28.000Z</time>
      </trkpt>
      <trkpt lat="43.56131" lon="6.64702">
        <ele>300.79998779297</ele>
        <time>2019-05-30T10:04:31.000Z</time>
      </trkpt>
      <trkpt lat="43.56137" lon="6.6469">
        <ele>301.60000610352</ele>
        <time>2019-05-30T10:04:35.000Z</time>
      </trkpt>
      <trkpt lat="43.56142" lon="6.64678">
        <ele>302</ele>
        <time>2019-05-30T10:04:39.000Z</time>
      </trkpt>
      <trkpt lat="43.56145" lon="6.64667">
        <ele>302.60000610352</ele>
        <time>2019-05-30T10:04:42.000Z</time>
      </trkpt>
      <trkpt lat="43.56146" lon="6.64656">
        <ele>303.20001220703</ele>
        <time>2019-05-30T10:04:45.000Z</time>
      </trkpt>
      <trkpt lat="43.56147" lon="6.64646">
        <ele>303.60000610352</ele>
        <time>2019-05-30T10:04:48.000Z</time>
      </trkpt>
      <trkpt lat="43.56147" lon="6.64636">
        <ele>304.20001220703</ele>
        <time>2019-05-30T10:04:51.000Z</time>
      </trkpt>
      <trkpt lat="43.56146" lon="6.64623">
        <ele>304.60000610352</ele>
        <time>2019-05-30T10:04:55.000Z</time>
      </trkpt>
      <trkpt lat="43.56145" lon="6.64608">
        <ele>305.39999389648</ele>
        <time>2019-05-30T10:05:00.000Z</time>
      </trkpt>
      <trkpt lat="43.56141" lon="6.64593">
        <ele>306.39999389648</ele>
        <time>2019-05-30T10:05:05.000Z</time>
      </trkpt>
      <trkpt lat="43.56133" lon="6.64574">
        <ele>307</ele>
        <time>2019-05-30T10:05:11.000Z</time>
      </trkpt>
      <trkpt lat="43.56131" lon="6.64564">
        <ele>307.60000610352</ele>
        <time>2019-05-30T10:05:14.000Z</time>
      </trkpt>
      <trkpt lat="43.56127" lon="6.64551">
        <ele>308.79998779297</ele>
        <time>2019-05-30T10:05:18.000Z</time>
      </trkpt>
      <trkpt lat="43.56126" lon="6.64547">
        <ele>309</ele>
        <time>2019-05-30T10:05:19.000Z</time>
      </trkpt>
      <trkpt lat="43.56122" lon="6.64531">
        <ele>309.79998779297</ele>
        <time>2019-05-30T10:05:24.000Z</time>
      </trkpt>
      <trkpt lat="43.56118" lon="6.64522">
        <ele>310.20001220703</ele>
        <time>2019-05-30T10:05:27.000Z</time>
      </trkpt>
      <trkpt lat="43.56108" lon="6.64505">
        <ele>311</ele>
        <time>2019-05-30T10:05:33.000Z</time>
      </trkpt>
      <trkpt lat="43.56105" lon="6.645">
        <ele>311.39999389648</ele>
        <time>2019-05-30T10:05:35.000Z</time>
      </trkpt>
      <trkpt lat="43.56095" lon="6.64484">
        <ele>312.20001220703</ele>
        <time>2019-05-30T10:05:41.000Z</time>
      </trkpt>
      <trkpt lat="43.56091" lon="6.64476">
        <ele>312.60000610352</ele>
        <time>2019-05-30T10:05:44.000Z</time>
      </trkpt>
      <trkpt lat="43.56087" lon="6.64468">
        <ele>313.20001220703</ele>
        <time>2019-05-30T10:05:47.000Z</time>
      </trkpt>
      <trkpt lat="43.56081" lon="6.64453">
        <ele>314</ele>
        <time>2019-05-30T10:05:52.000Z</time>
      </trkpt>
      <trkpt lat="43.5608" lon="6.6445">
        <ele>314.39999389648</ele>
        <time>2019-05-30T10:05:53.000Z</time>
      </trkpt>
      <trkpt lat="43.56077" lon="6.64435">
        <ele>315.60000610352</ele>
        <time>2019-05-30T10:05:58.000Z</time>
      </trkpt>
      <trkpt lat="43.56076" lon="6.64432">
        <ele>315.60000610352</ele>
        <time>2019-05-30T10:05:59.000Z</time>
      </trkpt>
      <trkpt lat="43.56073" lon="6.64411">
        <ele>316.20001220703</ele>
        <time>2019-05-30T10:06:05.000Z</time>
      </trkpt>
      <trkpt lat="43.5607" lon="6.64394">
        <ele>316.60000610352</ele>
        <time>2019-05-30T10:06:10.000Z</time>
      </trkpt>
      <trkpt lat="43.56069" lon="6.64391">
        <ele>316.79998779297</ele>
        <time>2019-05-30T10:06:11.000Z</time>
      </trkpt>
      <trkpt lat="43.56063" lon="6.64382">
        <ele>317.79998779297</ele>
        <time>2019-05-30T10:06:15.000Z</time>
      </trkpt>
      <trkpt lat="43.56058" lon="6.64379">
        <ele>318.20001220703</ele>
        <time>2019-05-30T10:06:17.000Z</time>
      </trkpt>
      <trkpt lat="43.56056" lon="6.64379">
        <ele>318.20001220703</ele>
        <time>2019-05-30T10:06:18.000Z</time>
      </trkpt>
      <trkpt lat="43.56051" lon="6.6438">
        <ele>318.60000610352</ele>
        <time>2019-05-30T10:06:21.000Z</time>
      </trkpt>
      <trkpt lat="43.56049" lon="6.64381">
        <ele>318.79998779297</ele>
        <time>2019-05-30T10:06:22.000Z</time>
      </trkpt>
      <trkpt lat="43.56041" lon="6.6439">
        <ele>319.20001220703</ele>
        <time>2019-05-30T10:06:27.000Z</time>
      </trkpt>
      <trkpt lat="43.56038" lon="6.64395">
        <ele>319.79998779297</ele>
        <time>2019-05-30T10:06:29.000Z</time>
      </trkpt>
      <trkpt lat="43.56036" lon="6.64404">
        <ele>320.39999389648</ele>
        <time>2019-05-30T10:06:32.000Z</time>
      </trkpt>
      <trkpt lat="43.56033" lon="6.64414">
        <ele>321</ele>
        <time>2019-05-30T10:06:35.000Z</time>
      </trkpt>
      <trkpt lat="43.56028" lon="6.64427">
        <ele>321.20001220703</ele>
        <time>2019-05-30T10:06:39.000Z</time>
      </trkpt>
      <trkpt lat="43.56024" lon="6.64453">
        <ele>322</ele>
        <time>2019-05-30T10:06:46.000Z</time>
      </trkpt>
      <trkpt lat="43.56023" lon="6.64471">
        <ele>323</ele>
        <time>2019-05-30T10:06:51.000Z</time>
      </trkpt>
      <trkpt lat="43.56022" lon="6.64474">
        <ele>323.20001220703</ele>
        <time>2019-05-30T10:06:52.000Z</time>
      </trkpt>
      <trkpt lat="43.56015" lon="6.64492">
        <ele>323.20001220703</ele>
        <time>2019-05-30T10:06:56.000Z</time>
      </trkpt>
      <trkpt lat="43.56012" lon="6.64496">
        <ele>323.20001220703</ele>
        <time>2019-05-30T10:06:57.000Z</time>
      </trkpt>
      <trkpt lat="43.56" lon="6.64505">
        <ele>322.60000610352</ele>
        <time>2019-05-30T10:07:00.000Z</time>
      </trkpt>
      <trkpt lat="43.55989" lon="6.64514">
        <ele>322.39999389648</ele>
        <time>2019-05-30T10:07:03.000Z</time>
      </trkpt>
      <trkpt lat="43.55972" lon="6.64527">
        <ele>322.20001220703</ele>
        <time>2019-05-30T10:07:07.000Z</time>
      </trkpt>
      <trkpt lat="43.55967" lon="6.64532">
        <ele>322</ele>
        <time>2019-05-30T10:07:08.000Z</time>
      </trkpt>
      <trkpt lat="43.55963" lon="6.64537">
        <ele>321.79998779297</ele>
        <time>2019-05-30T10:07:09.000Z</time>
      </trkpt>
      <trkpt lat="43.55948" lon="6.64554">
        <ele>320.79998779297</ele>
        <time>2019-05-30T10:07:12.000Z</time>
      </trkpt>
      <trkpt lat="43.55943" lon="6.64562">
        <ele>320.39999389648</ele>
        <time>2019-05-30T10:07:13.000Z</time>
      </trkpt>
      <trkpt lat="43.55939" lon="6.6457">
        <ele>319.79998779297</ele>
        <time>2019-05-30T10:07:14.000Z</time>
      </trkpt>
      <trkpt lat="43.55934" lon="6.6458">
        <ele>319.39999389648</ele>
        <time>2019-05-30T10:07:15.000Z</time>
      </trkpt>
      <trkpt lat="43.55921" lon="6.64612">
        <ele>318.20001220703</ele>
        <time>2019-05-30T10:07:18.000Z</time>
      </trkpt>
      <trkpt lat="43.55911" lon="6.64633">
        <ele>317.20001220703</ele>
        <time>2019-05-30T10:07:20.000Z</time>
      </trkpt>
      <trkpt lat="43.559" lon="6.6465">
        <ele>315</ele>
        <time>2019-05-30T10:07:22.000Z</time>
      </trkpt>
      <trkpt lat="43.55894" lon="6.6466">
        <ele>314.20001220703</ele>
        <time>2019-05-30T10:07:23.000Z</time>
      </trkpt>
      <trkpt lat="43.55889" lon="6.64668">
        <ele>313.39999389648</ele>
        <time>2019-05-30T10:07:24.000Z</time>
      </trkpt>
      <trkpt lat="43.5588" lon="6.64686">
        <ele>312.60000610352</ele>
        <time>2019-05-30T10:07:26.000Z</time>
      </trkpt>
      <trkpt lat="43.55877" lon="6.64696">
        <ele>312.60000610352</ele>
        <time>2019-05-30T10:07:27.000Z</time>
      </trkpt>
      <trkpt lat="43.55868" lon="6.64726">
        <ele>313.20001220703</ele>
        <time>2019-05-30T10:07:30.000Z</time>
      </trkpt>
      <trkpt lat="43.55864" lon="6.64736">
        <ele>313</ele>
        <time>2019-05-30T10:07:31.000Z</time>
      </trkpt>
      <trkpt lat="43.5586" lon="6.64745">
        <ele>313.20001220703</ele>
        <time>2019-05-30T10:07:32.000Z</time>
      </trkpt>
      <trkpt lat="43.55851" lon="6.64775">
        <ele>312.39999389648</ele>
        <time>2019-05-30T10:07:35.000Z</time>
      </trkpt>
      <trkpt lat="43.55846" lon="6.64794">
        <ele>311.79998779297</ele>
        <time>2019-05-30T10:07:37.000Z</time>
      </trkpt>
      <trkpt lat="43.55843" lon="6.64803">
        <ele>311.20001220703</ele>
        <time>2019-05-30T10:07:38.000Z</time>
      </trkpt>
      <trkpt lat="43.55828" lon="6.64842">
        <ele>311.20001220703</ele>
        <time>2019-05-30T10:07:43.000Z</time>
      </trkpt>
      <trkpt lat="43.55819" lon="6.64861">
        <ele>311.79998779297</ele>
        <time>2019-05-30T10:07:46.000Z</time>
      </trkpt>
      <trkpt lat="43.5581" lon="6.64868">
        <ele>312.39999389648</ele>
        <time>2019-05-30T10:07:48.000Z</time>
      </trkpt>
      <trkpt lat="43.55796" lon="6.64867">
        <ele>313</ele>
        <time>2019-05-30T10:07:51.000Z</time>
      </trkpt>
      <trkpt lat="43.55791" lon="6.64866">
        <ele>313.20001220703</ele>
        <time>2019-05-30T10:07:52.000Z</time>
      </trkpt>
      <trkpt lat="43.55775" lon="6.6486">
        <ele>313.60000610352</ele>
        <time>2019-05-30T10:07:55.000Z</time>
      </trkpt>
      <trkpt lat="43.55761" lon="6.64855">
        <ele>314.39999389648</ele>
        <time>2019-05-30T10:07:58.000Z</time>
      </trkpt>
      <trkpt lat="43.55755" lon="6.64854">
        <ele>314.60000610352</ele>
        <time>2019-05-30T10:07:59.000Z</time>
      </trkpt>
      <trkpt lat="43.55741" lon="6.64853">
        <ele>315.20001220703</ele>
        <time>2019-05-30T10:08:02.000Z</time>
      </trkpt>
      <trkpt lat="43.55732" lon="6.64855">
        <ele>315.39999389648</ele>
        <time>2019-05-30T10:08:04.000Z</time>
      </trkpt>
      <trkpt lat="43.55724" lon="6.64857">
        <ele>316</ele>
        <time>2019-05-30T10:08:06.000Z</time>
      </trkpt>
      <trkpt lat="43.55705" lon="6.64858">
        <ele>316.79998779297</ele>
        <time>2019-05-30T10:08:11.000Z</time>
      </trkpt>
      <trkpt lat="43.55702" lon="6.64857">
        <ele>317</ele>
        <time>2019-05-30T10:08:12.000Z</time>
      </trkpt>
      <trkpt lat="43.55694" lon="6.6485">
        <ele>318.20001220703</ele>
        <time>2019-05-30T10:08:15.000Z</time>
      </trkpt>
      <trkpt lat="43.55692" lon="6.64847">
        <ele>318.39999389648</ele>
        <time>2019-05-30T10:08:16.000Z</time>
      </trkpt>
      <trkpt lat="43.55687" lon="6.64834">
        <ele>319</ele>
        <time>2019-05-30T10:08:20.000Z</time>
      </trkpt>
      <trkpt lat="43.55685" lon="6.64828">
        <ele>319.39999389648</ele>
        <time>2019-05-30T10:08:22.000Z</time>
      </trkpt>
      <trkpt lat="43.55682" lon="6.64822">
        <ele>320.39999389648</ele>
        <time>2019-05-30T10:08:25.000Z</time>
      </trkpt>
      <trkpt lat="43.55682" lon="6.64821">
        <ele>320.39999389648</ele>
        <time>2019-05-30T10:08:26.000Z</time>
      </trkpt>
      <trkpt lat="43.55679" lon="6.64817">
        <ele>321.39999389648</ele>
        <time>2019-05-30T10:08:30.000Z</time>
      </trkpt>
      <trkpt lat="43.55679" lon="6.64816">
        <ele>321.60000610352</ele>
        <time>2019-05-30T10:08:31.000Z</time>
      </trkpt>
      <trkpt lat="43.5567" lon="6.64809">
        <ele>322.39999389648</ele>
        <time>2019-05-30T10:08:36.000Z</time>
      </trkpt>
      <trkpt lat="43.55659" lon="6.64797">
        <ele>323.39999389648</ele>
        <time>2019-05-30T10:08:43.000Z</time>
      </trkpt>
      <trkpt lat="43.55649" lon="6.64784">
        <ele>324.60000610352</ele>
        <time>2019-05-30T10:08:50.000Z</time>
      </trkpt>
      <trkpt lat="43.55644" lon="6.64779">
        <ele>325.60000610352</ele>
        <time>2019-05-30T10:08:53.000Z</time>
      </trkpt>
      <trkpt lat="43.55632" lon="6.64772">
        <ele>327</ele>
        <time>2019-05-30T10:08:59.000Z</time>
      </trkpt>
      <trkpt lat="43.55619" lon="6.64774">
        <ele>327.79998779297</ele>
        <time>2019-05-30T10:09:05.000Z</time>
      </trkpt>
      <trkpt lat="43.55615" lon="6.64776">
        <ele>328</ele>
        <time>2019-05-30T10:09:07.000Z</time>
      </trkpt>
      <trkpt lat="43.55602" lon="6.64784">
        <ele>328.79998779297</ele>
        <time>2019-05-30T10:09:12.000Z</time>
      </trkpt>
      <trkpt lat="43.55597" lon="6.64787">
        <ele>329</ele>
        <time>2019-05-30T10:09:14.000Z</time>
      </trkpt>
      <trkpt lat="43.55583" lon="6.64793">
        <ele>329.39999389648</ele>
        <time>2019-05-30T10:09:19.000Z</time>
      </trkpt>
      <trkpt lat="43.55573" lon="6.64798">
        <ele>330</ele>
        <time>2019-05-30T10:09:23.000Z</time>
      </trkpt>
      <trkpt lat="43.55568" lon="6.648">
        <ele>330.60000610352</ele>
        <time>2019-05-30T10:09:25.000Z</time>
      </trkpt>
      <trkpt lat="43.55563" lon="6.64803">
        <ele>331.20001220703</ele>
        <time>2019-05-30T10:09:27.000Z</time>
      </trkpt>
      <trkpt lat="43.55551" lon="6.64811">
        <ele>331.79998779297</ele>
        <time>2019-05-30T10:09:31.000Z</time>
      </trkpt>
      <trkpt lat="43.5554" lon="6.64819">
        <ele>331.79998779297</ele>
        <time>2019-05-30T10:09:34.000Z</time>
      </trkpt>
      <trkpt lat="43.55529" lon="6.64832">
        <ele>331.60000610352</ele>
        <time>2019-05-30T10:09:37.000Z</time>
      </trkpt>
      <trkpt lat="43.555" lon="6.64868">
        <ele>331</ele>
        <time>2019-05-30T10:09:44.000Z</time>
      </trkpt>
      <trkpt lat="43.55467" lon="6.64911">
        <ele>330.20001220703</ele>
        <time>2019-05-30T10:09:52.000Z</time>
      </trkpt>
      <trkpt lat="43.55442" lon="6.64945">
        <ele>329</ele>
        <time>2019-05-30T10:09:57.000Z</time>
      </trkpt>
      <trkpt lat="43.55436" lon="6.64953">
        <ele>328.60000610352</ele>
        <time>2019-05-30T10:09:58.000Z</time>
      </trkpt>
      <trkpt lat="43.55424" lon="6.6497">
        <ele>327.60000610352</ele>
        <time>2019-05-30T10:10:00.000Z</time>
      </trkpt>
      <trkpt lat="43.55412" lon="6.64986">
        <ele>325.39999389648</ele>
        <time>2019-05-30T10:10:02.000Z</time>
      </trkpt>
      <trkpt lat="43.554" lon="6.65002">
        <ele>323.39999389648</ele>
        <time>2019-05-30T10:10:04.000Z</time>
      </trkpt>
      <trkpt lat="43.55394" lon="6.65011">
        <ele>322.79998779297</ele>
        <time>2019-05-30T10:10:05.000Z</time>
      </trkpt>
      <trkpt lat="43.55389" lon="6.6502">
        <ele>321.79998779297</ele>
        <time>2019-05-30T10:10:06.000Z</time>
      </trkpt>
      <trkpt lat="43.55378" lon="6.65037">
        <ele>320.60000610352</ele>
        <time>2019-05-30T10:10:08.000Z</time>
      </trkpt>
      <trkpt lat="43.55371" lon="6.65045">
        <ele>320.20001220703</ele>
        <time>2019-05-30T10:10:09.000Z</time>
      </trkpt>
      <trkpt lat="43.55365" lon="6.65048">
        <ele>319.79998779297</ele>
        <time>2019-05-30T10:10:10.000Z</time>
      </trkpt>
      <trkpt lat="43.55353" lon="6.65047">
        <ele>319.39999389648</ele>
        <time>2019-05-30T10:10:12.000Z</time>
      </trkpt>
      <trkpt lat="43.55343" lon="6.65031">
        <ele>318.79998779297</ele>
        <time>2019-05-30T10:10:15.000Z</time>
      </trkpt>
      <trkpt lat="43.55337" lon="6.65019">
        <ele>318.39999389648</ele>
        <time>2019-05-30T10:10:17.000Z</time>
      </trkpt>
      <trkpt lat="43.55327" lon="6.64996">
        <ele>317.60000610352</ele>
        <time>2019-05-30T10:10:20.000Z</time>
      </trkpt>
      <trkpt lat="43.55324" lon="6.64987">
        <ele>317</ele>
        <time>2019-05-30T10:10:21.000Z</time>
      </trkpt>
      <trkpt lat="43.5532" lon="6.6498">
        <ele>316.60000610352</ele>
        <time>2019-05-30T10:10:22.000Z</time>
      </trkpt>
      <trkpt lat="43.55314" lon="6.64971">
        <ele>316</ele>
        <time>2019-05-30T10:10:23.000Z</time>
      </trkpt>
      <trkpt lat="43.55309" lon="6.64964">
        <ele>315.60000610352</ele>
        <time>2019-05-30T10:10:24.000Z</time>
      </trkpt>
      <trkpt lat="43.553" lon="6.64949">
        <ele>314.60000610352</ele>
        <time>2019-05-30T10:10:26.000Z</time>
      </trkpt>
      <trkpt lat="43.55295" lon="6.64931">
        <ele>314</ele>
        <time>2019-05-30T10:10:28.000Z</time>
      </trkpt>
      <trkpt lat="43.55293" lon="6.64922">
        <ele>313.60000610352</ele>
        <time>2019-05-30T10:10:29.000Z</time>
      </trkpt>
      <trkpt lat="43.55291" lon="6.64914">
        <ele>313.60000610352</ele>
        <time>2019-05-30T10:10:30.000Z</time>
      </trkpt>
      <trkpt lat="43.55281" lon="6.64891">
        <ele>313.60000610352</ele>
        <time>2019-05-30T10:10:33.000Z</time>
      </trkpt>
      <trkpt lat="43.55272" lon="6.64877">
        <ele>313.60000610352</ele>
        <time>2019-05-30T10:10:35.000Z</time>
      </trkpt>
      <trkpt lat="43.5526" lon="6.64871">
        <ele>313.39999389648</ele>
        <time>2019-05-30T10:10:37.000Z</time>
      </trkpt>
      <trkpt lat="43.55246" lon="6.64875">
        <ele>312.20001220703</ele>
        <time>2019-05-30T10:10:39.000Z</time>
      </trkpt>
      <trkpt lat="43.5524" lon="6.64877">
        <ele>311.79998779297</ele>
        <time>2019-05-30T10:10:40.000Z</time>
      </trkpt>
      <trkpt lat="43.55231" lon="6.64882">
        <ele>311.20001220703</ele>
        <time>2019-05-30T10:10:41.000Z</time>
      </trkpt>
      <trkpt lat="43.55216" lon="6.64888">
        <ele>309.60000610352</ele>
        <time>2019-05-30T10:10:43.000Z</time>
      </trkpt>
      <trkpt lat="43.55201" lon="6.64894">
        <ele>308.39999389648</ele>
        <time>2019-05-30T10:10:45.000Z</time>
      </trkpt>
      <trkpt lat="43.55186" lon="6.64899">
        <ele>307.20001220703</ele>
        <time>2019-05-30T10:10:47.000Z</time>
      </trkpt>
      <trkpt lat="43.55178" lon="6.64902">
        <ele>307</ele>
        <time>2019-05-30T10:10:48.000Z</time>
      </trkpt>
      <trkpt lat="43.55171" lon="6.64904">
        <ele>306.79998779297</ele>
        <time>2019-05-30T10:10:49.000Z</time>
      </trkpt>
      <trkpt lat="43.55157" lon="6.64902">
        <ele>306.39999389648</ele>
        <time>2019-05-30T10:10:51.000Z</time>
      </trkpt>
      <trkpt lat="43.55151" lon="6.64899">
        <ele>306.20001220703</ele>
        <time>2019-05-30T10:10:52.000Z</time>
      </trkpt>
      <trkpt lat="43.55135" lon="6.64886">
        <ele>306.20001220703</ele>
        <time>2019-05-30T10:10:55.000Z</time>
      </trkpt>
      <trkpt lat="43.55128" lon="6.64876">
        <ele>306.60000610352</ele>
        <time>2019-05-30T10:10:57.000Z</time>
      </trkpt>
      <trkpt lat="43.55118" lon="6.64864">
        <ele>307.20001220703</ele>
        <time>2019-05-30T10:11:00.000Z</time>
      </trkpt>
      <trkpt lat="43.55115" lon="6.6486">
        <ele>307.60000610352</ele>
        <time>2019-05-30T10:11:01.000Z</time>
      </trkpt>
      <trkpt lat="43.55103" lon="6.64841">
        <ele>308.39999389648</ele>
        <time>2019-05-30T10:11:05.000Z</time>
      </trkpt>
      <trkpt lat="43.55101" lon="6.64835">
        <ele>308.60000610352</ele>
        <time>2019-05-30T10:11:06.000Z</time>
      </trkpt>
      <trkpt lat="43.55106" lon="6.64823">
        <ele>308.60000610352</ele>
        <time>2019-05-30T10:11:08.000Z</time>
      </trkpt>
      <trkpt lat="43.55113" lon="6.64815">
        <ele>308.79998779297</ele>
        <time>2019-05-30T10:11:10.000Z</time>
      </trkpt>
      <trkpt lat="43.55119" lon="6.6481">
        <ele>309</ele>
        <time>2019-05-30T10:11:12.000Z</time>
      </trkpt>
      <trkpt lat="43.55123" lon="6.64805">
        <ele>309.79998779297</ele>
        <time>2019-05-30T10:11:14.000Z</time>
      </trkpt>
      <trkpt lat="43.55127" lon="6.64799">
        <ele>311</ele>
        <time>2019-05-30T10:11:17.000Z</time>
      </trkpt>
      <trkpt lat="43.55132" lon="6.64789">
        <ele>312</ele>
        <time>2019-05-30T10:11:21.000Z</time>
      </trkpt>
      <trkpt lat="43.55135" lon="6.64781">
        <ele>312.39999389648</ele>
        <time>2019-05-30T10:11:24.000Z</time>
      </trkpt>
      <trkpt lat="43.55142" lon="6.64766">
        <ele>313.20001220703</ele>
        <time>2019-05-30T10:11:29.000Z</time>
      </trkpt>
      <trkpt lat="43.55145" lon="6.64761">
        <ele>314</ele>
        <time>2019-05-30T10:11:31.000Z</time>
      </trkpt>
      <trkpt lat="43.55146" lon="6.64758">
        <ele>314.20001220703</ele>
        <time>2019-05-30T10:11:32.000Z</time>
      </trkpt>
      <trkpt lat="43.55154" lon="6.64738">
        <ele>315.20001220703</ele>
        <time>2019-05-30T10:11:38.000Z</time>
      </trkpt>
      <trkpt lat="43.55159" lon="6.64725">
        <ele>316.39999389648</ele>
        <time>2019-05-30T10:11:43.000Z</time>
      </trkpt>
      <trkpt lat="43.55162" lon="6.6472">
        <ele>316.79998779297</ele>
        <time>2019-05-30T10:11:45.000Z</time>
      </trkpt>
      <trkpt lat="43.55167" lon="6.64712">
        <ele>317.39999389648</ele>
        <time>2019-05-30T10:11:48.000Z</time>
      </trkpt>
      <trkpt lat="43.55171" lon="6.64706">
        <ele>318</ele>
        <time>2019-05-30T10:11:51.000Z</time>
      </trkpt>
      <trkpt lat="43.55173" lon="6.64701">
        <ele>318.60000610352</ele>
        <time>2019-05-30T10:11:53.000Z</time>
      </trkpt>
      <trkpt lat="43.55177" lon="6.64688">
        <ele>319.60000610352</ele>
        <time>2019-05-30T10:11:58.000Z</time>
      </trkpt>
      <trkpt lat="43.55178" lon="6.64685">
        <ele>319.79998779297</ele>
        <time>2019-05-30T10:11:59.000Z</time>
      </trkpt>
      <trkpt lat="43.55183" lon="6.64669">
        <ele>320.60000610352</ele>
        <time>2019-05-30T10:12:04.000Z</time>
      </trkpt>
      <trkpt lat="43.55185" lon="6.6466">
        <ele>321.20001220703</ele>
        <time>2019-05-30T10:12:07.000Z</time>
      </trkpt>
      <trkpt lat="43.55186" lon="6.64652">
        <ele>321.79998779297</ele>
        <time>2019-05-30T10:12:10.000Z</time>
      </trkpt>
      <trkpt lat="43.55186" lon="6.6464">
        <ele>322.39999389648</ele>
        <time>2019-05-30T10:12:14.000Z</time>
      </trkpt>
      <trkpt lat="43.55183" lon="6.64628">
        <ele>322.79998779297</ele>
        <time>2019-05-30T10:12:18.000Z</time>
      </trkpt>
      <trkpt lat="43.55179" lon="6.64623">
        <ele>323</ele>
        <time>2019-05-30T10:12:20.000Z</time>
      </trkpt>
      <trkpt lat="43.55168" lon="6.64614">
        <ele>324</ele>
        <time>2019-05-30T10:12:25.000Z</time>
      </trkpt>
      <trkpt lat="43.55166" lon="6.64613">
        <ele>324</ele>
        <time>2019-05-30T10:12:26.000Z</time>
      </trkpt>
      <trkpt lat="43.5515" lon="6.64605">
        <ele>325</ele>
        <time>2019-05-30T10:12:33.000Z</time>
      </trkpt>
      <trkpt lat="43.55148" lon="6.64603">
        <ele>325.20001220703</ele>
        <time>2019-05-30T10:12:34.000Z</time>
      </trkpt>
      <trkpt lat="43.55138" lon="6.64592">
        <ele>326.20001220703</ele>
        <time>2019-05-30T10:12:40.000Z</time>
      </trkpt>
      <trkpt lat="43.55132" lon="6.64583">
        <ele>327.20001220703</ele>
        <time>2019-05-30T10:12:44.000Z</time>
      </trkpt>
      <trkpt lat="43.55129" lon="6.64576">
        <ele>327.39999389648</ele>
        <time>2019-05-30T10:12:47.000Z</time>
      </trkpt>
      <trkpt lat="43.55126" lon="6.64559">
        <ele>328.20001220703</ele>
        <time>2019-05-30T10:12:53.000Z</time>
      </trkpt>
      <trkpt lat="43.55126" lon="6.64556">
        <ele>328.20001220703</ele>
        <time>2019-05-30T10:12:54.000Z</time>
      </trkpt>
      <trkpt lat="43.55126" lon="6.64539">
        <ele>328.79998779297</ele>
        <time>2019-05-30T10:13:00.000Z</time>
      </trkpt>
      <trkpt lat="43.55126" lon="6.64531">
        <ele>329.39999389648</ele>
        <time>2019-05-30T10:13:03.000Z</time>
      </trkpt>
      <trkpt lat="43.55127" lon="6.64523">
        <ele>330</ele>
        <time>2019-05-30T10:13:06.000Z</time>
      </trkpt>
      <trkpt lat="43.55133" lon="6.64504">
        <ele>330.39999389648</ele>
        <time>2019-05-30T10:13:12.000Z</time>
      </trkpt>
      <trkpt lat="43.55145" lon="6.64491">
        <ele>331.39999389648</ele>
        <time>2019-05-30T10:13:18.000Z</time>
      </trkpt>
      <trkpt lat="43.55146" lon="6.64488">
        <ele>331.60000610352</ele>
        <time>2019-05-30T10:13:19.000Z</time>
      </trkpt>
      <trkpt lat="43.55157" lon="6.64468">
        <ele>332.20001220703</ele>
        <time>2019-05-30T10:13:26.000Z</time>
      </trkpt>
      <trkpt lat="43.55161" lon="6.64447">
        <ele>332.60000610352</ele>
        <time>2019-05-30T10:13:32.000Z</time>
      </trkpt>
      <trkpt lat="43.55165" lon="6.64427">
        <ele>333.79998779297</ele>
        <time>2019-05-30T10:13:38.000Z</time>
      </trkpt>
      <trkpt lat="43.55167" lon="6.64407">
        <ele>334.79998779297</ele>
        <time>2019-05-30T10:13:44.000Z</time>
      </trkpt>
      <trkpt lat="43.55167" lon="6.64404">
        <ele>335</ele>
        <time>2019-05-30T10:13:45.000Z</time>
      </trkpt>
      <trkpt lat="43.55166" lon="6.64384">
        <ele>335.60000610352</ele>
        <time>2019-05-30T10:13:51.000Z</time>
      </trkpt>
      <trkpt lat="43.55167" lon="6.64377">
        <ele>335.79998779297</ele>
        <time>2019-05-30T10:13:53.000Z</time>
      </trkpt>
      <trkpt lat="43.55173" lon="6.64363">
        <ele>336.60000610352</ele>
        <time>2019-05-30T10:13:57.000Z</time>
      </trkpt>
      <trkpt lat="43.55177" lon="6.64357">
        <ele>337</ele>
        <time>2019-05-30T10:13:59.000Z</time>
      </trkpt>
      <trkpt lat="43.55184" lon="6.64345">
        <ele>337.39999389648</ele>
        <time>2019-05-30T10:14:03.000Z</time>
      </trkpt>
      <trkpt lat="43.55182" lon="6.64326">
        <ele>337.79998779297</ele>
        <time>2019-05-30T10:14:08.000Z</time>
      </trkpt>
      <trkpt lat="43.5518" lon="6.64319">
        <ele>338</ele>
        <time>2019-05-30T10:14:10.000Z</time>
      </trkpt>
      <trkpt lat="43.55172" lon="6.64303">
        <ele>338.60000610352</ele>
        <time>2019-05-30T10:14:15.000Z</time>
      </trkpt>
      <trkpt lat="43.55166" lon="6.64294">
        <ele>339</ele>
        <time>2019-05-30T10:14:18.000Z</time>
      </trkpt>
      <trkpt lat="43.55155" lon="6.64279">
        <ele>340.20001220703</ele>
        <time>2019-05-30T10:14:24.000Z</time>
      </trkpt>
      <trkpt lat="43.55143" lon="6.64262">
        <ele>341.39999389648</ele>
        <time>2019-05-30T10:14:31.000Z</time>
      </trkpt>
      <trkpt lat="43.55138" lon="6.64255">
        <ele>341.79998779297</ele>
        <time>2019-05-30T10:14:34.000Z</time>
      </trkpt>
      <trkpt lat="43.55128" lon="6.64243">
        <ele>342.39999389648</ele>
        <time>2019-05-30T10:14:40.000Z</time>
      </trkpt>
      <trkpt lat="43.55123" lon="6.64235">
        <ele>342.79998779297</ele>
        <time>2019-05-30T10:14:43.000Z</time>
      </trkpt>
      <trkpt lat="43.55119" lon="6.64229">
        <ele>343.39999389648</ele>
        <time>2019-05-30T10:14:46.000Z</time>
      </trkpt>
      <trkpt lat="43.55113" lon="6.64223">
        <ele>344.39999389648</ele>
        <time>2019-05-30T10:14:50.000Z</time>
      </trkpt>
      <trkpt lat="43.55111" lon="6.64221">
        <ele>344.60000610352</ele>
        <time>2019-05-30T10:14:51.000Z</time>
      </trkpt>
      <trkpt lat="43.55102" lon="6.64214">
        <ele>345.79998779297</ele>
        <time>2019-05-30T10:14:56.000Z</time>
      </trkpt>
      <trkpt lat="43.55091" lon="6.64205">
        <ele>347</ele>
        <time>2019-05-30T10:15:03.000Z</time>
      </trkpt>
      <trkpt lat="43.55083" lon="6.64199">
        <ele>348.20001220703</ele>
        <time>2019-05-30T10:15:08.000Z</time>
      </trkpt>
      <trkpt lat="43.5508" lon="6.64198">
        <ele>348.60000610352</ele>
        <time>2019-05-30T10:15:10.000Z</time>
      </trkpt>
      <trkpt lat="43.5507" lon="6.64193">
        <ele>349.20001220703</ele>
        <time>2019-05-30T10:15:16.000Z</time>
      </trkpt>
      <trkpt lat="43.55068" lon="6.64193">
        <ele>349.39999389648</ele>
        <time>2019-05-30T10:15:17.000Z</time>
      </trkpt>
      <trkpt lat="43.5506" lon="6.64189">
        <ele>349.79998779297</ele>
        <time>2019-05-30T10:15:22.000Z</time>
      </trkpt>
      <trkpt lat="43.55056" lon="6.64188">
        <ele>350.39999389648</ele>
        <time>2019-05-30T10:15:24.000Z</time>
      </trkpt>
      <trkpt lat="43.55046" lon="6.64186">
        <ele>351.60000610352</ele>
        <time>2019-05-30T10:15:30.000Z</time>
      </trkpt>
      <trkpt lat="43.55035" lon="6.64183">
        <ele>352.60000610352</ele>
        <time>2019-05-30T10:15:36.000Z</time>
      </trkpt>
      <trkpt lat="43.55033" lon="6.64182">
        <ele>352.79998779297</ele>
        <time>2019-05-30T10:15:37.000Z</time>
      </trkpt>
      <trkpt lat="43.55026" lon="6.64178">
        <ele>353.79998779297</ele>
        <time>2019-05-30T10:15:42.000Z</time>
      </trkpt>
      <trkpt lat="43.55024" lon="6.64177">
        <ele>354.20001220703</ele>
        <time>2019-05-30T10:15:43.000Z</time>
      </trkpt>
      <trkpt lat="43.55016" lon="6.64176">
        <ele>355</ele>
        <time>2019-05-30T10:15:48.000Z</time>
      </trkpt>
      <trkpt lat="43.55014" lon="6.64176">
        <ele>355.20001220703</ele>
        <time>2019-05-30T10:15:49.000Z</time>
      </trkpt>
      <trkpt lat="43.55004" lon="6.64182">
        <ele>356</ele>
        <time>2019-05-30T10:15:55.000Z</time>
      </trkpt>
      <trkpt lat="43.54995" lon="6.6419">
        <ele>357.20001220703</ele>
        <time>2019-05-30T10:16:01.000Z</time>
      </trkpt>
      <trkpt lat="43.54994" lon="6.64191">
        <ele>357.39999389648</ele>
        <time>2019-05-30T10:16:02.000Z</time>
      </trkpt>
      <trkpt lat="43.54986" lon="6.64198">
        <ele>358.39999389648</ele>
        <time>2019-05-30T10:16:08.000Z</time>
      </trkpt>
      <trkpt lat="43.54985" lon="6.64199">
        <ele>358.60000610352</ele>
        <time>2019-05-30T10:16:09.000Z</time>
      </trkpt>
      <trkpt lat="43.54974" lon="6.64205">
        <ele>359.60000610352</ele>
        <time>2019-05-30T10:16:16.000Z</time>
      </trkpt>
      <trkpt lat="43.54965" lon="6.64209">
        <ele>360.20001220703</ele>
        <time>2019-05-30T10:16:22.000Z</time>
      </trkpt>
      <trkpt lat="43.54962" lon="6.6421">
        <ele>360.79998779297</ele>
        <time>2019-05-30T10:16:24.000Z</time>
      </trkpt>
      <trkpt lat="43.54955" lon="6.64211">
        <ele>361.39999389648</ele>
        <time>2019-05-30T10:16:28.000Z</time>
      </trkpt>
      <trkpt lat="43.54951" lon="6.64211">
        <ele>361.79998779297</ele>
        <time>2019-05-30T10:16:30.000Z</time>
      </trkpt>
      <trkpt lat="43.54942" lon="6.64212">
        <ele>362.60000610352</ele>
        <time>2019-05-30T10:16:35.000Z</time>
      </trkpt>
      <trkpt lat="43.54937" lon="6.64213">
        <ele>363</ele>
        <time>2019-05-30T10:16:38.000Z</time>
      </trkpt>
      <trkpt lat="43.54931" lon="6.64213">
        <ele>363.20001220703</ele>
        <time>2019-05-30T10:16:41.000Z</time>
      </trkpt>
      <trkpt lat="43.54921" lon="6.64213">
        <ele>364</ele>
        <time>2019-05-30T10:16:46.000Z</time>
      </trkpt>
      <trkpt lat="43.54919" lon="6.64213">
        <ele>364</ele>
        <time>2019-05-30T10:16:47.000Z</time>
      </trkpt>
      <trkpt lat="43.54904" lon="6.64216">
        <ele>365.20001220703</ele>
        <time>2019-05-30T10:16:54.000Z</time>
      </trkpt>
      <trkpt lat="43.5489" lon="6.6422">
        <ele>366.20001220703</ele>
        <time>2019-05-30T10:17:00.000Z</time>
      </trkpt>
      <trkpt lat="43.54871" lon="6.64229">
        <ele>367.20001220703</ele>
        <time>2019-05-30T10:17:08.000Z</time>
      </trkpt>
      <trkpt lat="43.54857" lon="6.6424">
        <ele>368.20001220703</ele>
        <time>2019-05-30T10:17:15.000Z</time>
      </trkpt>
      <trkpt lat="43.54856" lon="6.64242">
        <ele>368.39999389648</ele>
        <time>2019-05-30T10:17:16.000Z</time>
      </trkpt>
      <trkpt lat="43.54849" lon="6.64252">
        <ele>369.39999389648</ele>
        <time>2019-05-30T10:17:21.000Z</time>
      </trkpt>
      <trkpt lat="43.54848" lon="6.64254">
        <ele>369.60000610352</ele>
        <time>2019-05-30T10:17:22.000Z</time>
      </trkpt>
      <trkpt lat="43.54839" lon="6.64261">
        <ele>370.39999389648</ele>
        <time>2019-05-30T10:17:27.000Z</time>
      </trkpt>
      <trkpt lat="43.54823" lon="6.6426">
        <ele>371</ele>
        <time>2019-05-30T10:17:33.000Z</time>
      </trkpt>
      <trkpt lat="43.54819" lon="6.64257">
        <ele>371.79998779297</ele>
        <time>2019-05-30T10:17:35.000Z</time>
      </trkpt>
      <trkpt lat="43.54812" lon="6.64253">
        <ele>372.60000610352</ele>
        <time>2019-05-30T10:17:38.000Z</time>
      </trkpt>
      <trkpt lat="43.54809" lon="6.64252">
        <ele>372.79998779297</ele>
        <time>2019-05-30T10:17:39.000Z</time>
      </trkpt>
      <trkpt lat="43.54796" lon="6.64251">
        <ele>372.79998779297</ele>
        <time>2019-05-30T10:17:45.000Z</time>
      </trkpt>
      <trkpt lat="43.54787" lon="6.64251">
        <ele>374</ele>
        <time>2019-05-30T10:17:50.000Z</time>
      </trkpt>
      <trkpt lat="43.54785" lon="6.64251">
        <ele>374</ele>
        <time>2019-05-30T10:17:51.000Z</time>
      </trkpt>
      <trkpt lat="43.54777" lon="6.64253">
        <ele>375</ele>
        <time>2019-05-30T10:17:56.000Z</time>
      </trkpt>
      <trkpt lat="43.54776" lon="6.64253">
        <ele>375</ele>
        <time>2019-05-30T10:17:57.000Z</time>
      </trkpt>
      <trkpt lat="43.54771" lon="6.64253">
        <ele>375.60000610352</ele>
        <time>2019-05-30T10:18:00.000Z</time>
      </trkpt>
      <trkpt lat="43.54767" lon="6.64252">
        <ele>375.79998779297</ele>
        <time>2019-05-30T10:18:02.000Z</time>
      </trkpt>
      <trkpt lat="43.54764" lon="6.64252">
        <ele>376.20001220703</ele>
        <time>2019-05-30T10:18:04.000Z</time>
      </trkpt>
      <trkpt lat="43.5476" lon="6.64254">
        <ele>376.60000610352</ele>
        <time>2019-05-30T10:18:07.000Z</time>
      </trkpt>
      <trkpt lat="43.54756" lon="6.64255">
        <ele>377.20001220703</ele>
        <time>2019-05-30T10:18:10.000Z</time>
      </trkpt>
      <trkpt lat="43.54751" lon="6.64256">
        <ele>377.60000610352</ele>
        <time>2019-05-30T10:18:14.000Z</time>
      </trkpt>
      <trkpt lat="43.54745" lon="6.64257">
        <ele>378.20001220703</ele>
        <time>2019-05-30T10:18:18.000Z</time>
      </trkpt>
      <trkpt lat="43.54742" lon="6.64259">
        <ele>378.79998779297</ele>
        <time>2019-05-30T10:18:20.000Z</time>
      </trkpt>
      <trkpt lat="43.54739" lon="6.6426">
        <ele>379.20001220703</ele>
        <time>2019-05-30T10:18:22.000Z</time>
      </trkpt>
      <trkpt lat="43.54733" lon="6.64261">
        <ele>380.20001220703</ele>
        <time>2019-05-30T10:18:26.000Z</time>
      </trkpt>
      <trkpt lat="43.54722" lon="6.64264">
        <ele>380.79998779297</ele>
        <time>2019-05-30T10:18:32.000Z</time>
      </trkpt>
      <trkpt lat="43.54715" lon="6.64264">
        <ele>381.39999389648</ele>
        <time>2019-05-30T10:18:37.000Z</time>
      </trkpt>
      <trkpt lat="43.54706" lon="6.64259">
        <ele>382.20001220703</ele>
        <time>2019-05-30T10:18:43.000Z</time>
      </trkpt>
      <trkpt lat="43.54704" lon="6.64255">
        <ele>382.39999389648</ele>
        <time>2019-05-30T10:18:45.000Z</time>
      </trkpt>
      <trkpt lat="43.54699" lon="6.64247">
        <ele>383.39999389648</ele>
        <time>2019-05-30T10:18:50.000Z</time>
      </trkpt>
      <trkpt lat="43.54695" lon="6.64235">
        <ele>384.39999389648</ele>
        <time>2019-05-30T10:18:56.000Z</time>
      </trkpt>
      <trkpt lat="43.54694" lon="6.64233">
        <ele>384.60000610352</ele>
        <time>2019-05-30T10:18:57.000Z</time>
      </trkpt>
      <trkpt lat="43.54688" lon="6.64228">
        <ele>385.79998779297</ele>
        <time>2019-05-30T10:19:02.000Z</time>
      </trkpt>
      <trkpt lat="43.5468" lon="6.64229">
        <ele>386.39999389648</ele>
        <time>2019-05-30T10:19:08.000Z</time>
      </trkpt>
      <trkpt lat="43.54673" lon="6.64234">
        <ele>386.79998779297</ele>
        <time>2019-05-30T10:19:12.000Z</time>
      </trkpt>
      <trkpt lat="43.54672" lon="6.64236">
        <ele>387</ele>
        <time>2019-05-30T10:19:13.000Z</time>
      </trkpt>
      <trkpt lat="43.54665" lon="6.64246">
        <ele>388</ele>
        <time>2019-05-30T10:19:18.000Z</time>
      </trkpt>
      <trkpt lat="43.54664" lon="6.64248">
        <ele>388.20001220703</ele>
        <time>2019-05-30T10:19:19.000Z</time>
      </trkpt>
      <trkpt lat="43.54655" lon="6.64269">
        <ele>388.79998779297</ele>
        <time>2019-05-30T10:19:26.000Z</time>
      </trkpt>
      <trkpt lat="43.54652" lon="6.64274">
        <ele>389</ele>
        <time>2019-05-30T10:19:28.000Z</time>
      </trkpt>
      <trkpt lat="43.54646" lon="6.64278">
        <ele>389</ele>
        <time>2019-05-30T10:19:31.000Z</time>
      </trkpt>
      <trkpt lat="43.54638" lon="6.64284">
        <ele>389.39999389648</ele>
        <time>2019-05-30T10:19:35.000Z</time>
      </trkpt>
      <trkpt lat="43.54632" lon="6.64289">
        <ele>390</ele>
        <time>2019-05-30T10:19:38.000Z</time>
      </trkpt>
      <trkpt lat="43.54626" lon="6.64294">
        <ele>390.39999389648</ele>
        <time>2019-05-30T10:19:41.000Z</time>
      </trkpt>
      <trkpt lat="43.54615" lon="6.64291">
        <ele>390.79998779297</ele>
        <time>2019-05-30T10:19:45.000Z</time>
      </trkpt>
      <trkpt lat="43.54607" lon="6.64275">
        <ele>390.79998779297</ele>
        <time>2019-05-30T10:19:49.000Z</time>
      </trkpt>
      <trkpt lat="43.54606" lon="6.64271">
        <ele>390.60000610352</ele>
        <time>2019-05-30T10:19:50.000Z</time>
      </trkpt>
      <trkpt lat="43.54599" lon="6.64253">
        <ele>391</ele>
        <time>2019-05-30T10:19:54.000Z</time>
      </trkpt>
      <trkpt lat="43.54595" lon="6.64245">
        <ele>391.20001220703</ele>
        <time>2019-05-30T10:19:56.000Z</time>
      </trkpt>
      <trkpt lat="43.54573" lon="6.64207">
        <ele>391.39999389648</ele>
        <time>2019-05-30T10:20:05.000Z</time>
      </trkpt>
      <trkpt lat="43.5456" lon="6.64178">
        <ele>391.60000610352</ele>
        <time>2019-05-30T10:20:11.000Z</time>
      </trkpt>
      <trkpt lat="43.54559" lon="6.64173">
        <ele>391.79998779297</ele>
        <time>2019-05-30T10:20:12.000Z</time>
      </trkpt>
      <trkpt lat="43.54559" lon="6.64155">
        <ele>391.79998779297</ele>
        <time>2019-05-30T10:20:15.000Z</time>
      </trkpt>
      <trkpt lat="43.54559" lon="6.64144">
        <ele>391.79998779297</ele>
        <time>2019-05-30T10:20:17.000Z</time>
      </trkpt>
      <trkpt lat="43.54559" lon="6.64112">
        <ele>392.20001220703</ele>
        <time>2019-05-30T10:20:23.000Z</time>
      </trkpt>
      <trkpt lat="43.54557" lon="6.64109">
        <ele>392.20001220703</ele>
        <time>2019-05-30T10:20:24.000Z</time>
      </trkpt>
      <trkpt lat="43.54548" lon="6.64107">
        <ele>392.60000610352</ele>
        <time>2019-05-30T10:20:27.000Z</time>
      </trkpt>
      <trkpt lat="43.54536" lon="6.64122">
        <ele>392.60000610352</ele>
        <time>2019-05-30T10:20:31.000Z</time>
      </trkpt>
      <trkpt lat="43.54531" lon="6.64132">
        <ele>392.39999389648</ele>
        <time>2019-05-30T10:20:33.000Z</time>
      </trkpt>
      <trkpt lat="43.54527" lon="6.64143">
        <ele>392</ele>
        <time>2019-05-30T10:20:35.000Z</time>
      </trkpt>
      <trkpt lat="43.54523" lon="6.64156">
        <ele>392</ele>
        <time>2019-05-30T10:20:37.000Z</time>
      </trkpt>
      <trkpt lat="43.54504" lon="6.64199">
        <ele>391.39999389648</ele>
        <time>2019-05-30T10:20:44.000Z</time>
      </trkpt>
      <trkpt lat="43.54496" lon="6.64208">
        <ele>391</ele>
        <time>2019-05-30T10:20:46.000Z</time>
      </trkpt>
      <trkpt lat="43.54488" lon="6.64216">
        <ele>390.60000610352</ele>
        <time>2019-05-30T10:20:48.000Z</time>
      </trkpt>
      <trkpt lat="43.54483" lon="6.6422">
        <ele>390.60000610352</ele>
        <time>2019-05-30T10:20:49.000Z</time>
      </trkpt>
      <trkpt lat="43.54454" lon="6.64246">
        <ele>390.39999389648</ele>
        <time>2019-05-30T10:20:56.000Z</time>
      </trkpt>
      <trkpt lat="43.54439" lon="6.64252">
        <ele>390.39999389648</ele>
        <time>2019-05-30T10:21:00.000Z</time>
      </trkpt>
      <trkpt lat="43.54435" lon="6.64253">
        <ele>390.79998779297</ele>
        <time>2019-05-30T10:21:01.000Z</time>
      </trkpt>
      <trkpt lat="43.54413" lon="6.64254">
        <ele>391.60000610352</ele>
        <time>2019-05-30T10:21:08.000Z</time>
      </trkpt>
      <trkpt lat="43.54401" lon="6.64255">
        <ele>392.20001220703</ele>
        <time>2019-05-30T10:21:12.000Z</time>
      </trkpt>
      <trkpt lat="43.54391" lon="6.64258">
        <ele>392.60000610352</ele>
        <time>2019-05-30T10:21:15.000Z</time>
      </trkpt>
      <trkpt lat="43.5437" lon="6.64267">
        <ele>392.79998779297</ele>
        <time>2019-05-30T10:21:20.000Z</time>
      </trkpt>
      <trkpt lat="43.54366" lon="6.64269">
        <ele>392.60000610352</ele>
        <time>2019-05-30T10:21:21.000Z</time>
      </trkpt>
      <trkpt lat="43.54349" lon="6.64283">
        <ele>392.79998779297</ele>
        <time>2019-05-30T10:21:27.000Z</time>
      </trkpt>
      <trkpt lat="43.54342" lon="6.64294">
        <ele>393.20001220703</ele>
        <time>2019-05-30T10:21:31.000Z</time>
      </trkpt>
      <trkpt lat="43.5434" lon="6.64298">
        <ele>393.39999389648</ele>
        <time>2019-05-30T10:21:33.000Z</time>
      </trkpt>
      <trkpt lat="43.54329" lon="6.64307">
        <ele>394</ele>
        <time>2019-05-30T10:21:38.000Z</time>
      </trkpt>
      <trkpt lat="43.54317" lon="6.64307">
        <ele>394.39999389648</ele>
        <time>2019-05-30T10:21:42.000Z</time>
      </trkpt>
      <trkpt lat="43.54312" lon="6.64307">
        <ele>394.60000610352</ele>
        <time>2019-05-30T10:21:44.000Z</time>
      </trkpt>
      <trkpt lat="43.54298" lon="6.64309">
        <ele>395.20001220703</ele>
        <time>2019-05-30T10:21:49.000Z</time>
      </trkpt>
      <trkpt lat="43.54295" lon="6.64311">
        <ele>395.39999389648</ele>
        <time>2019-05-30T10:21:50.000Z</time>
      </trkpt>
      <trkpt lat="43.54284" lon="6.64313">
        <ele>395.60000610352</ele>
        <time>2019-05-30T10:21:54.000Z</time>
      </trkpt>
      <trkpt lat="43.54275" lon="6.64315">
        <ele>396.39999389648</ele>
        <time>2019-05-30T10:21:58.000Z</time>
      </trkpt>
      <trkpt lat="43.54271" lon="6.64316">
        <ele>396.79998779297</ele>
        <time>2019-05-30T10:22:00.000Z</time>
      </trkpt>
      <trkpt lat="43.54261" lon="6.64313">
        <ele>397.39999389648</ele>
        <time>2019-05-30T10:22:05.000Z</time>
      </trkpt>
      <trkpt lat="43.54258" lon="6.64309">
        <ele>397.79998779297</ele>
        <time>2019-05-30T10:22:06.000Z</time>
      </trkpt>
      <trkpt lat="43.54258" lon="6.64299">
        <ele>398.39999389648</ele>
        <time>2019-05-30T10:22:09.000Z</time>
      </trkpt>
      <trkpt lat="43.54262" lon="6.64288">
        <ele>398.79998779297</ele>
        <time>2019-05-30T10:22:12.000Z</time>
      </trkpt>
      <trkpt lat="43.54264" lon="6.64283">
        <ele>399</ele>
        <time>2019-05-30T10:22:13.000Z</time>
      </trkpt>
      <trkpt lat="43.54266" lon="6.64278">
        <ele>399</ele>
        <time>2019-05-30T10:22:14.000Z</time>
      </trkpt>
      <trkpt lat="43.54276" lon="6.64255">
        <ele>398.20001220703</ele>
        <time>2019-05-30T10:22:18.000Z</time>
      </trkpt>
      <trkpt lat="43.54279" lon="6.64248">
        <ele>397.79998779297</ele>
        <time>2019-05-30T10:22:19.000Z</time>
      </trkpt>
      <trkpt lat="43.54294" lon="6.64215">
        <ele>397</ele>
        <time>2019-05-30T10:22:25.000Z</time>
      </trkpt>
      <trkpt lat="43.543" lon="6.64195">
        <ele>396.60000610352</ele>
        <time>2019-05-30T10:22:28.000Z</time>
      </trkpt>
      <trkpt lat="43.54301" lon="6.64189">
        <ele>396.39999389648</ele>
        <time>2019-05-30T10:22:29.000Z</time>
      </trkpt>
      <trkpt lat="43.54307" lon="6.6417">
        <ele>395.79998779297</ele>
        <time>2019-05-30T10:22:32.000Z</time>
      </trkpt>
      <trkpt lat="43.54313" lon="6.6415">
        <ele>395.79998779297</ele>
        <time>2019-05-30T10:22:35.000Z</time>
      </trkpt>
      <trkpt lat="43.54315" lon="6.64137">
        <ele>396</ele>
        <time>2019-05-30T10:22:37.000Z</time>
      </trkpt>
      <trkpt lat="43.54312" lon="6.64118">
        <ele>396.20001220703</ele>
        <time>2019-05-30T10:22:40.000Z</time>
      </trkpt>
      <trkpt lat="43.54299" lon="6.64102">
        <ele>396.39999389648</ele>
        <time>2019-05-30T10:22:44.000Z</time>
      </trkpt>
      <trkpt lat="43.54294" lon="6.64099">
        <ele>396.39999389648</ele>
        <time>2019-05-30T10:22:45.000Z</time>
      </trkpt>
      <trkpt lat="43.5428" lon="6.64093">
        <ele>397</ele>
        <time>2019-05-30T10:22:49.000Z</time>
      </trkpt>
      <trkpt lat="43.54274" lon="6.6409">
        <ele>397.79998779297</ele>
        <time>2019-05-30T10:22:51.000Z</time>
      </trkpt>
      <trkpt lat="43.54267" lon="6.64088">
        <ele>398.79998779297</ele>
        <time>2019-05-30T10:22:54.000Z</time>
      </trkpt>
      <trkpt lat="43.54256" lon="6.64084">
        <ele>400</ele>
        <time>2019-05-30T10:22:58.000Z</time>
      </trkpt>
      <trkpt lat="43.54252" lon="6.64083">
        <ele>400</ele>
        <time>2019-05-30T10:22:59.000Z</time>
      </trkpt>
      <trkpt lat="43.54232" lon="6.64078">
        <ele>400.60000610352</ele>
        <time>2019-05-30T10:23:05.000Z</time>
      </trkpt>
      <trkpt lat="43.54228" lon="6.64077">
        <ele>401</ele>
        <time>2019-05-30T10:23:06.000Z</time>
      </trkpt>
      <trkpt lat="43.5421" lon="6.64071">
        <ele>402.20001220703</ele>
        <time>2019-05-30T10:23:12.000Z</time>
      </trkpt>
      <trkpt lat="43.54189" lon="6.64059">
        <ele>402.79998779297</ele>
        <time>2019-05-30T10:23:19.000Z</time>
      </trkpt>
      <trkpt lat="43.5418" lon="6.64048">
        <ele>403.20001220703</ele>
        <time>2019-05-30T10:23:23.000Z</time>
      </trkpt>
      <trkpt lat="43.54175" lon="6.64042">
        <ele>403.39999389648</ele>
        <time>2019-05-30T10:23:25.000Z</time>
      </trkpt>
      <trkpt lat="43.54166" lon="6.64022">
        <ele>404.39999389648</ele>
        <time>2019-05-30T10:23:31.000Z</time>
      </trkpt>
      <trkpt lat="43.54165" lon="6.64019">
        <ele>404.60000610352</ele>
        <time>2019-05-30T10:23:32.000Z</time>
      </trkpt>
      <trkpt lat="43.54152" lon="6.64003">
        <ele>404.79998779297</ele>
        <time>2019-05-30T10:23:38.000Z</time>
      </trkpt>
      <trkpt lat="43.54142" lon="6.6401">
        <ele>405.20001220703</ele>
        <time>2019-05-30T10:23:42.000Z</time>
      </trkpt>
      <trkpt lat="43.54137" lon="6.64018">
        <ele>405.39999389648</ele>
        <time>2019-05-30T10:23:44.000Z</time>
      </trkpt>
      <trkpt lat="43.54135" lon="6.64021">
        <ele>405.60000610352</ele>
        <time>2019-05-30T10:23:45.000Z</time>
      </trkpt>
      <trkpt lat="43.54127" lon="6.64031">
        <ele>405.79998779297</ele>
        <time>2019-05-30T10:23:48.000Z</time>
      </trkpt>
      <trkpt lat="43.5412" lon="6.64038">
        <ele>405.79998779297</ele>
        <time>2019-05-30T10:23:50.000Z</time>
      </trkpt>
      <trkpt lat="43.541" lon="6.64051">
        <ele>405.20001220703</ele>
        <time>2019-05-30T10:23:55.000Z</time>
      </trkpt>
      <trkpt lat="43.54083" lon="6.64058">
        <ele>405.79998779297</ele>
        <time>2019-05-30T10:24:00.000Z</time>
      </trkpt>
      <trkpt lat="43.54058" lon="6.64072">
        <ele>406.39999389648</ele>
        <time>2019-05-30T10:24:07.000Z</time>
      </trkpt>
      <trkpt lat="43.54054" lon="6.64075">
        <ele>406.39999389648</ele>
        <time>2019-05-30T10:24:08.000Z</time>
      </trkpt>
      <trkpt lat="43.54036" lon="6.64096">
        <ele>406.20001220703</ele>
        <time>2019-05-30T10:24:13.000Z</time>
      </trkpt>
      <trkpt lat="43.54022" lon="6.64111">
        <ele>405.60000610352</ele>
        <time>2019-05-30T10:24:17.000Z</time>
      </trkpt>
      <trkpt lat="43.54014" lon="6.64117">
        <ele>405.60000610352</ele>
        <time>2019-05-30T10:24:19.000Z</time>
      </trkpt>
      <trkpt lat="43.53989" lon="6.64135">
        <ele>406.20001220703</ele>
        <time>2019-05-30T10:24:26.000Z</time>
      </trkpt>
      <trkpt lat="43.53979" lon="6.64145">
        <ele>406.60000610352</ele>
        <time>2019-05-30T10:24:29.000Z</time>
      </trkpt>
      <trkpt lat="43.53975" lon="6.64148">
        <ele>406.79998779297</ele>
        <time>2019-05-30T10:24:30.000Z</time>
      </trkpt>
      <trkpt lat="43.53966" lon="6.64148">
        <ele>407</ele>
        <time>2019-05-30T10:24:32.000Z</time>
      </trkpt>
      <trkpt lat="43.53958" lon="6.64144">
        <ele>407.20001220703</ele>
        <time>2019-05-30T10:24:34.000Z</time>
      </trkpt>
      <trkpt lat="43.53951" lon="6.64142">
        <ele>407.39999389648</ele>
        <time>2019-05-30T10:24:36.000Z</time>
      </trkpt>
      <trkpt lat="43.53935" lon="6.64143">
        <ele>407.39999389648</ele>
        <time>2019-05-30T10:24:40.000Z</time>
      </trkpt>
      <trkpt lat="43.53923" lon="6.64147">
        <ele>407.60000610352</ele>
        <time>2019-05-30T10:24:43.000Z</time>
      </trkpt>
      <trkpt lat="43.5392" lon="6.64149">
        <ele>407.39999389648</ele>
        <time>2019-05-30T10:24:44.000Z</time>
      </trkpt>
      <trkpt lat="43.53917" lon="6.64151">
        <ele>407.60000610352</ele>
        <time>2019-05-30T10:24:45.000Z</time>
      </trkpt>
      <trkpt lat="43.53902" lon="6.64159">
        <ele>408.20001220703</ele>
        <time>2019-05-30T10:24:50.000Z</time>
      </trkpt>
      <trkpt lat="43.5389" lon="6.64164">
        <ele>408.60000610352</ele>
        <time>2019-05-30T10:24:54.000Z</time>
      </trkpt>
      <trkpt lat="43.53888" lon="6.64165">
        <ele>408.60000610352</ele>
        <time>2019-05-30T10:24:55.000Z</time>
      </trkpt>
      <trkpt lat="43.53881" lon="6.64167">
        <ele>409.79998779297</ele>
        <time>2019-05-30T10:24:58.000Z</time>
      </trkpt>
      <trkpt lat="43.53875" lon="6.64169">
        <ele>410.20001220703</ele>
        <time>2019-05-30T10:25:00.000Z</time>
      </trkpt>
      <trkpt lat="43.53863" lon="6.64172">
        <ele>410.39999389648</ele>
        <time>2019-05-30T10:25:05.000Z</time>
      </trkpt>
      <trkpt lat="43.53854" lon="6.64174">
        <ele>410.79998779297</ele>
        <time>2019-05-30T10:25:09.000Z</time>
      </trkpt>
      <trkpt lat="43.53852" lon="6.64173">
        <ele>411</ele>
        <time>2019-05-30T10:25:10.000Z</time>
      </trkpt>
      <trkpt lat="43.53849" lon="6.64172">
        <ele>411.39999389648</ele>
        <time>2019-05-30T10:25:12.000Z</time>
      </trkpt>
      <trkpt lat="43.53848" lon="6.64171">
        <ele>411.60000610352</ele>
        <time>2019-05-30T10:25:13.000Z</time>
      </trkpt>
      <trkpt lat="43.5384" lon="6.64171">
        <ele>410.39999389648</ele>
        <time>2019-05-30T10:25:18.000Z</time>
      </trkpt>
      <trkpt lat="43.53838" lon="6.64171">
        <ele>412.39999389648</ele>
        <time>2019-05-30T10:25:19.000Z</time>
      </trkpt>
      <trkpt lat="43.5383" lon="6.64168">
        <ele>413.39999389648</ele>
        <time>2019-05-30T10:25:23.000Z</time>
      </trkpt>
      <trkpt lat="43.53827" lon="6.64166">
        <ele>413.60000610352</ele>
        <time>2019-05-30T10:25:24.000Z</time>
      </trkpt>
      <trkpt lat="43.53817" lon="6.6415">
        <ele>413.79998779297</ele>
        <time>2019-05-30T10:25:29.000Z</time>
      </trkpt>
      <trkpt lat="43.53802" lon="6.64142">
        <ele>414</ele>
        <time>2019-05-30T10:25:34.000Z</time>
      </trkpt>
      <trkpt lat="43.53793" lon="6.6414">
        <ele>414.60000610352</ele>
        <time>2019-05-30T10:25:37.000Z</time>
      </trkpt>
      <trkpt lat="43.53786" lon="6.64138">
        <ele>414.79998779297</ele>
        <time>2019-05-30T10:25:39.000Z</time>
      </trkpt>
      <trkpt lat="43.53784" lon="6.64136">
        <ele>414.79998779297</ele>
        <time>2019-05-30T10:25:40.000Z</time>
      </trkpt>
      <trkpt lat="43.53781" lon="6.6413">
        <ele>415</ele>
        <time>2019-05-30T10:25:42.000Z</time>
      </trkpt>
      <trkpt lat="43.53782" lon="6.6412">
        <ele>415.60000610352</ele>
        <time>2019-05-30T10:25:45.000Z</time>
      </trkpt>
      <trkpt lat="43.53784" lon="6.64118">
        <ele>415.60000610352</ele>
        <time>2019-05-30T10:25:46.000Z</time>
      </trkpt>
      <trkpt lat="43.53786" lon="6.64116">
        <ele>415.60000610352</ele>
        <time>2019-05-30T10:25:47.000Z</time>
      </trkpt>
      <trkpt lat="43.53794" lon="6.64111">
        <ele>415.79998779297</ele>
        <time>2019-05-30T10:25:50.000Z</time>
      </trkpt>
      <trkpt lat="43.53806" lon="6.64101">
        <ele>415.79998779297</ele>
        <time>2019-05-30T10:25:54.000Z</time>
      </trkpt>
      <trkpt lat="43.5383" lon="6.64088">
        <ele>415</ele>
        <time>2019-05-30T10:26:01.000Z</time>
      </trkpt>
      <trkpt lat="43.5384" lon="6.64079">
        <ele>415</ele>
        <time>2019-05-30T10:26:04.000Z</time>
      </trkpt>
      <trkpt lat="43.53843" lon="6.64075">
        <ele>415</ele>
        <time>2019-05-30T10:26:05.000Z</time>
      </trkpt>
      <trkpt lat="43.53854" lon="6.64063">
        <ele>414.60000610352</ele>
        <time>2019-05-30T10:26:08.000Z</time>
      </trkpt>
      <trkpt lat="43.53858" lon="6.64059">
        <ele>414.39999389648</ele>
        <time>2019-05-30T10:26:09.000Z</time>
      </trkpt>
      <trkpt lat="43.53863" lon="6.64055">
        <ele>414.39999389648</ele>
        <time>2019-05-30T10:26:10.000Z</time>
      </trkpt>
      <trkpt lat="43.53882" lon="6.64035">
        <ele>414.39999389648</ele>
        <time>2019-05-30T10:26:15.000Z</time>
      </trkpt>
      <trkpt lat="43.53885" lon="6.64031">
        <ele>414.39999389648</ele>
        <time>2019-05-30T10:26:16.000Z</time>
      </trkpt>
      <trkpt lat="43.53898" lon="6.64007">
        <ele>415.20001220703</ele>
        <time>2019-05-30T10:26:21.000Z</time>
      </trkpt>
      <trkpt lat="43.53905" lon="6.63981">
        <ele>415.20001220703</ele>
        <time>2019-05-30T10:26:26.000Z</time>
      </trkpt>
      <trkpt lat="43.53901" lon="6.63957">
        <ele>415.20001220703</ele>
        <time>2019-05-30T10:26:30.000Z</time>
      </trkpt>
      <trkpt lat="43.5389" lon="6.63944">
        <ele>415.20001220703</ele>
        <time>2019-05-30T10:26:33.000Z</time>
      </trkpt>
      <trkpt lat="43.53886" lon="6.6394">
        <ele>415.20001220703</ele>
        <time>2019-05-30T10:26:34.000Z</time>
      </trkpt>
      <trkpt lat="43.53877" lon="6.63932">
        <ele>415.60000610352</ele>
        <time>2019-05-30T10:26:36.000Z</time>
      </trkpt>
      <trkpt lat="43.53862" lon="6.63921">
        <ele>416</ele>
        <time>2019-05-30T10:26:40.000Z</time>
      </trkpt>
      <trkpt lat="43.53854" lon="6.63913">
        <ele>417</ele>
        <time>2019-05-30T10:26:43.000Z</time>
      </trkpt>
      <trkpt lat="43.53849" lon="6.63909">
        <ele>417.39999389648</ele>
        <time>2019-05-30T10:26:45.000Z</time>
      </trkpt>
      <trkpt lat="43.5384" lon="6.63896">
        <ele>417.79998779297</ele>
        <time>2019-05-30T10:26:49.000Z</time>
      </trkpt>
      <trkpt lat="43.53843" lon="6.63886">
        <ele>417.79998779297</ele>
        <time>2019-05-30T10:26:52.000Z</time>
      </trkpt>
      <trkpt lat="43.53844" lon="6.63883">
        <ele>418.20001220703</ele>
        <time>2019-05-30T10:26:53.000Z</time>
      </trkpt>
      <trkpt lat="43.5385" lon="6.63874">
        <ele>418.60000610352</ele>
        <time>2019-05-30T10:26:56.000Z</time>
      </trkpt>
      <trkpt lat="43.53854" lon="6.63869">
        <ele>419</ele>
        <time>2019-05-30T10:26:58.000Z</time>
      </trkpt>
      <trkpt lat="43.53857" lon="6.63863">
        <ele>419.20001220703</ele>
        <time>2019-05-30T10:27:00.000Z</time>
      </trkpt>
      <trkpt lat="43.53862" lon="6.63852">
        <ele>420</ele>
        <time>2019-05-30T10:27:03.000Z</time>
      </trkpt>
      <trkpt lat="43.53862" lon="6.63846">
        <ele>420.39999389648</ele>
        <time>2019-05-30T10:27:05.000Z</time>
      </trkpt>
      <trkpt lat="43.53865" lon="6.63826">
        <ele>420.79998779297</ele>
        <time>2019-05-30T10:27:10.000Z</time>
      </trkpt>
      <trkpt lat="43.53872" lon="6.63806">
        <ele>421.60000610352</ele>
        <time>2019-05-30T10:27:15.000Z</time>
      </trkpt>
      <trkpt lat="43.53873" lon="6.63802">
        <ele>421.79998779297</ele>
        <time>2019-05-30T10:27:16.000Z</time>
      </trkpt>
      <trkpt lat="43.53871" lon="6.63786">
        <ele>422.39999389648</ele>
        <time>2019-05-30T10:27:21.000Z</time>
      </trkpt>
      <trkpt lat="43.53868" lon="6.63779">
        <ele>422.79998779297</ele>
        <time>2019-05-30T10:27:23.000Z</time>
      </trkpt>
      <trkpt lat="43.53857" lon="6.63769">
        <ele>423.20001220703</ele>
        <time>2019-05-30T10:27:27.000Z</time>
      </trkpt>
      <trkpt lat="43.53845" lon="6.63758">
        <ele>423.79998779297</ele>
        <time>2019-05-30T10:27:31.000Z</time>
      </trkpt>
      <trkpt lat="43.53836" lon="6.63752">
        <ele>424.20001220703</ele>
        <time>2019-05-30T10:27:34.000Z</time>
      </trkpt>
      <trkpt lat="43.53823" lon="6.63736">
        <ele>424.79998779297</ele>
        <time>2019-05-30T10:27:40.000Z</time>
      </trkpt>
      <trkpt lat="43.53823" lon="6.63734">
        <ele>425</ele>
        <time>2019-05-30T10:27:41.000Z</time>
      </trkpt>
      <trkpt lat="43.53823" lon="6.63728">
        <ele>425.20001220703</ele>
        <time>2019-05-30T10:27:43.000Z</time>
      </trkpt>
      <trkpt lat="43.53823" lon="6.63724">
        <ele>425.39999389648</ele>
        <time>2019-05-30T10:27:44.000Z</time>
      </trkpt>
      <trkpt lat="43.53823" lon="6.63712">
        <ele>426</ele>
        <time>2019-05-30T10:27:48.000Z</time>
      </trkpt>
      <trkpt lat="43.53825" lon="6.63707">
        <ele>426.20001220703</ele>
        <time>2019-05-30T10:27:50.000Z</time>
      </trkpt>
      <trkpt lat="43.53825" lon="6.63698">
        <ele>427</ele>
        <time>2019-05-30T10:27:54.000Z</time>
      </trkpt>
      <trkpt lat="43.53827" lon="6.63694">
        <ele>427.39999389648</ele>
        <time>2019-05-30T10:27:56.000Z</time>
      </trkpt>
      <trkpt lat="43.53832" lon="6.63685">
        <ele>428</ele>
        <time>2019-05-30T10:28:00.000Z</time>
      </trkpt>
      <trkpt lat="43.53834" lon="6.6368">
        <ele>428.39999389648</ele>
        <time>2019-05-30T10:28:02.000Z</time>
      </trkpt>
      <trkpt lat="43.53843" lon="6.63656">
        <ele>429</ele>
        <time>2019-05-30T10:28:09.000Z</time>
      </trkpt>
      <trkpt lat="43.53844" lon="6.63653">
        <ele>429.20001220703</ele>
        <time>2019-05-30T10:28:10.000Z</time>
      </trkpt>
      <trkpt lat="43.53847" lon="6.63642">
        <ele>430.39999389648</ele>
        <time>2019-05-30T10:28:14.000Z</time>
      </trkpt>
      <trkpt lat="43.5385" lon="6.63624">
        <ele>431.20001220703</ele>
        <time>2019-05-30T10:28:19.000Z</time>
      </trkpt>
      <trkpt lat="43.53851" lon="6.6362">
        <ele>431.39999389648</ele>
        <time>2019-05-30T10:28:20.000Z</time>
      </trkpt>
      <trkpt lat="43.53856" lon="6.636">
        <ele>431.79998779297</ele>
        <time>2019-05-30T10:28:25.000Z</time>
      </trkpt>
      <trkpt lat="43.53864" lon="6.63584">
        <ele>432.20001220703</ele>
        <time>2019-05-30T10:28:30.000Z</time>
      </trkpt>
      <trkpt lat="43.53868" lon="6.63579">
        <ele>432.39999389648</ele>
        <time>2019-05-30T10:28:32.000Z</time>
      </trkpt>
      <trkpt lat="43.53879" lon="6.63572">
        <ele>432.79998779297</ele>
        <time>2019-05-30T10:28:36.000Z</time>
      </trkpt>
      <trkpt lat="43.53891" lon="6.63561">
        <ele>433.39999389648</ele>
        <time>2019-05-30T10:28:41.000Z</time>
      </trkpt>
      <trkpt lat="43.53894" lon="6.63554">
        <ele>433.60000610352</ele>
        <time>2019-05-30T10:28:43.000Z</time>
      </trkpt>
      <trkpt lat="43.53897" lon="6.63528">
        <ele>433.79998779297</ele>
        <time>2019-05-30T10:28:49.000Z</time>
      </trkpt>
      <trkpt lat="43.53896" lon="6.6351">
        <ele>434.39999389648</ele>
        <time>2019-05-30T10:28:54.000Z</time>
      </trkpt>
      <trkpt lat="43.53892" lon="6.63489">
        <ele>435.39999389648</ele>
        <time>2019-05-30T10:29:00.000Z</time>
      </trkpt>
      <trkpt lat="43.5389" lon="6.63482">
        <ele>435.79998779297</ele>
        <time>2019-05-30T10:29:02.000Z</time>
      </trkpt>
      <trkpt lat="43.53888" lon="6.63464">
        <ele>436.60000610352</ele>
        <time>2019-05-30T10:29:07.000Z</time>
      </trkpt>
      <trkpt lat="43.53889" lon="6.63461">
        <ele>436.79998779297</ele>
        <time>2019-05-30T10:29:08.000Z</time>
      </trkpt>
      <trkpt lat="43.53894" lon="6.63452">
        <ele>437.60000610352</ele>
        <time>2019-05-30T10:29:11.000Z</time>
      </trkpt>
      <trkpt lat="43.53899" lon="6.63448">
        <ele>438</ele>
        <time>2019-05-30T10:29:13.000Z</time>
      </trkpt>
      <trkpt lat="43.53924" lon="6.63434">
        <ele>438.39999389648</ele>
        <time>2019-05-30T10:29:21.000Z</time>
      </trkpt>
      <trkpt lat="43.5393" lon="6.63433">
        <ele>438.79998779297</ele>
        <time>2019-05-30T10:29:23.000Z</time>
      </trkpt>
      <trkpt lat="43.53944" lon="6.6343">
        <ele>439.60000610352</ele>
        <time>2019-05-30T10:29:27.000Z</time>
      </trkpt>
      <trkpt lat="43.53951" lon="6.63427">
        <ele>439.79998779297</ele>
        <time>2019-05-30T10:29:29.000Z</time>
      </trkpt>
      <trkpt lat="43.53961" lon="6.63418">
        <ele>440.20001220703</ele>
        <time>2019-05-30T10:29:32.000Z</time>
      </trkpt>
      <trkpt lat="43.53981" lon="6.6339">
        <ele>440.20001220703</ele>
        <time>2019-05-30T10:29:38.000Z</time>
      </trkpt>
      <trkpt lat="43.53992" lon="6.63371">
        <ele>440</ele>
        <time>2019-05-30T10:29:42.000Z</time>
      </trkpt>
      <trkpt lat="43.54003" lon="6.63353">
        <ele>440.39999389648</ele>
        <time>2019-05-30T10:29:46.000Z</time>
      </trkpt>
      <trkpt lat="43.54006" lon="6.63331">
        <ele>440.39999389648</ele>
        <time>2019-05-30T10:29:50.000Z</time>
      </trkpt>
      <trkpt lat="43.54008" lon="6.63306">
        <ele>441</ele>
        <time>2019-05-30T10:29:55.000Z</time>
      </trkpt>
      <trkpt lat="43.54007" lon="6.63296">
        <ele>441.39999389648</ele>
        <time>2019-05-30T10:29:57.000Z</time>
      </trkpt>
      <trkpt lat="43.54006" lon="6.63281">
        <ele>442</ele>
        <time>2019-05-30T10:30:01.000Z</time>
      </trkpt>
      <trkpt lat="43.54007" lon="6.63271">
        <ele>442.60000610352</ele>
        <time>2019-05-30T10:30:04.000Z</time>
      </trkpt>
      <trkpt lat="43.5401" lon="6.63263">
        <ele>443</ele>
        <time>2019-05-30T10:30:07.000Z</time>
      </trkpt>
      <trkpt lat="43.54013" lon="6.63257">
        <ele>443.20001220703</ele>
        <time>2019-05-30T10:30:10.000Z</time>
      </trkpt>
      <trkpt lat="43.54017" lon="6.63252">
        <ele>443.79998779297</ele>
        <time>2019-05-30T10:30:13.000Z</time>
      </trkpt>
      <trkpt lat="43.54019" lon="6.63252">
        <ele>444.20001220703</ele>
        <time>2019-05-30T10:30:14.000Z</time>
      </trkpt>
      <trkpt lat="43.5402" lon="6.63252">
        <ele>444.39999389648</ele>
        <time>2019-05-30T10:30:15.000Z</time>
      </trkpt>
      <trkpt lat="43.54026" lon="6.63251">
        <ele>445.20001220703</ele>
        <time>2019-05-30T10:30:18.000Z</time>
      </trkpt>
      <trkpt lat="43.54028" lon="6.63251">
        <ele>445.60000610352</ele>
        <time>2019-05-30T10:30:19.000Z</time>
      </trkpt>
      <trkpt lat="43.5403" lon="6.6325">
        <ele>445.79998779297</ele>
        <time>2019-05-30T10:30:20.000Z</time>
      </trkpt>
      <trkpt lat="43.54036" lon="6.63241">
        <ele>446.20001220703</ele>
        <time>2019-05-30T10:30:23.000Z</time>
      </trkpt>
      <trkpt lat="43.54038" lon="6.63235">
        <ele>446</ele>
        <time>2019-05-30T10:30:24.000Z</time>
      </trkpt>
      <trkpt lat="43.54045" lon="6.63205">
        <ele>444.60000610352</ele>
        <time>2019-05-30T10:30:28.000Z</time>
      </trkpt>
      <trkpt lat="43.54047" lon="6.63196">
        <ele>444.20001220703</ele>
        <time>2019-05-30T10:30:29.000Z</time>
      </trkpt>
      <trkpt lat="43.54052" lon="6.63176">
        <ele>443</ele>
        <time>2019-05-30T10:30:31.000Z</time>
      </trkpt>
      <trkpt lat="43.54056" lon="6.63156">
        <ele>441.79998779297</ele>
        <time>2019-05-30T10:30:33.000Z</time>
      </trkpt>
      <trkpt lat="43.54059" lon="6.63138">
        <ele>440</ele>
        <time>2019-05-30T10:30:35.000Z</time>
      </trkpt>
      <trkpt lat="43.54064" lon="6.63115">
        <ele>438.20001220703</ele>
        <time>2019-05-30T10:30:37.000Z</time>
      </trkpt>
      <trkpt lat="43.54066" lon="6.63102">
        <ele>437.20001220703</ele>
        <time>2019-05-30T10:30:38.000Z</time>
      </trkpt>
      <trkpt lat="43.54069" lon="6.63077">
        <ele>435</ele>
        <time>2019-05-30T10:30:40.000Z</time>
      </trkpt>
      <trkpt lat="43.54071" lon="6.63066">
        <ele>434</ele>
        <time>2019-05-30T10:30:41.000Z</time>
      </trkpt>
      <trkpt lat="43.54073" lon="6.63054">
        <ele>432.60000610352</ele>
        <time>2019-05-30T10:30:42.000Z</time>
      </trkpt>
      <trkpt lat="43.5408" lon="6.63033">
        <ele>431.39999389648</ele>
        <time>2019-05-30T10:30:44.000Z</time>
      </trkpt>
      <trkpt lat="43.54087" lon="6.63014">
        <ele>430.39999389648</ele>
        <time>2019-05-30T10:30:46.000Z</time>
      </trkpt>
      <trkpt lat="43.54089" lon="6.63007">
        <ele>429.79998779297</ele>
        <time>2019-05-30T10:30:47.000Z</time>
      </trkpt>
      <trkpt lat="43.54092" lon="6.62995">
        <ele>429</ele>
        <time>2019-05-30T10:30:48.000Z</time>
      </trkpt>
      <trkpt lat="43.54095" lon="6.62986">
        <ele>428.20001220703</ele>
        <time>2019-05-30T10:30:49.000Z</time>
      </trkpt>
      <trkpt lat="43.54098" lon="6.62977">
        <ele>427.79998779297</ele>
        <time>2019-05-30T10:30:50.000Z</time>
      </trkpt>
      <trkpt lat="43.54101" lon="6.62966">
        <ele>427</ele>
        <time>2019-05-30T10:30:51.000Z</time>
      </trkpt>
      <trkpt lat="43.54103" lon="6.62956">
        <ele>426.79998779297</ele>
        <time>2019-05-30T10:30:52.000Z</time>
      </trkpt>
      <trkpt lat="43.54105" lon="6.62946">
        <ele>425.79998779297</ele>
        <time>2019-05-30T10:30:53.000Z</time>
      </trkpt>
      <trkpt lat="43.54107" lon="6.62935">
        <ele>425</ele>
        <time>2019-05-30T10:30:54.000Z</time>
      </trkpt>
      <trkpt lat="43.5411" lon="6.62914">
        <ele>422.79998779297</ele>
        <time>2019-05-30T10:30:56.000Z</time>
      </trkpt>
      <trkpt lat="43.5411" lon="6.62894">
        <ele>422.20001220703</ele>
        <time>2019-05-30T10:30:58.000Z</time>
      </trkpt>
      <trkpt lat="43.5411" lon="6.62876">
        <ele>421.60000610352</ele>
        <time>2019-05-30T10:31:00.000Z</time>
      </trkpt>
      <trkpt lat="43.54109" lon="6.62855">
        <ele>421.20001220703</ele>
        <time>2019-05-30T10:31:03.000Z</time>
      </trkpt>
      <trkpt lat="43.54107" lon="6.62837">
        <ele>422</ele>
        <time>2019-05-30T10:31:06.000Z</time>
      </trkpt>
      <trkpt lat="43.54106" lon="6.62832">
        <ele>422.20001220703</ele>
        <time>2019-05-30T10:31:07.000Z</time>
      </trkpt>
      <trkpt lat="43.54105" lon="6.62798">
        <ele>422</ele>
        <time>2019-05-30T10:31:12.000Z</time>
      </trkpt>
      <trkpt lat="43.54107" lon="6.62783">
        <ele>422.39999389648</ele>
        <time>2019-05-30T10:31:14.000Z</time>
      </trkpt>
      <trkpt lat="43.54109" lon="6.62762">
        <ele>422.20001220703</ele>
        <time>2019-05-30T10:31:17.000Z</time>
      </trkpt>
      <trkpt lat="43.54107" lon="6.62747">
        <ele>421.79998779297</ele>
        <time>2019-05-30T10:31:19.000Z</time>
      </trkpt>
      <trkpt lat="43.54106" lon="6.62741">
        <ele>421.79998779297</ele>
        <time>2019-05-30T10:31:20.000Z</time>
      </trkpt>
      <trkpt lat="43.54106" lon="6.62727">
        <ele>421.79998779297</ele>
        <time>2019-05-30T10:31:23.000Z</time>
      </trkpt>
      <trkpt lat="43.54106" lon="6.62712">
        <ele>422.79998779297</ele>
        <time>2019-05-30T10:31:26.000Z</time>
      </trkpt>
      <trkpt lat="43.54104" lon="6.6269">
        <ele>423.79998779297</ele>
        <time>2019-05-30T10:31:31.000Z</time>
      </trkpt>
      <trkpt lat="43.541" lon="6.62673">
        <ele>425</ele>
        <time>2019-05-30T10:31:36.000Z</time>
      </trkpt>
      <trkpt lat="43.54099" lon="6.62671">
        <ele>425.20001220703</ele>
        <time>2019-05-30T10:31:37.000Z</time>
      </trkpt>
      <trkpt lat="43.54094" lon="6.62659">
        <ele>426.20001220703</ele>
        <time>2019-05-30T10:31:41.000Z</time>
      </trkpt>
      <trkpt lat="43.54091" lon="6.6265">
        <ele>427.20001220703</ele>
        <time>2019-05-30T10:31:44.000Z</time>
      </trkpt>
      <trkpt lat="43.54091" lon="6.62647">
        <ele>427.60000610352</ele>
        <time>2019-05-30T10:31:45.000Z</time>
      </trkpt>
      <trkpt lat="43.54087" lon="6.62637">
        <ele>427.60000610352</ele>
        <time>2019-05-30T10:31:50.000Z</time>
      </trkpt>
      <trkpt lat="43.54085" lon="6.62633">
        <ele>428.79998779297</ele>
        <time>2019-05-30T10:31:52.000Z</time>
      </trkpt>
      <trkpt lat="43.54081" lon="6.62626">
        <ele>429.39999389648</ele>
        <time>2019-05-30T10:31:56.000Z</time>
      </trkpt>
      <trkpt lat="43.54079" lon="6.62622">
        <ele>429.79998779297</ele>
        <time>2019-05-30T10:31:58.000Z</time>
      </trkpt>
      <trkpt lat="43.54076" lon="6.62615">
        <ele>430.79998779297</ele>
        <time>2019-05-30T10:32:02.000Z</time>
      </trkpt>
      <trkpt lat="43.54075" lon="6.62613">
        <ele>431</ele>
        <time>2019-05-30T10:32:03.000Z</time>
      </trkpt>
      <trkpt lat="43.54073" lon="6.62608">
        <ele>431.60000610352</ele>
        <time>2019-05-30T10:32:07.000Z</time>
      </trkpt>
      <trkpt lat="43.54072" lon="6.62606">
        <ele>432</ele>
        <time>2019-05-30T10:32:09.000Z</time>
      </trkpt>
      <trkpt lat="43.54068" lon="6.62602">
        <ele>432.79998779297</ele>
        <time>2019-05-30T10:32:12.000Z</time>
      </trkpt>
      <trkpt lat="43.54067" lon="6.62597">
        <ele>433</ele>
        <time>2019-05-30T10:32:14.000Z</time>
      </trkpt>
      <trkpt lat="43.54066" lon="6.6259">
        <ele>433.79998779297</ele>
        <time>2019-05-30T10:32:18.000Z</time>
      </trkpt>
      <trkpt lat="43.54067" lon="6.62587">
        <ele>434.39999389648</ele>
        <time>2019-05-30T10:32:20.000Z</time>
      </trkpt>
      <trkpt lat="43.54066" lon="6.62586">
        <ele>434.79998779297</ele>
        <time>2019-05-30T10:32:21.000Z</time>
      </trkpt>
      <trkpt lat="43.54065" lon="6.62583">
        <ele>435.20001220703</ele>
        <time>2019-05-30T10:32:23.000Z</time>
      </trkpt>
      <trkpt lat="43.54065" lon="6.62581">
        <ele>435.39999389648</ele>
        <time>2019-05-30T10:32:24.000Z</time>
      </trkpt>
      <trkpt lat="43.54064" lon="6.62574">
        <ele>436.60000610352</ele>
        <time>2019-05-30T10:32:29.000Z</time>
      </trkpt>
      <trkpt lat="43.54063" lon="6.62571">
        <ele>437</ele>
        <time>2019-05-30T10:32:31.000Z</time>
      </trkpt>
      <trkpt lat="43.54062" lon="6.62567">
        <ele>437.60000610352</ele>
        <time>2019-05-30T10:32:34.000Z</time>
      </trkpt>
      <trkpt lat="43.54061" lon="6.62563">
        <ele>438.20001220703</ele>
        <time>2019-05-30T10:32:37.000Z</time>
      </trkpt>
      <trkpt lat="43.5406" lon="6.6256">
        <ele>438.60000610352</ele>
        <time>2019-05-30T10:32:39.000Z</time>
      </trkpt>
      <trkpt lat="43.54058" lon="6.62554">
        <ele>439.79998779297</ele>
        <time>2019-05-30T10:32:43.000Z</time>
      </trkpt>
      <trkpt lat="43.54058" lon="6.62553">
        <ele>440</ele>
        <time>2019-05-30T10:32:44.000Z</time>
      </trkpt>
      <trkpt lat="43.54056" lon="6.62546">
        <ele>440.79998779297</ele>
        <time>2019-05-30T10:32:48.000Z</time>
      </trkpt>
      <trkpt lat="43.54055" lon="6.62539">
        <ele>441.20001220703</ele>
        <time>2019-05-30T10:32:52.000Z</time>
      </trkpt>
      <trkpt lat="43.54054" lon="6.62533">
        <ele>442</ele>
        <time>2019-05-30T10:32:56.000Z</time>
      </trkpt>
      <trkpt lat="43.54051" lon="6.62524">
        <ele>442.79998779297</ele>
        <time>2019-05-30T10:33:01.000Z</time>
      </trkpt>
      <trkpt lat="43.54051" lon="6.62522">
        <ele>443</ele>
        <time>2019-05-30T10:33:03.000Z</time>
      </trkpt>
      <trkpt lat="43.54048" lon="6.62513">
        <ele>443.60000610352</ele>
        <time>2019-05-30T10:33:08.000Z</time>
      </trkpt>
      <trkpt lat="43.54048" lon="6.62508">
        <ele>444.20001220703</ele>
        <time>2019-05-30T10:33:11.000Z</time>
      </trkpt>
      <trkpt lat="43.54048" lon="6.62504">
        <ele>444.39999389648</ele>
        <time>2019-05-30T10:33:13.000Z</time>
      </trkpt>
      <trkpt lat="43.54047" lon="6.62496">
        <ele>445.39999389648</ele>
        <time>2019-05-30T10:33:18.000Z</time>
      </trkpt>
      <trkpt lat="43.54047" lon="6.62492">
        <ele>445.60000610352</ele>
        <time>2019-05-30T10:33:20.000Z</time>
      </trkpt>
      <trkpt lat="43.54049" lon="6.62487">
        <ele>446</ele>
        <time>2019-05-30T10:33:23.000Z</time>
      </trkpt>
      <trkpt lat="43.5405" lon="6.62481">
        <ele>446.39999389648</ele>
        <time>2019-05-30T10:33:26.000Z</time>
      </trkpt>
      <trkpt lat="43.5405" lon="6.62476">
        <ele>446.60000610352</ele>
        <time>2019-05-30T10:33:29.000Z</time>
      </trkpt>
      <trkpt lat="43.54051" lon="6.62468">
        <ele>447</ele>
        <time>2019-05-30T10:33:33.000Z</time>
      </trkpt>
      <trkpt lat="43.54052" lon="6.6246">
        <ele>447.60000610352</ele>
        <time>2019-05-30T10:33:37.000Z</time>
      </trkpt>
      <trkpt lat="43.54051" lon="6.62454">
        <ele>448.20001220703</ele>
        <time>2019-05-30T10:33:40.000Z</time>
      </trkpt>
      <trkpt lat="43.54051" lon="6.6245">
        <ele>448.60000610352</ele>
        <time>2019-05-30T10:33:42.000Z</time>
      </trkpt>
      <trkpt lat="43.5405" lon="6.62439">
        <ele>449.20001220703</ele>
        <time>2019-05-30T10:33:48.000Z</time>
      </trkpt>
      <trkpt lat="43.54049" lon="6.62435">
        <ele>449.60000610352</ele>
        <time>2019-05-30T10:33:50.000Z</time>
      </trkpt>
      <trkpt lat="43.54048" lon="6.62426">
        <ele>450.60000610352</ele>
        <time>2019-05-30T10:33:55.000Z</time>
      </trkpt>
      <trkpt lat="43.54048" lon="6.62425">
        <ele>450.79998779297</ele>
        <time>2019-05-30T10:33:56.000Z</time>
      </trkpt>
      <trkpt lat="43.54047" lon="6.62416">
        <ele>451.79998779297</ele>
        <time>2019-05-30T10:34:01.000Z</time>
      </trkpt>
      <trkpt lat="43.54047" lon="6.62411">
        <ele>452.20001220703</ele>
        <time>2019-05-30T10:34:04.000Z</time>
      </trkpt>
      <trkpt lat="43.54047" lon="6.62406">
        <ele>452.79998779297</ele>
        <time>2019-05-30T10:34:07.000Z</time>
      </trkpt>
      <trkpt lat="43.54047" lon="6.62403">
        <ele>453</ele>
        <time>2019-05-30T10:34:08.000Z</time>
      </trkpt>
      <trkpt lat="43.54043" lon="6.62392">
        <ele>453.79998779297</ele>
        <time>2019-05-30T10:34:14.000Z</time>
      </trkpt>
      <trkpt lat="43.54037" lon="6.6238">
        <ele>454.79998779297</ele>
        <time>2019-05-30T10:34:22.000Z</time>
      </trkpt>
      <trkpt lat="43.54033" lon="6.62374">
        <ele>455.39999389648</ele>
        <time>2019-05-30T10:34:26.000Z</time>
      </trkpt>
      <trkpt lat="43.54031" lon="6.62371">
        <ele>455.79998779297</ele>
        <time>2019-05-30T10:34:28.000Z</time>
      </trkpt>
      <trkpt lat="43.5403" lon="6.6237">
        <ele>455.79998779297</ele>
        <time>2019-05-30T10:34:29.000Z</time>
      </trkpt>
      <trkpt lat="43.54026" lon="6.62362">
        <ele>456.60000610352</ele>
        <time>2019-05-30T10:34:34.000Z</time>
      </trkpt>
      <trkpt lat="43.54024" lon="6.6236">
        <ele>457</ele>
        <time>2019-05-30T10:34:36.000Z</time>
      </trkpt>
      <trkpt lat="43.54019" lon="6.62354">
        <ele>458</ele>
        <time>2019-05-30T10:34:41.000Z</time>
      </trkpt>
      <trkpt lat="43.54019" lon="6.62353">
        <ele>458.20001220703</ele>
        <time>2019-05-30T10:34:42.000Z</time>
      </trkpt>
      <trkpt lat="43.54013" lon="6.62345">
        <ele>459</ele>
        <time>2019-05-30T10:34:48.000Z</time>
      </trkpt>
      <trkpt lat="43.54012" lon="6.62342">
        <ele>459.20001220703</ele>
        <time>2019-05-30T10:34:50.000Z</time>
      </trkpt>
      <trkpt lat="43.5401" lon="6.62335">
        <ele>459.79998779297</ele>
        <time>2019-05-30T10:34:54.000Z</time>
      </trkpt>
      <trkpt lat="43.54009" lon="6.62331">
        <ele>460</ele>
        <time>2019-05-30T10:34:56.000Z</time>
      </trkpt>
      <trkpt lat="43.54008" lon="6.62328">
        <ele>460.39999389648</ele>
        <time>2019-05-30T10:34:58.000Z</time>
      </trkpt>
      <trkpt lat="43.54007" lon="6.62326">
        <ele>460.60000610352</ele>
        <time>2019-05-30T10:34:59.000Z</time>
      </trkpt>
      <trkpt lat="43.54005" lon="6.62314">
        <ele>461.20001220703</ele>
        <time>2019-05-30T10:35:05.000Z</time>
      </trkpt>
      <trkpt lat="43.54004" lon="6.62312">
        <ele>461.39999389648</ele>
        <time>2019-05-30T10:35:06.000Z</time>
      </trkpt>
      <trkpt lat="43.54002" lon="6.62306">
        <ele>461.60000610352</ele>
        <time>2019-05-30T10:35:08.000Z</time>
      </trkpt>
      <trkpt lat="43.54001" lon="6.62301">
        <ele>461.79998779297</ele>
        <time>2019-05-30T10:35:10.000Z</time>
      </trkpt>
      <trkpt lat="43.54" lon="6.62281">
        <ele>461.79998779297</ele>
        <time>2019-05-30T10:35:15.000Z</time>
      </trkpt>
      <trkpt lat="43.54" lon="6.62277">
        <ele>461.79998779297</ele>
        <time>2019-05-30T10:35:16.000Z</time>
      </trkpt>
      <trkpt lat="43.54" lon="6.62246">
        <ele>461.20001220703</ele>
        <time>2019-05-30T10:35:21.000Z</time>
      </trkpt>
      <trkpt lat="43.54" lon="6.62232">
        <ele>460.20001220703</ele>
        <time>2019-05-30T10:35:23.000Z</time>
      </trkpt>
      <trkpt lat="43.54001" lon="6.62214">
        <ele>458.79998779297</ele>
        <time>2019-05-30T10:35:25.000Z</time>
      </trkpt>
      <trkpt lat="43.54" lon="6.62205">
        <ele>458.20001220703</ele>
        <time>2019-05-30T10:35:26.000Z</time>
      </trkpt>
      <trkpt lat="43.53998" lon="6.62186">
        <ele>457.60000610352</ele>
        <time>2019-05-30T10:35:28.000Z</time>
      </trkpt>
      <trkpt lat="43.53995" lon="6.62162">
        <ele>456.79998779297</ele>
        <time>2019-05-30T10:35:31.000Z</time>
      </trkpt>
      <trkpt lat="43.53993" lon="6.62146">
        <ele>456.79998779297</ele>
        <time>2019-05-30T10:35:33.000Z</time>
      </trkpt>
      <trkpt lat="43.53992" lon="6.62136">
        <ele>457</ele>
        <time>2019-05-30T10:35:35.000Z</time>
      </trkpt>
      <trkpt lat="43.53989" lon="6.62118">
        <ele>458.20001220703</ele>
        <time>2019-05-30T10:35:40.000Z</time>
      </trkpt>
      <trkpt lat="43.53988" lon="6.62111">
        <ele>458.60000610352</ele>
        <time>2019-05-30T10:35:42.000Z</time>
      </trkpt>
      <trkpt lat="43.53985" lon="6.62097">
        <ele>459.79998779297</ele>
        <time>2019-05-30T10:35:46.000Z</time>
      </trkpt>
      <trkpt lat="43.53984" lon="6.62094">
        <ele>460</ele>
        <time>2019-05-30T10:35:47.000Z</time>
      </trkpt>
      <trkpt lat="43.53982" lon="6.62081">
        <ele>460.79998779297</ele>
        <time>2019-05-30T10:35:51.000Z</time>
      </trkpt>
      <trkpt lat="43.53981" lon="6.6207">
        <ele>462</ele>
        <time>2019-05-30T10:35:55.000Z</time>
      </trkpt>
      <trkpt lat="43.5398" lon="6.62062">
        <ele>462.79998779297</ele>
        <time>2019-05-30T10:35:58.000Z</time>
      </trkpt>
      <trkpt lat="43.53979" lon="6.62059">
        <ele>463.20001220703</ele>
        <time>2019-05-30T10:35:59.000Z</time>
      </trkpt>
      <trkpt lat="43.53977" lon="6.62047">
        <ele>464.39999389648</ele>
        <time>2019-05-30T10:36:03.000Z</time>
      </trkpt>
      <trkpt lat="43.53975" lon="6.62035">
        <ele>465.20001220703</ele>
        <time>2019-05-30T10:36:07.000Z</time>
      </trkpt>
      <trkpt lat="43.53973" lon="6.62026">
        <ele>465.60000610352</ele>
        <time>2019-05-30T10:36:10.000Z</time>
      </trkpt>
      <trkpt lat="43.53968" lon="6.62004">
        <ele>466</ele>
        <time>2019-05-30T10:36:17.000Z</time>
      </trkpt>
      <trkpt lat="43.53965" lon="6.61989">
        <ele>466.60000610352</ele>
        <time>2019-05-30T10:36:21.000Z</time>
      </trkpt>
      <trkpt lat="43.53961" lon="6.61975">
        <ele>466.60000610352</ele>
        <time>2019-05-30T10:36:25.000Z</time>
      </trkpt>
      <trkpt lat="43.53958" lon="6.61971">
        <ele>466.60000610352</ele>
        <time>2019-05-30T10:36:27.000Z</time>
      </trkpt>
      <trkpt lat="43.53955" lon="6.61971">
        <ele>466.60000610352</ele>
        <time>2019-05-30T10:36:29.000Z</time>
      </trkpt>
      <trkpt lat="43.53952" lon="6.61978">
        <ele>467.39999389648</ele>
        <time>2019-05-30T10:36:34.000Z</time>
      </trkpt>
      <trkpt lat="43.53951" lon="6.61982">
        <ele>467.60000610352</ele>
        <time>2019-05-30T10:36:36.000Z</time>
      </trkpt>
      <trkpt lat="43.5395" lon="6.61987">
        <ele>468.20001220703</ele>
        <time>2019-05-30T10:36:39.000Z</time>
      </trkpt>
      <trkpt lat="43.5395" lon="6.61991">
        <ele>468.79998779297</ele>
        <time>2019-05-30T10:36:41.000Z</time>
      </trkpt>
      <trkpt lat="43.5395" lon="6.61993">
        <ele>469</ele>
        <time>2019-05-30T10:36:42.000Z</time>
      </trkpt>
      <trkpt lat="43.53948" lon="6.62002">
        <ele>470</ele>
        <time>2019-05-30T10:36:46.000Z</time>
      </trkpt>
      <trkpt lat="43.53945" lon="6.62014">
        <ele>470.79998779297</ele>
        <time>2019-05-30T10:36:52.000Z</time>
      </trkpt>
      <trkpt lat="43.53944" lon="6.62016">
        <ele>471</ele>
        <time>2019-05-30T10:36:53.000Z</time>
      </trkpt>
      <trkpt lat="43.53937" lon="6.62037">
        <ele>471.79998779297</ele>
        <time>2019-05-30T10:37:02.000Z</time>
      </trkpt>
      <trkpt lat="43.53936" lon="6.62041">
        <ele>472.20001220703</ele>
        <time>2019-05-30T10:37:04.000Z</time>
      </trkpt>
      <trkpt lat="43.5393" lon="6.62055">
        <ele>473.39999389648</ele>
        <time>2019-05-30T10:37:10.000Z</time>
      </trkpt>
      <trkpt lat="43.5393" lon="6.62057">
        <ele>473.39999389648</ele>
        <time>2019-05-30T10:37:11.000Z</time>
      </trkpt>
      <trkpt lat="43.53926" lon="6.62066">
        <ele>474.39999389648</ele>
        <time>2019-05-30T10:37:15.000Z</time>
      </trkpt>
      <trkpt lat="43.53921" lon="6.62075">
        <ele>475.39999389648</ele>
        <time>2019-05-30T10:37:20.000Z</time>
      </trkpt>
      <trkpt lat="43.53918" lon="6.62082">
        <ele>476.39999389648</ele>
        <time>2019-05-30T10:37:24.000Z</time>
      </trkpt>
      <trkpt lat="43.53912" lon="6.62092">
        <ele>477.39999389648</ele>
        <time>2019-05-30T10:37:30.000Z</time>
      </trkpt>
      <trkpt lat="43.53905" lon="6.62102">
        <ele>478.39999389648</ele>
        <time>2019-05-30T10:37:37.000Z</time>
      </trkpt>
      <trkpt lat="43.53904" lon="6.62104">
        <ele>478.60000610352</ele>
        <time>2019-05-30T10:37:38.000Z</time>
      </trkpt>
      <trkpt lat="43.53901" lon="6.6211">
        <ele>479.60000610352</ele>
        <time>2019-05-30T10:37:42.000Z</time>
      </trkpt>
      <trkpt lat="43.53897" lon="6.62117">
        <ele>480.39999389648</ele>
        <time>2019-05-30T10:37:46.000Z</time>
      </trkpt>
      <trkpt lat="43.53893" lon="6.62123">
        <ele>480.60000610352</ele>
        <time>2019-05-30T10:37:49.000Z</time>
      </trkpt>
      <trkpt lat="43.53889" lon="6.62133">
        <ele>480.79998779297</ele>
        <time>2019-05-30T10:37:53.000Z</time>
      </trkpt>
      <trkpt lat="43.53884" lon="6.62147">
        <ele>481.60000610352</ele>
        <time>2019-05-30T10:37:58.000Z</time>
      </trkpt>
      <trkpt lat="43.53879" lon="6.62163">
        <ele>481.79998779297</ele>
        <time>2019-05-30T10:38:03.000Z</time>
      </trkpt>
      <trkpt lat="43.53873" lon="6.62189">
        <ele>482.79998779297</ele>
        <time>2019-05-30T10:38:11.000Z</time>
      </trkpt>
      <trkpt lat="43.53872" lon="6.62192">
        <ele>482.79998779297</ele>
        <time>2019-05-30T10:38:12.000Z</time>
      </trkpt>
      <trkpt lat="43.53869" lon="6.62218">
        <ele>483.60000610352</ele>
        <time>2019-05-30T10:38:20.000Z</time>
      </trkpt>
      <trkpt lat="43.53869" lon="6.62223">
        <ele>483.79998779297</ele>
        <time>2019-05-30T10:38:22.000Z</time>
      </trkpt>
      <trkpt lat="43.53869" lon="6.62238">
        <ele>484.79998779297</ele>
        <time>2019-05-30T10:38:27.000Z</time>
      </trkpt>
      <trkpt lat="43.53869" lon="6.62241">
        <ele>485</ele>
        <time>2019-05-30T10:38:28.000Z</time>
      </trkpt>
      <trkpt lat="43.53869" lon="6.62253">
        <ele>486.20001220703</ele>
        <time>2019-05-30T10:38:33.000Z</time>
      </trkpt>
      <trkpt lat="43.53869" lon="6.62262">
        <ele>487.20001220703</ele>
        <time>2019-05-30T10:38:37.000Z</time>
      </trkpt>
      <trkpt lat="43.53868" lon="6.62273">
        <ele>488.20001220703</ele>
        <time>2019-05-30T10:38:42.000Z</time>
      </trkpt>
      <trkpt lat="43.53867" lon="6.6229">
        <ele>489.39999389648</ele>
        <time>2019-05-30T10:38:49.000Z</time>
      </trkpt>
      <trkpt lat="43.53867" lon="6.62296">
        <ele>490</ele>
        <time>2019-05-30T10:38:52.000Z</time>
      </trkpt>
      <trkpt lat="43.53866" lon="6.62305">
        <ele>490.60000610352</ele>
        <time>2019-05-30T10:38:56.000Z</time>
      </trkpt>
      <trkpt lat="43.53865" lon="6.62317">
        <ele>491.60000610352</ele>
        <time>2019-05-30T10:39:02.000Z</time>
      </trkpt>
      <trkpt lat="43.53862" lon="6.62336">
        <ele>492.60000610352</ele>
        <time>2019-05-30T10:39:10.000Z</time>
      </trkpt>
      <trkpt lat="43.53862" lon="6.62348">
        <ele>493.79998779297</ele>
        <time>2019-05-30T10:39:16.000Z</time>
      </trkpt>
      <trkpt lat="43.53862" lon="6.62352">
        <ele>494</ele>
        <time>2019-05-30T10:39:18.000Z</time>
      </trkpt>
      <trkpt lat="43.53863" lon="6.62362">
        <ele>494.79998779297</ele>
        <time>2019-05-30T10:39:23.000Z</time>
      </trkpt>
      <trkpt lat="43.53862" lon="6.62371">
        <ele>495.60000610352</ele>
        <time>2019-05-30T10:39:27.000Z</time>
      </trkpt>
      <trkpt lat="43.53862" lon="6.62375">
        <ele>496</ele>
        <time>2019-05-30T10:39:29.000Z</time>
      </trkpt>
      <trkpt lat="43.5386" lon="6.62391">
        <ele>497</ele>
        <time>2019-05-30T10:39:36.000Z</time>
      </trkpt>
      <trkpt lat="43.53856" lon="6.62405">
        <ele>498</ele>
        <time>2019-05-30T10:39:42.000Z</time>
      </trkpt>
      <trkpt lat="43.53855" lon="6.62408">
        <ele>498</ele>
        <time>2019-05-30T10:39:43.000Z</time>
      </trkpt>
      <trkpt lat="43.53848" lon="6.6242">
        <ele>498.39999389648</ele>
        <time>2019-05-30T10:39:48.000Z</time>
      </trkpt>
      <trkpt lat="43.53843" lon="6.62431">
        <ele>499.20001220703</ele>
        <time>2019-05-30T10:39:54.000Z</time>
      </trkpt>
      <trkpt lat="43.53842" lon="6.62435">
        <ele>499.60000610352</ele>
        <time>2019-05-30T10:39:56.000Z</time>
      </trkpt>
      <trkpt lat="43.5384" lon="6.62443">
        <ele>500.20001220703</ele>
        <time>2019-05-30T10:40:00.000Z</time>
      </trkpt>
      <trkpt lat="43.53838" lon="6.62451">
        <ele>500.79998779297</ele>
        <time>2019-05-30T10:40:04.000Z</time>
      </trkpt>
      <trkpt lat="43.53838" lon="6.62455">
        <ele>501.20001220703</ele>
        <time>2019-05-30T10:40:06.000Z</time>
      </trkpt>
      <trkpt lat="43.53835" lon="6.62466">
        <ele>502.20001220703</ele>
        <time>2019-05-30T10:40:12.000Z</time>
      </trkpt>
      <trkpt lat="43.53833" lon="6.6248">
        <ele>503.39999389648</ele>
        <time>2019-05-30T10:40:19.000Z</time>
      </trkpt>
      <trkpt lat="43.53833" lon="6.62489">
        <ele>503.79998779297</ele>
        <time>2019-05-30T10:40:23.000Z</time>
      </trkpt>
      <trkpt lat="43.53834" lon="6.62501">
        <ele>504.39999389648</ele>
        <time>2019-05-30T10:40:28.000Z</time>
      </trkpt>
      <trkpt lat="43.53835" lon="6.62511">
        <ele>504.60000610352</ele>
        <time>2019-05-30T10:40:32.000Z</time>
      </trkpt>
      <trkpt lat="43.53837" lon="6.62527">
        <ele>505.39999389648</ele>
        <time>2019-05-30T10:40:38.000Z</time>
      </trkpt>
      <trkpt lat="43.53838" lon="6.62532">
        <ele>505.60000610352</ele>
        <time>2019-05-30T10:40:40.000Z</time>
      </trkpt>
      <trkpt lat="43.53839" lon="6.62547">
        <ele>506.39999389648</ele>
        <time>2019-05-30T10:40:45.000Z</time>
      </trkpt>
      <trkpt lat="43.53839" lon="6.62551">
        <ele>506.60000610352</ele>
        <time>2019-05-30T10:40:47.000Z</time>
      </trkpt>
      <trkpt lat="43.53838" lon="6.62577">
        <ele>507.60000610352</ele>
        <time>2019-05-30T10:40:58.000Z</time>
      </trkpt>
      <trkpt lat="43.53834" lon="6.626">
        <ele>508.60000610352</ele>
        <time>2019-05-30T10:41:06.000Z</time>
      </trkpt>
      <trkpt lat="43.53829" lon="6.62625">
        <ele>509.39999389648</ele>
        <time>2019-05-30T10:41:14.000Z</time>
      </trkpt>
      <trkpt lat="43.53828" lon="6.62629">
        <ele>509.60000610352</ele>
        <time>2019-05-30T10:41:15.000Z</time>
      </trkpt>
      <trkpt lat="43.53823" lon="6.62652">
        <ele>509.60000610352</ele>
        <time>2019-05-30T10:41:20.000Z</time>
      </trkpt>
      <trkpt lat="43.53814" lon="6.62683">
        <ele>508.39999389648</ele>
        <time>2019-05-30T10:41:25.000Z</time>
      </trkpt>
      <trkpt lat="43.53808" lon="6.62709">
        <ele>507</ele>
        <time>2019-05-30T10:41:28.000Z</time>
      </trkpt>
      <trkpt lat="43.53806" lon="6.62718">
        <ele>506</ele>
        <time>2019-05-30T10:41:29.000Z</time>
      </trkpt>
      <trkpt lat="43.53794" lon="6.62766">
        <ele>505</ele>
        <time>2019-05-30T10:41:34.000Z</time>
      </trkpt>
      <trkpt lat="43.5379" lon="6.62784">
        <ele>504</ele>
        <time>2019-05-30T10:41:36.000Z</time>
      </trkpt>
      <trkpt lat="43.53788" lon="6.62792">
        <ele>503.79998779297</ele>
        <time>2019-05-30T10:41:37.000Z</time>
      </trkpt>
      <trkpt lat="43.53784" lon="6.62835">
        <ele>502.79998779297</ele>
        <time>2019-05-30T10:41:42.000Z</time>
      </trkpt>
      <trkpt lat="43.53784" lon="6.62843">
        <ele>502.60000610352</ele>
        <time>2019-05-30T10:41:43.000Z</time>
      </trkpt>
      <trkpt lat="43.53784" lon="6.62884">
        <ele>502.79998779297</ele>
        <time>2019-05-30T10:41:49.000Z</time>
      </trkpt>
      <trkpt lat="43.53785" lon="6.62912">
        <ele>503.60000610352</ele>
        <time>2019-05-30T10:41:55.000Z</time>
      </trkpt>
      <trkpt lat="43.53786" lon="6.62916">
        <ele>503.79998779297</ele>
        <time>2019-05-30T10:41:56.000Z</time>
      </trkpt>
      <trkpt lat="43.53788" lon="6.62931">
        <ele>504.79998779297</ele>
        <time>2019-05-30T10:42:01.000Z</time>
      </trkpt>
      <trkpt lat="43.5379" lon="6.62936">
        <ele>505.39999389648</ele>
        <time>2019-05-30T10:42:03.000Z</time>
      </trkpt>
      <trkpt lat="43.53792" lon="6.62944">
        <ele>506</ele>
        <time>2019-05-30T10:42:06.000Z</time>
      </trkpt>
      <trkpt lat="43.53794" lon="6.62952">
        <ele>506.39999389648</ele>
        <time>2019-05-30T10:42:09.000Z</time>
      </trkpt>
      <trkpt lat="43.53796" lon="6.62957">
        <ele>507.20001220703</ele>
        <time>2019-05-30T10:42:12.000Z</time>
      </trkpt>
      <trkpt lat="43.53799" lon="6.62963">
        <ele>507.79998779297</ele>
        <time>2019-05-30T10:42:16.000Z</time>
      </trkpt>
      <trkpt lat="43.538" lon="6.62968">
        <ele>508.20001220703</ele>
        <time>2019-05-30T10:42:19.000Z</time>
      </trkpt>
      <trkpt lat="43.53802" lon="6.62975">
        <ele>508.39999389648</ele>
        <time>2019-05-30T10:42:23.000Z</time>
      </trkpt>
      <trkpt lat="43.53805" lon="6.62988">
        <ele>508.79998779297</ele>
        <time>2019-05-30T10:42:30.000Z</time>
      </trkpt>
      <trkpt lat="43.53807" lon="6.62996">
        <ele>509.20001220703</ele>
        <time>2019-05-30T10:42:34.000Z</time>
      </trkpt>
      <trkpt lat="43.5381" lon="6.63008">
        <ele>510</ele>
        <time>2019-05-30T10:42:39.000Z</time>
      </trkpt>
      <trkpt lat="43.5381" lon="6.6301">
        <ele>510.20001220703</ele>
        <time>2019-05-30T10:42:40.000Z</time>
      </trkpt>
      <trkpt lat="43.53811" lon="6.63017">
        <ele>511.20001220703</ele>
        <time>2019-05-30T10:42:43.000Z</time>
      </trkpt>
      <trkpt lat="43.53812" lon="6.63027">
        <ele>511.79998779297</ele>
        <time>2019-05-30T10:42:47.000Z</time>
      </trkpt>
      <trkpt lat="43.53812" lon="6.63044">
        <ele>512.20001220703</ele>
        <time>2019-05-30T10:42:53.000Z</time>
      </trkpt>
      <trkpt lat="43.53812" lon="6.63047">
        <ele>512.40002441406</ele>
        <time>2019-05-30T10:42:54.000Z</time>
      </trkpt>
      <trkpt lat="43.53809" lon="6.63068">
        <ele>513.40002441406</ele>
        <time>2019-05-30T10:43:01.000Z</time>
      </trkpt>
      <trkpt lat="43.53803" lon="6.63092">
        <ele>513.59997558594</ele>
        <time>2019-05-30T10:43:08.000Z</time>
      </trkpt>
      <trkpt lat="43.53802" lon="6.63121">
        <ele>513.79998779297</ele>
        <time>2019-05-30T10:43:16.000Z</time>
      </trkpt>
      <trkpt lat="43.53802" lon="6.6313">
        <ele>514.40002441406</ele>
        <time>2019-05-30T10:43:19.000Z</time>
      </trkpt>
      <trkpt lat="43.53803" lon="6.63142">
        <ele>515.59997558594</ele>
        <time>2019-05-30T10:43:23.000Z</time>
      </trkpt>
      <trkpt lat="43.53804" lon="6.63166">
        <ele>516.40002441406</ele>
        <time>2019-05-30T10:43:32.000Z</time>
      </trkpt>
      <trkpt lat="43.53804" lon="6.63169">
        <ele>516.59997558594</ele>
        <time>2019-05-30T10:43:33.000Z</time>
      </trkpt>
      <trkpt lat="43.53802" lon="6.63188">
        <ele>517.59997558594</ele>
        <time>2019-05-30T10:43:40.000Z</time>
      </trkpt>
      <trkpt lat="43.53799" lon="6.63207">
        <ele>518.20001220703</ele>
        <time>2019-05-30T10:43:47.000Z</time>
      </trkpt>
      <trkpt lat="43.53796" lon="6.63218">
        <ele>518.79998779297</ele>
        <time>2019-05-30T10:43:51.000Z</time>
      </trkpt>
      <trkpt lat="43.53793" lon="6.63225">
        <ele>519.40002441406</ele>
        <time>2019-05-30T10:43:54.000Z</time>
      </trkpt>
      <trkpt lat="43.53792" lon="6.6323">
        <ele>519.79998779297</ele>
        <time>2019-05-30T10:43:56.000Z</time>
      </trkpt>
      <trkpt lat="43.53786" lon="6.63243">
        <ele>521</ele>
        <time>2019-05-30T10:44:02.000Z</time>
      </trkpt>
      <trkpt lat="43.5378" lon="6.63261">
        <ele>522.20001220703</ele>
        <time>2019-05-30T10:44:09.000Z</time>
      </trkpt>
      <trkpt lat="43.53779" lon="6.63263">
        <ele>522.40002441406</ele>
        <time>2019-05-30T10:44:10.000Z</time>
      </trkpt>
      <trkpt lat="43.53776" lon="6.63268">
        <ele>523.20001220703</ele>
        <time>2019-05-30T10:44:13.000Z</time>
      </trkpt>
      <trkpt lat="43.53773" lon="6.63274">
        <ele>524</ele>
        <time>2019-05-30T10:44:17.000Z</time>
      </trkpt>
      <trkpt lat="43.53772" lon="6.63276">
        <ele>524.40002441406</ele>
        <time>2019-05-30T10:44:18.000Z</time>
      </trkpt>
      <trkpt lat="43.53768" lon="6.63282">
        <ele>525.40002441406</ele>
        <time>2019-05-30T10:44:23.000Z</time>
      </trkpt>
      <trkpt lat="43.53767" lon="6.63283">
        <ele>525.59997558594</ele>
        <time>2019-05-30T10:44:24.000Z</time>
      </trkpt>
      <trkpt lat="43.53763" lon="6.63289">
        <ele>526.40002441406</ele>
        <time>2019-05-30T10:44:29.000Z</time>
      </trkpt>
      <trkpt lat="43.53758" lon="6.63295">
        <ele>527.40002441406</ele>
        <time>2019-05-30T10:44:34.000Z</time>
      </trkpt>
      <trkpt lat="43.53757" lon="6.63296">
        <ele>527.59997558594</ele>
        <time>2019-05-30T10:44:35.000Z</time>
      </trkpt>
      <trkpt lat="43.53748" lon="6.63305">
        <ele>528.40002441406</ele>
        <time>2019-05-30T10:44:43.000Z</time>
      </trkpt>
      <trkpt lat="43.53743" lon="6.63308">
        <ele>528.59997558594</ele>
        <time>2019-05-30T10:44:46.000Z</time>
      </trkpt>
      <trkpt lat="43.53731" lon="6.63316">
        <ele>529</ele>
        <time>2019-05-30T10:44:54.000Z</time>
      </trkpt>
      <trkpt lat="43.53722" lon="6.63321">
        <ele>529.59997558594</ele>
        <time>2019-05-30T10:45:00.000Z</time>
      </trkpt>
      <trkpt lat="43.53719" lon="6.63322">
        <ele>529.59997558594</ele>
        <time>2019-05-30T10:45:02.000Z</time>
      </trkpt>
      <trkpt lat="43.5371" lon="6.63326">
        <ele>530.59997558594</ele>
        <time>2019-05-30T10:45:09.000Z</time>
      </trkpt>
      <trkpt lat="43.53708" lon="6.63327">
        <ele>530.79998779297</ele>
        <time>2019-05-30T10:45:10.000Z</time>
      </trkpt>
      <trkpt lat="43.53701" lon="6.63328">
        <ele>531.79998779297</ele>
        <time>2019-05-30T10:45:15.000Z</time>
      </trkpt>
      <trkpt lat="43.53695" lon="6.63329">
        <ele>532.59997558594</ele>
        <time>2019-05-30T10:45:19.000Z</time>
      </trkpt>
      <trkpt lat="43.53693" lon="6.63329">
        <ele>532.79998779297</ele>
        <time>2019-05-30T10:45:20.000Z</time>
      </trkpt>
      <trkpt lat="43.53687" lon="6.6333">
        <ele>534</ele>
        <time>2019-05-30T10:45:24.000Z</time>
      </trkpt>
      <trkpt lat="43.53682" lon="6.63329">
        <ele>534.40002441406</ele>
        <time>2019-05-30T10:45:27.000Z</time>
      </trkpt>
      <trkpt lat="43.53678" lon="6.63329">
        <ele>535.20001220703</ele>
        <time>2019-05-30T10:45:30.000Z</time>
      </trkpt>
      <trkpt lat="43.5367" lon="6.63328">
        <ele>536.20001220703</ele>
        <time>2019-05-30T10:45:36.000Z</time>
      </trkpt>
      <trkpt lat="43.53662" lon="6.63326">
        <ele>537.40002441406</ele>
        <time>2019-05-30T10:45:42.000Z</time>
      </trkpt>
      <trkpt lat="43.53653" lon="6.63323">
        <ele>538.40002441406</ele>
        <time>2019-05-30T10:45:49.000Z</time>
      </trkpt>
      <trkpt lat="43.53649" lon="6.63321">
        <ele>539</ele>
        <time>2019-05-30T10:45:52.000Z</time>
      </trkpt>
      <trkpt lat="43.53644" lon="6.63317">
        <ele>539.20001220703</ele>
        <time>2019-05-30T10:45:55.000Z</time>
      </trkpt>
      <trkpt lat="43.53641" lon="6.63314">
        <ele>539.59997558594</ele>
        <time>2019-05-30T10:45:57.000Z</time>
      </trkpt>
      <trkpt lat="43.5364" lon="6.63313">
        <ele>539.59997558594</ele>
        <time>2019-05-30T10:45:58.000Z</time>
      </trkpt>
      <trkpt lat="43.53627" lon="6.63299">
        <ele>540.20001220703</ele>
        <time>2019-05-30T10:46:05.000Z</time>
      </trkpt>
      <trkpt lat="43.53611" lon="6.63282">
        <ele>539.59997558594</ele>
        <time>2019-05-30T10:46:11.000Z</time>
      </trkpt>
      <trkpt lat="43.53602" lon="6.6328">
        <ele>539.59997558594</ele>
        <time>2019-05-30T10:46:13.000Z</time>
      </trkpt>
      <trkpt lat="43.53594" lon="6.6328">
        <ele>539.59997558594</ele>
        <time>2019-05-30T10:46:15.000Z</time>
      </trkpt>
      <trkpt lat="43.53585" lon="6.63282">
        <ele>538.79998779297</ele>
        <time>2019-05-30T10:46:17.000Z</time>
      </trkpt>
      <trkpt lat="43.53578" lon="6.63284">
        <ele>538.20001220703</ele>
        <time>2019-05-30T10:46:18.000Z</time>
      </trkpt>
      <trkpt lat="43.53566" lon="6.63287">
        <ele>537.40002441406</ele>
        <time>2019-05-30T10:46:20.000Z</time>
      </trkpt>
      <trkpt lat="43.5356" lon="6.63286">
        <ele>537.20001220703</ele>
        <time>2019-05-30T10:46:21.000Z</time>
      </trkpt>
      <trkpt lat="43.5355" lon="6.6328">
        <ele>536</ele>
        <time>2019-05-30T10:46:23.000Z</time>
      </trkpt>
      <trkpt lat="43.53538" lon="6.63269">
        <ele>534.40002441406</ele>
        <time>2019-05-30T10:46:25.000Z</time>
      </trkpt>
      <trkpt lat="43.53532" lon="6.63262">
        <ele>533.40002441406</ele>
        <time>2019-05-30T10:46:26.000Z</time>
      </trkpt>
      <trkpt lat="43.53519" lon="6.63252">
        <ele>531.59997558594</ele>
        <time>2019-05-30T10:46:28.000Z</time>
      </trkpt>
      <trkpt lat="43.53506" lon="6.63243">
        <ele>529.40002441406</ele>
        <time>2019-05-30T10:46:30.000Z</time>
      </trkpt>
      <trkpt lat="43.53501" lon="6.63238">
        <ele>528.79998779297</ele>
        <time>2019-05-30T10:46:31.000Z</time>
      </trkpt>
      <trkpt lat="43.53498" lon="6.63233">
        <ele>529</ele>
        <time>2019-05-30T10:46:32.000Z</time>
      </trkpt>
      <trkpt lat="43.5349" lon="6.63226">
        <ele>528.20001220703</ele>
        <time>2019-05-30T10:46:34.000Z</time>
      </trkpt>
      <trkpt lat="43.53485" lon="6.63226">
        <ele>527.59997558594</ele>
        <time>2019-05-30T10:46:35.000Z</time>
      </trkpt>
      <trkpt lat="43.53479" lon="6.63227">
        <ele>526.79998779297</ele>
        <time>2019-05-30T10:46:36.000Z</time>
      </trkpt>
      <trkpt lat="43.53466" lon="6.63233">
        <ele>525.59997558594</ele>
        <time>2019-05-30T10:46:38.000Z</time>
      </trkpt>
      <trkpt lat="43.53461" lon="6.63234">
        <ele>524.59997558594</ele>
        <time>2019-05-30T10:46:39.000Z</time>
      </trkpt>
      <trkpt lat="43.53454" lon="6.63233">
        <ele>523.40002441406</ele>
        <time>2019-05-30T10:46:40.000Z</time>
      </trkpt>
      <trkpt lat="43.53449" lon="6.6323">
        <ele>522</ele>
        <time>2019-05-30T10:46:41.000Z</time>
      </trkpt>
      <trkpt lat="43.53444" lon="6.63225">
        <ele>520.59997558594</ele>
        <time>2019-05-30T10:46:42.000Z</time>
      </trkpt>
      <trkpt lat="43.53441" lon="6.63218">
        <ele>519</ele>
        <time>2019-05-30T10:46:43.000Z</time>
      </trkpt>
      <trkpt lat="43.53439" lon="6.63211">
        <ele>518</ele>
        <time>2019-05-30T10:46:44.000Z</time>
      </trkpt>
      <trkpt lat="43.53438" lon="6.63196">
        <ele>516</ele>
        <time>2019-05-30T10:46:46.000Z</time>
      </trkpt>
      <trkpt lat="43.53437" lon="6.63189">
        <ele>515.59997558594</ele>
        <time>2019-05-30T10:46:47.000Z</time>
      </trkpt>
      <trkpt lat="43.53437" lon="6.6318">
        <ele>514.79998779297</ele>
        <time>2019-05-30T10:46:48.000Z</time>
      </trkpt>
      <trkpt lat="43.53438" lon="6.63156">
        <ele>513.59997558594</ele>
        <time>2019-05-30T10:46:51.000Z</time>
      </trkpt>
      <trkpt lat="43.5344" lon="6.63142">
        <ele>512.79998779297</ele>
        <time>2019-05-30T10:46:53.000Z</time>
      </trkpt>
      <trkpt lat="43.53441" lon="6.63134">
        <ele>512.59997558594</ele>
        <time>2019-05-30T10:46:54.000Z</time>
      </trkpt>
      <trkpt lat="43.53442" lon="6.63128">
        <ele>512.59997558594</ele>
        <time>2019-05-30T10:46:55.000Z</time>
      </trkpt>
      <trkpt lat="43.53446" lon="6.63115">
        <ele>512.59997558594</ele>
        <time>2019-05-30T10:46:57.000Z</time>
      </trkpt>
      <trkpt lat="43.5345" lon="6.63103">
        <ele>512.40002441406</ele>
        <time>2019-05-30T10:46:59.000Z</time>
      </trkpt>
      <trkpt lat="43.53454" lon="6.63089">
        <ele>512.20001220703</ele>
        <time>2019-05-30T10:47:01.000Z</time>
      </trkpt>
      <trkpt lat="43.53455" lon="6.63074">
        <ele>511.79998779297</ele>
        <time>2019-05-30T10:47:03.000Z</time>
      </trkpt>
      <trkpt lat="43.53453" lon="6.63067">
        <ele>511.39999389648</ele>
        <time>2019-05-30T10:47:04.000Z</time>
      </trkpt>
      <trkpt lat="43.53444" lon="6.63055">
        <ele>510.79998779297</ele>
        <time>2019-05-30T10:47:06.000Z</time>
      </trkpt>
      <trkpt lat="43.53432" lon="6.63047">
        <ele>509.79998779297</ele>
        <time>2019-05-30T10:47:08.000Z</time>
      </trkpt>
      <trkpt lat="43.53425" lon="6.63043">
        <ele>508.60000610352</ele>
        <time>2019-05-30T10:47:09.000Z</time>
      </trkpt>
      <trkpt lat="43.53417" lon="6.6304">
        <ele>507.79998779297</ele>
        <time>2019-05-30T10:47:10.000Z</time>
      </trkpt>
      <trkpt lat="43.5341" lon="6.63036">
        <ele>506.60000610352</ele>
        <time>2019-05-30T10:47:11.000Z</time>
      </trkpt>
      <trkpt lat="43.53402" lon="6.63033">
        <ele>505.60000610352</ele>
        <time>2019-05-30T10:47:12.000Z</time>
      </trkpt>
      <trkpt lat="43.53387" lon="6.63025">
        <ele>503.60000610352</ele>
        <time>2019-05-30T10:47:14.000Z</time>
      </trkpt>
      <trkpt lat="43.53378" lon="6.63021">
        <ele>502.39999389648</ele>
        <time>2019-05-30T10:47:15.000Z</time>
      </trkpt>
      <trkpt lat="43.5337" lon="6.63017">
        <ele>501</ele>
        <time>2019-05-30T10:47:16.000Z</time>
      </trkpt>
      <trkpt lat="43.53353" lon="6.63008">
        <ele>498.79998779297</ele>
        <time>2019-05-30T10:47:18.000Z</time>
      </trkpt>
      <trkpt lat="43.53344" lon="6.63003">
        <ele>497.79998779297</ele>
        <time>2019-05-30T10:47:19.000Z</time>
      </trkpt>
      <trkpt lat="43.53334" lon="6.62999">
        <ele>496.60000610352</ele>
        <time>2019-05-30T10:47:20.000Z</time>
      </trkpt>
      <trkpt lat="43.53324" lon="6.62993">
        <ele>495.20001220703</ele>
        <time>2019-05-30T10:47:21.000Z</time>
      </trkpt>
      <trkpt lat="43.53315" lon="6.62988">
        <ele>494</ele>
        <time>2019-05-30T10:47:22.000Z</time>
      </trkpt>
      <trkpt lat="43.53306" lon="6.62983">
        <ele>492.60000610352</ele>
        <time>2019-05-30T10:47:23.000Z</time>
      </trkpt>
      <trkpt lat="43.53296" lon="6.62979">
        <ele>491.39999389648</ele>
        <time>2019-05-30T10:47:24.000Z</time>
      </trkpt>
      <trkpt lat="43.53286" lon="6.62975">
        <ele>490</ele>
        <time>2019-05-30T10:47:25.000Z</time>
      </trkpt>
      <trkpt lat="43.53277" lon="6.62973">
        <ele>488</ele>
        <time>2019-05-30T10:47:26.000Z</time>
      </trkpt>
      <trkpt lat="43.53268" lon="6.6297">
        <ele>486.79998779297</ele>
        <time>2019-05-30T10:47:27.000Z</time>
      </trkpt>
      <trkpt lat="43.53259" lon="6.62966">
        <ele>485.39999389648</ele>
        <time>2019-05-30T10:47:28.000Z</time>
      </trkpt>
      <trkpt lat="43.5324" lon="6.6296">
        <ele>484.20001220703</ele>
        <time>2019-05-30T10:47:30.000Z</time>
      </trkpt>
      <trkpt lat="43.53231" lon="6.62958">
        <ele>482.79998779297</ele>
        <time>2019-05-30T10:47:31.000Z</time>
      </trkpt>
      <trkpt lat="43.53211" lon="6.62957">
        <ele>481</ele>
        <time>2019-05-30T10:47:33.000Z</time>
      </trkpt>
      <trkpt lat="43.53193" lon="6.62957">
        <ele>479</ele>
        <time>2019-05-30T10:47:35.000Z</time>
      </trkpt>
      <trkpt lat="43.53184" lon="6.62957">
        <ele>477.79998779297</ele>
        <time>2019-05-30T10:47:36.000Z</time>
      </trkpt>
      <trkpt lat="43.53176" lon="6.62958">
        <ele>476.60000610352</ele>
        <time>2019-05-30T10:47:37.000Z</time>
      </trkpt>
      <trkpt lat="43.53167" lon="6.62957">
        <ele>475.60000610352</ele>
        <time>2019-05-30T10:47:38.000Z</time>
      </trkpt>
      <trkpt lat="43.53161" lon="6.62954">
        <ele>474.60000610352</ele>
        <time>2019-05-30T10:47:39.000Z</time>
      </trkpt>
      <trkpt lat="43.53152" lon="6.62936">
        <ele>473.60000610352</ele>
        <time>2019-05-30T10:47:42.000Z</time>
      </trkpt>
      <trkpt lat="43.5315" lon="6.6292">
        <ele>473</ele>
        <time>2019-05-30T10:47:44.000Z</time>
      </trkpt>
      <trkpt lat="43.53149" lon="6.62911">
        <ele>472</ele>
        <time>2019-05-30T10:47:45.000Z</time>
      </trkpt>
      <trkpt lat="43.53148" lon="6.62902">
        <ele>471.39999389648</ele>
        <time>2019-05-30T10:47:46.000Z</time>
      </trkpt>
      <trkpt lat="43.53148" lon="6.62893">
        <ele>471</ele>
        <time>2019-05-30T10:47:47.000Z</time>
      </trkpt>
      <trkpt lat="43.53145" lon="6.6287">
        <ele>469.20001220703</ele>
        <time>2019-05-30T10:47:49.000Z</time>
      </trkpt>
      <trkpt lat="43.53144" lon="6.62859">
        <ele>468.20001220703</ele>
        <time>2019-05-30T10:47:50.000Z</time>
      </trkpt>
      <trkpt lat="43.53143" lon="6.62849">
        <ele>466.60000610352</ele>
        <time>2019-05-30T10:47:51.000Z</time>
      </trkpt>
      <trkpt lat="43.53141" lon="6.62839">
        <ele>465.39999389648</ele>
        <time>2019-05-30T10:47:52.000Z</time>
      </trkpt>
      <trkpt lat="43.5314" lon="6.62828">
        <ele>463.79998779297</ele>
        <time>2019-05-30T10:47:53.000Z</time>
      </trkpt>
      <trkpt lat="43.53137" lon="6.62807">
        <ele>461.60000610352</ele>
        <time>2019-05-30T10:47:55.000Z</time>
      </trkpt>
      <trkpt lat="43.53135" lon="6.62797">
        <ele>460.20001220703</ele>
        <time>2019-05-30T10:47:56.000Z</time>
      </trkpt>
      <trkpt lat="43.53134" lon="6.62788">
        <ele>458.60000610352</ele>
        <time>2019-05-30T10:47:57.000Z</time>
      </trkpt>
      <trkpt lat="43.53132" lon="6.62777">
        <ele>457.20001220703</ele>
        <time>2019-05-30T10:47:58.000Z</time>
      </trkpt>
      <trkpt lat="43.53129" lon="6.62761">
        <ele>455.20001220703</ele>
        <time>2019-05-30T10:48:00.000Z</time>
      </trkpt>
      <trkpt lat="43.53128" lon="6.62754">
        <ele>453.79998779297</ele>
        <time>2019-05-30T10:48:01.000Z</time>
      </trkpt>
      <trkpt lat="43.53127" lon="6.62747">
        <ele>452.39999389648</ele>
        <time>2019-05-30T10:48:02.000Z</time>
      </trkpt>
      <trkpt lat="43.53125" lon="6.62733">
        <ele>450.39999389648</ele>
        <time>2019-05-30T10:48:04.000Z</time>
      </trkpt>
      <trkpt lat="43.53124" lon="6.62728">
        <ele>449.60000610352</ele>
        <time>2019-05-30T10:48:05.000Z</time>
      </trkpt>
      <trkpt lat="43.53121" lon="6.62724">
        <ele>448.79998779297</ele>
        <time>2019-05-30T10:48:06.000Z</time>
      </trkpt>
      <trkpt lat="43.53116" lon="6.62722">
        <ele>447.20001220703</ele>
        <time>2019-05-30T10:48:08.000Z</time>
      </trkpt>
      <trkpt lat="43.53111" lon="6.62725">
        <ele>446.20001220703</ele>
        <time>2019-05-30T10:48:10.000Z</time>
      </trkpt>
      <trkpt lat="43.53107" lon="6.62734">
        <ele>445.39999389648</ele>
        <time>2019-05-30T10:48:12.000Z</time>
      </trkpt>
      <trkpt lat="43.53105" lon="6.6274">
        <ele>445</ele>
        <time>2019-05-30T10:48:13.000Z</time>
      </trkpt>
      <trkpt lat="43.53103" lon="6.62746">
        <ele>444.60000610352</ele>
        <time>2019-05-30T10:48:14.000Z</time>
      </trkpt>
      <trkpt lat="43.53095" lon="6.6276">
        <ele>443.39999389648</ele>
        <time>2019-05-30T10:48:16.000Z</time>
      </trkpt>
      <trkpt lat="43.53084" lon="6.62774">
        <ele>441.20001220703</ele>
        <time>2019-05-30T10:48:18.000Z</time>
      </trkpt>
      <trkpt lat="43.53078" lon="6.6278">
        <ele>440</ele>
        <time>2019-05-30T10:48:19.000Z</time>
      </trkpt>
      <trkpt lat="43.53072" lon="6.62786">
        <ele>439.20001220703</ele>
        <time>2019-05-30T10:48:20.000Z</time>
      </trkpt>
      <trkpt lat="43.53066" lon="6.62791">
        <ele>438.39999389648</ele>
        <time>2019-05-30T10:48:21.000Z</time>
      </trkpt>
      <trkpt lat="43.53051" lon="6.628">
        <ele>437.79998779297</ele>
        <time>2019-05-30T10:48:24.000Z</time>
      </trkpt>
      <trkpt lat="43.53042" lon="6.62808">
        <ele>438.20001220703</ele>
        <time>2019-05-30T10:48:26.000Z</time>
      </trkpt>
      <trkpt lat="43.53034" lon="6.62821">
        <ele>437.60000610352</ele>
        <time>2019-05-30T10:48:28.000Z</time>
      </trkpt>
      <trkpt lat="43.5303" lon="6.62829">
        <ele>437</ele>
        <time>2019-05-30T10:48:29.000Z</time>
      </trkpt>
      <trkpt lat="43.53021" lon="6.62847">
        <ele>435</ele>
        <time>2019-05-30T10:48:31.000Z</time>
      </trkpt>
      <trkpt lat="43.53017" lon="6.62857">
        <ele>433.39999389648</ele>
        <time>2019-05-30T10:48:32.000Z</time>
      </trkpt>
      <trkpt lat="43.53011" lon="6.62868">
        <ele>432</ele>
        <time>2019-05-30T10:48:33.000Z</time>
      </trkpt>
      <trkpt lat="43.53006" lon="6.62879">
        <ele>430.60000610352</ele>
        <time>2019-05-30T10:48:34.000Z</time>
      </trkpt>
      <trkpt lat="43.53002" lon="6.62889">
        <ele>429.39999389648</ele>
        <time>2019-05-30T10:48:35.000Z</time>
      </trkpt>
      <trkpt lat="43.52996" lon="6.62901">
        <ele>427.79998779297</ele>
        <time>2019-05-30T10:48:36.000Z</time>
      </trkpt>
      <trkpt lat="43.52992" lon="6.62913">
        <ele>427</ele>
        <time>2019-05-30T10:48:37.000Z</time>
      </trkpt>
      <trkpt lat="43.52987" lon="6.62925">
        <ele>425.60000610352</ele>
        <time>2019-05-30T10:48:38.000Z</time>
      </trkpt>
      <trkpt lat="43.52983" lon="6.62935">
        <ele>424</ele>
        <time>2019-05-30T10:48:39.000Z</time>
      </trkpt>
      <trkpt lat="43.5298" lon="6.62943">
        <ele>421.79998779297</ele>
        <time>2019-05-30T10:48:40.000Z</time>
      </trkpt>
      <trkpt lat="43.52978" lon="6.62951">
        <ele>420.39999389648</ele>
        <time>2019-05-30T10:48:41.000Z</time>
      </trkpt>
      <trkpt lat="43.52976" lon="6.62958">
        <ele>419</ele>
        <time>2019-05-30T10:48:42.000Z</time>
      </trkpt>
      <trkpt lat="43.52975" lon="6.62964">
        <ele>417.79998779297</ele>
        <time>2019-05-30T10:48:43.000Z</time>
      </trkpt>
      <trkpt lat="43.52976" lon="6.6297">
        <ele>417.20001220703</ele>
        <time>2019-05-30T10:48:44.000Z</time>
      </trkpt>
      <trkpt lat="43.52979" lon="6.62982">
        <ele>417</ele>
        <time>2019-05-30T10:48:46.000Z</time>
      </trkpt>
      <trkpt lat="43.52982" lon="6.62996">
        <ele>416.79998779297</ele>
        <time>2019-05-30T10:48:48.000Z</time>
      </trkpt>
      <trkpt lat="43.52986" lon="6.63013">
        <ele>416.60000610352</ele>
        <time>2019-05-30T10:48:50.000Z</time>
      </trkpt>
      <trkpt lat="43.52987" lon="6.6302">
        <ele>416.39999389648</ele>
        <time>2019-05-30T10:48:51.000Z</time>
      </trkpt>
      <trkpt lat="43.52985" lon="6.63027">
        <ele>415.39999389648</ele>
        <time>2019-05-30T10:48:52.000Z</time>
      </trkpt>
      <trkpt lat="43.52978" lon="6.63037">
        <ele>414.60000610352</ele>
        <time>2019-05-30T10:48:54.000Z</time>
      </trkpt>
      <trkpt lat="43.52975" lon="6.63039">
        <ele>414</ele>
        <time>2019-05-30T10:48:55.000Z</time>
      </trkpt>
      <trkpt lat="43.52973" lon="6.6304">
        <ele>413</ele>
        <time>2019-05-30T10:48:56.000Z</time>
      </trkpt>
      <trkpt lat="43.5297" lon="6.63041">
        <ele>412.39999389648</ele>
        <time>2019-05-30T10:48:57.000Z</time>
      </trkpt>
      <trkpt lat="43.52964" lon="6.63044">
        <ele>411.60000610352</ele>
        <time>2019-05-30T10:48:59.000Z</time>
      </trkpt>
      <trkpt lat="43.5296" lon="6.63047">
        <ele>411.20001220703</ele>
        <time>2019-05-30T10:49:00.000Z</time>
      </trkpt>
      <trkpt lat="43.52946" lon="6.6305">
        <ele>411.20001220703</ele>
        <time>2019-05-30T10:49:04.000Z</time>
      </trkpt>
      <trkpt lat="43.5293" lon="6.63051">
        <ele>410.39999389648</ele>
        <time>2019-05-30T10:49:07.000Z</time>
      </trkpt>
      <trkpt lat="43.52918" lon="6.63055">
        <ele>409.60000610352</ele>
        <time>2019-05-30T10:49:10.000Z</time>
      </trkpt>
      <trkpt lat="43.52909" lon="6.6306">
        <ele>409.60000610352</ele>
        <time>2019-05-30T10:49:12.000Z</time>
      </trkpt>
      <trkpt lat="43.529" lon="6.63064">
        <ele>409.39999389648</ele>
        <time>2019-05-30T10:49:14.000Z</time>
      </trkpt>
      <trkpt lat="43.52898" lon="6.63066">
        <ele>409.20001220703</ele>
        <time>2019-05-30T10:49:15.000Z</time>
      </trkpt>
      <trkpt lat="43.52892" lon="6.63073">
        <ele>409.79998779297</ele>
        <time>2019-05-30T10:49:18.000Z</time>
      </trkpt>
      <trkpt lat="43.5289" lon="6.63076">
        <ele>410.20001220703</ele>
        <time>2019-05-30T10:49:19.000Z</time>
      </trkpt>
      <trkpt lat="43.52887" lon="6.63079">
        <ele>410.60000610352</ele>
        <time>2019-05-30T10:49:20.000Z</time>
      </trkpt>
      <trkpt lat="43.5288" lon="6.63089">
        <ele>411</ele>
        <time>2019-05-30T10:49:24.000Z</time>
      </trkpt>
      <trkpt lat="43.52871" lon="6.63096">
        <ele>411.79998779297</ele>
        <time>2019-05-30T10:49:28.000Z</time>
      </trkpt>
      <trkpt lat="43.52867" lon="6.63098">
        <ele>411.79998779297</ele>
        <time>2019-05-30T10:49:29.000Z</time>
      </trkpt>
      <trkpt lat="43.52862" lon="6.63102">
        <ele>412</ele>
        <time>2019-05-30T10:49:30.000Z</time>
      </trkpt>
      <trkpt lat="43.52846" lon="6.63117">
        <ele>411.60000610352</ele>
        <time>2019-05-30T10:49:33.000Z</time>
      </trkpt>
      <trkpt lat="43.52841" lon="6.63124">
        <ele>411.20001220703</ele>
        <time>2019-05-30T10:49:34.000Z</time>
      </trkpt>
      <trkpt lat="43.52836" lon="6.63132">
        <ele>410.39999389648</ele>
        <time>2019-05-30T10:49:35.000Z</time>
      </trkpt>
      <trkpt lat="43.52826" lon="6.63148">
        <ele>408.79998779297</ele>
        <time>2019-05-30T10:49:37.000Z</time>
      </trkpt>
      <trkpt lat="43.52822" lon="6.63156">
        <ele>407.39999389648</ele>
        <time>2019-05-30T10:49:38.000Z</time>
      </trkpt>
      <trkpt lat="43.52817" lon="6.63165">
        <ele>406</ele>
        <time>2019-05-30T10:49:39.000Z</time>
      </trkpt>
      <trkpt lat="43.5281" lon="6.6318">
        <ele>404.20001220703</ele>
        <time>2019-05-30T10:49:41.000Z</time>
      </trkpt>
      <trkpt lat="43.52805" lon="6.63188">
        <ele>402.79998779297</ele>
        <time>2019-05-30T10:49:42.000Z</time>
      </trkpt>
      <trkpt lat="43.52799" lon="6.63195">
        <ele>401.79998779297</ele>
        <time>2019-05-30T10:49:43.000Z</time>
      </trkpt>
      <trkpt lat="43.52788" lon="6.63207">
        <ele>398.60000610352</ele>
        <time>2019-05-30T10:49:45.000Z</time>
      </trkpt>
      <trkpt lat="43.52782" lon="6.63213">
        <ele>397.60000610352</ele>
        <time>2019-05-30T10:49:46.000Z</time>
      </trkpt>
      <trkpt lat="43.52772" lon="6.63223">
        <ele>395.20001220703</ele>
        <time>2019-05-30T10:49:48.000Z</time>
      </trkpt>
      <trkpt lat="43.52768" lon="6.63229">
        <ele>393.79998779297</ele>
        <time>2019-05-30T10:49:49.000Z</time>
      </trkpt>
      <trkpt lat="43.52759" lon="6.63238">
        <ele>391.20001220703</ele>
        <time>2019-05-30T10:49:51.000Z</time>
      </trkpt>
      <trkpt lat="43.52755" lon="6.63243">
        <ele>390</ele>
        <time>2019-05-30T10:49:52.000Z</time>
      </trkpt>
      <trkpt lat="43.52749" lon="6.63248">
        <ele>388.39999389648</ele>
        <time>2019-05-30T10:49:53.000Z</time>
      </trkpt>
      <trkpt lat="43.52743" lon="6.63254">
        <ele>386.79998779297</ele>
        <time>2019-05-30T10:49:54.000Z</time>
      </trkpt>
      <trkpt lat="43.52738" lon="6.63259">
        <ele>385.39999389648</ele>
        <time>2019-05-30T10:49:55.000Z</time>
      </trkpt>
      <trkpt lat="43.52729" lon="6.63267">
        <ele>383.39999389648</ele>
        <time>2019-05-30T10:49:57.000Z</time>
      </trkpt>
      <trkpt lat="43.52719" lon="6.63276">
        <ele>382.20001220703</ele>
        <time>2019-05-30T10:49:59.000Z</time>
      </trkpt>
      <trkpt lat="43.52716" lon="6.63282">
        <ele>381.39999389648</ele>
        <time>2019-05-30T10:50:00.000Z</time>
      </trkpt>
      <trkpt lat="43.52711" lon="6.63285">
        <ele>380.20001220703</ele>
        <time>2019-05-30T10:50:01.000Z</time>
      </trkpt>
      <trkpt lat="43.527" lon="6.6329">
        <ele>378.60000610352</ele>
        <time>2019-05-30T10:50:03.000Z</time>
      </trkpt>
      <trkpt lat="43.52695" lon="6.63294">
        <ele>378.39999389648</ele>
        <time>2019-05-30T10:50:04.000Z</time>
      </trkpt>
      <trkpt lat="43.52683" lon="6.63301">
        <ele>377.39999389648</ele>
        <time>2019-05-30T10:50:07.000Z</time>
      </trkpt>
      <trkpt lat="43.52678" lon="6.63304">
        <ele>377</ele>
        <time>2019-05-30T10:50:08.000Z</time>
      </trkpt>
      <trkpt lat="43.52667" lon="6.63305">
        <ele>376.39999389648</ele>
        <time>2019-05-30T10:50:10.000Z</time>
      </trkpt>
      <trkpt lat="43.52657" lon="6.63309">
        <ele>375.20001220703</ele>
        <time>2019-05-30T10:50:12.000Z</time>
      </trkpt>
      <trkpt lat="43.5265" lon="6.63309">
        <ele>374.60000610352</ele>
        <time>2019-05-30T10:50:13.000Z</time>
      </trkpt>
      <trkpt lat="43.52644" lon="6.63309">
        <ele>373.20001220703</ele>
        <time>2019-05-30T10:50:14.000Z</time>
      </trkpt>
      <trkpt lat="43.52638" lon="6.63307">
        <ele>372.20001220703</ele>
        <time>2019-05-30T10:50:15.000Z</time>
      </trkpt>
      <trkpt lat="43.52632" lon="6.63306">
        <ele>371</ele>
        <time>2019-05-30T10:50:16.000Z</time>
      </trkpt>
      <trkpt lat="43.52629" lon="6.63304">
        <ele>370.60000610352</ele>
        <time>2019-05-30T10:50:17.000Z</time>
      </trkpt>
      <trkpt lat="43.52623" lon="6.63302">
        <ele>369.79998779297</ele>
        <time>2019-05-30T10:50:18.000Z</time>
      </trkpt>
      <trkpt lat="43.52618" lon="6.63301">
        <ele>369.20001220703</ele>
        <time>2019-05-30T10:50:19.000Z</time>
      </trkpt>
      <trkpt lat="43.52614" lon="6.63299">
        <ele>368</ele>
        <time>2019-05-30T10:50:20.000Z</time>
      </trkpt>
      <trkpt lat="43.52609" lon="6.63297">
        <ele>367.20001220703</ele>
        <time>2019-05-30T10:50:21.000Z</time>
      </trkpt>
      <trkpt lat="43.52605" lon="6.63294">
        <ele>366.20001220703</ele>
        <time>2019-05-30T10:50:22.000Z</time>
      </trkpt>
      <trkpt lat="43.52602" lon="6.63289">
        <ele>365.79998779297</ele>
        <time>2019-05-30T10:50:23.000Z</time>
      </trkpt>
      <trkpt lat="43.526" lon="6.63285">
        <ele>364.60000610352</ele>
        <time>2019-05-30T10:50:24.000Z</time>
      </trkpt>
      <trkpt lat="43.52594" lon="6.63277">
        <ele>362.79998779297</ele>
        <time>2019-05-30T10:50:26.000Z</time>
      </trkpt>
      <trkpt lat="43.52591" lon="6.63273">
        <ele>361.79998779297</ele>
        <time>2019-05-30T10:50:27.000Z</time>
      </trkpt>
      <trkpt lat="43.52587" lon="6.63268">
        <ele>360.20001220703</ele>
        <time>2019-05-30T10:50:28.000Z</time>
      </trkpt>
      <trkpt lat="43.5258" lon="6.63259">
        <ele>358.39999389648</ele>
        <time>2019-05-30T10:50:30.000Z</time>
      </trkpt>
      <trkpt lat="43.52577" lon="6.63253">
        <ele>357.79998779297</ele>
        <time>2019-05-30T10:50:31.000Z</time>
      </trkpt>
      <trkpt lat="43.52574" lon="6.63246">
        <ele>356.79998779297</ele>
        <time>2019-05-30T10:50:32.000Z</time>
      </trkpt>
      <trkpt lat="43.52572" lon="6.63229">
        <ele>355.79998779297</ele>
        <time>2019-05-30T10:50:34.000Z</time>
      </trkpt>
      <trkpt lat="43.52573" lon="6.63216">
        <ele>354.39999389648</ele>
        <time>2019-05-30T10:50:36.000Z</time>
      </trkpt>
      <trkpt lat="43.52575" lon="6.6321">
        <ele>354</ele>
        <time>2019-05-30T10:50:37.000Z</time>
      </trkpt>
      <trkpt lat="43.52577" lon="6.63204">
        <ele>353</ele>
        <time>2019-05-30T10:50:38.000Z</time>
      </trkpt>
      <trkpt lat="43.52582" lon="6.63194">
        <ele>351.60000610352</ele>
        <time>2019-05-30T10:50:40.000Z</time>
      </trkpt>
      <trkpt lat="43.52586" lon="6.63191">
        <ele>350.39999389648</ele>
        <time>2019-05-30T10:50:41.000Z</time>
      </trkpt>
      <trkpt lat="43.52595" lon="6.63182">
        <ele>348.60000610352</ele>
        <time>2019-05-30T10:50:43.000Z</time>
      </trkpt>
      <trkpt lat="43.52603" lon="6.63172">
        <ele>346.79998779297</ele>
        <time>2019-05-30T10:50:45.000Z</time>
      </trkpt>
      <trkpt lat="43.52608" lon="6.63165">
        <ele>345</ele>
        <time>2019-05-30T10:50:47.000Z</time>
      </trkpt>
      <trkpt lat="43.52609" lon="6.6316">
        <ele>344.60000610352</ele>
        <time>2019-05-30T10:50:48.000Z</time>
      </trkpt>
      <trkpt lat="43.5261" lon="6.63155">
        <ele>343.79998779297</ele>
        <time>2019-05-30T10:50:49.000Z</time>
      </trkpt>
      <trkpt lat="43.52606" lon="6.63146">
        <ele>342.60000610352</ele>
        <time>2019-05-30T10:50:51.000Z</time>
      </trkpt>
      <trkpt lat="43.52601" lon="6.63135">
        <ele>341</ele>
        <time>2019-05-30T10:50:53.000Z</time>
      </trkpt>
      <trkpt lat="43.52598" lon="6.63129">
        <ele>340.20001220703</ele>
        <time>2019-05-30T10:50:54.000Z</time>
      </trkpt>
      <trkpt lat="43.52595" lon="6.63123">
        <ele>339.20001220703</ele>
        <time>2019-05-30T10:50:55.000Z</time>
      </trkpt>
      <trkpt lat="43.52591" lon="6.63115">
        <ele>337.60000610352</ele>
        <time>2019-05-30T10:50:57.000Z</time>
      </trkpt>
      <trkpt lat="43.5259" lon="6.63111">
        <ele>336.20001220703</ele>
        <time>2019-05-30T10:50:58.000Z</time>
      </trkpt>
      <trkpt lat="43.52588" lon="6.63108">
        <ele>334.79998779297</ele>
        <time>2019-05-30T10:50:59.000Z</time>
      </trkpt>
      <trkpt lat="43.52584" lon="6.63098">
        <ele>333.20001220703</ele>
        <time>2019-05-30T10:51:01.000Z</time>
      </trkpt>
      <trkpt lat="43.52583" lon="6.63088">
        <ele>332</ele>
        <time>2019-05-30T10:51:03.000Z</time>
      </trkpt>
      <trkpt lat="43.52582" lon="6.63078">
        <ele>330.79998779297</ele>
        <time>2019-05-30T10:51:05.000Z</time>
      </trkpt>
      <trkpt lat="43.52579" lon="6.63069">
        <ele>329.79998779297</ele>
        <time>2019-05-30T10:51:07.000Z</time>
      </trkpt>
      <trkpt lat="43.52577" lon="6.63065">
        <ele>329.20001220703</ele>
        <time>2019-05-30T10:51:08.000Z</time>
      </trkpt>
      <trkpt lat="43.52574" lon="6.63062">
        <ele>328.79998779297</ele>
        <time>2019-05-30T10:51:09.000Z</time>
      </trkpt>
      <trkpt lat="43.5257" lon="6.63057">
        <ele>327</ele>
        <time>2019-05-30T10:51:11.000Z</time>
      </trkpt>
      <trkpt lat="43.52567" lon="6.63055">
        <ele>326.20001220703</ele>
        <time>2019-05-30T10:51:12.000Z</time>
      </trkpt>
      <trkpt lat="43.52565" lon="6.63053">
        <ele>325</ele>
        <time>2019-05-30T10:51:13.000Z</time>
      </trkpt>
      <trkpt lat="43.52558" lon="6.6305">
        <ele>323.20001220703</ele>
        <time>2019-05-30T10:51:15.000Z</time>
      </trkpt>
      <trkpt lat="43.52551" lon="6.63045">
        <ele>321.60000610352</ele>
        <time>2019-05-30T10:51:17.000Z</time>
      </trkpt>
      <trkpt lat="43.52545" lon="6.63041">
        <ele>320.79998779297</ele>
        <time>2019-05-30T10:51:19.000Z</time>
      </trkpt>
      <trkpt lat="43.52543" lon="6.63038">
        <ele>320.60000610352</ele>
        <time>2019-05-30T10:51:20.000Z</time>
      </trkpt>
      <trkpt lat="43.52539" lon="6.63037">
        <ele>320</ele>
        <time>2019-05-30T10:51:21.000Z</time>
      </trkpt>
      <trkpt lat="43.52534" lon="6.63036">
        <ele>319.20001220703</ele>
        <time>2019-05-30T10:51:22.000Z</time>
      </trkpt>
      <trkpt lat="43.52525" lon="6.63034">
        <ele>317.79998779297</ele>
        <time>2019-05-30T10:51:24.000Z</time>
      </trkpt>
      <trkpt lat="43.5252" lon="6.63032">
        <ele>316.79998779297</ele>
        <time>2019-05-30T10:51:25.000Z</time>
      </trkpt>
      <trkpt lat="43.52515" lon="6.6303">
        <ele>316</ele>
        <time>2019-05-30T10:51:26.000Z</time>
      </trkpt>
      <trkpt lat="43.52511" lon="6.63029">
        <ele>315.39999389648</ele>
        <time>2019-05-30T10:51:27.000Z</time>
      </trkpt>
      <trkpt lat="43.52502" lon="6.63024">
        <ele>313.39999389648</ele>
        <time>2019-05-30T10:51:29.000Z</time>
      </trkpt>
      <trkpt lat="43.52493" lon="6.63021">
        <ele>312.20001220703</ele>
        <time>2019-05-30T10:51:31.000Z</time>
      </trkpt>
      <trkpt lat="43.52489" lon="6.6302">
        <ele>311.79998779297</ele>
        <time>2019-05-30T10:51:32.000Z</time>
      </trkpt>
      <trkpt lat="43.52483" lon="6.63022">
        <ele>310.39999389648</ele>
        <time>2019-05-30T10:51:34.000Z</time>
      </trkpt>
      <trkpt lat="43.52479" lon="6.63023">
        <ele>309.39999389648</ele>
        <time>2019-05-30T10:51:35.000Z</time>
      </trkpt>
      <trkpt lat="43.52475" lon="6.63025">
        <ele>308.39999389648</ele>
        <time>2019-05-30T10:51:36.000Z</time>
      </trkpt>
      <trkpt lat="43.52466" lon="6.63028">
        <ele>306.79998779297</ele>
        <time>2019-05-30T10:51:38.000Z</time>
      </trkpt>
      <trkpt lat="43.5246" lon="6.63031">
        <ele>305.20001220703</ele>
        <time>2019-05-30T10:51:40.000Z</time>
      </trkpt>
      <trkpt lat="43.52457" lon="6.63031">
        <ele>304.60000610352</ele>
        <time>2019-05-30T10:51:41.000Z</time>
      </trkpt>
      <trkpt lat="43.52454" lon="6.63029">
        <ele>304</ele>
        <time>2019-05-30T10:51:42.000Z</time>
      </trkpt>
      <trkpt lat="43.52445" lon="6.63019">
        <ele>303.20001220703</ele>
        <time>2019-05-30T10:51:45.000Z</time>
      </trkpt>
      <trkpt lat="43.52443" lon="6.63013">
        <ele>302.60000610352</ele>
        <time>2019-05-30T10:51:46.000Z</time>
      </trkpt>
      <trkpt lat="43.52438" lon="6.63004">
        <ele>301.60000610352</ele>
        <time>2019-05-30T10:51:48.000Z</time>
      </trkpt>
      <trkpt lat="43.52435" lon="6.63001">
        <ele>300.79998779297</ele>
        <time>2019-05-30T10:51:49.000Z</time>
      </trkpt>
      <trkpt lat="43.52432" lon="6.62999">
        <ele>300</ele>
        <time>2019-05-30T10:51:50.000Z</time>
      </trkpt>
      <trkpt lat="43.52429" lon="6.62998">
        <ele>298.60000610352</ele>
        <time>2019-05-30T10:51:53.000Z</time>
      </trkpt>
      <trkpt lat="43.52428" lon="6.62998">
        <ele>298.20001220703</ele>
        <time>2019-05-30T10:52:00.000Z</time>
      </trkpt>
      <trkpt lat="43.52429" lon="6.62999">
        <ele>297.79998779297</ele>
        <time>2019-05-30T10:52:08.000Z</time>
      </trkpt>
      <trkpt lat="43.52429" lon="6.62999">
        <ele>298.20001220703</ele>
        <time>2019-05-30T10:52:15.000Z</time>
      </trkpt>
      <trkpt lat="43.52429" lon="6.62999">
        <ele>298.39999389648</ele>
        <time>2019-05-30T10:52:24.000Z</time>
      </trkpt>
      <trkpt lat="43.52429" lon="6.62999">
        <ele>298</ele>
        <time>2019-05-30T10:52:30.000Z</time>
      </trkpt>
      <trkpt lat="43.52429" lon="6.63">
        <ele>297.60000610352</ele>
        <time>2019-05-30T10:52:34.000Z</time>
      </trkpt>
      <trkpt lat="43.52429" lon="6.63">
        <ele>297.60000610352</ele>
        <time>2019-05-30T10:52:38.000Z</time>
      </trkpt>
      <trkpt lat="43.5243" lon="6.63001">
        <ele>298.39999389648</ele>
        <time>2019-05-30T10:52:44.000Z</time>
      </trkpt>
      <trkpt lat="43.52429" lon="6.63002">
        <ele>298.20001220703</ele>
        <time>2019-05-30T10:52:48.000Z</time>
      </trkpt>
      <trkpt lat="43.52429" lon="6.63002">
        <ele>297.79998779297</ele>
        <time>2019-05-30T10:52:58.000Z</time>
      </trkpt>
      <trkpt lat="43.52427" lon="6.63005">
        <ele>297.79998779297</ele>
        <time>2019-05-30T10:53:10.000Z</time>
      </trkpt>
      <trkpt lat="43.52427" lon="6.63006">
        <ele>298.20001220703</ele>
        <time>2019-05-30T10:53:19.000Z</time>
      </trkpt>
      <trkpt lat="43.52428" lon="6.63005">
        <ele>298.20001220703</ele>
        <time>2019-05-30T10:53:24.000Z</time>
      </trkpt>
      <trkpt lat="43.52428" lon="6.63005">
        <ele>298</ele>
        <time>2019-05-30T10:53:29.000Z</time>
      </trkpt>
      <trkpt lat="43.52427" lon="6.63006">
        <ele>298</ele>
        <time>2019-05-30T10:53:37.000Z</time>
      </trkpt>
      <trkpt lat="43.52427" lon="6.63007">
        <ele>298</ele>
        <time>2019-05-30T10:53:42.000Z</time>
      </trkpt>
      <trkpt lat="43.52427" lon="6.63008">
        <ele>298</ele>
        <time>2019-05-30T10:53:50.000Z</time>
      </trkpt>
      <trkpt lat="43.52426" lon="6.6301">
        <ele>297</ele>
        <time>2019-05-30T10:53:58.000Z</time>
      </trkpt>
      <trkpt lat="43.52425" lon="6.6301">
        <ele>296.60000610352</ele>
        <time>2019-05-30T10:54:01.000Z</time>
      </trkpt>
      <trkpt lat="43.52425" lon="6.6301">
        <ele>297.39999389648</ele>
        <time>2019-05-30T10:54:08.000Z</time>
      </trkpt>
      <trkpt lat="43.52425" lon="6.6301">
        <ele>297.39999389648</ele>
        <time>2019-05-30T10:54:17.000Z</time>
      </trkpt>
      <trkpt lat="43.52425" lon="6.6301">
        <ele>297.79998779297</ele>
        <time>2019-05-30T10:54:19.000Z</time>
      </trkpt>
      <trkpt lat="43.52425" lon="6.6301">
        <ele>298.39999389648</ele>
        <time>2019-05-30T10:54:27.000Z</time>
      </trkpt>
      <trkpt lat="43.52426" lon="6.6301">
        <ele>298.20001220703</ele>
        <time>2019-05-30T10:54:31.000Z</time>
      </trkpt>
      <trkpt lat="43.52426" lon="6.6301">
        <ele>298.20001220703</ele>
        <time>2019-05-30T10:54:33.000Z</time>
      </trkpt>
      <trkpt lat="43.52425" lon="6.6301">
        <ele>297.79998779297</ele>
        <time>2019-05-30T10:54:39.000Z</time>
      </trkpt>
      <trkpt lat="43.52425" lon="6.63009">
        <ele>298</ele>
        <time>2019-05-30T10:54:48.000Z</time>
      </trkpt>
      <trkpt lat="43.52425" lon="6.63008">
        <ele>297.20001220703</ele>
        <time>2019-05-30T10:54:57.000Z</time>
      </trkpt>
      <trkpt lat="43.52424" lon="6.63008">
        <ele>297.39999389648</ele>
        <time>2019-05-30T10:55:05.000Z</time>
      </trkpt>
      <trkpt lat="43.52424" lon="6.63008">
        <ele>298</ele>
        <time>2019-05-30T10:55:15.000Z</time>
      </trkpt>
      <trkpt lat="43.52424" lon="6.63008">
        <ele>297.79998779297</ele>
        <time>2019-05-30T10:55:24.000Z</time>
      </trkpt>
      <trkpt lat="43.52426" lon="6.63009">
        <ele>297.39999389648</ele>
        <time>2019-05-30T10:55:35.000Z</time>
      </trkpt>
      <trkpt lat="43.52427" lon="6.63008">
        <ele>297.20001220703</ele>
        <time>2019-05-30T10:55:42.000Z</time>
      </trkpt>
      <trkpt lat="43.52427" lon="6.63008">
        <ele>297.20001220703</ele>
        <time>2019-05-30T10:55:46.000Z</time>
      </trkpt>
      <trkpt lat="43.52427" lon="6.63008">
        <ele>297.60000610352</ele>
        <time>2019-05-30T10:55:55.000Z</time>
      </trkpt>
      <trkpt lat="43.52426" lon="6.63012">
        <ele>297.39999389648</ele>
        <time>2019-05-30T10:56:00.000Z</time>
      </trkpt>
      <trkpt lat="43.52425" lon="6.63014">
        <ele>297.39999389648</ele>
        <time>2019-05-30T10:56:01.000Z</time>
      </trkpt>
      <trkpt lat="43.5242" lon="6.63022">
        <ele>297.39999389648</ele>
        <time>2019-05-30T10:56:04.000Z</time>
      </trkpt>
      <trkpt lat="43.52411" lon="6.63044">
        <ele>297</ele>
        <time>2019-05-30T10:56:09.000Z</time>
      </trkpt>
      <trkpt lat="43.5241" lon="6.63049">
        <ele>296.60000610352</ele>
        <time>2019-05-30T10:56:10.000Z</time>
      </trkpt>
      <trkpt lat="43.52409" lon="6.63054">
        <ele>296.60000610352</ele>
        <time>2019-05-30T10:56:11.000Z</time>
      </trkpt>
      <trkpt lat="43.52409" lon="6.63075">
        <ele>295.79998779297</ele>
        <time>2019-05-30T10:56:14.000Z</time>
      </trkpt>
      <trkpt lat="43.52408" lon="6.63082">
        <ele>295.39999389648</ele>
        <time>2019-05-30T10:56:15.000Z</time>
      </trkpt>
      <trkpt lat="43.52407" lon="6.63096">
        <ele>294</ele>
        <time>2019-05-30T10:56:17.000Z</time>
      </trkpt>
      <trkpt lat="43.52404" lon="6.63106">
        <ele>293.39999389648</ele>
        <time>2019-05-30T10:56:18.000Z</time>
      </trkpt>
      <trkpt lat="43.52402" lon="6.63115">
        <ele>292.60000610352</ele>
        <time>2019-05-30T10:56:19.000Z</time>
      </trkpt>
      <trkpt lat="43.52399" lon="6.63124">
        <ele>291.39999389648</ele>
        <time>2019-05-30T10:56:20.000Z</time>
      </trkpt>
      <trkpt lat="43.52392" lon="6.63144">
        <ele>289.39999389648</ele>
        <time>2019-05-30T10:56:22.000Z</time>
      </trkpt>
      <trkpt lat="43.52385" lon="6.63164">
        <ele>287.39999389648</ele>
        <time>2019-05-30T10:56:24.000Z</time>
      </trkpt>
      <trkpt lat="43.52379" lon="6.63182">
        <ele>285.60000610352</ele>
        <time>2019-05-30T10:56:26.000Z</time>
      </trkpt>
      <trkpt lat="43.52375" lon="6.63189">
        <ele>284.79998779297</ele>
        <time>2019-05-30T10:56:27.000Z</time>
      </trkpt>
      <trkpt lat="43.52371" lon="6.63194">
        <ele>284.60000610352</ele>
        <time>2019-05-30T10:56:28.000Z</time>
      </trkpt>
      <trkpt lat="43.52351" lon="6.63199">
        <ele>286</ele>
        <time>2019-05-30T10:56:32.000Z</time>
      </trkpt>
      <trkpt lat="43.5234" lon="6.6319">
        <ele>286</ele>
        <time>2019-05-30T10:56:35.000Z</time>
      </trkpt>
      <trkpt lat="43.52337" lon="6.63188">
        <ele>285.79998779297</ele>
        <time>2019-05-30T10:56:36.000Z</time>
      </trkpt>
      <trkpt lat="43.52327" lon="6.6318">
        <ele>285</ele>
        <time>2019-05-30T10:56:39.000Z</time>
      </trkpt>
      <trkpt lat="43.52323" lon="6.63178">
        <ele>284.39999389648</ele>
        <time>2019-05-30T10:56:40.000Z</time>
      </trkpt>
      <trkpt lat="43.52314" lon="6.63163">
        <ele>283</ele>
        <time>2019-05-30T10:56:43.000Z</time>
      </trkpt>
      <trkpt lat="43.52307" lon="6.63152">
        <ele>282</ele>
        <time>2019-05-30T10:56:45.000Z</time>
      </trkpt>
      <trkpt lat="43.52304" lon="6.63147">
        <ele>281.79998779297</ele>
        <time>2019-05-30T10:56:46.000Z</time>
      </trkpt>
      <trkpt lat="43.52298" lon="6.63137">
        <ele>280.60000610352</ele>
        <time>2019-05-30T10:56:48.000Z</time>
      </trkpt>
      <trkpt lat="43.5229" lon="6.63128">
        <ele>280</ele>
        <time>2019-05-30T10:56:50.000Z</time>
      </trkpt>
      <trkpt lat="43.52284" lon="6.63118">
        <ele>279.39999389648</ele>
        <time>2019-05-30T10:56:52.000Z</time>
      </trkpt>
      <trkpt lat="43.52281" lon="6.63115">
        <ele>279.39999389648</ele>
        <time>2019-05-30T10:56:53.000Z</time>
      </trkpt>
      <trkpt lat="43.52273" lon="6.6311">
        <ele>279.39999389648</ele>
        <time>2019-05-30T10:56:55.000Z</time>
      </trkpt>
      <trkpt lat="43.52264" lon="6.63105">
        <ele>279.20001220703</ele>
        <time>2019-05-30T10:56:57.000Z</time>
      </trkpt>
      <trkpt lat="43.5226" lon="6.63102">
        <ele>277.79998779297</ele>
        <time>2019-05-30T10:56:58.000Z</time>
      </trkpt>
      <trkpt lat="43.52254" lon="6.63097">
        <ele>277.39999389648</ele>
        <time>2019-05-30T10:57:00.000Z</time>
      </trkpt>
      <trkpt lat="43.52247" lon="6.63097">
        <ele>276.39999389648</ele>
        <time>2019-05-30T10:57:02.000Z</time>
      </trkpt>
      <trkpt lat="43.52243" lon="6.63098">
        <ele>276.39999389648</ele>
        <time>2019-05-30T10:57:03.000Z</time>
      </trkpt>
      <trkpt lat="43.52239" lon="6.63097">
        <ele>275.60000610352</ele>
        <time>2019-05-30T10:57:04.000Z</time>
      </trkpt>
      <trkpt lat="43.52236" lon="6.63095">
        <ele>275</ele>
        <time>2019-05-30T10:57:05.000Z</time>
      </trkpt>
      <trkpt lat="43.52228" lon="6.63091">
        <ele>273.60000610352</ele>
        <time>2019-05-30T10:57:07.000Z</time>
      </trkpt>
      <trkpt lat="43.5222" lon="6.63086">
        <ele>271.60000610352</ele>
        <time>2019-05-30T10:57:09.000Z</time>
      </trkpt>
      <trkpt lat="43.52216" lon="6.63083">
        <ele>270.20001220703</ele>
        <time>2019-05-30T10:57:10.000Z</time>
      </trkpt>
      <trkpt lat="43.52212" lon="6.6308">
        <ele>269.60000610352</ele>
        <time>2019-05-30T10:57:11.000Z</time>
      </trkpt>
      <trkpt lat="43.52207" lon="6.63078">
        <ele>268.79998779297</ele>
        <time>2019-05-30T10:57:12.000Z</time>
      </trkpt>
      <trkpt lat="43.52202" lon="6.63076">
        <ele>267.60000610352</ele>
        <time>2019-05-30T10:57:13.000Z</time>
      </trkpt>
      <trkpt lat="43.52197" lon="6.63074">
        <ele>267</ele>
        <time>2019-05-30T10:57:14.000Z</time>
      </trkpt>
      <trkpt lat="43.52191" lon="6.63073">
        <ele>266.20001220703</ele>
        <time>2019-05-30T10:57:15.000Z</time>
      </trkpt>
      <trkpt lat="43.52182" lon="6.63069">
        <ele>265</ele>
        <time>2019-05-30T10:57:17.000Z</time>
      </trkpt>
      <trkpt lat="43.52172" lon="6.63063">
        <ele>263</ele>
        <time>2019-05-30T10:57:19.000Z</time>
      </trkpt>
      <trkpt lat="43.52164" lon="6.63058">
        <ele>261.79998779297</ele>
        <time>2019-05-30T10:57:21.000Z</time>
      </trkpt>
      <trkpt lat="43.52162" lon="6.63053">
        <ele>260.79998779297</ele>
        <time>2019-05-30T10:57:22.000Z</time>
      </trkpt>
      <trkpt lat="43.5216" lon="6.63049">
        <ele>260.39999389648</ele>
        <time>2019-05-30T10:57:23.000Z</time>
      </trkpt>
      <trkpt lat="43.52156" lon="6.63039">
        <ele>259</ele>
        <time>2019-05-30T10:57:25.000Z</time>
      </trkpt>
      <trkpt lat="43.52153" lon="6.63034">
        <ele>258.39999389648</ele>
        <time>2019-05-30T10:57:26.000Z</time>
      </trkpt>
      <trkpt lat="43.5215" lon="6.63029">
        <ele>257.60000610352</ele>
        <time>2019-05-30T10:57:27.000Z</time>
      </trkpt>
      <trkpt lat="43.52148" lon="6.63025">
        <ele>256.20001220703</ele>
        <time>2019-05-30T10:57:28.000Z</time>
      </trkpt>
      <trkpt lat="43.52145" lon="6.63021">
        <ele>255.19999694824</ele>
        <time>2019-05-30T10:57:29.000Z</time>
      </trkpt>
      <trkpt lat="43.52141" lon="6.63014">
        <ele>253.60000610352</ele>
        <time>2019-05-30T10:57:31.000Z</time>
      </trkpt>
      <trkpt lat="43.52138" lon="6.63006">
        <ele>253.39999389648</ele>
        <time>2019-05-30T10:57:33.000Z</time>
      </trkpt>
      <trkpt lat="43.52133" lon="6.62994">
        <ele>252.39999389648</ele>
        <time>2019-05-30T10:57:36.000Z</time>
      </trkpt>
      <trkpt lat="43.52131" lon="6.62988">
        <ele>251.80000305176</ele>
        <time>2019-05-30T10:57:37.000Z</time>
      </trkpt>
      <trkpt lat="43.52128" lon="6.62982">
        <ele>251.19999694824</ele>
        <time>2019-05-30T10:57:38.000Z</time>
      </trkpt>
      <trkpt lat="43.52119" lon="6.62966">
        <ele>250.39999389648</ele>
        <time>2019-05-30T10:57:41.000Z</time>
      </trkpt>
      <trkpt lat="43.52117" lon="6.62962">
        <ele>250</ele>
        <time>2019-05-30T10:57:42.000Z</time>
      </trkpt>
      <trkpt lat="43.52112" lon="6.62955">
        <ele>249</ele>
        <time>2019-05-30T10:57:44.000Z</time>
      </trkpt>
      <trkpt lat="43.52109" lon="6.62952">
        <ele>248.60000610352</ele>
        <time>2019-05-30T10:57:45.000Z</time>
      </trkpt>
      <trkpt lat="43.52107" lon="6.62948">
        <ele>247.80000305176</ele>
        <time>2019-05-30T10:57:46.000Z</time>
      </trkpt>
      <trkpt lat="43.52102" lon="6.62941">
        <ele>246.80000305176</ele>
        <time>2019-05-30T10:57:48.000Z</time>
      </trkpt>
      <trkpt lat="43.521" lon="6.62937">
        <ele>245.60000610352</ele>
        <time>2019-05-30T10:57:49.000Z</time>
      </trkpt>
      <trkpt lat="43.52099" lon="6.62932">
        <ele>245</ele>
        <time>2019-05-30T10:57:50.000Z</time>
      </trkpt>
      <trkpt lat="43.52097" lon="6.62926">
        <ele>244</ele>
        <time>2019-05-30T10:57:51.000Z</time>
      </trkpt>
      <trkpt lat="43.52096" lon="6.62921">
        <ele>243</ele>
        <time>2019-05-30T10:57:52.000Z</time>
      </trkpt>
      <trkpt lat="43.52095" lon="6.62916">
        <ele>241.80000305176</ele>
        <time>2019-05-30T10:57:53.000Z</time>
      </trkpt>
      <trkpt lat="43.52093" lon="6.62906">
        <ele>239.80000305176</ele>
        <time>2019-05-30T10:57:55.000Z</time>
      </trkpt>
      <trkpt lat="43.52091" lon="6.62895">
        <ele>238.39999389648</ele>
        <time>2019-05-30T10:57:57.000Z</time>
      </trkpt>
      <trkpt lat="43.5209" lon="6.62889">
        <ele>237.39999389648</ele>
        <time>2019-05-30T10:57:58.000Z</time>
      </trkpt>
      <trkpt lat="43.5209" lon="6.62884">
        <ele>237</ele>
        <time>2019-05-30T10:57:59.000Z</time>
      </trkpt>
      <trkpt lat="43.5209" lon="6.62878">
        <ele>236.39999389648</ele>
        <time>2019-05-30T10:58:00.000Z</time>
      </trkpt>
      <trkpt lat="43.5209" lon="6.62873">
        <ele>235.80000305176</ele>
        <time>2019-05-30T10:58:01.000Z</time>
      </trkpt>
      <trkpt lat="43.52092" lon="6.6286">
        <ele>234.60000610352</ele>
        <time>2019-05-30T10:58:04.000Z</time>
      </trkpt>
      <trkpt lat="43.52095" lon="6.6285">
        <ele>233.39999389648</ele>
        <time>2019-05-30T10:58:07.000Z</time>
      </trkpt>
      <trkpt lat="43.52097" lon="6.62844">
        <ele>232.60000610352</ele>
        <time>2019-05-30T10:58:09.000Z</time>
      </trkpt>
      <trkpt lat="43.52099" lon="6.6284">
        <ele>232.19999694824</ele>
        <time>2019-05-30T10:58:10.000Z</time>
      </trkpt>
      <trkpt lat="43.52102" lon="6.62819">
        <ele>231.39999389648</ele>
        <time>2019-05-30T10:58:15.000Z</time>
      </trkpt>
      <trkpt lat="43.52106" lon="6.62786">
        <ele>232.60000610352</ele>
        <time>2019-05-30T10:58:21.000Z</time>
      </trkpt>
      <trkpt lat="43.52106" lon="6.6278">
        <ele>232.80000305176</ele>
        <time>2019-05-30T10:58:22.000Z</time>
      </trkpt>
      <trkpt lat="43.52107" lon="6.62758">
        <ele>232.39999389648</ele>
        <time>2019-05-30T10:58:26.000Z</time>
      </trkpt>
      <trkpt lat="43.52105" lon="6.62748">
        <ele>230.39999389648</ele>
        <time>2019-05-30T10:58:28.000Z</time>
      </trkpt>
      <trkpt lat="43.52103" lon="6.62743">
        <ele>229.60000610352</ele>
        <time>2019-05-30T10:58:29.000Z</time>
      </trkpt>
      <trkpt lat="43.52102" lon="6.62738">
        <ele>228</ele>
        <time>2019-05-30T10:58:30.000Z</time>
      </trkpt>
      <trkpt lat="43.52099" lon="6.62722">
        <ele>226.80000305176</ele>
        <time>2019-05-30T10:58:33.000Z</time>
      </trkpt>
      <trkpt lat="43.52098" lon="6.62716">
        <ele>226.19999694824</ele>
        <time>2019-05-30T10:58:34.000Z</time>
      </trkpt>
      <trkpt lat="43.52097" lon="6.62711">
        <ele>225.60000610352</ele>
        <time>2019-05-30T10:58:35.000Z</time>
      </trkpt>
      <trkpt lat="43.52095" lon="6.62706">
        <ele>223.60000610352</ele>
        <time>2019-05-30T10:58:36.000Z</time>
      </trkpt>
      <trkpt lat="43.52094" lon="6.62702">
        <ele>222.39999389648</ele>
        <time>2019-05-30T10:58:37.000Z</time>
      </trkpt>
      <trkpt lat="43.52094" lon="6.62696">
        <ele>221.60000610352</ele>
        <time>2019-05-30T10:58:38.000Z</time>
      </trkpt>
      <trkpt lat="43.52093" lon="6.6269">
        <ele>220.39999389648</ele>
        <time>2019-05-30T10:58:39.000Z</time>
      </trkpt>
      <trkpt lat="43.5209" lon="6.6268">
        <ele>218.80000305176</ele>
        <time>2019-05-30T10:58:41.000Z</time>
      </trkpt>
      <trkpt lat="43.52089" lon="6.62674">
        <ele>217.80000305176</ele>
        <time>2019-05-30T10:58:42.000Z</time>
      </trkpt>
      <trkpt lat="43.52088" lon="6.62667">
        <ele>216.60000610352</ele>
        <time>2019-05-30T10:58:43.000Z</time>
      </trkpt>
      <trkpt lat="43.52086" lon="6.62661">
        <ele>216.39999389648</ele>
        <time>2019-05-30T10:58:44.000Z</time>
      </trkpt>
      <trkpt lat="43.52082" lon="6.6265">
        <ele>215.80000305176</ele>
        <time>2019-05-30T10:58:46.000Z</time>
      </trkpt>
      <trkpt lat="43.5208" lon="6.62647">
        <ele>215.19999694824</ele>
        <time>2019-05-30T10:58:47.000Z</time>
      </trkpt>
      <trkpt lat="43.52071" lon="6.62635">
        <ele>214</ele>
        <time>2019-05-30T10:58:50.000Z</time>
      </trkpt>
      <trkpt lat="43.52064" lon="6.62628">
        <ele>211.80000305176</ele>
        <time>2019-05-30T10:58:52.000Z</time>
      </trkpt>
      <trkpt lat="43.5206" lon="6.62624">
        <ele>210.60000610352</ele>
        <time>2019-05-30T10:58:53.000Z</time>
      </trkpt>
      <trkpt lat="43.52056" lon="6.62621">
        <ele>209.19999694824</ele>
        <time>2019-05-30T10:58:54.000Z</time>
      </trkpt>
      <trkpt lat="43.52051" lon="6.6262">
        <ele>208.19999694824</ele>
        <time>2019-05-30T10:58:55.000Z</time>
      </trkpt>
      <trkpt lat="43.52047" lon="6.62619">
        <ele>207.39999389648</ele>
        <time>2019-05-30T10:58:56.000Z</time>
      </trkpt>
      <trkpt lat="43.52043" lon="6.62619">
        <ele>207.19999694824</ele>
        <time>2019-05-30T10:58:57.000Z</time>
      </trkpt>
      <trkpt lat="43.52038" lon="6.62625">
        <ele>206.80000305176</ele>
        <time>2019-05-30T10:58:59.000Z</time>
      </trkpt>
      <trkpt lat="43.52035" lon="6.62635">
        <ele>206.39999389648</ele>
        <time>2019-05-30T10:59:01.000Z</time>
      </trkpt>
      <trkpt lat="43.52032" lon="6.62645">
        <ele>206.19999694824</ele>
        <time>2019-05-30T10:59:03.000Z</time>
      </trkpt>
      <trkpt lat="43.5203" lon="6.62651">
        <ele>206</ele>
        <time>2019-05-30T10:59:04.000Z</time>
      </trkpt>
      <trkpt lat="43.52028" lon="6.62656">
        <ele>205.80000305176</ele>
        <time>2019-05-30T10:59:05.000Z</time>
      </trkpt>
      <trkpt lat="43.52014" lon="6.62686">
        <ele>204.80000305176</ele>
        <time>2019-05-30T10:59:10.000Z</time>
      </trkpt>
      <trkpt lat="43.52011" lon="6.62693">
        <ele>204.60000610352</ele>
        <time>2019-05-30T10:59:11.000Z</time>
      </trkpt>
      <trkpt lat="43.52004" lon="6.62708">
        <ele>203.39999389648</ele>
        <time>2019-05-30T10:59:13.000Z</time>
      </trkpt>
      <trkpt lat="43.51995" lon="6.62729">
        <ele>202.60000610352</ele>
        <time>2019-05-30T10:59:16.000Z</time>
      </trkpt>
      <trkpt lat="43.51987" lon="6.62742">
        <ele>202.19999694824</ele>
        <time>2019-05-30T10:59:18.000Z</time>
      </trkpt>
      <trkpt lat="43.51974" lon="6.62757">
        <ele>201.19999694824</ele>
        <time>2019-05-30T10:59:21.000Z</time>
      </trkpt>
      <trkpt lat="43.51972" lon="6.62761">
        <ele>201</ele>
        <time>2019-05-30T10:59:22.000Z</time>
      </trkpt>
      <trkpt lat="43.51965" lon="6.6278">
        <ele>199.60000610352</ele>
        <time>2019-05-30T10:59:25.000Z</time>
      </trkpt>
      <trkpt lat="43.51964" lon="6.62787">
        <ele>199</ele>
        <time>2019-05-30T10:59:26.000Z</time>
      </trkpt>
      <trkpt lat="43.51962" lon="6.62795">
        <ele>198.39999389648</ele>
        <time>2019-05-30T10:59:27.000Z</time>
      </trkpt>
      <trkpt lat="43.51959" lon="6.62803">
        <ele>197.19999694824</ele>
        <time>2019-05-30T10:59:28.000Z</time>
      </trkpt>
      <trkpt lat="43.51951" lon="6.62817">
        <ele>196.19999694824</ele>
        <time>2019-05-30T10:59:30.000Z</time>
      </trkpt>
      <trkpt lat="43.51945" lon="6.62822">
        <ele>195</ele>
        <time>2019-05-30T10:59:31.000Z</time>
      </trkpt>
      <trkpt lat="43.5193" lon="6.62826">
        <ele>193.60000610352</ele>
        <time>2019-05-30T10:59:33.000Z</time>
      </trkpt>
      <trkpt lat="43.51921" lon="6.62826">
        <ele>192.39999389648</ele>
        <time>2019-05-30T10:59:34.000Z</time>
      </trkpt>
      <trkpt lat="43.51914" lon="6.62826">
        <ele>191.19999694824</ele>
        <time>2019-05-30T10:59:35.000Z</time>
      </trkpt>
      <trkpt lat="43.51905" lon="6.62827">
        <ele>189.19999694824</ele>
        <time>2019-05-30T10:59:36.000Z</time>
      </trkpt>
      <trkpt lat="43.51898" lon="6.62826">
        <ele>188</ele>
        <time>2019-05-30T10:59:37.000Z</time>
      </trkpt>
      <trkpt lat="43.51891" lon="6.62824">
        <ele>186.60000610352</ele>
        <time>2019-05-30T10:59:38.000Z</time>
      </trkpt>
      <trkpt lat="43.5188" lon="6.62811">
        <ele>185.19999694824</ele>
        <time>2019-05-30T10:59:40.000Z</time>
      </trkpt>
      <trkpt lat="43.51874" lon="6.62794">
        <ele>184.60000610352</ele>
        <time>2019-05-30T10:59:42.000Z</time>
      </trkpt>
      <trkpt lat="43.51871" lon="6.62784">
        <ele>183.80000305176</ele>
        <time>2019-05-30T10:59:43.000Z</time>
      </trkpt>
      <trkpt lat="43.51867" lon="6.62775">
        <ele>182.19999694824</ele>
        <time>2019-05-30T10:59:44.000Z</time>
      </trkpt>
      <trkpt lat="43.51864" lon="6.62765">
        <ele>181.19999694824</ele>
        <time>2019-05-30T10:59:45.000Z</time>
      </trkpt>
      <trkpt lat="43.5186" lon="6.62756">
        <ele>179.39999389648</ele>
        <time>2019-05-30T10:59:46.000Z</time>
      </trkpt>
      <trkpt lat="43.51857" lon="6.62747">
        <ele>177.80000305176</ele>
        <time>2019-05-30T10:59:47.000Z</time>
      </trkpt>
      <trkpt lat="43.51849" lon="6.62725">
        <ele>176.60000610352</ele>
        <time>2019-05-30T10:59:49.000Z</time>
      </trkpt>
      <trkpt lat="43.51844" lon="6.62715">
        <ele>175.39999389648</ele>
        <time>2019-05-30T10:59:50.000Z</time>
      </trkpt>
      <trkpt lat="43.51835" lon="6.62697">
        <ele>174.19999694824</ele>
        <time>2019-05-30T10:59:52.000Z</time>
      </trkpt>
      <trkpt lat="43.51831" lon="6.62687">
        <ele>173.39999389648</ele>
        <time>2019-05-30T10:59:53.000Z</time>
      </trkpt>
      <trkpt lat="43.51827" lon="6.62678">
        <ele>172.60000610352</ele>
        <time>2019-05-30T10:59:54.000Z</time>
      </trkpt>
      <trkpt lat="43.51825" lon="6.62668">
        <ele>172.19999694824</ele>
        <time>2019-05-30T10:59:55.000Z</time>
      </trkpt>
      <trkpt lat="43.51821" lon="6.62638">
        <ele>171.39999389648</ele>
        <time>2019-05-30T10:59:58.000Z</time>
      </trkpt>
      <trkpt lat="43.5182" lon="6.62628">
        <ele>171</ele>
        <time>2019-05-30T10:59:59.000Z</time>
      </trkpt>
      <trkpt lat="43.5182" lon="6.62618">
        <ele>170.19999694824</ele>
        <time>2019-05-30T11:00:00.000Z</time>
      </trkpt>
      <trkpt lat="43.51819" lon="6.62608">
        <ele>168.60000610352</ele>
        <time>2019-05-30T11:00:01.000Z</time>
      </trkpt>
      <trkpt lat="43.51819" lon="6.62588">
        <ele>167.19999694824</ele>
        <time>2019-05-30T11:00:03.000Z</time>
      </trkpt>
      <trkpt lat="43.51818" lon="6.62579">
        <ele>166.60000610352</ele>
        <time>2019-05-30T11:00:04.000Z</time>
      </trkpt>
      <trkpt lat="43.51814" lon="6.62546">
        <ele>167.39999389648</ele>
        <time>2019-05-30T11:00:08.000Z</time>
      </trkpt>
      <trkpt lat="43.51811" lon="6.62542">
        <ele>167.19999694824</ele>
        <time>2019-05-30T11:00:09.000Z</time>
      </trkpt>
      <trkpt lat="43.51802" lon="6.62543">
        <ele>166.39999389648</ele>
        <time>2019-05-30T11:00:11.000Z</time>
      </trkpt>
      <trkpt lat="43.51798" lon="6.62548">
        <ele>165.19999694824</ele>
        <time>2019-05-30T11:00:12.000Z</time>
      </trkpt>
      <trkpt lat="43.51793" lon="6.62556">
        <ele>164</ele>
        <time>2019-05-30T11:00:13.000Z</time>
      </trkpt>
      <trkpt lat="43.51783" lon="6.62573">
        <ele>162.60000610352</ele>
        <time>2019-05-30T11:00:15.000Z</time>
      </trkpt>
      <trkpt lat="43.51779" lon="6.62582">
        <ele>161.19999694824</ele>
        <time>2019-05-30T11:00:16.000Z</time>
      </trkpt>
      <trkpt lat="43.51776" lon="6.62592">
        <ele>159.80000305176</ele>
        <time>2019-05-30T11:00:17.000Z</time>
      </trkpt>
      <trkpt lat="43.51771" lon="6.626">
        <ele>158.60000610352</ele>
        <time>2019-05-30T11:00:18.000Z</time>
      </trkpt>
      <trkpt lat="43.51764" lon="6.62606">
        <ele>157</ele>
        <time>2019-05-30T11:00:19.000Z</time>
      </trkpt>
      <trkpt lat="43.51756" lon="6.6261">
        <ele>155.60000610352</ele>
        <time>2019-05-30T11:00:20.000Z</time>
      </trkpt>
      <trkpt lat="43.51748" lon="6.62613">
        <ele>154.39999389648</ele>
        <time>2019-05-30T11:00:21.000Z</time>
      </trkpt>
      <trkpt lat="43.51739" lon="6.62614">
        <ele>153</ele>
        <time>2019-05-30T11:00:22.000Z</time>
      </trkpt>
      <trkpt lat="43.5173" lon="6.62615">
        <ele>151.19999694824</ele>
        <time>2019-05-30T11:00:23.000Z</time>
      </trkpt>
      <trkpt lat="43.51721" lon="6.62616">
        <ele>149.39999389648</ele>
        <time>2019-05-30T11:00:24.000Z</time>
      </trkpt>
      <trkpt lat="43.51713" lon="6.62619">
        <ele>147.80000305176</ele>
        <time>2019-05-30T11:00:25.000Z</time>
      </trkpt>
      <trkpt lat="43.51707" lon="6.62621">
        <ele>146.60000610352</ele>
        <time>2019-05-30T11:00:26.000Z</time>
      </trkpt>
      <trkpt lat="43.51703" lon="6.62622">
        <ele>145.39999389648</ele>
        <time>2019-05-30T11:00:27.000Z</time>
      </trkpt>
      <trkpt lat="43.51695" lon="6.62621">
        <ele>143.60000610352</ele>
        <time>2019-05-30T11:00:29.000Z</time>
      </trkpt>
      <trkpt lat="43.51693" lon="6.62617">
        <ele>142.80000305176</ele>
        <time>2019-05-30T11:00:30.000Z</time>
      </trkpt>
      <trkpt lat="43.51692" lon="6.62612">
        <ele>142</ele>
        <time>2019-05-30T11:00:31.000Z</time>
      </trkpt>
      <trkpt lat="43.51694" lon="6.62602">
        <ele>141.19999694824</ele>
        <time>2019-05-30T11:00:33.000Z</time>
      </trkpt>
      <trkpt lat="43.51696" lon="6.6259">
        <ele>141</ele>
        <time>2019-05-30T11:00:35.000Z</time>
      </trkpt>
      <trkpt lat="43.51698" lon="6.62569">
        <ele>140.80000305176</ele>
        <time>2019-05-30T11:00:38.000Z</time>
      </trkpt>
      <trkpt lat="43.51702" lon="6.6254">
        <ele>140.60000610352</ele>
        <time>2019-05-30T11:00:42.000Z</time>
      </trkpt>
      <trkpt lat="43.51705" lon="6.62533">
        <ele>140.39999389648</ele>
        <time>2019-05-30T11:00:43.000Z</time>
      </trkpt>
      <trkpt lat="43.51712" lon="6.62506">
        <ele>140.60000610352</ele>
        <time>2019-05-30T11:00:47.000Z</time>
      </trkpt>
      <trkpt lat="43.51713" lon="6.62497">
        <ele>141</ele>
        <time>2019-05-30T11:00:48.000Z</time>
      </trkpt>
      <trkpt lat="43.51716" lon="6.62446">
        <ele>139.80000305176</ele>
        <time>2019-05-30T11:00:54.000Z</time>
      </trkpt>
      <trkpt lat="43.51717" lon="6.62438">
        <ele>139.60000610352</ele>
        <time>2019-05-30T11:00:55.000Z</time>
      </trkpt>
      <trkpt lat="43.51728" lon="6.62404">
        <ele>139.60000610352</ele>
        <time>2019-05-30T11:00:59.000Z</time>
      </trkpt>
      <trkpt lat="43.51729" lon="6.62395">
        <ele>139.39999389648</ele>
        <time>2019-05-30T11:01:00.000Z</time>
      </trkpt>
      <trkpt lat="43.51732" lon="6.62386">
        <ele>139.19999694824</ele>
        <time>2019-05-30T11:01:01.000Z</time>
      </trkpt>
      <trkpt lat="43.51737" lon="6.62369">
        <ele>138.60000610352</ele>
        <time>2019-05-30T11:01:03.000Z</time>
      </trkpt>
      <trkpt lat="43.51738" lon="6.6236">
        <ele>138.19999694824</ele>
        <time>2019-05-30T11:01:04.000Z</time>
      </trkpt>
      <trkpt lat="43.51734" lon="6.62336">
        <ele>137.60000610352</ele>
        <time>2019-05-30T11:01:07.000Z</time>
      </trkpt>
      <trkpt lat="43.51726" lon="6.62323">
        <ele>137.39999389648</ele>
        <time>2019-05-30T11:01:09.000Z</time>
      </trkpt>
      <trkpt lat="43.51723" lon="6.62315">
        <ele>137.19999694824</ele>
        <time>2019-05-30T11:01:10.000Z</time>
      </trkpt>
      <trkpt lat="43.51718" lon="6.62309">
        <ele>137.19999694824</ele>
        <time>2019-05-30T11:01:11.000Z</time>
      </trkpt>
      <trkpt lat="43.51707" lon="6.623">
        <ele>136.39999389648</ele>
        <time>2019-05-30T11:01:13.000Z</time>
      </trkpt>
      <trkpt lat="43.51688" lon="6.62289">
        <ele>135.39999389648</ele>
        <time>2019-05-30T11:01:16.000Z</time>
      </trkpt>
      <trkpt lat="43.51672" lon="6.62274">
        <ele>134.80000305176</ele>
        <time>2019-05-30T11:01:19.000Z</time>
      </trkpt>
      <trkpt lat="43.51669" lon="6.62268">
        <ele>134.39999389648</ele>
        <time>2019-05-30T11:01:20.000Z</time>
      </trkpt>
      <trkpt lat="43.51666" lon="6.62261">
        <ele>134.19999694824</ele>
        <time>2019-05-30T11:01:21.000Z</time>
      </trkpt>
      <trkpt lat="43.51661" lon="6.62236">
        <ele>133.39999389648</ele>
        <time>2019-05-30T11:01:24.000Z</time>
      </trkpt>
      <trkpt lat="43.51657" lon="6.62218">
        <ele>132.80000305176</ele>
        <time>2019-05-30T11:01:26.000Z</time>
      </trkpt>
      <trkpt lat="43.51649" lon="6.62179">
        <ele>131.60000610352</ele>
        <time>2019-05-30T11:01:30.000Z</time>
      </trkpt>
      <trkpt lat="43.5164" lon="6.62129">
        <ele>130.19999694824</ele>
        <time>2019-05-30T11:01:35.000Z</time>
      </trkpt>
      <trkpt lat="43.51633" lon="6.62099">
        <ele>129.60000610352</ele>
        <time>2019-05-30T11:01:38.000Z</time>
      </trkpt>
      <trkpt lat="43.51627" lon="6.62079">
        <ele>129</ele>
        <time>2019-05-30T11:01:40.000Z</time>
      </trkpt>
      <trkpt lat="43.51624" lon="6.62061">
        <ele>128.19999694824</ele>
        <time>2019-05-30T11:01:42.000Z</time>
      </trkpt>
      <trkpt lat="43.51624" lon="6.62051">
        <ele>127.80000305176</ele>
        <time>2019-05-30T11:01:43.000Z</time>
      </trkpt>
      <trkpt lat="43.51621" lon="6.62022">
        <ele>127.19999694824</ele>
        <time>2019-05-30T11:01:46.000Z</time>
      </trkpt>
      <trkpt lat="43.51619" lon="6.62002">
        <ele>126.80000305176</ele>
        <time>2019-05-30T11:01:48.000Z</time>
      </trkpt>
      <trkpt lat="43.51629" lon="6.61979">
        <ele>126</ele>
        <time>2019-05-30T11:01:51.000Z</time>
      </trkpt>
      <trkpt lat="43.51632" lon="6.61972">
        <ele>125.80000305176</ele>
        <time>2019-05-30T11:01:52.000Z</time>
      </trkpt>
      <trkpt lat="43.51632" lon="6.61964">
        <ele>125.19999694824</ele>
        <time>2019-05-30T11:01:53.000Z</time>
      </trkpt>
      <trkpt lat="43.51632" lon="6.61955">
        <ele>125.19999694824</ele>
        <time>2019-05-30T11:01:54.000Z</time>
      </trkpt>
      <trkpt lat="43.51632" lon="6.61947">
        <ele>124.59999847412</ele>
        <time>2019-05-30T11:01:55.000Z</time>
      </trkpt>
      <trkpt lat="43.51638" lon="6.61935">
        <ele>123.59999847412</ele>
        <time>2019-05-30T11:01:57.000Z</time>
      </trkpt>
      <trkpt lat="43.51646" lon="6.61918">
        <ele>122.59999847412</ele>
        <time>2019-05-30T11:02:00.000Z</time>
      </trkpt>
      <trkpt lat="43.51646" lon="6.61914">
        <ele>122.19999694824</ele>
        <time>2019-05-30T11:02:01.000Z</time>
      </trkpt>
      <trkpt lat="43.5165" lon="6.61911">
        <ele>121.40000152588</ele>
        <time>2019-05-30T11:02:04.000Z</time>
      </trkpt>
      <trkpt lat="43.51656" lon="6.619">
        <ele>120.80000305176</ele>
        <time>2019-05-30T11:02:09.000Z</time>
      </trkpt>
      <trkpt lat="43.51658" lon="6.61883">
        <ele>120.40000152588</ele>
        <time>2019-05-30T11:02:13.000Z</time>
      </trkpt>
      <trkpt lat="43.51659" lon="6.61868">
        <ele>121</ele>
        <time>2019-05-30T11:02:17.000Z</time>
      </trkpt>
      <trkpt lat="43.51664" lon="6.61858">
        <ele>121.59999847412</ele>
        <time>2019-05-30T11:02:20.000Z</time>
      </trkpt>
      <trkpt lat="43.51668" lon="6.61857">
        <ele>121.80000305176</ele>
        <time>2019-05-30T11:02:22.000Z</time>
      </trkpt>
      <trkpt lat="43.51676" lon="6.61854">
        <ele>122.40000152588</ele>
        <time>2019-05-30T11:02:26.000Z</time>
      </trkpt>
      <trkpt lat="43.51678" lon="6.61854">
        <ele>122.59999847412</ele>
        <time>2019-05-30T11:02:27.000Z</time>
      </trkpt>
      <trkpt lat="43.51687" lon="6.61852">
        <ele>123.59999847412</ele>
        <time>2019-05-30T11:02:31.000Z</time>
      </trkpt>
      <trkpt lat="43.5169" lon="6.61851">
        <ele>123.80000305176</ele>
        <time>2019-05-30T11:02:33.000Z</time>
      </trkpt>
      <trkpt lat="43.51701" lon="6.61852">
        <ele>124.80000305176</ele>
        <time>2019-05-30T11:02:38.000Z</time>
      </trkpt>
      <trkpt lat="43.51703" lon="6.61853">
        <ele>125</ele>
        <time>2019-05-30T11:02:39.000Z</time>
      </trkpt>
      <trkpt lat="43.5172" lon="6.61859">
        <ele>125.59999847412</ele>
        <time>2019-05-30T11:02:47.000Z</time>
      </trkpt>
      <trkpt lat="43.51723" lon="6.61859">
        <ele>125.80000305176</ele>
        <time>2019-05-30T11:02:48.000Z</time>
      </trkpt>
      <trkpt lat="43.51739" lon="6.61861">
        <ele>126.80000305176</ele>
        <time>2019-05-30T11:02:54.000Z</time>
      </trkpt>
      <trkpt lat="43.51742" lon="6.6186">
        <ele>127</ele>
        <time>2019-05-30T11:02:55.000Z</time>
      </trkpt>
      <trkpt lat="43.51762" lon="6.61849">
        <ele>127.80000305176</ele>
        <time>2019-05-30T11:03:02.000Z</time>
      </trkpt>
      <trkpt lat="43.5177" lon="6.61843">
        <ele>127.80000305176</ele>
        <time>2019-05-30T11:03:05.000Z</time>
      </trkpt>
      <trkpt lat="43.51781" lon="6.61833">
        <ele>128.19999694824</ele>
        <time>2019-05-30T11:03:09.000Z</time>
      </trkpt>
      <trkpt lat="43.51807" lon="6.6182">
        <ele>128.39999389648</ele>
        <time>2019-05-30T11:03:16.000Z</time>
      </trkpt>
      <trkpt lat="43.51827" lon="6.61821">
        <ele>128.60000610352</ele>
        <time>2019-05-30T11:03:21.000Z</time>
      </trkpt>
      <trkpt lat="43.51851" lon="6.6183">
        <ele>129</ele>
        <time>2019-05-30T11:03:28.000Z</time>
      </trkpt>
      <trkpt lat="43.51854" lon="6.61831">
        <ele>129.19999694824</ele>
        <time>2019-05-30T11:03:29.000Z</time>
      </trkpt>
      <trkpt lat="43.51882" lon="6.61841">
        <ele>130.19999694824</ele>
        <time>2019-05-30T11:03:38.000Z</time>
      </trkpt>
      <trkpt lat="43.51897" lon="6.61846">
        <ele>131.19999694824</ele>
        <time>2019-05-30T11:03:43.000Z</time>
      </trkpt>
      <trkpt lat="43.51915" lon="6.61852">
        <ele>131.80000305176</ele>
        <time>2019-05-30T11:03:49.000Z</time>
      </trkpt>
      <trkpt lat="43.51926" lon="6.61855">
        <ele>132.39999389648</ele>
        <time>2019-05-30T11:03:53.000Z</time>
      </trkpt>
      <trkpt lat="43.51933" lon="6.61853">
        <ele>132.60000610352</ele>
        <time>2019-05-30T11:03:55.000Z</time>
      </trkpt>
      <trkpt lat="43.51942" lon="6.61838">
        <ele>132.80000305176</ele>
        <time>2019-05-30T11:03:59.000Z</time>
      </trkpt>
      <trkpt lat="43.51951" lon="6.61805">
        <ele>132.60000610352</ele>
        <time>2019-05-30T11:04:05.000Z</time>
      </trkpt>
      <trkpt lat="43.51953" lon="6.618">
        <ele>132.60000610352</ele>
        <time>2019-05-30T11:04:06.000Z</time>
      </trkpt>
      <trkpt lat="43.51962" lon="6.61793">
        <ele>132.39999389648</ele>
        <time>2019-05-30T11:04:09.000Z</time>
      </trkpt>
      <trkpt lat="43.51966" lon="6.61791">
        <ele>132.19999694824</ele>
        <time>2019-05-30T11:04:11.000Z</time>
      </trkpt>
      <trkpt lat="43.5197" lon="6.61788">
        <ele>132.19999694824</ele>
        <time>2019-05-30T11:04:14.000Z</time>
      </trkpt>
      <trkpt lat="43.51971" lon="6.61787">
        <ele>132.39999389648</ele>
        <time>2019-05-30T11:04:18.000Z</time>
      </trkpt>
      <trkpt lat="43.51975" lon="6.61786">
        <ele>132.39999389648</ele>
        <time>2019-05-30T11:04:25.000Z</time>
      </trkpt>
      <trkpt lat="43.51974" lon="6.61785">
        <ele>132.19999694824</ele>
        <time>2019-05-30T11:04:30.000Z</time>
      </trkpt>
      <trkpt lat="43.51973" lon="6.61784">
        <ele>132.60000610352</ele>
        <time>2019-05-30T11:04:36.000Z</time>
      </trkpt>
      <trkpt lat="43.51973" lon="6.61783">
        <ele>131.39999389648</ele>
        <time>2019-05-30T11:04:50.000Z</time>
      </trkpt>
      <trkpt lat="43.51973" lon="6.61783">
        <ele>131.39999389648</ele>
        <time>2019-05-30T11:04:51.000Z</time>
      </trkpt>
      <trkpt lat="43.51973" lon="6.61782">
        <ele>131.39999389648</ele>
        <time>2019-05-30T11:05:05.000Z</time>
      </trkpt>
      <trkpt lat="43.51973" lon="6.61782">
        <ele>131.39999389648</ele>
        <time>2019-05-30T11:05:19.000Z</time>
      </trkpt>
      <trkpt lat="43.51972" lon="6.61782">
        <ele>131.60000610352</ele>
        <time>2019-05-30T11:05:31.000Z</time>
      </trkpt>
      <trkpt lat="43.51971" lon="6.61782">
        <ele>131.60000610352</ele>
        <time>2019-05-30T11:05:44.000Z</time>
      </trkpt>
      <trkpt lat="43.51973" lon="6.61782">
        <ele>131.80000305176</ele>
        <time>2019-05-30T11:05:53.000Z</time>
      </trkpt>
      <trkpt lat="43.51973" lon="6.61782">
        <ele>131.60000610352</ele>
        <time>2019-05-30T11:05:55.000Z</time>
      </trkpt>
      <trkpt lat="43.51973" lon="6.61782">
        <ele>131</ele>
        <time>2019-05-30T11:06:07.000Z</time>
      </trkpt>
      <trkpt lat="43.51972" lon="6.61781">
        <ele>132</ele>
        <time>2019-05-30T11:06:16.000Z</time>
      </trkpt>
      <trkpt lat="43.51971" lon="6.61779">
        <ele>131.80000305176</ele>
        <time>2019-05-30T11:06:22.000Z</time>
      </trkpt>
      <trkpt lat="43.51971" lon="6.61779">
        <ele>132.39999389648</ele>
        <time>2019-05-30T11:06:29.000Z</time>
      </trkpt>
      <trkpt lat="43.51971" lon="6.61779">
        <ele>132.19999694824</ele>
        <time>2019-05-30T11:06:31.000Z</time>
      </trkpt>
      <trkpt lat="43.5197" lon="6.6178">
        <ele>131.80000305176</ele>
        <time>2019-05-30T11:06:42.000Z</time>
      </trkpt>
      <trkpt lat="43.51969" lon="6.61781">
        <ele>132</ele>
        <time>2019-05-30T11:06:55.000Z</time>
      </trkpt>
      <trkpt lat="43.51967" lon="6.61781">
        <ele>131.60000610352</ele>
        <time>2019-05-30T11:07:04.000Z</time>
      </trkpt>
      <trkpt lat="43.51967" lon="6.61781">
        <ele>131.80000305176</ele>
        <time>2019-05-30T11:07:09.000Z</time>
      </trkpt>
      <trkpt lat="43.51967" lon="6.61782">
        <ele>131.39999389648</ele>
        <time>2019-05-30T11:07:17.000Z</time>
      </trkpt>
      <trkpt lat="43.51967" lon="6.61781">
        <ele>131.39999389648</ele>
        <time>2019-05-30T11:07:21.000Z</time>
      </trkpt>
      <trkpt lat="43.51967" lon="6.61782">
        <ele>131.60000610352</ele>
        <time>2019-05-30T11:07:30.000Z</time>
      </trkpt>
      <trkpt lat="43.51967" lon="6.61782">
        <ele>132</ele>
        <time>2019-05-30T11:07:39.000Z</time>
      </trkpt>
      <trkpt lat="43.51967" lon="6.61781">
        <ele>132</ele>
        <time>2019-05-30T11:07:48.000Z</time>
      </trkpt>
      <trkpt lat="43.51968" lon="6.61781">
        <ele>132</ele>
        <time>2019-05-30T11:07:55.000Z</time>
      </trkpt>
      <trkpt lat="43.51968" lon="6.6178">
        <ele>132</ele>
        <time>2019-05-30T11:08:05.000Z</time>
      </trkpt>
      <trkpt lat="43.51967" lon="6.6178">
        <ele>132</ele>
        <time>2019-05-30T11:08:18.000Z</time>
      </trkpt>
      <trkpt lat="43.51968" lon="6.6178">
        <ele>132.19999694824</ele>
        <time>2019-05-30T11:08:29.000Z</time>
      </trkpt>
      <trkpt lat="43.51968" lon="6.61781">
        <ele>132</ele>
        <time>2019-05-30T11:08:41.000Z</time>
      </trkpt>
      <trkpt lat="43.51968" lon="6.61781">
        <ele>132</ele>
        <time>2019-05-30T11:08:51.000Z</time>
      </trkpt>
      <trkpt lat="43.51968" lon="6.61781">
        <ele>132.19999694824</ele>
        <time>2019-05-30T11:09:11.000Z</time>
      </trkpt>
      <trkpt lat="43.51969" lon="6.61781">
        <ele>132.19999694824</ele>
        <time>2019-05-30T11:09:22.000Z</time>
      </trkpt>
      <trkpt lat="43.5197" lon="6.61781">
        <ele>132.39999389648</ele>
        <time>2019-05-30T11:09:29.000Z</time>
      </trkpt>
      <trkpt lat="43.51971" lon="6.61781">
        <ele>132.19999694824</ele>
        <time>2019-05-30T11:09:30.000Z</time>
      </trkpt>
      <trkpt lat="43.51971" lon="6.6178">
        <ele>132</ele>
        <time>2019-05-30T11:09:38.000Z</time>
      </trkpt>
      <trkpt lat="43.5197" lon="6.6178">
        <ele>131.39999389648</ele>
        <time>2019-05-30T11:09:53.000Z</time>
      </trkpt>
      <trkpt lat="43.51971" lon="6.61781">
        <ele>131.60000610352</ele>
        <time>2019-05-30T11:10:01.000Z</time>
      </trkpt>
      <trkpt lat="43.51971" lon="6.6178">
        <ele>131.60000610352</ele>
        <time>2019-05-30T11:10:05.000Z</time>
      </trkpt>
      <trkpt lat="43.5197" lon="6.6178">
        <ele>131.60000610352</ele>
        <time>2019-05-30T11:10:11.000Z</time>
      </trkpt>
      <trkpt lat="43.5197" lon="6.6178">
        <ele>131.39999389648</ele>
        <time>2019-05-30T11:10:15.000Z</time>
      </trkpt>
      <trkpt lat="43.51969" lon="6.61779">
        <ele>131.39999389648</ele>
        <time>2019-05-30T11:10:21.000Z</time>
      </trkpt>
      <trkpt lat="43.5197" lon="6.61779">
        <ele>131.39999389648</ele>
        <time>2019-05-30T11:10:24.000Z</time>
      </trkpt>
      <trkpt lat="43.5197" lon="6.6178">
        <ele>131.39999389648</ele>
        <time>2019-05-30T11:10:30.000Z</time>
      </trkpt>
      <trkpt lat="43.51972" lon="6.61781">
        <ele>131</ele>
        <time>2019-05-30T11:10:45.000Z</time>
      </trkpt>
      <trkpt lat="43.51972" lon="6.61781">
        <ele>131.60000610352</ele>
        <time>2019-05-30T11:11:00.000Z</time>
      </trkpt>
      <trkpt lat="43.51972" lon="6.61782">
        <ele>131.39999389648</ele>
        <time>2019-05-30T11:11:12.000Z</time>
      </trkpt>
      <trkpt lat="43.51972" lon="6.61782">
        <ele>131.60000610352</ele>
        <time>2019-05-30T11:11:23.000Z</time>
      </trkpt>
      <trkpt lat="43.51972" lon="6.61781">
        <ele>131.39999389648</ele>
        <time>2019-05-30T11:11:32.000Z</time>
      </trkpt>
      <trkpt lat="43.51972" lon="6.61781">
        <ele>131.19999694824</ele>
        <time>2019-05-30T11:11:38.000Z</time>
      </trkpt>
      <trkpt lat="43.51973" lon="6.61782">
        <ele>131.19999694824</ele>
        <time>2019-05-30T11:11:46.000Z</time>
      </trkpt>
      <trkpt lat="43.51973" lon="6.61781">
        <ele>131.19999694824</ele>
        <time>2019-05-30T11:11:52.000Z</time>
      </trkpt>
      <trkpt lat="43.51975" lon="6.61782">
        <ele>131.60000610352</ele>
        <time>2019-05-30T11:12:04.000Z</time>
      </trkpt>
      <trkpt lat="43.51976" lon="6.61782">
        <ele>131.19999694824</ele>
        <time>2019-05-30T11:12:12.000Z</time>
      </trkpt>
      <trkpt lat="43.51977" lon="6.61785">
        <ele>131.19999694824</ele>
        <time>2019-05-30T11:12:18.000Z</time>
      </trkpt>
      <trkpt lat="43.51977" lon="6.61786">
        <ele>131.19999694824</ele>
        <time>2019-05-30T11:12:28.000Z</time>
      </trkpt>
      <trkpt lat="43.51977" lon="6.61786">
        <ele>131.39999389648</ele>
        <time>2019-05-30T11:12:36.000Z</time>
      </trkpt>
      <trkpt lat="43.51977" lon="6.61783">
        <ele>131.60000610352</ele>
        <time>2019-05-30T11:12:44.000Z</time>
      </trkpt>
      <trkpt lat="43.51976" lon="6.6178">
        <ele>131.60000610352</ele>
        <time>2019-05-30T11:12:51.000Z</time>
      </trkpt>
      <trkpt lat="43.51976" lon="6.61779">
        <ele>131.39999389648</ele>
        <time>2019-05-30T11:12:58.000Z</time>
      </trkpt>
      <trkpt lat="43.51977" lon="6.61779">
        <ele>131.60000610352</ele>
        <time>2019-05-30T11:12:59.000Z</time>
      </trkpt>
      <trkpt lat="43.5198" lon="6.61779">
        <ele>131.60000610352</ele>
        <time>2019-05-30T11:13:03.000Z</time>
      </trkpt>
      <trkpt lat="43.51986" lon="6.61775">
        <ele>131.39999389648</ele>
        <time>2019-05-30T11:13:09.000Z</time>
      </trkpt>
      <trkpt lat="43.51987" lon="6.61774">
        <ele>131.39999389648</ele>
        <time>2019-05-30T11:13:10.000Z</time>
      </trkpt>
      <trkpt lat="43.51991" lon="6.61772">
        <ele>131.60000610352</ele>
        <time>2019-05-30T11:13:15.000Z</time>
      </trkpt>
      <trkpt lat="43.51991" lon="6.61771">
        <ele>131.80000305176</ele>
        <time>2019-05-30T11:13:21.000Z</time>
      </trkpt>
      <trkpt lat="43.5199" lon="6.6177">
        <ele>132.39999389648</ele>
        <time>2019-05-30T11:13:24.000Z</time>
      </trkpt>
      <trkpt lat="43.51989" lon="6.61766">
        <ele>132.39999389648</ele>
        <time>2019-05-30T11:13:30.000Z</time>
      </trkpt>
      <trkpt lat="43.51988" lon="6.61764">
        <ele>132</ele>
        <time>2019-05-30T11:13:36.000Z</time>
      </trkpt>
      <trkpt lat="43.51985" lon="6.61763">
        <ele>131.80000305176</ele>
        <time>2019-05-30T11:13:42.000Z</time>
      </trkpt>
      <trkpt lat="43.51984" lon="6.61762">
        <ele>131.80000305176</ele>
        <time>2019-05-30T11:13:49.000Z</time>
      </trkpt>
      <trkpt lat="43.51985" lon="6.61766">
        <ele>131.60000610352</ele>
        <time>2019-05-30T11:13:56.000Z</time>
      </trkpt>
      <trkpt lat="43.51986" lon="6.61767">
        <ele>132</ele>
        <time>2019-05-30T11:14:03.000Z</time>
      </trkpt>
      <trkpt lat="43.51985" lon="6.61765">
        <ele>131.39999389648</ele>
        <time>2019-05-30T11:14:08.000Z</time>
      </trkpt>
      <trkpt lat="43.51985" lon="6.61765">
        <ele>131.19999694824</ele>
        <time>2019-05-30T11:14:09.000Z</time>
      </trkpt>
      <trkpt lat="43.51984" lon="6.61759">
        <ele>131.60000610352</ele>
        <time>2019-05-30T11:14:15.000Z</time>
      </trkpt>
      <trkpt lat="43.51982" lon="6.61752">
        <ele>131.39999389648</ele>
        <time>2019-05-30T11:14:28.000Z</time>
      </trkpt>
      <trkpt lat="43.51984" lon="6.61754">
        <ele>131.39999389648</ele>
        <time>2019-05-30T11:14:37.000Z</time>
      </trkpt>
      <trkpt lat="43.51983" lon="6.61753">
        <ele>131.80000305176</ele>
        <time>2019-05-30T11:14:44.000Z</time>
      </trkpt>
      <trkpt lat="43.51982" lon="6.61753">
        <ele>132</ele>
        <time>2019-05-30T11:14:49.000Z</time>
      </trkpt>
      <trkpt lat="43.51982" lon="6.61754">
        <ele>131.39999389648</ele>
        <time>2019-05-30T11:14:56.000Z</time>
      </trkpt>
      <trkpt lat="43.51984" lon="6.61755">
        <ele>131.19999694824</ele>
        <time>2019-05-30T11:15:02.000Z</time>
      </trkpt>
      <trkpt lat="43.51983" lon="6.61755">
        <ele>131.60000610352</ele>
        <time>2019-05-30T11:15:07.000Z</time>
      </trkpt>
      <trkpt lat="43.51984" lon="6.61756">
        <ele>132</ele>
        <time>2019-05-30T11:15:14.000Z</time>
      </trkpt>
      <trkpt lat="43.51983" lon="6.61757">
        <ele>131.80000305176</ele>
        <time>2019-05-30T11:15:15.000Z</time>
      </trkpt>
      <trkpt lat="43.51981" lon="6.61761">
        <ele>131.80000305176</ele>
        <time>2019-05-30T11:15:20.000Z</time>
      </trkpt>
      <trkpt lat="43.5198" lon="6.61766">
        <ele>131.60000610352</ele>
        <time>2019-05-30T11:15:28.000Z</time>
      </trkpt>
      <trkpt lat="43.51981" lon="6.6177">
        <ele>131.60000610352</ele>
        <time>2019-05-30T11:15:42.000Z</time>
      </trkpt>
      <trkpt lat="43.51978" lon="6.61775">
        <ele>131.39999389648</ele>
        <time>2019-05-30T11:15:49.000Z</time>
      </trkpt>
      <trkpt lat="43.51974" lon="6.61775">
        <ele>131.60000610352</ele>
        <time>2019-05-30T11:15:55.000Z</time>
      </trkpt>
      <trkpt lat="43.51974" lon="6.61778">
        <ele>131.19999694824</ele>
        <time>2019-05-30T11:16:00.000Z</time>
      </trkpt>
      <trkpt lat="43.51973" lon="6.61784">
        <ele>131.80000305176</ele>
        <time>2019-05-30T11:16:08.000Z</time>
      </trkpt>
      <trkpt lat="43.51973" lon="6.61785">
        <ele>131.60000610352</ele>
        <time>2019-05-30T11:16:15.000Z</time>
      </trkpt>
      <trkpt lat="43.51974" lon="6.61785">
        <ele>132</ele>
        <time>2019-05-30T11:16:25.000Z</time>
      </trkpt>
      <trkpt lat="43.51975" lon="6.61785">
        <ele>131.39999389648</ele>
        <time>2019-05-30T11:16:34.000Z</time>
      </trkpt>
      <trkpt lat="43.51975" lon="6.61785">
        <ele>131.19999694824</ele>
        <time>2019-05-30T11:16:42.000Z</time>
      </trkpt>
      <trkpt lat="43.51974" lon="6.61782">
        <ele>132</ele>
        <time>2019-05-30T11:16:53.000Z</time>
      </trkpt>
      <trkpt lat="43.51977" lon="6.61777">
        <ele>131.80000305176</ele>
        <time>2019-05-30T11:16:58.000Z</time>
      </trkpt>
      <trkpt lat="43.51976" lon="6.6178">
        <ele>132</ele>
        <time>2019-05-30T11:17:03.000Z</time>
      </trkpt>
      <trkpt lat="43.51975" lon="6.61784">
        <ele>131.60000610352</ele>
        <time>2019-05-30T11:17:09.000Z</time>
      </trkpt>
      <trkpt lat="43.51976" lon="6.61785">
        <ele>131.80000305176</ele>
        <time>2019-05-30T11:17:14.000Z</time>
      </trkpt>
      <trkpt lat="43.51976" lon="6.61785">
        <ele>132.19999694824</ele>
        <time>2019-05-30T11:17:21.000Z</time>
      </trkpt>
      <trkpt lat="43.51976" lon="6.61785">
        <ele>131.60000610352</ele>
        <time>2019-05-30T11:17:28.000Z</time>
      </trkpt>
      <trkpt lat="43.51977" lon="6.61787">
        <ele>131.60000610352</ele>
        <time>2019-05-30T11:17:42.000Z</time>
      </trkpt>
      <trkpt lat="43.51977" lon="6.61787">
        <ele>131.39999389648</ele>
        <time>2019-05-30T11:17:57.000Z</time>
      </trkpt>
      <trkpt lat="43.51977" lon="6.61787">
        <ele>131.60000610352</ele>
        <time>2019-05-30T11:18:03.000Z</time>
      </trkpt>
      <trkpt lat="43.51977" lon="6.61787">
        <ele>131.80000305176</ele>
        <time>2019-05-30T11:18:17.000Z</time>
      </trkpt>
      <trkpt lat="43.51978" lon="6.61786">
        <ele>132</ele>
        <time>2019-05-30T11:18:33.000Z</time>
      </trkpt>
      <trkpt lat="43.51979" lon="6.61783">
        <ele>131.80000305176</ele>
        <time>2019-05-30T11:18:38.000Z</time>
      </trkpt>
      <trkpt lat="43.5198" lon="6.61771">
        <ele>131.80000305176</ele>
        <time>2019-05-30T11:18:43.000Z</time>
      </trkpt>
      <trkpt lat="43.51982" lon="6.61749">
        <ele>131.60000610352</ele>
        <time>2019-05-30T11:18:50.000Z</time>
      </trkpt>
      <trkpt lat="43.51987" lon="6.61722">
        <ele>131.39999389648</ele>
        <time>2019-05-30T11:18:56.000Z</time>
      </trkpt>
      <trkpt lat="43.5199" lon="6.61704">
        <ele>130.19999694824</ele>
        <time>2019-05-30T11:18:59.000Z</time>
      </trkpt>
      <trkpt lat="43.51994" lon="6.61685">
        <ele>129.60000610352</ele>
        <time>2019-05-30T11:19:02.000Z</time>
      </trkpt>
      <trkpt lat="43.51994" lon="6.61678">
        <ele>129.60000610352</ele>
        <time>2019-05-30T11:19:03.000Z</time>
      </trkpt>
      <trkpt lat="43.51995" lon="6.61666">
        <ele>129.19999694824</ele>
        <time>2019-05-30T11:19:05.000Z</time>
      </trkpt>
      <trkpt lat="43.51994" lon="6.61659">
        <ele>129.19999694824</ele>
        <time>2019-05-30T11:19:06.000Z</time>
      </trkpt>
      <trkpt lat="43.51994" lon="6.61652">
        <ele>129</ele>
        <time>2019-05-30T11:19:07.000Z</time>
      </trkpt>
      <trkpt lat="43.51991" lon="6.61604">
        <ele>128.60000610352</ele>
        <time>2019-05-30T11:19:14.000Z</time>
      </trkpt>
      <trkpt lat="43.5199" lon="6.61597">
        <ele>128.60000610352</ele>
        <time>2019-05-30T11:19:15.000Z</time>
      </trkpt>
      <trkpt lat="43.51984" lon="6.61576">
        <ele>128.39999389648</ele>
        <time>2019-05-30T11:19:18.000Z</time>
      </trkpt>
      <trkpt lat="43.51984" lon="6.61569">
        <ele>128.19999694824</ele>
        <time>2019-05-30T11:19:19.000Z</time>
      </trkpt>
      <trkpt lat="43.51988" lon="6.61555">
        <ele>128.19999694824</ele>
        <time>2019-05-30T11:19:21.000Z</time>
      </trkpt>
      <trkpt lat="43.52001" lon="6.61532">
        <ele>127.19999694824</ele>
        <time>2019-05-30T11:19:25.000Z</time>
      </trkpt>
      <trkpt lat="43.52004" lon="6.61529">
        <ele>126.80000305176</ele>
        <time>2019-05-30T11:19:26.000Z</time>
      </trkpt>
      <trkpt lat="43.52009" lon="6.61519">
        <ele>126</ele>
        <time>2019-05-30T11:19:29.000Z</time>
      </trkpt>
      <trkpt lat="43.52009" lon="6.61517">
        <ele>125.59999847412</ele>
        <time>2019-05-30T11:19:30.000Z</time>
      </trkpt>
      <trkpt lat="43.52011" lon="6.61515">
        <ele>125.19999694824</ele>
        <time>2019-05-30T11:19:31.000Z</time>
      </trkpt>
      <trkpt lat="43.52013" lon="6.61511">
        <ele>125.19999694824</ele>
        <time>2019-05-30T11:19:33.000Z</time>
      </trkpt>
      <trkpt lat="43.52019" lon="6.61502">
        <ele>126</ele>
        <time>2019-05-30T11:19:39.000Z</time>
      </trkpt>
      <trkpt lat="43.52022" lon="6.61496">
        <ele>126.59999847412</ele>
        <time>2019-05-30T11:19:42.000Z</time>
      </trkpt>
      <trkpt lat="43.52029" lon="6.61484">
        <ele>127.59999847412</ele>
        <time>2019-05-30T11:19:47.000Z</time>
      </trkpt>
      <trkpt lat="43.52031" lon="6.61481">
        <ele>127.59999847412</ele>
        <time>2019-05-30T11:19:48.000Z</time>
      </trkpt>
      <trkpt lat="43.52037" lon="6.61467">
        <ele>128.80000305176</ele>
        <time>2019-05-30T11:19:53.000Z</time>
      </trkpt>
      <trkpt lat="43.52041" lon="6.61458">
        <ele>129.39999389648</ele>
        <time>2019-05-30T11:19:56.000Z</time>
      </trkpt>
      <trkpt lat="43.52043" lon="6.61453">
        <ele>129.80000305176</ele>
        <time>2019-05-30T11:19:58.000Z</time>
      </trkpt>
      <trkpt lat="43.52046" lon="6.61445">
        <ele>131</ele>
        <time>2019-05-30T11:20:01.000Z</time>
      </trkpt>
      <trkpt lat="43.52051" lon="6.61434">
        <ele>131.80000305176</ele>
        <time>2019-05-30T11:20:05.000Z</time>
      </trkpt>
      <trkpt lat="43.52059" lon="6.61421">
        <ele>132.19999694824</ele>
        <time>2019-05-30T11:20:10.000Z</time>
      </trkpt>
      <trkpt lat="43.52061" lon="6.61414">
        <ele>132.39999389648</ele>
        <time>2019-05-30T11:20:12.000Z</time>
      </trkpt>
      <trkpt lat="43.52076" lon="6.61381">
        <ele>133.19999694824</ele>
        <time>2019-05-30T11:20:22.000Z</time>
      </trkpt>
      <trkpt lat="43.52077" lon="6.61377">
        <ele>133.19999694824</ele>
        <time>2019-05-30T11:20:23.000Z</time>
      </trkpt>
      <trkpt lat="43.52087" lon="6.6135">
        <ele>133</ele>
        <time>2019-05-30T11:20:29.000Z</time>
      </trkpt>
      <trkpt lat="43.52098" lon="6.61312">
        <ele>133.80000305176</ele>
        <time>2019-05-30T11:20:38.000Z</time>
      </trkpt>
      <trkpt lat="43.52101" lon="6.61304">
        <ele>134.19999694824</ele>
        <time>2019-05-30T11:20:40.000Z</time>
      </trkpt>
      <trkpt lat="43.52108" lon="6.61279">
        <ele>134.60000610352</ele>
        <time>2019-05-30T11:20:46.000Z</time>
      </trkpt>
      <trkpt lat="43.52121" lon="6.61237">
        <ele>135</ele>
        <time>2019-05-30T11:20:55.000Z</time>
      </trkpt>
      <trkpt lat="43.52125" lon="6.61222">
        <ele>135.19999694824</ele>
        <time>2019-05-30T11:20:58.000Z</time>
      </trkpt>
      <trkpt lat="43.52131" lon="6.61201">
        <ele>135</ele>
        <time>2019-05-30T11:21:02.000Z</time>
      </trkpt>
      <trkpt lat="43.52139" lon="6.6116">
        <ele>135.19999694824</ele>
        <time>2019-05-30T11:21:10.000Z</time>
      </trkpt>
      <trkpt lat="43.52148" lon="6.61139">
        <ele>135.60000610352</ele>
        <time>2019-05-30T11:21:15.000Z</time>
      </trkpt>
      <trkpt lat="43.52154" lon="6.61117">
        <ele>136.19999694824</ele>
        <time>2019-05-30T11:21:20.000Z</time>
      </trkpt>
      <trkpt lat="43.52155" lon="6.61113">
        <ele>136.39999389648</ele>
        <time>2019-05-30T11:21:21.000Z</time>
      </trkpt>
      <trkpt lat="43.52162" lon="6.61087">
        <ele>137.39999389648</ele>
        <time>2019-05-30T11:21:27.000Z</time>
      </trkpt>
      <trkpt lat="43.52169" lon="6.6107">
        <ele>137.80000305176</ele>
        <time>2019-05-30T11:21:31.000Z</time>
      </trkpt>
      <trkpt lat="43.52185" lon="6.61035">
        <ele>138.19999694824</ele>
        <time>2019-05-30T11:21:39.000Z</time>
      </trkpt>
      <trkpt lat="43.52189" lon="6.61026">
        <ele>138.39999389648</ele>
        <time>2019-05-30T11:21:41.000Z</time>
      </trkpt>
      <trkpt lat="43.52192" lon="6.61022">
        <ele>138.39999389648</ele>
        <time>2019-05-30T11:21:42.000Z</time>
      </trkpt>
      <trkpt lat="43.52202" lon="6.61008">
        <ele>138.60000610352</ele>
        <time>2019-05-30T11:21:45.000Z</time>
      </trkpt>
      <trkpt lat="43.52216" lon="6.60987">
        <ele>137.60000610352</ele>
        <time>2019-05-30T11:21:48.000Z</time>
      </trkpt>
      <trkpt lat="43.52221" lon="6.60978">
        <ele>136.60000610352</ele>
        <time>2019-05-30T11:21:49.000Z</time>
      </trkpt>
      <trkpt lat="43.52225" lon="6.6097">
        <ele>135.39999389648</ele>
        <time>2019-05-30T11:21:50.000Z</time>
      </trkpt>
      <trkpt lat="43.52236" lon="6.60954">
        <ele>133.19999694824</ele>
        <time>2019-05-30T11:21:52.000Z</time>
      </trkpt>
      <trkpt lat="43.5224" lon="6.60945">
        <ele>132.19999694824</ele>
        <time>2019-05-30T11:21:53.000Z</time>
      </trkpt>
      <trkpt lat="43.52244" lon="6.60934">
        <ele>131.60000610352</ele>
        <time>2019-05-30T11:21:54.000Z</time>
      </trkpt>
      <trkpt lat="43.52249" lon="6.60908">
        <ele>128.80000305176</ele>
        <time>2019-05-30T11:21:56.000Z</time>
      </trkpt>
      <trkpt lat="43.5225" lon="6.60896">
        <ele>127.80000305176</ele>
        <time>2019-05-30T11:21:57.000Z</time>
      </trkpt>
      <trkpt lat="43.52253" lon="6.60884">
        <ele>126.40000152588</ele>
        <time>2019-05-30T11:21:58.000Z</time>
      </trkpt>
      <trkpt lat="43.52256" lon="6.60874">
        <ele>125</ele>
        <time>2019-05-30T11:21:59.000Z</time>
      </trkpt>
      <trkpt lat="43.52263" lon="6.60855">
        <ele>123.59999847412</ele>
        <time>2019-05-30T11:22:01.000Z</time>
      </trkpt>
      <trkpt lat="43.52271" lon="6.60835">
        <ele>125.19999694824</ele>
        <time>2019-05-30T11:22:04.000Z</time>
      </trkpt>
      <trkpt lat="43.52273" lon="6.60829">
        <ele>126.19999694824</ele>
        <time>2019-05-30T11:22:05.000Z</time>
      </trkpt>
      <trkpt lat="43.52276" lon="6.60819">
        <ele>127.40000152588</ele>
        <time>2019-05-30T11:22:07.000Z</time>
      </trkpt>
      <trkpt lat="43.52279" lon="6.60808">
        <ele>128.60000610352</ele>
        <time>2019-05-30T11:22:09.000Z</time>
      </trkpt>
      <trkpt lat="43.5228" lon="6.60802">
        <ele>129</ele>
        <time>2019-05-30T11:22:10.000Z</time>
      </trkpt>
      <trkpt lat="43.52283" lon="6.60791">
        <ele>129.60000610352</ele>
        <time>2019-05-30T11:22:12.000Z</time>
      </trkpt>
      <trkpt lat="43.52292" lon="6.60759">
        <ele>129.80000305176</ele>
        <time>2019-05-30T11:22:17.000Z</time>
      </trkpt>
      <trkpt lat="43.52299" lon="6.60724">
        <ele>130.60000610352</ele>
        <time>2019-05-30T11:22:23.000Z</time>
      </trkpt>
      <trkpt lat="43.52301" lon="6.60718">
        <ele>130.80000305176</ele>
        <time>2019-05-30T11:22:24.000Z</time>
      </trkpt>
      <trkpt lat="43.52306" lon="6.60704">
        <ele>131</ele>
        <time>2019-05-30T11:22:26.000Z</time>
      </trkpt>
      <trkpt lat="43.52308" lon="6.60699">
        <ele>131</ele>
        <time>2019-05-30T11:22:27.000Z</time>
      </trkpt>
      <trkpt lat="43.52313" lon="6.60677">
        <ele>131.19999694824</ele>
        <time>2019-05-30T11:22:32.000Z</time>
      </trkpt>
      <trkpt lat="43.52316" lon="6.60669">
        <ele>132</ele>
        <time>2019-05-30T11:22:34.000Z</time>
      </trkpt>
      <trkpt lat="43.52325" lon="6.60641">
        <ele>133</ele>
        <time>2019-05-30T11:22:41.000Z</time>
      </trkpt>
      <trkpt lat="43.52332" lon="6.60617">
        <ele>134.19999694824</ele>
        <time>2019-05-30T11:22:47.000Z</time>
      </trkpt>
      <trkpt lat="43.52333" lon="6.60606">
        <ele>134.19999694824</ele>
        <time>2019-05-30T11:22:49.000Z</time>
      </trkpt>
      <trkpt lat="43.52333" lon="6.60577">
        <ele>134</ele>
        <time>2019-05-30T11:22:54.000Z</time>
      </trkpt>
      <trkpt lat="43.52333" lon="6.60571">
        <ele>134</ele>
        <time>2019-05-30T11:22:55.000Z</time>
      </trkpt>
      <trkpt lat="43.52335" lon="6.60531">
        <ele>134.19999694824</ele>
        <time>2019-05-30T11:23:01.000Z</time>
      </trkpt>
      <trkpt lat="43.52334" lon="6.60525">
        <ele>134</ele>
        <time>2019-05-30T11:23:02.000Z</time>
      </trkpt>
      <trkpt lat="43.5233" lon="6.60491">
        <ele>133.60000610352</ele>
        <time>2019-05-30T11:23:07.000Z</time>
      </trkpt>
      <trkpt lat="43.52327" lon="6.60447">
        <ele>133.19999694824</ele>
        <time>2019-05-30T11:23:13.000Z</time>
      </trkpt>
      <trkpt lat="43.52327" lon="6.60439">
        <ele>133.19999694824</ele>
        <time>2019-05-30T11:23:14.000Z</time>
      </trkpt>
      <trkpt lat="43.52327" lon="6.60408">
        <ele>132.39999389648</ele>
        <time>2019-05-30T11:23:19.000Z</time>
      </trkpt>
      <trkpt lat="43.52326" lon="6.60378">
        <ele>133.60000610352</ele>
        <time>2019-05-30T11:23:24.000Z</time>
      </trkpt>
      <trkpt lat="43.52324" lon="6.60366">
        <ele>133.60000610352</ele>
        <time>2019-05-30T11:23:26.000Z</time>
      </trkpt>
      <trkpt lat="43.52321" lon="6.60343">
        <ele>134.19999694824</ele>
        <time>2019-05-30T11:23:30.000Z</time>
      </trkpt>
      <trkpt lat="43.52321" lon="6.60337">
        <ele>134.39999389648</ele>
        <time>2019-05-30T11:23:31.000Z</time>
      </trkpt>
      <trkpt lat="43.52323" lon="6.60324">
        <ele>134.60000610352</ele>
        <time>2019-05-30T11:23:33.000Z</time>
      </trkpt>
      <trkpt lat="43.52331" lon="6.60287">
        <ele>135</ele>
        <time>2019-05-30T11:23:40.000Z</time>
      </trkpt>
      <trkpt lat="43.52335" lon="6.60275">
        <ele>134.80000305176</ele>
        <time>2019-05-30T11:23:43.000Z</time>
      </trkpt>
      <trkpt lat="43.52334" lon="6.60269">
        <ele>135</ele>
        <time>2019-05-30T11:23:44.000Z</time>
      </trkpt>
      <trkpt lat="43.52339" lon="6.60241">
        <ele>135.19999694824</ele>
        <time>2019-05-30T11:23:49.000Z</time>
      </trkpt>
      <trkpt lat="43.52341" lon="6.60236">
        <ele>135.19999694824</ele>
        <time>2019-05-30T11:23:50.000Z</time>
      </trkpt>
      <trkpt lat="43.52355" lon="6.60207">
        <ele>134.60000610352</ele>
        <time>2019-05-30T11:23:55.000Z</time>
      </trkpt>
      <trkpt lat="43.52366" lon="6.60177">
        <ele>133.39999389648</ele>
        <time>2019-05-30T11:24:00.000Z</time>
      </trkpt>
      <trkpt lat="43.52376" lon="6.60158">
        <ele>135.39999389648</ele>
        <time>2019-05-30T11:24:05.000Z</time>
      </trkpt>
      <trkpt lat="43.52394" lon="6.60151">
        <ele>135.19999694824</ele>
        <time>2019-05-30T11:24:09.000Z</time>
      </trkpt>
      <trkpt lat="43.52399" lon="6.60148">
        <ele>134.60000610352</ele>
        <time>2019-05-30T11:24:10.000Z</time>
      </trkpt>
      <trkpt lat="43.52403" lon="6.60145">
        <ele>134.39999389648</ele>
        <time>2019-05-30T11:24:11.000Z</time>
      </trkpt>
      <trkpt lat="43.52405" lon="6.60136">
        <ele>133.80000305176</ele>
        <time>2019-05-30T11:24:13.000Z</time>
      </trkpt>
      <trkpt lat="43.52399" lon="6.6012">
        <ele>133.60000610352</ele>
        <time>2019-05-30T11:24:16.000Z</time>
      </trkpt>
      <trkpt lat="43.52389" lon="6.60112">
        <ele>133.80000305176</ele>
        <time>2019-05-30T11:24:19.000Z</time>
      </trkpt>
      <trkpt lat="43.52386" lon="6.60111">
        <ele>134</ele>
        <time>2019-05-30T11:24:20.000Z</time>
      </trkpt>
      <trkpt lat="43.52375" lon="6.60103">
        <ele>135.60000610352</ele>
        <time>2019-05-30T11:24:25.000Z</time>
      </trkpt>
      <trkpt lat="43.52373" lon="6.601">
        <ele>135.80000305176</ele>
        <time>2019-05-30T11:24:26.000Z</time>
      </trkpt>
      <trkpt lat="43.52367" lon="6.60082">
        <ele>136.60000610352</ele>
        <time>2019-05-30T11:24:30.000Z</time>
      </trkpt>
      <trkpt lat="43.52366" lon="6.60076">
        <ele>136.60000610352</ele>
        <time>2019-05-30T11:24:31.000Z</time>
      </trkpt>
      <trkpt lat="43.52363" lon="6.60056">
        <ele>135.80000305176</ele>
        <time>2019-05-30T11:24:34.000Z</time>
      </trkpt>
      <trkpt lat="43.52364" lon="6.60041">
        <ele>135.19999694824</ele>
        <time>2019-05-30T11:24:36.000Z</time>
      </trkpt>
      <trkpt lat="43.52371" lon="6.60012">
        <ele>133.80000305176</ele>
        <time>2019-05-30T11:24:40.000Z</time>
      </trkpt>
      <trkpt lat="43.52371" lon="6.60004">
        <ele>133.39999389648</ele>
        <time>2019-05-30T11:24:41.000Z</time>
      </trkpt>
      <trkpt lat="43.52366" lon="6.5999">
        <ele>132.60000610352</ele>
        <time>2019-05-30T11:24:43.000Z</time>
      </trkpt>
      <trkpt lat="43.52362" lon="6.59986">
        <ele>132</ele>
        <time>2019-05-30T11:24:44.000Z</time>
      </trkpt>
      <trkpt lat="43.52358" lon="6.59982">
        <ele>131.19999694824</ele>
        <time>2019-05-30T11:24:45.000Z</time>
      </trkpt>
      <trkpt lat="43.52347" lon="6.59964">
        <ele>130.19999694824</ele>
        <time>2019-05-30T11:24:48.000Z</time>
      </trkpt>
      <trkpt lat="43.52336" lon="6.59945">
        <ele>130</ele>
        <time>2019-05-30T11:24:51.000Z</time>
      </trkpt>
      <trkpt lat="43.52328" lon="6.59934">
        <ele>129.39999389648</ele>
        <time>2019-05-30T11:24:53.000Z</time>
      </trkpt>
      <trkpt lat="43.52321" lon="6.59921">
        <ele>129</ele>
        <time>2019-05-30T11:24:55.000Z</time>
      </trkpt>
      <trkpt lat="43.52316" lon="6.59907">
        <ele>128.39999389648</ele>
        <time>2019-05-30T11:24:57.000Z</time>
      </trkpt>
      <trkpt lat="43.52314" lon="6.59898">
        <ele>128.39999389648</ele>
        <time>2019-05-30T11:24:58.000Z</time>
      </trkpt>
      <trkpt lat="43.52313" lon="6.59889">
        <ele>127.40000152588</ele>
        <time>2019-05-30T11:24:59.000Z</time>
      </trkpt>
      <trkpt lat="43.52311" lon="6.59868">
        <ele>126.19999694824</ele>
        <time>2019-05-30T11:25:01.000Z</time>
      </trkpt>
      <trkpt lat="43.52309" lon="6.59847">
        <ele>124.80000305176</ele>
        <time>2019-05-30T11:25:03.000Z</time>
      </trkpt>
      <trkpt lat="43.52306" lon="6.59825">
        <ele>123.59999847412</ele>
        <time>2019-05-30T11:25:05.000Z</time>
      </trkpt>
      <trkpt lat="43.52302" lon="6.59787">
        <ele>121.59999847412</ele>
        <time>2019-05-30T11:25:08.000Z</time>
      </trkpt>
      <trkpt lat="43.52301" lon="6.59775">
        <ele>120.19999694824</ele>
        <time>2019-05-30T11:25:09.000Z</time>
      </trkpt>
      <trkpt lat="43.52299" lon="6.59752">
        <ele>118.80000305176</ele>
        <time>2019-05-30T11:25:11.000Z</time>
      </trkpt>
      <trkpt lat="43.52296" lon="6.5974">
        <ele>117.59999847412</ele>
        <time>2019-05-30T11:25:12.000Z</time>
      </trkpt>
      <trkpt lat="43.52294" lon="6.59729">
        <ele>117.59999847412</ele>
        <time>2019-05-30T11:25:13.000Z</time>
      </trkpt>
      <trkpt lat="43.52297" lon="6.59698">
        <ele>117</ele>
        <time>2019-05-30T11:25:16.000Z</time>
      </trkpt>
      <trkpt lat="43.523" lon="6.59689">
        <ele>117</ele>
        <time>2019-05-30T11:25:17.000Z</time>
      </trkpt>
      <trkpt lat="43.52301" lon="6.59678">
        <ele>116.80000305176</ele>
        <time>2019-05-30T11:25:18.000Z</time>
      </trkpt>
      <trkpt lat="43.523" lon="6.59668">
        <ele>116.40000152588</ele>
        <time>2019-05-30T11:25:19.000Z</time>
      </trkpt>
      <trkpt lat="43.52297" lon="6.59659">
        <ele>115.59999847412</ele>
        <time>2019-05-30T11:25:20.000Z</time>
      </trkpt>
      <trkpt lat="43.52294" lon="6.5965">
        <ele>114.59999847412</ele>
        <time>2019-05-30T11:25:21.000Z</time>
      </trkpt>
      <trkpt lat="43.52291" lon="6.59642">
        <ele>114.40000152588</ele>
        <time>2019-05-30T11:25:22.000Z</time>
      </trkpt>
      <trkpt lat="43.52284" lon="6.59623">
        <ele>114</ele>
        <time>2019-05-30T11:25:24.000Z</time>
      </trkpt>
      <trkpt lat="43.52261" lon="6.59578">
        <ele>113.40000152588</ele>
        <time>2019-05-30T11:25:29.000Z</time>
      </trkpt>
      <trkpt lat="43.52257" lon="6.59568">
        <ele>112.59999847412</ele>
        <time>2019-05-30T11:25:30.000Z</time>
      </trkpt>
      <trkpt lat="43.52253" lon="6.59558">
        <ele>112.19999694824</ele>
        <time>2019-05-30T11:25:31.000Z</time>
      </trkpt>
      <trkpt lat="43.52244" lon="6.59516">
        <ele>112</ele>
        <time>2019-05-30T11:25:35.000Z</time>
      </trkpt>
      <trkpt lat="43.52239" lon="6.59481">
        <ele>111</ele>
        <time>2019-05-30T11:25:38.000Z</time>
      </trkpt>
      <trkpt lat="43.52236" lon="6.59459">
        <ele>110.19999694824</ele>
        <time>2019-05-30T11:25:40.000Z</time>
      </trkpt>
      <trkpt lat="43.52235" lon="6.59448">
        <ele>109.40000152588</ele>
        <time>2019-05-30T11:25:41.000Z</time>
      </trkpt>
      <trkpt lat="43.52233" lon="6.59426">
        <ele>107.80000305176</ele>
        <time>2019-05-30T11:25:43.000Z</time>
      </trkpt>
      <trkpt lat="43.52231" lon="6.59403">
        <ele>106.40000152588</ele>
        <time>2019-05-30T11:25:45.000Z</time>
      </trkpt>
      <trkpt lat="43.52231" lon="6.59392">
        <ele>105.80000305176</ele>
        <time>2019-05-30T11:25:46.000Z</time>
      </trkpt>
      <trkpt lat="43.52232" lon="6.59384">
        <ele>105.19999694824</ele>
        <time>2019-05-30T11:25:47.000Z</time>
      </trkpt>
      <trkpt lat="43.52237" lon="6.59366">
        <ele>104.40000152588</ele>
        <time>2019-05-30T11:25:49.000Z</time>
      </trkpt>
      <trkpt lat="43.52238" lon="6.59357">
        <ele>103.80000305176</ele>
        <time>2019-05-30T11:25:50.000Z</time>
      </trkpt>
      <trkpt lat="43.52235" lon="6.59343">
        <ele>102.40000152588</ele>
        <time>2019-05-30T11:25:52.000Z</time>
      </trkpt>
      <trkpt lat="43.52228" lon="6.59339">
        <ele>100.80000305176</ele>
        <time>2019-05-30T11:25:54.000Z</time>
      </trkpt>
      <trkpt lat="43.52224" lon="6.59337">
        <ele>100.19999694824</ele>
        <time>2019-05-30T11:25:55.000Z</time>
      </trkpt>
      <trkpt lat="43.52221" lon="6.59336">
        <ele>100</ele>
        <time>2019-05-30T11:25:56.000Z</time>
      </trkpt>
      <trkpt lat="43.52206" lon="6.5933">
        <ele>101.40000152588</ele>
        <time>2019-05-30T11:26:01.000Z</time>
      </trkpt>
      <trkpt lat="43.52201" lon="6.59325">
        <ele>102</ele>
        <time>2019-05-30T11:26:03.000Z</time>
      </trkpt>
      <trkpt lat="43.52196" lon="6.59315">
        <ele>103.19999694824</ele>
        <time>2019-05-30T11:26:06.000Z</time>
      </trkpt>
      <trkpt lat="43.5219" lon="6.59294">
        <ele>104</ele>
        <time>2019-05-30T11:26:11.000Z</time>
      </trkpt>
      <trkpt lat="43.52188" lon="6.59282">
        <ele>104.19999694824</ele>
        <time>2019-05-30T11:26:13.000Z</time>
      </trkpt>
      <trkpt lat="43.52182" lon="6.59241">
        <ele>104.80000305176</ele>
        <time>2019-05-30T11:26:20.000Z</time>
      </trkpt>
      <trkpt lat="43.52182" lon="6.59223">
        <ele>105.19999694824</ele>
        <time>2019-05-30T11:26:23.000Z</time>
      </trkpt>
      <trkpt lat="43.52184" lon="6.59199">
        <ele>105.59999847412</ele>
        <time>2019-05-30T11:26:27.000Z</time>
      </trkpt>
      <trkpt lat="43.52184" lon="6.59193">
        <ele>105.80000305176</ele>
        <time>2019-05-30T11:26:28.000Z</time>
      </trkpt>
      <trkpt lat="43.52183" lon="6.59176">
        <ele>106.19999694824</ele>
        <time>2019-05-30T11:26:31.000Z</time>
      </trkpt>
      <trkpt lat="43.52182" lon="6.59171">
        <ele>106.40000152588</ele>
        <time>2019-05-30T11:26:32.000Z</time>
      </trkpt>
      <trkpt lat="43.52176" lon="6.59144">
        <ele>107.40000152588</ele>
        <time>2019-05-30T11:26:38.000Z</time>
      </trkpt>
      <trkpt lat="43.52174" lon="6.59136">
        <ele>108</ele>
        <time>2019-05-30T11:26:40.000Z</time>
      </trkpt>
      <trkpt lat="43.52173" lon="6.59127">
        <ele>108.40000152588</ele>
        <time>2019-05-30T11:26:42.000Z</time>
      </trkpt>
      <trkpt lat="43.52175" lon="6.59108">
        <ele>109.19999694824</ele>
        <time>2019-05-30T11:26:46.000Z</time>
      </trkpt>
      <trkpt lat="43.52176" lon="6.591">
        <ele>109.40000152588</ele>
        <time>2019-05-30T11:26:48.000Z</time>
      </trkpt>
      <trkpt lat="43.52179" lon="6.59075">
        <ele>110.19999694824</ele>
        <time>2019-05-30T11:26:53.000Z</time>
      </trkpt>
      <trkpt lat="43.52184" lon="6.59032">
        <ele>108.80000305176</ele>
        <time>2019-05-30T11:26:59.000Z</time>
      </trkpt>
      <trkpt lat="43.52185" lon="6.59024">
        <ele>108.59999847412</ele>
        <time>2019-05-30T11:27:00.000Z</time>
      </trkpt>
      <trkpt lat="43.52188" lon="6.59">
        <ele>108.40000152588</ele>
        <time>2019-05-30T11:27:03.000Z</time>
      </trkpt>
      <trkpt lat="43.52189" lon="6.58991">
        <ele>108.19999694824</ele>
        <time>2019-05-30T11:27:04.000Z</time>
      </trkpt>
      <trkpt lat="43.5219" lon="6.58961">
        <ele>107.19999694824</ele>
        <time>2019-05-30T11:27:07.000Z</time>
      </trkpt>
      <trkpt lat="43.52189" lon="6.58952">
        <ele>106.40000152588</ele>
        <time>2019-05-30T11:27:08.000Z</time>
      </trkpt>
      <trkpt lat="43.52186" lon="6.58943">
        <ele>105.80000305176</ele>
        <time>2019-05-30T11:27:09.000Z</time>
      </trkpt>
      <trkpt lat="43.52174" lon="6.58919">
        <ele>104.59999847412</ele>
        <time>2019-05-30T11:27:12.000Z</time>
      </trkpt>
      <trkpt lat="43.52169" lon="6.5891">
        <ele>104.40000152588</ele>
        <time>2019-05-30T11:27:13.000Z</time>
      </trkpt>
      <trkpt lat="43.5216" lon="6.58892">
        <ele>103.19999694824</ele>
        <time>2019-05-30T11:27:15.000Z</time>
      </trkpt>
      <trkpt lat="43.52155" lon="6.58882">
        <ele>102</ele>
        <time>2019-05-30T11:27:16.000Z</time>
      </trkpt>
      <trkpt lat="43.52146" lon="6.58862">
        <ele>100.59999847412</ele>
        <time>2019-05-30T11:27:18.000Z</time>
      </trkpt>
      <trkpt lat="43.52141" lon="6.58852">
        <ele>99.599998474121</ele>
        <time>2019-05-30T11:27:19.000Z</time>
      </trkpt>
      <trkpt lat="43.52136" lon="6.58841">
        <ele>98.599998474121</ele>
        <time>2019-05-30T11:27:20.000Z</time>
      </trkpt>
      <trkpt lat="43.52128" lon="6.58821">
        <ele>96.599998474121</ele>
        <time>2019-05-30T11:27:22.000Z</time>
      </trkpt>
      <trkpt lat="43.52123" lon="6.588">
        <ele>95.400001525879</ele>
        <time>2019-05-30T11:27:24.000Z</time>
      </trkpt>
      <trkpt lat="43.52121" lon="6.5879">
        <ele>95.199996948242</ele>
        <time>2019-05-30T11:27:25.000Z</time>
      </trkpt>
      <trkpt lat="43.52117" lon="6.58759">
        <ele>96.599998474121</ele>
        <time>2019-05-30T11:27:29.000Z</time>
      </trkpt>
      <trkpt lat="43.52116" lon="6.5875">
        <ele>97</ele>
        <time>2019-05-30T11:27:30.000Z</time>
      </trkpt>
      <trkpt lat="43.5211" lon="6.58709">
        <ele>97.800003051758</ele>
        <time>2019-05-30T11:27:35.000Z</time>
      </trkpt>
      <trkpt lat="43.52105" lon="6.58692">
        <ele>97.800003051758</ele>
        <time>2019-05-30T11:27:37.000Z</time>
      </trkpt>
      <trkpt lat="43.52088" lon="6.58663">
        <ele>96.400001525879</ele>
        <time>2019-05-30T11:27:41.000Z</time>
      </trkpt>
      <trkpt lat="43.52075" lon="6.58654">
        <ele>95</ele>
        <time>2019-05-30T11:27:43.000Z</time>
      </trkpt>
      <trkpt lat="43.52068" lon="6.58653">
        <ele>94.599998474121</ele>
        <time>2019-05-30T11:27:44.000Z</time>
      </trkpt>
      <trkpt lat="43.52053" lon="6.58652">
        <ele>93.199996948242</ele>
        <time>2019-05-30T11:27:46.000Z</time>
      </trkpt>
      <trkpt lat="43.52047" lon="6.58652">
        <ele>92.599998474121</ele>
        <time>2019-05-30T11:27:47.000Z</time>
      </trkpt>
      <trkpt lat="43.52038" lon="6.58653">
        <ele>92</ele>
        <time>2019-05-30T11:27:48.000Z</time>
      </trkpt>
      <trkpt lat="43.52025" lon="6.58658">
        <ele>90.400001525879</ele>
        <time>2019-05-30T11:27:50.000Z</time>
      </trkpt>
      <trkpt lat="43.5202" lon="6.58663">
        <ele>90</ele>
        <time>2019-05-30T11:27:51.000Z</time>
      </trkpt>
      <trkpt lat="43.52014" lon="6.58676">
        <ele>89</ele>
        <time>2019-05-30T11:27:53.000Z</time>
      </trkpt>
      <trkpt lat="43.52012" lon="6.58683">
        <ele>88.599998474121</ele>
        <time>2019-05-30T11:27:54.000Z</time>
      </trkpt>
      <trkpt lat="43.5201" lon="6.58712">
        <ele>88</ele>
        <time>2019-05-30T11:27:58.000Z</time>
      </trkpt>
      <trkpt lat="43.52008" lon="6.58734">
        <ele>87.199996948242</ele>
        <time>2019-05-30T11:28:01.000Z</time>
      </trkpt>
      <trkpt lat="43.52006" lon="6.58738">
        <ele>87</ele>
        <time>2019-05-30T11:28:02.000Z</time>
      </trkpt>
      <trkpt lat="43.51997" lon="6.58742">
        <ele>87.400001525879</ele>
        <time>2019-05-30T11:28:05.000Z</time>
      </trkpt>
      <trkpt lat="43.51994" lon="6.58742">
        <ele>87.800003051758</ele>
        <time>2019-05-30T11:28:06.000Z</time>
      </trkpt>
      <trkpt lat="43.5199" lon="6.58742">
        <ele>88.400001525879</ele>
        <time>2019-05-30T11:28:07.000Z</time>
      </trkpt>
      <trkpt lat="43.51978" lon="6.58739">
        <ele>89.800003051758</ele>
        <time>2019-05-30T11:28:10.000Z</time>
      </trkpt>
      <trkpt lat="43.51974" lon="6.58738">
        <ele>89.800003051758</ele>
        <time>2019-05-30T11:28:11.000Z</time>
      </trkpt>
      <trkpt lat="43.51961" lon="6.58731">
        <ele>89.599998474121</ele>
        <time>2019-05-30T11:28:14.000Z</time>
      </trkpt>
      <trkpt lat="43.51953" lon="6.58726">
        <ele>89.599998474121</ele>
        <time>2019-05-30T11:28:16.000Z</time>
      </trkpt>
      <trkpt lat="43.51949" lon="6.58724">
        <ele>89.599998474121</ele>
        <time>2019-05-30T11:28:17.000Z</time>
      </trkpt>
      <trkpt lat="43.51928" lon="6.58722">
        <ele>89.599998474121</ele>
        <time>2019-05-30T11:28:21.000Z</time>
      </trkpt>
      <trkpt lat="43.51922" lon="6.58722">
        <ele>89.400001525879</ele>
        <time>2019-05-30T11:28:22.000Z</time>
      </trkpt>
      <trkpt lat="43.5191" lon="6.58722">
        <ele>88.800003051758</ele>
        <time>2019-05-30T11:28:24.000Z</time>
      </trkpt>
      <trkpt lat="43.51905" lon="6.58721">
        <ele>88.400001525879</ele>
        <time>2019-05-30T11:28:25.000Z</time>
      </trkpt>
      <trkpt lat="43.519" lon="6.58719">
        <ele>88.199996948242</ele>
        <time>2019-05-30T11:28:26.000Z</time>
      </trkpt>
      <trkpt lat="43.51886" lon="6.58713">
        <ele>88.400001525879</ele>
        <time>2019-05-30T11:28:29.000Z</time>
      </trkpt>
      <trkpt lat="43.51878" lon="6.58704">
        <ele>88.599998474121</ele>
        <time>2019-05-30T11:28:31.000Z</time>
      </trkpt>
      <trkpt lat="43.51869" lon="6.58682">
        <ele>88.400001525879</ele>
        <time>2019-05-30T11:28:34.000Z</time>
      </trkpt>
      <trkpt lat="43.51867" lon="6.58674">
        <ele>88.199996948242</ele>
        <time>2019-05-30T11:28:35.000Z</time>
      </trkpt>
      <trkpt lat="43.51857" lon="6.58643">
        <ele>87.400001525879</ele>
        <time>2019-05-30T11:28:39.000Z</time>
      </trkpt>
      <trkpt lat="43.51849" lon="6.58621">
        <ele>87</ele>
        <time>2019-05-30T11:28:42.000Z</time>
      </trkpt>
      <trkpt lat="43.51846" lon="6.58616">
        <ele>86.800003051758</ele>
        <time>2019-05-30T11:28:43.000Z</time>
      </trkpt>
      <trkpt lat="43.51843" lon="6.58611">
        <ele>86.400001525879</ele>
        <time>2019-05-30T11:28:45.000Z</time>
      </trkpt>
      <trkpt lat="43.51842" lon="6.58612">
        <ele>86.199996948242</ele>
        <time>2019-05-30T11:28:46.000Z</time>
      </trkpt>
      <trkpt lat="43.51837" lon="6.58612">
        <ele>86.400001525879</ele>
        <time>2019-05-30T11:28:49.000Z</time>
      </trkpt>
      <trkpt lat="43.51821" lon="6.58608">
        <ele>86.199996948242</ele>
        <time>2019-05-30T11:28:54.000Z</time>
      </trkpt>
      <trkpt lat="43.51818" lon="6.5861">
        <ele>85.800003051758</ele>
        <time>2019-05-30T11:28:55.000Z</time>
      </trkpt>
      <trkpt lat="43.51812" lon="6.58615">
        <ele>85.199996948242</ele>
        <time>2019-05-30T11:28:57.000Z</time>
      </trkpt>
      <trkpt lat="43.51809" lon="6.58618">
        <ele>84.599998474121</ele>
        <time>2019-05-30T11:28:58.000Z</time>
      </trkpt>
      <trkpt lat="43.51806" lon="6.5862">
        <ele>84.400001525879</ele>
        <time>2019-05-30T11:28:59.000Z</time>
      </trkpt>
      <trkpt lat="43.51802" lon="6.58623">
        <ele>84</ele>
        <time>2019-05-30T11:29:00.000Z</time>
      </trkpt>
      <trkpt lat="43.51788" lon="6.58629">
        <ele>85.199996948242</ele>
        <time>2019-05-30T11:29:04.000Z</time>
      </trkpt>
      <trkpt lat="43.51784" lon="6.5863">
        <ele>85.199996948242</ele>
        <time>2019-05-30T11:29:05.000Z</time>
      </trkpt>
      <trkpt lat="43.51767" lon="6.58635">
        <ele>85.599998474121</ele>
        <time>2019-05-30T11:29:09.000Z</time>
      </trkpt>
      <trkpt lat="43.51763" lon="6.58637">
        <ele>85.400001525879</ele>
        <time>2019-05-30T11:29:10.000Z</time>
      </trkpt>
      <trkpt lat="43.51754" lon="6.58652">
        <ele>84.800003051758</ele>
        <time>2019-05-30T11:29:13.000Z</time>
      </trkpt>
      <trkpt lat="43.51744" lon="6.58661">
        <ele>84.199996948242</ele>
        <time>2019-05-30T11:29:15.000Z</time>
      </trkpt>
      <trkpt lat="43.51734" lon="6.5867">
        <ele>82.599998474121</ele>
        <time>2019-05-30T11:29:17.000Z</time>
      </trkpt>
      <trkpt lat="43.51729" lon="6.58672">
        <ele>81.199996948242</ele>
        <time>2019-05-30T11:29:18.000Z</time>
      </trkpt>
      <trkpt lat="43.51724" lon="6.58672">
        <ele>80</ele>
        <time>2019-05-30T11:29:19.000Z</time>
      </trkpt>
      <trkpt lat="43.51713" lon="6.58675">
        <ele>78.599998474121</ele>
        <time>2019-05-30T11:29:21.000Z</time>
      </trkpt>
      <trkpt lat="43.51708" lon="6.58676">
        <ele>78.199996948242</ele>
        <time>2019-05-30T11:29:22.000Z</time>
      </trkpt>
      <trkpt lat="43.51703" lon="6.58677">
        <ele>78</ele>
        <time>2019-05-30T11:29:23.000Z</time>
      </trkpt>
      <trkpt lat="43.51697" lon="6.58678">
        <ele>77.599998474121</ele>
        <time>2019-05-30T11:29:24.000Z</time>
      </trkpt>
      <trkpt lat="43.51687" lon="6.58683">
        <ele>76.599998474121</ele>
        <time>2019-05-30T11:29:26.000Z</time>
      </trkpt>
      <trkpt lat="43.51681" lon="6.58687">
        <ele>76.199996948242</ele>
        <time>2019-05-30T11:29:27.000Z</time>
      </trkpt>
      <trkpt lat="43.51671" lon="6.58687">
        <ele>75.599998474121</ele>
        <time>2019-05-30T11:29:29.000Z</time>
      </trkpt>
      <trkpt lat="43.51665" lon="6.58687">
        <ele>75.199996948242</ele>
        <time>2019-05-30T11:29:30.000Z</time>
      </trkpt>
      <trkpt lat="43.51661" lon="6.58684">
        <ele>75.199996948242</ele>
        <time>2019-05-30T11:29:31.000Z</time>
      </trkpt>
      <trkpt lat="43.51657" lon="6.58678">
        <ele>74.800003051758</ele>
        <time>2019-05-30T11:29:33.000Z</time>
      </trkpt>
      <trkpt lat="43.51645" lon="6.58675">
        <ele>75.599998474121</ele>
        <time>2019-05-30T11:29:37.000Z</time>
      </trkpt>
      <trkpt lat="43.51638" lon="6.58682">
        <ele>75.400001525879</ele>
        <time>2019-05-30T11:29:40.000Z</time>
      </trkpt>
      <trkpt lat="43.51624" lon="6.58672">
        <ele>74.199996948242</ele>
        <time>2019-05-30T11:29:44.000Z</time>
      </trkpt>
      <trkpt lat="43.5161" lon="6.58655">
        <ele>73.199996948242</ele>
        <time>2019-05-30T11:29:48.000Z</time>
      </trkpt>
      <trkpt lat="43.51606" lon="6.58651">
        <ele>72.800003051758</ele>
        <time>2019-05-30T11:29:49.000Z</time>
      </trkpt>
      <trkpt lat="43.516" lon="6.5864">
        <ele>71.800003051758</ele>
        <time>2019-05-30T11:29:51.000Z</time>
      </trkpt>
      <trkpt lat="43.51597" lon="6.5863">
        <ele>70.599998474121</ele>
        <time>2019-05-30T11:29:53.000Z</time>
      </trkpt>
      <trkpt lat="43.51595" lon="6.58609">
        <ele>70</ele>
        <time>2019-05-30T11:29:57.000Z</time>
      </trkpt>
      <trkpt lat="43.51597" lon="6.58598">
        <ele>70.400001525879</ele>
        <time>2019-05-30T11:29:59.000Z</time>
      </trkpt>
      <trkpt lat="43.51602" lon="6.5859">
        <ele>70.599998474121</ele>
        <time>2019-05-30T11:30:01.000Z</time>
      </trkpt>
      <trkpt lat="43.51609" lon="6.58582">
        <ele>71.400001525879</ele>
        <time>2019-05-30T11:30:04.000Z</time>
      </trkpt>
      <trkpt lat="43.51609" lon="6.5858">
        <ele>71.400001525879</ele>
        <time>2019-05-30T11:30:05.000Z</time>
      </trkpt>
      <trkpt lat="43.51607" lon="6.58578">
        <ele>71.599998474121</ele>
        <time>2019-05-30T11:30:06.000Z</time>
      </trkpt>
      <trkpt lat="43.51605" lon="6.58577">
        <ele>71.800003051758</ele>
        <time>2019-05-30T11:30:07.000Z</time>
      </trkpt>
      <trkpt lat="43.51588" lon="6.58572">
        <ele>70.400001525879</ele>
        <time>2019-05-30T11:30:11.000Z</time>
      </trkpt>
      <trkpt lat="43.51581" lon="6.5857">
        <ele>69.199996948242</ele>
        <time>2019-05-30T11:30:12.000Z</time>
      </trkpt>
      <trkpt lat="43.51574" lon="6.58569">
        <ele>67.599998474121</ele>
        <time>2019-05-30T11:30:13.000Z</time>
      </trkpt>
      <trkpt lat="43.51567" lon="6.58568">
        <ele>65.599998474121</ele>
        <time>2019-05-30T11:30:14.000Z</time>
      </trkpt>
      <trkpt lat="43.5156" lon="6.58567">
        <ele>64.800003051758</ele>
        <time>2019-05-30T11:30:15.000Z</time>
      </trkpt>
      <trkpt lat="43.51554" lon="6.58566">
        <ele>63.599998474121</ele>
        <time>2019-05-30T11:30:16.000Z</time>
      </trkpt>
      <trkpt lat="43.51531" lon="6.58562">
        <ele>62</ele>
        <time>2019-05-30T11:30:20.000Z</time>
      </trkpt>
      <trkpt lat="43.51526" lon="6.58562">
        <ele>62.200000762939</ele>
        <time>2019-05-30T11:30:21.000Z</time>
      </trkpt>
      <trkpt lat="43.51512" lon="6.58569">
        <ele>62.200000762939</ele>
        <time>2019-05-30T11:30:24.000Z</time>
      </trkpt>
      <trkpt lat="43.51502" lon="6.58575">
        <ele>62.400001525879</ele>
        <time>2019-05-30T11:30:26.000Z</time>
      </trkpt>
      <trkpt lat="43.51482" lon="6.58586">
        <ele>62.400001525879</ele>
        <time>2019-05-30T11:30:30.000Z</time>
      </trkpt>
      <trkpt lat="43.5146" lon="6.58596">
        <ele>62.400001525879</ele>
        <time>2019-05-30T11:30:35.000Z</time>
      </trkpt>
      <trkpt lat="43.51434" lon="6.58604">
        <ele>62.599998474121</ele>
        <time>2019-05-30T11:30:41.000Z</time>
      </trkpt>
      <trkpt lat="43.51429" lon="6.58606">
        <ele>62.599998474121</ele>
        <time>2019-05-30T11:30:42.000Z</time>
      </trkpt>
      <trkpt lat="43.51412" lon="6.58615">
        <ele>62.200000762939</ele>
        <time>2019-05-30T11:30:46.000Z</time>
      </trkpt>
      <trkpt lat="43.51387" lon="6.58631">
        <ele>61.799999237061</ele>
        <time>2019-05-30T11:30:52.000Z</time>
      </trkpt>
      <trkpt lat="43.51378" lon="6.58636">
        <ele>61.599998474121</ele>
        <time>2019-05-30T11:30:54.000Z</time>
      </trkpt>
      <trkpt lat="43.51371" lon="6.58637">
        <ele>61.200000762939</ele>
        <time>2019-05-30T11:30:56.000Z</time>
      </trkpt>
      <trkpt lat="43.51371" lon="6.58637">
        <ele>60.799999237061</ele>
        <time>2019-05-30T11:30:58.000Z</time>
      </trkpt>
      <trkpt lat="43.5137" lon="6.58638">
        <ele>60.799999237061</ele>
        <time>2019-05-30T11:30:59.000Z</time>
      </trkpt>
      <trkpt lat="43.5137" lon="6.58638">
        <ele>61</ele>
        <time>2019-05-30T11:31:05.000Z</time>
      </trkpt>
      <trkpt lat="43.51371" lon="6.5864">
        <ele>61.200000762939</ele>
        <time>2019-05-30T11:31:10.000Z</time>
      </trkpt>
      <trkpt lat="43.51373" lon="6.58641">
        <ele>61.200000762939</ele>
        <time>2019-05-30T11:31:12.000Z</time>
      </trkpt>
      <trkpt lat="43.51374" lon="6.5865">
        <ele>61</ele>
        <time>2019-05-30T11:31:15.000Z</time>
      </trkpt>
      <trkpt lat="43.5138" lon="6.58659">
        <ele>60.799999237061</ele>
        <time>2019-05-30T11:31:18.000Z</time>
      </trkpt>
      <trkpt lat="43.51382" lon="6.5866">
        <ele>60.599998474121</ele>
        <time>2019-05-30T11:31:19.000Z</time>
      </trkpt>
      <trkpt lat="43.51385" lon="6.58661">
        <ele>60.599998474121</ele>
        <time>2019-05-30T11:31:20.000Z</time>
      </trkpt>
      <trkpt lat="43.51394" lon="6.58664">
        <ele>60.599998474121</ele>
        <time>2019-05-30T11:31:24.000Z</time>
      </trkpt>
      <trkpt lat="43.51414" lon="6.58676">
        <ele>61.200000762939</ele>
        <time>2019-05-30T11:31:31.000Z</time>
      </trkpt>
      <trkpt lat="43.51431" lon="6.58692">
        <ele>61.599998474121</ele>
        <time>2019-05-30T11:31:38.000Z</time>
      </trkpt>
      <trkpt lat="43.51434" lon="6.58696">
        <ele>62</ele>
        <time>2019-05-30T11:31:40.000Z</time>
      </trkpt>
      <trkpt lat="43.51435" lon="6.58699">
        <ele>62.400001525879</ele>
        <time>2019-05-30T11:31:42.000Z</time>
      </trkpt>
      <trkpt lat="43.51438" lon="6.58704">
        <ele>63.200000762939</ele>
        <time>2019-05-30T11:31:44.000Z</time>
      </trkpt>
      <trkpt lat="43.51443" lon="6.58713">
        <ele>63.799999237061</ele>
        <time>2019-05-30T11:31:47.000Z</time>
      </trkpt>
      <trkpt lat="43.51447" lon="6.58727">
        <ele>63.799999237061</ele>
        <time>2019-05-30T11:31:50.000Z</time>
      </trkpt>
      <trkpt lat="43.51445" lon="6.58732">
        <ele>63.400001525879</ele>
        <time>2019-05-30T11:31:51.000Z</time>
      </trkpt>
      <trkpt lat="43.51436" lon="6.58755">
        <ele>62.599998474121</ele>
        <time>2019-05-30T11:31:57.000Z</time>
      </trkpt>
      <trkpt lat="43.51433" lon="6.58758">
        <ele>62.799999237061</ele>
        <time>2019-05-30T11:31:58.000Z</time>
      </trkpt>
      <trkpt lat="43.51422" lon="6.58764">
        <ele>63.200000762939</ele>
        <time>2019-05-30T11:32:01.000Z</time>
      </trkpt>
      <trkpt lat="43.51399" lon="6.5877">
        <ele>62.799999237061</ele>
        <time>2019-05-30T11:32:06.000Z</time>
      </trkpt>
      <trkpt lat="43.51395" lon="6.5877">
        <ele>62.799999237061</ele>
        <time>2019-05-30T11:32:07.000Z</time>
      </trkpt>
      <trkpt lat="43.51384" lon="6.58762">
        <ele>63.400001525879</ele>
        <time>2019-05-30T11:32:10.000Z</time>
      </trkpt>
      <trkpt lat="43.51381" lon="6.58759">
        <ele>63.599998474121</ele>
        <time>2019-05-30T11:32:11.000Z</time>
      </trkpt>
      <trkpt lat="43.51369" lon="6.58747">
        <ele>64.400001525879</ele>
        <time>2019-05-30T11:32:15.000Z</time>
      </trkpt>
      <trkpt lat="43.51361" lon="6.58737">
        <ele>65.199996948242</ele>
        <time>2019-05-30T11:32:18.000Z</time>
      </trkpt>
      <trkpt lat="43.51358" lon="6.58734">
        <ele>65.400001525879</ele>
        <time>2019-05-30T11:32:19.000Z</time>
      </trkpt>
      <trkpt lat="43.5134" lon="6.58714">
        <ele>65</ele>
        <time>2019-05-30T11:32:23.000Z</time>
      </trkpt>
      <trkpt lat="43.51333" lon="6.58708">
        <ele>64.400001525879</ele>
        <time>2019-05-30T11:32:24.000Z</time>
      </trkpt>
      <trkpt lat="43.5132" lon="6.58698">
        <ele>62.799999237061</ele>
        <time>2019-05-30T11:32:26.000Z</time>
      </trkpt>
      <trkpt lat="43.51314" lon="6.58695">
        <ele>62.200000762939</ele>
        <time>2019-05-30T11:32:27.000Z</time>
      </trkpt>
      <trkpt lat="43.51307" lon="6.58692">
        <ele>61.799999237061</ele>
        <time>2019-05-30T11:32:28.000Z</time>
      </trkpt>
      <trkpt lat="43.51294" lon="6.58687">
        <ele>60.799999237061</ele>
        <time>2019-05-30T11:32:30.000Z</time>
      </trkpt>
      <trkpt lat="43.51287" lon="6.58686">
        <ele>60.400001525879</ele>
        <time>2019-05-30T11:32:31.000Z</time>
      </trkpt>
      <trkpt lat="43.51275" lon="6.58683">
        <ele>60</ele>
        <time>2019-05-30T11:32:33.000Z</time>
      </trkpt>
      <trkpt lat="43.51269" lon="6.58682">
        <ele>59.799999237061</ele>
        <time>2019-05-30T11:32:34.000Z</time>
      </trkpt>
      <trkpt lat="43.51254" lon="6.58683">
        <ele>60</ele>
        <time>2019-05-30T11:32:37.000Z</time>
      </trkpt>
      <trkpt lat="43.51226" lon="6.58689">
        <ele>60</ele>
        <time>2019-05-30T11:32:42.000Z</time>
      </trkpt>
      <trkpt lat="43.51204" lon="6.58698">
        <ele>59.200000762939</ele>
        <time>2019-05-30T11:32:46.000Z</time>
      </trkpt>
      <trkpt lat="43.51193" lon="6.58704">
        <ele>59</ele>
        <time>2019-05-30T11:32:48.000Z</time>
      </trkpt>
      <trkpt lat="43.51167" lon="6.58721">
        <ele>58</ele>
        <time>2019-05-30T11:32:53.000Z</time>
      </trkpt>
      <trkpt lat="43.51162" lon="6.58725">
        <ele>57.799999237061</ele>
        <time>2019-05-30T11:32:54.000Z</time>
      </trkpt>
      <trkpt lat="43.51158" lon="6.5873">
        <ele>57.400001525879</ele>
        <time>2019-05-30T11:32:55.000Z</time>
      </trkpt>
      <trkpt lat="43.51154" lon="6.58735">
        <ele>57</ele>
        <time>2019-05-30T11:32:56.000Z</time>
      </trkpt>
      <trkpt lat="43.5113" lon="6.5876">
        <ele>57.200000762939</ele>
        <time>2019-05-30T11:33:02.000Z</time>
      </trkpt>
      <trkpt lat="43.51101" lon="6.58783">
        <ele>56.799999237061</ele>
        <time>2019-05-30T11:33:08.000Z</time>
      </trkpt>
      <trkpt lat="43.5108" lon="6.58805">
        <ele>56.200000762939</ele>
        <time>2019-05-30T11:33:13.000Z</time>
      </trkpt>
      <trkpt lat="43.51055" lon="6.58823">
        <ele>57.200000762939</ele>
        <time>2019-05-30T11:33:19.000Z</time>
      </trkpt>
      <trkpt lat="43.51047" lon="6.58831">
        <ele>57.599998474121</ele>
        <time>2019-05-30T11:33:21.000Z</time>
      </trkpt>
      <trkpt lat="43.51035" lon="6.58843">
        <ele>57.200000762939</ele>
        <time>2019-05-30T11:33:24.000Z</time>
      </trkpt>
      <trkpt lat="43.51019" lon="6.58859">
        <ele>55.799999237061</ele>
        <time>2019-05-30T11:33:28.000Z</time>
      </trkpt>
      <trkpt lat="43.51012" lon="6.58864">
        <ele>56</ele>
        <time>2019-05-30T11:33:30.000Z</time>
      </trkpt>
      <trkpt lat="43.50988" lon="6.58875">
        <ele>56</ele>
        <time>2019-05-30T11:33:35.000Z</time>
      </trkpt>
      <trkpt lat="43.50962" lon="6.58882">
        <ele>54.599998474121</ele>
        <time>2019-05-30T11:33:40.000Z</time>
      </trkpt>
      <trkpt lat="43.50952" lon="6.58881">
        <ele>54.799999237061</ele>
        <time>2019-05-30T11:33:42.000Z</time>
      </trkpt>
      <trkpt lat="43.50939" lon="6.5888">
        <ele>55.599998474121</ele>
        <time>2019-05-30T11:33:45.000Z</time>
      </trkpt>
      <trkpt lat="43.50931" lon="6.58881">
        <ele>56</ele>
        <time>2019-05-30T11:33:48.000Z</time>
      </trkpt>
      <trkpt lat="43.50928" lon="6.58883">
        <ele>56.799999237061</ele>
        <time>2019-05-30T11:33:50.000Z</time>
      </trkpt>
      <trkpt lat="43.50923" lon="6.58885">
        <ele>57.799999237061</ele>
        <time>2019-05-30T11:33:53.000Z</time>
      </trkpt>
      <trkpt lat="43.50907" lon="6.58886">
        <ele>58.200000762939</ele>
        <time>2019-05-30T11:33:58.000Z</time>
      </trkpt>
      <trkpt lat="43.50889" lon="6.58892">
        <ele>58.200000762939</ele>
        <time>2019-05-30T11:34:03.000Z</time>
      </trkpt>
      <trkpt lat="43.50876" lon="6.58895">
        <ele>58</ele>
        <time>2019-05-30T11:34:06.000Z</time>
      </trkpt>
      <trkpt lat="43.50867" lon="6.58898">
        <ele>57.799999237061</ele>
        <time>2019-05-30T11:34:08.000Z</time>
      </trkpt>
      <trkpt lat="43.50849" lon="6.58905">
        <ele>57.200000762939</ele>
        <time>2019-05-30T11:34:12.000Z</time>
      </trkpt>
      <trkpt lat="43.50842" lon="6.58914">
        <ele>57.200000762939</ele>
        <time>2019-05-30T11:34:14.000Z</time>
      </trkpt>
      <trkpt lat="43.50834" lon="6.58923">
        <ele>57</ele>
        <time>2019-05-30T11:34:16.000Z</time>
      </trkpt>
      <trkpt lat="43.50825" lon="6.58926">
        <ele>57</ele>
        <time>2019-05-30T11:34:18.000Z</time>
      </trkpt>
      <trkpt lat="43.50814" lon="6.58927">
        <ele>57</ele>
        <time>2019-05-30T11:34:20.000Z</time>
      </trkpt>
      <trkpt lat="43.50799" lon="6.5893">
        <ele>57</ele>
        <time>2019-05-30T11:34:23.000Z</time>
      </trkpt>
      <trkpt lat="43.50794" lon="6.58933">
        <ele>56.799999237061</ele>
        <time>2019-05-30T11:34:24.000Z</time>
      </trkpt>
      <trkpt lat="43.50774" lon="6.58948">
        <ele>56.200000762939</ele>
        <time>2019-05-30T11:34:28.000Z</time>
      </trkpt>
      <trkpt lat="43.5077" lon="6.58953">
        <ele>56.400001525879</ele>
        <time>2019-05-30T11:34:29.000Z</time>
      </trkpt>
      <trkpt lat="43.5075" lon="6.58971">
        <ele>56</ele>
        <time>2019-05-30T11:34:33.000Z</time>
      </trkpt>
      <trkpt lat="43.50739" lon="6.58977">
        <ele>56.400001525879</ele>
        <time>2019-05-30T11:34:35.000Z</time>
      </trkpt>
      <trkpt lat="43.50707" lon="6.58991">
        <ele>55.400001525879</ele>
        <time>2019-05-30T11:34:40.000Z</time>
      </trkpt>
      <trkpt lat="43.50702" lon="6.58993">
        <ele>54.799999237061</ele>
        <time>2019-05-30T11:34:41.000Z</time>
      </trkpt>
      <trkpt lat="43.50692" lon="6.58997">
        <ele>54.200000762939</ele>
        <time>2019-05-30T11:34:43.000Z</time>
      </trkpt>
      <trkpt lat="43.50679" lon="6.59">
        <ele>55.400001525879</ele>
        <time>2019-05-30T11:34:46.000Z</time>
      </trkpt>
      <trkpt lat="43.5066" lon="6.59003">
        <ele>56.400001525879</ele>
        <time>2019-05-30T11:34:50.000Z</time>
      </trkpt>
      <trkpt lat="43.50645" lon="6.59006">
        <ele>56.799999237061</ele>
        <time>2019-05-30T11:34:53.000Z</time>
      </trkpt>
      <trkpt lat="43.50604" lon="6.59015">
        <ele>57</ele>
        <time>2019-05-30T11:35:01.000Z</time>
      </trkpt>
      <trkpt lat="43.50571" lon="6.59021">
        <ele>56.599998474121</ele>
        <time>2019-05-30T11:35:08.000Z</time>
      </trkpt>
      <trkpt lat="43.50549" lon="6.59021">
        <ele>57</ele>
        <time>2019-05-30T11:35:14.000Z</time>
      </trkpt>
      <trkpt lat="43.50539" lon="6.59023">
        <ele>57.400001525879</ele>
        <time>2019-05-30T11:35:17.000Z</time>
      </trkpt>
      <trkpt lat="43.50531" lon="6.59024">
        <ele>57.400001525879</ele>
        <time>2019-05-30T11:35:19.000Z</time>
      </trkpt>
      <trkpt lat="43.50508" lon="6.59028">
        <ele>56.799999237061</ele>
        <time>2019-05-30T11:35:25.000Z</time>
      </trkpt>
      <trkpt lat="43.50496" lon="6.59029">
        <ele>56.400001525879</ele>
        <time>2019-05-30T11:35:28.000Z</time>
      </trkpt>
      <trkpt lat="43.5048" lon="6.59032">
        <ele>55.799999237061</ele>
        <time>2019-05-30T11:35:32.000Z</time>
      </trkpt>
      <trkpt lat="43.50462" lon="6.59037">
        <ele>55.400001525879</ele>
        <time>2019-05-30T11:35:36.000Z</time>
      </trkpt>
      <trkpt lat="43.50458" lon="6.59039">
        <ele>55.200000762939</ele>
        <time>2019-05-30T11:35:37.000Z</time>
      </trkpt>
      <trkpt lat="43.50453" lon="6.59042">
        <ele>55.400001525879</ele>
        <time>2019-05-30T11:35:38.000Z</time>
      </trkpt>
      <trkpt lat="43.50418" lon="6.59063">
        <ele>55.599998474121</ele>
        <time>2019-05-30T11:35:46.000Z</time>
      </trkpt>
      <trkpt lat="43.50402" lon="6.5907">
        <ele>55.599998474121</ele>
        <time>2019-05-30T11:35:51.000Z</time>
      </trkpt>
      <trkpt lat="43.50391" lon="6.59073">
        <ele>56.400001525879</ele>
        <time>2019-05-30T11:35:56.000Z</time>
      </trkpt>
      <trkpt lat="43.50388" lon="6.59074">
        <ele>56.799999237061</ele>
        <time>2019-05-30T11:35:58.000Z</time>
      </trkpt>
      <trkpt lat="43.50381" lon="6.59077">
        <ele>57.400001525879</ele>
        <time>2019-05-30T11:36:02.000Z</time>
      </trkpt>
      <trkpt lat="43.50379" lon="6.59078">
        <ele>57.599998474121</ele>
        <time>2019-05-30T11:36:03.000Z</time>
      </trkpt>
      <trkpt lat="43.5037" lon="6.59083">
        <ele>58.799999237061</ele>
        <time>2019-05-30T11:36:08.000Z</time>
      </trkpt>
      <trkpt lat="43.50368" lon="6.59085">
        <ele>59.200000762939</ele>
        <time>2019-05-30T11:36:09.000Z</time>
      </trkpt>
      <trkpt lat="43.50367" lon="6.59087">
        <ele>59.400001525879</ele>
        <time>2019-05-30T11:36:10.000Z</time>
      </trkpt>
      <trkpt lat="43.50364" lon="6.59093">
        <ele>59.799999237061</ele>
        <time>2019-05-30T11:36:12.000Z</time>
      </trkpt>
      <trkpt lat="43.50363" lon="6.59101">
        <ele>60</ele>
        <time>2019-05-30T11:36:15.000Z</time>
      </trkpt>
      <trkpt lat="43.50354" lon="6.59114">
        <ele>60.200000762939</ele>
        <time>2019-05-30T11:36:20.000Z</time>
      </trkpt>
      <trkpt lat="43.50344" lon="6.59118">
        <ele>60.599998474121</ele>
        <time>2019-05-30T11:36:24.000Z</time>
      </trkpt>
      <trkpt lat="43.50337" lon="6.59119">
        <ele>61</ele>
        <time>2019-05-30T11:36:26.000Z</time>
      </trkpt>
      <trkpt lat="43.50321" lon="6.59119">
        <ele>61</ele>
        <time>2019-05-30T11:36:31.000Z</time>
      </trkpt>
      <trkpt lat="43.50311" lon="6.59124">
        <ele>61</ele>
        <time>2019-05-30T11:36:36.000Z</time>
      </trkpt>
      <trkpt lat="43.50294" lon="6.59124">
        <ele>60.599998474121</ele>
        <time>2019-05-30T11:36:40.000Z</time>
      </trkpt>
      <trkpt lat="43.50288" lon="6.59122">
        <ele>60.400001525879</ele>
        <time>2019-05-30T11:36:41.000Z</time>
      </trkpt>
      <trkpt lat="43.50282" lon="6.5912">
        <ele>59.799999237061</ele>
        <time>2019-05-30T11:36:42.000Z</time>
      </trkpt>
      <trkpt lat="43.50269" lon="6.59113">
        <ele>58</ele>
        <time>2019-05-30T11:36:44.000Z</time>
      </trkpt>
      <trkpt lat="43.50264" lon="6.59112">
        <ele>57</ele>
        <time>2019-05-30T11:36:45.000Z</time>
      </trkpt>
      <trkpt lat="43.50258" lon="6.5911">
        <ele>55.799999237061</ele>
        <time>2019-05-30T11:36:46.000Z</time>
      </trkpt>
      <trkpt lat="43.50253" lon="6.59109">
        <ele>55.400001525879</ele>
        <time>2019-05-30T11:36:47.000Z</time>
      </trkpt>
      <trkpt lat="43.50243" lon="6.59107">
        <ele>55.200000762939</ele>
        <time>2019-05-30T11:36:49.000Z</time>
      </trkpt>
      <trkpt lat="43.50207" lon="6.59102">
        <ele>55.599998474121</ele>
        <time>2019-05-30T11:36:56.000Z</time>
      </trkpt>
      <trkpt lat="43.50194" lon="6.591">
        <ele>55.599998474121</ele>
        <time>2019-05-30T11:36:59.000Z</time>
      </trkpt>
      <trkpt lat="43.50173" lon="6.59097">
        <ele>55.400001525879</ele>
        <time>2019-05-30T11:37:03.000Z</time>
      </trkpt>
      <trkpt lat="43.50153" lon="6.59101">
        <ele>55.599998474121</ele>
        <time>2019-05-30T11:37:07.000Z</time>
      </trkpt>
      <trkpt lat="43.50148" lon="6.59101">
        <ele>55.599998474121</ele>
        <time>2019-05-30T11:37:08.000Z</time>
      </trkpt>
      <trkpt lat="43.50137" lon="6.59103">
        <ele>55.799999237061</ele>
        <time>2019-05-30T11:37:10.000Z</time>
      </trkpt>
      <trkpt lat="43.50121" lon="6.59105">
        <ele>55.599998474121</ele>
        <time>2019-05-30T11:37:13.000Z</time>
      </trkpt>
      <trkpt lat="43.50116" lon="6.59104">
        <ele>55.599998474121</ele>
        <time>2019-05-30T11:37:14.000Z</time>
      </trkpt>
      <trkpt lat="43.50102" lon="6.59104">
        <ele>55.400001525879</ele>
        <time>2019-05-30T11:37:17.000Z</time>
      </trkpt>
      <trkpt lat="43.50098" lon="6.59102">
        <ele>55.200000762939</ele>
        <time>2019-05-30T11:37:18.000Z</time>
      </trkpt>
      <trkpt lat="43.50095" lon="6.59098">
        <ele>55.200000762939</ele>
        <time>2019-05-30T11:37:21.000Z</time>
      </trkpt>
      <trkpt lat="43.50094" lon="6.59102">
        <ele>54.799999237061</ele>
        <time>2019-05-30T11:37:25.000Z</time>
      </trkpt>
      <trkpt lat="43.50094" lon="6.59112">
        <ele>54.599998474121</ele>
        <time>2019-05-30T11:37:29.000Z</time>
      </trkpt>
      <trkpt lat="43.5009" lon="6.59117">
        <ele>55.400001525879</ele>
        <time>2019-05-30T11:37:34.000Z</time>
      </trkpt>
      <trkpt lat="43.50088" lon="6.59118">
        <ele>55.599998474121</ele>
        <time>2019-05-30T11:37:35.000Z</time>
      </trkpt>
      <trkpt lat="43.50086" lon="6.59119">
        <ele>55.799999237061</ele>
        <time>2019-05-30T11:37:36.000Z</time>
      </trkpt>
      <trkpt lat="43.50075" lon="6.59126">
        <ele>55.799999237061</ele>
        <time>2019-05-30T11:37:40.000Z</time>
      </trkpt>
      <trkpt lat="43.50056" lon="6.59142">
        <ele>56</ele>
        <time>2019-05-30T11:37:46.000Z</time>
      </trkpt>
      <trkpt lat="43.50053" lon="6.59145">
        <ele>56</ele>
        <time>2019-05-30T11:37:47.000Z</time>
      </trkpt>
      <trkpt lat="43.50037" lon="6.59155">
        <ele>56</ele>
        <time>2019-05-30T11:37:51.000Z</time>
      </trkpt>
      <trkpt lat="43.50033" lon="6.59156">
        <ele>55.799999237061</ele>
        <time>2019-05-30T11:37:52.000Z</time>
      </trkpt>
      <trkpt lat="43.50014" lon="6.59157">
        <ele>55.599998474121</ele>
        <time>2019-05-30T11:37:56.000Z</time>
      </trkpt>
      <trkpt lat="43.49995" lon="6.59154">
        <ele>55.400001525879</ele>
        <time>2019-05-30T11:38:00.000Z</time>
      </trkpt>
      <trkpt lat="43.49982" lon="6.59147">
        <ele>55.200000762939</ele>
        <time>2019-05-30T11:38:03.000Z</time>
      </trkpt>
      <trkpt lat="43.49968" lon="6.59137">
        <ele>55.400001525879</ele>
        <time>2019-05-30T11:38:06.000Z</time>
      </trkpt>
      <trkpt lat="43.49953" lon="6.59129">
        <ele>55</ele>
        <time>2019-05-30T11:38:09.000Z</time>
      </trkpt>
      <trkpt lat="43.49942" lon="6.59123">
        <ele>54.400001525879</ele>
        <time>2019-05-30T11:38:11.000Z</time>
      </trkpt>
      <trkpt lat="43.49931" lon="6.59119">
        <ele>53.599998474121</ele>
        <time>2019-05-30T11:38:13.000Z</time>
      </trkpt>
      <trkpt lat="43.49919" lon="6.59118">
        <ele>53.200000762939</ele>
        <time>2019-05-30T11:38:15.000Z</time>
      </trkpt>
      <trkpt lat="43.49909" lon="6.5912">
        <ele>53.599998474121</ele>
        <time>2019-05-30T11:38:17.000Z</time>
      </trkpt>
      <trkpt lat="43.49887" lon="6.59127">
        <ele>53.599998474121</ele>
        <time>2019-05-30T11:38:21.000Z</time>
      </trkpt>
      <trkpt lat="43.49882" lon="6.59129">
        <ele>53.599998474121</ele>
        <time>2019-05-30T11:38:22.000Z</time>
      </trkpt>
      <trkpt lat="43.49866" lon="6.5914">
        <ele>53.400001525879</ele>
        <time>2019-05-30T11:38:25.000Z</time>
      </trkpt>
      <trkpt lat="43.49861" lon="6.59145">
        <ele>53.400001525879</ele>
        <time>2019-05-30T11:38:26.000Z</time>
      </trkpt>
      <trkpt lat="43.49827" lon="6.59187">
        <ele>52.400001525879</ele>
        <time>2019-05-30T11:38:34.000Z</time>
      </trkpt>
      <trkpt lat="43.49819" lon="6.59198">
        <ele>52.200000762939</ele>
        <time>2019-05-30T11:38:36.000Z</time>
      </trkpt>
      <trkpt lat="43.49809" lon="6.59204">
        <ele>52.200000762939</ele>
        <time>2019-05-30T11:38:38.000Z</time>
      </trkpt>
      <trkpt lat="43.49797" lon="6.5922">
        <ele>51.200000762939</ele>
        <time>2019-05-30T11:38:41.000Z</time>
      </trkpt>
      <trkpt lat="43.49789" lon="6.59232">
        <ele>50.200000762939</ele>
        <time>2019-05-30T11:38:43.000Z</time>
      </trkpt>
      <trkpt lat="43.49785" lon="6.59238">
        <ele>49.799999237061</ele>
        <time>2019-05-30T11:38:44.000Z</time>
      </trkpt>
      <trkpt lat="43.49782" lon="6.59244">
        <ele>48.799999237061</ele>
        <time>2019-05-30T11:38:45.000Z</time>
      </trkpt>
      <trkpt lat="43.49779" lon="6.5925">
        <ele>48</ele>
        <time>2019-05-30T11:38:46.000Z</time>
      </trkpt>
      <trkpt lat="43.49777" lon="6.59255">
        <ele>47.799999237061</ele>
        <time>2019-05-30T11:38:47.000Z</time>
      </trkpt>
      <trkpt lat="43.49775" lon="6.59263">
        <ele>47.400001525879</ele>
        <time>2019-05-30T11:38:48.000Z</time>
      </trkpt>
      <trkpt lat="43.49771" lon="6.59278">
        <ele>47.200000762939</ele>
        <time>2019-05-30T11:38:50.000Z</time>
      </trkpt>
      <trkpt lat="43.49767" lon="6.59292">
        <ele>46.799999237061</ele>
        <time>2019-05-30T11:38:52.000Z</time>
      </trkpt>
      <trkpt lat="43.4976" lon="6.59313">
        <ele>46.799999237061</ele>
        <time>2019-05-30T11:38:55.000Z</time>
      </trkpt>
      <trkpt lat="43.49756" lon="6.59318">
        <ele>46.599998474121</ele>
        <time>2019-05-30T11:38:56.000Z</time>
      </trkpt>
      <trkpt lat="43.4975" lon="6.5933">
        <ele>46.400001525879</ele>
        <time>2019-05-30T11:38:58.000Z</time>
      </trkpt>
      <trkpt lat="43.49746" lon="6.59335">
        <ele>46.200000762939</ele>
        <time>2019-05-30T11:38:59.000Z</time>
      </trkpt>
      <trkpt lat="43.49735" lon="6.59352">
        <ele>45.200000762939</ele>
        <time>2019-05-30T11:39:02.000Z</time>
      </trkpt>
      <trkpt lat="43.49725" lon="6.59363">
        <ele>44.599998474121</ele>
        <time>2019-05-30T11:39:05.000Z</time>
      </trkpt>
      <trkpt lat="43.49725" lon="6.59364">
        <ele>44.200000762939</ele>
        <time>2019-05-30T11:39:06.000Z</time>
      </trkpt>
      <trkpt lat="43.49724" lon="6.59364">
        <ele>44</ele>
        <time>2019-05-30T11:39:08.000Z</time>
      </trkpt>
      <trkpt lat="43.4972" lon="6.59368">
        <ele>44.400001525879</ele>
        <time>2019-05-30T11:39:15.000Z</time>
      </trkpt>
      <trkpt lat="43.49719" lon="6.5937">
        <ele>44.400001525879</ele>
        <time>2019-05-30T11:39:17.000Z</time>
      </trkpt>
      <trkpt lat="43.49717" lon="6.59375">
        <ele>44.200000762939</ele>
        <time>2019-05-30T11:39:20.000Z</time>
      </trkpt>
      <trkpt lat="43.49713" lon="6.59384">
        <ele>44.400001525879</ele>
        <time>2019-05-30T11:39:26.000Z</time>
      </trkpt>
      <trkpt lat="43.49712" lon="6.59386">
        <ele>44.400001525879</ele>
        <time>2019-05-30T11:39:27.000Z</time>
      </trkpt>
      <trkpt lat="43.4971" lon="6.5939">
        <ele>44.599998474121</ele>
        <time>2019-05-30T11:39:31.000Z</time>
      </trkpt>
      <trkpt lat="43.49701" lon="6.59399">
        <ele>45</ele>
        <time>2019-05-30T11:39:35.000Z</time>
      </trkpt>
      <trkpt lat="43.49697" lon="6.59399">
        <ele>45</ele>
        <time>2019-05-30T11:39:36.000Z</time>
      </trkpt>
      <trkpt lat="43.49686" lon="6.59403">
        <ele>44.599998474121</ele>
        <time>2019-05-30T11:39:39.000Z</time>
      </trkpt>
      <trkpt lat="43.49674" lon="6.59414">
        <ele>43.599998474121</ele>
        <time>2019-05-30T11:39:43.000Z</time>
      </trkpt>
      <trkpt lat="43.49653" lon="6.59419">
        <ele>43.400001525879</ele>
        <time>2019-05-30T11:39:49.000Z</time>
      </trkpt>
      <trkpt lat="43.49641" lon="6.59428">
        <ele>43.400001525879</ele>
        <time>2019-05-30T11:39:53.000Z</time>
      </trkpt>
      <trkpt lat="43.49629" lon="6.59439">
        <ele>43.200000762939</ele>
        <time>2019-05-30T11:39:57.000Z</time>
      </trkpt>
      <trkpt lat="43.49624" lon="6.59441">
        <ele>43.599998474121</ele>
        <time>2019-05-30T11:39:58.000Z</time>
      </trkpt>
      <trkpt lat="43.4962" lon="6.59443">
        <ele>43.599998474121</ele>
        <time>2019-05-30T11:40:00.000Z</time>
      </trkpt>
      <trkpt lat="43.49614" lon="6.5945">
        <ele>43.599998474121</ele>
        <time>2019-05-30T11:40:02.000Z</time>
      </trkpt>
      <trkpt lat="43.49609" lon="6.59455">
        <ele>43.400001525879</ele>
        <time>2019-05-30T11:40:04.000Z</time>
      </trkpt>
      <trkpt lat="43.49607" lon="6.59456">
        <ele>43.799999237061</ele>
        <time>2019-05-30T11:40:07.000Z</time>
      </trkpt>
      <trkpt lat="43.49604" lon="6.59455">
        <ele>44.799999237061</ele>
        <time>2019-05-30T11:40:10.000Z</time>
      </trkpt>
      <trkpt lat="43.49599" lon="6.59454">
        <ele>44.799999237061</ele>
        <time>2019-05-30T11:40:12.000Z</time>
      </trkpt>
      <trkpt lat="43.49592" lon="6.59459">
        <ele>44</ele>
        <time>2019-05-30T11:40:16.000Z</time>
      </trkpt>
      <trkpt lat="43.49586" lon="6.59459">
        <ele>44</ele>
        <time>2019-05-30T11:40:19.000Z</time>
      </trkpt>
      <trkpt lat="43.49584" lon="6.5946">
        <ele>44.400001525879</ele>
        <time>2019-05-30T11:40:20.000Z</time>
      </trkpt>
      <trkpt lat="43.4958" lon="6.59461">
        <ele>44.400001525879</ele>
        <time>2019-05-30T11:40:22.000Z</time>
      </trkpt>
      <trkpt lat="43.49575" lon="6.59463">
        <ele>44.400001525879</ele>
        <time>2019-05-30T11:40:24.000Z</time>
      </trkpt>
      <trkpt lat="43.49569" lon="6.59464">
        <ele>44</ele>
        <time>2019-05-30T11:40:27.000Z</time>
      </trkpt>
      <trkpt lat="43.49566" lon="6.59465">
        <ele>44</ele>
        <time>2019-05-30T11:40:28.000Z</time>
      </trkpt>
      <trkpt lat="43.49555" lon="6.59467">
        <ele>43.599998474121</ele>
        <time>2019-05-30T11:40:32.000Z</time>
      </trkpt>
      <trkpt lat="43.49546" lon="6.59467">
        <ele>43.599998474121</ele>
        <time>2019-05-30T11:40:37.000Z</time>
      </trkpt>
      <trkpt lat="43.49544" lon="6.59468">
        <ele>44</ele>
        <time>2019-05-30T11:40:38.000Z</time>
      </trkpt>
      <trkpt lat="43.49539" lon="6.59472">
        <ele>44.400001525879</ele>
        <time>2019-05-30T11:40:41.000Z</time>
      </trkpt>
      <trkpt lat="43.49532" lon="6.59473">
        <ele>44.400001525879</ele>
        <time>2019-05-30T11:40:44.000Z</time>
      </trkpt>
      <trkpt lat="43.4951" lon="6.59475">
        <ele>44.400001525879</ele>
        <time>2019-05-30T11:40:50.000Z</time>
      </trkpt>
      <trkpt lat="43.49498" lon="6.59476">
        <ele>44.599998474121</ele>
        <time>2019-05-30T11:40:54.000Z</time>
      </trkpt>
      <trkpt lat="43.49495" lon="6.59476">
        <ele>44.200000762939</ele>
        <time>2019-05-30T11:40:59.000Z</time>
      </trkpt>
      <trkpt lat="43.49494" lon="6.59477">
        <ele>44.400001525879</ele>
        <time>2019-05-30T11:41:03.000Z</time>
      </trkpt>
      <trkpt lat="43.49492" lon="6.59479">
        <ele>43.599998474121</ele>
        <time>2019-05-30T11:41:11.000Z</time>
      </trkpt>
      <trkpt lat="43.49489" lon="6.5948">
        <ele>44.400001525879</ele>
        <time>2019-05-30T11:41:15.000Z</time>
      </trkpt>
      <trkpt lat="43.49487" lon="6.59479">
        <ele>44.400001525879</ele>
        <time>2019-05-30T11:41:16.000Z</time>
      </trkpt>
      <trkpt lat="43.49484" lon="6.5948">
        <ele>44.400001525879</ele>
        <time>2019-05-30T11:41:18.000Z</time>
      </trkpt>
      <trkpt lat="43.49478" lon="6.5948">
        <ele>44.200000762939</ele>
        <time>2019-05-30T11:41:20.000Z</time>
      </trkpt>
      <trkpt lat="43.49467" lon="6.59484">
        <ele>44.200000762939</ele>
        <time>2019-05-30T11:41:25.000Z</time>
      </trkpt>
      <trkpt lat="43.49459" lon="6.59485">
        <ele>45.200000762939</ele>
        <time>2019-05-30T11:41:30.000Z</time>
      </trkpt>
      <trkpt lat="43.49457" lon="6.59484">
        <ele>45.400001525879</ele>
        <time>2019-05-30T11:41:31.000Z</time>
      </trkpt>
      <trkpt lat="43.49446" lon="6.59483">
        <ele>45.599998474121</ele>
        <time>2019-05-30T11:41:35.000Z</time>
      </trkpt>
      <trkpt lat="43.49427" lon="6.59487">
        <ele>46.200000762939</ele>
        <time>2019-05-30T11:41:41.000Z</time>
      </trkpt>
      <trkpt lat="43.49418" lon="6.59486">
        <ele>46.200000762939</ele>
        <time>2019-05-30T11:41:43.000Z</time>
      </trkpt>
      <trkpt lat="43.4941" lon="6.59485">
        <ele>45.799999237061</ele>
        <time>2019-05-30T11:41:45.000Z</time>
      </trkpt>
      <trkpt lat="43.49403" lon="6.59483">
        <ele>45.200000762939</ele>
        <time>2019-05-30T11:41:47.000Z</time>
      </trkpt>
      <trkpt lat="43.494" lon="6.59482">
        <ele>44.799999237061</ele>
        <time>2019-05-30T11:41:48.000Z</time>
      </trkpt>
      <trkpt lat="43.49389" lon="6.5948">
        <ele>44.799999237061</ele>
        <time>2019-05-30T11:41:52.000Z</time>
      </trkpt>
      <trkpt lat="43.49381" lon="6.59473">
        <ele>45.400001525879</ele>
        <time>2019-05-30T11:41:56.000Z</time>
      </trkpt>
      <trkpt lat="43.49379" lon="6.59473">
        <ele>45.400001525879</ele>
        <time>2019-05-30T11:41:59.000Z</time>
      </trkpt>
      <trkpt lat="43.49377" lon="6.59471">
        <ele>45.400001525879</ele>
        <time>2019-05-30T11:42:01.000Z</time>
      </trkpt>
      <trkpt lat="43.49374" lon="6.59468">
        <ele>45.400001525879</ele>
        <time>2019-05-30T11:42:04.000Z</time>
      </trkpt>
      <trkpt lat="43.49368" lon="6.59459">
        <ele>44.599998474121</ele>
        <time>2019-05-30T11:42:08.000Z</time>
      </trkpt>
      <trkpt lat="43.49365" lon="6.59457">
        <ele>44.400001525879</ele>
        <time>2019-05-30T11:42:09.000Z</time>
      </trkpt>
      <trkpt lat="43.49357" lon="6.59451">
        <ele>44.400001525879</ele>
        <time>2019-05-30T11:42:12.000Z</time>
      </trkpt>
      <trkpt lat="43.49351" lon="6.59448">
        <ele>44.599998474121</ele>
        <time>2019-05-30T11:42:14.000Z</time>
      </trkpt>
      <trkpt lat="43.49349" lon="6.59445">
        <ele>44.599998474121</ele>
        <time>2019-05-30T11:42:15.000Z</time>
      </trkpt>
      <trkpt lat="43.49341" lon="6.59431">
        <ele>45</ele>
        <time>2019-05-30T11:42:20.000Z</time>
      </trkpt>
      <trkpt lat="43.49339" lon="6.59427">
        <ele>45.200000762939</ele>
        <time>2019-05-30T11:42:21.000Z</time>
      </trkpt>
      <trkpt lat="43.49332" lon="6.59412">
        <ele>45.400001525879</ele>
        <time>2019-05-30T11:42:25.000Z</time>
      </trkpt>
      <trkpt lat="43.49331" lon="6.59403">
        <ele>45.400001525879</ele>
        <time>2019-05-30T11:42:27.000Z</time>
      </trkpt>
      <trkpt lat="43.49329" lon="6.59399">
        <ele>45.400001525879</ele>
        <time>2019-05-30T11:42:28.000Z</time>
      </trkpt>
      <trkpt lat="43.49328" lon="6.59395">
        <ele>45.400001525879</ele>
        <time>2019-05-30T11:42:29.000Z</time>
      </trkpt>
      <trkpt lat="43.49323" lon="6.59372">
        <ele>44.799999237061</ele>
        <time>2019-05-30T11:42:34.000Z</time>
      </trkpt>
      <trkpt lat="43.49322" lon="6.59361">
        <ele>45</ele>
        <time>2019-05-30T11:42:37.000Z</time>
      </trkpt>
      <trkpt lat="43.49322" lon="6.59358">
        <ele>45</ele>
        <time>2019-05-30T11:42:38.000Z</time>
      </trkpt>
      <trkpt lat="43.49322" lon="6.59337">
        <ele>45</ele>
        <time>2019-05-30T11:42:43.000Z</time>
      </trkpt>
      <trkpt lat="43.49322" lon="6.59332">
        <ele>44.799999237061</ele>
        <time>2019-05-30T11:42:44.000Z</time>
      </trkpt>
      <trkpt lat="43.49322" lon="6.59328">
        <ele>44.599998474121</ele>
        <time>2019-05-30T11:42:45.000Z</time>
      </trkpt>
      <trkpt lat="43.49323" lon="6.59324">
        <ele>44.400001525879</ele>
        <time>2019-05-30T11:42:46.000Z</time>
      </trkpt>
      <trkpt lat="43.49324" lon="6.59319">
        <ele>44.400001525879</ele>
        <time>2019-05-30T11:42:47.000Z</time>
      </trkpt>
      <trkpt lat="43.49324" lon="6.59304">
        <ele>44.200000762939</ele>
        <time>2019-05-30T11:42:50.000Z</time>
      </trkpt>
      <trkpt lat="43.49324" lon="6.59296">
        <ele>44</ele>
        <time>2019-05-30T11:42:52.000Z</time>
      </trkpt>
      <trkpt lat="43.49325" lon="6.59284">
        <ele>44.200000762939</ele>
        <time>2019-05-30T11:42:56.000Z</time>
      </trkpt>
      <trkpt lat="43.49326" lon="6.59282">
        <ele>43.599998474121</ele>
        <time>2019-05-30T11:43:01.000Z</time>
      </trkpt>
      <trkpt lat="43.49326" lon="6.59274">
        <ele>44</ele>
        <time>2019-05-30T11:43:07.000Z</time>
      </trkpt>
      <trkpt lat="43.49325" lon="6.59261">
        <ele>43.599998474121</ele>
        <time>2019-05-30T11:43:11.000Z</time>
      </trkpt>
      <trkpt lat="43.49326" lon="6.59236">
        <ele>43.799999237061</ele>
        <time>2019-05-30T11:43:16.000Z</time>
      </trkpt>
      <trkpt lat="43.49326" lon="6.59213">
        <ele>44.200000762939</ele>
        <time>2019-05-30T11:43:21.000Z</time>
      </trkpt>
      <trkpt lat="43.49324" lon="6.59205">
        <ele>44</ele>
        <time>2019-05-30T11:43:23.000Z</time>
      </trkpt>
      <trkpt lat="43.49321" lon="6.59201">
        <ele>44</ele>
        <time>2019-05-30T11:43:24.000Z</time>
      </trkpt>
      <trkpt lat="43.49319" lon="6.59195">
        <ele>44</ele>
        <time>2019-05-30T11:43:27.000Z</time>
      </trkpt>
      <trkpt lat="43.49318" lon="6.59193">
        <ele>44.200000762939</ele>
        <time>2019-05-30T11:43:28.000Z</time>
      </trkpt>
      <trkpt lat="43.49315" lon="6.59191">
        <ele>45.400001525879</ele>
        <time>2019-05-30T11:43:31.000Z</time>
      </trkpt>
      <trkpt lat="43.49311" lon="6.59187">
        <ele>46.799999237061</ele>
        <time>2019-05-30T11:43:35.000Z</time>
      </trkpt>
      <trkpt lat="43.49308" lon="6.59184">
        <ele>47.400001525879</ele>
        <time>2019-05-30T11:43:37.000Z</time>
      </trkpt>
      <trkpt lat="43.49307" lon="6.59181">
        <ele>47.799999237061</ele>
        <time>2019-05-30T11:43:38.000Z</time>
      </trkpt>
      <trkpt lat="43.49301" lon="6.59173">
        <ele>48.400001525879</ele>
        <time>2019-05-30T11:43:43.000Z</time>
      </trkpt>
      <trkpt lat="43.49293" lon="6.59166">
        <ele>48.200000762939</ele>
        <time>2019-05-30T11:43:46.000Z</time>
      </trkpt>
      <trkpt lat="43.4929" lon="6.59165">
        <ele>48.200000762939</ele>
        <time>2019-05-30T11:43:47.000Z</time>
      </trkpt>
      <trkpt lat="43.49276" lon="6.5916">
        <ele>48.400001525879</ele>
        <time>2019-05-30T11:43:52.000Z</time>
      </trkpt>
      <trkpt lat="43.49264" lon="6.59149">
        <ele>48</ele>
        <time>2019-05-30T11:43:55.000Z</time>
      </trkpt>
      <trkpt lat="43.49261" lon="6.59145">
        <ele>48</ele>
        <time>2019-05-30T11:43:56.000Z</time>
      </trkpt>
      <trkpt lat="43.49249" lon="6.59133">
        <ele>48.200000762939</ele>
        <time>2019-05-30T11:43:59.000Z</time>
      </trkpt>
      <trkpt lat="43.49245" lon="6.59128">
        <ele>48</ele>
        <time>2019-05-30T11:44:00.000Z</time>
      </trkpt>
      <trkpt lat="43.49241" lon="6.59126">
        <ele>47.400001525879</ele>
        <time>2019-05-30T11:44:01.000Z</time>
      </trkpt>
      <trkpt lat="43.49235" lon="6.59129">
        <ele>46.799999237061</ele>
        <time>2019-05-30T11:44:03.000Z</time>
      </trkpt>
      <trkpt lat="43.49232" lon="6.59131">
        <ele>46.599998474121</ele>
        <time>2019-05-30T11:44:04.000Z</time>
      </trkpt>
      <trkpt lat="43.49222" lon="6.59138">
        <ele>45.799999237061</ele>
        <time>2019-05-30T11:44:07.000Z</time>
      </trkpt>
      <trkpt lat="43.49218" lon="6.5914">
        <ele>45.799999237061</ele>
        <time>2019-05-30T11:44:08.000Z</time>
      </trkpt>
      <trkpt lat="43.49208" lon="6.59147">
        <ele>45.599998474121</ele>
        <time>2019-05-30T11:44:12.000Z</time>
      </trkpt>
      <trkpt lat="43.49201" lon="6.59156">
        <ele>45.599998474121</ele>
        <time>2019-05-30T11:44:15.000Z</time>
      </trkpt>
      <trkpt lat="43.49198" lon="6.59162">
        <ele>45.799999237061</ele>
        <time>2019-05-30T11:44:17.000Z</time>
      </trkpt>
      <trkpt lat="43.49194" lon="6.59171">
        <ele>46</ele>
        <time>2019-05-30T11:44:19.000Z</time>
      </trkpt>
      <trkpt lat="43.49189" lon="6.59183">
        <ele>46.400001525879</ele>
        <time>2019-05-30T11:44:22.000Z</time>
      </trkpt>
      <trkpt lat="43.49187" lon="6.59189">
        <ele>46.599998474121</ele>
        <time>2019-05-30T11:44:23.000Z</time>
      </trkpt>
      <trkpt lat="43.49181" lon="6.59197">
        <ele>46.799999237061</ele>
        <time>2019-05-30T11:44:25.000Z</time>
      </trkpt>
      <trkpt lat="43.49169" lon="6.59216">
        <ele>46.400001525879</ele>
        <time>2019-05-30T11:44:29.000Z</time>
      </trkpt>
      <trkpt lat="43.49162" lon="6.59224">
        <ele>46.400001525879</ele>
        <time>2019-05-30T11:44:31.000Z</time>
      </trkpt>
      <trkpt lat="43.49152" lon="6.59238">
        <ele>46.599998474121</ele>
        <time>2019-05-30T11:44:34.000Z</time>
      </trkpt>
      <trkpt lat="43.49145" lon="6.59245">
        <ele>47</ele>
        <time>2019-05-30T11:44:36.000Z</time>
      </trkpt>
      <trkpt lat="43.49141" lon="6.59248">
        <ele>47.200000762939</ele>
        <time>2019-05-30T11:44:37.000Z</time>
      </trkpt>
      <trkpt lat="43.49137" lon="6.59252">
        <ele>47.400001525879</ele>
        <time>2019-05-30T11:44:38.000Z</time>
      </trkpt>
      <trkpt lat="43.49127" lon="6.59264">
        <ele>47.400001525879</ele>
        <time>2019-05-30T11:44:41.000Z</time>
      </trkpt>
      <trkpt lat="43.49124" lon="6.59267">
        <ele>47.400001525879</ele>
        <time>2019-05-30T11:44:42.000Z</time>
      </trkpt>
      <trkpt lat="43.49107" lon="6.59287">
        <ele>47.400001525879</ele>
        <time>2019-05-30T11:44:47.000Z</time>
      </trkpt>
      <trkpt lat="43.49103" lon="6.59292">
        <ele>47.400001525879</ele>
        <time>2019-05-30T11:44:48.000Z</time>
      </trkpt>
      <trkpt lat="43.49089" lon="6.59311">
        <ele>47.599998474121</ele>
        <time>2019-05-30T11:44:53.000Z</time>
      </trkpt>
      <trkpt lat="43.49084" lon="6.59314">
        <ele>47.599998474121</ele>
        <time>2019-05-30T11:44:54.000Z</time>
      </trkpt>
      <trkpt lat="43.49081" lon="6.59316">
        <ele>47.599998474121</ele>
        <time>2019-05-30T11:44:55.000Z</time>
      </trkpt>
      <trkpt lat="43.49073" lon="6.59319">
        <ele>47.799999237061</ele>
        <time>2019-05-30T11:44:57.000Z</time>
      </trkpt>
      <trkpt lat="43.4906" lon="6.5932">
        <ele>47.599998474121</ele>
        <time>2019-05-30T11:45:00.000Z</time>
      </trkpt>
      <trkpt lat="43.49041" lon="6.59327">
        <ele>46.799999237061</ele>
        <time>2019-05-30T11:45:04.000Z</time>
      </trkpt>
      <trkpt lat="43.49037" lon="6.59328">
        <ele>46.599998474121</ele>
        <time>2019-05-30T11:45:05.000Z</time>
      </trkpt>
      <trkpt lat="43.4902" lon="6.59341">
        <ele>46</ele>
        <time>2019-05-30T11:45:09.000Z</time>
      </trkpt>
      <trkpt lat="43.49003" lon="6.59355">
        <ele>46</ele>
        <time>2019-05-30T11:45:13.000Z</time>
      </trkpt>
      <trkpt lat="43.4899" lon="6.59362">
        <ele>46.200000762939</ele>
        <time>2019-05-30T11:45:16.000Z</time>
      </trkpt>
      <trkpt lat="43.4897" lon="6.59375">
        <ele>46.599998474121</ele>
        <time>2019-05-30T11:45:21.000Z</time>
      </trkpt>
      <trkpt lat="43.48963" lon="6.5938">
        <ele>46.799999237061</ele>
        <time>2019-05-30T11:45:23.000Z</time>
      </trkpt>
      <trkpt lat="43.48953" lon="6.594">
        <ele>46.400001525879</ele>
        <time>2019-05-30T11:45:28.000Z</time>
      </trkpt>
      <trkpt lat="43.48958" lon="6.59415">
        <ele>46.200000762939</ele>
        <time>2019-05-30T11:45:31.000Z</time>
      </trkpt>
      <trkpt lat="43.4896" lon="6.59419">
        <ele>46.200000762939</ele>
        <time>2019-05-30T11:45:32.000Z</time>
      </trkpt>
      <trkpt lat="43.48976" lon="6.59443">
        <ele>46.200000762939</ele>
        <time>2019-05-30T11:45:38.000Z</time>
      </trkpt>
      <trkpt lat="43.48979" lon="6.59447">
        <ele>46.400001525879</ele>
        <time>2019-05-30T11:45:39.000Z</time>
      </trkpt>
      <trkpt lat="43.48994" lon="6.59467">
        <ele>46.200000762939</ele>
        <time>2019-05-30T11:45:44.000Z</time>
      </trkpt>
      <trkpt lat="43.49008" lon="6.59495">
        <ele>46.200000762939</ele>
        <time>2019-05-30T11:45:50.000Z</time>
      </trkpt>
      <trkpt lat="43.49017" lon="6.59522">
        <ele>46.799999237061</ele>
        <time>2019-05-30T11:45:56.000Z</time>
      </trkpt>
      <trkpt lat="43.49027" lon="6.59545">
        <ele>46.599998474121</ele>
        <time>2019-05-30T11:46:02.000Z</time>
      </trkpt>
      <trkpt lat="43.49037" lon="6.59562">
        <ele>47.599998474121</ele>
        <time>2019-05-30T11:46:07.000Z</time>
      </trkpt>
      <trkpt lat="43.49042" lon="6.59568">
        <ele>47.799999237061</ele>
        <time>2019-05-30T11:46:09.000Z</time>
      </trkpt>
      <trkpt lat="43.49061" lon="6.59582">
        <ele>48.400001525879</ele>
        <time>2019-05-30T11:46:15.000Z</time>
      </trkpt>
      <trkpt lat="43.49083" lon="6.59607">
        <ele>48</ele>
        <time>2019-05-30T11:46:23.000Z</time>
      </trkpt>
      <trkpt lat="43.49097" lon="6.5963">
        <ele>48.599998474121</ele>
        <time>2019-05-30T11:46:29.000Z</time>
      </trkpt>
      <trkpt lat="43.491" lon="6.59634">
        <ele>48.599998474121</ele>
        <time>2019-05-30T11:46:30.000Z</time>
      </trkpt>
      <trkpt lat="43.4911" lon="6.59653">
        <ele>48.799999237061</ele>
        <time>2019-05-30T11:46:35.000Z</time>
      </trkpt>
      <trkpt lat="43.49124" lon="6.59688">
        <ele>49</ele>
        <time>2019-05-30T11:46:44.000Z</time>
      </trkpt>
      <trkpt lat="43.49129" lon="6.59702">
        <ele>49.799999237061</ele>
        <time>2019-05-30T11:46:48.000Z</time>
      </trkpt>
      <trkpt lat="43.49134" lon="6.59716">
        <ele>50.200000762939</ele>
        <time>2019-05-30T11:46:52.000Z</time>
      </trkpt>
      <trkpt lat="43.49142" lon="6.59736">
        <ele>51</ele>
        <time>2019-05-30T11:46:58.000Z</time>
      </trkpt>
      <trkpt lat="43.49146" lon="6.59746">
        <ele>51.200000762939</ele>
        <time>2019-05-30T11:47:01.000Z</time>
      </trkpt>
      <trkpt lat="43.49154" lon="6.5977">
        <ele>51.200000762939</ele>
        <time>2019-05-30T11:47:09.000Z</time>
      </trkpt>
      <trkpt lat="43.49158" lon="6.59779">
        <ele>52</ele>
        <time>2019-05-30T11:47:12.000Z</time>
      </trkpt>
      <trkpt lat="43.49166" lon="6.59797">
        <ele>52</ele>
        <time>2019-05-30T11:47:18.000Z</time>
      </trkpt>
      <trkpt lat="43.49177" lon="6.59817">
        <ele>51.400001525879</ele>
        <time>2019-05-30T11:47:26.000Z</time>
      </trkpt>
      <trkpt lat="43.49185" lon="6.59827">
        <ele>53</ele>
        <time>2019-05-30T11:47:31.000Z</time>
      </trkpt>
      <trkpt lat="43.49187" lon="6.59829">
        <ele>53</ele>
        <time>2019-05-30T11:47:32.000Z</time>
      </trkpt>
      <trkpt lat="43.49192" lon="6.59839">
        <ele>54.200000762939</ele>
        <time>2019-05-30T11:47:36.000Z</time>
      </trkpt>
      <trkpt lat="43.49197" lon="6.59848">
        <ele>54.599998474121</ele>
        <time>2019-05-30T11:47:40.000Z</time>
      </trkpt>
      <trkpt lat="43.49201" lon="6.59859">
        <ele>55.400001525879</ele>
        <time>2019-05-30T11:47:45.000Z</time>
      </trkpt>
      <trkpt lat="43.49204" lon="6.59866">
        <ele>56.200000762939</ele>
        <time>2019-05-30T11:47:48.000Z</time>
      </trkpt>
      <trkpt lat="43.49206" lon="6.59871">
        <ele>56.400001525879</ele>
        <time>2019-05-30T11:47:50.000Z</time>
      </trkpt>
      <trkpt lat="43.49211" lon="6.59884">
        <ele>57.200000762939</ele>
        <time>2019-05-30T11:47:56.000Z</time>
      </trkpt>
      <trkpt lat="43.49213" lon="6.59888">
        <ele>57.599998474121</ele>
        <time>2019-05-30T11:47:58.000Z</time>
      </trkpt>
      <trkpt lat="43.4922" lon="6.59906">
        <ele>58.400001525879</ele>
        <time>2019-05-30T11:48:06.000Z</time>
      </trkpt>
      <trkpt lat="43.49221" lon="6.59911">
        <ele>58.799999237061</ele>
        <time>2019-05-30T11:48:08.000Z</time>
      </trkpt>
      <trkpt lat="43.49229" lon="6.59933">
        <ele>59.200000762939</ele>
        <time>2019-05-30T11:48:17.000Z</time>
      </trkpt>
      <trkpt lat="43.49236" lon="6.59955">
        <ele>59.599998474121</ele>
        <time>2019-05-30T11:48:25.000Z</time>
      </trkpt>
      <trkpt lat="43.49237" lon="6.59957">
        <ele>59.799999237061</ele>
        <time>2019-05-30T11:48:26.000Z</time>
      </trkpt>
      <trkpt lat="43.49243" lon="6.59978">
        <ele>60.799999237061</ele>
        <time>2019-05-30T11:48:33.000Z</time>
      </trkpt>
      <trkpt lat="43.49245" lon="6.59992">
        <ele>60.799999237061</ele>
        <time>2019-05-30T11:48:38.000Z</time>
      </trkpt>
      <trkpt lat="43.49247" lon="6.6">
        <ele>61.200000762939</ele>
        <time>2019-05-30T11:48:41.000Z</time>
      </trkpt>
      <trkpt lat="43.49248" lon="6.60008">
        <ele>62</ele>
        <time>2019-05-30T11:48:44.000Z</time>
      </trkpt>
      <trkpt lat="43.4925" lon="6.60027">
        <ele>62.799999237061</ele>
        <time>2019-05-30T11:48:51.000Z</time>
      </trkpt>
      <trkpt lat="43.49252" lon="6.6004">
        <ele>63</ele>
        <time>2019-05-30T11:48:56.000Z</time>
      </trkpt>
      <trkpt lat="43.49254" lon="6.60048">
        <ele>63.599998474121</ele>
        <time>2019-05-30T11:48:59.000Z</time>
      </trkpt>
      <trkpt lat="43.49255" lon="6.60057">
        <ele>64</ele>
        <time>2019-05-30T11:49:02.000Z</time>
      </trkpt>
      <trkpt lat="43.49256" lon="6.60069">
        <ele>64.199996948242</ele>
        <time>2019-05-30T11:49:06.000Z</time>
      </trkpt>
      <trkpt lat="43.49257" lon="6.60089">
        <ele>64.800003051758</ele>
        <time>2019-05-30T11:49:13.000Z</time>
      </trkpt>
      <trkpt lat="43.49255" lon="6.60093">
        <ele>65.199996948242</ele>
        <time>2019-05-30T11:49:15.000Z</time>
      </trkpt>
      <trkpt lat="43.49255" lon="6.60102">
        <ele>65.599998474121</ele>
        <time>2019-05-30T11:49:19.000Z</time>
      </trkpt>
      <trkpt lat="43.49254" lon="6.60119">
        <ele>66.199996948242</ele>
        <time>2019-05-30T11:49:26.000Z</time>
      </trkpt>
      <trkpt lat="43.49253" lon="6.60129">
        <ele>67.400001525879</ele>
        <time>2019-05-30T11:49:30.000Z</time>
      </trkpt>
      <trkpt lat="43.49252" lon="6.60142">
        <ele>68.199996948242</ele>
        <time>2019-05-30T11:49:35.000Z</time>
      </trkpt>
      <trkpt lat="43.49252" lon="6.60144">
        <ele>68.400001525879</ele>
        <time>2019-05-30T11:49:36.000Z</time>
      </trkpt>
      <trkpt lat="43.49252" lon="6.6016">
        <ele>69.599998474121</ele>
        <time>2019-05-30T11:49:42.000Z</time>
      </trkpt>
      <trkpt lat="43.49252" lon="6.60162">
        <ele>69.800003051758</ele>
        <time>2019-05-30T11:49:43.000Z</time>
      </trkpt>
      <trkpt lat="43.49253" lon="6.60175">
        <ele>70.599998474121</ele>
        <time>2019-05-30T11:49:48.000Z</time>
      </trkpt>
      <trkpt lat="43.49253" lon="6.60177">
        <ele>70.599998474121</ele>
        <time>2019-05-30T11:49:49.000Z</time>
      </trkpt>
      <trkpt lat="43.49254" lon="6.60196">
        <ele>71.599998474121</ele>
        <time>2019-05-30T11:49:56.000Z</time>
      </trkpt>
      <trkpt lat="43.49255" lon="6.60199">
        <ele>71.800003051758</ele>
        <time>2019-05-30T11:49:57.000Z</time>
      </trkpt>
      <trkpt lat="43.49256" lon="6.60217">
        <ele>72.599998474121</ele>
        <time>2019-05-30T11:50:03.000Z</time>
      </trkpt>
      <trkpt lat="43.49256" lon="6.60222">
        <ele>72.800003051758</ele>
        <time>2019-05-30T11:50:05.000Z</time>
      </trkpt>
      <trkpt lat="43.49257" lon="6.60241">
        <ele>73.599998474121</ele>
        <time>2019-05-30T11:50:12.000Z</time>
      </trkpt>
      <trkpt lat="43.49257" lon="6.60244">
        <ele>73.800003051758</ele>
        <time>2019-05-30T11:50:13.000Z</time>
      </trkpt>
      <trkpt lat="43.49255" lon="6.60262">
        <ele>75</ele>
        <time>2019-05-30T11:50:20.000Z</time>
      </trkpt>
      <trkpt lat="43.49255" lon="6.60264">
        <ele>75</ele>
        <time>2019-05-30T11:50:21.000Z</time>
      </trkpt>
      <trkpt lat="43.49249" lon="6.60281">
        <ele>76</ele>
        <time>2019-05-30T11:50:29.000Z</time>
      </trkpt>
      <trkpt lat="43.49248" lon="6.60284">
        <ele>76.199996948242</ele>
        <time>2019-05-30T11:50:30.000Z</time>
      </trkpt>
      <trkpt lat="43.49245" lon="6.60298">
        <ele>77</ele>
        <time>2019-05-30T11:50:36.000Z</time>
      </trkpt>
      <trkpt lat="43.49244" lon="6.60303">
        <ele>77.199996948242</ele>
        <time>2019-05-30T11:50:38.000Z</time>
      </trkpt>
      <trkpt lat="43.49242" lon="6.60324">
        <ele>77.599998474121</ele>
        <time>2019-05-30T11:50:46.000Z</time>
      </trkpt>
      <trkpt lat="43.49241" lon="6.60344">
        <ele>78</ele>
        <time>2019-05-30T11:50:53.000Z</time>
      </trkpt>
      <trkpt lat="43.49241" lon="6.6035">
        <ele>78.199996948242</ele>
        <time>2019-05-30T11:50:55.000Z</time>
      </trkpt>
      <trkpt lat="43.4924" lon="6.60364">
        <ele>79.199996948242</ele>
        <time>2019-05-30T11:51:00.000Z</time>
      </trkpt>
      <trkpt lat="43.4924" lon="6.60367">
        <ele>79.199996948242</ele>
        <time>2019-05-30T11:51:01.000Z</time>
      </trkpt>
      <trkpt lat="43.49238" lon="6.60392">
        <ele>80</ele>
        <time>2019-05-30T11:51:10.000Z</time>
      </trkpt>
      <trkpt lat="43.49235" lon="6.60416">
        <ele>80.400001525879</ele>
        <time>2019-05-30T11:51:19.000Z</time>
      </trkpt>
      <trkpt lat="43.4923" lon="6.60436">
        <ele>80.400001525879</ele>
        <time>2019-05-30T11:51:26.000Z</time>
      </trkpt>
      <trkpt lat="43.49225" lon="6.60457">
        <ele>81.400001525879</ele>
        <time>2019-05-30T11:51:33.000Z</time>
      </trkpt>
      <trkpt lat="43.49225" lon="6.6046">
        <ele>81.400001525879</ele>
        <time>2019-05-30T11:51:34.000Z</time>
      </trkpt>
      <trkpt lat="43.49222" lon="6.60482">
        <ele>82.400001525879</ele>
        <time>2019-05-30T11:51:41.000Z</time>
      </trkpt>
      <trkpt lat="43.49222" lon="6.60485">
        <ele>82.400001525879</ele>
        <time>2019-05-30T11:51:42.000Z</time>
      </trkpt>
      <trkpt lat="43.49221" lon="6.60509">
        <ele>83</ele>
        <time>2019-05-30T11:51:49.000Z</time>
      </trkpt>
      <trkpt lat="43.49222" lon="6.60516">
        <ele>83.400001525879</ele>
        <time>2019-05-30T11:51:51.000Z</time>
      </trkpt>
      <trkpt lat="43.49222" lon="6.60536">
        <ele>82.199996948242</ele>
        <time>2019-05-30T11:51:56.000Z</time>
      </trkpt>
      <trkpt lat="43.49222" lon="6.60539">
        <ele>82</ele>
        <time>2019-05-30T11:51:57.000Z</time>
      </trkpt>
      <trkpt lat="43.49224" lon="6.60577">
        <ele>82.599998474121</ele>
        <time>2019-05-30T11:52:06.000Z</time>
      </trkpt>
      <trkpt lat="43.49225" lon="6.60617">
        <ele>82.800003051758</ele>
        <time>2019-05-30T11:52:14.000Z</time>
      </trkpt>
      <trkpt lat="43.49225" lon="6.60653">
        <ele>82.599998474121</ele>
        <time>2019-05-30T11:52:21.000Z</time>
      </trkpt>
      <trkpt lat="43.49225" lon="6.60689">
        <ele>83.400001525879</ele>
        <time>2019-05-30T11:52:29.000Z</time>
      </trkpt>
      <trkpt lat="43.49225" lon="6.60713">
        <ele>84.400001525879</ele>
        <time>2019-05-30T11:52:35.000Z</time>
      </trkpt>
      <trkpt lat="43.49224" lon="6.60716">
        <ele>84.400001525879</ele>
        <time>2019-05-30T11:52:36.000Z</time>
      </trkpt>
      <trkpt lat="43.49219" lon="6.60746">
        <ele>85.599998474121</ele>
        <time>2019-05-30T11:52:45.000Z</time>
      </trkpt>
      <trkpt lat="43.49219" lon="6.60749">
        <ele>85.800003051758</ele>
        <time>2019-05-30T11:52:46.000Z</time>
      </trkpt>
      <trkpt lat="43.49214" lon="6.6077">
        <ele>86.400001525879</ele>
        <time>2019-05-30T11:52:53.000Z</time>
      </trkpt>
      <trkpt lat="43.49214" lon="6.60773">
        <ele>86.599998474121</ele>
        <time>2019-05-30T11:52:54.000Z</time>
      </trkpt>
      <trkpt lat="43.49212" lon="6.60797">
        <ele>87</ele>
        <time>2019-05-30T11:53:02.000Z</time>
      </trkpt>
      <trkpt lat="43.49213" lon="6.60814">
        <ele>87.599998474121</ele>
        <time>2019-05-30T11:53:07.000Z</time>
      </trkpt>
      <trkpt lat="43.49215" lon="6.60825">
        <ele>88</ele>
        <time>2019-05-30T11:53:10.000Z</time>
      </trkpt>
      <trkpt lat="43.49221" lon="6.60856">
        <ele>88.599998474121</ele>
        <time>2019-05-30T11:53:18.000Z</time>
      </trkpt>
      <trkpt lat="43.49221" lon="6.60861">
        <ele>88.599998474121</ele>
        <time>2019-05-30T11:53:19.000Z</time>
      </trkpt>
      <trkpt lat="43.49219" lon="6.60888">
        <ele>89.400001525879</ele>
        <time>2019-05-30T11:53:25.000Z</time>
      </trkpt>
      <trkpt lat="43.4922" lon="6.60908">
        <ele>89.599998474121</ele>
        <time>2019-05-30T11:53:30.000Z</time>
      </trkpt>
      <trkpt lat="43.49221" lon="6.60911">
        <ele>89.800003051758</ele>
        <time>2019-05-30T11:53:31.000Z</time>
      </trkpt>
      <trkpt lat="43.49227" lon="6.60931">
        <ele>90</ele>
        <time>2019-05-30T11:53:36.000Z</time>
      </trkpt>
      <trkpt lat="43.49235" lon="6.60954">
        <ele>89.599998474121</ele>
        <time>2019-05-30T11:53:42.000Z</time>
      </trkpt>
      <trkpt lat="43.49231" lon="6.60959">
        <ele>89.599998474121</ele>
        <time>2019-05-30T11:53:45.000Z</time>
      </trkpt>
      <trkpt lat="43.49231" lon="6.60959">
        <ele>89.599998474121</ele>
        <time>2019-05-30T11:53:49.000Z</time>
      </trkpt>
      <trkpt lat="43.4923" lon="6.60959">
        <ele>89.400001525879</ele>
        <time>2019-05-30T11:53:55.000Z</time>
      </trkpt>
      <trkpt lat="43.4923" lon="6.6096">
        <ele>90</ele>
        <time>2019-05-30T11:54:01.000Z</time>
      </trkpt>
      <trkpt lat="43.4923" lon="6.60961">
        <ele>89.199996948242</ele>
        <time>2019-05-30T11:54:08.000Z</time>
      </trkpt>
      <trkpt lat="43.49231" lon="6.60961">
        <ele>89.400001525879</ele>
        <time>2019-05-30T11:54:13.000Z</time>
      </trkpt>
      <trkpt lat="43.49231" lon="6.60962">
        <ele>89.400001525879</ele>
        <time>2019-05-30T11:54:19.000Z</time>
      </trkpt>
      <trkpt lat="43.49232" lon="6.60963">
        <ele>89.400001525879</ele>
        <time>2019-05-30T11:54:26.000Z</time>
      </trkpt>
      <trkpt lat="43.49232" lon="6.60964">
        <ele>89</ele>
        <time>2019-05-30T11:54:38.000Z</time>
      </trkpt>
      <trkpt lat="43.49233" lon="6.60964">
        <ele>89.199996948242</ele>
        <time>2019-05-30T11:54:43.000Z</time>
      </trkpt>
      <trkpt lat="43.49233" lon="6.60965">
        <ele>89.199996948242</ele>
        <time>2019-05-30T11:54:50.000Z</time>
      </trkpt>
      <trkpt lat="43.49234" lon="6.60966">
        <ele>89.400001525879</ele>
        <time>2019-05-30T11:54:57.000Z</time>
      </trkpt>
      <trkpt lat="43.49234" lon="6.60966">
        <ele>89.599998474121</ele>
        <time>2019-05-30T11:55:08.000Z</time>
      </trkpt>
      <trkpt lat="43.49235" lon="6.60967">
        <ele>89.400001525879</ele>
        <time>2019-05-30T11:55:16.000Z</time>
      </trkpt>
      <trkpt lat="43.49231" lon="6.60971">
        <ele>89.400001525879</ele>
        <time>2019-05-30T11:55:21.000Z</time>
      </trkpt>
      <trkpt lat="43.49219" lon="6.60984">
        <ele>89</ele>
        <time>2019-05-30T11:55:26.000Z</time>
      </trkpt>
      <trkpt lat="43.49212" lon="6.60988">
        <ele>88.400001525879</ele>
        <time>2019-05-30T11:55:28.000Z</time>
      </trkpt>
      <trkpt lat="43.49199" lon="6.60999">
        <ele>88.400001525879</ele>
        <time>2019-05-30T11:55:32.000Z</time>
      </trkpt>
      <trkpt lat="43.49182" lon="6.61009">
        <ele>88</ele>
        <time>2019-05-30T11:55:37.000Z</time>
      </trkpt>
      <trkpt lat="43.49161" lon="6.61024">
        <ele>88.199996948242</ele>
        <time>2019-05-30T11:55:43.000Z</time>
      </trkpt>
      <trkpt lat="43.49145" lon="6.61029">
        <ele>89</ele>
        <time>2019-05-30T11:55:48.000Z</time>
      </trkpt>
      <trkpt lat="43.49138" lon="6.61036">
        <ele>89.400001525879</ele>
        <time>2019-05-30T11:55:51.000Z</time>
      </trkpt>
      <trkpt lat="43.49136" lon="6.61038">
        <ele>89.599998474121</ele>
        <time>2019-05-30T11:55:52.000Z</time>
      </trkpt>
      <trkpt lat="43.49123" lon="6.61045">
        <ele>90.599998474121</ele>
        <time>2019-05-30T11:55:57.000Z</time>
      </trkpt>
      <trkpt lat="43.49112" lon="6.6105">
        <ele>91.599998474121</ele>
        <time>2019-05-30T11:56:01.000Z</time>
      </trkpt>
      <trkpt lat="43.49106" lon="6.61051">
        <ele>91.599998474121</ele>
        <time>2019-05-30T11:56:03.000Z</time>
      </trkpt>
      <trkpt lat="43.49086" lon="6.61057">
        <ele>92.599998474121</ele>
        <time>2019-05-30T11:56:10.000Z</time>
      </trkpt>
      <trkpt lat="43.49083" lon="6.61058">
        <ele>92.599998474121</ele>
        <time>2019-05-30T11:56:11.000Z</time>
      </trkpt>
      <trkpt lat="43.49069" lon="6.61063">
        <ele>93.400001525879</ele>
        <time>2019-05-30T11:56:16.000Z</time>
      </trkpt>
      <trkpt lat="43.4906" lon="6.61067">
        <ele>93.599998474121</ele>
        <time>2019-05-30T11:56:20.000Z</time>
      </trkpt>
      <trkpt lat="43.49054" lon="6.61068">
        <ele>93.800003051758</ele>
        <time>2019-05-30T11:56:22.000Z</time>
      </trkpt>
      <trkpt lat="43.49046" lon="6.61071">
        <ele>94.199996948242</ele>
        <time>2019-05-30T11:56:24.000Z</time>
      </trkpt>
      <trkpt lat="43.49037" lon="6.61072">
        <ele>93.599998474121</ele>
        <time>2019-05-30T11:56:26.000Z</time>
      </trkpt>
      <trkpt lat="43.49021" lon="6.61078">
        <ele>92.599998474121</ele>
        <time>2019-05-30T11:56:30.000Z</time>
      </trkpt>
      <trkpt lat="43.49017" lon="6.61077">
        <ele>92.599998474121</ele>
        <time>2019-05-30T11:56:31.000Z</time>
      </trkpt>
      <trkpt lat="43.49009" lon="6.61075">
        <ele>92.400001525879</ele>
        <time>2019-05-30T11:56:33.000Z</time>
      </trkpt>
      <trkpt lat="43.49002" lon="6.6107">
        <ele>92.800003051758</ele>
        <time>2019-05-30T11:56:36.000Z</time>
      </trkpt>
      <trkpt lat="43.48992" lon="6.61061">
        <ele>94</ele>
        <time>2019-05-30T11:56:40.000Z</time>
      </trkpt>
      <trkpt lat="43.48988" lon="6.61059">
        <ele>94</ele>
        <time>2019-05-30T11:56:41.000Z</time>
      </trkpt>
      <trkpt lat="43.48967" lon="6.61046">
        <ele>94.199996948242</ele>
        <time>2019-05-30T11:56:46.000Z</time>
      </trkpt>
      <trkpt lat="43.48954" lon="6.61035">
        <ele>93.599998474121</ele>
        <time>2019-05-30T11:56:49.000Z</time>
      </trkpt>
      <trkpt lat="43.48945" lon="6.61027">
        <ele>92.800003051758</ele>
        <time>2019-05-30T11:56:51.000Z</time>
      </trkpt>
      <trkpt lat="43.48937" lon="6.61019">
        <ele>91.599998474121</ele>
        <time>2019-05-30T11:56:53.000Z</time>
      </trkpt>
      <trkpt lat="43.48929" lon="6.6101">
        <ele>91.199996948242</ele>
        <time>2019-05-30T11:56:55.000Z</time>
      </trkpt>
      <trkpt lat="43.48923" lon="6.61">
        <ele>91</ele>
        <time>2019-05-30T11:56:57.000Z</time>
      </trkpt>
      <trkpt lat="43.48919" lon="6.60996">
        <ele>91.199996948242</ele>
        <time>2019-05-30T11:56:58.000Z</time>
      </trkpt>
      <trkpt lat="43.48912" lon="6.6099">
        <ele>91.199996948242</ele>
        <time>2019-05-30T11:57:00.000Z</time>
      </trkpt>
      <trkpt lat="43.48894" lon="6.6098">
        <ele>91.599998474121</ele>
        <time>2019-05-30T11:57:05.000Z</time>
      </trkpt>
      <trkpt lat="43.48879" lon="6.60972">
        <ele>92.599998474121</ele>
        <time>2019-05-30T11:57:10.000Z</time>
      </trkpt>
      <trkpt lat="43.48876" lon="6.60971">
        <ele>92.800003051758</ele>
        <time>2019-05-30T11:57:11.000Z</time>
      </trkpt>
      <trkpt lat="43.48858" lon="6.6097">
        <ele>93.599998474121</ele>
        <time>2019-05-30T11:57:16.000Z</time>
      </trkpt>
      <trkpt lat="43.48848" lon="6.60969">
        <ele>93.800003051758</ele>
        <time>2019-05-30T11:57:19.000Z</time>
      </trkpt>
      <trkpt lat="43.48835" lon="6.60972">
        <ele>94.199996948242</ele>
        <time>2019-05-30T11:57:23.000Z</time>
      </trkpt>
      <trkpt lat="43.48818" lon="6.60974">
        <ele>95</ele>
        <time>2019-05-30T11:57:28.000Z</time>
      </trkpt>
      <trkpt lat="43.48812" lon="6.60973">
        <ele>95.599998474121</ele>
        <time>2019-05-30T11:57:30.000Z</time>
      </trkpt>
      <trkpt lat="43.48802" lon="6.60971">
        <ele>96</ele>
        <time>2019-05-30T11:57:33.000Z</time>
      </trkpt>
      <trkpt lat="43.48798" lon="6.60971">
        <ele>96</ele>
        <time>2019-05-30T11:57:35.000Z</time>
      </trkpt>
      <trkpt lat="43.48796" lon="6.60972">
        <ele>96.199996948242</ele>
        <time>2019-05-30T11:57:36.000Z</time>
      </trkpt>
      <trkpt lat="43.48783" lon="6.60977">
        <ele>96.599998474121</ele>
        <time>2019-05-30T11:57:41.000Z</time>
      </trkpt>
      <trkpt lat="43.48775" lon="6.6098">
        <ele>97.400001525879</ele>
        <time>2019-05-30T11:57:44.000Z</time>
      </trkpt>
      <trkpt lat="43.4877" lon="6.60983">
        <ele>98</ele>
        <time>2019-05-30T11:57:47.000Z</time>
      </trkpt>
      <trkpt lat="43.48763" lon="6.60987">
        <ele>98.400001525879</ele>
        <time>2019-05-30T11:57:50.000Z</time>
      </trkpt>
      <trkpt lat="43.48759" lon="6.60988">
        <ele>98.800003051758</ele>
        <time>2019-05-30T11:57:52.000Z</time>
      </trkpt>
      <trkpt lat="43.48749" lon="6.60989">
        <ele>99.199996948242</ele>
        <time>2019-05-30T11:57:57.000Z</time>
      </trkpt>
      <trkpt lat="43.48745" lon="6.6099">
        <ele>99.599998474121</ele>
        <time>2019-05-30T11:57:59.000Z</time>
      </trkpt>
      <trkpt lat="43.4874" lon="6.60992">
        <ele>100</ele>
        <time>2019-05-30T11:58:02.000Z</time>
      </trkpt>
      <trkpt lat="43.48734" lon="6.60997">
        <ele>100.59999847412</ele>
        <time>2019-05-30T11:58:05.000Z</time>
      </trkpt>
      <trkpt lat="43.48727" lon="6.61">
        <ele>101.19999694824</ele>
        <time>2019-05-30T11:58:08.000Z</time>
      </trkpt>
      <trkpt lat="43.48713" lon="6.61004">
        <ele>101.80000305176</ele>
        <time>2019-05-30T11:58:13.000Z</time>
      </trkpt>
      <trkpt lat="43.4871" lon="6.61005">
        <ele>101.80000305176</ele>
        <time>2019-05-30T11:58:14.000Z</time>
      </trkpt>
      <trkpt lat="43.48698" lon="6.6101">
        <ele>101.59999847412</ele>
        <time>2019-05-30T11:58:17.000Z</time>
      </trkpt>
      <trkpt lat="43.48686" lon="6.61018">
        <ele>101</ele>
        <time>2019-05-30T11:58:20.000Z</time>
      </trkpt>
      <trkpt lat="43.48678" lon="6.61025">
        <ele>100.59999847412</ele>
        <time>2019-05-30T11:58:22.000Z</time>
      </trkpt>
      <trkpt lat="43.4866" lon="6.61039">
        <ele>99.599998474121</ele>
        <time>2019-05-30T11:58:26.000Z</time>
      </trkpt>
      <trkpt lat="43.48657" lon="6.61042">
        <ele>99.400001525879</ele>
        <time>2019-05-30T11:58:27.000Z</time>
      </trkpt>
      <trkpt lat="43.48653" lon="6.61046">
        <ele>99.400001525879</ele>
        <time>2019-05-30T11:58:28.000Z</time>
      </trkpt>
      <trkpt lat="43.48641" lon="6.61061">
        <ele>99</ele>
        <time>2019-05-30T11:58:32.000Z</time>
      </trkpt>
      <trkpt lat="43.4863" lon="6.61079">
        <ele>99.400001525879</ele>
        <time>2019-05-30T11:58:37.000Z</time>
      </trkpt>
      <trkpt lat="43.48614" lon="6.61102">
        <ele>100.59999847412</ele>
        <time>2019-05-30T11:58:44.000Z</time>
      </trkpt>
      <trkpt lat="43.48598" lon="6.6112">
        <ele>101.40000152588</ele>
        <time>2019-05-30T11:58:51.000Z</time>
      </trkpt>
      <trkpt lat="43.48593" lon="6.61125">
        <ele>101.59999847412</ele>
        <time>2019-05-30T11:58:53.000Z</time>
      </trkpt>
      <trkpt lat="43.4858" lon="6.61134">
        <ele>102</ele>
        <time>2019-05-30T11:58:57.000Z</time>
      </trkpt>
      <trkpt lat="43.48563" lon="6.61143">
        <ele>102.59999847412</ele>
        <time>2019-05-30T11:59:02.000Z</time>
      </trkpt>
      <trkpt lat="43.4856" lon="6.61145">
        <ele>102.59999847412</ele>
        <time>2019-05-30T11:59:03.000Z</time>
      </trkpt>
      <trkpt lat="43.48538" lon="6.61159">
        <ele>103.40000152588</ele>
        <time>2019-05-30T11:59:09.000Z</time>
      </trkpt>
      <trkpt lat="43.48516" lon="6.61168">
        <ele>103</ele>
        <time>2019-05-30T11:59:13.000Z</time>
      </trkpt>
      <trkpt lat="43.48512" lon="6.61171">
        <ele>102.59999847412</ele>
        <time>2019-05-30T11:59:14.000Z</time>
      </trkpt>
      <trkpt lat="43.48504" lon="6.61176">
        <ele>101.59999847412</ele>
        <time>2019-05-30T11:59:16.000Z</time>
      </trkpt>
      <trkpt lat="43.48496" lon="6.61181">
        <ele>101</ele>
        <time>2019-05-30T11:59:18.000Z</time>
      </trkpt>
      <trkpt lat="43.48483" lon="6.61191">
        <ele>101.59999847412</ele>
        <time>2019-05-30T11:59:22.000Z</time>
      </trkpt>
      <trkpt lat="43.4848" lon="6.61194">
        <ele>102</ele>
        <time>2019-05-30T11:59:23.000Z</time>
      </trkpt>
      <trkpt lat="43.48468" lon="6.61209">
        <ele>102.59999847412</ele>
        <time>2019-05-30T11:59:27.000Z</time>
      </trkpt>
      <trkpt lat="43.48447" lon="6.61226">
        <ele>102.80000305176</ele>
        <time>2019-05-30T11:59:33.000Z</time>
      </trkpt>
      <trkpt lat="43.48436" lon="6.61233">
        <ele>103.80000305176</ele>
        <time>2019-05-30T11:59:37.000Z</time>
      </trkpt>
      <trkpt lat="43.48428" lon="6.61238">
        <ele>104.59999847412</ele>
        <time>2019-05-30T11:59:40.000Z</time>
      </trkpt>
      <trkpt lat="43.48426" lon="6.6124">
        <ele>104.80000305176</ele>
        <time>2019-05-30T11:59:41.000Z</time>
      </trkpt>
      <trkpt lat="43.48412" lon="6.61251">
        <ele>104.80000305176</ele>
        <time>2019-05-30T11:59:46.000Z</time>
      </trkpt>
      <trkpt lat="43.48398" lon="6.6127">
        <ele>105.80000305176</ele>
        <time>2019-05-30T11:59:53.000Z</time>
      </trkpt>
      <trkpt lat="43.48385" lon="6.61285">
        <ele>106.80000305176</ele>
        <time>2019-05-30T11:59:59.000Z</time>
      </trkpt>
      <trkpt lat="43.48379" lon="6.61292">
        <ele>106.80000305176</ele>
        <time>2019-05-30T12:00:02.000Z</time>
      </trkpt>
      <trkpt lat="43.48371" lon="6.61302">
        <ele>107.19999694824</ele>
        <time>2019-05-30T12:00:06.000Z</time>
      </trkpt>
      <trkpt lat="43.48359" lon="6.61314">
        <ele>107.80000305176</ele>
        <time>2019-05-30T12:00:12.000Z</time>
      </trkpt>
      <trkpt lat="43.48353" lon="6.61317">
        <ele>108.40000152588</ele>
        <time>2019-05-30T12:00:14.000Z</time>
      </trkpt>
      <trkpt lat="43.4834" lon="6.61324">
        <ele>108.59999847412</ele>
        <time>2019-05-30T12:00:19.000Z</time>
      </trkpt>
      <trkpt lat="43.48326" lon="6.61335">
        <ele>108.59999847412</ele>
        <time>2019-05-30T12:00:25.000Z</time>
      </trkpt>
      <trkpt lat="43.48313" lon="6.61344">
        <ele>109</ele>
        <time>2019-05-30T12:00:30.000Z</time>
      </trkpt>
      <trkpt lat="43.48301" lon="6.6135">
        <ele>109.19999694824</ele>
        <time>2019-05-30T12:00:34.000Z</time>
      </trkpt>
      <trkpt lat="43.48294" lon="6.61361">
        <ele>109.59999847412</ele>
        <time>2019-05-30T12:00:38.000Z</time>
      </trkpt>
      <trkpt lat="43.48281" lon="6.61375">
        <ele>110</ele>
        <time>2019-05-30T12:00:43.000Z</time>
      </trkpt>
      <trkpt lat="43.48275" lon="6.6138">
        <ele>110.19999694824</ele>
        <time>2019-05-30T12:00:45.000Z</time>
      </trkpt>
      <trkpt lat="43.48254" lon="6.61396">
        <ele>109.40000152588</ele>
        <time>2019-05-30T12:00:51.000Z</time>
      </trkpt>
      <trkpt lat="43.48225" lon="6.61417">
        <ele>109.80000305176</ele>
        <time>2019-05-30T12:00:59.000Z</time>
      </trkpt>
      <trkpt lat="43.48221" lon="6.6142">
        <ele>109.80000305176</ele>
        <time>2019-05-30T12:01:00.000Z</time>
      </trkpt>
      <trkpt lat="43.48201" lon="6.61434">
        <ele>110.40000152588</ele>
        <time>2019-05-30T12:01:06.000Z</time>
      </trkpt>
      <trkpt lat="43.48168" lon="6.61454">
        <ele>109.59999847412</ele>
        <time>2019-05-30T12:01:12.000Z</time>
      </trkpt>
      <trkpt lat="43.48162" lon="6.61457">
        <ele>109.40000152588</ele>
        <time>2019-05-30T12:01:13.000Z</time>
      </trkpt>
      <trkpt lat="43.48146" lon="6.61463">
        <ele>108.80000305176</ele>
        <time>2019-05-30T12:01:16.000Z</time>
      </trkpt>
      <trkpt lat="43.48141" lon="6.61464">
        <ele>108.59999847412</ele>
        <time>2019-05-30T12:01:17.000Z</time>
      </trkpt>
      <trkpt lat="43.48124" lon="6.61472">
        <ele>107.80000305176</ele>
        <time>2019-05-30T12:01:20.000Z</time>
      </trkpt>
      <trkpt lat="43.48119" lon="6.61473">
        <ele>107.80000305176</ele>
        <time>2019-05-30T12:01:21.000Z</time>
      </trkpt>
      <trkpt lat="43.48114" lon="6.61473">
        <ele>107.59999847412</ele>
        <time>2019-05-30T12:01:22.000Z</time>
      </trkpt>
      <trkpt lat="43.48096" lon="6.61483">
        <ele>107</ele>
        <time>2019-05-30T12:01:26.000Z</time>
      </trkpt>
      <trkpt lat="43.48089" lon="6.61491">
        <ele>106.59999847412</ele>
        <time>2019-05-30T12:01:28.000Z</time>
      </trkpt>
      <trkpt lat="43.48086" lon="6.61495">
        <ele>106.59999847412</ele>
        <time>2019-05-30T12:01:29.000Z</time>
      </trkpt>
      <trkpt lat="43.48079" lon="6.61505">
        <ele>106.80000305176</ele>
        <time>2019-05-30T12:01:31.000Z</time>
      </trkpt>
      <trkpt lat="43.48076" lon="6.61508">
        <ele>106.80000305176</ele>
        <time>2019-05-30T12:01:32.000Z</time>
      </trkpt>
      <trkpt lat="43.48068" lon="6.61515">
        <ele>107</ele>
        <time>2019-05-30T12:01:34.000Z</time>
      </trkpt>
      <trkpt lat="43.48065" lon="6.61516">
        <ele>107</ele>
        <time>2019-05-30T12:01:35.000Z</time>
      </trkpt>
      <trkpt lat="43.48044" lon="6.61527">
        <ele>107.19999694824</ele>
        <time>2019-05-30T12:01:40.000Z</time>
      </trkpt>
      <trkpt lat="43.48035" lon="6.61531">
        <ele>107.80000305176</ele>
        <time>2019-05-30T12:01:42.000Z</time>
      </trkpt>
      <trkpt lat="43.48031" lon="6.61534">
        <ele>107.80000305176</ele>
        <time>2019-05-30T12:01:43.000Z</time>
      </trkpt>
      <trkpt lat="43.48022" lon="6.61538">
        <ele>107.80000305176</ele>
        <time>2019-05-30T12:01:45.000Z</time>
      </trkpt>
      <trkpt lat="43.48013" lon="6.61541">
        <ele>107.80000305176</ele>
        <time>2019-05-30T12:01:47.000Z</time>
      </trkpt>
      <trkpt lat="43.48008" lon="6.61543">
        <ele>107.80000305176</ele>
        <time>2019-05-30T12:01:48.000Z</time>
      </trkpt>
      <trkpt lat="43.47999" lon="6.61547">
        <ele>107.80000305176</ele>
        <time>2019-05-30T12:01:50.000Z</time>
      </trkpt>
      <trkpt lat="43.47986" lon="6.61551">
        <ele>108.19999694824</ele>
        <time>2019-05-30T12:01:53.000Z</time>
      </trkpt>
      <trkpt lat="43.47959" lon="6.61567">
        <ele>107.59999847412</ele>
        <time>2019-05-30T12:01:59.000Z</time>
      </trkpt>
      <trkpt lat="43.47937" lon="6.61576">
        <ele>107.19999694824</ele>
        <time>2019-05-30T12:02:04.000Z</time>
      </trkpt>
      <trkpt lat="43.47919" lon="6.61581">
        <ele>107.40000152588</ele>
        <time>2019-05-30T12:02:08.000Z</time>
      </trkpt>
      <trkpt lat="43.47908" lon="6.61587">
        <ele>107.40000152588</ele>
        <time>2019-05-30T12:02:10.000Z</time>
      </trkpt>
      <trkpt lat="43.47903" lon="6.61589">
        <ele>107.19999694824</ele>
        <time>2019-05-30T12:02:11.000Z</time>
      </trkpt>
      <trkpt lat="43.4788" lon="6.61597">
        <ele>106.59999847412</ele>
        <time>2019-05-30T12:02:15.000Z</time>
      </trkpt>
      <trkpt lat="43.47862" lon="6.61605">
        <ele>105</ele>
        <time>2019-05-30T12:02:18.000Z</time>
      </trkpt>
      <trkpt lat="43.4785" lon="6.61611">
        <ele>104.40000152588</ele>
        <time>2019-05-30T12:02:20.000Z</time>
      </trkpt>
      <trkpt lat="43.47845" lon="6.61613">
        <ele>104</ele>
        <time>2019-05-30T12:02:21.000Z</time>
      </trkpt>
      <trkpt lat="43.47821" lon="6.61617">
        <ele>103.59999847412</ele>
        <time>2019-05-30T12:02:25.000Z</time>
      </trkpt>
      <trkpt lat="43.47809" lon="6.61616">
        <ele>103.59999847412</ele>
        <time>2019-05-30T12:02:27.000Z</time>
      </trkpt>
      <trkpt lat="43.47792" lon="6.61612">
        <ele>103.19999694824</ele>
        <time>2019-05-30T12:02:30.000Z</time>
      </trkpt>
      <trkpt lat="43.47786" lon="6.61609">
        <ele>103</ele>
        <time>2019-05-30T12:02:31.000Z</time>
      </trkpt>
      <trkpt lat="43.47777" lon="6.61601">
        <ele>102.80000305176</ele>
        <time>2019-05-30T12:02:33.000Z</time>
      </trkpt>
      <trkpt lat="43.47772" lon="6.61597">
        <ele>102.80000305176</ele>
        <time>2019-05-30T12:02:34.000Z</time>
      </trkpt>
      <trkpt lat="43.47749" lon="6.61573">
        <ele>102.80000305176</ele>
        <time>2019-05-30T12:02:39.000Z</time>
      </trkpt>
      <trkpt lat="43.47745" lon="6.61568">
        <ele>103</ele>
        <time>2019-05-30T12:02:40.000Z</time>
      </trkpt>
      <trkpt lat="43.4774" lon="6.61563">
        <ele>103</ele>
        <time>2019-05-30T12:02:41.000Z</time>
      </trkpt>
      <trkpt lat="43.47721" lon="6.61543">
        <ele>102.80000305176</ele>
        <time>2019-05-30T12:02:45.000Z</time>
      </trkpt>
      <trkpt lat="43.4771" lon="6.61541">
        <ele>101.59999847412</ele>
        <time>2019-05-30T12:02:47.000Z</time>
      </trkpt>
      <trkpt lat="43.47704" lon="6.61542">
        <ele>101.19999694824</ele>
        <time>2019-05-30T12:02:48.000Z</time>
      </trkpt>
      <trkpt lat="43.47698" lon="6.61545">
        <ele>100.19999694824</ele>
        <time>2019-05-30T12:02:49.000Z</time>
      </trkpt>
      <trkpt lat="43.47692" lon="6.61548">
        <ele>99.599998474121</ele>
        <time>2019-05-30T12:02:50.000Z</time>
      </trkpt>
      <trkpt lat="43.47687" lon="6.61549">
        <ele>99.199996948242</ele>
        <time>2019-05-30T12:02:51.000Z</time>
      </trkpt>
      <trkpt lat="43.47676" lon="6.61549">
        <ele>98.800003051758</ele>
        <time>2019-05-30T12:02:53.000Z</time>
      </trkpt>
      <trkpt lat="43.47671" lon="6.61546">
        <ele>98.800003051758</ele>
        <time>2019-05-30T12:02:54.000Z</time>
      </trkpt>
      <trkpt lat="43.47657" lon="6.61535">
        <ele>98.800003051758</ele>
        <time>2019-05-30T12:02:57.000Z</time>
      </trkpt>
      <trkpt lat="43.47648" lon="6.61524">
        <ele>98.800003051758</ele>
        <time>2019-05-30T12:02:59.000Z</time>
      </trkpt>
      <trkpt lat="43.47646" lon="6.61515">
        <ele>98.400001525879</ele>
        <time>2019-05-30T12:03:00.000Z</time>
      </trkpt>
      <trkpt lat="43.47643" lon="6.61505">
        <ele>98</ele>
        <time>2019-05-30T12:03:01.000Z</time>
      </trkpt>
      <trkpt lat="43.4764" lon="6.61497">
        <ele>97.800003051758</ele>
        <time>2019-05-30T12:03:02.000Z</time>
      </trkpt>
      <trkpt lat="43.4763" lon="6.61482">
        <ele>96.800003051758</ele>
        <time>2019-05-30T12:03:04.000Z</time>
      </trkpt>
      <trkpt lat="43.47626" lon="6.61476">
        <ele>96.199996948242</ele>
        <time>2019-05-30T12:03:05.000Z</time>
      </trkpt>
      <trkpt lat="43.47622" lon="6.6147">
        <ele>95.800003051758</ele>
        <time>2019-05-30T12:03:06.000Z</time>
      </trkpt>
      <trkpt lat="43.47621" lon="6.61466">
        <ele>95.599998474121</ele>
        <time>2019-05-30T12:03:07.000Z</time>
      </trkpt>
      <trkpt lat="43.47618" lon="6.61463">
        <ele>95.199996948242</ele>
        <time>2019-05-30T12:03:08.000Z</time>
      </trkpt>
      <trkpt lat="43.47611" lon="6.61457">
        <ele>94.599998474121</ele>
        <time>2019-05-30T12:03:10.000Z</time>
      </trkpt>
      <trkpt lat="43.47603" lon="6.61456">
        <ele>93.599998474121</ele>
        <time>2019-05-30T12:03:12.000Z</time>
      </trkpt>
      <trkpt lat="43.47598" lon="6.61456">
        <ele>93</ele>
        <time>2019-05-30T12:03:13.000Z</time>
      </trkpt>
      <trkpt lat="43.47579" lon="6.61457">
        <ele>92.199996948242</ele>
        <time>2019-05-30T12:03:17.000Z</time>
      </trkpt>
      <trkpt lat="43.47574" lon="6.61456">
        <ele>92</ele>
        <time>2019-05-30T12:03:18.000Z</time>
      </trkpt>
      <trkpt lat="43.47547" lon="6.6145">
        <ele>92</ele>
        <time>2019-05-30T12:03:23.000Z</time>
      </trkpt>
      <trkpt lat="43.47536" lon="6.61446">
        <ele>91.400001525879</ele>
        <time>2019-05-30T12:03:25.000Z</time>
      </trkpt>
      <trkpt lat="43.47521" lon="6.61439">
        <ele>90.800003051758</ele>
        <time>2019-05-30T12:03:28.000Z</time>
      </trkpt>
      <trkpt lat="43.47517" lon="6.61435">
        <ele>90.599998474121</ele>
        <time>2019-05-30T12:03:29.000Z</time>
      </trkpt>
      <trkpt lat="43.47494" lon="6.61421">
        <ele>89.599998474121</ele>
        <time>2019-05-30T12:03:33.000Z</time>
      </trkpt>
      <trkpt lat="43.47472" lon="6.61407">
        <ele>89</ele>
        <time>2019-05-30T12:03:37.000Z</time>
      </trkpt>
      <trkpt lat="43.47459" lon="6.61399">
        <ele>88.199996948242</ele>
        <time>2019-05-30T12:03:39.000Z</time>
      </trkpt>
      <trkpt lat="43.47447" lon="6.61392">
        <ele>87.199996948242</ele>
        <time>2019-05-30T12:03:41.000Z</time>
      </trkpt>
      <trkpt lat="43.47425" lon="6.61384">
        <ele>86</ele>
        <time>2019-05-30T12:03:44.000Z</time>
      </trkpt>
      <trkpt lat="43.47404" lon="6.61384">
        <ele>84.800003051758</ele>
        <time>2019-05-30T12:03:47.000Z</time>
      </trkpt>
      <trkpt lat="43.47389" lon="6.61386">
        <ele>84</ele>
        <time>2019-05-30T12:03:49.000Z</time>
      </trkpt>
      <trkpt lat="43.47382" lon="6.61387">
        <ele>83.400001525879</ele>
        <time>2019-05-30T12:03:50.000Z</time>
      </trkpt>
      <trkpt lat="43.47344" lon="6.6139">
        <ele>82.800003051758</ele>
        <time>2019-05-30T12:03:56.000Z</time>
      </trkpt>
      <trkpt lat="43.47337" lon="6.61389">
        <ele>82.400001525879</ele>
        <time>2019-05-30T12:03:57.000Z</time>
      </trkpt>
      <trkpt lat="43.4732" lon="6.61382">
        <ele>81.800003051758</ele>
        <time>2019-05-30T12:04:00.000Z</time>
      </trkpt>
      <trkpt lat="43.47314" lon="6.6138">
        <ele>81.599998474121</ele>
        <time>2019-05-30T12:04:01.000Z</time>
      </trkpt>
      <trkpt lat="43.47281" lon="6.61367">
        <ele>82.599998474121</ele>
        <time>2019-05-30T12:04:07.000Z</time>
      </trkpt>
      <trkpt lat="43.47274" lon="6.61366">
        <ele>82.400001525879</ele>
        <time>2019-05-30T12:04:08.000Z</time>
      </trkpt>
      <trkpt lat="43.47245" lon="6.61364">
        <ele>81.599998474121</ele>
        <time>2019-05-30T12:04:13.000Z</time>
      </trkpt>
      <trkpt lat="43.47239" lon="6.61366">
        <ele>81.400001525879</ele>
        <time>2019-05-30T12:04:14.000Z</time>
      </trkpt>
      <trkpt lat="43.47234" lon="6.61365">
        <ele>81.199996948242</ele>
        <time>2019-05-30T12:04:15.000Z</time>
      </trkpt>
      <trkpt lat="43.47228" lon="6.61357">
        <ele>81</ele>
        <time>2019-05-30T12:04:17.000Z</time>
      </trkpt>
      <trkpt lat="43.47225" lon="6.61342">
        <ele>81.400001525879</ele>
        <time>2019-05-30T12:04:20.000Z</time>
      </trkpt>
      <trkpt lat="43.47221" lon="6.61326">
        <ele>81.599998474121</ele>
        <time>2019-05-30T12:04:25.000Z</time>
      </trkpt>
      <trkpt lat="43.47214" lon="6.6132">
        <ele>82.400001525879</ele>
        <time>2019-05-30T12:04:30.000Z</time>
      </trkpt>
      <trkpt lat="43.47215" lon="6.61321">
        <ele>82.800003051758</ele>
        <time>2019-05-30T12:04:31.000Z</time>
      </trkpt>
      <trkpt lat="43.47213" lon="6.61319">
        <ele>83</ele>
        <time>2019-05-30T12:04:32.000Z</time>
      </trkpt>
      <trkpt lat="43.47212" lon="6.61317">
        <ele>83.400001525879</ele>
        <time>2019-05-30T12:04:34.000Z</time>
      </trkpt>
      <trkpt lat="43.4721" lon="6.61317">
        <ele>84</ele>
        <time>2019-05-30T12:04:37.000Z</time>
      </trkpt>
      <trkpt lat="43.47208" lon="6.61316">
        <ele>84.599998474121</ele>
        <time>2019-05-30T12:04:39.000Z</time>
      </trkpt>
      <trkpt lat="43.47207" lon="6.61317">
        <ele>85.199996948242</ele>
        <time>2019-05-30T12:04:42.000Z</time>
      </trkpt>
      <trkpt lat="43.47204" lon="6.61322">
        <ele>85.800003051758</ele>
        <time>2019-05-30T12:04:45.000Z</time>
      </trkpt>
      <trkpt lat="43.47203" lon="6.61325">
        <ele>85.599998474121</ele>
        <time>2019-05-30T12:04:46.000Z</time>
      </trkpt>
      <trkpt lat="43.47202" lon="6.61326">
        <ele>85.599998474121</ele>
        <time>2019-05-30T12:04:47.000Z</time>
      </trkpt>
      <trkpt lat="43.47195" lon="6.61347">
        <ele>84.800003051758</ele>
        <time>2019-05-30T12:04:52.000Z</time>
      </trkpt>
      <trkpt lat="43.4719" lon="6.61358">
        <ele>84.400001525879</ele>
        <time>2019-05-30T12:04:54.000Z</time>
      </trkpt>
      <trkpt lat="43.47185" lon="6.61376">
        <ele>83.400001525879</ele>
        <time>2019-05-30T12:04:57.000Z</time>
      </trkpt>
      <trkpt lat="43.47183" lon="6.61382">
        <ele>83</ele>
        <time>2019-05-30T12:04:58.000Z</time>
      </trkpt>
      <trkpt lat="43.4718" lon="6.61387">
        <ele>82.599998474121</ele>
        <time>2019-05-30T12:04:59.000Z</time>
      </trkpt>
      <trkpt lat="43.47176" lon="6.61391">
        <ele>82</ele>
        <time>2019-05-30T12:05:00.000Z</time>
      </trkpt>
      <trkpt lat="43.47173" lon="6.61395">
        <ele>82</ele>
        <time>2019-05-30T12:05:01.000Z</time>
      </trkpt>
      <trkpt lat="43.47158" lon="6.61414">
        <ele>81.599998474121</ele>
        <time>2019-05-30T12:05:06.000Z</time>
      </trkpt>
      <trkpt lat="43.47151" lon="6.61422">
        <ele>81.599998474121</ele>
        <time>2019-05-30T12:05:08.000Z</time>
      </trkpt>
      <trkpt lat="43.4714" lon="6.61431">
        <ele>81.199996948242</ele>
        <time>2019-05-30T12:05:11.000Z</time>
      </trkpt>
      <trkpt lat="43.47136" lon="6.61436">
        <ele>81.400001525879</ele>
        <time>2019-05-30T12:05:12.000Z</time>
      </trkpt>
      <trkpt lat="43.47127" lon="6.61446">
        <ele>81.599998474121</ele>
        <time>2019-05-30T12:05:15.000Z</time>
      </trkpt>
      <trkpt lat="43.47122" lon="6.61454">
        <ele>81.400001525879</ele>
        <time>2019-05-30T12:05:17.000Z</time>
      </trkpt>
      <trkpt lat="43.47119" lon="6.61465">
        <ele>81.400001525879</ele>
        <time>2019-05-30T12:05:19.000Z</time>
      </trkpt>
      <trkpt lat="43.4711" lon="6.61495">
        <ele>81.800003051758</ele>
        <time>2019-05-30T12:05:24.000Z</time>
      </trkpt>
      <trkpt lat="43.47107" lon="6.6151">
        <ele>81</ele>
        <time>2019-05-30T12:05:26.000Z</time>
      </trkpt>
      <trkpt lat="43.47105" lon="6.61518">
        <ele>80.599998474121</ele>
        <time>2019-05-30T12:05:27.000Z</time>
      </trkpt>
      <trkpt lat="43.47097" lon="6.6153">
        <ele>79.599998474121</ele>
        <time>2019-05-30T12:05:29.000Z</time>
      </trkpt>
      <trkpt lat="43.47087" lon="6.61539">
        <ele>78.400001525879</ele>
        <time>2019-05-30T12:05:31.000Z</time>
      </trkpt>
      <trkpt lat="43.47079" lon="6.6155">
        <ele>77</ele>
        <time>2019-05-30T12:05:33.000Z</time>
      </trkpt>
      <trkpt lat="43.47075" lon="6.61556">
        <ele>76.800003051758</ele>
        <time>2019-05-30T12:05:34.000Z</time>
      </trkpt>
      <trkpt lat="43.47072" lon="6.61564">
        <ele>76</ele>
        <time>2019-05-30T12:05:35.000Z</time>
      </trkpt>
      <trkpt lat="43.4707" lon="6.61572">
        <ele>76</ele>
        <time>2019-05-30T12:05:36.000Z</time>
      </trkpt>
      <trkpt lat="43.47068" lon="6.6158">
        <ele>75.599998474121</ele>
        <time>2019-05-30T12:05:37.000Z</time>
      </trkpt>
      <trkpt lat="43.47066" lon="6.61588">
        <ele>74.800003051758</ele>
        <time>2019-05-30T12:05:38.000Z</time>
      </trkpt>
      <trkpt lat="43.47063" lon="6.61593">
        <ele>73.599998474121</ele>
        <time>2019-05-30T12:05:39.000Z</time>
      </trkpt>
      <trkpt lat="43.47059" lon="6.61597">
        <ele>73.400001525879</ele>
        <time>2019-05-30T12:05:40.000Z</time>
      </trkpt>
      <trkpt lat="43.47054" lon="6.61599">
        <ele>73.400001525879</ele>
        <time>2019-05-30T12:05:41.000Z</time>
      </trkpt>
      <trkpt lat="43.4704" lon="6.61607">
        <ele>74.400001525879</ele>
        <time>2019-05-30T12:05:44.000Z</time>
      </trkpt>
      <trkpt lat="43.47025" lon="6.61613">
        <ele>74</ele>
        <time>2019-05-30T12:05:47.000Z</time>
      </trkpt>
      <trkpt lat="43.47017" lon="6.61619">
        <ele>73.800003051758</ele>
        <time>2019-05-30T12:05:49.000Z</time>
      </trkpt>
      <trkpt lat="43.47012" lon="6.61629">
        <ele>73.599998474121</ele>
        <time>2019-05-30T12:05:51.000Z</time>
      </trkpt>
      <trkpt lat="43.47011" lon="6.61635">
        <ele>73.599998474121</ele>
        <time>2019-05-30T12:05:52.000Z</time>
      </trkpt>
      <trkpt lat="43.47013" lon="6.61641">
        <ele>73.400001525879</ele>
        <time>2019-05-30T12:05:53.000Z</time>
      </trkpt>
      <trkpt lat="43.47016" lon="6.61651">
        <ele>70.599998474121</ele>
        <time>2019-05-30T12:05:55.000Z</time>
      </trkpt>
      <trkpt lat="43.47018" lon="6.61657">
        <ele>70.599998474121</ele>
        <time>2019-05-30T12:05:56.000Z</time>
      </trkpt>
      <trkpt lat="43.47021" lon="6.61668">
        <ele>70.599998474121</ele>
        <time>2019-05-30T12:05:58.000Z</time>
      </trkpt>
      <trkpt lat="43.47023" lon="6.61673">
        <ele>70.800003051758</ele>
        <time>2019-05-30T12:05:59.000Z</time>
      </trkpt>
      <trkpt lat="43.47024" lon="6.61679">
        <ele>72.599998474121</ele>
        <time>2019-05-30T12:06:00.000Z</time>
      </trkpt>
      <trkpt lat="43.47023" lon="6.6169">
        <ele>72.800003051758</ele>
        <time>2019-05-30T12:06:02.000Z</time>
      </trkpt>
      <trkpt lat="43.47022" lon="6.61695">
        <ele>73</ele>
        <time>2019-05-30T12:06:03.000Z</time>
      </trkpt>
      <trkpt lat="43.47011" lon="6.61722">
        <ele>73.400001525879</ele>
        <time>2019-05-30T12:06:08.000Z</time>
      </trkpt>
      <trkpt lat="43.47009" lon="6.61728">
        <ele>73.599998474121</ele>
        <time>2019-05-30T12:06:09.000Z</time>
      </trkpt>
      <trkpt lat="43.46999" lon="6.61748">
        <ele>73.599998474121</ele>
        <time>2019-05-30T12:06:14.000Z</time>
      </trkpt>
      <trkpt lat="43.46994" lon="6.61756">
        <ele>73.800003051758</ele>
        <time>2019-05-30T12:06:16.000Z</time>
      </trkpt>
      <trkpt lat="43.4699" lon="6.61765">
        <ele>74.400001525879</ele>
        <time>2019-05-30T12:06:18.000Z</time>
      </trkpt>
      <trkpt lat="43.46988" lon="6.6177">
        <ele>74.400001525879</ele>
        <time>2019-05-30T12:06:19.000Z</time>
      </trkpt>
      <trkpt lat="43.4698" lon="6.61783">
        <ele>74.599998474121</ele>
        <time>2019-05-30T12:06:22.000Z</time>
      </trkpt>
      <trkpt lat="43.46974" lon="6.61791">
        <ele>74.800003051758</ele>
        <time>2019-05-30T12:06:24.000Z</time>
      </trkpt>
      <trkpt lat="43.4696" lon="6.61815">
        <ele>74.800003051758</ele>
        <time>2019-05-30T12:06:30.000Z</time>
      </trkpt>
      <trkpt lat="43.46956" lon="6.61822">
        <ele>75.199996948242</ele>
        <time>2019-05-30T12:06:32.000Z</time>
      </trkpt>
      <trkpt lat="43.46943" lon="6.61839">
        <ele>75.400001525879</ele>
        <time>2019-05-30T12:06:37.000Z</time>
      </trkpt>
      <trkpt lat="43.46926" lon="6.61863">
        <ele>75.400001525879</ele>
        <time>2019-05-30T12:06:43.000Z</time>
      </trkpt>
      <trkpt lat="43.4692" lon="6.61871">
        <ele>75.199996948242</ele>
        <time>2019-05-30T12:06:45.000Z</time>
      </trkpt>
      <trkpt lat="43.46914" lon="6.6188">
        <ele>74.800003051758</ele>
        <time>2019-05-30T12:06:47.000Z</time>
      </trkpt>
      <trkpt lat="43.46908" lon="6.61888">
        <ele>74.800003051758</ele>
        <time>2019-05-30T12:06:49.000Z</time>
      </trkpt>
      <trkpt lat="43.46905" lon="6.61891">
        <ele>74.800003051758</ele>
        <time>2019-05-30T12:06:50.000Z</time>
      </trkpt>
      <trkpt lat="43.46895" lon="6.619">
        <ele>74.400001525879</ele>
        <time>2019-05-30T12:06:53.000Z</time>
      </trkpt>
      <trkpt lat="43.46886" lon="6.61913">
        <ele>74</ele>
        <time>2019-05-30T12:06:56.000Z</time>
      </trkpt>
      <trkpt lat="43.46881" lon="6.6192">
        <ele>74.199996948242</ele>
        <time>2019-05-30T12:06:58.000Z</time>
      </trkpt>
      <trkpt lat="43.46867" lon="6.61935">
        <ele>74</ele>
        <time>2019-05-30T12:07:02.000Z</time>
      </trkpt>
      <trkpt lat="43.46854" lon="6.61959">
        <ele>72.800003051758</ele>
        <time>2019-05-30T12:07:07.000Z</time>
      </trkpt>
      <trkpt lat="43.46853" lon="6.61964">
        <ele>72.599998474121</ele>
        <time>2019-05-30T12:07:08.000Z</time>
      </trkpt>
      <trkpt lat="43.46847" lon="6.61998">
        <ele>72.400001525879</ele>
        <time>2019-05-30T12:07:15.000Z</time>
      </trkpt>
      <trkpt lat="43.46842" lon="6.62025">
        <ele>72.400001525879</ele>
        <time>2019-05-30T12:07:21.000Z</time>
      </trkpt>
      <trkpt lat="43.46842" lon="6.62034">
        <ele>72.400001525879</ele>
        <time>2019-05-30T12:07:23.000Z</time>
      </trkpt>
      <trkpt lat="43.46843" lon="6.62044">
        <ele>72.400001525879</ele>
        <time>2019-05-30T12:07:25.000Z</time>
      </trkpt>
      <trkpt lat="43.46841" lon="6.62054">
        <ele>72.199996948242</ele>
        <time>2019-05-30T12:07:27.000Z</time>
      </trkpt>
      <trkpt lat="43.46836" lon="6.62065">
        <ele>72</ele>
        <time>2019-05-30T12:07:29.000Z</time>
      </trkpt>
      <trkpt lat="43.46833" lon="6.62071">
        <ele>72</ele>
        <time>2019-05-30T12:07:30.000Z</time>
      </trkpt>
      <trkpt lat="43.46822" lon="6.62083">
        <ele>72</ele>
        <time>2019-05-30T12:07:34.000Z</time>
      </trkpt>
      <trkpt lat="43.4682" lon="6.62086">
        <ele>71.800003051758</ele>
        <time>2019-05-30T12:07:36.000Z</time>
      </trkpt>
      <trkpt lat="43.4682" lon="6.62088">
        <ele>71.800003051758</ele>
        <time>2019-05-30T12:07:37.000Z</time>
      </trkpt>
      <trkpt lat="43.46819" lon="6.62091">
        <ele>71.599998474121</ele>
        <time>2019-05-30T12:07:39.000Z</time>
      </trkpt>
      <trkpt lat="43.46819" lon="6.62096">
        <ele>71</ele>
        <time>2019-05-30T12:07:42.000Z</time>
      </trkpt>
      <trkpt lat="43.46816" lon="6.62101">
        <ele>70.599998474121</ele>
        <time>2019-05-30T12:07:44.000Z</time>
      </trkpt>
      <trkpt lat="43.46812" lon="6.62105">
        <ele>70.599998474121</ele>
        <time>2019-05-30T12:07:46.000Z</time>
      </trkpt>
      <trkpt lat="43.46802" lon="6.6211">
        <ele>70.599998474121</ele>
        <time>2019-05-30T12:07:49.000Z</time>
      </trkpt>
      <trkpt lat="43.46776" lon="6.6213">
        <ele>69.800003051758</ele>
        <time>2019-05-30T12:07:56.000Z</time>
      </trkpt>
      <trkpt lat="43.46772" lon="6.62134">
        <ele>69.800003051758</ele>
        <time>2019-05-30T12:07:57.000Z</time>
      </trkpt>
      <trkpt lat="43.46765" lon="6.62142">
        <ele>69.599998474121</ele>
        <time>2019-05-30T12:07:59.000Z</time>
      </trkpt>
      <trkpt lat="43.46756" lon="6.62147">
        <ele>69.599998474121</ele>
        <time>2019-05-30T12:08:01.000Z</time>
      </trkpt>
      <trkpt lat="43.46752" lon="6.62151">
        <ele>69.199996948242</ele>
        <time>2019-05-30T12:08:02.000Z</time>
      </trkpt>
      <trkpt lat="43.46746" lon="6.6216">
        <ele>69</ele>
        <time>2019-05-30T12:08:04.000Z</time>
      </trkpt>
      <trkpt lat="43.46746" lon="6.62167">
        <ele>69.199996948242</ele>
        <time>2019-05-30T12:08:05.000Z</time>
      </trkpt>
      <trkpt lat="43.46746" lon="6.62179">
        <ele>69.400001525879</ele>
        <time>2019-05-30T12:08:07.000Z</time>
      </trkpt>
      <trkpt lat="43.46744" lon="6.62234">
        <ele>69</ele>
        <time>2019-05-30T12:08:15.000Z</time>
      </trkpt>
      <trkpt lat="43.4674" lon="6.62295">
        <ele>68.800003051758</ele>
        <time>2019-05-30T12:08:24.000Z</time>
      </trkpt>
      <trkpt lat="43.4674" lon="6.62314">
        <ele>69</ele>
        <time>2019-05-30T12:08:27.000Z</time>
      </trkpt>
      <trkpt lat="43.46741" lon="6.62334">
        <ele>68.199996948242</ele>
        <time>2019-05-30T12:08:30.000Z</time>
      </trkpt>
      <trkpt lat="43.4674" lon="6.62347">
        <ele>67.599998474121</ele>
        <time>2019-05-30T12:08:32.000Z</time>
      </trkpt>
      <trkpt lat="43.4674" lon="6.6236">
        <ele>67</ele>
        <time>2019-05-30T12:08:34.000Z</time>
      </trkpt>
      <trkpt lat="43.46738" lon="6.62366">
        <ele>66.599998474121</ele>
        <time>2019-05-30T12:08:35.000Z</time>
      </trkpt>
      <trkpt lat="43.46737" lon="6.62372">
        <ele>65.800003051758</ele>
        <time>2019-05-30T12:08:36.000Z</time>
      </trkpt>
      <trkpt lat="43.46736" lon="6.6238">
        <ele>64.800003051758</ele>
        <time>2019-05-30T12:08:37.000Z</time>
      </trkpt>
      <trkpt lat="43.46733" lon="6.624">
        <ele>63.400001525879</ele>
        <time>2019-05-30T12:08:40.000Z</time>
      </trkpt>
      <trkpt lat="43.46733" lon="6.62411">
        <ele>63.400001525879</ele>
        <time>2019-05-30T12:08:42.000Z</time>
      </trkpt>
      <trkpt lat="43.46734" lon="6.62417">
        <ele>62.799999237061</ele>
        <time>2019-05-30T12:08:43.000Z</time>
      </trkpt>
      <trkpt lat="43.46735" lon="6.62422">
        <ele>62.400001525879</ele>
        <time>2019-05-30T12:08:44.000Z</time>
      </trkpt>
      <trkpt lat="43.46737" lon="6.62433">
        <ele>61.599998474121</ele>
        <time>2019-05-30T12:08:46.000Z</time>
      </trkpt>
      <trkpt lat="43.46735" lon="6.62434">
        <ele>61.200000762939</ele>
        <time>2019-05-30T12:08:47.000Z</time>
      </trkpt>
      <trkpt lat="43.46731" lon="6.62444">
        <ele>60.799999237061</ele>
        <time>2019-05-30T12:08:50.000Z</time>
      </trkpt>
      <trkpt lat="43.46731" lon="6.62448">
        <ele>60.400001525879</ele>
        <time>2019-05-30T12:08:51.000Z</time>
      </trkpt>
      <trkpt lat="43.46732" lon="6.62452">
        <ele>60</ele>
        <time>2019-05-30T12:08:52.000Z</time>
      </trkpt>
      <trkpt lat="43.46731" lon="6.62457">
        <ele>59.400001525879</ele>
        <time>2019-05-30T12:08:53.000Z</time>
      </trkpt>
      <trkpt lat="43.46729" lon="6.62462">
        <ele>59</ele>
        <time>2019-05-30T12:08:54.000Z</time>
      </trkpt>
      <trkpt lat="43.46722" lon="6.62467">
        <ele>57.400001525879</ele>
        <time>2019-05-30T12:08:56.000Z</time>
      </trkpt>
      <trkpt lat="43.46717" lon="6.62463">
        <ele>56.799999237061</ele>
        <time>2019-05-30T12:08:57.000Z</time>
      </trkpt>
      <trkpt lat="43.46714" lon="6.6246">
        <ele>56.200000762939</ele>
        <time>2019-05-30T12:08:58.000Z</time>
      </trkpt>
      <trkpt lat="43.46709" lon="6.62459">
        <ele>55.599998474121</ele>
        <time>2019-05-30T12:08:59.000Z</time>
      </trkpt>
      <trkpt lat="43.46705" lon="6.62459">
        <ele>55</ele>
        <time>2019-05-30T12:09:00.000Z</time>
      </trkpt>
      <trkpt lat="43.46701" lon="6.62461">
        <ele>54.599998474121</ele>
        <time>2019-05-30T12:09:01.000Z</time>
      </trkpt>
      <trkpt lat="43.46696" lon="6.62465">
        <ele>54</ele>
        <time>2019-05-30T12:09:03.000Z</time>
      </trkpt>
      <trkpt lat="43.46694" lon="6.62466">
        <ele>53.599998474121</ele>
        <time>2019-05-30T12:09:04.000Z</time>
      </trkpt>
      <trkpt lat="43.4669" lon="6.62472">
        <ele>54</ele>
        <time>2019-05-30T12:09:05.000Z</time>
      </trkpt>
      <trkpt lat="43.46686" lon="6.62485">
        <ele>54.200000762939</ele>
        <time>2019-05-30T12:09:08.000Z</time>
      </trkpt>
      <trkpt lat="43.46685" lon="6.62492">
        <ele>53.799999237061</ele>
        <time>2019-05-30T12:09:10.000Z</time>
      </trkpt>
      <trkpt lat="43.46683" lon="6.62494">
        <ele>53.799999237061</ele>
        <time>2019-05-30T12:09:11.000Z</time>
      </trkpt>
      <trkpt lat="43.46682" lon="6.62497">
        <ele>54</ele>
        <time>2019-05-30T12:09:12.000Z</time>
      </trkpt>
      <trkpt lat="43.4668" lon="6.62502">
        <ele>54.200000762939</ele>
        <time>2019-05-30T12:09:14.000Z</time>
      </trkpt>
      <trkpt lat="43.46682" lon="6.62506">
        <ele>54.200000762939</ele>
        <time>2019-05-30T12:09:16.000Z</time>
      </trkpt>
      <trkpt lat="43.46687" lon="6.6252">
        <ele>54.200000762939</ele>
        <time>2019-05-30T12:09:19.000Z</time>
      </trkpt>
      <trkpt lat="43.46689" lon="6.62538">
        <ele>55</ele>
        <time>2019-05-30T12:09:23.000Z</time>
      </trkpt>
      <trkpt lat="43.46688" lon="6.62544">
        <ele>55</ele>
        <time>2019-05-30T12:09:24.000Z</time>
      </trkpt>
      <trkpt lat="43.46681" lon="6.62569">
        <ele>55.400001525879</ele>
        <time>2019-05-30T12:09:29.000Z</time>
      </trkpt>
      <trkpt lat="43.46679" lon="6.62579">
        <ele>55</ele>
        <time>2019-05-30T12:09:32.000Z</time>
      </trkpt>
      <trkpt lat="43.46676" lon="6.62583">
        <ele>55</ele>
        <time>2019-05-30T12:09:33.000Z</time>
      </trkpt>
      <trkpt lat="43.46665" lon="6.62603">
        <ele>55.400001525879</ele>
        <time>2019-05-30T12:09:39.000Z</time>
      </trkpt>
      <trkpt lat="43.46653" lon="6.62618">
        <ele>56</ele>
        <time>2019-05-30T12:09:44.000Z</time>
      </trkpt>
      <trkpt lat="43.46651" lon="6.62621">
        <ele>56</ele>
        <time>2019-05-30T12:09:45.000Z</time>
      </trkpt>
      <trkpt lat="43.4664" lon="6.62634">
        <ele>56.200000762939</ele>
        <time>2019-05-30T12:09:51.000Z</time>
      </trkpt>
      <trkpt lat="43.46628" lon="6.62647">
        <ele>56.400001525879</ele>
        <time>2019-05-30T12:09:56.000Z</time>
      </trkpt>
      <trkpt lat="43.46626" lon="6.62648">
        <ele>57.200000762939</ele>
        <time>2019-05-30T12:09:57.000Z</time>
      </trkpt>
      <trkpt lat="43.4662" lon="6.62648">
        <ele>57.400001525879</ele>
        <time>2019-05-30T12:10:00.000Z</time>
      </trkpt>
      <trkpt lat="43.46609" lon="6.62643">
        <ele>57.799999237061</ele>
        <time>2019-05-30T12:10:05.000Z</time>
      </trkpt>
      <trkpt lat="43.46606" lon="6.6264">
        <ele>58</ele>
        <time>2019-05-30T12:10:07.000Z</time>
      </trkpt>
      <trkpt lat="43.46601" lon="6.62637">
        <ele>58</ele>
        <time>2019-05-30T12:10:09.000Z</time>
      </trkpt>
      <trkpt lat="43.46595" lon="6.62633">
        <ele>58</ele>
        <time>2019-05-30T12:10:12.000Z</time>
      </trkpt>
      <trkpt lat="43.46591" lon="6.62634">
        <ele>58</ele>
        <time>2019-05-30T12:10:14.000Z</time>
      </trkpt>
      <trkpt lat="43.46586" lon="6.62635">
        <ele>58</ele>
        <time>2019-05-30T12:10:16.000Z</time>
      </trkpt>
      <trkpt lat="43.46584" lon="6.62633">
        <ele>57.799999237061</ele>
        <time>2019-05-30T12:10:17.000Z</time>
      </trkpt>
      <trkpt lat="43.46583" lon="6.62631">
        <ele>57.799999237061</ele>
        <time>2019-05-30T12:10:18.000Z</time>
      </trkpt>
      <trkpt lat="43.46578" lon="6.62629">
        <ele>58.599998474121</ele>
        <time>2019-05-30T12:10:21.000Z</time>
      </trkpt>
      <trkpt lat="43.46574" lon="6.62627">
        <ele>59.200000762939</ele>
        <time>2019-05-30T12:10:23.000Z</time>
      </trkpt>
      <trkpt lat="43.46572" lon="6.62627">
        <ele>59.200000762939</ele>
        <time>2019-05-30T12:10:24.000Z</time>
      </trkpt>
      <trkpt lat="43.46568" lon="6.62627">
        <ele>59.400001525879</ele>
        <time>2019-05-30T12:10:26.000Z</time>
      </trkpt>
      <trkpt lat="43.46564" lon="6.62629">
        <ele>59.599998474121</ele>
        <time>2019-05-30T12:10:28.000Z</time>
      </trkpt>
      <trkpt lat="43.46561" lon="6.62631">
        <ele>59.599998474121</ele>
        <time>2019-05-30T12:10:29.000Z</time>
      </trkpt>
      <trkpt lat="43.46559" lon="6.62632">
        <ele>59.599998474121</ele>
        <time>2019-05-30T12:10:30.000Z</time>
      </trkpt>
      <trkpt lat="43.46543" lon="6.62642">
        <ele>59.799999237061</ele>
        <time>2019-05-30T12:10:37.000Z</time>
      </trkpt>
      <trkpt lat="43.46542" lon="6.62662">
        <ele>59.400001525879</ele>
        <time>2019-05-30T12:10:42.000Z</time>
      </trkpt>
      <trkpt lat="43.46542" lon="6.62679">
        <ele>58.200000762939</ele>
        <time>2019-05-30T12:10:46.000Z</time>
      </trkpt>
      <trkpt lat="43.46542" lon="6.62687">
        <ele>57.200000762939</ele>
        <time>2019-05-30T12:10:47.000Z</time>
      </trkpt>
      <trkpt lat="43.46542" lon="6.62704">
        <ele>55.599998474121</ele>
        <time>2019-05-30T12:10:49.000Z</time>
      </trkpt>
      <trkpt lat="43.46541" lon="6.62712">
        <ele>54.599998474121</ele>
        <time>2019-05-30T12:10:50.000Z</time>
      </trkpt>
      <trkpt lat="43.46538" lon="6.62722">
        <ele>52.599998474121</ele>
        <time>2019-05-30T12:10:52.000Z</time>
      </trkpt>
      <trkpt lat="43.46541" lon="6.62729">
        <ele>51.400001525879</ele>
        <time>2019-05-30T12:10:54.000Z</time>
      </trkpt>
      <trkpt lat="43.46544" lon="6.62729">
        <ele>51.200000762939</ele>
        <time>2019-05-30T12:10:55.000Z</time>
      </trkpt>
      <trkpt lat="43.46554" lon="6.6273">
        <ele>50</ele>
        <time>2019-05-30T12:10:58.000Z</time>
      </trkpt>
      <trkpt lat="43.46562" lon="6.62735">
        <ele>49.200000762939</ele>
        <time>2019-05-30T12:11:00.000Z</time>
      </trkpt>
      <trkpt lat="43.46563" lon="6.62751">
        <ele>49</ele>
        <time>2019-05-30T12:11:03.000Z</time>
      </trkpt>
      <trkpt lat="43.46556" lon="6.6276">
        <ele>48.200000762939</ele>
        <time>2019-05-30T12:11:05.000Z</time>
      </trkpt>
      <trkpt lat="43.46551" lon="6.62764">
        <ele>47.200000762939</ele>
        <time>2019-05-30T12:11:06.000Z</time>
      </trkpt>
      <trkpt lat="43.46539" lon="6.62781">
        <ele>46</ele>
        <time>2019-05-30T12:11:09.000Z</time>
      </trkpt>
      <trkpt lat="43.46526" lon="6.62797">
        <ele>45.599998474121</ele>
        <time>2019-05-30T12:11:12.000Z</time>
      </trkpt>
      <trkpt lat="43.46517" lon="6.62809">
        <ele>44.799999237061</ele>
        <time>2019-05-30T12:11:14.000Z</time>
      </trkpt>
      <trkpt lat="43.46512" lon="6.62822">
        <ele>44.599998474121</ele>
        <time>2019-05-30T12:11:16.000Z</time>
      </trkpt>
      <trkpt lat="43.4651" lon="6.62829">
        <ele>44.200000762939</ele>
        <time>2019-05-30T12:11:17.000Z</time>
      </trkpt>
      <trkpt lat="43.46507" lon="6.62852">
        <ele>43</ele>
        <time>2019-05-30T12:11:20.000Z</time>
      </trkpt>
      <trkpt lat="43.46507" lon="6.62875">
        <ele>41.799999237061</ele>
        <time>2019-05-30T12:11:23.000Z</time>
      </trkpt>
      <trkpt lat="43.46507" lon="6.62907">
        <ele>41</ele>
        <time>2019-05-30T12:11:27.000Z</time>
      </trkpt>
      <trkpt lat="43.46509" lon="6.62949">
        <ele>40.799999237061</ele>
        <time>2019-05-30T12:11:32.000Z</time>
      </trkpt>
      <trkpt lat="43.4651" lon="6.62958">
        <ele>40.599998474121</ele>
        <time>2019-05-30T12:11:33.000Z</time>
      </trkpt>
      <trkpt lat="43.46512" lon="6.62966">
        <ele>40.400001525879</ele>
        <time>2019-05-30T12:11:34.000Z</time>
      </trkpt>
      <trkpt lat="43.46516" lon="6.62984">
        <ele>39.200000762939</ele>
        <time>2019-05-30T12:11:36.000Z</time>
      </trkpt>
      <trkpt lat="43.4652" lon="6.63002">
        <ele>38</ele>
        <time>2019-05-30T12:11:38.000Z</time>
      </trkpt>
      <trkpt lat="43.46524" lon="6.6303">
        <ele>37</ele>
        <time>2019-05-30T12:11:41.000Z</time>
      </trkpt>
      <trkpt lat="43.46525" lon="6.6304">
        <ele>36.799999237061</ele>
        <time>2019-05-30T12:11:42.000Z</time>
      </trkpt>
      <trkpt lat="43.46526" lon="6.63069">
        <ele>35.599998474121</ele>
        <time>2019-05-30T12:11:45.000Z</time>
      </trkpt>
      <trkpt lat="43.46524" lon="6.63097">
        <ele>34.799999237061</ele>
        <time>2019-05-30T12:11:48.000Z</time>
      </trkpt>
      <trkpt lat="43.46521" lon="6.63114">
        <ele>34.799999237061</ele>
        <time>2019-05-30T12:11:51.000Z</time>
      </trkpt>
      <trkpt lat="43.46519" lon="6.63123">
        <ele>35.599998474121</ele>
        <time>2019-05-30T12:11:55.000Z</time>
      </trkpt>
      <trkpt lat="43.46516" lon="6.63129">
        <ele>35.599998474121</ele>
        <time>2019-05-30T12:12:00.000Z</time>
      </trkpt>
      <trkpt lat="43.46521" lon="6.63137">
        <ele>35</ele>
        <time>2019-05-30T12:12:05.000Z</time>
      </trkpt>
      <trkpt lat="43.46521" lon="6.63139">
        <ele>34.799999237061</ele>
        <time>2019-05-30T12:12:06.000Z</time>
      </trkpt>
      <trkpt lat="43.4652" lon="6.6314">
        <ele>34.400001525879</ele>
        <time>2019-05-30T12:12:07.000Z</time>
      </trkpt>
      <trkpt lat="43.46519" lon="6.63142">
        <ele>34.799999237061</ele>
        <time>2019-05-30T12:12:09.000Z</time>
      </trkpt>
      <trkpt lat="43.46518" lon="6.63143">
        <ele>35</ele>
        <time>2019-05-30T12:12:10.000Z</time>
      </trkpt>
      <trkpt lat="43.46513" lon="6.63142">
        <ele>34.400001525879</ele>
        <time>2019-05-30T12:12:13.000Z</time>
      </trkpt>
      <trkpt lat="43.46499" lon="6.63135">
        <ele>34.200000762939</ele>
        <time>2019-05-30T12:12:18.000Z</time>
      </trkpt>
      <trkpt lat="43.46495" lon="6.63133">
        <ele>34.200000762939</ele>
        <time>2019-05-30T12:12:19.000Z</time>
      </trkpt>
      <trkpt lat="43.46487" lon="6.6313">
        <ele>34.200000762939</ele>
        <time>2019-05-30T12:12:21.000Z</time>
      </trkpt>
      <trkpt lat="43.46478" lon="6.63127">
        <ele>34.400001525879</ele>
        <time>2019-05-30T12:12:23.000Z</time>
      </trkpt>
      <trkpt lat="43.46473" lon="6.63127">
        <ele>34.599998474121</ele>
        <time>2019-05-30T12:12:24.000Z</time>
      </trkpt>
      <trkpt lat="43.46465" lon="6.63133">
        <ele>34.400001525879</ele>
        <time>2019-05-30T12:12:26.000Z</time>
      </trkpt>
      <trkpt lat="43.46462" lon="6.63154">
        <ele>34.200000762939</ele>
        <time>2019-05-30T12:12:29.000Z</time>
      </trkpt>
      <trkpt lat="43.46462" lon="6.63162">
        <ele>33.799999237061</ele>
        <time>2019-05-30T12:12:30.000Z</time>
      </trkpt>
      <trkpt lat="43.46462" lon="6.63186">
        <ele>33.400001525879</ele>
        <time>2019-05-30T12:12:33.000Z</time>
      </trkpt>
      <trkpt lat="43.46462" lon="6.6321">
        <ele>32.799999237061</ele>
        <time>2019-05-30T12:12:36.000Z</time>
      </trkpt>
      <trkpt lat="43.46461" lon="6.63288">
        <ele>32.599998474121</ele>
        <time>2019-05-30T12:12:45.000Z</time>
      </trkpt>
      <trkpt lat="43.46461" lon="6.63338">
        <ele>32.200000762939</ele>
        <time>2019-05-30T12:12:51.000Z</time>
      </trkpt>
      <trkpt lat="43.46461" lon="6.63362">
        <ele>31.60000038147</ele>
        <time>2019-05-30T12:12:54.000Z</time>
      </trkpt>
      <trkpt lat="43.46458" lon="6.63438">
        <ele>32.400001525879</ele>
        <time>2019-05-30T12:13:04.000Z</time>
      </trkpt>
      <trkpt lat="43.46457" lon="6.63484">
        <ele>32.799999237061</ele>
        <time>2019-05-30T12:13:11.000Z</time>
      </trkpt>
      <trkpt lat="43.46457" lon="6.63509">
        <ele>33.200000762939</ele>
        <time>2019-05-30T12:13:15.000Z</time>
      </trkpt>
      <trkpt lat="43.46457" lon="6.63529">
        <ele>33.200000762939</ele>
        <time>2019-05-30T12:13:18.000Z</time>
      </trkpt>
      <trkpt lat="43.46458" lon="6.63581">
        <ele>32.200000762939</ele>
        <time>2019-05-30T12:13:25.000Z</time>
      </trkpt>
      <trkpt lat="43.46462" lon="6.63624">
        <ele>32.200000762939</ele>
        <time>2019-05-30T12:13:31.000Z</time>
      </trkpt>
      <trkpt lat="43.46461" lon="6.63631">
        <ele>32</ele>
        <time>2019-05-30T12:13:32.000Z</time>
      </trkpt>
      <trkpt lat="43.4645" lon="6.63642">
        <ele>31.60000038147</ele>
        <time>2019-05-30T12:13:35.000Z</time>
      </trkpt>
      <trkpt lat="43.4644" lon="6.63642">
        <ele>31.39999961853</ele>
        <time>2019-05-30T12:13:37.000Z</time>
      </trkpt>
      <trkpt lat="43.46425" lon="6.63634">
        <ele>30.799999237061</ele>
        <time>2019-05-30T12:13:41.000Z</time>
      </trkpt>
      <trkpt lat="43.46396" lon="6.63607">
        <ele>32.400001525879</ele>
        <time>2019-05-30T12:13:50.000Z</time>
      </trkpt>
      <trkpt lat="43.4639" lon="6.63589">
        <ele>33.200000762939</ele>
        <time>2019-05-30T12:13:54.000Z</time>
      </trkpt>
      <trkpt lat="43.46388" lon="6.63584">
        <ele>33.400001525879</ele>
        <time>2019-05-30T12:13:55.000Z</time>
      </trkpt>
      <trkpt lat="43.46378" lon="6.63569">
        <ele>33.200000762939</ele>
        <time>2019-05-30T12:13:59.000Z</time>
      </trkpt>
      <trkpt lat="43.46367" lon="6.6356">
        <ele>32.400001525879</ele>
        <time>2019-05-30T12:14:02.000Z</time>
      </trkpt>
      <trkpt lat="43.46363" lon="6.63557">
        <ele>32.200000762939</ele>
        <time>2019-05-30T12:14:03.000Z</time>
      </trkpt>
      <trkpt lat="43.4635" lon="6.63553">
        <ele>31.799999237061</ele>
        <time>2019-05-30T12:14:06.000Z</time>
      </trkpt>
      <trkpt lat="43.46333" lon="6.63559">
        <ele>31.60000038147</ele>
        <time>2019-05-30T12:14:10.000Z</time>
      </trkpt>
      <trkpt lat="43.46329" lon="6.63563">
        <ele>31.799999237061</ele>
        <time>2019-05-30T12:14:11.000Z</time>
      </trkpt>
      <trkpt lat="43.46315" lon="6.63579">
        <ele>32.799999237061</ele>
        <time>2019-05-30T12:14:15.000Z</time>
      </trkpt>
      <trkpt lat="43.46309" lon="6.63589">
        <ele>32.599998474121</ele>
        <time>2019-05-30T12:14:17.000Z</time>
      </trkpt>
      <trkpt lat="43.46292" lon="6.63602">
        <ele>32.200000762939</ele>
        <time>2019-05-30T12:14:21.000Z</time>
      </trkpt>
      <trkpt lat="43.46281" lon="6.63607">
        <ele>32.400001525879</ele>
        <time>2019-05-30T12:14:23.000Z</time>
      </trkpt>
      <trkpt lat="43.4626" lon="6.63612">
        <ele>32.400001525879</ele>
        <time>2019-05-30T12:14:27.000Z</time>
      </trkpt>
      <trkpt lat="43.46241" lon="6.63614">
        <ele>31.200000762939</ele>
        <time>2019-05-30T12:14:31.000Z</time>
      </trkpt>
      <trkpt lat="43.4622" lon="6.63615">
        <ele>32.200000762939</ele>
        <time>2019-05-30T12:14:35.000Z</time>
      </trkpt>
      <trkpt lat="43.46169" lon="6.63619">
        <ele>31.200000762939</ele>
        <time>2019-05-30T12:14:45.000Z</time>
      </trkpt>
      <trkpt lat="43.46139" lon="6.63621">
        <ele>32.400001525879</ele>
        <time>2019-05-30T12:14:51.000Z</time>
      </trkpt>
      <trkpt lat="43.46129" lon="6.6362">
        <ele>32.400001525879</ele>
        <time>2019-05-30T12:14:53.000Z</time>
      </trkpt>
      <trkpt lat="43.46124" lon="6.63619">
        <ele>32.599998474121</ele>
        <time>2019-05-30T12:14:54.000Z</time>
      </trkpt>
      <trkpt lat="43.46104" lon="6.63616">
        <ele>33.200000762939</ele>
        <time>2019-05-30T12:14:58.000Z</time>
      </trkpt>
      <trkpt lat="43.46099" lon="6.63619">
        <ele>33</ele>
        <time>2019-05-30T12:14:59.000Z</time>
      </trkpt>
      <trkpt lat="43.46083" lon="6.63623">
        <ele>32.599998474121</ele>
        <time>2019-05-30T12:15:02.000Z</time>
      </trkpt>
      <trkpt lat="43.46078" lon="6.63623">
        <ele>32.599998474121</ele>
        <time>2019-05-30T12:15:03.000Z</time>
      </trkpt>
      <trkpt lat="43.4603" lon="6.63619">
        <ele>32</ele>
        <time>2019-05-30T12:15:12.000Z</time>
      </trkpt>
      <trkpt lat="43.45998" lon="6.63603">
        <ele>32.599998474121</ele>
        <time>2019-05-30T12:15:19.000Z</time>
      </trkpt>
      <trkpt lat="43.45956" lon="6.63576">
        <ele>32.799999237061</ele>
        <time>2019-05-30T12:15:29.000Z</time>
      </trkpt>
      <trkpt lat="43.45913" lon="6.63546">
        <ele>32.599998474121</ele>
        <time>2019-05-30T12:15:39.000Z</time>
      </trkpt>
      <trkpt lat="43.45866" lon="6.63519">
        <ele>32.799999237061</ele>
        <time>2019-05-30T12:15:49.000Z</time>
      </trkpt>
      <trkpt lat="43.45834" lon="6.63499">
        <ele>32.400001525879</ele>
        <time>2019-05-30T12:15:56.000Z</time>
      </trkpt>
      <trkpt lat="43.45784" lon="6.63463">
        <ele>32.200000762939</ele>
        <time>2019-05-30T12:16:07.000Z</time>
      </trkpt>
      <trkpt lat="43.45739" lon="6.63421">
        <ele>32.799999237061</ele>
        <time>2019-05-30T12:16:17.000Z</time>
      </trkpt>
      <trkpt lat="43.45712" lon="6.63393">
        <ele>32.599998474121</ele>
        <time>2019-05-30T12:16:23.000Z</time>
      </trkpt>
      <trkpt lat="43.45697" lon="6.63382">
        <ele>33.400001525879</ele>
        <time>2019-05-30T12:16:26.000Z</time>
      </trkpt>
      <trkpt lat="43.45656" lon="6.63366">
        <ele>32.400001525879</ele>
        <time>2019-05-30T12:16:34.000Z</time>
      </trkpt>
      <trkpt lat="43.45605" lon="6.63349">
        <ele>33</ele>
        <time>2019-05-30T12:16:44.000Z</time>
      </trkpt>
      <trkpt lat="43.45556" lon="6.63341">
        <ele>33</ele>
        <time>2019-05-30T12:16:53.000Z</time>
      </trkpt>
      <trkpt lat="43.45516" lon="6.63339">
        <ele>33.400001525879</ele>
        <time>2019-05-30T12:17:00.000Z</time>
      </trkpt>
      <trkpt lat="43.45505" lon="6.6334">
        <ele>33.200000762939</ele>
        <time>2019-05-30T12:17:02.000Z</time>
      </trkpt>
      <trkpt lat="43.45453" lon="6.63337">
        <ele>33</ele>
        <time>2019-05-30T12:17:11.000Z</time>
      </trkpt>
      <trkpt lat="43.45418" lon="6.63335">
        <ele>32.400001525879</ele>
        <time>2019-05-30T12:17:17.000Z</time>
      </trkpt>
      <trkpt lat="43.45396" lon="6.63334">
        <ele>32.200000762939</ele>
        <time>2019-05-30T12:17:21.000Z</time>
      </trkpt>
      <trkpt lat="43.4534" lon="6.63332">
        <ele>33</ele>
        <time>2019-05-30T12:17:31.000Z</time>
      </trkpt>
      <trkpt lat="43.45334" lon="6.63332">
        <ele>32.799999237061</ele>
        <time>2019-05-30T12:17:32.000Z</time>
      </trkpt>
      <trkpt lat="43.45283" lon="6.63331">
        <ele>33.200000762939</ele>
        <time>2019-05-30T12:17:42.000Z</time>
      </trkpt>
      <trkpt lat="43.45257" lon="6.63329">
        <ele>33.400001525879</ele>
        <time>2019-05-30T12:17:47.000Z</time>
      </trkpt>
      <trkpt lat="43.45252" lon="6.63329">
        <ele>33.599998474121</ele>
        <time>2019-05-30T12:17:48.000Z</time>
      </trkpt>
      <trkpt lat="43.45236" lon="6.63329">
        <ele>33.799999237061</ele>
        <time>2019-05-30T12:17:51.000Z</time>
      </trkpt>
      <trkpt lat="43.45192" lon="6.63327">
        <ele>33.400001525879</ele>
        <time>2019-05-30T12:18:00.000Z</time>
      </trkpt>
      <trkpt lat="43.45152" lon="6.63323">
        <ele>34.599998474121</ele>
        <time>2019-05-30T12:18:09.000Z</time>
      </trkpt>
      <trkpt lat="43.4512" lon="6.63316">
        <ele>35.599998474121</ele>
        <time>2019-05-30T12:18:17.000Z</time>
      </trkpt>
      <trkpt lat="43.45105" lon="6.63313">
        <ele>35.799999237061</ele>
        <time>2019-05-30T12:18:21.000Z</time>
      </trkpt>
      <trkpt lat="43.45078" lon="6.63308">
        <ele>36.599998474121</ele>
        <time>2019-05-30T12:18:28.000Z</time>
      </trkpt>
      <trkpt lat="43.4507" lon="6.63306">
        <ele>36.799999237061</ele>
        <time>2019-05-30T12:18:30.000Z</time>
      </trkpt>
      <trkpt lat="43.45048" lon="6.63303">
        <ele>37.599998474121</ele>
        <time>2019-05-30T12:18:36.000Z</time>
      </trkpt>
      <trkpt lat="43.45042" lon="6.63303">
        <ele>38</ele>
        <time>2019-05-30T12:18:38.000Z</time>
      </trkpt>
      <trkpt lat="43.45026" lon="6.63303">
        <ele>37.599998474121</ele>
        <time>2019-05-30T12:18:45.000Z</time>
      </trkpt>
      <trkpt lat="43.44998" lon="6.63302">
        <ele>38</ele>
        <time>2019-05-30T12:18:56.000Z</time>
      </trkpt>
      <trkpt lat="43.44973" lon="6.63301">
        <ele>38</ele>
        <time>2019-05-30T12:19:03.000Z</time>
      </trkpt>
      <trkpt lat="43.44932" lon="6.63301">
        <ele>37.400001525879</ele>
        <time>2019-05-30T12:19:12.000Z</time>
      </trkpt>
      <trkpt lat="43.44889" lon="6.63308">
        <ele>36.799999237061</ele>
        <time>2019-05-30T12:19:20.000Z</time>
      </trkpt>
      <trkpt lat="43.44878" lon="6.6331">
        <ele>36.599998474121</ele>
        <time>2019-05-30T12:19:22.000Z</time>
      </trkpt>
      <trkpt lat="43.44841" lon="6.63316">
        <ele>35.799999237061</ele>
        <time>2019-05-30T12:19:28.000Z</time>
      </trkpt>
      <trkpt lat="43.44834" lon="6.63317">
        <ele>35.400001525879</ele>
        <time>2019-05-30T12:19:29.000Z</time>
      </trkpt>
      <trkpt lat="43.44807" lon="6.63321">
        <ele>34</ele>
        <time>2019-05-30T12:19:33.000Z</time>
      </trkpt>
      <trkpt lat="43.44789" lon="6.63321">
        <ele>32.799999237061</ele>
        <time>2019-05-30T12:19:36.000Z</time>
      </trkpt>
      <trkpt lat="43.44757" lon="6.63322">
        <ele>32.799999237061</ele>
        <time>2019-05-30T12:19:42.000Z</time>
      </trkpt>
      <trkpt lat="43.44752" lon="6.63323">
        <ele>33</ele>
        <time>2019-05-30T12:19:43.000Z</time>
      </trkpt>
      <trkpt lat="43.44738" lon="6.63331">
        <ele>33.400001525879</ele>
        <time>2019-05-30T12:19:46.000Z</time>
      </trkpt>
      <trkpt lat="43.44733" lon="6.63335">
        <ele>33.599998474121</ele>
        <time>2019-05-30T12:19:47.000Z</time>
      </trkpt>
      <trkpt lat="43.44722" lon="6.6335">
        <ele>33.400001525879</ele>
        <time>2019-05-30T12:19:50.000Z</time>
      </trkpt>
      <trkpt lat="43.44694" lon="6.63395">
        <ele>33.599998474121</ele>
        <time>2019-05-30T12:19:58.000Z</time>
      </trkpt>
      <trkpt lat="43.44688" lon="6.63406">
        <ele>34</ele>
        <time>2019-05-30T12:20:00.000Z</time>
      </trkpt>
      <trkpt lat="43.44668" lon="6.63437">
        <ele>34.400001525879</ele>
        <time>2019-05-30T12:20:06.000Z</time>
      </trkpt>
      <trkpt lat="43.44637" lon="6.63489">
        <ele>34</ele>
        <time>2019-05-30T12:20:15.000Z</time>
      </trkpt>
      <trkpt lat="43.44621" lon="6.6352">
        <ele>34</ele>
        <time>2019-05-30T12:20:20.000Z</time>
      </trkpt>
      <trkpt lat="43.44613" lon="6.63539">
        <ele>33.400001525879</ele>
        <time>2019-05-30T12:20:23.000Z</time>
      </trkpt>
      <trkpt lat="43.446" lon="6.63577">
        <ele>34</ele>
        <time>2019-05-30T12:20:29.000Z</time>
      </trkpt>
      <trkpt lat="43.44581" lon="6.6363">
        <ele>33.599998474121</ele>
        <time>2019-05-30T12:20:39.000Z</time>
      </trkpt>
      <trkpt lat="43.44564" lon="6.63681">
        <ele>33.400001525879</ele>
        <time>2019-05-30T12:20:48.000Z</time>
      </trkpt>
      <trkpt lat="43.44551" lon="6.63723">
        <ele>33.599998474121</ele>
        <time>2019-05-30T12:20:56.000Z</time>
      </trkpt>
      <trkpt lat="43.44538" lon="6.63761">
        <ele>34</ele>
        <time>2019-05-30T12:21:03.000Z</time>
      </trkpt>
      <trkpt lat="43.44533" lon="6.63771">
        <ele>34.200000762939</ele>
        <time>2019-05-30T12:21:05.000Z</time>
      </trkpt>
      <trkpt lat="43.44528" lon="6.63779">
        <ele>34.200000762939</ele>
        <time>2019-05-30T12:21:07.000Z</time>
      </trkpt>
      <trkpt lat="43.44518" lon="6.63794">
        <ele>35.400001525879</ele>
        <time>2019-05-30T12:21:11.000Z</time>
      </trkpt>
      <trkpt lat="43.44512" lon="6.63804">
        <ele>36.400001525879</ele>
        <time>2019-05-30T12:21:14.000Z</time>
      </trkpt>
      <trkpt lat="43.44505" lon="6.63816">
        <ele>37.599998474121</ele>
        <time>2019-05-30T12:21:18.000Z</time>
      </trkpt>
      <trkpt lat="43.44504" lon="6.63819">
        <ele>37.799999237061</ele>
        <time>2019-05-30T12:21:19.000Z</time>
      </trkpt>
      <trkpt lat="43.44502" lon="6.6382">
        <ele>38.200000762939</ele>
        <time>2019-05-30T12:21:20.000Z</time>
      </trkpt>
      <trkpt lat="43.44497" lon="6.6382">
        <ele>39</ele>
        <time>2019-05-30T12:21:22.000Z</time>
      </trkpt>
      <trkpt lat="43.44488" lon="6.63812">
        <ele>39.799999237061</ele>
        <time>2019-05-30T12:21:26.000Z</time>
      </trkpt>
      <trkpt lat="43.44484" lon="6.63809">
        <ele>40</ele>
        <time>2019-05-30T12:21:28.000Z</time>
      </trkpt>
      <trkpt lat="43.44472" lon="6.63803">
        <ele>40.799999237061</ele>
        <time>2019-05-30T12:21:34.000Z</time>
      </trkpt>
      <trkpt lat="43.44468" lon="6.63801">
        <ele>41.200000762939</ele>
        <time>2019-05-30T12:21:36.000Z</time>
      </trkpt>
      <trkpt lat="43.44462" lon="6.63802">
        <ele>41.200000762939</ele>
        <time>2019-05-30T12:21:39.000Z</time>
      </trkpt>
      <trkpt lat="43.44455" lon="6.638">
        <ele>41.400001525879</ele>
        <time>2019-05-30T12:21:43.000Z</time>
      </trkpt>
      <trkpt lat="43.44451" lon="6.63798">
        <ele>42.200000762939</ele>
        <time>2019-05-30T12:21:45.000Z</time>
      </trkpt>
      <trkpt lat="43.44446" lon="6.63793">
        <ele>43</ele>
        <time>2019-05-30T12:21:49.000Z</time>
      </trkpt>
      <trkpt lat="43.44443" lon="6.63791">
        <ele>43.200000762939</ele>
        <time>2019-05-30T12:21:51.000Z</time>
      </trkpt>
      <trkpt lat="43.4444" lon="6.63789">
        <ele>43.200000762939</ele>
        <time>2019-05-30T12:21:54.000Z</time>
      </trkpt>
      <trkpt lat="43.44438" lon="6.63788">
        <ele>43.400001525879</ele>
        <time>2019-05-30T12:21:55.000Z</time>
      </trkpt>
      <trkpt lat="43.44428" lon="6.63782">
        <ele>44.400001525879</ele>
        <time>2019-05-30T12:21:59.000Z</time>
      </trkpt>
      <trkpt lat="43.44427" lon="6.63781">
        <ele>44.799999237061</ele>
        <time>2019-05-30T12:22:00.000Z</time>
      </trkpt>
      <trkpt lat="43.44416" lon="6.63778">
        <ele>45.200000762939</ele>
        <time>2019-05-30T12:22:06.000Z</time>
      </trkpt>
      <trkpt lat="43.44401" lon="6.6377">
        <ele>45.400001525879</ele>
        <time>2019-05-30T12:22:12.000Z</time>
      </trkpt>
      <trkpt lat="43.44398" lon="6.63769">
        <ele>45.599998474121</ele>
        <time>2019-05-30T12:22:13.000Z</time>
      </trkpt>
      <trkpt lat="43.44389" lon="6.63764">
        <ele>46.400001525879</ele>
        <time>2019-05-30T12:22:17.000Z</time>
      </trkpt>
      <trkpt lat="43.44387" lon="6.63763">
        <ele>46.799999237061</ele>
        <time>2019-05-30T12:22:18.000Z</time>
      </trkpt>
      <trkpt lat="43.44383" lon="6.63761">
        <ele>47.200000762939</ele>
        <time>2019-05-30T12:22:20.000Z</time>
      </trkpt>
      <trkpt lat="43.44381" lon="6.63758">
        <ele>47.599998474121</ele>
        <time>2019-05-30T12:22:22.000Z</time>
      </trkpt>
      <trkpt lat="43.44376" lon="6.63754">
        <ele>47.799999237061</ele>
        <time>2019-05-30T12:22:25.000Z</time>
      </trkpt>
      <trkpt lat="43.44371" lon="6.63751">
        <ele>48</ele>
        <time>2019-05-30T12:22:27.000Z</time>
      </trkpt>
      <trkpt lat="43.4436" lon="6.63744">
        <ele>49</ele>
        <time>2019-05-30T12:22:33.000Z</time>
      </trkpt>
      <trkpt lat="43.44358" lon="6.63744">
        <ele>49.200000762939</ele>
        <time>2019-05-30T12:22:34.000Z</time>
      </trkpt>
      <trkpt lat="43.44352" lon="6.63745">
        <ele>49.599998474121</ele>
        <time>2019-05-30T12:22:37.000Z</time>
      </trkpt>
      <trkpt lat="43.44349" lon="6.63745">
        <ele>49.799999237061</ele>
        <time>2019-05-30T12:22:38.000Z</time>
      </trkpt>
      <trkpt lat="43.44347" lon="6.63745">
        <ele>50</ele>
        <time>2019-05-30T12:22:39.000Z</time>
      </trkpt>
      <trkpt lat="43.44338" lon="6.63746">
        <ele>50.799999237061</ele>
        <time>2019-05-30T12:22:43.000Z</time>
      </trkpt>
      <trkpt lat="43.44334" lon="6.63747">
        <ele>51</ele>
        <time>2019-05-30T12:22:45.000Z</time>
      </trkpt>
      <trkpt lat="43.44332" lon="6.63747">
        <ele>51.200000762939</ele>
        <time>2019-05-30T12:22:46.000Z</time>
      </trkpt>
      <trkpt lat="43.44327" lon="6.63747">
        <ele>51.599998474121</ele>
        <time>2019-05-30T12:22:48.000Z</time>
      </trkpt>
      <trkpt lat="43.44315" lon="6.63745">
        <ele>52.400001525879</ele>
        <time>2019-05-30T12:22:53.000Z</time>
      </trkpt>
      <trkpt lat="43.44312" lon="6.63745">
        <ele>52.599998474121</ele>
        <time>2019-05-30T12:22:54.000Z</time>
      </trkpt>
      <trkpt lat="43.44299" lon="6.63737">
        <ele>53.200000762939</ele>
        <time>2019-05-30T12:23:00.000Z</time>
      </trkpt>
      <trkpt lat="43.44296" lon="6.63736">
        <ele>53.400001525879</ele>
        <time>2019-05-30T12:23:01.000Z</time>
      </trkpt>
      <trkpt lat="43.44281" lon="6.6373">
        <ele>54</ele>
        <time>2019-05-30T12:23:07.000Z</time>
      </trkpt>
      <trkpt lat="43.44279" lon="6.63728">
        <ele>54.200000762939</ele>
        <time>2019-05-30T12:23:08.000Z</time>
      </trkpt>
      <trkpt lat="43.44278" lon="6.63727">
        <ele>54.200000762939</ele>
        <time>2019-05-30T12:23:10.000Z</time>
      </trkpt>
      <trkpt lat="43.44278" lon="6.63726">
        <ele>54.400001525879</ele>
        <time>2019-05-30T12:23:14.000Z</time>
      </trkpt>
      <trkpt lat="43.44278" lon="6.63726">
        <ele>54.599998474121</ele>
        <time>2019-05-30T12:23:17.000Z</time>
      </trkpt>
      <trkpt lat="43.44276" lon="6.63727">
        <ele>54.400001525879</ele>
        <time>2019-05-30T12:23:28.000Z</time>
      </trkpt>
      <trkpt lat="43.44275" lon="6.63727">
        <ele>54.599998474121</ele>
        <time>2019-05-30T12:23:40.000Z</time>
      </trkpt>
      <trkpt lat="43.44274" lon="6.63727">
        <ele>54.599998474121</ele>
        <time>2019-05-30T12:23:49.000Z</time>
      </trkpt>
      <trkpt lat="43.44273" lon="6.63728">
        <ele>54.400001525879</ele>
        <time>2019-05-30T12:23:56.000Z</time>
      </trkpt>
      <trkpt lat="43.44272" lon="6.63727">
        <ele>54.400001525879</ele>
        <time>2019-05-30T12:23:58.000Z</time>
      </trkpt>
      <trkpt lat="43.44272" lon="6.63726">
        <ele>54.200000762939</ele>
        <time>2019-05-30T12:24:10.000Z</time>
      </trkpt>
      <trkpt lat="43.44264" lon="6.63724">
        <ele>54</ele>
        <time>2019-05-30T12:24:15.000Z</time>
      </trkpt>
      <trkpt lat="43.44254" lon="6.63717">
        <ele>54</ele>
        <time>2019-05-30T12:24:19.000Z</time>
      </trkpt>
      <trkpt lat="43.44248" lon="6.63714">
        <ele>53.799999237061</ele>
        <time>2019-05-30T12:24:21.000Z</time>
      </trkpt>
      <trkpt lat="43.44238" lon="6.637">
        <ele>53.599998474121</ele>
        <time>2019-05-30T12:24:26.000Z</time>
      </trkpt>
      <trkpt lat="43.44229" lon="6.63693">
        <ele>53.799999237061</ele>
        <time>2019-05-30T12:24:31.000Z</time>
      </trkpt>
      <trkpt lat="43.44209" lon="6.63693">
        <ele>53.599998474121</ele>
        <time>2019-05-30T12:24:37.000Z</time>
      </trkpt>
      <trkpt lat="43.44206" lon="6.63692">
        <ele>53.599998474121</ele>
        <time>2019-05-30T12:24:38.000Z</time>
      </trkpt>
      <trkpt lat="43.44199" lon="6.63693">
        <ele>53.799999237061</ele>
        <time>2019-05-30T12:24:40.000Z</time>
      </trkpt>
      <trkpt lat="43.4417" lon="6.63695">
        <ele>54.799999237061</ele>
        <time>2019-05-30T12:24:48.000Z</time>
      </trkpt>
      <trkpt lat="43.44163" lon="6.63698">
        <ele>54.799999237061</ele>
        <time>2019-05-30T12:24:51.000Z</time>
      </trkpt>
      <trkpt lat="43.44162" lon="6.637">
        <ele>54.799999237061</ele>
        <time>2019-05-30T12:24:52.000Z</time>
      </trkpt>
      <trkpt lat="43.44153" lon="6.63709">
        <ele>53.599998474121</ele>
        <time>2019-05-30T12:24:57.000Z</time>
      </trkpt>
      <trkpt lat="43.44151" lon="6.63711">
        <ele>52.799999237061</ele>
        <time>2019-05-30T12:24:58.000Z</time>
      </trkpt>
      <trkpt lat="43.44149" lon="6.63714">
        <ele>51.400001525879</ele>
        <time>2019-05-30T12:25:00.000Z</time>
      </trkpt>
      <trkpt lat="43.44148" lon="6.63716">
        <ele>50.799999237061</ele>
        <time>2019-05-30T12:25:01.000Z</time>
      </trkpt>
      <trkpt lat="43.44147" lon="6.63718">
        <ele>50.200000762939</ele>
        <time>2019-05-30T12:25:02.000Z</time>
      </trkpt>
      <trkpt lat="43.44141" lon="6.63727">
        <ele>48.400001525879</ele>
        <time>2019-05-30T12:25:05.000Z</time>
      </trkpt>
      <trkpt lat="43.44135" lon="6.63731">
        <ele>47.200000762939</ele>
        <time>2019-05-30T12:25:07.000Z</time>
      </trkpt>
      <trkpt lat="43.44131" lon="6.63732">
        <ele>47.200000762939</ele>
        <time>2019-05-30T12:25:08.000Z</time>
      </trkpt>
      <trkpt lat="43.44126" lon="6.63733">
        <ele>46.599998474121</ele>
        <time>2019-05-30T12:25:09.000Z</time>
      </trkpt>
      <trkpt lat="43.44117" lon="6.63735">
        <ele>46</ele>
        <time>2019-05-30T12:25:11.000Z</time>
      </trkpt>
      <trkpt lat="43.441" lon="6.63739">
        <ele>45</ele>
        <time>2019-05-30T12:25:14.000Z</time>
      </trkpt>
      <trkpt lat="43.44094" lon="6.6374">
        <ele>44.799999237061</ele>
        <time>2019-05-30T12:25:15.000Z</time>
      </trkpt>
      <trkpt lat="43.44079" lon="6.63746">
        <ele>45</ele>
        <time>2019-05-30T12:25:19.000Z</time>
      </trkpt>
      <trkpt lat="43.44075" lon="6.63747">
        <ele>46</ele>
        <time>2019-05-30T12:25:21.000Z</time>
      </trkpt>
      <trkpt lat="43.44071" lon="6.63749">
        <ele>47.200000762939</ele>
        <time>2019-05-30T12:25:23.000Z</time>
      </trkpt>
      <trkpt lat="43.44069" lon="6.63751">
        <ele>48.200000762939</ele>
        <time>2019-05-30T12:25:25.000Z</time>
      </trkpt>
      <trkpt lat="43.44067" lon="6.63753">
        <ele>48.599998474121</ele>
        <time>2019-05-30T12:25:26.000Z</time>
      </trkpt>
      <trkpt lat="43.44053" lon="6.63761">
        <ele>49.599998474121</ele>
        <time>2019-05-30T12:25:33.000Z</time>
      </trkpt>
      <trkpt lat="43.44051" lon="6.63762">
        <ele>49.799999237061</ele>
        <time>2019-05-30T12:25:34.000Z</time>
      </trkpt>
      <trkpt lat="43.44043" lon="6.63767">
        <ele>51</ele>
        <time>2019-05-30T12:25:38.000Z</time>
      </trkpt>
      <trkpt lat="43.44041" lon="6.63767">
        <ele>51.799999237061</ele>
        <time>2019-05-30T12:25:41.000Z</time>
      </trkpt>
      <trkpt lat="43.44041" lon="6.63768">
        <ele>52</ele>
        <time>2019-05-30T12:25:42.000Z</time>
      </trkpt>
      <trkpt lat="43.4404" lon="6.63768">
        <ele>52.599998474121</ele>
        <time>2019-05-30T12:25:46.000Z</time>
      </trkpt>
      <trkpt lat="43.44039" lon="6.63768">
        <ele>52.799999237061</ele>
        <time>2019-05-30T12:25:56.000Z</time>
      </trkpt>
      <trkpt lat="43.44037" lon="6.63767">
        <ele>52.799999237061</ele>
        <time>2019-05-30T12:26:17.000Z</time>
      </trkpt>
      <trkpt lat="43.44038" lon="6.63766">
        <ele>53</ele>
        <time>2019-05-30T12:26:24.000Z</time>
      </trkpt>
      <trkpt lat="43.44038" lon="6.63766">
        <ele>53.200000762939</ele>
        <time>2019-05-30T12:26:25.000Z</time>
      </trkpt>
      <trkpt lat="43.44037" lon="6.63767">
        <ele>53</ele>
        <time>2019-05-30T12:26:27.000Z</time>
      </trkpt>
      <trkpt lat="43.44035" lon="6.6377">
        <ele>52.599998474121</ele>
        <time>2019-05-30T12:26:29.000Z</time>
      </trkpt>
      <trkpt lat="43.44024" lon="6.63778">
        <ele>52.200000762939</ele>
        <time>2019-05-30T12:26:34.000Z</time>
      </trkpt>
      <trkpt lat="43.44022" lon="6.6378">
        <ele>51.799999237061</ele>
        <time>2019-05-30T12:26:35.000Z</time>
      </trkpt>
      <trkpt lat="43.44014" lon="6.63791">
        <ele>51.599998474121</ele>
        <time>2019-05-30T12:26:38.000Z</time>
      </trkpt>
      <trkpt lat="43.44012" lon="6.63796">
        <ele>51.400001525879</ele>
        <time>2019-05-30T12:26:39.000Z</time>
      </trkpt>
      <trkpt lat="43.44011" lon="6.63808">
        <ele>50.799999237061</ele>
        <time>2019-05-30T12:26:41.000Z</time>
      </trkpt>
      <trkpt lat="43.44014" lon="6.63822">
        <ele>50.400001525879</ele>
        <time>2019-05-30T12:26:43.000Z</time>
      </trkpt>
      <trkpt lat="43.44024" lon="6.63843">
        <ele>50.400001525879</ele>
        <time>2019-05-30T12:26:46.000Z</time>
      </trkpt>
      <trkpt lat="43.44031" lon="6.63857">
        <ele>50.400001525879</ele>
        <time>2019-05-30T12:26:48.000Z</time>
      </trkpt>
      <trkpt lat="43.4404" lon="6.63871">
        <ele>49.799999237061</ele>
        <time>2019-05-30T12:26:50.000Z</time>
      </trkpt>
      <trkpt lat="43.44051" lon="6.63882">
        <ele>49</ele>
        <time>2019-05-30T12:26:52.000Z</time>
      </trkpt>
      <trkpt lat="43.44057" lon="6.63888">
        <ele>48.599998474121</ele>
        <time>2019-05-30T12:26:53.000Z</time>
      </trkpt>
      <trkpt lat="43.44063" lon="6.63892">
        <ele>48.200000762939</ele>
        <time>2019-05-30T12:26:54.000Z</time>
      </trkpt>
      <trkpt lat="43.44084" lon="6.63902">
        <ele>47.599998474121</ele>
        <time>2019-05-30T12:26:57.000Z</time>
      </trkpt>
      <trkpt lat="43.4409" lon="6.63906">
        <ele>47.200000762939</ele>
        <time>2019-05-30T12:26:58.000Z</time>
      </trkpt>
      <trkpt lat="43.44125" lon="6.63927">
        <ele>46.400001525879</ele>
        <time>2019-05-30T12:27:03.000Z</time>
      </trkpt>
      <trkpt lat="43.44144" lon="6.63943">
        <ele>46</ele>
        <time>2019-05-30T12:27:06.000Z</time>
      </trkpt>
      <trkpt lat="43.44161" lon="6.63958">
        <ele>45</ele>
        <time>2019-05-30T12:27:09.000Z</time>
      </trkpt>
      <trkpt lat="43.44178" lon="6.63974">
        <ele>43.799999237061</ele>
        <time>2019-05-30T12:27:12.000Z</time>
      </trkpt>
      <trkpt lat="43.44194" lon="6.6399">
        <ele>42</ele>
        <time>2019-05-30T12:27:15.000Z</time>
      </trkpt>
      <trkpt lat="43.44204" lon="6.64003">
        <ele>41.400001525879</ele>
        <time>2019-05-30T12:27:17.000Z</time>
      </trkpt>
      <trkpt lat="43.44214" lon="6.64033">
        <ele>41.799999237061</ele>
        <time>2019-05-30T12:27:21.000Z</time>
      </trkpt>
      <trkpt lat="43.44204" lon="6.64047">
        <ele>41.400001525879</ele>
        <time>2019-05-30T12:27:24.000Z</time>
      </trkpt>
      <trkpt lat="43.44188" lon="6.64068">
        <ele>43.400001525879</ele>
        <time>2019-05-30T12:27:30.000Z</time>
      </trkpt>
      <trkpt lat="43.44183" lon="6.6408">
        <ele>44.599998474121</ele>
        <time>2019-05-30T12:27:33.000Z</time>
      </trkpt>
      <trkpt lat="43.44175" lon="6.64098">
        <ele>45.799999237061</ele>
        <time>2019-05-30T12:27:38.000Z</time>
      </trkpt>
      <trkpt lat="43.44171" lon="6.64107">
        <ele>46.799999237061</ele>
        <time>2019-05-30T12:27:41.000Z</time>
      </trkpt>
      <trkpt lat="43.44167" lon="6.64115">
        <ele>48</ele>
        <time>2019-05-30T12:27:44.000Z</time>
      </trkpt>
      <trkpt lat="43.44165" lon="6.64121">
        <ele>48.400001525879</ele>
        <time>2019-05-30T12:27:46.000Z</time>
      </trkpt>
      <trkpt lat="43.44159" lon="6.64133">
        <ele>49.200000762939</ele>
        <time>2019-05-30T12:27:51.000Z</time>
      </trkpt>
      <trkpt lat="43.44157" lon="6.64142">
        <ele>49.799999237061</ele>
        <time>2019-05-30T12:27:54.000Z</time>
      </trkpt>
      <trkpt lat="43.44155" lon="6.64147">
        <ele>50.599998474121</ele>
        <time>2019-05-30T12:27:56.000Z</time>
      </trkpt>
      <trkpt lat="43.44153" lon="6.64153">
        <ele>51.599998474121</ele>
        <time>2019-05-30T12:27:58.000Z</time>
      </trkpt>
      <trkpt lat="43.44148" lon="6.64168">
        <ele>52.599998474121</ele>
        <time>2019-05-30T12:28:03.000Z</time>
      </trkpt>
      <trkpt lat="43.44146" lon="6.64174">
        <ele>52.799999237061</ele>
        <time>2019-05-30T12:28:05.000Z</time>
      </trkpt>
      <trkpt lat="43.44137" lon="6.642">
        <ele>53.599998474121</ele>
        <time>2019-05-30T12:28:13.000Z</time>
      </trkpt>
      <trkpt lat="43.44135" lon="6.64207">
        <ele>54</ele>
        <time>2019-05-30T12:28:15.000Z</time>
      </trkpt>
      <trkpt lat="43.44132" lon="6.6423">
        <ele>53.799999237061</ele>
        <time>2019-05-30T12:28:20.000Z</time>
      </trkpt>
      <trkpt lat="43.44132" lon="6.64236">
        <ele>53.799999237061</ele>
        <time>2019-05-30T12:28:21.000Z</time>
      </trkpt>
      <trkpt lat="43.44138" lon="6.6426">
        <ele>53</ele>
        <time>2019-05-30T12:28:25.000Z</time>
      </trkpt>
      <trkpt lat="43.44134" lon="6.64276">
        <ele>51.599998474121</ele>
        <time>2019-05-30T12:28:28.000Z</time>
      </trkpt>
      <trkpt lat="43.44125" lon="6.64277">
        <ele>51.400001525879</ele>
        <time>2019-05-30T12:28:31.000Z</time>
      </trkpt>
      <trkpt lat="43.44123" lon="6.64268">
        <ele>51.799999237061</ele>
        <time>2019-05-30T12:28:33.000Z</time>
      </trkpt>
      <trkpt lat="43.44121" lon="6.64259">
        <ele>52.400001525879</ele>
        <time>2019-05-30T12:28:35.000Z</time>
      </trkpt>
      <trkpt lat="43.44118" lon="6.64249">
        <ele>52.599998474121</ele>
        <time>2019-05-30T12:28:37.000Z</time>
      </trkpt>
      <trkpt lat="43.44108" lon="6.64226">
        <ele>53.200000762939</ele>
        <time>2019-05-30T12:28:42.000Z</time>
      </trkpt>
      <trkpt lat="43.44088" lon="6.64199">
        <ele>53.599998474121</ele>
        <time>2019-05-30T12:28:50.000Z</time>
      </trkpt>
      <trkpt lat="43.44085" lon="6.64197">
        <ele>53.799999237061</ele>
        <time>2019-05-30T12:28:51.000Z</time>
      </trkpt>
      <trkpt lat="43.44071" lon="6.64189">
        <ele>54.799999237061</ele>
        <time>2019-05-30T12:28:56.000Z</time>
      </trkpt>
      <trkpt lat="43.4406" lon="6.64184">
        <ele>55.400001525879</ele>
        <time>2019-05-30T12:29:00.000Z</time>
      </trkpt>
      <trkpt lat="43.44044" lon="6.64182">
        <ele>55.799999237061</ele>
        <time>2019-05-30T12:29:06.000Z</time>
      </trkpt>
      <trkpt lat="43.44035" lon="6.64181">
        <ele>57</ele>
        <time>2019-05-30T12:29:09.000Z</time>
      </trkpt>
      <trkpt lat="43.44032" lon="6.64181">
        <ele>57</ele>
        <time>2019-05-30T12:29:10.000Z</time>
      </trkpt>
      <trkpt lat="43.44024" lon="6.64184">
        <ele>57</ele>
        <time>2019-05-30T12:29:13.000Z</time>
      </trkpt>
      <trkpt lat="43.44023" lon="6.64187">
        <ele>57.200000762939</ele>
        <time>2019-05-30T12:29:14.000Z</time>
      </trkpt>
      <trkpt lat="43.44018" lon="6.64208">
        <ele>58</ele>
        <time>2019-05-30T12:29:20.000Z</time>
      </trkpt>
      <trkpt lat="43.44017" lon="6.64211">
        <ele>58.200000762939</ele>
        <time>2019-05-30T12:29:21.000Z</time>
      </trkpt>
      <trkpt lat="43.44014" lon="6.6422">
        <ele>59.400001525879</ele>
        <time>2019-05-30T12:29:25.000Z</time>
      </trkpt>
      <trkpt lat="43.44013" lon="6.64224">
        <ele>59.799999237061</ele>
        <time>2019-05-30T12:29:27.000Z</time>
      </trkpt>
      <trkpt lat="43.44011" lon="6.64232">
        <ele>60.400001525879</ele>
        <time>2019-05-30T12:29:31.000Z</time>
      </trkpt>
      <trkpt lat="43.44012" lon="6.64234">
        <ele>60.599998474121</ele>
        <time>2019-05-30T12:29:33.000Z</time>
      </trkpt>
      <trkpt lat="43.44013" lon="6.64234">
        <ele>61.200000762939</ele>
        <time>2019-05-30T12:29:39.000Z</time>
      </trkpt>
      <trkpt lat="43.44013" lon="6.64234">
        <ele>61.400001525879</ele>
        <time>2019-05-30T12:29:41.000Z</time>
      </trkpt>
      <trkpt lat="43.44014" lon="6.64234">
        <ele>61.400001525879</ele>
        <time>2019-05-30T12:29:45.000Z</time>
      </trkpt>
      <trkpt lat="43.44019" lon="6.64235">
        <ele>61.599998474121</ele>
        <time>2019-05-30T12:29:52.000Z</time>
      </trkpt>
      <trkpt lat="43.44022" lon="6.64237">
        <ele>61.799999237061</ele>
        <time>2019-05-30T12:29:58.000Z</time>
      </trkpt>
      <trkpt lat="43.44022" lon="6.64238">
        <ele>61.799999237061</ele>
        <time>2019-05-30T12:29:59.000Z</time>
      </trkpt>
      <trkpt lat="43.44023" lon="6.6424">
        <ele>61.599998474121</ele>
        <time>2019-05-30T12:30:03.000Z</time>
      </trkpt>
      <trkpt lat="43.44025" lon="6.64243">
        <ele>62.400001525879</ele>
        <time>2019-05-30T12:30:08.000Z</time>
      </trkpt>
      <trkpt lat="43.44024" lon="6.64245">
        <ele>63.200000762939</ele>
        <time>2019-05-30T12:30:11.000Z</time>
      </trkpt>
      <trkpt lat="43.44023" lon="6.64246">
        <ele>63.599998474121</ele>
        <time>2019-05-30T12:30:13.000Z</time>
      </trkpt>
      <trkpt lat="43.44023" lon="6.64251">
        <ele>64.599998474121</ele>
        <time>2019-05-30T12:30:18.000Z</time>
      </trkpt>
      <trkpt lat="43.44023" lon="6.64252">
        <ele>64.800003051758</ele>
        <time>2019-05-30T12:30:19.000Z</time>
      </trkpt>
      <trkpt lat="43.44023" lon="6.64254">
        <ele>64.800003051758</ele>
        <time>2019-05-30T12:30:20.000Z</time>
      </trkpt>
      <trkpt lat="43.44023" lon="6.64254">
        <ele>64.599998474121</ele>
        <time>2019-05-30T12:30:24.000Z</time>
      </trkpt>
      <trkpt lat="43.44022" lon="6.64251">
        <ele>64.800003051758</ele>
        <time>2019-05-30T12:30:28.000Z</time>
      </trkpt>
      <trkpt lat="43.44021" lon="6.64251">
        <ele>64.599998474121</ele>
        <time>2019-05-30T12:30:29.000Z</time>
      </trkpt>
      <trkpt lat="43.44018" lon="6.64249">
        <ele>64.400001525879</ele>
        <time>2019-05-30T12:30:32.000Z</time>
      </trkpt>
      <trkpt lat="43.44017" lon="6.64249">
        <ele>64.400001525879</ele>
        <time>2019-05-30T12:30:35.000Z</time>
      </trkpt>
      <trkpt lat="43.44016" lon="6.64249">
        <ele>64.199996948242</ele>
        <time>2019-05-30T12:30:44.000Z</time>
      </trkpt>
      <trkpt lat="43.44016" lon="6.64249">
        <ele>64.400001525879</ele>
        <time>2019-05-30T12:30:52.000Z</time>
      </trkpt>
      <trkpt lat="43.44016" lon="6.6425">
        <ele>65</ele>
        <time>2019-05-30T12:31:03.000Z</time>
      </trkpt>
      <trkpt lat="43.44016" lon="6.6425">
        <ele>64.800003051758</ele>
        <time>2019-05-30T12:31:11.000Z</time>
      </trkpt>
      <trkpt lat="43.44016" lon="6.64251">
        <ele>64.400001525879</ele>
        <time>2019-05-30T12:31:21.000Z</time>
      </trkpt>
      <trkpt lat="43.44017" lon="6.64253">
        <ele>64.199996948242</ele>
        <time>2019-05-30T12:31:30.000Z</time>
      </trkpt>
      <trkpt lat="43.44017" lon="6.64255">
        <ele>64</ele>
        <time>2019-05-30T12:31:36.000Z</time>
      </trkpt>
      <trkpt lat="43.44016" lon="6.64254">
        <ele>64.599998474121</ele>
        <time>2019-05-30T12:31:44.000Z</time>
      </trkpt>
      <trkpt lat="43.44016" lon="6.64254">
        <ele>64.599998474121</ele>
        <time>2019-05-30T12:31:51.000Z</time>
      </trkpt>
      <trkpt lat="43.44018" lon="6.64257">
        <ele>64.400001525879</ele>
        <time>2019-05-30T12:31:56.000Z</time>
      </trkpt>
      <trkpt lat="43.44018" lon="6.64258">
        <ele>64.199996948242</ele>
        <time>2019-05-30T12:31:58.000Z</time>
      </trkpt>
      <trkpt lat="43.44017" lon="6.64264">
        <ele>64.599998474121</ele>
        <time>2019-05-30T12:32:05.000Z</time>
      </trkpt>
      <trkpt lat="43.44016" lon="6.64264">
        <ele>64.400001525879</ele>
        <time>2019-05-30T12:32:12.000Z</time>
      </trkpt>
      <trkpt lat="43.44017" lon="6.64264">
        <ele>64.400001525879</ele>
        <time>2019-05-30T12:32:22.000Z</time>
      </trkpt>
      <trkpt lat="43.44016" lon="6.64265">
        <ele>64.599998474121</ele>
        <time>2019-05-30T12:32:32.000Z</time>
      </trkpt>
      <trkpt lat="43.44016" lon="6.64266">
        <ele>64.199996948242</ele>
        <time>2019-05-30T12:32:38.000Z</time>
      </trkpt>
      <trkpt lat="43.44016" lon="6.64266">
        <ele>64</ele>
        <time>2019-05-30T12:32:51.000Z</time>
      </trkpt>
      <trkpt lat="43.44016" lon="6.64266">
        <ele>63.799999237061</ele>
        <time>2019-05-30T12:33:01.000Z</time>
      </trkpt>
      <trkpt lat="43.44016" lon="6.64266">
        <ele>63.599998474121</ele>
        <time>2019-05-30T12:33:03.000Z</time>
      </trkpt>
      <trkpt lat="43.44016" lon="6.64267">
        <ele>64.199996948242</ele>
        <time>2019-05-30T12:33:16.000Z</time>
      </trkpt>
      <trkpt lat="43.44015" lon="6.64267">
        <ele>63.799999237061</ele>
        <time>2019-05-30T12:33:30.000Z</time>
      </trkpt>
      <trkpt lat="43.44015" lon="6.64268">
        <ele>64</ele>
        <time>2019-05-30T12:33:42.000Z</time>
      </trkpt>
      <trkpt lat="43.44015" lon="6.64268">
        <ele>64.199996948242</ele>
        <time>2019-05-30T12:33:53.000Z</time>
      </trkpt>
      <trkpt lat="43.44015" lon="6.64268">
        <ele>62.400001525879</ele>
        <time>2019-05-30T12:34:00.000Z</time>
      </trkpt>
      <trkpt lat="43.44015" lon="6.64268">
        <ele>61</ele>
        <time>2019-05-30T12:34:01.000Z</time>
      </trkpt>
      <trkpt lat="43.44015" lon="6.64268">
        <ele>59.400001525879</ele>
        <time>2019-05-30T12:34:03.000Z</time>
      </trkpt>
      <trkpt lat="43.44015" lon="6.64267">
        <ele>62</ele>
        <time>2019-05-30T12:34:06.000Z</time>
      </trkpt>
      <trkpt lat="43.44015" lon="6.64267">
        <ele>60.599998474121</ele>
        <time>2019-05-30T12:34:07.000Z</time>
      </trkpt>
      <trkpt lat="43.44015" lon="6.64267">
        <ele>58.799999237061</ele>
        <time>2019-05-30T12:34:11.000Z</time>
      </trkpt>
      <trkpt lat="43.44015" lon="6.64267">
        <ele>60.200000762939</ele>
        <time>2019-05-30T12:34:12.000Z</time>
      </trkpt>
      <trkpt lat="43.44015" lon="6.64267">
        <ele>62</ele>
        <time>2019-05-30T12:34:13.000Z</time>
      </trkpt>
      <trkpt lat="43.44015" lon="6.64267">
        <ele>63.799999237061</ele>
        <time>2019-05-30T12:34:15.000Z</time>
      </trkpt>
      <trkpt lat="43.44015" lon="6.64267">
        <ele>63.799999237061</ele>
        <time>2019-05-30T12:34:21.000Z</time>
      </trkpt>
      <trkpt lat="43.44014" lon="6.64268">
        <ele>63.599998474121</ele>
        <time>2019-05-30T12:34:33.000Z</time>
      </trkpt>
      <trkpt lat="43.44014" lon="6.64267">
        <ele>60.599998474121</ele>
        <time>2019-05-30T12:34:49.000Z</time>
      </trkpt>
      <trkpt lat="43.44014" lon="6.64267">
        <ele>58.799999237061</ele>
        <time>2019-05-30T12:34:50.000Z</time>
      </trkpt>
      <trkpt lat="43.44014" lon="6.64267">
        <ele>53.200000762939</ele>
        <time>2019-05-30T12:34:51.000Z</time>
      </trkpt>
      <trkpt lat="43.44014" lon="6.64267">
        <ele>49.799999237061</ele>
        <time>2019-05-30T12:34:52.000Z</time>
      </trkpt>
      <trkpt lat="43.44014" lon="6.64267">
        <ele>41</ele>
        <time>2019-05-30T12:34:53.000Z</time>
      </trkpt>
      <trkpt lat="43.44013" lon="6.64267">
        <ele>30.60000038147</ele>
        <time>2019-05-30T12:34:54.000Z</time>
      </trkpt>
      <trkpt lat="43.44013" lon="6.64267">
        <ele>25.39999961853</ele>
        <time>2019-05-30T12:34:55.000Z</time>
      </trkpt>
      <trkpt lat="43.44013" lon="6.64267">
        <ele>22</ele>
        <time>2019-05-30T12:34:56.000Z</time>
      </trkpt>
      <trkpt lat="43.44013" lon="6.64267">
        <ele>13.60000038147</ele>
        <time>2019-05-30T12:34:57.000Z</time>
      </trkpt>
      <trkpt lat="43.44014" lon="6.64267">
        <ele>11.800000190735</ele>
        <time>2019-05-30T12:35:01.000Z</time>
      </trkpt>
      <trkpt lat="43.44014" lon="6.64266">
        <ele>11.39999961853</ele>
        <time>2019-05-30T12:35:02.000Z</time>
      </trkpt>
      <trkpt lat="43.44014" lon="6.64266">
        <ele>10.39999961853</ele>
        <time>2019-05-30T12:35:03.000Z</time>
      </trkpt>
      <trkpt lat="43.44014" lon="6.64266">
        <ele>11</ele>
        <time>2019-05-30T12:35:14.000Z</time>
      </trkpt>
      <trkpt lat="43.44014" lon="6.64266">
        <ele>10.60000038147</ele>
        <time>2019-05-30T12:35:23.000Z</time>
      </trkpt>
      <trkpt lat="43.44014" lon="6.64267">
        <ele>10.199999809265</ele>
        <time>2019-05-30T12:35:30.000Z</time>
      </trkpt>
      <trkpt lat="43.44013" lon="6.64267">
        <ele>9.1999998092651</ele>
        <time>2019-05-30T12:35:36.000Z</time>
      </trkpt>
      <trkpt lat="43.44014" lon="6.64267">
        <ele>8.8000001907349</ele>
        <time>2019-05-30T12:35:39.000Z</time>
      </trkpt>
      <trkpt lat="43.44014" lon="6.64267">
        <ele>8.1999998092651</ele>
        <time>2019-05-30T12:35:43.000Z</time>
      </trkpt>
      <trkpt lat="43.44014" lon="6.64267">
        <ele>8.6000003814697</ele>
        <time>2019-05-30T12:35:49.000Z</time>
      </trkpt>
      <trkpt lat="43.44014" lon="6.64266">
        <ele>9.6000003814697</ele>
        <time>2019-05-30T12:35:51.000Z</time>
      </trkpt>
      <trkpt lat="43.44014" lon="6.64267">
        <ele>10.800000190735</ele>
        <time>2019-05-30T12:35:53.000Z</time>
      </trkpt>
      <trkpt lat="43.44014" lon="6.64267">
        <ele>11.199999809265</ele>
        <time>2019-05-30T12:35:54.000Z</time>
      </trkpt>
      <trkpt lat="43.44013" lon="6.64267">
        <ele>8.8000001907349</ele>
        <time>2019-05-30T12:35:58.000Z</time>
      </trkpt>
      <trkpt lat="43.44013" lon="6.64267">
        <ele>6.4000000953674</ele>
        <time>2019-05-30T12:35:59.000Z</time>
      </trkpt>
      <trkpt lat="43.44013" lon="6.64267">
        <ele>7.5999999046326</ele>
        <time>2019-05-30T12:36:00.000Z</time>
      </trkpt>
      <trkpt lat="43.44013" lon="6.64267">
        <ele>7.4000000953674</ele>
        <time>2019-05-30T12:36:09.000Z</time>
      </trkpt>
      <trkpt lat="43.44013" lon="6.64268">
        <ele>8.8000001907349</ele>
        <time>2019-05-30T12:36:22.000Z</time>
      </trkpt>
      <trkpt lat="43.44013" lon="6.64268">
        <ele>8.8000001907349</ele>
        <time>2019-05-30T12:36:23.000Z</time>
      </trkpt>
      <trkpt lat="43.44014" lon="6.64267">
        <ele>9.8000001907349</ele>
        <time>2019-05-30T12:36:29.000Z</time>
      </trkpt>
      <trkpt lat="43.44014" lon="6.64267">
        <ele>10.800000190735</ele>
        <time>2019-05-30T12:36:34.000Z</time>
      </trkpt>
      <trkpt lat="43.44013" lon="6.64267">
        <ele>12.199999809265</ele>
        <time>2019-05-30T12:36:45.000Z</time>
      </trkpt>
      <trkpt lat="43.44013" lon="6.64267">
        <ele>13.800000190735</ele>
        <time>2019-05-30T12:36:46.000Z</time>
      </trkpt>
      <trkpt lat="43.44013" lon="6.64267">
        <ele>15.60000038147</ele>
        <time>2019-05-30T12:36:47.000Z</time>
      </trkpt>
      <trkpt lat="43.44013" lon="6.64268">
        <ele>17.799999237061</ele>
        <time>2019-05-30T12:36:48.000Z</time>
      </trkpt>
      <trkpt lat="43.44013" lon="6.64268">
        <ele>18.799999237061</ele>
        <time>2019-05-30T12:36:50.000Z</time>
      </trkpt>
      <trkpt lat="43.44014" lon="6.64267">
        <ele>19.39999961853</ele>
        <time>2019-05-30T12:36:52.000Z</time>
      </trkpt>
      <trkpt lat="43.44014" lon="6.64267">
        <ele>20</ele>
        <time>2019-05-30T12:36:54.000Z</time>
      </trkpt>
      <trkpt lat="43.44014" lon="6.64267">
        <ele>21.200000762939</ele>
        <time>2019-05-30T12:36:57.000Z</time>
      </trkpt>
      <trkpt lat="43.44014" lon="6.64267">
        <ele>22.39999961853</ele>
        <time>2019-05-30T12:37:00.000Z</time>
      </trkpt>
      <trkpt lat="43.44014" lon="6.64267">
        <ele>23.39999961853</ele>
        <time>2019-05-30T12:37:03.000Z</time>
      </trkpt>
      <trkpt lat="43.44014" lon="6.64267">
        <ele>24.60000038147</ele>
        <time>2019-05-30T12:37:06.000Z</time>
      </trkpt>
      <trkpt lat="43.44014" lon="6.64267">
        <ele>25.799999237061</ele>
        <time>2019-05-30T12:37:09.000Z</time>
      </trkpt>
      <trkpt lat="43.44014" lon="6.64267">
        <ele>26.200000762939</ele>
        <time>2019-05-30T12:37:10.000Z</time>
      </trkpt>
      <trkpt lat="43.44014" lon="6.64268">
        <ele>27</ele>
        <time>2019-05-30T12:37:12.000Z</time>
      </trkpt>
      <trkpt lat="43.44014" lon="6.64268">
        <ele>28.799999237061</ele>
        <time>2019-05-30T12:37:15.000Z</time>
      </trkpt>
      <trkpt lat="43.44014" lon="6.64268">
        <ele>29.799999237061</ele>
        <time>2019-05-30T12:37:17.000Z</time>
      </trkpt>
      <trkpt lat="43.44014" lon="6.64268">
        <ele>30.799999237061</ele>
        <time>2019-05-30T12:37:21.000Z</time>
      </trkpt>
      <trkpt lat="43.44014" lon="6.64268">
        <ele>31.799999237061</ele>
        <time>2019-05-30T12:37:23.000Z</time>
      </trkpt>
      <trkpt lat="43.44015" lon="6.64268">
        <ele>32.200000762939</ele>
        <time>2019-05-30T12:37:24.000Z</time>
      </trkpt>
      <trkpt lat="43.44015" lon="6.64267">
        <ele>33.400001525879</ele>
        <time>2019-05-30T12:37:27.000Z</time>
      </trkpt>
      <trkpt lat="43.44015" lon="6.64267">
        <ele>34.599998474121</ele>
        <time>2019-05-30T12:37:30.000Z</time>
      </trkpt>
      <trkpt lat="43.44015" lon="6.64267">
        <ele>36</ele>
        <time>2019-05-30T12:37:33.000Z</time>
      </trkpt>
      <trkpt lat="43.44015" lon="6.64267">
        <ele>37</ele>
        <time>2019-05-30T12:37:36.000Z</time>
      </trkpt>
      <trkpt lat="43.44015" lon="6.64267">
        <ele>38.200000762939</ele>
        <time>2019-05-30T12:37:39.000Z</time>
      </trkpt>
      <trkpt lat="43.44015" lon="6.64267">
        <ele>39.400001525879</ele>
        <time>2019-05-30T12:37:42.000Z</time>
      </trkpt>
      <trkpt lat="43.44015" lon="6.64267">
        <ele>40.799999237061</ele>
        <time>2019-05-30T12:37:45.000Z</time>
      </trkpt>
      <trkpt lat="43.44014" lon="6.64267">
        <ele>42</ele>
        <time>2019-05-30T12:37:48.000Z</time>
      </trkpt>
      <trkpt lat="43.44014" lon="6.64267">
        <ele>43.400001525879</ele>
        <time>2019-05-30T12:37:51.000Z</time>
      </trkpt>
      <trkpt lat="43.44014" lon="6.64268">
        <ele>44.599998474121</ele>
        <time>2019-05-30T12:37:54.000Z</time>
      </trkpt>
      <trkpt lat="43.44014" lon="6.64268">
        <ele>46</ele>
        <time>2019-05-30T12:37:57.000Z</time>
      </trkpt>
      <trkpt lat="43.44014" lon="6.64268">
        <ele>47</ele>
        <time>2019-05-30T12:38:00.000Z</time>
      </trkpt>
      <trkpt lat="43.44014" lon="6.64268">
        <ele>48.200000762939</ele>
        <time>2019-05-30T12:38:03.000Z</time>
      </trkpt>
      <trkpt lat="43.44014" lon="6.64267">
        <ele>49.400001525879</ele>
        <time>2019-05-30T12:38:06.000Z</time>
      </trkpt>
      <trkpt lat="43.44014" lon="6.64268">
        <ele>50.400001525879</ele>
        <time>2019-05-30T12:38:08.000Z</time>
      </trkpt>
      <trkpt lat="43.44014" lon="6.64268">
        <ele>50.799999237061</ele>
        <time>2019-05-30T12:38:09.000Z</time>
      </trkpt>
      <trkpt lat="43.44014" lon="6.64268">
        <ele>46.200000762939</ele>
        <time>2019-05-30T12:38:13.000Z</time>
      </trkpt>
      <trkpt lat="43.44014" lon="6.64268">
        <ele>42.599998474121</ele>
        <time>2019-05-30T12:38:14.000Z</time>
      </trkpt>
      <trkpt lat="43.44014" lon="6.64268">
        <ele>40.599998474121</ele>
        <time>2019-05-30T12:38:15.000Z</time>
      </trkpt>
      <trkpt lat="43.44014" lon="6.64267">
        <ele>43.200000762939</ele>
        <time>2019-05-30T12:38:18.000Z</time>
      </trkpt>
      <trkpt lat="43.44014" lon="6.64267">
        <ele>46.200000762939</ele>
        <time>2019-05-30T12:38:19.000Z</time>
      </trkpt>
      <trkpt lat="43.44014" lon="6.64267">
        <ele>47.799999237061</ele>
        <time>2019-05-30T12:38:20.000Z</time>
      </trkpt>
      <trkpt lat="43.44014" lon="6.64267">
        <ele>47</ele>
        <time>2019-05-30T12:38:23.000Z</time>
      </trkpt>
      <trkpt lat="43.44014" lon="6.64267">
        <ele>46.599998474121</ele>
        <time>2019-05-30T12:38:24.000Z</time>
      </trkpt>
      <trkpt lat="43.44014" lon="6.64267">
        <ele>47.599998474121</ele>
        <time>2019-05-30T12:38:27.000Z</time>
      </trkpt>
      <trkpt lat="43.44014" lon="6.64267">
        <ele>52.599998474121</ele>
        <time>2019-05-30T12:38:33.000Z</time>
      </trkpt>
      <trkpt lat="43.44014" lon="6.64267">
        <ele>56</ele>
        <time>2019-05-30T12:38:34.000Z</time>
      </trkpt>
      <trkpt lat="43.44014" lon="6.64267">
        <ele>59.799999237061</ele>
        <time>2019-05-30T12:38:35.000Z</time>
      </trkpt>
      <trkpt lat="43.44014" lon="6.64267">
        <ele>62.200000762939</ele>
        <time>2019-05-30T12:38:36.000Z</time>
      </trkpt>
      <trkpt lat="43.44014" lon="6.64267">
        <ele>64.400001525879</ele>
        <time>2019-05-30T12:38:37.000Z</time>
      </trkpt>
      <trkpt lat="43.44014" lon="6.64267">
        <ele>66</ele>
        <time>2019-05-30T12:38:38.000Z</time>
      </trkpt>
      <trkpt lat="43.44014" lon="6.64267">
        <ele>63.200000762939</ele>
        <time>2019-05-30T12:38:39.000Z</time>
      </trkpt>
      <trkpt lat="43.44014" lon="6.64267">
        <ele>61.400001525879</ele>
        <time>2019-05-30T12:38:42.000Z</time>
      </trkpt>
      <trkpt lat="43.44014" lon="6.64267">
        <ele>57.599998474121</ele>
        <time>2019-05-30T12:38:43.000Z</time>
      </trkpt>
      <trkpt lat="43.44014" lon="6.64267">
        <ele>52.799999237061</ele>
        <time>2019-05-30T12:38:44.000Z</time>
      </trkpt>
      <trkpt lat="43.44014" lon="6.64267">
        <ele>49.599998474121</ele>
        <time>2019-05-30T12:38:45.000Z</time>
      </trkpt>
      <trkpt lat="43.44014" lon="6.64267">
        <ele>47.200000762939</ele>
        <time>2019-05-30T12:38:46.000Z</time>
      </trkpt>
      <trkpt lat="43.44014" lon="6.64267">
        <ele>48.400001525879</ele>
        <time>2019-05-30T12:38:49.000Z</time>
      </trkpt>
      <trkpt lat="43.44015" lon="6.64266">
        <ele>50</ele>
        <time>2019-05-30T12:38:56.000Z</time>
      </trkpt>
      <trkpt lat="43.44015" lon="6.64266">
        <ele>47.400001525879</ele>
        <time>2019-05-30T12:39:00.000Z</time>
      </trkpt>
      <trkpt lat="43.44015" lon="6.64266">
        <ele>46.200000762939</ele>
        <time>2019-05-30T12:39:01.000Z</time>
      </trkpt>
      <trkpt lat="43.44016" lon="6.64266">
        <ele>45.200000762939</ele>
        <time>2019-05-30T12:39:02.000Z</time>
      </trkpt>
      <trkpt lat="43.44016" lon="6.64266">
        <ele>43.799999237061</ele>
        <time>2019-05-30T12:39:04.000Z</time>
      </trkpt>
      <trkpt lat="43.44015" lon="6.64265">
        <ele>43.400001525879</ele>
        <time>2019-05-30T12:39:13.000Z</time>
      </trkpt>
      <trkpt lat="43.44015" lon="6.64266">
        <ele>45.200000762939</ele>
        <time>2019-05-30T12:39:14.000Z</time>
      </trkpt>
      <trkpt lat="43.44015" lon="6.64266">
        <ele>45.200000762939</ele>
        <time>2019-05-30T12:39:19.000Z</time>
      </trkpt>
      <trkpt lat="43.44015" lon="6.64265">
        <ele>46.200000762939</ele>
        <time>2019-05-30T12:39:28.000Z</time>
      </trkpt>
      <trkpt lat="43.44015" lon="6.64266">
        <ele>46.599998474121</ele>
        <time>2019-05-30T12:39:44.000Z</time>
      </trkpt>
      <trkpt lat="43.44015" lon="6.64265">
        <ele>47.200000762939</ele>
        <time>2019-05-30T12:39:50.000Z</time>
      </trkpt>
      <trkpt lat="43.44015" lon="6.64266">
        <ele>45.799999237061</ele>
        <time>2019-05-30T12:40:01.000Z</time>
      </trkpt>
      <trkpt lat="43.44015" lon="6.64266">
        <ele>45.200000762939</ele>
        <time>2019-05-30T12:40:02.000Z</time>
      </trkpt>
      <trkpt lat="43.44014" lon="6.64266">
        <ele>43.200000762939</ele>
        <time>2019-05-30T12:40:04.000Z</time>
      </trkpt>
      <trkpt lat="43.44014" lon="6.64266">
        <ele>42.200000762939</ele>
        <time>2019-05-30T12:40:07.000Z</time>
      </trkpt>
      <trkpt lat="43.44014" lon="6.64266">
        <ele>41.200000762939</ele>
        <time>2019-05-30T12:40:09.000Z</time>
      </trkpt>
      <trkpt lat="43.44014" lon="6.64266">
        <ele>42.599998474121</ele>
        <time>2019-05-30T12:40:10.000Z</time>
      </trkpt>
      <trkpt lat="43.44014" lon="6.64266">
        <ele>44.200000762939</ele>
        <time>2019-05-30T12:40:11.000Z</time>
      </trkpt>
      <trkpt lat="43.44015" lon="6.64266">
        <ele>47.599998474121</ele>
        <time>2019-05-30T12:40:12.000Z</time>
      </trkpt>
      <trkpt lat="43.44015" lon="6.64266">
        <ele>53.599998474121</ele>
        <time>2019-05-30T12:40:13.000Z</time>
      </trkpt>
      <trkpt lat="43.44015" lon="6.64266">
        <ele>58.200000762939</ele>
        <time>2019-05-30T12:40:14.000Z</time>
      </trkpt>
      <trkpt lat="43.44015" lon="6.64266">
        <ele>60.799999237061</ele>
        <time>2019-05-30T12:40:15.000Z</time>
      </trkpt>
      <trkpt lat="43.44015" lon="6.64266">
        <ele>63.599998474121</ele>
        <time>2019-05-30T12:40:16.000Z</time>
      </trkpt>
      <trkpt lat="43.44015" lon="6.64267">
        <ele>63</ele>
        <time>2019-05-30T12:40:24.000Z</time>
      </trkpt>
      <trkpt lat="43.44015" lon="6.64267">
        <ele>61.799999237061</ele>
        <time>2019-05-30T12:40:25.000Z</time>
      </trkpt>
      <trkpt lat="43.44015" lon="6.64267">
        <ele>60.599998474121</ele>
        <time>2019-05-30T12:40:26.000Z</time>
      </trkpt>
      <trkpt lat="43.44014" lon="6.64263">
        <ele>60.799999237061</ele>
        <time>2019-05-30T12:40:33.000Z</time>
      </trkpt>
      <trkpt lat="43.44014" lon="6.6426">
        <ele>60.799999237061</ele>
        <time>2019-05-30T12:40:38.000Z</time>
      </trkpt>
      <trkpt lat="43.44014" lon="6.64259">
        <ele>59.799999237061</ele>
        <time>2019-05-30T12:40:45.000Z</time>
      </trkpt>
      <trkpt lat="43.44014" lon="6.64259">
        <ele>59.400001525879</ele>
        <time>2019-05-30T12:40:49.000Z</time>
      </trkpt>
      <trkpt lat="43.44013" lon="6.64258">
        <ele>59.799999237061</ele>
        <time>2019-05-30T12:40:53.000Z</time>
      </trkpt>
      <trkpt lat="43.44013" lon="6.6426">
        <ele>58.799999237061</ele>
        <time>2019-05-30T12:41:02.000Z</time>
      </trkpt>
      <trkpt lat="43.44014" lon="6.64261">
        <ele>58.400001525879</ele>
        <time>2019-05-30T12:41:05.000Z</time>
      </trkpt>
      <trkpt lat="43.44015" lon="6.64262">
        <ele>58.200000762939</ele>
        <time>2019-05-30T12:41:08.000Z</time>
      </trkpt>
      <trkpt lat="43.44015" lon="6.64266">
        <ele>58.799999237061</ele>
        <time>2019-05-30T12:41:12.000Z</time>
      </trkpt>
      <trkpt lat="43.44015" lon="6.64265">
        <ele>59</ele>
        <time>2019-05-30T12:41:13.000Z</time>
      </trkpt>
      <trkpt lat="43.44015" lon="6.64266">
        <ele>59.400001525879</ele>
        <time>2019-05-30T12:41:15.000Z</time>
      </trkpt>
      <trkpt lat="43.44015" lon="6.64267">
        <ele>59.599998474121</ele>
        <time>2019-05-30T12:41:19.000Z</time>
      </trkpt>
      <trkpt lat="43.44015" lon="6.64266">
        <ele>60.400001525879</ele>
        <time>2019-05-30T12:41:24.000Z</time>
      </trkpt>
      <trkpt lat="43.44016" lon="6.64266">
        <ele>61.200000762939</ele>
        <time>2019-05-30T12:41:28.000Z</time>
      </trkpt>
      <trkpt lat="43.44017" lon="6.64266">
        <ele>59.200000762939</ele>
        <time>2019-05-30T12:41:33.000Z</time>
      </trkpt>
      <trkpt lat="43.44017" lon="6.64267">
        <ele>57.400001525879</ele>
        <time>2019-05-30T12:41:35.000Z</time>
      </trkpt>
      <trkpt lat="43.44017" lon="6.64267">
        <ele>57.200000762939</ele>
        <time>2019-05-30T12:41:36.000Z</time>
      </trkpt>
      <trkpt lat="43.44016" lon="6.64267">
        <ele>55.599998474121</ele>
        <time>2019-05-30T12:41:38.000Z</time>
      </trkpt>
      <trkpt lat="43.44016" lon="6.64266">
        <ele>54.200000762939</ele>
        <time>2019-05-30T12:41:39.000Z</time>
      </trkpt>
      <trkpt lat="43.44016" lon="6.64266">
        <ele>53</ele>
        <time>2019-05-30T12:41:40.000Z</time>
      </trkpt>
      <trkpt lat="43.44017" lon="6.64266">
        <ele>51.599998474121</ele>
        <time>2019-05-30T12:41:41.000Z</time>
      </trkpt>
      <trkpt lat="43.44017" lon="6.64266">
        <ele>49.400001525879</ele>
        <time>2019-05-30T12:41:42.000Z</time>
      </trkpt>
      <trkpt lat="43.44017" lon="6.64266">
        <ele>48.400001525879</ele>
        <time>2019-05-30T12:41:43.000Z</time>
      </trkpt>
      <trkpt lat="43.44017" lon="6.64266">
        <ele>45.400001525879</ele>
        <time>2019-05-30T12:41:44.000Z</time>
      </trkpt>
      <trkpt lat="43.44017" lon="6.64266">
        <ele>47.599998474121</ele>
        <time>2019-05-30T12:41:46.000Z</time>
      </trkpt>
      <trkpt lat="43.44017" lon="6.64266">
        <ele>51</ele>
        <time>2019-05-30T12:41:47.000Z</time>
      </trkpt>
      <trkpt lat="43.44017" lon="6.64266">
        <ele>54</ele>
        <time>2019-05-30T12:41:48.000Z</time>
      </trkpt>
      <trkpt lat="43.44017" lon="6.64266">
        <ele>62</ele>
        <time>2019-05-30T12:41:49.000Z</time>
      </trkpt>
      <trkpt lat="43.44017" lon="6.64266">
        <ele>56</ele>
        <time>2019-05-30T12:41:50.000Z</time>
      </trkpt>
      <trkpt lat="43.44017" lon="6.64264">
        <ele>57</ele>
        <time>2019-05-30T12:41:55.000Z</time>
      </trkpt>
      <trkpt lat="43.44017" lon="6.64265">
        <ele>57.200000762939</ele>
        <time>2019-05-30T12:41:56.000Z</time>
      </trkpt>
      <trkpt lat="43.4402" lon="6.64262">
        <ele>57.599998474121</ele>
        <time>2019-05-30T12:42:00.000Z</time>
      </trkpt>
      <trkpt lat="43.44023" lon="6.64259">
        <ele>57.400001525879</ele>
        <time>2019-05-30T12:42:05.000Z</time>
      </trkpt>
      <trkpt lat="43.44024" lon="6.64259">
        <ele>57.200000762939</ele>
        <time>2019-05-30T12:42:06.000Z</time>
      </trkpt>
      <trkpt lat="43.44027" lon="6.64257">
        <ele>56.200000762939</ele>
        <time>2019-05-30T12:42:12.000Z</time>
      </trkpt>
      <trkpt lat="43.44027" lon="6.64257">
        <ele>56.200000762939</ele>
        <time>2019-05-30T12:42:13.000Z</time>
      </trkpt>
      <trkpt lat="43.44026" lon="6.64259">
        <ele>56</ele>
        <time>2019-05-30T12:42:17.000Z</time>
      </trkpt>
      <trkpt lat="43.44025" lon="6.64262">
        <ele>55</ele>
        <time>2019-05-30T12:42:24.000Z</time>
      </trkpt>
      <trkpt lat="43.44025" lon="6.64262">
        <ele>55</ele>
        <time>2019-05-30T12:42:25.000Z</time>
      </trkpt>
      <trkpt lat="43.44025" lon="6.64262">
        <ele>55.599998474121</ele>
        <time>2019-05-30T12:42:35.000Z</time>
      </trkpt>
      <trkpt lat="43.44025" lon="6.64265">
        <ele>56.200000762939</ele>
        <time>2019-05-30T12:42:39.000Z</time>
      </trkpt>
      <trkpt lat="43.44027" lon="6.64267">
        <ele>56.200000762939</ele>
        <time>2019-05-30T12:42:41.000Z</time>
      </trkpt>
      <trkpt lat="43.44028" lon="6.6427">
        <ele>56.400001525879</ele>
        <time>2019-05-30T12:42:43.000Z</time>
      </trkpt>
      <trkpt lat="43.44027" lon="6.64276">
        <ele>57</ele>
        <time>2019-05-30T12:42:46.000Z</time>
      </trkpt>
      <trkpt lat="43.44027" lon="6.6428">
        <ele>57.200000762939</ele>
        <time>2019-05-30T12:42:48.000Z</time>
      </trkpt>
      <trkpt lat="43.44026" lon="6.64286">
        <ele>57.799999237061</ele>
        <time>2019-05-30T12:42:51.000Z</time>
      </trkpt>
      <trkpt lat="43.44026" lon="6.64292">
        <ele>58.200000762939</ele>
        <time>2019-05-30T12:42:54.000Z</time>
      </trkpt>
      <trkpt lat="43.44026" lon="6.64297">
        <ele>58.599998474121</ele>
        <time>2019-05-30T12:42:56.000Z</time>
      </trkpt>
      <trkpt lat="43.44025" lon="6.64301">
        <ele>58.799999237061</ele>
        <time>2019-05-30T12:42:58.000Z</time>
      </trkpt>
      <trkpt lat="43.44023" lon="6.64304">
        <ele>59.200000762939</ele>
        <time>2019-05-30T12:43:00.000Z</time>
      </trkpt>
      <trkpt lat="43.44022" lon="6.64306">
        <ele>59.200000762939</ele>
        <time>2019-05-30T12:43:01.000Z</time>
      </trkpt>
      <trkpt lat="43.44016" lon="6.64315">
        <ele>60.400001525879</ele>
        <time>2019-05-30T12:43:06.000Z</time>
      </trkpt>
      <trkpt lat="43.44014" lon="6.64316">
        <ele>60.599998474121</ele>
        <time>2019-05-30T12:43:07.000Z</time>
      </trkpt>
      <trkpt lat="43.44008" lon="6.64317">
        <ele>61.400001525879</ele>
        <time>2019-05-30T12:43:10.000Z</time>
      </trkpt>
      <trkpt lat="43.44003" lon="6.64319">
        <ele>62.599998474121</ele>
        <time>2019-05-30T12:43:13.000Z</time>
      </trkpt>
      <trkpt lat="43.43993" lon="6.64323">
        <ele>63.599998474121</ele>
        <time>2019-05-30T12:43:18.000Z</time>
      </trkpt>
      <trkpt lat="43.43989" lon="6.64328">
        <ele>64</ele>
        <time>2019-05-30T12:43:20.000Z</time>
      </trkpt>
      <trkpt lat="43.43985" lon="6.64334">
        <ele>64.800003051758</ele>
        <time>2019-05-30T12:43:23.000Z</time>
      </trkpt>
      <trkpt lat="43.43981" lon="6.64339">
        <ele>66</ele>
        <time>2019-05-30T12:43:26.000Z</time>
      </trkpt>
      <trkpt lat="43.4398" lon="6.64341">
        <ele>66.400001525879</ele>
        <time>2019-05-30T12:43:27.000Z</time>
      </trkpt>
      <trkpt lat="43.43976" lon="6.64349">
        <ele>67</ele>
        <time>2019-05-30T12:43:30.000Z</time>
      </trkpt>
      <trkpt lat="43.43976" lon="6.64353">
        <ele>67</ele>
        <time>2019-05-30T12:43:31.000Z</time>
      </trkpt>
      <trkpt lat="43.43976" lon="6.64357">
        <ele>67</ele>
        <time>2019-05-30T12:43:32.000Z</time>
      </trkpt>
      <trkpt lat="43.43984" lon="6.64374">
        <ele>66.400001525879</ele>
        <time>2019-05-30T12:43:36.000Z</time>
      </trkpt>
      <trkpt lat="43.43993" lon="6.6439">
        <ele>65.800003051758</ele>
        <time>2019-05-30T12:43:39.000Z</time>
      </trkpt>
      <trkpt lat="43.43997" lon="6.64396">
        <ele>65.599998474121</ele>
        <time>2019-05-30T12:43:40.000Z</time>
      </trkpt>
      <trkpt lat="43.44002" lon="6.64401">
        <ele>65.199996948242</ele>
        <time>2019-05-30T12:43:41.000Z</time>
      </trkpt>
      <trkpt lat="43.44007" lon="6.64406">
        <ele>64.800003051758</ele>
        <time>2019-05-30T12:43:42.000Z</time>
      </trkpt>
      <trkpt lat="43.44013" lon="6.64411">
        <ele>64.400001525879</ele>
        <time>2019-05-30T12:43:43.000Z</time>
      </trkpt>
      <trkpt lat="43.44025" lon="6.6442">
        <ele>63.400001525879</ele>
        <time>2019-05-30T12:43:45.000Z</time>
      </trkpt>
      <trkpt lat="43.44031" lon="6.64424">
        <ele>62.599998474121</ele>
        <time>2019-05-30T12:43:46.000Z</time>
      </trkpt>
      <trkpt lat="43.44037" lon="6.64429">
        <ele>62</ele>
        <time>2019-05-30T12:43:47.000Z</time>
      </trkpt>
      <trkpt lat="43.44052" lon="6.6444">
        <ele>60.599998474121</ele>
        <time>2019-05-30T12:43:49.000Z</time>
      </trkpt>
      <trkpt lat="43.44068" lon="6.64452">
        <ele>59.599998474121</ele>
        <time>2019-05-30T12:43:51.000Z</time>
      </trkpt>
      <trkpt lat="43.44084" lon="6.64464">
        <ele>57.599998474121</ele>
        <time>2019-05-30T12:43:53.000Z</time>
      </trkpt>
      <trkpt lat="43.441" lon="6.64476">
        <ele>55.799999237061</ele>
        <time>2019-05-30T12:43:55.000Z</time>
      </trkpt>
      <trkpt lat="43.44108" lon="6.64482">
        <ele>54.799999237061</ele>
        <time>2019-05-30T12:43:56.000Z</time>
      </trkpt>
      <trkpt lat="43.44114" lon="6.64487">
        <ele>54.400001525879</ele>
        <time>2019-05-30T12:43:57.000Z</time>
      </trkpt>
      <trkpt lat="43.4412" lon="6.64492">
        <ele>53.599998474121</ele>
        <time>2019-05-30T12:43:58.000Z</time>
      </trkpt>
      <trkpt lat="43.4413" lon="6.64502">
        <ele>52.400001525879</ele>
        <time>2019-05-30T12:44:00.000Z</time>
      </trkpt>
      <trkpt lat="43.44134" lon="6.64507">
        <ele>52.200000762939</ele>
        <time>2019-05-30T12:44:01.000Z</time>
      </trkpt>
      <trkpt lat="43.44139" lon="6.64518">
        <ele>51.400001525879</ele>
        <time>2019-05-30T12:44:03.000Z</time>
      </trkpt>
      <trkpt lat="43.44141" lon="6.64533">
        <ele>50.200000762939</ele>
        <time>2019-05-30T12:44:05.000Z</time>
      </trkpt>
      <trkpt lat="43.44142" lon="6.6455">
        <ele>49</ele>
        <time>2019-05-30T12:44:07.000Z</time>
      </trkpt>
      <trkpt lat="43.44141" lon="6.6457">
        <ele>48</ele>
        <time>2019-05-30T12:44:09.000Z</time>
      </trkpt>
      <trkpt lat="43.44137" lon="6.64589">
        <ele>46.599998474121</ele>
        <time>2019-05-30T12:44:11.000Z</time>
      </trkpt>
      <trkpt lat="43.44136" lon="6.64599">
        <ele>46</ele>
        <time>2019-05-30T12:44:12.000Z</time>
      </trkpt>
      <trkpt lat="43.44134" lon="6.64609">
        <ele>45.200000762939</ele>
        <time>2019-05-30T12:44:13.000Z</time>
      </trkpt>
      <trkpt lat="43.4413" lon="6.64627">
        <ele>43.799999237061</ele>
        <time>2019-05-30T12:44:15.000Z</time>
      </trkpt>
      <trkpt lat="43.44127" lon="6.6464">
        <ele>43.200000762939</ele>
        <time>2019-05-30T12:44:17.000Z</time>
      </trkpt>
      <trkpt lat="43.4412" lon="6.64671">
        <ele>44.599998474121</ele>
        <time>2019-05-30T12:44:22.000Z</time>
      </trkpt>
      <trkpt lat="43.44116" lon="6.64678">
        <ele>44.400001525879</ele>
        <time>2019-05-30T12:44:23.000Z</time>
      </trkpt>
      <trkpt lat="43.44099" lon="6.64697">
        <ele>41.799999237061</ele>
        <time>2019-05-30T12:44:26.000Z</time>
      </trkpt>
      <trkpt lat="43.44091" lon="6.64701">
        <ele>40.400001525879</ele>
        <time>2019-05-30T12:44:27.000Z</time>
      </trkpt>
      <trkpt lat="43.44083" lon="6.64704">
        <ele>38.400001525879</ele>
        <time>2019-05-30T12:44:28.000Z</time>
      </trkpt>
      <trkpt lat="43.44075" lon="6.64708">
        <ele>36.599998474121</ele>
        <time>2019-05-30T12:44:29.000Z</time>
      </trkpt>
      <trkpt lat="43.44066" lon="6.64712">
        <ele>35</ele>
        <time>2019-05-30T12:44:30.000Z</time>
      </trkpt>
      <trkpt lat="43.44058" lon="6.64718">
        <ele>33.799999237061</ele>
        <time>2019-05-30T12:44:31.000Z</time>
      </trkpt>
      <trkpt lat="43.44043" lon="6.6473">
        <ele>32.799999237061</ele>
        <time>2019-05-30T12:44:33.000Z</time>
      </trkpt>
      <trkpt lat="43.44037" lon="6.64736">
        <ele>32.400001525879</ele>
        <time>2019-05-30T12:44:34.000Z</time>
      </trkpt>
      <trkpt lat="43.44031" lon="6.64743">
        <ele>32</ele>
        <time>2019-05-30T12:44:35.000Z</time>
      </trkpt>
      <trkpt lat="43.44025" lon="6.6475">
        <ele>31.200000762939</ele>
        <time>2019-05-30T12:44:36.000Z</time>
      </trkpt>
      <trkpt lat="43.44015" lon="6.64764">
        <ele>30.200000762939</ele>
        <time>2019-05-30T12:44:38.000Z</time>
      </trkpt>
      <trkpt lat="43.4401" lon="6.64771">
        <ele>30.60000038147</ele>
        <time>2019-05-30T12:44:39.000Z</time>
      </trkpt>
      <trkpt lat="43.44002" lon="6.64784">
        <ele>31.200000762939</ele>
        <time>2019-05-30T12:44:41.000Z</time>
      </trkpt>
      <trkpt lat="43.4399" lon="6.64803">
        <ele>32.200000762939</ele>
        <time>2019-05-30T12:44:44.000Z</time>
      </trkpt>
      <trkpt lat="43.43982" lon="6.64815">
        <ele>32.799999237061</ele>
        <time>2019-05-30T12:44:46.000Z</time>
      </trkpt>
      <trkpt lat="43.4397" lon="6.64832">
        <ele>33.400001525879</ele>
        <time>2019-05-30T12:44:49.000Z</time>
      </trkpt>
      <trkpt lat="43.43954" lon="6.64853">
        <ele>34</ele>
        <time>2019-05-30T12:44:53.000Z</time>
      </trkpt>
      <trkpt lat="43.43941" lon="6.64869">
        <ele>33.400001525879</ele>
        <time>2019-05-30T12:44:57.000Z</time>
      </trkpt>
      <trkpt lat="43.43934" lon="6.64879">
        <ele>34.799999237061</ele>
        <time>2019-05-30T12:45:00.000Z</time>
      </trkpt>
      <trkpt lat="43.43927" lon="6.64889">
        <ele>36</ele>
        <time>2019-05-30T12:45:03.000Z</time>
      </trkpt>
      <trkpt lat="43.43924" lon="6.64893">
        <ele>36.200000762939</ele>
        <time>2019-05-30T12:45:04.000Z</time>
      </trkpt>
      <trkpt lat="43.43902" lon="6.64922">
        <ele>36.599998474121</ele>
        <time>2019-05-30T12:45:12.000Z</time>
      </trkpt>
      <trkpt lat="43.43889" lon="6.6494">
        <ele>37</ele>
        <time>2019-05-30T12:45:17.000Z</time>
      </trkpt>
      <trkpt lat="43.43884" lon="6.64947">
        <ele>37.400001525879</ele>
        <time>2019-05-30T12:45:19.000Z</time>
      </trkpt>
      <trkpt lat="43.43879" lon="6.64954">
        <ele>38.200000762939</ele>
        <time>2019-05-30T12:45:21.000Z</time>
      </trkpt>
      <trkpt lat="43.43867" lon="6.64972">
        <ele>39.200000762939</ele>
        <time>2019-05-30T12:45:26.000Z</time>
      </trkpt>
      <trkpt lat="43.43851" lon="6.64997">
        <ele>39.400001525879</ele>
        <time>2019-05-30T12:45:33.000Z</time>
      </trkpt>
      <trkpt lat="43.43834" lon="6.65027">
        <ele>39.799999237061</ele>
        <time>2019-05-30T12:45:41.000Z</time>
      </trkpt>
      <trkpt lat="43.43826" lon="6.65039">
        <ele>40.200000762939</ele>
        <time>2019-05-30T12:45:44.000Z</time>
      </trkpt>
      <trkpt lat="43.43812" lon="6.65058">
        <ele>40.200000762939</ele>
        <time>2019-05-30T12:45:48.000Z</time>
      </trkpt>
      <trkpt lat="43.43801" lon="6.65073">
        <ele>39.200000762939</ele>
        <time>2019-05-30T12:45:51.000Z</time>
      </trkpt>
      <trkpt lat="43.43788" lon="6.65096">
        <ele>38.200000762939</ele>
        <time>2019-05-30T12:45:55.000Z</time>
      </trkpt>
      <trkpt lat="43.43785" lon="6.65102">
        <ele>38.200000762939</ele>
        <time>2019-05-30T12:45:56.000Z</time>
      </trkpt>
      <trkpt lat="43.4378" lon="6.65126">
        <ele>37.799999237061</ele>
        <time>2019-05-30T12:45:59.000Z</time>
      </trkpt>
      <trkpt lat="43.43779" lon="6.65134">
        <ele>37.400001525879</ele>
        <time>2019-05-30T12:46:00.000Z</time>
      </trkpt>
      <trkpt lat="43.43778" lon="6.6515">
        <ele>37</ele>
        <time>2019-05-30T12:46:02.000Z</time>
      </trkpt>
      <trkpt lat="43.43777" lon="6.65174">
        <ele>36</ele>
        <time>2019-05-30T12:46:05.000Z</time>
      </trkpt>
      <trkpt lat="43.43776" lon="6.65183">
        <ele>35.799999237061</ele>
        <time>2019-05-30T12:46:06.000Z</time>
      </trkpt>
      <trkpt lat="43.43775" lon="6.65198">
        <ele>35.799999237061</ele>
        <time>2019-05-30T12:46:08.000Z</time>
      </trkpt>
      <trkpt lat="43.4377" lon="6.6522">
        <ele>35.400001525879</ele>
        <time>2019-05-30T12:46:11.000Z</time>
      </trkpt>
      <trkpt lat="43.43765" lon="6.65234">
        <ele>35</ele>
        <time>2019-05-30T12:46:13.000Z</time>
      </trkpt>
      <trkpt lat="43.43762" lon="6.65241">
        <ele>35</ele>
        <time>2019-05-30T12:46:14.000Z</time>
      </trkpt>
      <trkpt lat="43.43756" lon="6.65254">
        <ele>34.599998474121</ele>
        <time>2019-05-30T12:46:16.000Z</time>
      </trkpt>
      <trkpt lat="43.43749" lon="6.65276">
        <ele>34</ele>
        <time>2019-05-30T12:46:19.000Z</time>
      </trkpt>
      <trkpt lat="43.43745" lon="6.65298">
        <ele>34</ele>
        <time>2019-05-30T12:46:22.000Z</time>
      </trkpt>
      <trkpt lat="43.43741" lon="6.65329">
        <ele>33.799999237061</ele>
        <time>2019-05-30T12:46:26.000Z</time>
      </trkpt>
      <trkpt lat="43.43739" lon="6.65345">
        <ele>33.400001525879</ele>
        <time>2019-05-30T12:46:28.000Z</time>
      </trkpt>
      <trkpt lat="43.43736" lon="6.6536">
        <ele>32.599998474121</ele>
        <time>2019-05-30T12:46:30.000Z</time>
      </trkpt>
      <trkpt lat="43.43733" lon="6.65376">
        <ele>32.400001525879</ele>
        <time>2019-05-30T12:46:32.000Z</time>
      </trkpt>
      <trkpt lat="43.43722" lon="6.65431">
        <ele>32.400001525879</ele>
        <time>2019-05-30T12:46:39.000Z</time>
      </trkpt>
      <trkpt lat="43.4372" lon="6.65439">
        <ele>31.799999237061</ele>
        <time>2019-05-30T12:46:40.000Z</time>
      </trkpt>
      <trkpt lat="43.43717" lon="6.65454">
        <ele>31.39999961853</ele>
        <time>2019-05-30T12:46:42.000Z</time>
      </trkpt>
      <trkpt lat="43.43708" lon="6.65502">
        <ele>31.60000038147</ele>
        <time>2019-05-30T12:46:48.000Z</time>
      </trkpt>
      <trkpt lat="43.43703" lon="6.65524">
        <ele>31.39999961853</ele>
        <time>2019-05-30T12:46:51.000Z</time>
      </trkpt>
      <trkpt lat="43.43696" lon="6.65538">
        <ele>31.60000038147</ele>
        <time>2019-05-30T12:46:53.000Z</time>
      </trkpt>
      <trkpt lat="43.43689" lon="6.6555">
        <ele>31.200000762939</ele>
        <time>2019-05-30T12:46:55.000Z</time>
      </trkpt>
      <trkpt lat="43.43678" lon="6.65567">
        <ele>31.200000762939</ele>
        <time>2019-05-30T12:46:58.000Z</time>
      </trkpt>
      <trkpt lat="43.43675" lon="6.65572">
        <ele>31.39999961853</ele>
        <time>2019-05-30T12:46:59.000Z</time>
      </trkpt>
      <trkpt lat="43.43661" lon="6.65608">
        <ele>32.400001525879</ele>
        <time>2019-05-30T12:47:05.000Z</time>
      </trkpt>
      <trkpt lat="43.43659" lon="6.65614">
        <ele>32.599998474121</ele>
        <time>2019-05-30T12:47:06.000Z</time>
      </trkpt>
      <trkpt lat="43.43638" lon="6.65667">
        <ele>32.200000762939</ele>
        <time>2019-05-30T12:47:16.000Z</time>
      </trkpt>
      <trkpt lat="43.43626" lon="6.65703">
        <ele>34</ele>
        <time>2019-05-30T12:47:24.000Z</time>
      </trkpt>
      <trkpt lat="43.43624" lon="6.65707">
        <ele>34.599998474121</ele>
        <time>2019-05-30T12:47:25.000Z</time>
      </trkpt>
      <trkpt lat="43.43623" lon="6.65711">
        <ele>35</ele>
        <time>2019-05-30T12:47:26.000Z</time>
      </trkpt>
      <trkpt lat="43.43618" lon="6.65723">
        <ele>36.200000762939</ele>
        <time>2019-05-30T12:47:30.000Z</time>
      </trkpt>
      <trkpt lat="43.43615" lon="6.65729">
        <ele>37</ele>
        <time>2019-05-30T12:47:32.000Z</time>
      </trkpt>
      <trkpt lat="43.43613" lon="6.65732">
        <ele>37.200000762939</ele>
        <time>2019-05-30T12:47:33.000Z</time>
      </trkpt>
      <trkpt lat="43.43601" lon="6.65747">
        <ele>37.200000762939</ele>
        <time>2019-05-30T12:47:38.000Z</time>
      </trkpt>
      <trkpt lat="43.43591" lon="6.65759">
        <ele>37</ele>
        <time>2019-05-30T12:47:41.000Z</time>
      </trkpt>
      <trkpt lat="43.43584" lon="6.65771">
        <ele>36.599998474121</ele>
        <time>2019-05-30T12:47:43.000Z</time>
      </trkpt>
      <trkpt lat="43.4358" lon="6.65777">
        <ele>36</ele>
        <time>2019-05-30T12:47:44.000Z</time>
      </trkpt>
      <trkpt lat="43.43569" lon="6.65793">
        <ele>35</ele>
        <time>2019-05-30T12:47:47.000Z</time>
      </trkpt>
      <trkpt lat="43.43564" lon="6.65799">
        <ele>34.599998474121</ele>
        <time>2019-05-30T12:47:48.000Z</time>
      </trkpt>
      <trkpt lat="43.4356" lon="6.65804">
        <ele>34.400001525879</ele>
        <time>2019-05-30T12:47:49.000Z</time>
      </trkpt>
      <trkpt lat="43.43542" lon="6.6582">
        <ele>35</ele>
        <time>2019-05-30T12:47:54.000Z</time>
      </trkpt>
      <trkpt lat="43.43533" lon="6.65827">
        <ele>36</ele>
        <time>2019-05-30T12:47:57.000Z</time>
      </trkpt>
      <trkpt lat="43.43527" lon="6.65832">
        <ele>37</ele>
        <time>2019-05-30T12:48:00.000Z</time>
      </trkpt>
      <trkpt lat="43.4352" lon="6.65837">
        <ele>38</ele>
        <time>2019-05-30T12:48:03.000Z</time>
      </trkpt>
      <trkpt lat="43.43518" lon="6.65838">
        <ele>38.599998474121</ele>
        <time>2019-05-30T12:48:04.000Z</time>
      </trkpt>
      <trkpt lat="43.4351" lon="6.65844">
        <ele>39.200000762939</ele>
        <time>2019-05-30T12:48:08.000Z</time>
      </trkpt>
      <trkpt lat="43.43506" lon="6.65848">
        <ele>39.799999237061</ele>
        <time>2019-05-30T12:48:10.000Z</time>
      </trkpt>
      <trkpt lat="43.43497" lon="6.65857">
        <ele>41.400001525879</ele>
        <time>2019-05-30T12:48:16.000Z</time>
      </trkpt>
      <trkpt lat="43.4349" lon="6.65865">
        <ele>41.599998474121</ele>
        <time>2019-05-30T12:48:18.000Z</time>
      </trkpt>
      <trkpt lat="43.43475" lon="6.65879">
        <ele>41.200000762939</ele>
        <time>2019-05-30T12:48:23.000Z</time>
      </trkpt>
      <trkpt lat="43.43465" lon="6.65879">
        <ele>41.200000762939</ele>
        <time>2019-05-30T12:48:27.000Z</time>
      </trkpt>
      <trkpt lat="43.43459" lon="6.65878">
        <ele>42.799999237061</ele>
        <time>2019-05-30T12:48:32.000Z</time>
      </trkpt>
      <trkpt lat="43.43452" lon="6.65873">
        <ele>44</ele>
        <time>2019-05-30T12:48:38.000Z</time>
      </trkpt>
      <trkpt lat="43.43451" lon="6.65871">
        <ele>44</ele>
        <time>2019-05-30T12:48:39.000Z</time>
      </trkpt>
      <trkpt lat="43.43444" lon="6.65861">
        <ele>44.599998474121</ele>
        <time>2019-05-30T12:48:45.000Z</time>
      </trkpt>
      <trkpt lat="43.43441" lon="6.65856">
        <ele>45.200000762939</ele>
        <time>2019-05-30T12:48:48.000Z</time>
      </trkpt>
      <trkpt lat="43.43436" lon="6.65852">
        <ele>46</ele>
        <time>2019-05-30T12:48:52.000Z</time>
      </trkpt>
      <trkpt lat="43.43435" lon="6.65851">
        <ele>46.200000762939</ele>
        <time>2019-05-30T12:48:53.000Z</time>
      </trkpt>
      <trkpt lat="43.4343" lon="6.65851">
        <ele>46.799999237061</ele>
        <time>2019-05-30T12:48:56.000Z</time>
      </trkpt>
      <trkpt lat="43.43429" lon="6.65851">
        <ele>47</ele>
        <time>2019-05-30T12:48:57.000Z</time>
      </trkpt>
      <trkpt lat="43.43426" lon="6.65852">
        <ele>47.400001525879</ele>
        <time>2019-05-30T12:48:59.000Z</time>
      </trkpt>
      <trkpt lat="43.43425" lon="6.65853">
        <ele>47.599998474121</ele>
        <time>2019-05-30T12:49:00.000Z</time>
      </trkpt>
      <trkpt lat="43.43422" lon="6.65853">
        <ele>48</ele>
        <time>2019-05-30T12:49:02.000Z</time>
      </trkpt>
      <trkpt lat="43.43419" lon="6.65853">
        <ele>48.599998474121</ele>
        <time>2019-05-30T12:49:04.000Z</time>
      </trkpt>
      <trkpt lat="43.43414" lon="6.6585">
        <ele>49.599998474121</ele>
        <time>2019-05-30T12:49:08.000Z</time>
      </trkpt>
      <trkpt lat="43.43412" lon="6.65848">
        <ele>49.799999237061</ele>
        <time>2019-05-30T12:49:09.000Z</time>
      </trkpt>
      <trkpt lat="43.43409" lon="6.65839">
        <ele>50.799999237061</ele>
        <time>2019-05-30T12:49:13.000Z</time>
      </trkpt>
      <trkpt lat="43.43409" lon="6.65834">
        <ele>51.200000762939</ele>
        <time>2019-05-30T12:49:15.000Z</time>
      </trkpt>
      <trkpt lat="43.43408" lon="6.65824">
        <ele>51.799999237061</ele>
        <time>2019-05-30T12:49:20.000Z</time>
      </trkpt>
      <trkpt lat="43.43407" lon="6.65822">
        <ele>52</ele>
        <time>2019-05-30T12:49:21.000Z</time>
      </trkpt>
      <trkpt lat="43.43404" lon="6.65813">
        <ele>53</ele>
        <time>2019-05-30T12:49:26.000Z</time>
      </trkpt>
      <trkpt lat="43.43401" lon="6.6581">
        <ele>53.200000762939</ele>
        <time>2019-05-30T12:49:28.000Z</time>
      </trkpt>
      <trkpt lat="43.43396" lon="6.65806">
        <ele>54</ele>
        <time>2019-05-30T12:49:32.000Z</time>
      </trkpt>
      <trkpt lat="43.43388" lon="6.65801">
        <ele>55</ele>
        <time>2019-05-30T12:49:38.000Z</time>
      </trkpt>
      <trkpt lat="43.43383" lon="6.65797">
        <ele>56.200000762939</ele>
        <time>2019-05-30T12:49:42.000Z</time>
      </trkpt>
      <trkpt lat="43.43378" lon="6.65791">
        <ele>56.799999237061</ele>
        <time>2019-05-30T12:49:46.000Z</time>
      </trkpt>
      <trkpt lat="43.43372" lon="6.65786">
        <ele>57.200000762939</ele>
        <time>2019-05-30T12:49:50.000Z</time>
      </trkpt>
      <trkpt lat="43.43368" lon="6.65784">
        <ele>57.400001525879</ele>
        <time>2019-05-30T12:49:53.000Z</time>
      </trkpt>
      <trkpt lat="43.43358" lon="6.65784">
        <ele>58.200000762939</ele>
        <time>2019-05-30T12:49:59.000Z</time>
      </trkpt>
      <trkpt lat="43.43357" lon="6.65785">
        <ele>58.599998474121</ele>
        <time>2019-05-30T12:50:00.000Z</time>
      </trkpt>
      <trkpt lat="43.43352" lon="6.65786">
        <ele>59.400001525879</ele>
        <time>2019-05-30T12:50:03.000Z</time>
      </trkpt>
      <trkpt lat="43.43346" lon="6.65788">
        <ele>60</ele>
        <time>2019-05-30T12:50:07.000Z</time>
      </trkpt>
      <trkpt lat="43.43341" lon="6.65787">
        <ele>60.400001525879</ele>
        <time>2019-05-30T12:50:10.000Z</time>
      </trkpt>
      <trkpt lat="43.43335" lon="6.65783">
        <ele>60.799999237061</ele>
        <time>2019-05-30T12:50:14.000Z</time>
      </trkpt>
      <trkpt lat="43.4333" lon="6.6578">
        <ele>61.400001525879</ele>
        <time>2019-05-30T12:50:17.000Z</time>
      </trkpt>
      <trkpt lat="43.43323" lon="6.65773">
        <ele>62.599998474121</ele>
        <time>2019-05-30T12:50:22.000Z</time>
      </trkpt>
      <trkpt lat="43.43317" lon="6.65765">
        <ele>63.799999237061</ele>
        <time>2019-05-30T12:50:27.000Z</time>
      </trkpt>
      <trkpt lat="43.4331" lon="6.65756">
        <ele>64.599998474121</ele>
        <time>2019-05-30T12:50:32.000Z</time>
      </trkpt>
      <trkpt lat="43.43307" lon="6.65749">
        <ele>64.800003051758</ele>
        <time>2019-05-30T12:50:35.000Z</time>
      </trkpt>
      <trkpt lat="43.43303" lon="6.65735">
        <ele>65.800003051758</ele>
        <time>2019-05-30T12:50:41.000Z</time>
      </trkpt>
      <trkpt lat="43.43303" lon="6.65732">
        <ele>65.800003051758</ele>
        <time>2019-05-30T12:50:42.000Z</time>
      </trkpt>
      <trkpt lat="43.43303" lon="6.65721">
        <ele>67</ele>
        <time>2019-05-30T12:50:47.000Z</time>
      </trkpt>
      <trkpt lat="43.43303" lon="6.65719">
        <ele>67</ele>
        <time>2019-05-30T12:50:48.000Z</time>
      </trkpt>
      <trkpt lat="43.433" lon="6.65705">
        <ele>67</ele>
        <time>2019-05-30T12:50:53.000Z</time>
      </trkpt>
      <trkpt lat="43.43292" lon="6.65692">
        <ele>67.800003051758</ele>
        <time>2019-05-30T12:50:59.000Z</time>
      </trkpt>
      <trkpt lat="43.43288" lon="6.65689">
        <ele>68.199996948242</ele>
        <time>2019-05-30T12:51:01.000Z</time>
      </trkpt>
      <trkpt lat="43.4328" lon="6.6568">
        <ele>69.199996948242</ele>
        <time>2019-05-30T12:51:06.000Z</time>
      </trkpt>
      <trkpt lat="43.43275" lon="6.65665">
        <ele>70.199996948242</ele>
        <time>2019-05-30T12:51:12.000Z</time>
      </trkpt>
      <trkpt lat="43.43279" lon="6.65646">
        <ele>71</ele>
        <time>2019-05-30T12:51:19.000Z</time>
      </trkpt>
      <trkpt lat="43.43281" lon="6.65641">
        <ele>71.400001525879</ele>
        <time>2019-05-30T12:51:21.000Z</time>
      </trkpt>
      <trkpt lat="43.43286" lon="6.65628">
        <ele>72.199996948242</ele>
        <time>2019-05-30T12:51:27.000Z</time>
      </trkpt>
      <trkpt lat="43.43287" lon="6.65625">
        <ele>72.400001525879</ele>
        <time>2019-05-30T12:51:28.000Z</time>
      </trkpt>
      <trkpt lat="43.43287" lon="6.65614">
        <ele>73.400001525879</ele>
        <time>2019-05-30T12:51:33.000Z</time>
      </trkpt>
      <trkpt lat="43.43287" lon="6.65611">
        <ele>73.599998474121</ele>
        <time>2019-05-30T12:51:34.000Z</time>
      </trkpt>
      <trkpt lat="43.43285" lon="6.65597">
        <ele>74.400001525879</ele>
        <time>2019-05-30T12:51:40.000Z</time>
      </trkpt>
      <trkpt lat="43.43283" lon="6.65591">
        <ele>75</ele>
        <time>2019-05-30T12:51:43.000Z</time>
      </trkpt>
      <trkpt lat="43.4328" lon="6.65583">
        <ele>75.800003051758</ele>
        <time>2019-05-30T12:51:47.000Z</time>
      </trkpt>
      <trkpt lat="43.43277" lon="6.65574">
        <ele>76.599998474121</ele>
        <time>2019-05-30T12:51:51.000Z</time>
      </trkpt>
      <trkpt lat="43.43273" lon="6.65568">
        <ele>76.800003051758</ele>
        <time>2019-05-30T12:51:54.000Z</time>
      </trkpt>
      <trkpt lat="43.43268" lon="6.6556">
        <ele>77.400001525879</ele>
        <time>2019-05-30T12:51:58.000Z</time>
      </trkpt>
      <trkpt lat="43.43265" lon="6.65556">
        <ele>77.800003051758</ele>
        <time>2019-05-30T12:52:00.000Z</time>
      </trkpt>
      <trkpt lat="43.43254" lon="6.65543">
        <ele>79</ele>
        <time>2019-05-30T12:52:07.000Z</time>
      </trkpt>
      <trkpt lat="43.43252" lon="6.65541">
        <ele>79.199996948242</ele>
        <time>2019-05-30T12:52:08.000Z</time>
      </trkpt>
      <trkpt lat="43.43242" lon="6.65533">
        <ele>80.199996948242</ele>
        <time>2019-05-30T12:52:13.000Z</time>
      </trkpt>
      <trkpt lat="43.43236" lon="6.65528">
        <ele>80.599998474121</ele>
        <time>2019-05-30T12:52:16.000Z</time>
      </trkpt>
      <trkpt lat="43.43228" lon="6.65522">
        <ele>81.199996948242</ele>
        <time>2019-05-30T12:52:20.000Z</time>
      </trkpt>
      <trkpt lat="43.43216" lon="6.65515">
        <ele>81.800003051758</ele>
        <time>2019-05-30T12:52:25.000Z</time>
      </trkpt>
      <trkpt lat="43.43204" lon="6.65502">
        <ele>82.199996948242</ele>
        <time>2019-05-30T12:52:32.000Z</time>
      </trkpt>
      <trkpt lat="43.43203" lon="6.655">
        <ele>82.400001525879</ele>
        <time>2019-05-30T12:52:33.000Z</time>
      </trkpt>
      <trkpt lat="43.43197" lon="6.65494">
        <ele>83.400001525879</ele>
        <time>2019-05-30T12:52:37.000Z</time>
      </trkpt>
      <trkpt lat="43.43191" lon="6.65489">
        <ele>84</ele>
        <time>2019-05-30T12:52:40.000Z</time>
      </trkpt>
      <trkpt lat="43.43186" lon="6.65484">
        <ele>84.599998474121</ele>
        <time>2019-05-30T12:52:43.000Z</time>
      </trkpt>
      <trkpt lat="43.43181" lon="6.65474">
        <ele>85</ele>
        <time>2019-05-30T12:52:47.000Z</time>
      </trkpt>
      <trkpt lat="43.43174" lon="6.65461">
        <ele>85.599998474121</ele>
        <time>2019-05-30T12:52:52.000Z</time>
      </trkpt>
      <trkpt lat="43.43169" lon="6.65456">
        <ele>85.599998474121</ele>
        <time>2019-05-30T12:52:54.000Z</time>
      </trkpt>
      <trkpt lat="43.43158" lon="6.65454">
        <ele>85.400001525879</ele>
        <time>2019-05-30T12:52:58.000Z</time>
      </trkpt>
      <trkpt lat="43.4314" lon="6.6545">
        <ele>86.599998474121</ele>
        <time>2019-05-30T12:53:05.000Z</time>
      </trkpt>
      <trkpt lat="43.43114" lon="6.65433">
        <ele>87</ele>
        <time>2019-05-30T12:53:14.000Z</time>
      </trkpt>
      <trkpt lat="43.431" lon="6.65422">
        <ele>87.800003051758</ele>
        <time>2019-05-30T12:53:20.000Z</time>
      </trkpt>
      <trkpt lat="43.43098" lon="6.6542">
        <ele>88</ele>
        <time>2019-05-30T12:53:21.000Z</time>
      </trkpt>
      <trkpt lat="43.43085" lon="6.65407">
        <ele>88.800003051758</ele>
        <time>2019-05-30T12:53:27.000Z</time>
      </trkpt>
      <trkpt lat="43.43083" lon="6.65404">
        <ele>89</ele>
        <time>2019-05-30T12:53:28.000Z</time>
      </trkpt>
      <trkpt lat="43.43074" lon="6.65388">
        <ele>89.800003051758</ele>
        <time>2019-05-30T12:53:33.000Z</time>
      </trkpt>
      <trkpt lat="43.43071" lon="6.65381">
        <ele>90.199996948242</ele>
        <time>2019-05-30T12:53:35.000Z</time>
      </trkpt>
      <trkpt lat="43.43064" lon="6.65366">
        <ele>91</ele>
        <time>2019-05-30T12:53:39.000Z</time>
      </trkpt>
      <trkpt lat="43.43058" lon="6.65347">
        <ele>91.400001525879</ele>
        <time>2019-05-30T12:53:44.000Z</time>
      </trkpt>
      <trkpt lat="43.43051" lon="6.6532">
        <ele>91.400001525879</ele>
        <time>2019-05-30T12:53:51.000Z</time>
      </trkpt>
      <trkpt lat="43.43048" lon="6.65313">
        <ele>92.199996948242</ele>
        <time>2019-05-30T12:53:53.000Z</time>
      </trkpt>
      <trkpt lat="43.43039" lon="6.65303">
        <ele>92.599998474121</ele>
        <time>2019-05-30T12:53:57.000Z</time>
      </trkpt>
      <trkpt lat="43.43031" lon="6.65305">
        <ele>93</ele>
        <time>2019-05-30T12:54:00.000Z</time>
      </trkpt>
      <trkpt lat="43.43029" lon="6.65308">
        <ele>93.199996948242</ele>
        <time>2019-05-30T12:54:01.000Z</time>
      </trkpt>
      <trkpt lat="43.43016" lon="6.65314">
        <ele>93.400001525879</ele>
        <time>2019-05-30T12:54:06.000Z</time>
      </trkpt>
      <trkpt lat="43.42999" lon="6.65307">
        <ele>94.199996948242</ele>
        <time>2019-05-30T12:54:12.000Z</time>
      </trkpt>
      <trkpt lat="43.42997" lon="6.65305">
        <ele>94.400001525879</ele>
        <time>2019-05-30T12:54:13.000Z</time>
      </trkpt>
      <trkpt lat="43.42984" lon="6.65299">
        <ele>95.199996948242</ele>
        <time>2019-05-30T12:54:17.000Z</time>
      </trkpt>
      <trkpt lat="43.4297" lon="6.65299">
        <ele>94.599998474121</ele>
        <time>2019-05-30T12:54:21.000Z</time>
      </trkpt>
      <trkpt lat="43.42957" lon="6.65292">
        <ele>95.400001525879</ele>
        <time>2019-05-30T12:54:26.000Z</time>
      </trkpt>
      <trkpt lat="43.42941" lon="6.65275">
        <ele>96.599998474121</ele>
        <time>2019-05-30T12:54:32.000Z</time>
      </trkpt>
      <trkpt lat="43.42935" lon="6.6527">
        <ele>96.800003051758</ele>
        <time>2019-05-30T12:54:34.000Z</time>
      </trkpt>
      <trkpt lat="43.42921" lon="6.65259">
        <ele>97.599998474121</ele>
        <time>2019-05-30T12:54:40.000Z</time>
      </trkpt>
      <trkpt lat="43.42913" lon="6.65253">
        <ele>98.199996948242</ele>
        <time>2019-05-30T12:54:43.000Z</time>
      </trkpt>
      <trkpt lat="43.42909" lon="6.65249">
        <ele>98.599998474121</ele>
        <time>2019-05-30T12:54:45.000Z</time>
      </trkpt>
      <trkpt lat="43.42897" lon="6.6524">
        <ele>99.400001525879</ele>
        <time>2019-05-30T12:54:50.000Z</time>
      </trkpt>
      <trkpt lat="43.42878" lon="6.65222">
        <ele>99.599998474121</ele>
        <time>2019-05-30T12:54:58.000Z</time>
      </trkpt>
      <trkpt lat="43.42876" lon="6.65219">
        <ele>99.599998474121</ele>
        <time>2019-05-30T12:54:59.000Z</time>
      </trkpt>
      <trkpt lat="43.42869" lon="6.65202">
        <ele>100</ele>
        <time>2019-05-30T12:55:04.000Z</time>
      </trkpt>
      <trkpt lat="43.42869" lon="6.65183">
        <ele>100.59999847412</ele>
        <time>2019-05-30T12:55:09.000Z</time>
      </trkpt>
      <trkpt lat="43.42868" lon="6.65179">
        <ele>100.80000305176</ele>
        <time>2019-05-30T12:55:10.000Z</time>
      </trkpt>
      <trkpt lat="43.42861" lon="6.65163">
        <ele>101</ele>
        <time>2019-05-30T12:55:14.000Z</time>
      </trkpt>
      <trkpt lat="43.42848" lon="6.65146">
        <ele>101.80000305176</ele>
        <time>2019-05-30T12:55:20.000Z</time>
      </trkpt>
      <trkpt lat="43.42847" lon="6.65143">
        <ele>102</ele>
        <time>2019-05-30T12:55:21.000Z</time>
      </trkpt>
      <trkpt lat="43.42838" lon="6.65116">
        <ele>102.59999847412</ele>
        <time>2019-05-30T12:55:28.000Z</time>
      </trkpt>
      <trkpt lat="43.42838" lon="6.65113">
        <ele>102.80000305176</ele>
        <time>2019-05-30T12:55:29.000Z</time>
      </trkpt>
      <trkpt lat="43.42833" lon="6.65093">
        <ele>103.40000152588</ele>
        <time>2019-05-30T12:55:34.000Z</time>
      </trkpt>
      <trkpt lat="43.42828" lon="6.65077">
        <ele>103.80000305176</ele>
        <time>2019-05-30T12:55:38.000Z</time>
      </trkpt>
      <trkpt lat="43.42825" lon="6.65063">
        <ele>104</ele>
        <time>2019-05-30T12:55:41.000Z</time>
      </trkpt>
      <trkpt lat="43.42817" lon="6.65053">
        <ele>103.80000305176</ele>
        <time>2019-05-30T12:55:44.000Z</time>
      </trkpt>
      <trkpt lat="43.4281" lon="6.65057">
        <ele>103.19999694824</ele>
        <time>2019-05-30T12:55:47.000Z</time>
      </trkpt>
      <trkpt lat="43.42808" lon="6.6506">
        <ele>103.19999694824</ele>
        <time>2019-05-30T12:55:48.000Z</time>
      </trkpt>
      <trkpt lat="43.42798" lon="6.6507">
        <ele>105</ele>
        <time>2019-05-30T12:55:53.000Z</time>
      </trkpt>
      <trkpt lat="43.42783" lon="6.65065">
        <ele>106</ele>
        <time>2019-05-30T12:55:58.000Z</time>
      </trkpt>
      <trkpt lat="43.42781" lon="6.65062">
        <ele>106.19999694824</ele>
        <time>2019-05-30T12:55:59.000Z</time>
      </trkpt>
      <trkpt lat="43.42769" lon="6.65047">
        <ele>106</ele>
        <time>2019-05-30T12:56:04.000Z</time>
      </trkpt>
      <trkpt lat="43.42753" lon="6.65034">
        <ele>106.59999847412</ele>
        <time>2019-05-30T12:56:10.000Z</time>
      </trkpt>
      <trkpt lat="43.4274" lon="6.65038">
        <ele>107.19999694824</ele>
        <time>2019-05-30T12:56:14.000Z</time>
      </trkpt>
      <trkpt lat="43.42737" lon="6.65039">
        <ele>107.40000152588</ele>
        <time>2019-05-30T12:56:15.000Z</time>
      </trkpt>
      <trkpt lat="43.4272" lon="6.65047">
        <ele>108</ele>
        <time>2019-05-30T12:56:20.000Z</time>
      </trkpt>
      <trkpt lat="43.42717" lon="6.65052">
        <ele>108</ele>
        <time>2019-05-30T12:56:21.000Z</time>
      </trkpt>
      <trkpt lat="43.42716" lon="6.65062">
        <ele>107.80000305176</ele>
        <time>2019-05-30T12:56:23.000Z</time>
      </trkpt>
      <trkpt lat="43.42718" lon="6.65072">
        <ele>107.59999847412</ele>
        <time>2019-05-30T12:56:25.000Z</time>
      </trkpt>
      <trkpt lat="43.42721" lon="6.65086">
        <ele>108</ele>
        <time>2019-05-30T12:56:28.000Z</time>
      </trkpt>
      <trkpt lat="43.42723" lon="6.65095">
        <ele>108.40000152588</ele>
        <time>2019-05-30T12:56:30.000Z</time>
      </trkpt>
      <trkpt lat="43.42726" lon="6.65126">
        <ele>108.80000305176</ele>
        <time>2019-05-30T12:56:36.000Z</time>
      </trkpt>
      <trkpt lat="43.42721" lon="6.65151">
        <ele>108.59999847412</ele>
        <time>2019-05-30T12:56:41.000Z</time>
      </trkpt>
      <trkpt lat="43.42711" lon="6.65165">
        <ele>109.19999694824</ele>
        <time>2019-05-30T12:56:45.000Z</time>
      </trkpt>
      <trkpt lat="43.42697" lon="6.65168">
        <ele>109.59999847412</ele>
        <time>2019-05-30T12:56:49.000Z</time>
      </trkpt>
      <trkpt lat="43.42693" lon="6.65169">
        <ele>109.80000305176</ele>
        <time>2019-05-30T12:56:50.000Z</time>
      </trkpt>
      <trkpt lat="43.42672" lon="6.65173">
        <ele>109.80000305176</ele>
        <time>2019-05-30T12:56:56.000Z</time>
      </trkpt>
      <trkpt lat="43.42651" lon="6.65177">
        <ele>110.59999847412</ele>
        <time>2019-05-30T12:57:02.000Z</time>
      </trkpt>
      <trkpt lat="43.42648" lon="6.65177">
        <ele>110.59999847412</ele>
        <time>2019-05-30T12:57:03.000Z</time>
      </trkpt>
      <trkpt lat="43.42631" lon="6.65168">
        <ele>111.59999847412</ele>
        <time>2019-05-30T12:57:08.000Z</time>
      </trkpt>
      <trkpt lat="43.42628" lon="6.65167">
        <ele>111.80000305176</ele>
        <time>2019-05-30T12:57:09.000Z</time>
      </trkpt>
      <trkpt lat="43.42612" lon="6.65157">
        <ele>112</ele>
        <time>2019-05-30T12:57:14.000Z</time>
      </trkpt>
      <trkpt lat="43.42591" lon="6.65139">
        <ele>111.80000305176</ele>
        <time>2019-05-30T12:57:20.000Z</time>
      </trkpt>
      <trkpt lat="43.42588" lon="6.65136">
        <ele>111.80000305176</ele>
        <time>2019-05-30T12:57:21.000Z</time>
      </trkpt>
      <trkpt lat="43.42576" lon="6.65122">
        <ele>112.19999694824</ele>
        <time>2019-05-30T12:57:25.000Z</time>
      </trkpt>
      <trkpt lat="43.42557" lon="6.65107">
        <ele>112.19999694824</ele>
        <time>2019-05-30T12:57:31.000Z</time>
      </trkpt>
      <trkpt lat="43.42539" lon="6.65085">
        <ele>112</ele>
        <time>2019-05-30T12:57:38.000Z</time>
      </trkpt>
      <trkpt lat="43.42527" lon="6.65068">
        <ele>113</ele>
        <time>2019-05-30T12:57:43.000Z</time>
      </trkpt>
      <trkpt lat="43.42522" lon="6.65061">
        <ele>113.19999694824</ele>
        <time>2019-05-30T12:57:45.000Z</time>
      </trkpt>
      <trkpt lat="43.42508" lon="6.65034">
        <ele>113.19999694824</ele>
        <time>2019-05-30T12:57:52.000Z</time>
      </trkpt>
      <trkpt lat="43.42503" lon="6.65013">
        <ele>114.19999694824</ele>
        <time>2019-05-30T12:57:57.000Z</time>
      </trkpt>
      <trkpt lat="43.42502" lon="6.65008">
        <ele>114.40000152588</ele>
        <time>2019-05-30T12:57:58.000Z</time>
      </trkpt>
      <trkpt lat="43.42492" lon="6.64979">
        <ele>115</ele>
        <time>2019-05-30T12:58:05.000Z</time>
      </trkpt>
      <trkpt lat="43.42489" lon="6.64977">
        <ele>115.19999694824</ele>
        <time>2019-05-30T12:58:06.000Z</time>
      </trkpt>
      <trkpt lat="43.42483" lon="6.64977">
        <ele>115.40000152588</ele>
        <time>2019-05-30T12:58:08.000Z</time>
      </trkpt>
      <trkpt lat="43.42478" lon="6.64987">
        <ele>115.19999694824</ele>
        <time>2019-05-30T12:58:11.000Z</time>
      </trkpt>
      <trkpt lat="43.42466" lon="6.65005">
        <ele>116.19999694824</ele>
        <time>2019-05-30T12:58:17.000Z</time>
      </trkpt>
      <trkpt lat="43.42463" lon="6.65008">
        <ele>116.40000152588</ele>
        <time>2019-05-30T12:58:18.000Z</time>
      </trkpt>
      <trkpt lat="43.42451" lon="6.65012">
        <ele>116.19999694824</ele>
        <time>2019-05-30T12:58:22.000Z</time>
      </trkpt>
      <trkpt lat="43.42428" lon="6.65003">
        <ele>116.40000152588</ele>
        <time>2019-05-30T12:58:29.000Z</time>
      </trkpt>
      <trkpt lat="43.42414" lon="6.64991">
        <ele>117</ele>
        <time>2019-05-30T12:58:34.000Z</time>
      </trkpt>
      <trkpt lat="43.42397" lon="6.64969">
        <ele>117.19999694824</ele>
        <time>2019-05-30T12:58:41.000Z</time>
      </trkpt>
      <trkpt lat="43.42396" lon="6.64966">
        <ele>117.59999847412</ele>
        <time>2019-05-30T12:58:42.000Z</time>
      </trkpt>
      <trkpt lat="43.42388" lon="6.64942">
        <ele>118.40000152588</ele>
        <time>2019-05-30T12:58:48.000Z</time>
      </trkpt>
      <trkpt lat="43.42386" lon="6.64938">
        <ele>118.59999847412</ele>
        <time>2019-05-30T12:58:49.000Z</time>
      </trkpt>
      <trkpt lat="43.42379" lon="6.64927">
        <ele>119.40000152588</ele>
        <time>2019-05-30T12:58:53.000Z</time>
      </trkpt>
      <trkpt lat="43.42376" lon="6.64927">
        <ele>119.59999847412</ele>
        <time>2019-05-30T12:58:54.000Z</time>
      </trkpt>
      <trkpt lat="43.42373" lon="6.6493">
        <ele>119.59999847412</ele>
        <time>2019-05-30T12:58:55.000Z</time>
      </trkpt>
      <trkpt lat="43.4237" lon="6.64938">
        <ele>119.59999847412</ele>
        <time>2019-05-30T12:58:57.000Z</time>
      </trkpt>
      <trkpt lat="43.42369" lon="6.64942">
        <ele>119.40000152588</ele>
        <time>2019-05-30T12:58:58.000Z</time>
      </trkpt>
      <trkpt lat="43.42362" lon="6.64963">
        <ele>120.80000305176</ele>
        <time>2019-05-30T12:59:03.000Z</time>
      </trkpt>
      <trkpt lat="43.42357" lon="6.6497">
        <ele>121.19999694824</ele>
        <time>2019-05-30T12:59:05.000Z</time>
      </trkpt>
      <trkpt lat="43.42347" lon="6.64974">
        <ele>121.40000152588</ele>
        <time>2019-05-30T12:59:09.000Z</time>
      </trkpt>
      <trkpt lat="43.42341" lon="6.64974">
        <ele>122.19999694824</ele>
        <time>2019-05-30T12:59:12.000Z</time>
      </trkpt>
      <trkpt lat="43.42334" lon="6.64973">
        <ele>123.19999694824</ele>
        <time>2019-05-30T12:59:16.000Z</time>
      </trkpt>
      <trkpt lat="43.42332" lon="6.64973">
        <ele>123.59999847412</ele>
        <time>2019-05-30T12:59:17.000Z</time>
      </trkpt>
      <trkpt lat="43.42326" lon="6.6497">
        <ele>124.40000152588</ele>
        <time>2019-05-30T12:59:20.000Z</time>
      </trkpt>
      <trkpt lat="43.42319" lon="6.64968">
        <ele>125.40000152588</ele>
        <time>2019-05-30T12:59:24.000Z</time>
      </trkpt>
      <trkpt lat="43.42318" lon="6.64967">
        <ele>125.59999847412</ele>
        <time>2019-05-30T12:59:25.000Z</time>
      </trkpt>
      <trkpt lat="43.42309" lon="6.64965">
        <ele>126.40000152588</ele>
        <time>2019-05-30T12:59:29.000Z</time>
      </trkpt>
      <trkpt lat="43.42303" lon="6.64962">
        <ele>126.59999847412</ele>
        <time>2019-05-30T12:59:32.000Z</time>
      </trkpt>
      <trkpt lat="43.42284" lon="6.64955">
        <ele>127.59999847412</ele>
        <time>2019-05-30T12:59:41.000Z</time>
      </trkpt>
      <trkpt lat="43.42281" lon="6.64954">
        <ele>127.80000305176</ele>
        <time>2019-05-30T12:59:42.000Z</time>
      </trkpt>
      <trkpt lat="43.42261" lon="6.64944">
        <ele>127</ele>
        <time>2019-05-30T12:59:48.000Z</time>
      </trkpt>
      <trkpt lat="43.42245" lon="6.64946">
        <ele>126.59999847412</ele>
        <time>2019-05-30T12:59:53.000Z</time>
      </trkpt>
      <trkpt lat="43.42236" lon="6.64958">
        <ele>128.39999389648</ele>
        <time>2019-05-30T12:59:58.000Z</time>
      </trkpt>
      <trkpt lat="43.42234" lon="6.6496">
        <ele>128.80000305176</ele>
        <time>2019-05-30T12:59:59.000Z</time>
      </trkpt>
      <trkpt lat="43.42217" lon="6.64974">
        <ele>129.60000610352</ele>
        <time>2019-05-30T13:00:05.000Z</time>
      </trkpt>
      <trkpt lat="43.42215" lon="6.64978">
        <ele>129.80000305176</ele>
        <time>2019-05-30T13:00:06.000Z</time>
      </trkpt>
      <trkpt lat="43.42203" lon="6.64995">
        <ele>129.80000305176</ele>
        <time>2019-05-30T13:00:11.000Z</time>
      </trkpt>
      <trkpt lat="43.42199" lon="6.64999">
        <ele>130</ele>
        <time>2019-05-30T13:00:12.000Z</time>
      </trkpt>
      <trkpt lat="43.42192" lon="6.65002">
        <ele>130</ele>
        <time>2019-05-30T13:00:14.000Z</time>
      </trkpt>
      <trkpt lat="43.42181" lon="6.64997">
        <ele>129.39999389648</ele>
        <time>2019-05-30T13:00:18.000Z</time>
      </trkpt>
      <trkpt lat="43.42178" lon="6.64994">
        <ele>129.60000610352</ele>
        <time>2019-05-30T13:00:19.000Z</time>
      </trkpt>
      <trkpt lat="43.42163" lon="6.64974">
        <ele>128.80000305176</ele>
        <time>2019-05-30T13:00:24.000Z</time>
      </trkpt>
      <trkpt lat="43.42148" lon="6.6495">
        <ele>129.19999694824</ele>
        <time>2019-05-30T13:00:30.000Z</time>
      </trkpt>
      <trkpt lat="43.42133" lon="6.64921">
        <ele>129.60000610352</ele>
        <time>2019-05-30T13:00:36.000Z</time>
      </trkpt>
      <trkpt lat="43.42128" lon="6.64905">
        <ele>129.80000305176</ele>
        <time>2019-05-30T13:00:39.000Z</time>
      </trkpt>
      <trkpt lat="43.42125" lon="6.64894">
        <ele>130.19999694824</ele>
        <time>2019-05-30T13:00:41.000Z</time>
      </trkpt>
      <trkpt lat="43.42112" lon="6.64889">
        <ele>130</ele>
        <time>2019-05-30T13:00:44.000Z</time>
      </trkpt>
      <trkpt lat="43.42104" lon="6.64892">
        <ele>129.39999389648</ele>
        <time>2019-05-30T13:00:46.000Z</time>
      </trkpt>
      <trkpt lat="43.42095" lon="6.64896">
        <ele>129.39999389648</ele>
        <time>2019-05-30T13:00:48.000Z</time>
      </trkpt>
      <trkpt lat="43.42088" lon="6.64902">
        <ele>130</ele>
        <time>2019-05-30T13:00:50.000Z</time>
      </trkpt>
      <trkpt lat="43.42077" lon="6.6491">
        <ele>130.19999694824</ele>
        <time>2019-05-30T13:00:53.000Z</time>
      </trkpt>
      <trkpt lat="43.42063" lon="6.64913">
        <ele>130.39999389648</ele>
        <time>2019-05-30T13:00:56.000Z</time>
      </trkpt>
      <trkpt lat="43.4205" lon="6.64901">
        <ele>130.80000305176</ele>
        <time>2019-05-30T13:01:00.000Z</time>
      </trkpt>
      <trkpt lat="43.42031" lon="6.64881">
        <ele>130.60000610352</ele>
        <time>2019-05-30T13:01:05.000Z</time>
      </trkpt>
      <trkpt lat="43.42024" lon="6.64872">
        <ele>130.60000610352</ele>
        <time>2019-05-30T13:01:07.000Z</time>
      </trkpt>
      <trkpt lat="43.41994" lon="6.64842">
        <ele>130.60000610352</ele>
        <time>2019-05-30T13:01:15.000Z</time>
      </trkpt>
      <trkpt lat="43.4199" lon="6.64838">
        <ele>130.60000610352</ele>
        <time>2019-05-30T13:01:16.000Z</time>
      </trkpt>
      <trkpt lat="43.41972" lon="6.64816">
        <ele>130.19999694824</ele>
        <time>2019-05-30T13:01:21.000Z</time>
      </trkpt>
      <trkpt lat="43.41964" lon="6.64806">
        <ele>130</ele>
        <time>2019-05-30T13:01:23.000Z</time>
      </trkpt>
      <trkpt lat="43.41954" lon="6.64799">
        <ele>129.80000305176</ele>
        <time>2019-05-30T13:01:25.000Z</time>
      </trkpt>
      <trkpt lat="43.41949" lon="6.64797">
        <ele>129.80000305176</ele>
        <time>2019-05-30T13:01:26.000Z</time>
      </trkpt>
      <trkpt lat="43.41945" lon="6.64795">
        <ele>129.60000610352</ele>
        <time>2019-05-30T13:01:27.000Z</time>
      </trkpt>
      <trkpt lat="43.41931" lon="6.64787">
        <ele>129.39999389648</ele>
        <time>2019-05-30T13:01:30.000Z</time>
      </trkpt>
      <trkpt lat="43.41927" lon="6.64783">
        <ele>129.19999694824</ele>
        <time>2019-05-30T13:01:31.000Z</time>
      </trkpt>
      <trkpt lat="43.41915" lon="6.64769">
        <ele>129.60000610352</ele>
        <time>2019-05-30T13:01:34.000Z</time>
      </trkpt>
      <trkpt lat="43.41909" lon="6.64758">
        <ele>129.80000305176</ele>
        <time>2019-05-30T13:01:36.000Z</time>
      </trkpt>
      <trkpt lat="43.41906" lon="6.64752">
        <ele>129.80000305176</ele>
        <time>2019-05-30T13:01:37.000Z</time>
      </trkpt>
      <trkpt lat="43.41894" lon="6.64712">
        <ele>129</ele>
        <time>2019-05-30T13:01:43.000Z</time>
      </trkpt>
      <trkpt lat="43.41894" lon="6.64704">
        <ele>129</ele>
        <time>2019-05-30T13:01:44.000Z</time>
      </trkpt>
      <trkpt lat="43.41894" lon="6.64697">
        <ele>128.80000305176</ele>
        <time>2019-05-30T13:01:45.000Z</time>
      </trkpt>
      <trkpt lat="43.41896" lon="6.6469">
        <ele>128.60000610352</ele>
        <time>2019-05-30T13:01:46.000Z</time>
      </trkpt>
      <trkpt lat="43.41903" lon="6.64678">
        <ele>128.60000610352</ele>
        <time>2019-05-30T13:01:48.000Z</time>
      </trkpt>
      <trkpt lat="43.4191" lon="6.64666">
        <ele>128.80000305176</ele>
        <time>2019-05-30T13:01:50.000Z</time>
      </trkpt>
      <trkpt lat="43.41913" lon="6.64658">
        <ele>128.60000610352</ele>
        <time>2019-05-30T13:01:51.000Z</time>
      </trkpt>
      <trkpt lat="43.41916" lon="6.64636">
        <ele>127.59999847412</ele>
        <time>2019-05-30T13:01:54.000Z</time>
      </trkpt>
      <trkpt lat="43.41926" lon="6.64608">
        <ele>128</ele>
        <time>2019-05-30T13:01:59.000Z</time>
      </trkpt>
      <trkpt lat="43.41944" lon="6.64594">
        <ele>128.19999694824</ele>
        <time>2019-05-30T13:02:03.000Z</time>
      </trkpt>
      <trkpt lat="43.41959" lon="6.64575">
        <ele>127.59999847412</ele>
        <time>2019-05-30T13:02:07.000Z</time>
      </trkpt>
      <trkpt lat="43.41969" lon="6.64548">
        <ele>127.40000152588</ele>
        <time>2019-05-30T13:02:11.000Z</time>
      </trkpt>
      <trkpt lat="43.41975" lon="6.64535">
        <ele>127.19999694824</ele>
        <time>2019-05-30T13:02:13.000Z</time>
      </trkpt>
      <trkpt lat="43.41981" lon="6.64522">
        <ele>127</ele>
        <time>2019-05-30T13:02:15.000Z</time>
      </trkpt>
      <trkpt lat="43.41978" lon="6.64508">
        <ele>127</ele>
        <time>2019-05-30T13:02:17.000Z</time>
      </trkpt>
      <trkpt lat="43.41968" lon="6.64506">
        <ele>127.19999694824</ele>
        <time>2019-05-30T13:02:19.000Z</time>
      </trkpt>
      <trkpt lat="43.4195" lon="6.64506">
        <ele>127.19999694824</ele>
        <time>2019-05-30T13:02:23.000Z</time>
      </trkpt>
      <trkpt lat="43.41945" lon="6.64506">
        <ele>127.40000152588</ele>
        <time>2019-05-30T13:02:24.000Z</time>
      </trkpt>
      <trkpt lat="43.41931" lon="6.64514">
        <ele>127.80000305176</ele>
        <time>2019-05-30T13:02:27.000Z</time>
      </trkpt>
      <trkpt lat="43.41926" lon="6.64517">
        <ele>127.80000305176</ele>
        <time>2019-05-30T13:02:28.000Z</time>
      </trkpt>
      <trkpt lat="43.41922" lon="6.6452">
        <ele>127.40000152588</ele>
        <time>2019-05-30T13:02:29.000Z</time>
      </trkpt>
      <trkpt lat="43.41911" lon="6.64522">
        <ele>127.40000152588</ele>
        <time>2019-05-30T13:02:31.000Z</time>
      </trkpt>
      <trkpt lat="43.41891" lon="6.64514">
        <ele>127.19999694824</ele>
        <time>2019-05-30T13:02:35.000Z</time>
      </trkpt>
      <trkpt lat="43.41884" lon="6.64495">
        <ele>127.19999694824</ele>
        <time>2019-05-30T13:02:38.000Z</time>
      </trkpt>
      <trkpt lat="43.41876" lon="6.64479">
        <ele>126.80000305176</ele>
        <time>2019-05-30T13:02:41.000Z</time>
      </trkpt>
      <trkpt lat="43.41868" lon="6.64483">
        <ele>126.59999847412</ele>
        <time>2019-05-30T13:02:43.000Z</time>
      </trkpt>
      <trkpt lat="43.41863" lon="6.64492">
        <ele>126.59999847412</ele>
        <time>2019-05-30T13:02:45.000Z</time>
      </trkpt>
      <trkpt lat="43.41861" lon="6.64497">
        <ele>126.59999847412</ele>
        <time>2019-05-30T13:02:46.000Z</time>
      </trkpt>
      <trkpt lat="43.41855" lon="6.64506">
        <ele>127</ele>
        <time>2019-05-30T13:02:48.000Z</time>
      </trkpt>
      <trkpt lat="43.41852" lon="6.6451">
        <ele>127.19999694824</ele>
        <time>2019-05-30T13:02:49.000Z</time>
      </trkpt>
      <trkpt lat="43.41837" lon="6.64524">
        <ele>127.40000152588</ele>
        <time>2019-05-30T13:02:53.000Z</time>
      </trkpt>
      <trkpt lat="43.41813" lon="6.64533">
        <ele>127.19999694824</ele>
        <time>2019-05-30T13:02:58.000Z</time>
      </trkpt>
      <trkpt lat="43.41804" lon="6.64533">
        <ele>127.40000152588</ele>
        <time>2019-05-30T13:03:00.000Z</time>
      </trkpt>
      <trkpt lat="43.41795" lon="6.64533">
        <ele>127.59999847412</ele>
        <time>2019-05-30T13:03:02.000Z</time>
      </trkpt>
      <trkpt lat="43.41791" lon="6.64531">
        <ele>127.59999847412</ele>
        <time>2019-05-30T13:03:03.000Z</time>
      </trkpt>
      <trkpt lat="43.41786" lon="6.64529">
        <ele>127.59999847412</ele>
        <time>2019-05-30T13:03:04.000Z</time>
      </trkpt>
      <trkpt lat="43.41764" lon="6.64515">
        <ele>127.40000152588</ele>
        <time>2019-05-30T13:03:09.000Z</time>
      </trkpt>
      <trkpt lat="43.41759" lon="6.64512">
        <ele>127.40000152588</ele>
        <time>2019-05-30T13:03:10.000Z</time>
      </trkpt>
      <trkpt lat="43.41743" lon="6.64506">
        <ele>126.59999847412</ele>
        <time>2019-05-30T13:03:13.000Z</time>
      </trkpt>
      <trkpt lat="43.41738" lon="6.64503">
        <ele>126.40000152588</ele>
        <time>2019-05-30T13:03:14.000Z</time>
      </trkpt>
      <trkpt lat="43.41734" lon="6.64498">
        <ele>125.80000305176</ele>
        <time>2019-05-30T13:03:15.000Z</time>
      </trkpt>
      <trkpt lat="43.41732" lon="6.64493">
        <ele>125.40000152588</ele>
        <time>2019-05-30T13:03:16.000Z</time>
      </trkpt>
      <trkpt lat="43.41724" lon="6.64474">
        <ele>124</ele>
        <time>2019-05-30T13:03:19.000Z</time>
      </trkpt>
      <trkpt lat="43.41715" lon="6.64455">
        <ele>123.59999847412</ele>
        <time>2019-05-30T13:03:22.000Z</time>
      </trkpt>
      <trkpt lat="43.41704" lon="6.64448">
        <ele>123.59999847412</ele>
        <time>2019-05-30T13:03:24.000Z</time>
      </trkpt>
      <trkpt lat="43.41689" lon="6.64452">
        <ele>123.40000152588</ele>
        <time>2019-05-30T13:03:27.000Z</time>
      </trkpt>
      <trkpt lat="43.41674" lon="6.64447">
        <ele>123.40000152588</ele>
        <time>2019-05-30T13:03:30.000Z</time>
      </trkpt>
      <trkpt lat="43.41659" lon="6.64438">
        <ele>123.19999694824</ele>
        <time>2019-05-30T13:03:34.000Z</time>
      </trkpt>
      <trkpt lat="43.41656" lon="6.64442">
        <ele>123</ele>
        <time>2019-05-30T13:03:35.000Z</time>
      </trkpt>
      <trkpt lat="43.41654" lon="6.64447">
        <ele>122.59999847412</ele>
        <time>2019-05-30T13:03:36.000Z</time>
      </trkpt>
      <trkpt lat="43.41651" lon="6.64451">
        <ele>122.40000152588</ele>
        <time>2019-05-30T13:03:37.000Z</time>
      </trkpt>
      <trkpt lat="43.41648" lon="6.64454">
        <ele>122.19999694824</ele>
        <time>2019-05-30T13:03:38.000Z</time>
      </trkpt>
      <trkpt lat="43.4164" lon="6.64453">
        <ele>122.40000152588</ele>
        <time>2019-05-30T13:03:40.000Z</time>
      </trkpt>
      <trkpt lat="43.41634" lon="6.64446">
        <ele>122.80000305176</ele>
        <time>2019-05-30T13:03:42.000Z</time>
      </trkpt>
      <trkpt lat="43.41622" lon="6.64433">
        <ele>123</ele>
        <time>2019-05-30T13:03:45.000Z</time>
      </trkpt>
      <trkpt lat="43.41608" lon="6.64421">
        <ele>122</ele>
        <time>2019-05-30T13:03:48.000Z</time>
      </trkpt>
      <trkpt lat="43.41599" lon="6.64414">
        <ele>120.59999847412</ele>
        <time>2019-05-30T13:03:50.000Z</time>
      </trkpt>
      <trkpt lat="43.41589" lon="6.6441">
        <ele>119.59999847412</ele>
        <time>2019-05-30T13:03:52.000Z</time>
      </trkpt>
      <trkpt lat="43.41569" lon="6.644">
        <ele>120.40000152588</ele>
        <time>2019-05-30T13:03:56.000Z</time>
      </trkpt>
      <trkpt lat="43.41564" lon="6.64398">
        <ele>120.80000305176</ele>
        <time>2019-05-30T13:03:57.000Z</time>
      </trkpt>
      <trkpt lat="43.4154" lon="6.64391">
        <ele>120.19999694824</ele>
        <time>2019-05-30T13:04:01.000Z</time>
      </trkpt>
      <trkpt lat="43.41534" lon="6.64391">
        <ele>119.80000305176</ele>
        <time>2019-05-30T13:04:02.000Z</time>
      </trkpt>
      <trkpt lat="43.41517" lon="6.64385">
        <ele>119.40000152588</ele>
        <time>2019-05-30T13:04:05.000Z</time>
      </trkpt>
      <trkpt lat="43.41511" lon="6.64381">
        <ele>119.19999694824</ele>
        <time>2019-05-30T13:04:06.000Z</time>
      </trkpt>
      <trkpt lat="43.41496" lon="6.64367">
        <ele>119.19999694824</ele>
        <time>2019-05-30T13:04:09.000Z</time>
      </trkpt>
      <trkpt lat="43.41486" lon="6.6436">
        <ele>118.80000305176</ele>
        <time>2019-05-30T13:04:11.000Z</time>
      </trkpt>
      <trkpt lat="43.41481" lon="6.64355">
        <ele>118.80000305176</ele>
        <time>2019-05-30T13:04:12.000Z</time>
      </trkpt>
      <trkpt lat="43.41476" lon="6.6435">
        <ele>118.59999847412</ele>
        <time>2019-05-30T13:04:13.000Z</time>
      </trkpt>
      <trkpt lat="43.41469" lon="6.64338">
        <ele>118.40000152588</ele>
        <time>2019-05-30T13:04:15.000Z</time>
      </trkpt>
      <trkpt lat="43.41462" lon="6.6431">
        <ele>118.80000305176</ele>
        <time>2019-05-30T13:04:19.000Z</time>
      </trkpt>
      <trkpt lat="43.41462" lon="6.64278">
        <ele>118.40000152588</ele>
        <time>2019-05-30T13:04:23.000Z</time>
      </trkpt>
      <trkpt lat="43.41461" lon="6.6427">
        <ele>118</ele>
        <time>2019-05-30T13:04:24.000Z</time>
      </trkpt>
      <trkpt lat="43.41461" lon="6.64256">
        <ele>117.80000305176</ele>
        <time>2019-05-30T13:04:26.000Z</time>
      </trkpt>
      <trkpt lat="43.41463" lon="6.64242">
        <ele>117.59999847412</ele>
        <time>2019-05-30T13:04:28.000Z</time>
      </trkpt>
      <trkpt lat="43.41464" lon="6.64217">
        <ele>117.80000305176</ele>
        <time>2019-05-30T13:04:32.000Z</time>
      </trkpt>
      <trkpt lat="43.41462" lon="6.64212">
        <ele>117.59999847412</ele>
        <time>2019-05-30T13:04:33.000Z</time>
      </trkpt>
      <trkpt lat="43.41457" lon="6.64209">
        <ele>117.59999847412</ele>
        <time>2019-05-30T13:04:35.000Z</time>
      </trkpt>
      <trkpt lat="43.41448" lon="6.64217">
        <ele>117.59999847412</ele>
        <time>2019-05-30T13:04:38.000Z</time>
      </trkpt>
      <trkpt lat="43.41434" lon="6.64228">
        <ele>118</ele>
        <time>2019-05-30T13:04:42.000Z</time>
      </trkpt>
      <trkpt lat="43.41429" lon="6.64231">
        <ele>118</ele>
        <time>2019-05-30T13:04:43.000Z</time>
      </trkpt>
      <trkpt lat="43.41411" lon="6.64229">
        <ele>117.40000152588</ele>
        <time>2019-05-30T13:04:47.000Z</time>
      </trkpt>
      <trkpt lat="43.41394" lon="6.64212">
        <ele>117</ele>
        <time>2019-05-30T13:04:51.000Z</time>
      </trkpt>
      <trkpt lat="43.41384" lon="6.64206">
        <ele>116.80000305176</ele>
        <time>2019-05-30T13:04:53.000Z</time>
      </trkpt>
      <trkpt lat="43.41379" lon="6.64204">
        <ele>116.59999847412</ele>
        <time>2019-05-30T13:04:54.000Z</time>
      </trkpt>
      <trkpt lat="43.41357" lon="6.64191">
        <ele>115.40000152588</ele>
        <time>2019-05-30T13:04:59.000Z</time>
      </trkpt>
      <trkpt lat="43.41348" lon="6.64184">
        <ele>114.80000305176</ele>
        <time>2019-05-30T13:05:01.000Z</time>
      </trkpt>
      <trkpt lat="43.41344" lon="6.64181">
        <ele>114.59999847412</ele>
        <time>2019-05-30T13:05:02.000Z</time>
      </trkpt>
      <trkpt lat="43.41325" lon="6.64166">
        <ele>116</ele>
        <time>2019-05-30T13:05:06.000Z</time>
      </trkpt>
      <trkpt lat="43.41316" lon="6.64159">
        <ele>116</ele>
        <time>2019-05-30T13:05:08.000Z</time>
      </trkpt>
      <trkpt lat="43.41309" lon="6.6415">
        <ele>115.40000152588</ele>
        <time>2019-05-30T13:05:10.000Z</time>
      </trkpt>
      <trkpt lat="43.41303" lon="6.6414">
        <ele>115</ele>
        <time>2019-05-30T13:05:12.000Z</time>
      </trkpt>
      <trkpt lat="43.413" lon="6.64137">
        <ele>115.19999694824</ele>
        <time>2019-05-30T13:05:13.000Z</time>
      </trkpt>
      <trkpt lat="43.41296" lon="6.64136">
        <ele>115.40000152588</ele>
        <time>2019-05-30T13:05:14.000Z</time>
      </trkpt>
      <trkpt lat="43.4128" lon="6.64136">
        <ele>115.40000152588</ele>
        <time>2019-05-30T13:05:18.000Z</time>
      </trkpt>
      <trkpt lat="43.41257" lon="6.64124">
        <ele>116.40000152588</ele>
        <time>2019-05-30T13:05:25.000Z</time>
      </trkpt>
      <trkpt lat="43.41253" lon="6.64123">
        <ele>116.59999847412</ele>
        <time>2019-05-30T13:05:26.000Z</time>
      </trkpt>
      <trkpt lat="43.41235" lon="6.64119">
        <ele>117.19999694824</ele>
        <time>2019-05-30T13:05:31.000Z</time>
      </trkpt>
      <trkpt lat="43.41226" lon="6.64117">
        <ele>117.80000305176</ele>
        <time>2019-05-30T13:05:34.000Z</time>
      </trkpt>
      <trkpt lat="43.41216" lon="6.64114">
        <ele>118.59999847412</ele>
        <time>2019-05-30T13:05:37.000Z</time>
      </trkpt>
      <trkpt lat="43.41198" lon="6.6411">
        <ele>118.80000305176</ele>
        <time>2019-05-30T13:05:42.000Z</time>
      </trkpt>
      <trkpt lat="43.41179" lon="6.64102">
        <ele>118.40000152588</ele>
        <time>2019-05-30T13:05:48.000Z</time>
      </trkpt>
      <trkpt lat="43.41174" lon="6.64099">
        <ele>119</ele>
        <time>2019-05-30T13:05:50.000Z</time>
      </trkpt>
      <trkpt lat="43.41169" lon="6.64097">
        <ele>120.19999694824</ele>
        <time>2019-05-30T13:05:52.000Z</time>
      </trkpt>
      <trkpt lat="43.4116" lon="6.64094">
        <ele>120.59999847412</ele>
        <time>2019-05-30T13:05:55.000Z</time>
      </trkpt>
      <trkpt lat="43.41135" lon="6.64088">
        <ele>120.80000305176</ele>
        <time>2019-05-30T13:06:03.000Z</time>
      </trkpt>
      <trkpt lat="43.41133" lon="6.64088">
        <ele>121.19999694824</ele>
        <time>2019-05-30T13:06:04.000Z</time>
      </trkpt>
      <trkpt lat="43.41122" lon="6.64087">
        <ele>122.40000152588</ele>
        <time>2019-05-30T13:06:08.000Z</time>
      </trkpt>
      <trkpt lat="43.41111" lon="6.64086">
        <ele>122.80000305176</ele>
        <time>2019-05-30T13:06:12.000Z</time>
      </trkpt>
      <trkpt lat="43.4109" lon="6.64083">
        <ele>123.40000152588</ele>
        <time>2019-05-30T13:06:19.000Z</time>
      </trkpt>
      <trkpt lat="43.41069" lon="6.64085">
        <ele>124.59999847412</ele>
        <time>2019-05-30T13:06:27.000Z</time>
      </trkpt>
      <trkpt lat="43.41051" lon="6.64082">
        <ele>125</ele>
        <time>2019-05-30T13:06:34.000Z</time>
      </trkpt>
      <trkpt lat="43.41044" lon="6.6408">
        <ele>126</ele>
        <time>2019-05-30T13:06:37.000Z</time>
      </trkpt>
      <trkpt lat="43.41036" lon="6.64078">
        <ele>127</ele>
        <time>2019-05-30T13:06:40.000Z</time>
      </trkpt>
      <trkpt lat="43.41031" lon="6.64077">
        <ele>127.19999694824</ele>
        <time>2019-05-30T13:06:42.000Z</time>
      </trkpt>
      <trkpt lat="43.41016" lon="6.64072">
        <ele>127</ele>
        <time>2019-05-30T13:06:48.000Z</time>
      </trkpt>
      <trkpt lat="43.41004" lon="6.6407">
        <ele>128</ele>
        <time>2019-05-30T13:06:53.000Z</time>
      </trkpt>
      <trkpt lat="43.40999" lon="6.64069">
        <ele>128.19999694824</ele>
        <time>2019-05-30T13:06:55.000Z</time>
      </trkpt>
      <trkpt lat="43.40991" lon="6.64065">
        <ele>129</ele>
        <time>2019-05-30T13:06:59.000Z</time>
      </trkpt>
      <trkpt lat="43.4098" lon="6.64058">
        <ele>129.60000610352</ele>
        <time>2019-05-30T13:07:04.000Z</time>
      </trkpt>
      <trkpt lat="43.40971" lon="6.64049">
        <ele>130.19999694824</ele>
        <time>2019-05-30T13:07:09.000Z</time>
      </trkpt>
      <trkpt lat="43.40967" lon="6.64046">
        <ele>130.60000610352</ele>
        <time>2019-05-30T13:07:11.000Z</time>
      </trkpt>
      <trkpt lat="43.40962" lon="6.64041">
        <ele>131.39999389648</ele>
        <time>2019-05-30T13:07:14.000Z</time>
      </trkpt>
      <trkpt lat="43.40955" lon="6.64037">
        <ele>132.19999694824</ele>
        <time>2019-05-30T13:07:18.000Z</time>
      </trkpt>
      <trkpt lat="43.40951" lon="6.64036">
        <ele>132.39999389648</ele>
        <time>2019-05-30T13:07:20.000Z</time>
      </trkpt>
      <trkpt lat="43.40938" lon="6.64035">
        <ele>132.80000305176</ele>
        <time>2019-05-30T13:07:25.000Z</time>
      </trkpt>
      <trkpt lat="43.40922" lon="6.64031">
        <ele>133.39999389648</ele>
        <time>2019-05-30T13:07:31.000Z</time>
      </trkpt>
      <trkpt lat="43.4092" lon="6.64031">
        <ele>133.80000305176</ele>
        <time>2019-05-30T13:07:32.000Z</time>
      </trkpt>
      <trkpt lat="43.40908" lon="6.64031">
        <ele>134.80000305176</ele>
        <time>2019-05-30T13:07:37.000Z</time>
      </trkpt>
      <trkpt lat="43.409" lon="6.64033">
        <ele>135.39999389648</ele>
        <time>2019-05-30T13:07:40.000Z</time>
      </trkpt>
      <trkpt lat="43.40881" lon="6.64042">
        <ele>135.39999389648</ele>
        <time>2019-05-30T13:07:46.000Z</time>
      </trkpt>
      <trkpt lat="43.40873" lon="6.64046">
        <ele>135.80000305176</ele>
        <time>2019-05-30T13:07:49.000Z</time>
      </trkpt>
      <trkpt lat="43.40866" lon="6.64048">
        <ele>136.19999694824</ele>
        <time>2019-05-30T13:07:52.000Z</time>
      </trkpt>
      <trkpt lat="43.40854" lon="6.64051">
        <ele>136.80000305176</ele>
        <time>2019-05-30T13:07:57.000Z</time>
      </trkpt>
      <trkpt lat="43.40852" lon="6.64052">
        <ele>137</ele>
        <time>2019-05-30T13:07:58.000Z</time>
      </trkpt>
      <trkpt lat="43.40837" lon="6.64055">
        <ele>137.39999389648</ele>
        <time>2019-05-30T13:08:04.000Z</time>
      </trkpt>
      <trkpt lat="43.40822" lon="6.64054">
        <ele>138.19999694824</ele>
        <time>2019-05-30T13:08:11.000Z</time>
      </trkpt>
      <trkpt lat="43.4081" lon="6.64057">
        <ele>138.39999389648</ele>
        <time>2019-05-30T13:08:16.000Z</time>
      </trkpt>
      <trkpt lat="43.40798" lon="6.64061">
        <ele>139.19999694824</ele>
        <time>2019-05-30T13:08:21.000Z</time>
      </trkpt>
      <trkpt lat="43.40794" lon="6.64062">
        <ele>139.60000610352</ele>
        <time>2019-05-30T13:08:23.000Z</time>
      </trkpt>
      <trkpt lat="43.40787" lon="6.64063">
        <ele>140.39999389648</ele>
        <time>2019-05-30T13:08:26.000Z</time>
      </trkpt>
      <trkpt lat="43.40777" lon="6.64065">
        <ele>141</ele>
        <time>2019-05-30T13:08:30.000Z</time>
      </trkpt>
      <trkpt lat="43.40768" lon="6.64067">
        <ele>141.60000610352</ele>
        <time>2019-05-30T13:08:34.000Z</time>
      </trkpt>
      <trkpt lat="43.40766" lon="6.64066">
        <ele>141.60000610352</ele>
        <time>2019-05-30T13:08:35.000Z</time>
      </trkpt>
      <trkpt lat="43.40764" lon="6.64067">
        <ele>141.80000305176</ele>
        <time>2019-05-30T13:08:36.000Z</time>
      </trkpt>
      <trkpt lat="43.40749" lon="6.64065">
        <ele>142.39999389648</ele>
        <time>2019-05-30T13:08:43.000Z</time>
      </trkpt>
      <trkpt lat="43.40747" lon="6.64064">
        <ele>142.60000610352</ele>
        <time>2019-05-30T13:08:44.000Z</time>
      </trkpt>
      <trkpt lat="43.40735" lon="6.64061">
        <ele>142.80000305176</ele>
        <time>2019-05-30T13:08:50.000Z</time>
      </trkpt>
      <trkpt lat="43.40733" lon="6.64059">
        <ele>143</ele>
        <time>2019-05-30T13:08:51.000Z</time>
      </trkpt>
      <trkpt lat="43.40729" lon="6.64053">
        <ele>143.60000610352</ele>
        <time>2019-05-30T13:08:54.000Z</time>
      </trkpt>
      <trkpt lat="43.40728" lon="6.64052">
        <ele>143.60000610352</ele>
        <time>2019-05-30T13:08:55.000Z</time>
      </trkpt>
      <trkpt lat="43.40724" lon="6.64045">
        <ele>144.39999389648</ele>
        <time>2019-05-30T13:08:58.000Z</time>
      </trkpt>
      <trkpt lat="43.40721" lon="6.64041">
        <ele>144.80000305176</ele>
        <time>2019-05-30T13:09:00.000Z</time>
      </trkpt>
      <trkpt lat="43.40716" lon="6.64033">
        <ele>145.60000610352</ele>
        <time>2019-05-30T13:09:04.000Z</time>
      </trkpt>
      <trkpt lat="43.40713" lon="6.64029">
        <ele>146.19999694824</ele>
        <time>2019-05-30T13:09:06.000Z</time>
      </trkpt>
      <trkpt lat="43.40707" lon="6.6402">
        <ele>146.60000610352</ele>
        <time>2019-05-30T13:09:11.000Z</time>
      </trkpt>
      <trkpt lat="43.40702" lon="6.64012">
        <ele>147.39999389648</ele>
        <time>2019-05-30T13:09:15.000Z</time>
      </trkpt>
      <trkpt lat="43.40695" lon="6.64001">
        <ele>148.19999694824</ele>
        <time>2019-05-30T13:09:20.000Z</time>
      </trkpt>
      <trkpt lat="43.40693" lon="6.63999">
        <ele>148.39999389648</ele>
        <time>2019-05-30T13:09:21.000Z</time>
      </trkpt>
      <trkpt lat="43.4069" lon="6.63992">
        <ele>149.39999389648</ele>
        <time>2019-05-30T13:09:25.000Z</time>
      </trkpt>
      <trkpt lat="43.40688" lon="6.63988">
        <ele>149.80000305176</ele>
        <time>2019-05-30T13:09:27.000Z</time>
      </trkpt>
      <trkpt lat="43.40681" lon="6.63976">
        <ele>150.39999389648</ele>
        <time>2019-05-30T13:09:33.000Z</time>
      </trkpt>
      <trkpt lat="43.40673" lon="6.63975">
        <ele>150.60000610352</ele>
        <time>2019-05-30T13:09:37.000Z</time>
      </trkpt>
      <trkpt lat="43.40668" lon="6.63987">
        <ele>151.19999694824</ele>
        <time>2019-05-30T13:09:41.000Z</time>
      </trkpt>
      <trkpt lat="43.40667" lon="6.6399">
        <ele>151.39999389648</ele>
        <time>2019-05-30T13:09:42.000Z</time>
      </trkpt>
      <trkpt lat="43.40666" lon="6.63993">
        <ele>151.60000610352</ele>
        <time>2019-05-30T13:09:43.000Z</time>
      </trkpt>
      <trkpt lat="43.40665" lon="6.64003">
        <ele>152.80000305176</ele>
        <time>2019-05-30T13:09:47.000Z</time>
      </trkpt>
      <trkpt lat="43.40664" lon="6.64005">
        <ele>153</ele>
        <time>2019-05-30T13:09:48.000Z</time>
      </trkpt>
      <trkpt lat="43.40663" lon="6.64014">
        <ele>153.80000305176</ele>
        <time>2019-05-30T13:09:52.000Z</time>
      </trkpt>
      <trkpt lat="43.40661" lon="6.6402">
        <ele>154.60000610352</ele>
        <time>2019-05-30T13:09:55.000Z</time>
      </trkpt>
      <trkpt lat="43.40652" lon="6.64031">
        <ele>154.80000305176</ele>
        <time>2019-05-30T13:10:01.000Z</time>
      </trkpt>
      <trkpt lat="43.40651" lon="6.64033">
        <ele>155</ele>
        <time>2019-05-30T13:10:02.000Z</time>
      </trkpt>
      <trkpt lat="43.40645" lon="6.64036">
        <ele>155.19999694824</ele>
        <time>2019-05-30T13:10:05.000Z</time>
      </trkpt>
      <trkpt lat="43.40642" lon="6.64036">
        <ele>155.39999389648</ele>
        <time>2019-05-30T13:10:06.000Z</time>
      </trkpt>
      <trkpt lat="43.40633" lon="6.64036">
        <ele>155.80000305176</ele>
        <time>2019-05-30T13:10:11.000Z</time>
      </trkpt>
      <trkpt lat="43.4063" lon="6.64036">
        <ele>155.80000305176</ele>
        <time>2019-05-30T13:10:13.000Z</time>
      </trkpt>
      <trkpt lat="43.40627" lon="6.64036">
        <ele>155.80000305176</ele>
        <time>2019-05-30T13:10:15.000Z</time>
      </trkpt>
      <trkpt lat="43.40625" lon="6.64036">
        <ele>156</ele>
        <time>2019-05-30T13:10:17.000Z</time>
      </trkpt>
      <trkpt lat="43.40622" lon="6.64036">
        <ele>156.39999389648</ele>
        <time>2019-05-30T13:10:19.000Z</time>
      </trkpt>
      <trkpt lat="43.40619" lon="6.64037">
        <ele>157</ele>
        <time>2019-05-30T13:10:21.000Z</time>
      </trkpt>
      <trkpt lat="43.40612" lon="6.64036">
        <ele>158.19999694824</ele>
        <time>2019-05-30T13:10:25.000Z</time>
      </trkpt>
      <trkpt lat="43.40602" lon="6.64036">
        <ele>159.19999694824</ele>
        <time>2019-05-30T13:10:32.000Z</time>
      </trkpt>
      <trkpt lat="43.40597" lon="6.64035">
        <ele>160.19999694824</ele>
        <time>2019-05-30T13:10:36.000Z</time>
      </trkpt>
      <trkpt lat="43.40592" lon="6.64034">
        <ele>160.60000610352</ele>
        <time>2019-05-30T13:10:39.000Z</time>
      </trkpt>
      <trkpt lat="43.40588" lon="6.64033">
        <ele>161.39999389648</ele>
        <time>2019-05-30T13:10:42.000Z</time>
      </trkpt>
      <trkpt lat="43.40583" lon="6.64033">
        <ele>162.39999389648</ele>
        <time>2019-05-30T13:10:46.000Z</time>
      </trkpt>
      <trkpt lat="43.40577" lon="6.64032">
        <ele>163.80000305176</ele>
        <time>2019-05-30T13:10:50.000Z</time>
      </trkpt>
      <trkpt lat="43.40574" lon="6.64032">
        <ele>164.19999694824</ele>
        <time>2019-05-30T13:10:52.000Z</time>
      </trkpt>
      <trkpt lat="43.40573" lon="6.64032">
        <ele>164.39999389648</ele>
        <time>2019-05-30T13:10:53.000Z</time>
      </trkpt>
      <trkpt lat="43.40568" lon="6.64031">
        <ele>165</ele>
        <time>2019-05-30T13:10:57.000Z</time>
      </trkpt>
      <trkpt lat="43.40567" lon="6.64031">
        <ele>165.19999694824</ele>
        <time>2019-05-30T13:10:58.000Z</time>
      </trkpt>
      <trkpt lat="43.40563" lon="6.6403">
        <ele>166</ele>
        <time>2019-05-30T13:11:02.000Z</time>
      </trkpt>
      <trkpt lat="43.40559" lon="6.6403">
        <ele>166.80000305176</ele>
        <time>2019-05-30T13:11:05.000Z</time>
      </trkpt>
      <trkpt lat="43.40557" lon="6.6403">
        <ele>167</ele>
        <time>2019-05-30T13:11:07.000Z</time>
      </trkpt>
      <trkpt lat="43.4055" lon="6.64029">
        <ele>168.19999694824</ele>
        <time>2019-05-30T13:11:13.000Z</time>
      </trkpt>
      <trkpt lat="43.40539" lon="6.64029">
        <ele>168.80000305176</ele>
        <time>2019-05-30T13:11:20.000Z</time>
      </trkpt>
      <trkpt lat="43.4053" lon="6.64027">
        <ele>169.19999694824</ele>
        <time>2019-05-30T13:11:25.000Z</time>
      </trkpt>
      <trkpt lat="43.40527" lon="6.64028">
        <ele>169.39999389648</ele>
        <time>2019-05-30T13:11:27.000Z</time>
      </trkpt>
      <trkpt lat="43.40514" lon="6.6403">
        <ele>170.19999694824</ele>
        <time>2019-05-30T13:11:35.000Z</time>
      </trkpt>
      <trkpt lat="43.40505" lon="6.64033">
        <ele>171.19999694824</ele>
        <time>2019-05-30T13:11:41.000Z</time>
      </trkpt>
      <trkpt lat="43.40503" lon="6.64033">
        <ele>171.39999389648</ele>
        <time>2019-05-30T13:11:42.000Z</time>
      </trkpt>
      <trkpt lat="43.40492" lon="6.64034">
        <ele>172</ele>
        <time>2019-05-30T13:11:48.000Z</time>
      </trkpt>
      <trkpt lat="43.40481" lon="6.64033">
        <ele>172.39999389648</ele>
        <time>2019-05-30T13:11:54.000Z</time>
      </trkpt>
      <trkpt lat="43.40471" lon="6.64034">
        <ele>173.39999389648</ele>
        <time>2019-05-30T13:12:00.000Z</time>
      </trkpt>
      <trkpt lat="43.40457" lon="6.64036">
        <ele>173.60000610352</ele>
        <time>2019-05-30T13:12:06.000Z</time>
      </trkpt>
      <trkpt lat="43.40441" lon="6.64037">
        <ele>174.80000305176</ele>
        <time>2019-05-30T13:12:13.000Z</time>
      </trkpt>
      <trkpt lat="43.40439" lon="6.64038">
        <ele>175</ele>
        <time>2019-05-30T13:12:14.000Z</time>
      </trkpt>
      <trkpt lat="43.40426" lon="6.64042">
        <ele>175.39999389648</ele>
        <time>2019-05-30T13:12:19.000Z</time>
      </trkpt>
      <trkpt lat="43.40421" lon="6.64044">
        <ele>175.80000305176</ele>
        <time>2019-05-30T13:12:21.000Z</time>
      </trkpt>
      <trkpt lat="43.40413" lon="6.64047">
        <ele>177.19999694824</ele>
        <time>2019-05-30T13:12:25.000Z</time>
      </trkpt>
      <trkpt lat="43.40402" lon="6.64049">
        <ele>178.39999389648</ele>
        <time>2019-05-30T13:12:30.000Z</time>
      </trkpt>
      <trkpt lat="43.4039" lon="6.64052">
        <ele>178.39999389648</ele>
        <time>2019-05-30T13:12:35.000Z</time>
      </trkpt>
      <trkpt lat="43.40376" lon="6.64046">
        <ele>178.80000305176</ele>
        <time>2019-05-30T13:12:42.000Z</time>
      </trkpt>
      <trkpt lat="43.40374" lon="6.64044">
        <ele>179</ele>
        <time>2019-05-30T13:12:46.000Z</time>
      </trkpt>
      <trkpt lat="43.40371" lon="6.64042">
        <ele>179.19999694824</ele>
        <time>2019-05-30T13:12:55.000Z</time>
      </trkpt>
      <trkpt lat="43.40368" lon="6.64039">
        <ele>179.19999694824</ele>
        <time>2019-05-30T13:13:06.000Z</time>
      </trkpt>
      <trkpt lat="43.40366" lon="6.64037">
        <ele>179</ele>
        <time>2019-05-30T13:13:17.000Z</time>
      </trkpt>
      <trkpt lat="43.40365" lon="6.64038">
        <ele>179</ele>
        <time>2019-05-30T13:13:31.000Z</time>
      </trkpt>
      <trkpt lat="43.40362" lon="6.64043">
        <ele>179.19999694824</ele>
        <time>2019-05-30T13:13:38.000Z</time>
      </trkpt>
      <trkpt lat="43.40359" lon="6.64045">
        <ele>178.80000305176</ele>
        <time>2019-05-30T13:13:43.000Z</time>
      </trkpt>
      <trkpt lat="43.40354" lon="6.64043">
        <ele>179</ele>
        <time>2019-05-30T13:13:47.000Z</time>
      </trkpt>
      <trkpt lat="43.40352" lon="6.64043">
        <ele>179</ele>
        <time>2019-05-30T13:13:48.000Z</time>
      </trkpt>
      <trkpt lat="43.4034" lon="6.64047">
        <ele>178.60000610352</ele>
        <time>2019-05-30T13:13:53.000Z</time>
      </trkpt>
      <trkpt lat="43.40334" lon="6.64051">
        <ele>179.60000610352</ele>
        <time>2019-05-30T13:13:57.000Z</time>
      </trkpt>
      <trkpt lat="43.40332" lon="6.64051">
        <ele>180</ele>
        <time>2019-05-30T13:13:59.000Z</time>
      </trkpt>
      <trkpt lat="43.40321" lon="6.64053">
        <ele>180.80000305176</ele>
        <time>2019-05-30T13:14:04.000Z</time>
      </trkpt>
      <trkpt lat="43.40303" lon="6.64054">
        <ele>181.19999694824</ele>
        <time>2019-05-30T13:14:11.000Z</time>
      </trkpt>
      <trkpt lat="43.40288" lon="6.64049">
        <ele>181.80000305176</ele>
        <time>2019-05-30T13:14:16.000Z</time>
      </trkpt>
      <trkpt lat="43.40281" lon="6.64047">
        <ele>182</ele>
        <time>2019-05-30T13:14:18.000Z</time>
      </trkpt>
      <trkpt lat="43.40268" lon="6.64049">
        <ele>182.19999694824</ele>
        <time>2019-05-30T13:14:22.000Z</time>
      </trkpt>
      <trkpt lat="43.40257" lon="6.64053">
        <ele>182.60000610352</ele>
        <time>2019-05-30T13:14:27.000Z</time>
      </trkpt>
      <trkpt lat="43.40256" lon="6.64054">
        <ele>183</ele>
        <time>2019-05-30T13:14:28.000Z</time>
      </trkpt>
      <trkpt lat="43.40251" lon="6.64055">
        <ele>184.19999694824</ele>
        <time>2019-05-30T13:14:32.000Z</time>
      </trkpt>
      <trkpt lat="43.40248" lon="6.64055">
        <ele>184.60000610352</ele>
        <time>2019-05-30T13:14:34.000Z</time>
      </trkpt>
      <trkpt lat="43.40246" lon="6.64055">
        <ele>185</ele>
        <time>2019-05-30T13:14:36.000Z</time>
      </trkpt>
      <trkpt lat="43.40244" lon="6.64055">
        <ele>185.19999694824</ele>
        <time>2019-05-30T13:14:37.000Z</time>
      </trkpt>
      <trkpt lat="43.4024" lon="6.64054">
        <ele>185.39999389648</ele>
        <time>2019-05-30T13:14:39.000Z</time>
      </trkpt>
      <trkpt lat="43.40235" lon="6.64051">
        <ele>185.80000305176</ele>
        <time>2019-05-30T13:14:42.000Z</time>
      </trkpt>
      <trkpt lat="43.4023" lon="6.6405">
        <ele>186.39999389648</ele>
        <time>2019-05-30T13:14:44.000Z</time>
      </trkpt>
      <trkpt lat="43.40226" lon="6.64049">
        <ele>187</ele>
        <time>2019-05-30T13:14:46.000Z</time>
      </trkpt>
      <trkpt lat="43.40222" lon="6.64047">
        <ele>187.39999389648</ele>
        <time>2019-05-30T13:14:48.000Z</time>
      </trkpt>
      <trkpt lat="43.4022" lon="6.64047">
        <ele>187.39999389648</ele>
        <time>2019-05-30T13:14:49.000Z</time>
      </trkpt>
      <trkpt lat="43.40208" lon="6.64041">
        <ele>188.60000610352</ele>
        <time>2019-05-30T13:14:55.000Z</time>
      </trkpt>
      <trkpt lat="43.40196" lon="6.64033">
        <ele>189.80000305176</ele>
        <time>2019-05-30T13:15:01.000Z</time>
      </trkpt>
      <trkpt lat="43.40193" lon="6.64033">
        <ele>189.80000305176</ele>
        <time>2019-05-30T13:15:02.000Z</time>
      </trkpt>
      <trkpt lat="43.40184" lon="6.64039">
        <ele>190.19999694824</ele>
        <time>2019-05-30T13:15:06.000Z</time>
      </trkpt>
      <trkpt lat="43.40179" lon="6.64045">
        <ele>190.80000305176</ele>
        <time>2019-05-30T13:15:09.000Z</time>
      </trkpt>
      <trkpt lat="43.40174" lon="6.64052">
        <ele>192</ele>
        <time>2019-05-30T13:15:13.000Z</time>
      </trkpt>
      <trkpt lat="43.40172" lon="6.64053">
        <ele>192.39999389648</ele>
        <time>2019-05-30T13:15:14.000Z</time>
      </trkpt>
      <trkpt lat="43.40167" lon="6.64059">
        <ele>193.19999694824</ele>
        <time>2019-05-30T13:15:18.000Z</time>
      </trkpt>
      <trkpt lat="43.40163" lon="6.64062">
        <ele>193.60000610352</ele>
        <time>2019-05-30T13:15:21.000Z</time>
      </trkpt>
      <trkpt lat="43.40158" lon="6.64067">
        <ele>194</ele>
        <time>2019-05-30T13:15:25.000Z</time>
      </trkpt>
      <trkpt lat="43.40157" lon="6.64067">
        <ele>194.19999694824</ele>
        <time>2019-05-30T13:15:26.000Z</time>
      </trkpt>
      <trkpt lat="43.40155" lon="6.64067">
        <ele>194.60000610352</ele>
        <time>2019-05-30T13:15:27.000Z</time>
      </trkpt>
      <trkpt lat="43.4015" lon="6.64069">
        <ele>195.39999389648</ele>
        <time>2019-05-30T13:15:30.000Z</time>
      </trkpt>
      <trkpt lat="43.40145" lon="6.64072">
        <ele>195.80000305176</ele>
        <time>2019-05-30T13:15:33.000Z</time>
      </trkpt>
      <trkpt lat="43.40132" lon="6.64078">
        <ele>196.60000610352</ele>
        <time>2019-05-30T13:15:39.000Z</time>
      </trkpt>
      <trkpt lat="43.4013" lon="6.64079">
        <ele>196.80000305176</ele>
        <time>2019-05-30T13:15:40.000Z</time>
      </trkpt>
      <trkpt lat="43.40118" lon="6.64085">
        <ele>197.60000610352</ele>
        <time>2019-05-30T13:15:46.000Z</time>
      </trkpt>
      <trkpt lat="43.40116" lon="6.64086">
        <ele>198</ele>
        <time>2019-05-30T13:15:47.000Z</time>
      </trkpt>
      <trkpt lat="43.40109" lon="6.64087">
        <ele>199</ele>
        <time>2019-05-30T13:15:50.000Z</time>
      </trkpt>
      <trkpt lat="43.40104" lon="6.64088">
        <ele>199.39999389648</ele>
        <time>2019-05-30T13:15:53.000Z</time>
      </trkpt>
      <trkpt lat="43.40101" lon="6.6409">
        <ele>200</ele>
        <time>2019-05-30T13:15:55.000Z</time>
      </trkpt>
      <trkpt lat="43.40093" lon="6.64093">
        <ele>201.39999389648</ele>
        <time>2019-05-30T13:15:59.000Z</time>
      </trkpt>
      <trkpt lat="43.40091" lon="6.64095">
        <ele>201.60000610352</ele>
        <time>2019-05-30T13:16:00.000Z</time>
      </trkpt>
      <trkpt lat="43.40079" lon="6.64101">
        <ele>202.39999389648</ele>
        <time>2019-05-30T13:16:06.000Z</time>
      </trkpt>
      <trkpt lat="43.40075" lon="6.64103">
        <ele>202.80000305176</ele>
        <time>2019-05-30T13:16:08.000Z</time>
      </trkpt>
      <trkpt lat="43.40069" lon="6.64108">
        <ele>203.39999389648</ele>
        <time>2019-05-30T13:16:11.000Z</time>
      </trkpt>
      <trkpt lat="43.40064" lon="6.64114">
        <ele>203.80000305176</ele>
        <time>2019-05-30T13:16:14.000Z</time>
      </trkpt>
      <trkpt lat="43.40052" lon="6.64132">
        <ele>203.80000305176</ele>
        <time>2019-05-30T13:16:22.000Z</time>
      </trkpt>
      <trkpt lat="43.40045" lon="6.64147">
        <ele>204.60000610352</ele>
        <time>2019-05-30T13:16:29.000Z</time>
      </trkpt>
      <trkpt lat="43.40044" lon="6.6415">
        <ele>204.60000610352</ele>
        <time>2019-05-30T13:16:30.000Z</time>
      </trkpt>
      <trkpt lat="43.40045" lon="6.64163">
        <ele>204</ele>
        <time>2019-05-30T13:16:36.000Z</time>
      </trkpt>
      <trkpt lat="43.40047" lon="6.64168">
        <ele>204.60000610352</ele>
        <time>2019-05-30T13:16:41.000Z</time>
      </trkpt>
      <trkpt lat="43.40049" lon="6.64168">
        <ele>205</ele>
        <time>2019-05-30T13:16:45.000Z</time>
      </trkpt>
      <trkpt lat="43.40049" lon="6.64169">
        <ele>204.80000305176</ele>
        <time>2019-05-30T13:16:52.000Z</time>
      </trkpt>
      <trkpt lat="43.40048" lon="6.64171">
        <ele>204.60000610352</ele>
        <time>2019-05-30T13:17:00.000Z</time>
      </trkpt>
      <trkpt lat="43.40047" lon="6.64173">
        <ele>205.19999694824</ele>
        <time>2019-05-30T13:17:08.000Z</time>
      </trkpt>
      <trkpt lat="43.40046" lon="6.64173">
        <ele>205</ele>
        <time>2019-05-30T13:17:15.000Z</time>
      </trkpt>
      <trkpt lat="43.40046" lon="6.64173">
        <ele>205</ele>
        <time>2019-05-30T13:17:24.000Z</time>
      </trkpt>
      <trkpt lat="43.40046" lon="6.64173">
        <ele>204.60000610352</ele>
        <time>2019-05-30T13:17:35.000Z</time>
      </trkpt>
      <trkpt lat="43.40045" lon="6.64173">
        <ele>204.80000305176</ele>
        <time>2019-05-30T13:17:46.000Z</time>
      </trkpt>
      <trkpt lat="43.40044" lon="6.64173">
        <ele>204.60000610352</ele>
        <time>2019-05-30T13:17:53.000Z</time>
      </trkpt>
      <trkpt lat="43.40044" lon="6.64174">
        <ele>204.39999389648</ele>
        <time>2019-05-30T13:17:58.000Z</time>
      </trkpt>
      <trkpt lat="43.40042" lon="6.64174">
        <ele>204.19999694824</ele>
        <time>2019-05-30T13:18:04.000Z</time>
      </trkpt>
      <trkpt lat="43.4004" lon="6.64173">
        <ele>204.39999389648</ele>
        <time>2019-05-30T13:18:09.000Z</time>
      </trkpt>
      <trkpt lat="43.40041" lon="6.64175">
        <ele>204.39999389648</ele>
        <time>2019-05-30T13:18:11.000Z</time>
      </trkpt>
      <trkpt lat="43.4004" lon="6.6418">
        <ele>204.39999389648</ele>
        <time>2019-05-30T13:18:14.000Z</time>
      </trkpt>
      <trkpt lat="43.40035" lon="6.64188">
        <ele>204.19999694824</ele>
        <time>2019-05-30T13:18:18.000Z</time>
      </trkpt>
      <trkpt lat="43.4003" lon="6.64195">
        <ele>204.19999694824</ele>
        <time>2019-05-30T13:18:21.000Z</time>
      </trkpt>
      <trkpt lat="43.40023" lon="6.642">
        <ele>204</ele>
        <time>2019-05-30T13:18:24.000Z</time>
      </trkpt>
      <trkpt lat="43.40016" lon="6.64204">
        <ele>204</ele>
        <time>2019-05-30T13:18:26.000Z</time>
      </trkpt>
      <trkpt lat="43.40002" lon="6.64209">
        <ele>203.19999694824</ele>
        <time>2019-05-30T13:18:29.000Z</time>
      </trkpt>
      <trkpt lat="43.39981" lon="6.64215">
        <ele>202.19999694824</ele>
        <time>2019-05-30T13:18:33.000Z</time>
      </trkpt>
      <trkpt lat="43.39965" lon="6.64218">
        <ele>202</ele>
        <time>2019-05-30T13:18:36.000Z</time>
      </trkpt>
      <trkpt lat="43.39947" lon="6.64217">
        <ele>201.19999694824</ele>
        <time>2019-05-30T13:18:39.000Z</time>
      </trkpt>
      <trkpt lat="43.39934" lon="6.64216">
        <ele>199.80000305176</ele>
        <time>2019-05-30T13:18:41.000Z</time>
      </trkpt>
      <trkpt lat="43.3992" lon="6.64216">
        <ele>198.19999694824</ele>
        <time>2019-05-30T13:18:43.000Z</time>
      </trkpt>
      <trkpt lat="43.39906" lon="6.64218">
        <ele>196.19999694824</ele>
        <time>2019-05-30T13:18:45.000Z</time>
      </trkpt>
      <trkpt lat="43.39899" lon="6.64221">
        <ele>195.39999389648</ele>
        <time>2019-05-30T13:18:46.000Z</time>
      </trkpt>
      <trkpt lat="43.39893" lon="6.64224">
        <ele>194.60000610352</ele>
        <time>2019-05-30T13:18:47.000Z</time>
      </trkpt>
      <trkpt lat="43.39886" lon="6.64229">
        <ele>193.39999389648</ele>
        <time>2019-05-30T13:18:48.000Z</time>
      </trkpt>
      <trkpt lat="43.39881" lon="6.64234">
        <ele>192.80000305176</ele>
        <time>2019-05-30T13:18:49.000Z</time>
      </trkpt>
      <trkpt lat="43.39875" lon="6.64241">
        <ele>192.39999389648</ele>
        <time>2019-05-30T13:18:50.000Z</time>
      </trkpt>
      <trkpt lat="43.39866" lon="6.64254">
        <ele>191</ele>
        <time>2019-05-30T13:18:52.000Z</time>
      </trkpt>
      <trkpt lat="43.39862" lon="6.64261">
        <ele>190.19999694824</ele>
        <time>2019-05-30T13:18:53.000Z</time>
      </trkpt>
      <trkpt lat="43.39859" lon="6.64269">
        <ele>189.80000305176</ele>
        <time>2019-05-30T13:18:54.000Z</time>
      </trkpt>
      <trkpt lat="43.39851" lon="6.64295">
        <ele>190</ele>
        <time>2019-05-30T13:18:58.000Z</time>
      </trkpt>
      <trkpt lat="43.39843" lon="6.64305">
        <ele>191.19999694824</ele>
        <time>2019-05-30T13:19:00.000Z</time>
      </trkpt>
      <trkpt lat="43.39835" lon="6.64308">
        <ele>192.39999389648</ele>
        <time>2019-05-30T13:19:02.000Z</time>
      </trkpt>
      <trkpt lat="43.3983" lon="6.64308">
        <ele>192.80000305176</ele>
        <time>2019-05-30T13:19:03.000Z</time>
      </trkpt>
      <trkpt lat="43.39817" lon="6.6431">
        <ele>193.60000610352</ele>
        <time>2019-05-30T13:19:07.000Z</time>
      </trkpt>
      <trkpt lat="43.39813" lon="6.64311">
        <ele>194</ele>
        <time>2019-05-30T13:19:08.000Z</time>
      </trkpt>
      <trkpt lat="43.39808" lon="6.64312">
        <ele>194.80000305176</ele>
        <time>2019-05-30T13:19:10.000Z</time>
      </trkpt>
      <trkpt lat="43.39796" lon="6.64313">
        <ele>195.80000305176</ele>
        <time>2019-05-30T13:19:14.000Z</time>
      </trkpt>
      <trkpt lat="43.39789" lon="6.64312">
        <ele>196.19999694824</ele>
        <time>2019-05-30T13:19:16.000Z</time>
      </trkpt>
      <trkpt lat="43.39762" lon="6.64314">
        <ele>197</ele>
        <time>2019-05-30T13:19:24.000Z</time>
      </trkpt>
      <trkpt lat="43.39737" lon="6.64322">
        <ele>198</ele>
        <time>2019-05-30T13:19:32.000Z</time>
      </trkpt>
      <trkpt lat="43.39734" lon="6.64323">
        <ele>198</ele>
        <time>2019-05-30T13:19:33.000Z</time>
      </trkpt>
      <trkpt lat="43.39716" lon="6.64331">
        <ele>198.80000305176</ele>
        <time>2019-05-30T13:19:39.000Z</time>
      </trkpt>
      <trkpt lat="43.39707" lon="6.64334">
        <ele>199.19999694824</ele>
        <time>2019-05-30T13:19:42.000Z</time>
      </trkpt>
      <trkpt lat="43.39694" lon="6.64337">
        <ele>200</ele>
        <time>2019-05-30T13:19:46.000Z</time>
      </trkpt>
      <trkpt lat="43.39674" lon="6.64348">
        <ele>200</ele>
        <time>2019-05-30T13:19:53.000Z</time>
      </trkpt>
      <trkpt lat="43.39665" lon="6.64354">
        <ele>200.19999694824</ele>
        <time>2019-05-30T13:19:56.000Z</time>
      </trkpt>
      <trkpt lat="43.39654" lon="6.64361">
        <ele>201.19999694824</ele>
        <time>2019-05-30T13:20:00.000Z</time>
      </trkpt>
      <trkpt lat="43.39632" lon="6.64373">
        <ele>201.60000610352</ele>
        <time>2019-05-30T13:20:07.000Z</time>
      </trkpt>
      <trkpt lat="43.3961" lon="6.64382">
        <ele>202.39999389648</ele>
        <time>2019-05-30T13:20:13.000Z</time>
      </trkpt>
      <trkpt lat="43.39603" lon="6.64386">
        <ele>202.60000610352</ele>
        <time>2019-05-30T13:20:15.000Z</time>
      </trkpt>
      <trkpt lat="43.39569" lon="6.64403">
        <ele>202.39999389648</ele>
        <time>2019-05-30T13:20:24.000Z</time>
      </trkpt>
      <trkpt lat="43.3954" lon="6.64421">
        <ele>202.19999694824</ele>
        <time>2019-05-30T13:20:32.000Z</time>
      </trkpt>
      <trkpt lat="43.39521" lon="6.64436">
        <ele>202.19999694824</ele>
        <time>2019-05-30T13:20:37.000Z</time>
      </trkpt>
      <trkpt lat="43.39514" lon="6.64446">
        <ele>201.80000305176</ele>
        <time>2019-05-30T13:20:39.000Z</time>
      </trkpt>
      <trkpt lat="43.39508" lon="6.64457">
        <ele>201.19999694824</ele>
        <time>2019-05-30T13:20:41.000Z</time>
      </trkpt>
      <trkpt lat="43.39503" lon="6.64469">
        <ele>201</ele>
        <time>2019-05-30T13:20:43.000Z</time>
      </trkpt>
      <trkpt lat="43.39499" lon="6.64481">
        <ele>201</ele>
        <time>2019-05-30T13:20:45.000Z</time>
      </trkpt>
      <trkpt lat="43.39484" lon="6.64523">
        <ele>201.39999389648</ele>
        <time>2019-05-30T13:20:52.000Z</time>
      </trkpt>
      <trkpt lat="43.39478" lon="6.64534">
        <ele>201.60000610352</ele>
        <time>2019-05-30T13:20:54.000Z</time>
      </trkpt>
      <trkpt lat="43.39448" lon="6.64575">
        <ele>201</ele>
        <time>2019-05-30T13:21:02.000Z</time>
      </trkpt>
      <trkpt lat="43.39433" lon="6.64588">
        <ele>200.60000610352</ele>
        <time>2019-05-30T13:21:05.000Z</time>
      </trkpt>
      <trkpt lat="43.39419" lon="6.64596">
        <ele>200.60000610352</ele>
        <time>2019-05-30T13:21:08.000Z</time>
      </trkpt>
      <trkpt lat="43.39392" lon="6.64605">
        <ele>201.39999389648</ele>
        <time>2019-05-30T13:21:14.000Z</time>
      </trkpt>
      <trkpt lat="43.39357" lon="6.64618">
        <ele>202.19999694824</ele>
        <time>2019-05-30T13:21:22.000Z</time>
      </trkpt>
      <trkpt lat="43.39354" lon="6.64619">
        <ele>202.39999389648</ele>
        <time>2019-05-30T13:21:23.000Z</time>
      </trkpt>
      <trkpt lat="43.39346" lon="6.64623">
        <ele>204</ele>
        <time>2019-05-30T13:21:26.000Z</time>
      </trkpt>
      <trkpt lat="43.39344" lon="6.64624">
        <ele>204.39999389648</ele>
        <time>2019-05-30T13:21:27.000Z</time>
      </trkpt>
      <trkpt lat="43.39342" lon="6.64624">
        <ele>205</ele>
        <time>2019-05-30T13:21:28.000Z</time>
      </trkpt>
      <trkpt lat="43.39338" lon="6.64623">
        <ele>205.60000610352</ele>
        <time>2019-05-30T13:21:30.000Z</time>
      </trkpt>
      <trkpt lat="43.39335" lon="6.64619">
        <ele>206.19999694824</ele>
        <time>2019-05-30T13:21:32.000Z</time>
      </trkpt>
      <trkpt lat="43.3933" lon="6.64608">
        <ele>206.60000610352</ele>
        <time>2019-05-30T13:21:36.000Z</time>
      </trkpt>
      <trkpt lat="43.39327" lon="6.64602">
        <ele>206.80000305176</ele>
        <time>2019-05-30T13:21:38.000Z</time>
      </trkpt>
      <trkpt lat="43.39314" lon="6.64589">
        <ele>206.60000610352</ele>
        <time>2019-05-30T13:21:42.000Z</time>
      </trkpt>
      <trkpt lat="43.3931" lon="6.64586">
        <ele>206.19999694824</ele>
        <time>2019-05-30T13:21:43.000Z</time>
      </trkpt>
      <trkpt lat="43.39294" lon="6.64584">
        <ele>204.80000305176</ele>
        <time>2019-05-30T13:21:46.000Z</time>
      </trkpt>
      <trkpt lat="43.39288" lon="6.64583">
        <ele>204.39999389648</ele>
        <time>2019-05-30T13:21:47.000Z</time>
      </trkpt>
      <trkpt lat="43.39275" lon="6.6458">
        <ele>203.39999389648</ele>
        <time>2019-05-30T13:21:49.000Z</time>
      </trkpt>
      <trkpt lat="43.39268" lon="6.6458">
        <ele>203</ele>
        <time>2019-05-30T13:21:50.000Z</time>
      </trkpt>
      <trkpt lat="43.39255" lon="6.64582">
        <ele>202</ele>
        <time>2019-05-30T13:21:52.000Z</time>
      </trkpt>
      <trkpt lat="43.39241" lon="6.64588">
        <ele>200.80000305176</ele>
        <time>2019-05-30T13:21:54.000Z</time>
      </trkpt>
      <trkpt lat="43.39229" lon="6.64593">
        <ele>200.19999694824</ele>
        <time>2019-05-30T13:21:56.000Z</time>
      </trkpt>
      <trkpt lat="43.39224" lon="6.64595">
        <ele>199.39999389648</ele>
        <time>2019-05-30T13:21:57.000Z</time>
      </trkpt>
      <trkpt lat="43.39205" lon="6.646">
        <ele>199</ele>
        <time>2019-05-30T13:22:00.000Z</time>
      </trkpt>
      <trkpt lat="43.39199" lon="6.64602">
        <ele>198.19999694824</ele>
        <time>2019-05-30T13:22:01.000Z</time>
      </trkpt>
      <trkpt lat="43.39179" lon="6.64608">
        <ele>196.60000610352</ele>
        <time>2019-05-30T13:22:04.000Z</time>
      </trkpt>
      <trkpt lat="43.39165" lon="6.64611">
        <ele>195.80000305176</ele>
        <time>2019-05-30T13:22:06.000Z</time>
      </trkpt>
      <trkpt lat="43.39158" lon="6.64612">
        <ele>194.60000610352</ele>
        <time>2019-05-30T13:22:07.000Z</time>
      </trkpt>
      <trkpt lat="43.39132" lon="6.64611">
        <ele>193.19999694824</ele>
        <time>2019-05-30T13:22:10.000Z</time>
      </trkpt>
      <trkpt lat="43.39126" lon="6.64609">
        <ele>192</ele>
        <time>2019-05-30T13:22:11.000Z</time>
      </trkpt>
      <trkpt lat="43.39112" lon="6.64608">
        <ele>191</ele>
        <time>2019-05-30T13:22:13.000Z</time>
      </trkpt>
      <trkpt lat="43.39105" lon="6.64608">
        <ele>190.80000305176</ele>
        <time>2019-05-30T13:22:14.000Z</time>
      </trkpt>
      <trkpt lat="43.39093" lon="6.64612">
        <ele>190.19999694824</ele>
        <time>2019-05-30T13:22:16.000Z</time>
      </trkpt>
      <trkpt lat="43.39086" lon="6.64614">
        <ele>189.39999389648</ele>
        <time>2019-05-30T13:22:17.000Z</time>
      </trkpt>
      <trkpt lat="43.39071" lon="6.64618">
        <ele>188.39999389648</ele>
        <time>2019-05-30T13:22:19.000Z</time>
      </trkpt>
      <trkpt lat="43.39055" lon="6.64621">
        <ele>186.19999694824</ele>
        <time>2019-05-30T13:22:21.000Z</time>
      </trkpt>
      <trkpt lat="43.39048" lon="6.64623">
        <ele>185.19999694824</ele>
        <time>2019-05-30T13:22:22.000Z</time>
      </trkpt>
      <trkpt lat="43.39042" lon="6.64625">
        <ele>184</ele>
        <time>2019-05-30T13:22:23.000Z</time>
      </trkpt>
      <trkpt lat="43.39036" lon="6.64626">
        <ele>182.80000305176</ele>
        <time>2019-05-30T13:22:24.000Z</time>
      </trkpt>
      <trkpt lat="43.39031" lon="6.64629">
        <ele>182.39999389648</ele>
        <time>2019-05-30T13:22:25.000Z</time>
      </trkpt>
      <trkpt lat="43.39015" lon="6.64644">
        <ele>181.39999389648</ele>
        <time>2019-05-30T13:22:28.000Z</time>
      </trkpt>
      <trkpt lat="43.3901" lon="6.6465">
        <ele>181.39999389648</ele>
        <time>2019-05-30T13:22:29.000Z</time>
      </trkpt>
      <trkpt lat="43.39004" lon="6.64656">
        <ele>180.39999389648</ele>
        <time>2019-05-30T13:22:30.000Z</time>
      </trkpt>
      <trkpt lat="43.38994" lon="6.64671">
        <ele>178.80000305176</ele>
        <time>2019-05-30T13:22:32.000Z</time>
      </trkpt>
      <trkpt lat="43.3899" lon="6.64678">
        <ele>177.60000610352</ele>
        <time>2019-05-30T13:22:33.000Z</time>
      </trkpt>
      <trkpt lat="43.38985" lon="6.64684">
        <ele>177</ele>
        <time>2019-05-30T13:22:34.000Z</time>
      </trkpt>
      <trkpt lat="43.38979" lon="6.64688">
        <ele>176.60000610352</ele>
        <time>2019-05-30T13:22:35.000Z</time>
      </trkpt>
      <trkpt lat="43.38966" lon="6.64696">
        <ele>175</ele>
        <time>2019-05-30T13:22:37.000Z</time>
      </trkpt>
      <trkpt lat="43.38958" lon="6.64701">
        <ele>174.19999694824</ele>
        <time>2019-05-30T13:22:38.000Z</time>
      </trkpt>
      <trkpt lat="43.38951" lon="6.64705">
        <ele>172.19999694824</ele>
        <time>2019-05-30T13:22:39.000Z</time>
      </trkpt>
      <trkpt lat="43.38944" lon="6.64709">
        <ele>171</ele>
        <time>2019-05-30T13:22:40.000Z</time>
      </trkpt>
      <trkpt lat="43.3893" lon="6.64714">
        <ele>169</ele>
        <time>2019-05-30T13:22:42.000Z</time>
      </trkpt>
      <trkpt lat="43.38923" lon="6.64717">
        <ele>168.19999694824</ele>
        <time>2019-05-30T13:22:43.000Z</time>
      </trkpt>
      <trkpt lat="43.38904" lon="6.64727">
        <ele>168</ele>
        <time>2019-05-30T13:22:46.000Z</time>
      </trkpt>
      <trkpt lat="43.38899" lon="6.64731">
        <ele>167.60000610352</ele>
        <time>2019-05-30T13:22:47.000Z</time>
      </trkpt>
      <trkpt lat="43.38892" lon="6.64737">
        <ele>167.60000610352</ele>
        <time>2019-05-30T13:22:48.000Z</time>
      </trkpt>
      <trkpt lat="43.3888" lon="6.64747">
        <ele>166.39999389648</ele>
        <time>2019-05-30T13:22:50.000Z</time>
      </trkpt>
      <trkpt lat="43.38866" lon="6.64754">
        <ele>165.60000610352</ele>
        <time>2019-05-30T13:22:52.000Z</time>
      </trkpt>
      <trkpt lat="43.38859" lon="6.64754">
        <ele>164.39999389648</ele>
        <time>2019-05-30T13:22:53.000Z</time>
      </trkpt>
      <trkpt lat="43.38837" lon="6.64746">
        <ele>163.19999694824</ele>
        <time>2019-05-30T13:22:56.000Z</time>
      </trkpt>
      <trkpt lat="43.3883" lon="6.64743">
        <ele>162.19999694824</ele>
        <time>2019-05-30T13:22:57.000Z</time>
      </trkpt>
      <trkpt lat="43.38815" lon="6.6474">
        <ele>161.19999694824</ele>
        <time>2019-05-30T13:22:59.000Z</time>
      </trkpt>
      <trkpt lat="43.38807" lon="6.64741">
        <ele>159.80000305176</ele>
        <time>2019-05-30T13:23:00.000Z</time>
      </trkpt>
      <trkpt lat="43.388" lon="6.64742">
        <ele>159</ele>
        <time>2019-05-30T13:23:01.000Z</time>
      </trkpt>
      <trkpt lat="43.38793" lon="6.64742">
        <ele>158</ele>
        <time>2019-05-30T13:23:02.000Z</time>
      </trkpt>
      <trkpt lat="43.38787" lon="6.64743">
        <ele>156.80000305176</ele>
        <time>2019-05-30T13:23:03.000Z</time>
      </trkpt>
      <trkpt lat="43.38778" lon="6.64743">
        <ele>156.39999389648</ele>
        <time>2019-05-30T13:23:05.000Z</time>
      </trkpt>
      <trkpt lat="43.38774" lon="6.64745">
        <ele>155.80000305176</ele>
        <time>2019-05-30T13:23:06.000Z</time>
      </trkpt>
      <trkpt lat="43.38771" lon="6.64749">
        <ele>155</ele>
        <time>2019-05-30T13:23:07.000Z</time>
      </trkpt>
      <trkpt lat="43.38768" lon="6.64753">
        <ele>154.60000610352</ele>
        <time>2019-05-30T13:23:08.000Z</time>
      </trkpt>
      <trkpt lat="43.38764" lon="6.64764">
        <ele>152.60000610352</ele>
        <time>2019-05-30T13:23:10.000Z</time>
      </trkpt>
      <trkpt lat="43.38763" lon="6.64771">
        <ele>151.60000610352</ele>
        <time>2019-05-30T13:23:11.000Z</time>
      </trkpt>
      <trkpt lat="43.38762" lon="6.64778">
        <ele>151.19999694824</ele>
        <time>2019-05-30T13:23:12.000Z</time>
      </trkpt>
      <trkpt lat="43.3876" lon="6.64794">
        <ele>150.19999694824</ele>
        <time>2019-05-30T13:23:14.000Z</time>
      </trkpt>
      <trkpt lat="43.38754" lon="6.64818">
        <ele>149.19999694824</ele>
        <time>2019-05-30T13:23:17.000Z</time>
      </trkpt>
      <trkpt lat="43.3875" lon="6.64825">
        <ele>149</ele>
        <time>2019-05-30T13:23:18.000Z</time>
      </trkpt>
      <trkpt lat="43.38736" lon="6.6484">
        <ele>148.80000305176</ele>
        <time>2019-05-30T13:23:21.000Z</time>
      </trkpt>
      <trkpt lat="43.38717" lon="6.64846">
        <ele>148.39999389648</ele>
        <time>2019-05-30T13:23:24.000Z</time>
      </trkpt>
      <trkpt lat="43.38709" lon="6.64848">
        <ele>147.60000610352</ele>
        <time>2019-05-30T13:23:25.000Z</time>
      </trkpt>
      <trkpt lat="43.38695" lon="6.64853">
        <ele>146</ele>
        <time>2019-05-30T13:23:27.000Z</time>
      </trkpt>
      <trkpt lat="43.38686" lon="6.64854">
        <ele>145.19999694824</ele>
        <time>2019-05-30T13:23:28.000Z</time>
      </trkpt>
      <trkpt lat="43.38679" lon="6.64854">
        <ele>144</ele>
        <time>2019-05-30T13:23:29.000Z</time>
      </trkpt>
      <trkpt lat="43.38671" lon="6.64855">
        <ele>142.80000305176</ele>
        <time>2019-05-30T13:23:30.000Z</time>
      </trkpt>
      <trkpt lat="43.38657" lon="6.64857">
        <ele>141.19999694824</ele>
        <time>2019-05-30T13:23:32.000Z</time>
      </trkpt>
      <trkpt lat="43.3865" lon="6.6486">
        <ele>140</ele>
        <time>2019-05-30T13:23:33.000Z</time>
      </trkpt>
      <trkpt lat="43.38644" lon="6.64864">
        <ele>140</ele>
        <time>2019-05-30T13:23:34.000Z</time>
      </trkpt>
      <trkpt lat="43.38626" lon="6.64876">
        <ele>138.60000610352</ele>
        <time>2019-05-30T13:23:37.000Z</time>
      </trkpt>
      <trkpt lat="43.38615" lon="6.64883">
        <ele>137.60000610352</ele>
        <time>2019-05-30T13:23:39.000Z</time>
      </trkpt>
      <trkpt lat="43.38609" lon="6.64888">
        <ele>137.19999694824</ele>
        <time>2019-05-30T13:23:40.000Z</time>
      </trkpt>
      <trkpt lat="43.38587" lon="6.64907">
        <ele>136.19999694824</ele>
        <time>2019-05-30T13:23:44.000Z</time>
      </trkpt>
      <trkpt lat="43.38583" lon="6.64911">
        <ele>135.39999389648</ele>
        <time>2019-05-30T13:23:45.000Z</time>
      </trkpt>
      <trkpt lat="43.3858" lon="6.6492">
        <ele>133.19999694824</ele>
        <time>2019-05-30T13:23:47.000Z</time>
      </trkpt>
      <trkpt lat="43.38582" lon="6.64944">
        <ele>132.19999694824</ele>
        <time>2019-05-30T13:23:50.000Z</time>
      </trkpt>
      <trkpt lat="43.38583" lon="6.64953">
        <ele>131.60000610352</ele>
        <time>2019-05-30T13:23:51.000Z</time>
      </trkpt>
      <trkpt lat="43.38583" lon="6.64961">
        <ele>131</ele>
        <time>2019-05-30T13:23:52.000Z</time>
      </trkpt>
      <trkpt lat="43.38582" lon="6.6498">
        <ele>130</ele>
        <time>2019-05-30T13:23:54.000Z</time>
      </trkpt>
      <trkpt lat="43.38583" lon="6.6499">
        <ele>129.39999389648</ele>
        <time>2019-05-30T13:23:55.000Z</time>
      </trkpt>
      <trkpt lat="43.38584" lon="6.65001">
        <ele>128.80000305176</ele>
        <time>2019-05-30T13:23:56.000Z</time>
      </trkpt>
      <trkpt lat="43.38585" lon="6.65022">
        <ele>127.40000152588</ele>
        <time>2019-05-30T13:23:58.000Z</time>
      </trkpt>
      <trkpt lat="43.38585" lon="6.6503">
        <ele>126</ele>
        <time>2019-05-30T13:23:59.000Z</time>
      </trkpt>
      <trkpt lat="43.38585" lon="6.65036">
        <ele>124.80000305176</ele>
        <time>2019-05-30T13:24:00.000Z</time>
      </trkpt>
      <trkpt lat="43.38585" lon="6.65041">
        <ele>123.59999847412</ele>
        <time>2019-05-30T13:24:01.000Z</time>
      </trkpt>
      <trkpt lat="43.38585" lon="6.6505">
        <ele>122</ele>
        <time>2019-05-30T13:24:03.000Z</time>
      </trkpt>
      <trkpt lat="43.38585" lon="6.65056">
        <ele>121.80000305176</ele>
        <time>2019-05-30T13:24:04.000Z</time>
      </trkpt>
      <trkpt lat="43.38585" lon="6.65071">
        <ele>120.59999847412</ele>
        <time>2019-05-30T13:24:06.000Z</time>
      </trkpt>
      <trkpt lat="43.38579" lon="6.65085">
        <ele>119</ele>
        <time>2019-05-30T13:24:08.000Z</time>
      </trkpt>
      <trkpt lat="43.38568" lon="6.65093">
        <ele>117.80000305176</ele>
        <time>2019-05-30T13:24:10.000Z</time>
      </trkpt>
      <trkpt lat="43.38562" lon="6.65096">
        <ele>117.19999694824</ele>
        <time>2019-05-30T13:24:11.000Z</time>
      </trkpt>
      <trkpt lat="43.38557" lon="6.651">
        <ele>116.80000305176</ele>
        <time>2019-05-30T13:24:12.000Z</time>
      </trkpt>
      <trkpt lat="43.38553" lon="6.65103">
        <ele>116</ele>
        <time>2019-05-30T13:24:13.000Z</time>
      </trkpt>
      <trkpt lat="43.38549" lon="6.65109">
        <ele>115.59999847412</ele>
        <time>2019-05-30T13:24:14.000Z</time>
      </trkpt>
      <trkpt lat="43.38546" lon="6.65115">
        <ele>115.40000152588</ele>
        <time>2019-05-30T13:24:15.000Z</time>
      </trkpt>
      <trkpt lat="43.38542" lon="6.65122">
        <ele>114.80000305176</ele>
        <time>2019-05-30T13:24:16.000Z</time>
      </trkpt>
      <trkpt lat="43.38535" lon="6.65136">
        <ele>114.40000152588</ele>
        <time>2019-05-30T13:24:18.000Z</time>
      </trkpt>
      <trkpt lat="43.38532" lon="6.65144">
        <ele>113.80000305176</ele>
        <time>2019-05-30T13:24:19.000Z</time>
      </trkpt>
      <trkpt lat="43.38529" lon="6.65152">
        <ele>112.59999847412</ele>
        <time>2019-05-30T13:24:20.000Z</time>
      </trkpt>
      <trkpt lat="43.38525" lon="6.65159">
        <ele>112.19999694824</ele>
        <time>2019-05-30T13:24:21.000Z</time>
      </trkpt>
      <trkpt lat="43.3852" lon="6.65164">
        <ele>111</ele>
        <time>2019-05-30T13:24:22.000Z</time>
      </trkpt>
      <trkpt lat="43.38509" lon="6.65174">
        <ele>110.59999847412</ele>
        <time>2019-05-30T13:24:24.000Z</time>
      </trkpt>
      <trkpt lat="43.38504" lon="6.65179">
        <ele>110.40000152588</ele>
        <time>2019-05-30T13:24:25.000Z</time>
      </trkpt>
      <trkpt lat="43.385" lon="6.65185">
        <ele>110</ele>
        <time>2019-05-30T13:24:26.000Z</time>
      </trkpt>
      <trkpt lat="43.38496" lon="6.65191">
        <ele>109.40000152588</ele>
        <time>2019-05-30T13:24:27.000Z</time>
      </trkpt>
      <trkpt lat="43.38492" lon="6.65208">
        <ele>109</ele>
        <time>2019-05-30T13:24:29.000Z</time>
      </trkpt>
      <trkpt lat="43.38491" lon="6.65218">
        <ele>108.40000152588</ele>
        <time>2019-05-30T13:24:30.000Z</time>
      </trkpt>
      <trkpt lat="43.3849" lon="6.65226">
        <ele>108</ele>
        <time>2019-05-30T13:24:31.000Z</time>
      </trkpt>
      <trkpt lat="43.38489" lon="6.65243">
        <ele>107</ele>
        <time>2019-05-30T13:24:33.000Z</time>
      </trkpt>
      <trkpt lat="43.3849" lon="6.65252">
        <ele>106</ele>
        <time>2019-05-30T13:24:34.000Z</time>
      </trkpt>
      <trkpt lat="43.38488" lon="6.6527">
        <ele>105.40000152588</ele>
        <time>2019-05-30T13:24:36.000Z</time>
      </trkpt>
      <trkpt lat="43.38486" lon="6.65278">
        <ele>104.19999694824</ele>
        <time>2019-05-30T13:24:37.000Z</time>
      </trkpt>
      <trkpt lat="43.38484" lon="6.65286">
        <ele>103.59999847412</ele>
        <time>2019-05-30T13:24:38.000Z</time>
      </trkpt>
      <trkpt lat="43.38482" lon="6.65294">
        <ele>102.59999847412</ele>
        <time>2019-05-30T13:24:39.000Z</time>
      </trkpt>
      <trkpt lat="43.3848" lon="6.65302">
        <ele>101.59999847412</ele>
        <time>2019-05-30T13:24:40.000Z</time>
      </trkpt>
      <trkpt lat="43.3848" lon="6.65309">
        <ele>100.80000305176</ele>
        <time>2019-05-30T13:24:41.000Z</time>
      </trkpt>
      <trkpt lat="43.38481" lon="6.65326">
        <ele>99.800003051758</ele>
        <time>2019-05-30T13:24:43.000Z</time>
      </trkpt>
      <trkpt lat="43.38482" lon="6.65344">
        <ele>98.599998474121</ele>
        <time>2019-05-30T13:24:45.000Z</time>
      </trkpt>
      <trkpt lat="43.38482" lon="6.65351">
        <ele>97.400001525879</ele>
        <time>2019-05-30T13:24:46.000Z</time>
      </trkpt>
      <trkpt lat="43.38483" lon="6.65357">
        <ele>95.199996948242</ele>
        <time>2019-05-30T13:24:47.000Z</time>
      </trkpt>
      <trkpt lat="43.38485" lon="6.65363">
        <ele>94</ele>
        <time>2019-05-30T13:24:48.000Z</time>
      </trkpt>
      <trkpt lat="43.38487" lon="6.65368">
        <ele>93</ele>
        <time>2019-05-30T13:24:49.000Z</time>
      </trkpt>
      <trkpt lat="43.38495" lon="6.65376">
        <ele>91.599998474121</ele>
        <time>2019-05-30T13:24:51.000Z</time>
      </trkpt>
      <trkpt lat="43.38508" lon="6.65388">
        <ele>89.599998474121</ele>
        <time>2019-05-30T13:24:54.000Z</time>
      </trkpt>
      <trkpt lat="43.38511" lon="6.65393">
        <ele>88.800003051758</ele>
        <time>2019-05-30T13:24:55.000Z</time>
      </trkpt>
      <trkpt lat="43.38512" lon="6.65397">
        <ele>88.199996948242</ele>
        <time>2019-05-30T13:24:56.000Z</time>
      </trkpt>
      <trkpt lat="43.38508" lon="6.65402">
        <ele>87</ele>
        <time>2019-05-30T13:24:58.000Z</time>
      </trkpt>
      <trkpt lat="43.38502" lon="6.65395">
        <ele>85.599998474121</ele>
        <time>2019-05-30T13:25:01.000Z</time>
      </trkpt>
      <trkpt lat="43.38499" lon="6.65393">
        <ele>85.400001525879</ele>
        <time>2019-05-30T13:25:02.000Z</time>
      </trkpt>
      <trkpt lat="43.3849" lon="6.65385">
        <ele>84.400001525879</ele>
        <time>2019-05-30T13:25:05.000Z</time>
      </trkpt>
      <trkpt lat="43.38482" lon="6.65379">
        <ele>84.199996948242</ele>
        <time>2019-05-30T13:25:07.000Z</time>
      </trkpt>
      <trkpt lat="43.38469" lon="6.65362">
        <ele>84.400001525879</ele>
        <time>2019-05-30T13:25:11.000Z</time>
      </trkpt>
      <trkpt lat="43.38466" lon="6.65356">
        <ele>84.599998474121</ele>
        <time>2019-05-30T13:25:12.000Z</time>
      </trkpt>
      <trkpt lat="43.38458" lon="6.65333">
        <ele>83.800003051758</ele>
        <time>2019-05-30T13:25:15.000Z</time>
      </trkpt>
      <trkpt lat="43.38455" lon="6.65325">
        <ele>83.400001525879</ele>
        <time>2019-05-30T13:25:16.000Z</time>
      </trkpt>
      <trkpt lat="43.3845" lon="6.65309">
        <ele>82</ele>
        <time>2019-05-30T13:25:18.000Z</time>
      </trkpt>
      <trkpt lat="43.38445" lon="6.65283">
        <ele>81.199996948242</ele>
        <time>2019-05-30T13:25:21.000Z</time>
      </trkpt>
      <trkpt lat="43.38438" lon="6.65261">
        <ele>81</ele>
        <time>2019-05-30T13:25:24.000Z</time>
      </trkpt>
      <trkpt lat="43.38433" lon="6.65249">
        <ele>81.199996948242</ele>
        <time>2019-05-30T13:25:26.000Z</time>
      </trkpt>
      <trkpt lat="43.38429" lon="6.65237">
        <ele>81.599998474121</ele>
        <time>2019-05-30T13:25:28.000Z</time>
      </trkpt>
      <trkpt lat="43.38429" lon="6.65231">
        <ele>82</ele>
        <time>2019-05-30T13:25:29.000Z</time>
      </trkpt>
      <trkpt lat="43.38428" lon="6.65218">
        <ele>82.800003051758</ele>
        <time>2019-05-30T13:25:31.000Z</time>
      </trkpt>
      <trkpt lat="43.38422" lon="6.65168">
        <ele>82</ele>
        <time>2019-05-30T13:25:38.000Z</time>
      </trkpt>
      <trkpt lat="43.38417" lon="6.65135">
        <ele>81</ele>
        <time>2019-05-30T13:25:42.000Z</time>
      </trkpt>
      <trkpt lat="43.38417" lon="6.65126">
        <ele>81</ele>
        <time>2019-05-30T13:25:43.000Z</time>
      </trkpt>
      <trkpt lat="43.38418" lon="6.65106">
        <ele>80.599998474121</ele>
        <time>2019-05-30T13:25:45.000Z</time>
      </trkpt>
      <trkpt lat="43.38418" lon="6.65088">
        <ele>79.400001525879</ele>
        <time>2019-05-30T13:25:47.000Z</time>
      </trkpt>
      <trkpt lat="43.38412" lon="6.65071">
        <ele>78.199996948242</ele>
        <time>2019-05-30T13:25:49.000Z</time>
      </trkpt>
      <trkpt lat="43.38405" lon="6.6506">
        <ele>76.800003051758</ele>
        <time>2019-05-30T13:25:51.000Z</time>
      </trkpt>
      <trkpt lat="43.38403" lon="6.65053">
        <ele>76.599998474121</ele>
        <time>2019-05-30T13:25:52.000Z</time>
      </trkpt>
      <trkpt lat="43.38402" lon="6.65046">
        <ele>75.800003051758</ele>
        <time>2019-05-30T13:25:53.000Z</time>
      </trkpt>
      <trkpt lat="43.38401" lon="6.65038">
        <ele>75.800003051758</ele>
        <time>2019-05-30T13:25:54.000Z</time>
      </trkpt>
      <trkpt lat="43.38396" lon="6.65024">
        <ele>75.800003051758</ele>
        <time>2019-05-30T13:25:56.000Z</time>
      </trkpt>
      <trkpt lat="43.38387" lon="6.65012">
        <ele>75.599998474121</ele>
        <time>2019-05-30T13:25:58.000Z</time>
      </trkpt>
      <trkpt lat="43.38379" lon="6.65">
        <ele>74.800003051758</ele>
        <time>2019-05-30T13:26:00.000Z</time>
      </trkpt>
      <trkpt lat="43.38371" lon="6.6499">
        <ele>74.800003051758</ele>
        <time>2019-05-30T13:26:02.000Z</time>
      </trkpt>
      <trkpt lat="43.38363" lon="6.64979">
        <ele>74.800003051758</ele>
        <time>2019-05-30T13:26:04.000Z</time>
      </trkpt>
      <trkpt lat="43.38354" lon="6.64946">
        <ele>74.199996948242</ele>
        <time>2019-05-30T13:26:08.000Z</time>
      </trkpt>
      <trkpt lat="43.3835" lon="6.64921">
        <ele>73.199996948242</ele>
        <time>2019-05-30T13:26:11.000Z</time>
      </trkpt>
      <trkpt lat="43.38346" lon="6.64916">
        <ele>73</ele>
        <time>2019-05-30T13:26:12.000Z</time>
      </trkpt>
      <trkpt lat="43.38335" lon="6.64913">
        <ele>71.199996948242</ele>
        <time>2019-05-30T13:26:14.000Z</time>
      </trkpt>
      <trkpt lat="43.3833" lon="6.64913">
        <ele>71</ele>
        <time>2019-05-30T13:26:15.000Z</time>
      </trkpt>
      <trkpt lat="43.38325" lon="6.64911">
        <ele>70.800003051758</ele>
        <time>2019-05-30T13:26:16.000Z</time>
      </trkpt>
      <trkpt lat="43.3832" lon="6.649">
        <ele>70.400001525879</ele>
        <time>2019-05-30T13:26:18.000Z</time>
      </trkpt>
      <trkpt lat="43.38319" lon="6.64896">
        <ele>70.199996948242</ele>
        <time>2019-05-30T13:26:19.000Z</time>
      </trkpt>
      <trkpt lat="43.38316" lon="6.64886">
        <ele>70.199996948242</ele>
        <time>2019-05-30T13:26:21.000Z</time>
      </trkpt>
      <trkpt lat="43.38314" lon="6.64878">
        <ele>70.400001525879</ele>
        <time>2019-05-30T13:26:23.000Z</time>
      </trkpt>
      <trkpt lat="43.38312" lon="6.64865">
        <ele>71.400001525879</ele>
        <time>2019-05-30T13:26:26.000Z</time>
      </trkpt>
      <trkpt lat="43.38312" lon="6.64849">
        <ele>72.199996948242</ele>
        <time>2019-05-30T13:26:29.000Z</time>
      </trkpt>
      <trkpt lat="43.38307" lon="6.64829">
        <ele>71.800003051758</ele>
        <time>2019-05-30T13:26:33.000Z</time>
      </trkpt>
      <trkpt lat="43.38308" lon="6.64814">
        <ele>70.400001525879</ele>
        <time>2019-05-30T13:26:37.000Z</time>
      </trkpt>
      <trkpt lat="43.38303" lon="6.6481">
        <ele>70</ele>
        <time>2019-05-30T13:26:41.000Z</time>
      </trkpt>
      <trkpt lat="43.38297" lon="6.64808">
        <ele>70.800003051758</ele>
        <time>2019-05-30T13:26:46.000Z</time>
      </trkpt>
      <trkpt lat="43.38294" lon="6.64807">
        <ele>71.400001525879</ele>
        <time>2019-05-30T13:26:48.000Z</time>
      </trkpt>
      <trkpt lat="43.38294" lon="6.64806">
        <ele>71.599998474121</ele>
        <time>2019-05-30T13:26:49.000Z</time>
      </trkpt>
      <trkpt lat="43.3829" lon="6.64805">
        <ele>72.199996948242</ele>
        <time>2019-05-30T13:26:52.000Z</time>
      </trkpt>
      <trkpt lat="43.38288" lon="6.64804">
        <ele>72.599998474121</ele>
        <time>2019-05-30T13:26:55.000Z</time>
      </trkpt>
      <trkpt lat="43.38287" lon="6.64803">
        <ele>72.800003051758</ele>
        <time>2019-05-30T13:26:56.000Z</time>
      </trkpt>
      <trkpt lat="43.38285" lon="6.64803">
        <ele>73</ele>
        <time>2019-05-30T13:26:59.000Z</time>
      </trkpt>
      <trkpt lat="43.38283" lon="6.64801">
        <ele>73.400001525879</ele>
        <time>2019-05-30T13:27:03.000Z</time>
      </trkpt>
      <trkpt lat="43.38281" lon="6.648">
        <ele>73.800003051758</ele>
        <time>2019-05-30T13:27:05.000Z</time>
      </trkpt>
      <trkpt lat="43.38278" lon="6.64795">
        <ele>74.599998474121</ele>
        <time>2019-05-30T13:27:11.000Z</time>
      </trkpt>
      <trkpt lat="43.38278" lon="6.64794">
        <ele>74.800003051758</ele>
        <time>2019-05-30T13:27:12.000Z</time>
      </trkpt>
      <trkpt lat="43.38274" lon="6.64791">
        <ele>75</ele>
        <time>2019-05-30T13:27:16.000Z</time>
      </trkpt>
      <trkpt lat="43.38266" lon="6.64784">
        <ele>75.800003051758</ele>
        <time>2019-05-30T13:27:22.000Z</time>
      </trkpt>
      <trkpt lat="43.38254" lon="6.64778">
        <ele>76.400001525879</ele>
        <time>2019-05-30T13:27:29.000Z</time>
      </trkpt>
      <trkpt lat="43.38233" lon="6.6477">
        <ele>76.199996948242</ele>
        <time>2019-05-30T13:27:37.000Z</time>
      </trkpt>
      <trkpt lat="43.38217" lon="6.64768">
        <ele>76.400001525879</ele>
        <time>2019-05-30T13:27:44.000Z</time>
      </trkpt>
      <trkpt lat="43.38213" lon="6.64769">
        <ele>76.800003051758</ele>
        <time>2019-05-30T13:27:46.000Z</time>
      </trkpt>
      <trkpt lat="43.38205" lon="6.64769">
        <ele>77.599998474121</ele>
        <time>2019-05-30T13:27:51.000Z</time>
      </trkpt>
      <trkpt lat="43.38203" lon="6.64768">
        <ele>78</ele>
        <time>2019-05-30T13:27:52.000Z</time>
      </trkpt>
      <trkpt lat="43.38196" lon="6.64766">
        <ele>79</ele>
        <time>2019-05-30T13:27:57.000Z</time>
      </trkpt>
      <trkpt lat="43.38195" lon="6.64766">
        <ele>79.199996948242</ele>
        <time>2019-05-30T13:27:58.000Z</time>
      </trkpt>
      <trkpt lat="43.38186" lon="6.64764">
        <ele>79.800003051758</ele>
        <time>2019-05-30T13:28:05.000Z</time>
      </trkpt>
      <trkpt lat="43.38186" lon="6.64765">
        <ele>80</ele>
        <time>2019-05-30T13:28:06.000Z</time>
      </trkpt>
      <trkpt lat="43.38184" lon="6.64765">
        <ele>80.199996948242</ele>
        <time>2019-05-30T13:28:07.000Z</time>
      </trkpt>
      <trkpt lat="43.38181" lon="6.64766">
        <ele>80.599998474121</ele>
        <time>2019-05-30T13:28:10.000Z</time>
      </trkpt>
      <trkpt lat="43.38181" lon="6.64766">
        <ele>80.800003051758</ele>
        <time>2019-05-30T13:28:11.000Z</time>
      </trkpt>
      <trkpt lat="43.38178" lon="6.64765">
        <ele>81.199996948242</ele>
        <time>2019-05-30T13:28:14.000Z</time>
      </trkpt>
      <trkpt lat="43.38175" lon="6.64764">
        <ele>81.400001525879</ele>
        <time>2019-05-30T13:28:17.000Z</time>
      </trkpt>
      <trkpt lat="43.38173" lon="6.64764">
        <ele>82.199996948242</ele>
        <time>2019-05-30T13:28:20.000Z</time>
      </trkpt>
      <trkpt lat="43.38171" lon="6.64764">
        <ele>82.400001525879</ele>
        <time>2019-05-30T13:28:23.000Z</time>
      </trkpt>
      <trkpt lat="43.38169" lon="6.64763">
        <ele>82.800003051758</ele>
        <time>2019-05-30T13:28:28.000Z</time>
      </trkpt>
      <trkpt lat="43.38168" lon="6.64763">
        <ele>83.199996948242</ele>
        <time>2019-05-30T13:28:31.000Z</time>
      </trkpt>
      <trkpt lat="43.38166" lon="6.64762">
        <ele>84</ele>
        <time>2019-05-30T13:28:34.000Z</time>
      </trkpt>
      <trkpt lat="43.38162" lon="6.64763">
        <ele>84.400001525879</ele>
        <time>2019-05-30T13:28:40.000Z</time>
      </trkpt>
      <trkpt lat="43.38161" lon="6.64763">
        <ele>84.599998474121</ele>
        <time>2019-05-30T13:28:41.000Z</time>
      </trkpt>
      <trkpt lat="43.38159" lon="6.64764">
        <ele>84.800003051758</ele>
        <time>2019-05-30T13:28:44.000Z</time>
      </trkpt>
      <trkpt lat="43.38157" lon="6.64762">
        <ele>85.400001525879</ele>
        <time>2019-05-30T13:28:47.000Z</time>
      </trkpt>
      <trkpt lat="43.38156" lon="6.64762">
        <ele>85.599998474121</ele>
        <time>2019-05-30T13:28:48.000Z</time>
      </trkpt>
      <trkpt lat="43.38153" lon="6.64759">
        <ele>86.599998474121</ele>
        <time>2019-05-30T13:28:53.000Z</time>
      </trkpt>
      <trkpt lat="43.38151" lon="6.64756">
        <ele>87.199996948242</ele>
        <time>2019-05-30T13:28:56.000Z</time>
      </trkpt>
      <trkpt lat="43.3815" lon="6.64756">
        <ele>87.199996948242</ele>
        <time>2019-05-30T13:28:59.000Z</time>
      </trkpt>
      <trkpt lat="43.38149" lon="6.64755">
        <ele>87.199996948242</ele>
        <time>2019-05-30T13:29:00.000Z</time>
      </trkpt>
      <trkpt lat="43.38141" lon="6.64753">
        <ele>87.400001525879</ele>
        <time>2019-05-30T13:29:05.000Z</time>
      </trkpt>
      <trkpt lat="43.38136" lon="6.64753">
        <ele>87.800003051758</ele>
        <time>2019-05-30T13:29:08.000Z</time>
      </trkpt>
      <trkpt lat="43.38133" lon="6.64752">
        <ele>88.199996948242</ele>
        <time>2019-05-30T13:29:12.000Z</time>
      </trkpt>
      <trkpt lat="43.3813" lon="6.64751">
        <ele>88.800003051758</ele>
        <time>2019-05-30T13:29:16.000Z</time>
      </trkpt>
      <trkpt lat="43.3813" lon="6.64751">
        <ele>88.800003051758</ele>
        <time>2019-05-30T13:29:19.000Z</time>
      </trkpt>
      <trkpt lat="43.38126" lon="6.6475">
        <ele>89.599998474121</ele>
        <time>2019-05-30T13:29:26.000Z</time>
      </trkpt>
      <trkpt lat="43.38125" lon="6.64751">
        <ele>89.800003051758</ele>
        <time>2019-05-30T13:29:27.000Z</time>
      </trkpt>
      <trkpt lat="43.38121" lon="6.64753">
        <ele>89.800003051758</ele>
        <time>2019-05-30T13:29:33.000Z</time>
      </trkpt>
      <trkpt lat="43.38115" lon="6.64753">
        <ele>90.199996948242</ele>
        <time>2019-05-30T13:29:40.000Z</time>
      </trkpt>
      <trkpt lat="43.38108" lon="6.64756">
        <ele>90.400001525879</ele>
        <time>2019-05-30T13:29:47.000Z</time>
      </trkpt>
      <trkpt lat="43.38104" lon="6.64756">
        <ele>90.800003051758</ele>
        <time>2019-05-30T13:29:51.000Z</time>
      </trkpt>
      <trkpt lat="43.38101" lon="6.64757">
        <ele>91.199996948242</ele>
        <time>2019-05-30T13:29:54.000Z</time>
      </trkpt>
      <trkpt lat="43.38098" lon="6.64757">
        <ele>92</ele>
        <time>2019-05-30T13:29:59.000Z</time>
      </trkpt>
      <trkpt lat="43.38097" lon="6.64755">
        <ele>92</ele>
        <time>2019-05-30T13:30:00.000Z</time>
      </trkpt>
      <trkpt lat="43.38096" lon="6.64754">
        <ele>92</ele>
        <time>2019-05-30T13:30:01.000Z</time>
      </trkpt>
      <trkpt lat="43.38087" lon="6.6474">
        <ele>91.800003051758</ele>
        <time>2019-05-30T13:30:07.000Z</time>
      </trkpt>
      <trkpt lat="43.38079" lon="6.64715">
        <ele>91.599998474121</ele>
        <time>2019-05-30T13:30:14.000Z</time>
      </trkpt>
      <trkpt lat="43.3808" lon="6.64691">
        <ele>91.599998474121</ele>
        <time>2019-05-30T13:30:19.000Z</time>
      </trkpt>
      <trkpt lat="43.38082" lon="6.64675">
        <ele>91.400001525879</ele>
        <time>2019-05-30T13:30:22.000Z</time>
      </trkpt>
      <trkpt lat="43.38084" lon="6.64664">
        <ele>91</ele>
        <time>2019-05-30T13:30:24.000Z</time>
      </trkpt>
      <trkpt lat="43.38086" lon="6.64659">
        <ele>90.800003051758</ele>
        <time>2019-05-30T13:30:25.000Z</time>
      </trkpt>
      <trkpt lat="43.38092" lon="6.64644">
        <ele>89.400001525879</ele>
        <time>2019-05-30T13:30:28.000Z</time>
      </trkpt>
      <trkpt lat="43.38093" lon="6.6464">
        <ele>89.199996948242</ele>
        <time>2019-05-30T13:30:29.000Z</time>
      </trkpt>
      <trkpt lat="43.38099" lon="6.64611">
        <ele>89.800003051758</ele>
        <time>2019-05-30T13:30:35.000Z</time>
      </trkpt>
      <trkpt lat="43.38098" lon="6.64593">
        <ele>90.199996948242</ele>
        <time>2019-05-30T13:30:39.000Z</time>
      </trkpt>
      <trkpt lat="43.38093" lon="6.6458">
        <ele>89.599998474121</ele>
        <time>2019-05-30T13:30:43.000Z</time>
      </trkpt>
      <trkpt lat="43.38093" lon="6.64569">
        <ele>89.599998474121</ele>
        <time>2019-05-30T13:30:46.000Z</time>
      </trkpt>
      <trkpt lat="43.38094" lon="6.64566">
        <ele>89.599998474121</ele>
        <time>2019-05-30T13:30:47.000Z</time>
      </trkpt>
      <trkpt lat="43.38097" lon="6.64555">
        <ele>89.599998474121</ele>
        <time>2019-05-30T13:30:50.000Z</time>
      </trkpt>
      <trkpt lat="43.38101" lon="6.64537">
        <ele>90.199996948242</ele>
        <time>2019-05-30T13:30:55.000Z</time>
      </trkpt>
      <trkpt lat="43.38102" lon="6.64526">
        <ele>90.400001525879</ele>
        <time>2019-05-30T13:30:58.000Z</time>
      </trkpt>
      <trkpt lat="43.38103" lon="6.64517">
        <ele>91.199996948242</ele>
        <time>2019-05-30T13:31:01.000Z</time>
      </trkpt>
      <trkpt lat="43.38102" lon="6.6451">
        <ele>91.599998474121</ele>
        <time>2019-05-30T13:31:03.000Z</time>
      </trkpt>
      <trkpt lat="43.38096" lon="6.64492">
        <ele>91.800003051758</ele>
        <time>2019-05-30T13:31:08.000Z</time>
      </trkpt>
      <trkpt lat="43.38084" lon="6.64488">
        <ele>92.400001525879</ele>
        <time>2019-05-30T13:31:12.000Z</time>
      </trkpt>
      <trkpt lat="43.38071" lon="6.64482">
        <ele>92.599998474121</ele>
        <time>2019-05-30T13:31:16.000Z</time>
      </trkpt>
      <trkpt lat="43.38064" lon="6.64479">
        <ele>93</ele>
        <time>2019-05-30T13:31:18.000Z</time>
      </trkpt>
      <trkpt lat="43.38038" lon="6.6448">
        <ele>93</ele>
        <time>2019-05-30T13:31:25.000Z</time>
      </trkpt>
      <trkpt lat="43.38017" lon="6.64488">
        <ele>92.800003051758</ele>
        <time>2019-05-30T13:31:31.000Z</time>
      </trkpt>
      <trkpt lat="43.37999" lon="6.6449">
        <ele>93.800003051758</ele>
        <time>2019-05-30T13:31:37.000Z</time>
      </trkpt>
      <trkpt lat="43.37988" lon="6.64492">
        <ele>94.800003051758</ele>
        <time>2019-05-30T13:31:41.000Z</time>
      </trkpt>
      <trkpt lat="43.37979" lon="6.64489">
        <ele>95.599998474121</ele>
        <time>2019-05-30T13:31:44.000Z</time>
      </trkpt>
      <trkpt lat="43.37974" lon="6.64487">
        <ele>96</ele>
        <time>2019-05-30T13:31:46.000Z</time>
      </trkpt>
      <trkpt lat="43.37956" lon="6.64482">
        <ele>96</ele>
        <time>2019-05-30T13:31:51.000Z</time>
      </trkpt>
      <trkpt lat="43.37936" lon="6.64483">
        <ele>96.199996948242</ele>
        <time>2019-05-30T13:31:57.000Z</time>
      </trkpt>
      <trkpt lat="43.37921" lon="6.64481">
        <ele>97</ele>
        <time>2019-05-30T13:32:01.000Z</time>
      </trkpt>
      <trkpt lat="43.37909" lon="6.64479">
        <ele>97.599998474121</ele>
        <time>2019-05-30T13:32:04.000Z</time>
      </trkpt>
      <trkpt lat="43.37874" lon="6.64478">
        <ele>97.199996948242</ele>
        <time>2019-05-30T13:32:12.000Z</time>
      </trkpt>
      <trkpt lat="43.37861" lon="6.64476">
        <ele>96.400001525879</ele>
        <time>2019-05-30T13:32:16.000Z</time>
      </trkpt>
      <trkpt lat="43.37852" lon="6.64477">
        <ele>95.800003051758</ele>
        <time>2019-05-30T13:32:20.000Z</time>
      </trkpt>
      <trkpt lat="43.37848" lon="6.64479">
        <ele>95.599998474121</ele>
        <time>2019-05-30T13:32:22.000Z</time>
      </trkpt>
      <trkpt lat="43.37834" lon="6.64482">
        <ele>96.400001525879</ele>
        <time>2019-05-30T13:32:28.000Z</time>
      </trkpt>
      <trkpt lat="43.37827" lon="6.64486">
        <ele>97</ele>
        <time>2019-05-30T13:32:31.000Z</time>
      </trkpt>
      <trkpt lat="43.37888" lon="6.64442">
        <ele>87.5</ele>
      </trkpt>
      <trkpt lat="43.38024" lon="6.64446">
        <ele>86.2</ele>
      </trkpt>
      <trkpt lat="43.38056" lon="6.64419">
        <ele>86.5</ele>
      </trkpt>
      <trkpt lat="43.38113" lon="6.6444">
        <ele>86</ele>
      </trkpt>
      <trkpt lat="43.38165" lon="6.64358">
        <ele>92.6</ele>
      </trkpt>
      <trkpt lat="43.38274" lon="6.64225">
        <ele>102.2</ele>
      </trkpt>
      <trkpt lat="43.38226" lon="6.64162">
        <ele>105.7</ele>
      </trkpt>
      <trkpt lat="43.38228" lon="6.64115">
        <ele>108.5</ele>
      </trkpt>
      <trkpt lat="43.38303" lon="6.64025">
        <ele>98.5</ele>
      </trkpt>
      <trkpt lat="43.38293" lon="6.63911">
        <ele>100.2</ele>
      </trkpt>
      <trkpt lat="43.38217" lon="6.63852">
        <ele>107.4</ele>
      </trkpt>
      <trkpt lat="43.37758" lon="6.63752">
        <ele>157.2</ele>
      </trkpt>
      <trkpt lat="43.37711" lon="6.63604">
        <ele>157.4</ele>
      </trkpt>
      <trkpt lat="43.37752" lon="6.63464">
        <ele>151</ele>
      </trkpt>
      <trkpt lat="43.377" lon="6.63364">
        <ele>160.5</ele>
      </trkpt>
      <trkpt lat="43.37555" lon="6.63376">
        <ele>173.3</ele>
      </trkpt>
      <trkpt lat="43.37468" lon="6.63332">
        <ele>174.6</ele>
      </trkpt>
      <trkpt lat="43.37445" lon="6.63384">
        <ele>186.8</ele>
      </trkpt>
      <trkpt lat="43.37235" lon="6.63224">
        <ele>203.2</ele>
      </trkpt>
      <trkpt lat="43.36929" lon="6.63017">
        <ele>228.5</ele>
      </trkpt>
      <trkpt lat="43.36855" lon="6.62981">
        <ele>242.8</ele>
      </trkpt>
      <trkpt lat="43.36823" lon="6.62912">
        <ele>246.4</ele>
      </trkpt>
      <trkpt lat="43.36761" lon="6.62843">
        <ele>260.9</ele>
      </trkpt>
      <trkpt lat="43.36736" lon="6.62831">
        <ele>266.8</ele>
      </trkpt>
      <trkpt lat="43.36733" lon="6.62729">
        <ele>270.9</ele>
      </trkpt>
      <trkpt lat="43.36701" lon="6.62726">
        <ele>272.8</ele>
      </trkpt>
      <trkpt lat="43.36693" lon="6.62706">
        <ele>272.8</ele>
      </trkpt>
      <trkpt lat="43.36682" lon="6.6271">
        <ele>273</ele>
      </trkpt>
      <trkpt lat="43.36665" lon="6.62678">
        <ele>269.4</ele>
      </trkpt>
      <trkpt lat="43.36665" lon="6.62587">
        <ele>266.3</ele>
      </trkpt>
      <trkpt lat="43.36662" lon="6.6254">
        <ele>267.5</ele>
      </trkpt>
      <trkpt lat="43.36624" lon="6.62379">
        <ele>278.3</ele>
      </trkpt>
      <trkpt lat="43.36523" lon="6.62362">
        <ele>261.9</ele>
      </trkpt>
      <trkpt lat="43.36469" lon="6.62328">
        <ele>259.4</ele>
      </trkpt>
      <trkpt lat="43.36413" lon="6.62208">
        <ele>263.7</ele>
      </trkpt>
      <trkpt lat="43.36385" lon="6.62203">
        <ele>258.1</ele>
      </trkpt>
      <trkpt lat="43.36364" lon="6.62171">
        <ele>259.9</ele>
      </trkpt>
      <trkpt lat="43.3633" lon="6.62157">
        <ele>252.7</ele>
      </trkpt>
      <trkpt lat="43.36338" lon="6.62113">
        <ele>250.5</ele>
      </trkpt>
      <trkpt lat="43.36416" lon="6.62027">
        <ele>257.7</ele>
      </trkpt>
      <trkpt lat="43.36428" lon="6.62014">
        <ele>261</ele>
      </trkpt>
      <trkpt lat="43.36409" lon="6.61969">
        <ele>255</ele>
      </trkpt>
      <trkpt lat="43.36405" lon="6.61914">
        <ele>259.5</ele>
      </trkpt>
      <trkpt lat="43.36384" lon="6.61858">
        <ele>266.1</ele>
      </trkpt>
      <trkpt lat="43.36336" lon="6.61868">
        <ele>254.1</ele>
      </trkpt>
      <trkpt lat="43.36253" lon="6.61816">
        <ele>241.8</ele>
      </trkpt>
      <trkpt lat="43.36251" lon="6.61806">
        <ele>243.3</ele>
      </trkpt>
      <trkpt lat="43.36242" lon="6.61801">
        <ele>240.7</ele>
      </trkpt>
      <trkpt lat="43.36207" lon="6.6172">
        <ele>244.9</ele>
      </trkpt>
      <trkpt lat="43.36156" lon="6.61668">
        <ele>235</ele>
      </trkpt>
      <trkpt lat="43.36147" lon="6.61633">
        <ele>231.5</ele>
      </trkpt>
      <trkpt lat="43.36127" lon="6.61527">
        <ele>227.7</ele>
      </trkpt>
      <trkpt lat="43.36076" lon="6.61494">
        <ele>213</ele>
      </trkpt>
      <trkpt lat="43.36072" lon="6.6138">
        <ele>216.2</ele>
      </trkpt>
      <trkpt lat="43.36099" lon="6.61335">
        <ele>222.1</ele>
      </trkpt>
      <trkpt lat="43.36118" lon="6.61251">
        <ele>220.6</ele>
      </trkpt>
      <trkpt lat="43.3614" lon="6.6121">
        <ele>226.9</ele>
      </trkpt>
      <trkpt lat="43.36122" lon="6.61182">
        <ele>220.8</ele>
      </trkpt>
      <trkpt lat="43.36139" lon="6.61154">
        <ele>228.4</ele>
      </trkpt>
      <trkpt lat="43.36093" lon="6.61068">
        <ele>222.4</ele>
      </trkpt>
      <trkpt lat="43.36103" lon="6.60972">
        <ele>241.8</ele>
      </trkpt>
      <trkpt lat="43.36063" lon="6.60948">
        <ele>236.3</ele>
      </trkpt>
      <trkpt lat="43.36033" lon="6.60909">
        <ele>238.6</ele>
      </trkpt>
      <trkpt lat="43.3601" lon="6.60851">
        <ele>243.2</ele>
      </trkpt>
      <trkpt lat="43.35927" lon="6.60849">
        <ele>253.1</ele>
      </trkpt>
      <trkpt lat="43.35862" lon="6.60946">
        <ele>259.2</ele>
      </trkpt>
      <trkpt lat="43.35816" lon="6.60974">
        <ele>269.6</ele>
      </trkpt>
      <trkpt lat="43.35774" lon="6.61034">
        <ele>277.1</ele>
      </trkpt>
      <trkpt lat="43.35741" lon="6.61094">
        <ele>283.2</ele>
      </trkpt>
      <trkpt lat="43.35719" lon="6.61227">
        <ele>279.1</ele>
      </trkpt>
      <trkpt lat="43.35703" lon="6.61258">
        <ele>277.8</ele>
      </trkpt>
      <trkpt lat="43.35655" lon="6.61254">
        <ele>293.5</ele>
      </trkpt>
      <trkpt lat="43.35608" lon="6.61282">
        <ele>300.3</ele>
      </trkpt>
      <trkpt lat="43.3553" lon="6.61367">
        <ele>308.7</ele>
      </trkpt>
      <trkpt lat="43.35495" lon="6.61454">
        <ele>302.8</ele>
      </trkpt>
      <trkpt lat="43.35454" lon="6.61464">
        <ele>315.5</ele>
      </trkpt>
      <trkpt lat="43.35261" lon="6.61837">
        <ele>306.8</ele>
      </trkpt>
      <trkpt lat="43.35058" lon="6.62113">
        <ele>296.3</ele>
      </trkpt>
      <trkpt lat="43.35065" lon="6.62409">
        <ele>275.9</ele>
      </trkpt>
      <trkpt lat="43.34994" lon="6.62403">
        <ele>276</ele>
      </trkpt>
      <trkpt lat="43.34931" lon="6.62338">
        <ele>274.7</ele>
      </trkpt>
      <trkpt lat="43.34633" lon="6.62328">
        <ele>268</ele>
      </trkpt>
      <trkpt lat="43.34543" lon="6.62348">
        <ele>268.2</ele>
      </trkpt>
      <trkpt lat="43.34514" lon="6.62344">
        <ele>270.8</ele>
      </trkpt>
      <trkpt lat="43.34466" lon="6.62361">
        <ele>269.6</ele>
      </trkpt>
      <trkpt lat="43.34438" lon="6.6239">
        <ele>271.2</ele>
      </trkpt>
      <trkpt lat="43.34404" lon="6.62509">
        <ele>286.6</ele>
      </trkpt>
      <trkpt lat="43.34379" lon="6.62544">
        <ele>288.7</ele>
      </trkpt>
      <trkpt lat="43.34374" lon="6.62569">
        <ele>291.3</ele>
      </trkpt>
      <trkpt lat="43.34388" lon="6.62753">
        <ele>310.3</ele>
      </trkpt>
      <trkpt lat="43.34321" lon="6.62897">
        <ele>320.1</ele>
      </trkpt>
      <trkpt lat="43.34137" lon="6.62924">
        <ele>287.1</ele>
      </trkpt>
      <trkpt lat="43.34068" lon="6.62946">
        <ele>272.6</ele>
      </trkpt>
      <trkpt lat="43.33972" lon="6.62928">
        <ele>262</ele>
      </trkpt>
      <trkpt lat="43.33838" lon="6.62905">
        <ele>244.3</ele>
      </trkpt>
      <trkpt lat="43.33763" lon="6.6282">
        <ele>221.3</ele>
      </trkpt>
      <trkpt lat="43.3373" lon="6.62752">
        <ele>210.7</ele>
      </trkpt>
      <trkpt lat="43.33714" lon="6.62716">
        <ele>204.3</ele>
      </trkpt>
      <trkpt lat="43.33743" lon="6.62673">
        <ele>193</ele>
      </trkpt>
      <trkpt lat="43.33675" lon="6.62608">
        <ele>181.4</ele>
      </trkpt>
      <trkpt lat="43.33627" lon="6.62582">
        <ele>170.6</ele>
      </trkpt>
      <trkpt lat="43.33602" lon="6.6256">
        <ele>164.3</ele>
      </trkpt>
      <trkpt lat="43.33563" lon="6.62435">
        <ele>141.5</ele>
      </trkpt>
      <trkpt lat="43.33458" lon="6.62339">
        <ele>118.9</ele>
      </trkpt>
      <trkpt lat="43.33417" lon="6.62317">
        <ele>112.8</ele>
      </trkpt>
      <trkpt lat="43.33404" lon="6.6228">
        <ele>108.6</ele>
      </trkpt>
      <trkpt lat="43.33355" lon="6.62258">
        <ele>102.1</ele>
      </trkpt>
      <trkpt lat="43.33332" lon="6.62235">
        <ele>98.2</ele>
      </trkpt>
      <trkpt lat="43.33308" lon="6.62193">
        <ele>91.1</ele>
      </trkpt>
      <trkpt lat="43.33244" lon="6.6219">
        <ele>84</ele>
      </trkpt>
      <trkpt lat="43.33211" lon="6.62139">
        <ele>75.7</ele>
      </trkpt>
      <trkpt lat="43.33174" lon="6.62094">
        <ele>66.4</ele>
      </trkpt>
      <trkpt lat="43.33151" lon="6.62099">
        <ele>63.7</ele>
      </trkpt>
      <trkpt lat="43.33139" lon="6.62082">
        <ele>60.1</ele>
      </trkpt>
      <trkpt lat="43.33102" lon="6.62051">
        <ele>49.9</ele>
      </trkpt>
      <trkpt lat="43.3312" lon="6.62014">
        <ele>47.4</ele>
      </trkpt>
      <trkpt lat="43.33167" lon="6.61975">
        <ele>49.5</ele>
      </trkpt>
      <trkpt lat="43.33161" lon="6.61941">
        <ele>47.1</ele>
      </trkpt>
      <trkpt lat="43.33118" lon="6.61932">
        <ele>43.9</ele>
      </trkpt>
      <trkpt lat="43.33011" lon="6.62031">
        <ele>39.3</ele>
      </trkpt>
      <trkpt lat="43.32962" lon="6.6202">
        <ele>34.4</ele>
      </trkpt>
    </trkseg>
  </trk>
  <trk>
    <name><![CDATA[Lachens modif'_2]]></name>
    <trkseg>
      <trkpt lat="43.37827" lon="6.64486">
        <ele>97</ele>
        <time>2019-05-30T13:32:31.000Z</time>
      </trkpt>
      <trkpt lat="43.37819" lon="6.64492">
        <ele>97.199996948242</ele>
        <time>2019-05-30T13:32:35.000Z</time>
      </trkpt>
      <trkpt lat="43.37803" lon="6.64503">
        <ele>97.599998474121</ele>
        <time>2019-05-30T13:32:42.000Z</time>
      </trkpt>
      <trkpt lat="43.37794" lon="6.64507">
        <ele>98</ele>
        <time>2019-05-30T13:32:46.000Z</time>
      </trkpt>
      <trkpt lat="43.37789" lon="6.64509">
        <ele>98.199996948242</ele>
        <time>2019-05-30T13:32:48.000Z</time>
      </trkpt>
      <trkpt lat="43.37779" lon="6.64513">
        <ele>99</ele>
        <time>2019-05-30T13:32:52.000Z</time>
      </trkpt>
      <trkpt lat="43.37773" lon="6.64517">
        <ele>99.400001525879</ele>
        <time>2019-05-30T13:32:55.000Z</time>
      </trkpt>
      <trkpt lat="43.37763" lon="6.64525">
        <ele>99</ele>
        <time>2019-05-30T13:33:00.000Z</time>
      </trkpt>
      <trkpt lat="43.37755" lon="6.64541">
        <ele>99.199996948242</ele>
        <time>2019-05-30T13:33:07.000Z</time>
      </trkpt>
      <trkpt lat="43.37752" lon="6.64551">
        <ele>100.19999694824</ele>
        <time>2019-05-30T13:33:11.000Z</time>
      </trkpt>
      <trkpt lat="43.37751" lon="6.64555">
        <ele>100.80000305176</ele>
        <time>2019-05-30T13:33:13.000Z</time>
      </trkpt>
      <trkpt lat="43.37749" lon="6.64557">
        <ele>101.40000152588</ele>
        <time>2019-05-30T13:33:15.000Z</time>
      </trkpt>
      <trkpt lat="43.37745" lon="6.64566">
        <ele>102.40000152588</ele>
        <time>2019-05-30T13:33:20.000Z</time>
      </trkpt>
      <trkpt lat="43.37743" lon="6.64569">
        <ele>102.59999847412</ele>
        <time>2019-05-30T13:33:21.000Z</time>
      </trkpt>
      <trkpt lat="43.37735" lon="6.64578">
        <ele>103.40000152588</ele>
        <time>2019-05-30T13:33:27.000Z</time>
      </trkpt>
      <trkpt lat="43.37734" lon="6.6458">
        <ele>103.59999847412</ele>
        <time>2019-05-30T13:33:28.000Z</time>
      </trkpt>
      <trkpt lat="43.37722" lon="6.64587">
        <ele>104.80000305176</ele>
        <time>2019-05-30T13:33:34.000Z</time>
      </trkpt>
      <trkpt lat="43.37718" lon="6.64589">
        <ele>105</ele>
        <time>2019-05-30T13:33:36.000Z</time>
      </trkpt>
      <trkpt lat="43.37699" lon="6.64594">
        <ele>105</ele>
        <time>2019-05-30T13:33:44.000Z</time>
      </trkpt>
      <trkpt lat="43.37679" lon="6.64594">
        <ele>106</ele>
        <time>2019-05-30T13:33:52.000Z</time>
      </trkpt>
      <trkpt lat="43.37677" lon="6.64593">
        <ele>106</ele>
        <time>2019-05-30T13:33:53.000Z</time>
      </trkpt>
      <trkpt lat="43.37665" lon="6.64589">
        <ele>107</ele>
        <time>2019-05-30T13:33:58.000Z</time>
      </trkpt>
      <trkpt lat="43.3766" lon="6.64586">
        <ele>107.19999694824</ele>
        <time>2019-05-30T13:34:00.000Z</time>
      </trkpt>
      <trkpt lat="43.3765" lon="6.6458">
        <ele>108</ele>
        <time>2019-05-30T13:34:04.000Z</time>
      </trkpt>
      <trkpt lat="43.3764" lon="6.64575">
        <ele>108</ele>
        <time>2019-05-30T13:34:07.000Z</time>
      </trkpt>
      <trkpt lat="43.37632" lon="6.64573">
        <ele>108</ele>
        <time>2019-05-30T13:34:09.000Z</time>
      </trkpt>
      <trkpt lat="43.37618" lon="6.64574">
        <ele>108</ele>
        <time>2019-05-30T13:34:12.000Z</time>
      </trkpt>
      <trkpt lat="43.3759" lon="6.64582">
        <ele>107.19999694824</ele>
        <time>2019-05-30T13:34:18.000Z</time>
      </trkpt>
      <trkpt lat="43.37572" lon="6.64592">
        <ele>107</ele>
        <time>2019-05-30T13:34:22.000Z</time>
      </trkpt>
      <trkpt lat="43.37564" lon="6.64599">
        <ele>106.80000305176</ele>
        <time>2019-05-30T13:34:24.000Z</time>
      </trkpt>
      <trkpt lat="43.37552" lon="6.64608">
        <ele>106.59999847412</ele>
        <time>2019-05-30T13:34:27.000Z</time>
      </trkpt>
      <trkpt lat="43.37537" lon="6.6462">
        <ele>106.80000305176</ele>
        <time>2019-05-30T13:34:31.000Z</time>
      </trkpt>
      <trkpt lat="43.37505" lon="6.64648">
        <ele>107.19999694824</ele>
        <time>2019-05-30T13:34:40.000Z</time>
      </trkpt>
      <trkpt lat="43.37485" lon="6.64663">
        <ele>108</ele>
        <time>2019-05-30T13:34:47.000Z</time>
      </trkpt>
      <trkpt lat="43.37483" lon="6.64665">
        <ele>108</ele>
        <time>2019-05-30T13:34:48.000Z</time>
      </trkpt>
      <trkpt lat="43.37473" lon="6.64671">
        <ele>109</ele>
        <time>2019-05-30T13:34:52.000Z</time>
      </trkpt>
      <trkpt lat="43.3747" lon="6.64673">
        <ele>109.19999694824</ele>
        <time>2019-05-30T13:34:53.000Z</time>
      </trkpt>
      <trkpt lat="43.37454" lon="6.64687">
        <ele>109.19999694824</ele>
        <time>2019-05-30T13:34:59.000Z</time>
      </trkpt>
      <trkpt lat="43.37431" lon="6.64705">
        <ele>110.19999694824</ele>
        <time>2019-05-30T13:35:07.000Z</time>
      </trkpt>
      <trkpt lat="43.37428" lon="6.64708">
        <ele>110.40000152588</ele>
        <time>2019-05-30T13:35:08.000Z</time>
      </trkpt>
      <trkpt lat="43.374" lon="6.64731">
        <ele>111.40000152588</ele>
        <time>2019-05-30T13:35:17.000Z</time>
      </trkpt>
      <trkpt lat="43.37396" lon="6.64734">
        <ele>111.59999847412</ele>
        <time>2019-05-30T13:35:18.000Z</time>
      </trkpt>
      <trkpt lat="43.37368" lon="6.64759">
        <ele>112</ele>
        <time>2019-05-30T13:35:26.000Z</time>
      </trkpt>
      <trkpt lat="43.37356" lon="6.64762">
        <ele>111.80000305176</ele>
        <time>2019-05-30T13:35:29.000Z</time>
      </trkpt>
      <trkpt lat="43.37348" lon="6.64762">
        <ele>111.59999847412</ele>
        <time>2019-05-30T13:35:31.000Z</time>
      </trkpt>
      <trkpt lat="43.37318" lon="6.64764">
        <ele>112.59999847412</ele>
        <time>2019-05-30T13:35:39.000Z</time>
      </trkpt>
      <trkpt lat="43.37291" lon="6.64767">
        <ele>113</ele>
        <time>2019-05-30T13:35:46.000Z</time>
      </trkpt>
      <trkpt lat="43.37278" lon="6.64763">
        <ele>112.19999694824</ele>
        <time>2019-05-30T13:35:50.000Z</time>
      </trkpt>
      <trkpt lat="43.37264" lon="6.64748">
        <ele>112.80000305176</ele>
        <time>2019-05-30T13:35:56.000Z</time>
      </trkpt>
      <trkpt lat="43.37246" lon="6.64721">
        <ele>113.80000305176</ele>
        <time>2019-05-30T13:36:04.000Z</time>
      </trkpt>
      <trkpt lat="43.37226" lon="6.64694">
        <ele>114.40000152588</ele>
        <time>2019-05-30T13:36:12.000Z</time>
      </trkpt>
      <trkpt lat="43.37211" lon="6.64693">
        <ele>114.80000305176</ele>
        <time>2019-05-30T13:36:17.000Z</time>
      </trkpt>
      <trkpt lat="43.37188" lon="6.647">
        <ele>114.40000152588</ele>
        <time>2019-05-30T13:36:24.000Z</time>
      </trkpt>
      <trkpt lat="43.37183" lon="6.64702">
        <ele>115</ele>
        <time>2019-05-30T13:36:26.000Z</time>
      </trkpt>
      <trkpt lat="43.37171" lon="6.64711">
        <ele>116</ele>
        <time>2019-05-30T13:36:30.000Z</time>
      </trkpt>
      <trkpt lat="43.37154" lon="6.64719">
        <ele>116.40000152588</ele>
        <time>2019-05-30T13:36:36.000Z</time>
      </trkpt>
      <trkpt lat="43.37127" lon="6.64729">
        <ele>116.40000152588</ele>
        <time>2019-05-30T13:36:44.000Z</time>
      </trkpt>
      <trkpt lat="43.37104" lon="6.6474">
        <ele>116.80000305176</ele>
        <time>2019-05-30T13:36:51.000Z</time>
      </trkpt>
      <trkpt lat="43.37095" lon="6.64745">
        <ele>117</ele>
        <time>2019-05-30T13:36:54.000Z</time>
      </trkpt>
      <trkpt lat="43.37083" lon="6.64755">
        <ele>117.59999847412</ele>
        <time>2019-05-30T13:36:58.000Z</time>
      </trkpt>
      <trkpt lat="43.3706" lon="6.64768">
        <ele>118</ele>
        <time>2019-05-30T13:37:06.000Z</time>
      </trkpt>
      <trkpt lat="43.37057" lon="6.64768">
        <ele>118.40000152588</ele>
        <time>2019-05-30T13:37:07.000Z</time>
      </trkpt>
      <trkpt lat="43.37031" lon="6.64773">
        <ele>119</ele>
        <time>2019-05-30T13:37:15.000Z</time>
      </trkpt>
      <trkpt lat="43.37002" lon="6.64767">
        <ele>119.80000305176</ele>
        <time>2019-05-30T13:37:24.000Z</time>
      </trkpt>
      <trkpt lat="43.36983" lon="6.64759">
        <ele>120.19999694824</ele>
        <time>2019-05-30T13:37:30.000Z</time>
      </trkpt>
      <trkpt lat="43.36977" lon="6.64758">
        <ele>120.40000152588</ele>
        <time>2019-05-30T13:37:32.000Z</time>
      </trkpt>
      <trkpt lat="43.36959" lon="6.64756">
        <ele>120.80000305176</ele>
        <time>2019-05-30T13:37:38.000Z</time>
      </trkpt>
      <trkpt lat="43.36939" lon="6.64761">
        <ele>121</ele>
        <time>2019-05-30T13:37:45.000Z</time>
      </trkpt>
      <trkpt lat="43.36934" lon="6.64762">
        <ele>121.40000152588</ele>
        <time>2019-05-30T13:37:47.000Z</time>
      </trkpt>
      <trkpt lat="43.3692" lon="6.64768">
        <ele>120.80000305176</ele>
        <time>2019-05-30T13:37:52.000Z</time>
      </trkpt>
      <trkpt lat="43.36903" lon="6.64778">
        <ele>121</ele>
        <time>2019-05-30T13:37:59.000Z</time>
      </trkpt>
      <trkpt lat="43.36894" lon="6.64785">
        <ele>121.80000305176</ele>
        <time>2019-05-30T13:38:05.000Z</time>
      </trkpt>
      <trkpt lat="43.36885" lon="6.64795">
        <ele>122.59999847412</ele>
        <time>2019-05-30T13:38:10.000Z</time>
      </trkpt>
      <trkpt lat="43.36882" lon="6.648">
        <ele>122.59999847412</ele>
        <time>2019-05-30T13:38:12.000Z</time>
      </trkpt>
      <trkpt lat="43.36875" lon="6.64818">
        <ele>123.19999694824</ele>
        <time>2019-05-30T13:38:18.000Z</time>
      </trkpt>
      <trkpt lat="43.36874" lon="6.64829">
        <ele>123.59999847412</ele>
        <time>2019-05-30T13:38:21.000Z</time>
      </trkpt>
      <trkpt lat="43.36872" lon="6.64837">
        <ele>124.19999694824</ele>
        <time>2019-05-30T13:38:24.000Z</time>
      </trkpt>
      <trkpt lat="43.3687" lon="6.64845">
        <ele>124.59999847412</ele>
        <time>2019-05-30T13:38:27.000Z</time>
      </trkpt>
      <trkpt lat="43.36867" lon="6.64853">
        <ele>125.19999694824</ele>
        <time>2019-05-30T13:38:31.000Z</time>
      </trkpt>
      <trkpt lat="43.36864" lon="6.64856">
        <ele>125.59999847412</ele>
        <time>2019-05-30T13:38:33.000Z</time>
      </trkpt>
      <trkpt lat="43.36858" lon="6.6486">
        <ele>126.40000152588</ele>
        <time>2019-05-30T13:38:36.000Z</time>
      </trkpt>
      <trkpt lat="43.36839" lon="6.64864">
        <ele>126.59999847412</ele>
        <time>2019-05-30T13:38:42.000Z</time>
      </trkpt>
      <trkpt lat="43.36836" lon="6.64865">
        <ele>126.59999847412</ele>
        <time>2019-05-30T13:38:43.000Z</time>
      </trkpt>
      <trkpt lat="43.36811" lon="6.64872">
        <ele>126.80000305176</ele>
        <time>2019-05-30T13:38:51.000Z</time>
      </trkpt>
      <trkpt lat="43.36791" lon="6.64876">
        <ele>127.19999694824</ele>
        <time>2019-05-30T13:38:58.000Z</time>
      </trkpt>
      <trkpt lat="43.36779" lon="6.64876">
        <ele>127.80000305176</ele>
        <time>2019-05-30T13:39:02.000Z</time>
      </trkpt>
      <trkpt lat="43.36769" lon="6.64876">
        <ele>128</ele>
        <time>2019-05-30T13:39:05.000Z</time>
      </trkpt>
      <trkpt lat="43.36738" lon="6.64878">
        <ele>128.39999389648</ele>
        <time>2019-05-30T13:39:15.000Z</time>
      </trkpt>
      <trkpt lat="43.36729" lon="6.6488">
        <ele>128.80000305176</ele>
        <time>2019-05-30T13:39:18.000Z</time>
      </trkpt>
      <trkpt lat="43.36711" lon="6.64886">
        <ele>129</ele>
        <time>2019-05-30T13:39:24.000Z</time>
      </trkpt>
      <trkpt lat="43.36701" lon="6.6489">
        <ele>129.80000305176</ele>
        <time>2019-05-30T13:39:28.000Z</time>
      </trkpt>
      <trkpt lat="43.36693" lon="6.64894">
        <ele>130.19999694824</ele>
        <time>2019-05-30T13:39:31.000Z</time>
      </trkpt>
      <trkpt lat="43.36677" lon="6.64903">
        <ele>131</ele>
        <time>2019-05-30T13:39:37.000Z</time>
      </trkpt>
      <trkpt lat="43.36665" lon="6.64909">
        <ele>131.39999389648</ele>
        <time>2019-05-30T13:39:41.000Z</time>
      </trkpt>
      <trkpt lat="43.36655" lon="6.64913">
        <ele>132</ele>
        <time>2019-05-30T13:39:44.000Z</time>
      </trkpt>
      <trkpt lat="43.3664" lon="6.64921">
        <ele>132</ele>
        <time>2019-05-30T13:39:49.000Z</time>
      </trkpt>
      <trkpt lat="43.36606" lon="6.64941">
        <ele>132.39999389648</ele>
        <time>2019-05-30T13:39:59.000Z</time>
      </trkpt>
      <trkpt lat="43.36584" lon="6.64958">
        <ele>133.19999694824</ele>
        <time>2019-05-30T13:40:07.000Z</time>
      </trkpt>
      <trkpt lat="43.36582" lon="6.6496">
        <ele>133.39999389648</ele>
        <time>2019-05-30T13:40:08.000Z</time>
      </trkpt>
      <trkpt lat="43.36572" lon="6.64972">
        <ele>134.39999389648</ele>
        <time>2019-05-30T13:40:14.000Z</time>
      </trkpt>
      <trkpt lat="43.3657" lon="6.64978">
        <ele>135</ele>
        <time>2019-05-30T13:40:17.000Z</time>
      </trkpt>
      <trkpt lat="43.36568" lon="6.64987">
        <ele>135.39999389648</ele>
        <time>2019-05-30T13:40:20.000Z</time>
      </trkpt>
      <trkpt lat="43.36568" lon="6.65002">
        <ele>135.80000305176</ele>
        <time>2019-05-30T13:40:24.000Z</time>
      </trkpt>
      <trkpt lat="43.36569" lon="6.65044">
        <ele>135.60000610352</ele>
        <time>2019-05-30T13:40:34.000Z</time>
      </trkpt>
      <trkpt lat="43.36571" lon="6.65076">
        <ele>136.19999694824</ele>
        <time>2019-05-30T13:40:42.000Z</time>
      </trkpt>
      <trkpt lat="43.36572" lon="6.65083">
        <ele>136.39999389648</ele>
        <time>2019-05-30T13:40:44.000Z</time>
      </trkpt>
      <trkpt lat="43.36578" lon="6.65106">
        <ele>136.80000305176</ele>
        <time>2019-05-30T13:40:50.000Z</time>
      </trkpt>
      <trkpt lat="43.36585" lon="6.6513">
        <ele>137</ele>
        <time>2019-05-30T13:40:57.000Z</time>
      </trkpt>
      <trkpt lat="43.36586" lon="6.65138">
        <ele>137.60000610352</ele>
        <time>2019-05-30T13:40:59.000Z</time>
      </trkpt>
      <trkpt lat="43.36589" lon="6.65164">
        <ele>138.39999389648</ele>
        <time>2019-05-30T13:41:05.000Z</time>
      </trkpt>
      <trkpt lat="43.36589" lon="6.65171">
        <ele>138.80000305176</ele>
        <time>2019-05-30T13:41:07.000Z</time>
      </trkpt>
      <trkpt lat="43.3659" lon="6.65188">
        <ele>139.39999389648</ele>
        <time>2019-05-30T13:41:12.000Z</time>
      </trkpt>
      <trkpt lat="43.36591" lon="6.65201">
        <ele>139.80000305176</ele>
        <time>2019-05-30T13:41:15.000Z</time>
      </trkpt>
      <trkpt lat="43.36589" lon="6.65217">
        <ele>140</ele>
        <time>2019-05-30T13:41:19.000Z</time>
      </trkpt>
      <trkpt lat="43.36587" lon="6.65246">
        <ele>140.39999389648</ele>
        <time>2019-05-30T13:41:27.000Z</time>
      </trkpt>
      <trkpt lat="43.36584" lon="6.65267">
        <ele>141</ele>
        <time>2019-05-30T13:41:33.000Z</time>
      </trkpt>
      <trkpt lat="43.36584" lon="6.65274">
        <ele>141.39999389648</ele>
        <time>2019-05-30T13:41:35.000Z</time>
      </trkpt>
      <trkpt lat="43.36585" lon="6.653">
        <ele>142</ele>
        <time>2019-05-30T13:41:42.000Z</time>
      </trkpt>
      <trkpt lat="43.36587" lon="6.65307">
        <ele>142.19999694824</ele>
        <time>2019-05-30T13:41:44.000Z</time>
      </trkpt>
      <trkpt lat="43.36592" lon="6.65321">
        <ele>143.19999694824</ele>
        <time>2019-05-30T13:41:48.000Z</time>
      </trkpt>
      <trkpt lat="43.36597" lon="6.65337">
        <ele>143.39999389648</ele>
        <time>2019-05-30T13:41:52.000Z</time>
      </trkpt>
      <trkpt lat="43.36597" lon="6.65369">
        <ele>143.60000610352</ele>
        <time>2019-05-30T13:41:59.000Z</time>
      </trkpt>
      <trkpt lat="43.36598" lon="6.65397">
        <ele>143.60000610352</ele>
        <time>2019-05-30T13:42:06.000Z</time>
      </trkpt>
      <trkpt lat="43.36599" lon="6.65412">
        <ele>144.19999694824</ele>
        <time>2019-05-30T13:42:10.000Z</time>
      </trkpt>
      <trkpt lat="43.36599" lon="6.65421">
        <ele>144.39999389648</ele>
        <time>2019-05-30T13:42:12.000Z</time>
      </trkpt>
      <trkpt lat="43.366" lon="6.65457">
        <ele>144.60000610352</ele>
        <time>2019-05-30T13:42:20.000Z</time>
      </trkpt>
      <trkpt lat="43.36606" lon="6.65478">
        <ele>145.19999694824</ele>
        <time>2019-05-30T13:42:27.000Z</time>
      </trkpt>
      <trkpt lat="43.36607" lon="6.65481">
        <ele>145.19999694824</ele>
        <time>2019-05-30T13:42:28.000Z</time>
      </trkpt>
      <trkpt lat="43.36612" lon="6.65497">
        <ele>146.19999694824</ele>
        <time>2019-05-30T13:42:34.000Z</time>
      </trkpt>
      <trkpt lat="43.36613" lon="6.65499">
        <ele>146.39999389648</ele>
        <time>2019-05-30T13:42:35.000Z</time>
      </trkpt>
      <trkpt lat="43.36617" lon="6.65513">
        <ele>147.39999389648</ele>
        <time>2019-05-30T13:42:41.000Z</time>
      </trkpt>
      <trkpt lat="43.36618" lon="6.65515">
        <ele>147.80000305176</ele>
        <time>2019-05-30T13:42:42.000Z</time>
      </trkpt>
      <trkpt lat="43.36619" lon="6.65521">
        <ele>148.80000305176</ele>
        <time>2019-05-30T13:42:45.000Z</time>
      </trkpt>
      <trkpt lat="43.36618" lon="6.65532">
        <ele>149.80000305176</ele>
        <time>2019-05-30T13:42:50.000Z</time>
      </trkpt>
      <trkpt lat="43.36613" lon="6.65554">
        <ele>150.19999694824</ele>
        <time>2019-05-30T13:42:57.000Z</time>
      </trkpt>
      <trkpt lat="43.36613" lon="6.65584">
        <ele>150</ele>
        <time>2019-05-30T13:43:04.000Z</time>
      </trkpt>
      <trkpt lat="43.36616" lon="6.65599">
        <ele>150.39999389648</ele>
        <time>2019-05-30T13:43:08.000Z</time>
      </trkpt>
      <trkpt lat="43.3662" lon="6.65607">
        <ele>150.80000305176</ele>
        <time>2019-05-30T13:43:12.000Z</time>
      </trkpt>
      <trkpt lat="43.36623" lon="6.65612">
        <ele>151.60000610352</ele>
        <time>2019-05-30T13:43:15.000Z</time>
      </trkpt>
      <trkpt lat="43.36624" lon="6.65616">
        <ele>152</ele>
        <time>2019-05-30T13:43:17.000Z</time>
      </trkpt>
      <trkpt lat="43.36629" lon="6.65626">
        <ele>152.60000610352</ele>
        <time>2019-05-30T13:43:22.000Z</time>
      </trkpt>
      <trkpt lat="43.36631" lon="6.65634">
        <ele>153</ele>
        <time>2019-05-30T13:43:25.000Z</time>
      </trkpt>
      <trkpt lat="43.36633" lon="6.6564">
        <ele>153.19999694824</ele>
        <time>2019-05-30T13:43:28.000Z</time>
      </trkpt>
      <trkpt lat="43.36637" lon="6.65658">
        <ele>154</ele>
        <time>2019-05-30T13:43:35.000Z</time>
      </trkpt>
      <trkpt lat="43.36643" lon="6.65674">
        <ele>154.80000305176</ele>
        <time>2019-05-30T13:43:41.000Z</time>
      </trkpt>
      <trkpt lat="43.36647" lon="6.65681">
        <ele>155.19999694824</ele>
        <time>2019-05-30T13:43:44.000Z</time>
      </trkpt>
      <trkpt lat="43.36651" lon="6.65688">
        <ele>155.19999694824</ele>
        <time>2019-05-30T13:43:47.000Z</time>
      </trkpt>
      <trkpt lat="43.36658" lon="6.65706">
        <ele>155.80000305176</ele>
        <time>2019-05-30T13:43:54.000Z</time>
      </trkpt>
      <trkpt lat="43.36662" lon="6.65714">
        <ele>156.19999694824</ele>
        <time>2019-05-30T13:43:57.000Z</time>
      </trkpt>
      <trkpt lat="43.36665" lon="6.65719">
        <ele>156.19999694824</ele>
        <time>2019-05-30T13:43:59.000Z</time>
      </trkpt>
      <trkpt lat="43.36675" lon="6.65735">
        <ele>157</ele>
        <time>2019-05-30T13:44:06.000Z</time>
      </trkpt>
      <trkpt lat="43.36676" lon="6.65737">
        <ele>157.19999694824</ele>
        <time>2019-05-30T13:44:07.000Z</time>
      </trkpt>
      <trkpt lat="43.36681" lon="6.6575">
        <ele>158.60000610352</ele>
        <time>2019-05-30T13:44:13.000Z</time>
      </trkpt>
      <trkpt lat="43.36682" lon="6.65756">
        <ele>159.60000610352</ele>
        <time>2019-05-30T13:44:16.000Z</time>
      </trkpt>
      <trkpt lat="43.36683" lon="6.65767">
        <ele>159.80000305176</ele>
        <time>2019-05-30T13:44:21.000Z</time>
      </trkpt>
      <trkpt lat="43.36677" lon="6.65786">
        <ele>160.19999694824</ele>
        <time>2019-05-30T13:44:29.000Z</time>
      </trkpt>
      <trkpt lat="43.36676" lon="6.65789">
        <ele>160.80000305176</ele>
        <time>2019-05-30T13:44:30.000Z</time>
      </trkpt>
      <trkpt lat="43.36668" lon="6.65802">
        <ele>161.39999389648</ele>
        <time>2019-05-30T13:44:36.000Z</time>
      </trkpt>
      <trkpt lat="43.36666" lon="6.65806">
        <ele>161.80000305176</ele>
        <time>2019-05-30T13:44:38.000Z</time>
      </trkpt>
      <trkpt lat="43.36659" lon="6.65812">
        <ele>162.60000610352</ele>
        <time>2019-05-30T13:44:42.000Z</time>
      </trkpt>
      <trkpt lat="43.36657" lon="6.65816">
        <ele>163</ele>
        <time>2019-05-30T13:44:44.000Z</time>
      </trkpt>
      <trkpt lat="43.36655" lon="6.65824">
        <ele>164</ele>
        <time>2019-05-30T13:44:47.000Z</time>
      </trkpt>
      <trkpt lat="43.36651" lon="6.65842">
        <ele>164.80000305176</ele>
        <time>2019-05-30T13:44:53.000Z</time>
      </trkpt>
      <trkpt lat="43.36653" lon="6.65865">
        <ele>165.19999694824</ele>
        <time>2019-05-30T13:45:00.000Z</time>
      </trkpt>
      <trkpt lat="43.36659" lon="6.65872">
        <ele>165.60000610352</ele>
        <time>2019-05-30T13:45:05.000Z</time>
      </trkpt>
      <trkpt lat="43.36666" lon="6.65872">
        <ele>166.19999694824</ele>
        <time>2019-05-30T13:45:09.000Z</time>
      </trkpt>
      <trkpt lat="43.36669" lon="6.65871">
        <ele>166.39999389648</ele>
        <time>2019-05-30T13:45:11.000Z</time>
      </trkpt>
      <trkpt lat="43.36679" lon="6.65866">
        <ele>167.39999389648</ele>
        <time>2019-05-30T13:45:18.000Z</time>
      </trkpt>
      <trkpt lat="43.3669" lon="6.65859">
        <ele>167.80000305176</ele>
        <time>2019-05-30T13:45:25.000Z</time>
      </trkpt>
      <trkpt lat="43.36698" lon="6.65857">
        <ele>168.60000610352</ele>
        <time>2019-05-30T13:45:30.000Z</time>
      </trkpt>
      <trkpt lat="43.367" lon="6.65856">
        <ele>168.80000305176</ele>
        <time>2019-05-30T13:45:32.000Z</time>
      </trkpt>
      <trkpt lat="43.36703" lon="6.65856">
        <ele>169</ele>
        <time>2019-05-30T13:45:34.000Z</time>
      </trkpt>
      <trkpt lat="43.36707" lon="6.6586">
        <ele>169.60000610352</ele>
        <time>2019-05-30T13:45:37.000Z</time>
      </trkpt>
      <trkpt lat="43.36713" lon="6.65868">
        <ele>170.80000305176</ele>
        <time>2019-05-30T13:45:43.000Z</time>
      </trkpt>
      <trkpt lat="43.36715" lon="6.65871">
        <ele>171.19999694824</ele>
        <time>2019-05-30T13:45:45.000Z</time>
      </trkpt>
      <trkpt lat="43.36717" lon="6.65877">
        <ele>171.80000305176</ele>
        <time>2019-05-30T13:45:48.000Z</time>
      </trkpt>
      <trkpt lat="43.36719" lon="6.65882">
        <ele>172.60000610352</ele>
        <time>2019-05-30T13:45:51.000Z</time>
      </trkpt>
      <trkpt lat="43.36721" lon="6.65887">
        <ele>173</ele>
        <time>2019-05-30T13:45:54.000Z</time>
      </trkpt>
      <trkpt lat="43.36723" lon="6.65893">
        <ele>173.60000610352</ele>
        <time>2019-05-30T13:45:58.000Z</time>
      </trkpt>
      <trkpt lat="43.36724" lon="6.65897">
        <ele>174</ele>
        <time>2019-05-30T13:46:00.000Z</time>
      </trkpt>
      <trkpt lat="43.36727" lon="6.65907">
        <ele>175</ele>
        <time>2019-05-30T13:46:06.000Z</time>
      </trkpt>
      <trkpt lat="43.36728" lon="6.65909">
        <ele>175.19999694824</ele>
        <time>2019-05-30T13:46:07.000Z</time>
      </trkpt>
      <trkpt lat="43.3673" lon="6.65919">
        <ele>175.60000610352</ele>
        <time>2019-05-30T13:46:12.000Z</time>
      </trkpt>
      <trkpt lat="43.36732" lon="6.65927">
        <ele>176.39999389648</ele>
        <time>2019-05-30T13:46:16.000Z</time>
      </trkpt>
      <trkpt lat="43.36733" lon="6.65931">
        <ele>176.80000305176</ele>
        <time>2019-05-30T13:46:18.000Z</time>
      </trkpt>
      <trkpt lat="43.36734" lon="6.65935">
        <ele>177.39999389648</ele>
        <time>2019-05-30T13:46:20.000Z</time>
      </trkpt>
      <trkpt lat="43.36736" lon="6.65942">
        <ele>178.19999694824</ele>
        <time>2019-05-30T13:46:24.000Z</time>
      </trkpt>
      <trkpt lat="43.36736" lon="6.65944">
        <ele>178.39999389648</ele>
        <time>2019-05-30T13:46:25.000Z</time>
      </trkpt>
      <trkpt lat="43.36738" lon="6.6595">
        <ele>179.39999389648</ele>
        <time>2019-05-30T13:46:29.000Z</time>
      </trkpt>
      <trkpt lat="43.3674" lon="6.65958">
        <ele>180.60000610352</ele>
        <time>2019-05-30T13:46:34.000Z</time>
      </trkpt>
      <trkpt lat="43.3674" lon="6.6596">
        <ele>180.60000610352</ele>
        <time>2019-05-30T13:46:35.000Z</time>
      </trkpt>
      <trkpt lat="43.36743" lon="6.65973">
        <ele>181.60000610352</ele>
        <time>2019-05-30T13:46:42.000Z</time>
      </trkpt>
      <trkpt lat="43.36744" lon="6.65975">
        <ele>181.60000610352</ele>
        <time>2019-05-30T13:46:43.000Z</time>
      </trkpt>
      <trkpt lat="43.3675" lon="6.65993">
        <ele>182.19999694824</ele>
        <time>2019-05-30T13:46:51.000Z</time>
      </trkpt>
      <trkpt lat="43.36753" lon="6.66012">
        <ele>182.19999694824</ele>
        <time>2019-05-30T13:46:58.000Z</time>
      </trkpt>
      <trkpt lat="43.36755" lon="6.6602">
        <ele>182.19999694824</ele>
        <time>2019-05-30T13:47:02.000Z</time>
      </trkpt>
      <trkpt lat="43.36757" lon="6.66024">
        <ele>182.80000305176</ele>
        <time>2019-05-30T13:47:04.000Z</time>
      </trkpt>
      <trkpt lat="43.36758" lon="6.66033">
        <ele>183.80000305176</ele>
        <time>2019-05-30T13:47:08.000Z</time>
      </trkpt>
      <trkpt lat="43.36759" lon="6.66037">
        <ele>184.19999694824</ele>
        <time>2019-05-30T13:47:10.000Z</time>
      </trkpt>
      <trkpt lat="43.36759" lon="6.66045">
        <ele>185</ele>
        <time>2019-05-30T13:47:14.000Z</time>
      </trkpt>
      <trkpt lat="43.36759" lon="6.66051">
        <ele>185.39999389648</ele>
        <time>2019-05-30T13:47:17.000Z</time>
      </trkpt>
      <trkpt lat="43.36758" lon="6.6606">
        <ele>186.19999694824</ele>
        <time>2019-05-30T13:47:21.000Z</time>
      </trkpt>
      <trkpt lat="43.36757" lon="6.66071">
        <ele>186.80000305176</ele>
        <time>2019-05-30T13:47:25.000Z</time>
      </trkpt>
      <trkpt lat="43.36757" lon="6.66083">
        <ele>187.19999694824</ele>
        <time>2019-05-30T13:47:29.000Z</time>
      </trkpt>
      <trkpt lat="43.36758" lon="6.6609">
        <ele>187.60000610352</ele>
        <time>2019-05-30T13:47:32.000Z</time>
      </trkpt>
      <trkpt lat="43.36759" lon="6.66097">
        <ele>188.19999694824</ele>
        <time>2019-05-30T13:47:35.000Z</time>
      </trkpt>
      <trkpt lat="43.36759" lon="6.66107">
        <ele>189</ele>
        <time>2019-05-30T13:47:39.000Z</time>
      </trkpt>
      <trkpt lat="43.36759" lon="6.66111">
        <ele>189.19999694824</ele>
        <time>2019-05-30T13:47:41.000Z</time>
      </trkpt>
      <trkpt lat="43.36761" lon="6.66119">
        <ele>190.19999694824</ele>
        <time>2019-05-30T13:47:45.000Z</time>
      </trkpt>
      <trkpt lat="43.36761" lon="6.66121">
        <ele>190.39999389648</ele>
        <time>2019-05-30T13:47:46.000Z</time>
      </trkpt>
      <trkpt lat="43.36759" lon="6.66132">
        <ele>190.80000305176</ele>
        <time>2019-05-30T13:47:51.000Z</time>
      </trkpt>
      <trkpt lat="43.36753" lon="6.66142">
        <ele>191.19999694824</ele>
        <time>2019-05-30T13:47:57.000Z</time>
      </trkpt>
      <trkpt lat="43.36745" lon="6.66155">
        <ele>191.39999389648</ele>
        <time>2019-05-30T13:48:03.000Z</time>
      </trkpt>
      <trkpt lat="43.36744" lon="6.66157">
        <ele>191.60000610352</ele>
        <time>2019-05-30T13:48:04.000Z</time>
      </trkpt>
      <trkpt lat="43.36737" lon="6.6617">
        <ele>192.19999694824</ele>
        <time>2019-05-30T13:48:10.000Z</time>
      </trkpt>
      <trkpt lat="43.36736" lon="6.66175">
        <ele>192.60000610352</ele>
        <time>2019-05-30T13:48:12.000Z</time>
      </trkpt>
      <trkpt lat="43.36732" lon="6.66184">
        <ele>193.19999694824</ele>
        <time>2019-05-30T13:48:16.000Z</time>
      </trkpt>
      <trkpt lat="43.36731" lon="6.66186">
        <ele>193.60000610352</ele>
        <time>2019-05-30T13:48:17.000Z</time>
      </trkpt>
      <trkpt lat="43.36723" lon="6.66201">
        <ele>194.39999389648</ele>
        <time>2019-05-30T13:48:24.000Z</time>
      </trkpt>
      <trkpt lat="43.36718" lon="6.6621">
        <ele>194.60000610352</ele>
        <time>2019-05-30T13:48:28.000Z</time>
      </trkpt>
      <trkpt lat="43.36711" lon="6.6622">
        <ele>195</ele>
        <time>2019-05-30T13:48:33.000Z</time>
      </trkpt>
      <trkpt lat="43.36704" lon="6.66226">
        <ele>195.60000610352</ele>
        <time>2019-05-30T13:48:37.000Z</time>
      </trkpt>
      <trkpt lat="43.36696" lon="6.66233">
        <ele>196</ele>
        <time>2019-05-30T13:48:41.000Z</time>
      </trkpt>
      <trkpt lat="43.36687" lon="6.6624">
        <ele>196.60000610352</ele>
        <time>2019-05-30T13:48:45.000Z</time>
      </trkpt>
      <trkpt lat="43.36681" lon="6.66251">
        <ele>196.80000305176</ele>
        <time>2019-05-30T13:48:50.000Z</time>
      </trkpt>
      <trkpt lat="43.36671" lon="6.66263">
        <ele>197</ele>
        <time>2019-05-30T13:48:55.000Z</time>
      </trkpt>
      <trkpt lat="43.36658" lon="6.66282">
        <ele>197</ele>
        <time>2019-05-30T13:49:00.000Z</time>
      </trkpt>
      <trkpt lat="43.36657" lon="6.66288">
        <ele>197</ele>
        <time>2019-05-30T13:49:01.000Z</time>
      </trkpt>
      <trkpt lat="43.36657" lon="6.66307">
        <ele>196.60000610352</ele>
        <time>2019-05-30T13:49:05.000Z</time>
      </trkpt>
      <trkpt lat="43.36658" lon="6.66313">
        <ele>196.39999389648</ele>
        <time>2019-05-30T13:49:06.000Z</time>
      </trkpt>
      <trkpt lat="43.36658" lon="6.66336">
        <ele>195.60000610352</ele>
        <time>2019-05-30T13:49:10.000Z</time>
      </trkpt>
      <trkpt lat="43.36658" lon="6.66342">
        <ele>195.19999694824</ele>
        <time>2019-05-30T13:49:11.000Z</time>
      </trkpt>
      <trkpt lat="43.36656" lon="6.66366">
        <ele>194.80000305176</ele>
        <time>2019-05-30T13:49:14.000Z</time>
      </trkpt>
      <trkpt lat="43.36656" lon="6.66373">
        <ele>194.60000610352</ele>
        <time>2019-05-30T13:49:15.000Z</time>
      </trkpt>
      <trkpt lat="43.36657" lon="6.66379">
        <ele>194.60000610352</ele>
        <time>2019-05-30T13:49:16.000Z</time>
      </trkpt>
      <trkpt lat="43.36663" lon="6.66401">
        <ele>192.80000305176</ele>
        <time>2019-05-30T13:49:19.000Z</time>
      </trkpt>
      <trkpt lat="43.36666" lon="6.66418">
        <ele>191.60000610352</ele>
        <time>2019-05-30T13:49:21.000Z</time>
      </trkpt>
      <trkpt lat="43.36667" lon="6.66435">
        <ele>190.80000305176</ele>
        <time>2019-05-30T13:49:23.000Z</time>
      </trkpt>
      <trkpt lat="43.36669" lon="6.66455">
        <ele>190.19999694824</ele>
        <time>2019-05-30T13:49:25.000Z</time>
      </trkpt>
      <trkpt lat="43.36667" lon="6.66486">
        <ele>188.60000610352</ele>
        <time>2019-05-30T13:49:28.000Z</time>
      </trkpt>
      <trkpt lat="43.36666" lon="6.66507">
        <ele>187</ele>
        <time>2019-05-30T13:49:30.000Z</time>
      </trkpt>
      <trkpt lat="43.36665" lon="6.66517">
        <ele>186</ele>
        <time>2019-05-30T13:49:31.000Z</time>
      </trkpt>
      <trkpt lat="43.36665" lon="6.6654">
        <ele>184.19999694824</ele>
        <time>2019-05-30T13:49:33.000Z</time>
      </trkpt>
      <trkpt lat="43.36666" lon="6.66551">
        <ele>183.19999694824</ele>
        <time>2019-05-30T13:49:34.000Z</time>
      </trkpt>
      <trkpt lat="43.36667" lon="6.66563">
        <ele>182.80000305176</ele>
        <time>2019-05-30T13:49:35.000Z</time>
      </trkpt>
      <trkpt lat="43.3667" lon="6.66578">
        <ele>181.39999389648</ele>
        <time>2019-05-30T13:49:37.000Z</time>
      </trkpt>
      <trkpt lat="43.36674" lon="6.66609">
        <ele>180</ele>
        <time>2019-05-30T13:49:39.000Z</time>
      </trkpt>
      <trkpt lat="43.36672" lon="6.6663">
        <ele>178.80000305176</ele>
        <time>2019-05-30T13:49:41.000Z</time>
      </trkpt>
      <trkpt lat="43.36668" lon="6.6665">
        <ele>177.60000610352</ele>
        <time>2019-05-30T13:49:43.000Z</time>
      </trkpt>
      <trkpt lat="43.36655" lon="6.66671">
        <ele>177.19999694824</ele>
        <time>2019-05-30T13:49:46.000Z</time>
      </trkpt>
      <trkpt lat="43.36638" lon="6.66673">
        <ele>178.19999694824</ele>
        <time>2019-05-30T13:49:49.000Z</time>
      </trkpt>
      <trkpt lat="43.36627" lon="6.66668">
        <ele>179</ele>
        <time>2019-05-30T13:49:51.000Z</time>
      </trkpt>
      <trkpt lat="43.36622" lon="6.66665">
        <ele>179.39999389648</ele>
        <time>2019-05-30T13:49:52.000Z</time>
      </trkpt>
      <trkpt lat="43.3661" lon="6.66659">
        <ele>179.60000610352</ele>
        <time>2019-05-30T13:49:54.000Z</time>
      </trkpt>
      <trkpt lat="43.36588" lon="6.66642">
        <ele>179.80000305176</ele>
        <time>2019-05-30T13:49:58.000Z</time>
      </trkpt>
      <trkpt lat="43.36584" lon="6.66636">
        <ele>179.60000610352</ele>
        <time>2019-05-30T13:49:59.000Z</time>
      </trkpt>
      <trkpt lat="43.36558" lon="6.66602">
        <ele>179.80000305176</ele>
        <time>2019-05-30T13:50:05.000Z</time>
      </trkpt>
      <trkpt lat="43.36548" lon="6.66593">
        <ele>180</ele>
        <time>2019-05-30T13:50:07.000Z</time>
      </trkpt>
      <trkpt lat="43.36529" lon="6.66572">
        <ele>180</ele>
        <time>2019-05-30T13:50:11.000Z</time>
      </trkpt>
      <trkpt lat="43.36509" lon="6.66555">
        <ele>179.39999389648</ele>
        <time>2019-05-30T13:50:15.000Z</time>
      </trkpt>
      <trkpt lat="43.36503" lon="6.66564">
        <ele>178.80000305176</ele>
        <time>2019-05-30T13:50:17.000Z</time>
      </trkpt>
      <trkpt lat="43.36506" lon="6.66582">
        <ele>178</ele>
        <time>2019-05-30T13:50:20.000Z</time>
      </trkpt>
      <trkpt lat="43.36508" lon="6.66588">
        <ele>177.60000610352</ele>
        <time>2019-05-30T13:50:21.000Z</time>
      </trkpt>
      <trkpt lat="43.36511" lon="6.66614">
        <ele>177.19999694824</ele>
        <time>2019-05-30T13:50:25.000Z</time>
      </trkpt>
      <trkpt lat="43.36511" lon="6.6662">
        <ele>177.19999694824</ele>
        <time>2019-05-30T13:50:26.000Z</time>
      </trkpt>
      <trkpt lat="43.36506" lon="6.66649">
        <ele>178</ele>
        <time>2019-05-30T13:50:30.000Z</time>
      </trkpt>
      <trkpt lat="43.36507" lon="6.66656">
        <ele>178</ele>
        <time>2019-05-30T13:50:31.000Z</time>
      </trkpt>
      <trkpt lat="43.36509" lon="6.66669">
        <ele>178.19999694824</ele>
        <time>2019-05-30T13:50:33.000Z</time>
      </trkpt>
      <trkpt lat="43.36514" lon="6.66683">
        <ele>178.39999389648</ele>
        <time>2019-05-30T13:50:36.000Z</time>
      </trkpt>
      <trkpt lat="43.36515" lon="6.66687">
        <ele>178.80000305176</ele>
        <time>2019-05-30T13:50:37.000Z</time>
      </trkpt>
      <trkpt lat="43.36516" lon="6.66692">
        <ele>179</ele>
        <time>2019-05-30T13:50:38.000Z</time>
      </trkpt>
      <trkpt lat="43.36518" lon="6.66703">
        <ele>179.80000305176</ele>
        <time>2019-05-30T13:50:41.000Z</time>
      </trkpt>
      <trkpt lat="43.36519" lon="6.66719">
        <ele>181</ele>
        <time>2019-05-30T13:50:45.000Z</time>
      </trkpt>
      <trkpt lat="43.36518" lon="6.66743">
        <ele>182</ele>
        <time>2019-05-30T13:50:51.000Z</time>
      </trkpt>
      <trkpt lat="43.36518" lon="6.66754">
        <ele>182.19999694824</ele>
        <time>2019-05-30T13:50:54.000Z</time>
      </trkpt>
      <trkpt lat="43.36522" lon="6.66768">
        <ele>183</ele>
        <time>2019-05-30T13:50:58.000Z</time>
      </trkpt>
      <trkpt lat="43.36525" lon="6.66776">
        <ele>183.39999389648</ele>
        <time>2019-05-30T13:51:00.000Z</time>
      </trkpt>
      <trkpt lat="43.36531" lon="6.6679">
        <ele>184.19999694824</ele>
        <time>2019-05-30T13:51:04.000Z</time>
      </trkpt>
      <trkpt lat="43.36536" lon="6.66804">
        <ele>184.60000610352</ele>
        <time>2019-05-30T13:51:08.000Z</time>
      </trkpt>
      <trkpt lat="43.36539" lon="6.66814">
        <ele>185.19999694824</ele>
        <time>2019-05-30T13:51:11.000Z</time>
      </trkpt>
      <trkpt lat="43.36542" lon="6.66822">
        <ele>186.19999694824</ele>
        <time>2019-05-30T13:51:14.000Z</time>
      </trkpt>
      <trkpt lat="43.36544" lon="6.66831">
        <ele>186.60000610352</ele>
        <time>2019-05-30T13:51:17.000Z</time>
      </trkpt>
      <trkpt lat="43.36547" lon="6.66843">
        <ele>187.19999694824</ele>
        <time>2019-05-30T13:51:21.000Z</time>
      </trkpt>
      <trkpt lat="43.36551" lon="6.66857">
        <ele>187.60000610352</ele>
        <time>2019-05-30T13:51:26.000Z</time>
      </trkpt>
      <trkpt lat="43.36553" lon="6.66865">
        <ele>188.19999694824</ele>
        <time>2019-05-30T13:51:29.000Z</time>
      </trkpt>
      <trkpt lat="43.36555" lon="6.66878">
        <ele>188.60000610352</ele>
        <time>2019-05-30T13:51:33.000Z</time>
      </trkpt>
      <trkpt lat="43.36562" lon="6.66896">
        <ele>189.19999694824</ele>
        <time>2019-05-30T13:51:40.000Z</time>
      </trkpt>
      <trkpt lat="43.36563" lon="6.66898">
        <ele>189.39999389648</ele>
        <time>2019-05-30T13:51:41.000Z</time>
      </trkpt>
      <trkpt lat="43.36571" lon="6.66914">
        <ele>190.39999389648</ele>
        <time>2019-05-30T13:51:48.000Z</time>
      </trkpt>
      <trkpt lat="43.36578" lon="6.66937">
        <ele>191.19999694824</ele>
        <time>2019-05-30T13:51:57.000Z</time>
      </trkpt>
      <trkpt lat="43.36579" lon="6.6696">
        <ele>191.39999389648</ele>
        <time>2019-05-30T13:52:05.000Z</time>
      </trkpt>
      <trkpt lat="43.36579" lon="6.66964">
        <ele>191.39999389648</ele>
        <time>2019-05-30T13:52:06.000Z</time>
      </trkpt>
      <trkpt lat="43.36572" lon="6.66981">
        <ele>190.80000305176</ele>
        <time>2019-05-30T13:52:11.000Z</time>
      </trkpt>
      <trkpt lat="43.36561" lon="6.66995">
        <ele>191.39999389648</ele>
        <time>2019-05-30T13:52:15.000Z</time>
      </trkpt>
      <trkpt lat="43.36557" lon="6.66998">
        <ele>191.60000610352</ele>
        <time>2019-05-30T13:52:16.000Z</time>
      </trkpt>
      <trkpt lat="43.36541" lon="6.67003">
        <ele>190.60000610352</ele>
        <time>2019-05-30T13:52:19.000Z</time>
      </trkpt>
      <trkpt lat="43.36536" lon="6.67004">
        <ele>189.80000305176</ele>
        <time>2019-05-30T13:52:20.000Z</time>
      </trkpt>
      <trkpt lat="43.36524" lon="6.67007">
        <ele>188.19999694824</ele>
        <time>2019-05-30T13:52:22.000Z</time>
      </trkpt>
      <trkpt lat="43.36512" lon="6.67009">
        <ele>186.80000305176</ele>
        <time>2019-05-30T13:52:24.000Z</time>
      </trkpt>
      <trkpt lat="43.36506" lon="6.67011">
        <ele>186.19999694824</ele>
        <time>2019-05-30T13:52:25.000Z</time>
      </trkpt>
      <trkpt lat="43.365" lon="6.67015">
        <ele>186</ele>
        <time>2019-05-30T13:52:26.000Z</time>
      </trkpt>
      <trkpt lat="43.36496" lon="6.67019">
        <ele>185.60000610352</ele>
        <time>2019-05-30T13:52:27.000Z</time>
      </trkpt>
      <trkpt lat="43.36489" lon="6.67027">
        <ele>185.80000305176</ele>
        <time>2019-05-30T13:52:29.000Z</time>
      </trkpt>
      <trkpt lat="43.36484" lon="6.67031">
        <ele>185.80000305176</ele>
        <time>2019-05-30T13:52:30.000Z</time>
      </trkpt>
      <trkpt lat="43.36474" lon="6.67042">
        <ele>186.60000610352</ele>
        <time>2019-05-30T13:52:33.000Z</time>
      </trkpt>
      <trkpt lat="43.36463" lon="6.67055">
        <ele>187</ele>
        <time>2019-05-30T13:52:37.000Z</time>
      </trkpt>
      <trkpt lat="43.36457" lon="6.67063">
        <ele>187.60000610352</ele>
        <time>2019-05-30T13:52:39.000Z</time>
      </trkpt>
      <trkpt lat="43.36448" lon="6.67085">
        <ele>188.19999694824</ele>
        <time>2019-05-30T13:52:44.000Z</time>
      </trkpt>
      <trkpt lat="43.36445" lon="6.67094">
        <ele>188.80000305176</ele>
        <time>2019-05-30T13:52:46.000Z</time>
      </trkpt>
      <trkpt lat="43.36436" lon="6.67107">
        <ele>189.19999694824</ele>
        <time>2019-05-30T13:52:51.000Z</time>
      </trkpt>
      <trkpt lat="43.36427" lon="6.67128">
        <ele>189.39999389648</ele>
        <time>2019-05-30T13:52:56.000Z</time>
      </trkpt>
      <trkpt lat="43.36417" lon="6.6716">
        <ele>187.60000610352</ele>
        <time>2019-05-30T13:53:00.000Z</time>
      </trkpt>
      <trkpt lat="43.36415" lon="6.67169">
        <ele>186.80000305176</ele>
        <time>2019-05-30T13:53:01.000Z</time>
      </trkpt>
      <trkpt lat="43.36412" lon="6.67178">
        <ele>186</ele>
        <time>2019-05-30T13:53:02.000Z</time>
      </trkpt>
      <trkpt lat="43.36409" lon="6.6719">
        <ele>184.60000610352</ele>
        <time>2019-05-30T13:53:03.000Z</time>
      </trkpt>
      <trkpt lat="43.36405" lon="6.67201">
        <ele>185.60000610352</ele>
        <time>2019-05-30T13:53:04.000Z</time>
      </trkpt>
      <trkpt lat="43.36402" lon="6.67211">
        <ele>184.80000305176</ele>
        <time>2019-05-30T13:53:05.000Z</time>
      </trkpt>
      <trkpt lat="43.36398" lon="6.67223">
        <ele>184</ele>
        <time>2019-05-30T13:53:06.000Z</time>
      </trkpt>
      <trkpt lat="43.3639" lon="6.67245">
        <ele>182</ele>
        <time>2019-05-30T13:53:08.000Z</time>
      </trkpt>
      <trkpt lat="43.36381" lon="6.67266">
        <ele>180</ele>
        <time>2019-05-30T13:53:10.000Z</time>
      </trkpt>
      <trkpt lat="43.36378" lon="6.67276">
        <ele>178.80000305176</ele>
        <time>2019-05-30T13:53:11.000Z</time>
      </trkpt>
      <trkpt lat="43.36374" lon="6.67285">
        <ele>177.80000305176</ele>
        <time>2019-05-30T13:53:12.000Z</time>
      </trkpt>
      <trkpt lat="43.36367" lon="6.67302">
        <ele>175.80000305176</ele>
        <time>2019-05-30T13:53:14.000Z</time>
      </trkpt>
      <trkpt lat="43.36364" lon="6.67309">
        <ele>175.19999694824</ele>
        <time>2019-05-30T13:53:15.000Z</time>
      </trkpt>
      <trkpt lat="43.36362" lon="6.67315">
        <ele>174.19999694824</ele>
        <time>2019-05-30T13:53:16.000Z</time>
      </trkpt>
      <trkpt lat="43.36359" lon="6.67319">
        <ele>173.60000610352</ele>
        <time>2019-05-30T13:53:17.000Z</time>
      </trkpt>
      <trkpt lat="43.36354" lon="6.67321">
        <ele>172.80000305176</ele>
        <time>2019-05-30T13:53:18.000Z</time>
      </trkpt>
      <trkpt lat="43.36343" lon="6.67321">
        <ele>171.60000610352</ele>
        <time>2019-05-30T13:53:20.000Z</time>
      </trkpt>
      <trkpt lat="43.36337" lon="6.6732">
        <ele>171</ele>
        <time>2019-05-30T13:53:21.000Z</time>
      </trkpt>
      <trkpt lat="43.36332" lon="6.67319">
        <ele>170.19999694824</ele>
        <time>2019-05-30T13:53:22.000Z</time>
      </trkpt>
      <trkpt lat="43.36326" lon="6.67319">
        <ele>169.60000610352</ele>
        <time>2019-05-30T13:53:23.000Z</time>
      </trkpt>
      <trkpt lat="43.36315" lon="6.67321">
        <ele>169</ele>
        <time>2019-05-30T13:53:25.000Z</time>
      </trkpt>
      <trkpt lat="43.36313" lon="6.67324">
        <ele>169</ele>
        <time>2019-05-30T13:53:26.000Z</time>
      </trkpt>
      <trkpt lat="43.36308" lon="6.67329">
        <ele>168.80000305176</ele>
        <time>2019-05-30T13:53:28.000Z</time>
      </trkpt>
      <trkpt lat="43.36301" lon="6.67331">
        <ele>168.60000610352</ele>
        <time>2019-05-30T13:53:30.000Z</time>
      </trkpt>
      <trkpt lat="43.36283" lon="6.67331">
        <ele>168</ele>
        <time>2019-05-30T13:53:34.000Z</time>
      </trkpt>
      <trkpt lat="43.36272" lon="6.67331">
        <ele>167.39999389648</ele>
        <time>2019-05-30T13:53:36.000Z</time>
      </trkpt>
      <trkpt lat="43.3626" lon="6.67331">
        <ele>166.80000305176</ele>
        <time>2019-05-30T13:53:38.000Z</time>
      </trkpt>
      <trkpt lat="43.36242" lon="6.67332">
        <ele>165.80000305176</ele>
        <time>2019-05-30T13:53:41.000Z</time>
      </trkpt>
      <trkpt lat="43.36235" lon="6.67332">
        <ele>165.60000610352</ele>
        <time>2019-05-30T13:53:42.000Z</time>
      </trkpt>
      <trkpt lat="43.36187" lon="6.67334">
        <ele>164.39999389648</ele>
        <time>2019-05-30T13:53:49.000Z</time>
      </trkpt>
      <trkpt lat="43.3618" lon="6.67334">
        <ele>163.19999694824</ele>
        <time>2019-05-30T13:53:50.000Z</time>
      </trkpt>
      <trkpt lat="43.36166" lon="6.67334">
        <ele>161.19999694824</ele>
        <time>2019-05-30T13:53:52.000Z</time>
      </trkpt>
      <trkpt lat="43.3615" lon="6.67334">
        <ele>159.80000305176</ele>
        <time>2019-05-30T13:53:54.000Z</time>
      </trkpt>
      <trkpt lat="43.36135" lon="6.67334">
        <ele>158.60000610352</ele>
        <time>2019-05-30T13:53:56.000Z</time>
      </trkpt>
      <trkpt lat="43.36127" lon="6.67334">
        <ele>158.19999694824</ele>
        <time>2019-05-30T13:53:57.000Z</time>
      </trkpt>
      <trkpt lat="43.36119" lon="6.67333">
        <ele>157.60000610352</ele>
        <time>2019-05-30T13:53:58.000Z</time>
      </trkpt>
      <trkpt lat="43.36094" lon="6.67331">
        <ele>156.19999694824</ele>
        <time>2019-05-30T13:54:01.000Z</time>
      </trkpt>
      <trkpt lat="43.36078" lon="6.67329">
        <ele>154.80000305176</ele>
        <time>2019-05-30T13:54:03.000Z</time>
      </trkpt>
      <trkpt lat="43.36064" lon="6.67327">
        <ele>153.60000610352</ele>
        <time>2019-05-30T13:54:05.000Z</time>
      </trkpt>
      <trkpt lat="43.36045" lon="6.67324">
        <ele>152.60000610352</ele>
        <time>2019-05-30T13:54:07.000Z</time>
      </trkpt>
      <trkpt lat="43.36029" lon="6.67321">
        <ele>151</ele>
        <time>2019-05-30T13:54:09.000Z</time>
      </trkpt>
      <trkpt lat="43.36013" lon="6.67319">
        <ele>149.19999694824</ele>
        <time>2019-05-30T13:54:11.000Z</time>
      </trkpt>
      <trkpt lat="43.36006" lon="6.67317">
        <ele>148.60000610352</ele>
        <time>2019-05-30T13:54:12.000Z</time>
      </trkpt>
      <trkpt lat="43.35997" lon="6.67316">
        <ele>148</ele>
        <time>2019-05-30T13:54:13.000Z</time>
      </trkpt>
      <trkpt lat="43.35973" lon="6.67312">
        <ele>146.39999389648</ele>
        <time>2019-05-30T13:54:16.000Z</time>
      </trkpt>
      <trkpt lat="43.35956" lon="6.67309">
        <ele>145.19999694824</ele>
        <time>2019-05-30T13:54:18.000Z</time>
      </trkpt>
      <trkpt lat="43.3594" lon="6.67307">
        <ele>144</ele>
        <time>2019-05-30T13:54:20.000Z</time>
      </trkpt>
      <trkpt lat="43.35917" lon="6.67307">
        <ele>142.60000610352</ele>
        <time>2019-05-30T13:54:23.000Z</time>
      </trkpt>
      <trkpt lat="43.35902" lon="6.6731">
        <ele>142.39999389648</ele>
        <time>2019-05-30T13:54:25.000Z</time>
      </trkpt>
      <trkpt lat="43.35863" lon="6.67323">
        <ele>141.60000610352</ele>
        <time>2019-05-30T13:54:31.000Z</time>
      </trkpt>
      <trkpt lat="43.3585" lon="6.67326">
        <ele>141.60000610352</ele>
        <time>2019-05-30T13:54:33.000Z</time>
      </trkpt>
      <trkpt lat="43.35829" lon="6.67331">
        <ele>140.60000610352</ele>
        <time>2019-05-30T13:54:36.000Z</time>
      </trkpt>
      <trkpt lat="43.35813" lon="6.67334">
        <ele>139.80000305176</ele>
        <time>2019-05-30T13:54:38.000Z</time>
      </trkpt>
      <trkpt lat="43.35798" lon="6.67337">
        <ele>139.19999694824</ele>
        <time>2019-05-30T13:54:40.000Z</time>
      </trkpt>
      <trkpt lat="43.35782" lon="6.67338">
        <ele>138.19999694824</ele>
        <time>2019-05-30T13:54:42.000Z</time>
      </trkpt>
      <trkpt lat="43.35766" lon="6.67339">
        <ele>136.60000610352</ele>
        <time>2019-05-30T13:54:44.000Z</time>
      </trkpt>
      <trkpt lat="43.3575" lon="6.6734">
        <ele>135.19999694824</ele>
        <time>2019-05-30T13:54:46.000Z</time>
      </trkpt>
      <trkpt lat="43.35733" lon="6.67338">
        <ele>134</ele>
        <time>2019-05-30T13:54:48.000Z</time>
      </trkpt>
      <trkpt lat="43.35707" lon="6.67331">
        <ele>132.60000610352</ele>
        <time>2019-05-30T13:54:51.000Z</time>
      </trkpt>
      <trkpt lat="43.35689" lon="6.67325">
        <ele>131.60000610352</ele>
        <time>2019-05-30T13:54:53.000Z</time>
      </trkpt>
      <trkpt lat="43.3567" lon="6.67318">
        <ele>130.19999694824</ele>
        <time>2019-05-30T13:54:55.000Z</time>
      </trkpt>
      <trkpt lat="43.35653" lon="6.67311">
        <ele>129</ele>
        <time>2019-05-30T13:54:57.000Z</time>
      </trkpt>
      <trkpt lat="43.35643" lon="6.67308">
        <ele>128.60000610352</ele>
        <time>2019-05-30T13:54:58.000Z</time>
      </trkpt>
      <trkpt lat="43.35623" lon="6.67307">
        <ele>127.80000305176</ele>
        <time>2019-05-30T13:55:00.000Z</time>
      </trkpt>
      <trkpt lat="43.35614" lon="6.6731">
        <ele>127.40000152588</ele>
        <time>2019-05-30T13:55:01.000Z</time>
      </trkpt>
      <trkpt lat="43.35595" lon="6.6732">
        <ele>126.19999694824</ele>
        <time>2019-05-30T13:55:03.000Z</time>
      </trkpt>
      <trkpt lat="43.35579" lon="6.67334">
        <ele>124.59999847412</ele>
        <time>2019-05-30T13:55:05.000Z</time>
      </trkpt>
      <trkpt lat="43.35566" lon="6.67354">
        <ele>122.80000305176</ele>
        <time>2019-05-30T13:55:07.000Z</time>
      </trkpt>
      <trkpt lat="43.3556" lon="6.67366">
        <ele>122</ele>
        <time>2019-05-30T13:55:08.000Z</time>
      </trkpt>
      <trkpt lat="43.35555" lon="6.67378">
        <ele>120.59999847412</ele>
        <time>2019-05-30T13:55:09.000Z</time>
      </trkpt>
      <trkpt lat="43.35551" lon="6.6739">
        <ele>120</ele>
        <time>2019-05-30T13:55:10.000Z</time>
      </trkpt>
      <trkpt lat="43.35546" lon="6.67402">
        <ele>119.19999694824</ele>
        <time>2019-05-30T13:55:11.000Z</time>
      </trkpt>
      <trkpt lat="43.35537" lon="6.67427">
        <ele>117.59999847412</ele>
        <time>2019-05-30T13:55:13.000Z</time>
      </trkpt>
      <trkpt lat="43.35531" lon="6.67437">
        <ele>117</ele>
        <time>2019-05-30T13:55:14.000Z</time>
      </trkpt>
      <trkpt lat="43.35524" lon="6.67447">
        <ele>116</ele>
        <time>2019-05-30T13:55:15.000Z</time>
      </trkpt>
      <trkpt lat="43.35516" lon="6.67455">
        <ele>115.40000152588</ele>
        <time>2019-05-30T13:55:16.000Z</time>
      </trkpt>
      <trkpt lat="43.35509" lon="6.67461">
        <ele>114.59999847412</ele>
        <time>2019-05-30T13:55:17.000Z</time>
      </trkpt>
      <trkpt lat="43.35491" lon="6.67473">
        <ele>113.19999694824</ele>
        <time>2019-05-30T13:55:19.000Z</time>
      </trkpt>
      <trkpt lat="43.35483" lon="6.67477">
        <ele>112.59999847412</ele>
        <time>2019-05-30T13:55:20.000Z</time>
      </trkpt>
      <trkpt lat="43.35474" lon="6.6748">
        <ele>111.80000305176</ele>
        <time>2019-05-30T13:55:21.000Z</time>
      </trkpt>
      <trkpt lat="43.35456" lon="6.67484">
        <ele>110.80000305176</ele>
        <time>2019-05-30T13:55:23.000Z</time>
      </trkpt>
      <trkpt lat="43.35447" lon="6.67483">
        <ele>110.19999694824</ele>
        <time>2019-05-30T13:55:24.000Z</time>
      </trkpt>
      <trkpt lat="43.35429" lon="6.67476">
        <ele>109.19999694824</ele>
        <time>2019-05-30T13:55:26.000Z</time>
      </trkpt>
      <trkpt lat="43.35421" lon="6.67471">
        <ele>108.40000152588</ele>
        <time>2019-05-30T13:55:27.000Z</time>
      </trkpt>
      <trkpt lat="43.35413" lon="6.67464">
        <ele>107.80000305176</ele>
        <time>2019-05-30T13:55:28.000Z</time>
      </trkpt>
      <trkpt lat="43.35405" lon="6.67458">
        <ele>107.19999694824</ele>
        <time>2019-05-30T13:55:29.000Z</time>
      </trkpt>
      <trkpt lat="43.35397" lon="6.67451">
        <ele>106.19999694824</ele>
        <time>2019-05-30T13:55:30.000Z</time>
      </trkpt>
      <trkpt lat="43.35389" lon="6.67446">
        <ele>106</ele>
        <time>2019-05-30T13:55:31.000Z</time>
      </trkpt>
      <trkpt lat="43.35364" lon="6.67432">
        <ele>106.59999847412</ele>
        <time>2019-05-30T13:55:34.000Z</time>
      </trkpt>
      <trkpt lat="43.35346" lon="6.6743">
        <ele>106</ele>
        <time>2019-05-30T13:55:36.000Z</time>
      </trkpt>
      <trkpt lat="43.35337" lon="6.67431">
        <ele>104.59999847412</ele>
        <time>2019-05-30T13:55:37.000Z</time>
      </trkpt>
      <trkpt lat="43.35327" lon="6.67433">
        <ele>103.40000152588</ele>
        <time>2019-05-30T13:55:38.000Z</time>
      </trkpt>
      <trkpt lat="43.35319" lon="6.67436">
        <ele>102.40000152588</ele>
        <time>2019-05-30T13:55:39.000Z</time>
      </trkpt>
      <trkpt lat="43.3531" lon="6.67438">
        <ele>101.19999694824</ele>
        <time>2019-05-30T13:55:40.000Z</time>
      </trkpt>
      <trkpt lat="43.35293" lon="6.67442">
        <ele>99.800003051758</ele>
        <time>2019-05-30T13:55:42.000Z</time>
      </trkpt>
      <trkpt lat="43.35275" lon="6.67442">
        <ele>98.599998474121</ele>
        <time>2019-05-30T13:55:44.000Z</time>
      </trkpt>
      <trkpt lat="43.35266" lon="6.67439">
        <ele>98</ele>
        <time>2019-05-30T13:55:45.000Z</time>
      </trkpt>
      <trkpt lat="43.3525" lon="6.67432">
        <ele>97.400001525879</ele>
        <time>2019-05-30T13:55:47.000Z</time>
      </trkpt>
      <trkpt lat="43.35215" lon="6.67415">
        <ele>95.800003051758</ele>
        <time>2019-05-30T13:55:51.000Z</time>
      </trkpt>
      <trkpt lat="43.35199" lon="6.67407">
        <ele>94.599998474121</ele>
        <time>2019-05-30T13:55:53.000Z</time>
      </trkpt>
      <trkpt lat="43.35176" lon="6.67398">
        <ele>93.599998474121</ele>
        <time>2019-05-30T13:55:56.000Z</time>
      </trkpt>
      <trkpt lat="43.35164" lon="6.67396">
        <ele>93</ele>
        <time>2019-05-30T13:55:57.000Z</time>
      </trkpt>
      <trkpt lat="43.35146" lon="6.67399">
        <ele>92.400001525879</ele>
        <time>2019-05-30T13:55:59.000Z</time>
      </trkpt>
      <trkpt lat="43.35137" lon="6.67404">
        <ele>92.199996948242</ele>
        <time>2019-05-30T13:56:00.000Z</time>
      </trkpt>
      <trkpt lat="43.35117" lon="6.67429">
        <ele>91.199996948242</ele>
        <time>2019-05-30T13:56:03.000Z</time>
      </trkpt>
      <trkpt lat="43.35104" lon="6.67447">
        <ele>89.199996948242</ele>
        <time>2019-05-30T13:56:05.000Z</time>
      </trkpt>
      <trkpt lat="43.35093" lon="6.67468">
        <ele>87.400001525879</ele>
        <time>2019-05-30T13:56:07.000Z</time>
      </trkpt>
      <trkpt lat="43.35089" lon="6.67478">
        <ele>86.599998474121</ele>
        <time>2019-05-30T13:56:08.000Z</time>
      </trkpt>
      <trkpt lat="43.35084" lon="6.6749">
        <ele>85.599998474121</ele>
        <time>2019-05-30T13:56:09.000Z</time>
      </trkpt>
      <trkpt lat="43.35074" lon="6.67513">
        <ele>84.599998474121</ele>
        <time>2019-05-30T13:56:11.000Z</time>
      </trkpt>
      <trkpt lat="43.35064" lon="6.67535">
        <ele>82.599998474121</ele>
        <time>2019-05-30T13:56:13.000Z</time>
      </trkpt>
      <trkpt lat="43.35052" lon="6.67555">
        <ele>81.199996948242</ele>
        <time>2019-05-30T13:56:15.000Z</time>
      </trkpt>
      <trkpt lat="43.35045" lon="6.67565">
        <ele>81</ele>
        <time>2019-05-30T13:56:16.000Z</time>
      </trkpt>
      <trkpt lat="43.35028" lon="6.67575">
        <ele>81</ele>
        <time>2019-05-30T13:56:18.000Z</time>
      </trkpt>
      <trkpt lat="43.35" lon="6.67574">
        <ele>80</ele>
        <time>2019-05-30T13:56:21.000Z</time>
      </trkpt>
      <trkpt lat="43.34982" lon="6.67568">
        <ele>78.599998474121</ele>
        <time>2019-05-30T13:56:23.000Z</time>
      </trkpt>
      <trkpt lat="43.34964" lon="6.67561">
        <ele>77.400001525879</ele>
        <time>2019-05-30T13:56:25.000Z</time>
      </trkpt>
      <trkpt lat="43.34956" lon="6.67558">
        <ele>76.800003051758</ele>
        <time>2019-05-30T13:56:26.000Z</time>
      </trkpt>
      <trkpt lat="43.34947" lon="6.67557">
        <ele>76.199996948242</ele>
        <time>2019-05-30T13:56:27.000Z</time>
      </trkpt>
      <trkpt lat="43.34938" lon="6.67557">
        <ele>75.599998474121</ele>
        <time>2019-05-30T13:56:28.000Z</time>
      </trkpt>
      <trkpt lat="43.34929" lon="6.67558">
        <ele>75</ele>
        <time>2019-05-30T13:56:29.000Z</time>
      </trkpt>
      <trkpt lat="43.3492" lon="6.67561">
        <ele>74.599998474121</ele>
        <time>2019-05-30T13:56:30.000Z</time>
      </trkpt>
      <trkpt lat="43.34912" lon="6.67566">
        <ele>74</ele>
        <time>2019-05-30T13:56:31.000Z</time>
      </trkpt>
      <trkpt lat="43.34896" lon="6.67578">
        <ele>72.800003051758</ele>
        <time>2019-05-30T13:56:33.000Z</time>
      </trkpt>
      <trkpt lat="43.34888" lon="6.67584">
        <ele>72.199996948242</ele>
        <time>2019-05-30T13:56:34.000Z</time>
      </trkpt>
      <trkpt lat="43.34881" lon="6.67588">
        <ele>71.599998474121</ele>
        <time>2019-05-30T13:56:35.000Z</time>
      </trkpt>
      <trkpt lat="43.34864" lon="6.67595">
        <ele>70.400001525879</ele>
        <time>2019-05-30T13:56:37.000Z</time>
      </trkpt>
      <trkpt lat="43.34855" lon="6.67595">
        <ele>70.199996948242</ele>
        <time>2019-05-30T13:56:38.000Z</time>
      </trkpt>
      <trkpt lat="43.34838" lon="6.67588">
        <ele>69.199996948242</ele>
        <time>2019-05-30T13:56:40.000Z</time>
      </trkpt>
      <trkpt lat="43.3483" lon="6.67584">
        <ele>68.800003051758</ele>
        <time>2019-05-30T13:56:41.000Z</time>
      </trkpt>
      <trkpt lat="43.34822" lon="6.67582">
        <ele>68.199996948242</ele>
        <time>2019-05-30T13:56:42.000Z</time>
      </trkpt>
      <trkpt lat="43.34813" lon="6.67582">
        <ele>67.599998474121</ele>
        <time>2019-05-30T13:56:43.000Z</time>
      </trkpt>
      <trkpt lat="43.34805" lon="6.67584">
        <ele>67</ele>
        <time>2019-05-30T13:56:44.000Z</time>
      </trkpt>
      <trkpt lat="43.34796" lon="6.67588">
        <ele>66.199996948242</ele>
        <time>2019-05-30T13:56:45.000Z</time>
      </trkpt>
      <trkpt lat="43.34788" lon="6.67592">
        <ele>65.800003051758</ele>
        <time>2019-05-30T13:56:46.000Z</time>
      </trkpt>
      <trkpt lat="43.3478" lon="6.67595">
        <ele>65.199996948242</ele>
        <time>2019-05-30T13:56:47.000Z</time>
      </trkpt>
      <trkpt lat="43.34771" lon="6.67599">
        <ele>64.400001525879</ele>
        <time>2019-05-30T13:56:48.000Z</time>
      </trkpt>
      <trkpt lat="43.34762" lon="6.676">
        <ele>63.799999237061</ele>
        <time>2019-05-30T13:56:49.000Z</time>
      </trkpt>
      <trkpt lat="43.34743" lon="6.67597">
        <ele>62.599998474121</ele>
        <time>2019-05-30T13:56:51.000Z</time>
      </trkpt>
      <trkpt lat="43.34727" lon="6.67588">
        <ele>61.400001525879</ele>
        <time>2019-05-30T13:56:53.000Z</time>
      </trkpt>
      <trkpt lat="43.34718" lon="6.67583">
        <ele>60.799999237061</ele>
        <time>2019-05-30T13:56:54.000Z</time>
      </trkpt>
      <trkpt lat="43.34701" lon="6.67576">
        <ele>60</ele>
        <time>2019-05-30T13:56:56.000Z</time>
      </trkpt>
      <trkpt lat="43.34675" lon="6.67567">
        <ele>58.599998474121</ele>
        <time>2019-05-30T13:56:59.000Z</time>
      </trkpt>
      <trkpt lat="43.34666" lon="6.67561">
        <ele>58</ele>
        <time>2019-05-30T13:57:00.000Z</time>
      </trkpt>
      <trkpt lat="43.34659" lon="6.67553">
        <ele>57.400001525879</ele>
        <time>2019-05-30T13:57:01.000Z</time>
      </trkpt>
      <trkpt lat="43.34653" lon="6.67544">
        <ele>56.799999237061</ele>
        <time>2019-05-30T13:57:02.000Z</time>
      </trkpt>
      <trkpt lat="43.34649" lon="6.67531">
        <ele>56.200000762939</ele>
        <time>2019-05-30T13:57:03.000Z</time>
      </trkpt>
      <trkpt lat="43.34646" lon="6.67521">
        <ele>55.599998474121</ele>
        <time>2019-05-30T13:57:04.000Z</time>
      </trkpt>
      <trkpt lat="43.34642" lon="6.67512">
        <ele>55</ele>
        <time>2019-05-30T13:57:05.000Z</time>
      </trkpt>
      <trkpt lat="43.34631" lon="6.67508">
        <ele>53.799999237061</ele>
        <time>2019-05-30T13:57:07.000Z</time>
      </trkpt>
      <trkpt lat="43.34623" lon="6.67522">
        <ele>52.599998474121</ele>
        <time>2019-05-30T13:57:09.000Z</time>
      </trkpt>
      <trkpt lat="43.34626" lon="6.67539">
        <ele>51.599998474121</ele>
        <time>2019-05-30T13:57:11.000Z</time>
      </trkpt>
      <trkpt lat="43.34627" lon="6.67549">
        <ele>51.400001525879</ele>
        <time>2019-05-30T13:57:12.000Z</time>
      </trkpt>
      <trkpt lat="43.34628" lon="6.67559">
        <ele>51.200000762939</ele>
        <time>2019-05-30T13:57:13.000Z</time>
      </trkpt>
      <trkpt lat="43.34625" lon="6.67577">
        <ele>50.599998474121</ele>
        <time>2019-05-30T13:57:15.000Z</time>
      </trkpt>
      <trkpt lat="43.34624" lon="6.67594">
        <ele>50.400001525879</ele>
        <time>2019-05-30T13:57:17.000Z</time>
      </trkpt>
      <trkpt lat="43.34626" lon="6.67613">
        <ele>50</ele>
        <time>2019-05-30T13:57:19.000Z</time>
      </trkpt>
      <trkpt lat="43.34631" lon="6.67631">
        <ele>49</ele>
        <time>2019-05-30T13:57:21.000Z</time>
      </trkpt>
      <trkpt lat="43.34634" lon="6.67639">
        <ele>48.599998474121</ele>
        <time>2019-05-30T13:57:22.000Z</time>
      </trkpt>
      <trkpt lat="43.34639" lon="6.67659">
        <ele>48</ele>
        <time>2019-05-30T13:57:24.000Z</time>
      </trkpt>
      <trkpt lat="43.34641" lon="6.67669">
        <ele>47.799999237061</ele>
        <time>2019-05-30T13:57:25.000Z</time>
      </trkpt>
      <trkpt lat="43.3465" lon="6.67711">
        <ele>46.599998474121</ele>
        <time>2019-05-30T13:57:29.000Z</time>
      </trkpt>
      <trkpt lat="43.3465" lon="6.67723">
        <ele>46.400001525879</ele>
        <time>2019-05-30T13:57:30.000Z</time>
      </trkpt>
      <trkpt lat="43.34635" lon="6.67752">
        <ele>45.599998474121</ele>
        <time>2019-05-30T13:57:33.000Z</time>
      </trkpt>
      <trkpt lat="43.34619" lon="6.67761">
        <ele>43.799999237061</ele>
        <time>2019-05-30T13:57:35.000Z</time>
      </trkpt>
      <trkpt lat="43.3461" lon="6.67765">
        <ele>42.799999237061</ele>
        <time>2019-05-30T13:57:36.000Z</time>
      </trkpt>
      <trkpt lat="43.34601" lon="6.67768">
        <ele>41.799999237061</ele>
        <time>2019-05-30T13:57:37.000Z</time>
      </trkpt>
      <trkpt lat="43.34583" lon="6.67775">
        <ele>40</ele>
        <time>2019-05-30T13:57:39.000Z</time>
      </trkpt>
      <trkpt lat="43.34565" lon="6.67781">
        <ele>38.799999237061</ele>
        <time>2019-05-30T13:57:41.000Z</time>
      </trkpt>
      <trkpt lat="43.34545" lon="6.67784">
        <ele>37.599998474121</ele>
        <time>2019-05-30T13:57:43.000Z</time>
      </trkpt>
      <trkpt lat="43.34528" lon="6.6778">
        <ele>36.400001525879</ele>
        <time>2019-05-30T13:57:45.000Z</time>
      </trkpt>
      <trkpt lat="43.3452" lon="6.67774">
        <ele>36</ele>
        <time>2019-05-30T13:57:46.000Z</time>
      </trkpt>
      <trkpt lat="43.34508" lon="6.67758">
        <ele>35.200000762939</ele>
        <time>2019-05-30T13:57:48.000Z</time>
      </trkpt>
      <trkpt lat="43.34503" lon="6.67748">
        <ele>35</ele>
        <time>2019-05-30T13:57:49.000Z</time>
      </trkpt>
      <trkpt lat="43.34495" lon="6.67728">
        <ele>34</ele>
        <time>2019-05-30T13:57:51.000Z</time>
      </trkpt>
      <trkpt lat="43.34489" lon="6.67707">
        <ele>33</ele>
        <time>2019-05-30T13:57:53.000Z</time>
      </trkpt>
      <trkpt lat="43.34486" lon="6.67696">
        <ele>32.799999237061</ele>
        <time>2019-05-30T13:57:54.000Z</time>
      </trkpt>
      <trkpt lat="43.34481" lon="6.67679">
        <ele>32.400001525879</ele>
        <time>2019-05-30T13:57:56.000Z</time>
      </trkpt>
      <trkpt lat="43.34477" lon="6.67674">
        <ele>32.200000762939</ele>
        <time>2019-05-30T13:57:57.000Z</time>
      </trkpt>
      <trkpt lat="43.34466" lon="6.67674">
        <ele>31.60000038147</ele>
        <time>2019-05-30T13:57:59.000Z</time>
      </trkpt>
      <trkpt lat="43.34457" lon="6.67686">
        <ele>30.799999237061</ele>
        <time>2019-05-30T13:58:01.000Z</time>
      </trkpt>
      <trkpt lat="43.34455" lon="6.67692">
        <ele>30.200000762939</ele>
        <time>2019-05-30T13:58:02.000Z</time>
      </trkpt>
      <trkpt lat="43.34451" lon="6.67707">
        <ele>29</ele>
        <time>2019-05-30T13:58:04.000Z</time>
      </trkpt>
      <trkpt lat="43.3445" lon="6.67714">
        <ele>28.799999237061</ele>
        <time>2019-05-30T13:58:05.000Z</time>
      </trkpt>
      <trkpt lat="43.34447" lon="6.67745">
        <ele>27.799999237061</ele>
        <time>2019-05-30T13:58:09.000Z</time>
      </trkpt>
      <trkpt lat="43.34445" lon="6.67763">
        <ele>26.60000038147</ele>
        <time>2019-05-30T13:58:11.000Z</time>
      </trkpt>
      <trkpt lat="43.34441" lon="6.67792">
        <ele>25.200000762939</ele>
        <time>2019-05-30T13:58:14.000Z</time>
      </trkpt>
      <trkpt lat="43.3444" lon="6.67822">
        <ele>24</ele>
        <time>2019-05-30T13:58:17.000Z</time>
      </trkpt>
      <trkpt lat="43.34445" lon="6.67857">
        <ele>23</ele>
        <time>2019-05-30T13:58:20.000Z</time>
      </trkpt>
      <trkpt lat="43.34448" lon="6.67867">
        <ele>22.60000038147</ele>
        <time>2019-05-30T13:58:21.000Z</time>
      </trkpt>
      <trkpt lat="43.34455" lon="6.67886">
        <ele>21.799999237061</ele>
        <time>2019-05-30T13:58:23.000Z</time>
      </trkpt>
      <trkpt lat="43.34464" lon="6.67913">
        <ele>21</ele>
        <time>2019-05-30T13:58:26.000Z</time>
      </trkpt>
      <trkpt lat="43.34466" lon="6.67921">
        <ele>20.799999237061</ele>
        <time>2019-05-30T13:58:27.000Z</time>
      </trkpt>
      <trkpt lat="43.34478" lon="6.67955">
        <ele>20</ele>
        <time>2019-05-30T13:58:31.000Z</time>
      </trkpt>
      <trkpt lat="43.34485" lon="6.67978">
        <ele>20</ele>
        <time>2019-05-30T13:58:34.000Z</time>
      </trkpt>
      <trkpt lat="43.34489" lon="6.67995">
        <ele>20</ele>
        <time>2019-05-30T13:58:37.000Z</time>
      </trkpt>
      <trkpt lat="43.34483" lon="6.68002">
        <ele>20.200000762939</ele>
        <time>2019-05-30T13:58:39.000Z</time>
      </trkpt>
      <trkpt lat="43.34464" lon="6.68011">
        <ele>20.39999961853</ele>
        <time>2019-05-30T13:58:43.000Z</time>
      </trkpt>
      <trkpt lat="43.34459" lon="6.68014">
        <ele>20.39999961853</ele>
        <time>2019-05-30T13:58:44.000Z</time>
      </trkpt>
      <trkpt lat="43.34454" lon="6.68016">
        <ele>20.200000762939</ele>
        <time>2019-05-30T13:58:45.000Z</time>
      </trkpt>
      <trkpt lat="43.34441" lon="6.68021">
        <ele>19.799999237061</ele>
        <time>2019-05-30T13:58:48.000Z</time>
      </trkpt>
      <trkpt lat="43.34436" lon="6.68023">
        <ele>19.60000038147</ele>
        <time>2019-05-30T13:58:49.000Z</time>
      </trkpt>
      <trkpt lat="43.34426" lon="6.68029">
        <ele>20</ele>
        <time>2019-05-30T13:58:51.000Z</time>
      </trkpt>
      <trkpt lat="43.34421" lon="6.68033">
        <ele>20.200000762939</ele>
        <time>2019-05-30T13:58:52.000Z</time>
      </trkpt>
      <trkpt lat="43.34404" lon="6.68054">
        <ele>20.200000762939</ele>
        <time>2019-05-30T13:58:56.000Z</time>
      </trkpt>
      <trkpt lat="43.34402" lon="6.6806">
        <ele>19.799999237061</ele>
        <time>2019-05-30T13:58:57.000Z</time>
      </trkpt>
      <trkpt lat="43.34386" lon="6.68098">
        <ele>19.200000762939</ele>
        <time>2019-05-30T13:59:03.000Z</time>
      </trkpt>
      <trkpt lat="43.34379" lon="6.68108">
        <ele>19.39999961853</ele>
        <time>2019-05-30T13:59:05.000Z</time>
      </trkpt>
      <trkpt lat="43.3437" lon="6.68112">
        <ele>19.60000038147</ele>
        <time>2019-05-30T13:59:07.000Z</time>
      </trkpt>
      <trkpt lat="43.34358" lon="6.68114">
        <ele>20</ele>
        <time>2019-05-30T13:59:09.000Z</time>
      </trkpt>
      <trkpt lat="43.34352" lon="6.68116">
        <ele>20</ele>
        <time>2019-05-30T13:59:10.000Z</time>
      </trkpt>
      <trkpt lat="43.34346" lon="6.68119">
        <ele>19.799999237061</ele>
        <time>2019-05-30T13:59:11.000Z</time>
      </trkpt>
      <trkpt lat="43.3433" lon="6.6813">
        <ele>18.799999237061</ele>
        <time>2019-05-30T13:59:14.000Z</time>
      </trkpt>
      <trkpt lat="43.34325" lon="6.68134">
        <ele>18.60000038147</ele>
        <time>2019-05-30T13:59:15.000Z</time>
      </trkpt>
      <trkpt lat="43.34316" lon="6.68143">
        <ele>18.60000038147</ele>
        <time>2019-05-30T13:59:17.000Z</time>
      </trkpt>
      <trkpt lat="43.34301" lon="6.68156">
        <ele>18.200000762939</ele>
        <time>2019-05-30T13:59:20.000Z</time>
      </trkpt>
      <trkpt lat="43.34286" lon="6.68166">
        <ele>18.60000038147</ele>
        <time>2019-05-30T13:59:23.000Z</time>
      </trkpt>
      <trkpt lat="43.34257" lon="6.68186">
        <ele>18</ele>
        <time>2019-05-30T13:59:29.000Z</time>
      </trkpt>
      <trkpt lat="43.34253" lon="6.6819">
        <ele>18</ele>
        <time>2019-05-30T13:59:30.000Z</time>
      </trkpt>
      <trkpt lat="43.34241" lon="6.68201">
        <ele>18.200000762939</ele>
        <time>2019-05-30T13:59:33.000Z</time>
      </trkpt>
      <trkpt lat="43.34232" lon="6.68209">
        <ele>18.60000038147</ele>
        <time>2019-05-30T13:59:36.000Z</time>
      </trkpt>
      <trkpt lat="43.34226" lon="6.68212">
        <ele>19.200000762939</ele>
        <time>2019-05-30T13:59:40.000Z</time>
      </trkpt>
      <trkpt lat="43.34216" lon="6.6822">
        <ele>19.200000762939</ele>
        <time>2019-05-30T13:59:46.000Z</time>
      </trkpt>
      <trkpt lat="43.34201" lon="6.68231">
        <ele>19</ele>
        <time>2019-05-30T13:59:52.000Z</time>
      </trkpt>
      <trkpt lat="43.34189" lon="6.68241">
        <ele>19.60000038147</ele>
        <time>2019-05-30T13:59:57.000Z</time>
      </trkpt>
      <trkpt lat="43.34187" lon="6.68243">
        <ele>19.799999237061</ele>
        <time>2019-05-30T13:59:58.000Z</time>
      </trkpt>
      <trkpt lat="43.34173" lon="6.68247">
        <ele>20.200000762939</ele>
        <time>2019-05-30T14:00:03.000Z</time>
      </trkpt>
      <trkpt lat="43.34166" lon="6.68245">
        <ele>20.60000038147</ele>
        <time>2019-05-30T14:00:07.000Z</time>
      </trkpt>
      <trkpt lat="43.34164" lon="6.68246">
        <ele>20.799999237061</ele>
        <time>2019-05-30T14:00:08.000Z</time>
      </trkpt>
      <trkpt lat="43.34164" lon="6.68247">
        <ele>20.39999961853</ele>
        <time>2019-05-30T14:00:12.000Z</time>
      </trkpt>
      <trkpt lat="43.34163" lon="6.68249">
        <ele>20.39999961853</ele>
        <time>2019-05-30T14:00:21.000Z</time>
      </trkpt>
      <trkpt lat="43.34162" lon="6.6825">
        <ele>20.60000038147</ele>
        <time>2019-05-30T14:00:34.000Z</time>
      </trkpt>
      <trkpt lat="43.34161" lon="6.68253">
        <ele>20.39999961853</ele>
        <time>2019-05-30T14:00:40.000Z</time>
      </trkpt>
      <trkpt lat="43.3416" lon="6.68255">
        <ele>20.39999961853</ele>
        <time>2019-05-30T14:00:41.000Z</time>
      </trkpt>
      <trkpt lat="43.34153" lon="6.68265">
        <ele>20.200000762939</ele>
        <time>2019-05-30T14:00:46.000Z</time>
      </trkpt>
      <trkpt lat="43.34149" lon="6.68263">
        <ele>20.200000762939</ele>
        <time>2019-05-30T14:00:49.000Z</time>
      </trkpt>
      <trkpt lat="43.34139" lon="6.68256">
        <ele>20.200000762939</ele>
        <time>2019-05-30T14:00:54.000Z</time>
      </trkpt>
      <trkpt lat="43.34131" lon="6.68262">
        <ele>18.60000038147</ele>
        <time>2019-05-30T14:00:57.000Z</time>
      </trkpt>
      <trkpt lat="43.34129" lon="6.68263">
        <ele>18</ele>
        <time>2019-05-30T14:00:58.000Z</time>
      </trkpt>
      <trkpt lat="43.34124" lon="6.68264">
        <ele>17.60000038147</ele>
        <time>2019-05-30T14:01:00.000Z</time>
      </trkpt>
      <trkpt lat="43.34119" lon="6.68271">
        <ele>18</ele>
        <time>2019-05-30T14:01:03.000Z</time>
      </trkpt>
      <trkpt lat="43.34111" lon="6.68284">
        <ele>17.200000762939</ele>
        <time>2019-05-30T14:01:09.000Z</time>
      </trkpt>
      <trkpt lat="43.34109" lon="6.68294">
        <ele>16.39999961853</ele>
        <time>2019-05-30T14:01:12.000Z</time>
      </trkpt>
      <trkpt lat="43.34107" lon="6.68303">
        <ele>16.200000762939</ele>
        <time>2019-05-30T14:01:14.000Z</time>
      </trkpt>
      <trkpt lat="43.341" lon="6.68322">
        <ele>15.60000038147</ele>
        <time>2019-05-30T14:01:18.000Z</time>
      </trkpt>
      <trkpt lat="43.34096" lon="6.6833">
        <ele>15.199999809265</ele>
        <time>2019-05-30T14:01:20.000Z</time>
      </trkpt>
      <trkpt lat="43.34087" lon="6.68344">
        <ele>14.60000038147</ele>
        <time>2019-05-30T14:01:24.000Z</time>
      </trkpt>
      <trkpt lat="43.34086" lon="6.68345">
        <ele>15.60000038147</ele>
        <time>2019-05-30T14:01:27.000Z</time>
      </trkpt>
      <trkpt lat="43.34085" lon="6.68348">
        <ele>16.39999961853</ele>
        <time>2019-05-30T14:01:30.000Z</time>
      </trkpt>
      <trkpt lat="43.34085" lon="6.68352">
        <ele>17.200000762939</ele>
        <time>2019-05-30T14:01:33.000Z</time>
      </trkpt>
      <trkpt lat="43.34084" lon="6.68353">
        <ele>17.60000038147</ele>
        <time>2019-05-30T14:01:34.000Z</time>
      </trkpt>
      <trkpt lat="43.34079" lon="6.68356">
        <ele>18.39999961853</ele>
        <time>2019-05-30T14:01:38.000Z</time>
      </trkpt>
      <trkpt lat="43.34078" lon="6.68357">
        <ele>18.39999961853</ele>
        <time>2019-05-30T14:01:44.000Z</time>
      </trkpt>
      <trkpt lat="43.34076" lon="6.68359">
        <ele>18</ele>
        <time>2019-05-30T14:01:55.000Z</time>
      </trkpt>
      <trkpt lat="43.34076" lon="6.68361">
        <ele>18</ele>
        <time>2019-05-30T14:02:01.000Z</time>
      </trkpt>
      <trkpt lat="43.34075" lon="6.68362">
        <ele>18</ele>
        <time>2019-05-30T14:02:09.000Z</time>
      </trkpt>
      <trkpt lat="43.34075" lon="6.68366">
        <ele>18</ele>
        <time>2019-05-30T14:02:17.000Z</time>
      </trkpt>
      <trkpt lat="43.34074" lon="6.68369">
        <ele>18</ele>
        <time>2019-05-30T14:02:25.000Z</time>
      </trkpt>
      <trkpt lat="43.34074" lon="6.68369">
        <ele>18.200000762939</ele>
        <time>2019-05-30T14:02:28.000Z</time>
      </trkpt>
    </trkseg>
  </trk>
</gpx>